<?xml version='1.0' encoding='UTF-8'?><gpx version="1.1" creator="JPX - https://github.com/jenetics/jpx" xmlns="http://www.topografix.com/GPX/1/1"><trk><trkseg><trkpt lat="44.88940486554799" lon="11.835296285406807"><ele>0.9999999999999999</ele><time>2026-04-05T11:38:23.993Z</time></trkpt><trkpt lat="44.889473571424034" lon="11.835285537248852"><ele>1.0</ele><time>2026-04-05T11:39:06.002Z</time></trkpt><trkpt lat="44.88954149568547" lon="11.835286503710934"><ele>1.0</ele><time>2026-04-05T11:41:39.003Z</time></trkpt><trkpt lat="44.889636973555085" lon="11.835429551929574"><ele>1.0</ele><time>2026-04-05T11:41:41.003Z</time></trkpt><trkpt lat="44.8896871927784" lon="11.83551941713474"><ele>0.9999999999999999</ele><time>2026-04-05T11:41:42.003Z</time></trkpt><trkpt lat="44.88973546284646" lon="11.835602650692046"><ele>1.0</ele><time>2026-04-05T11:41:43.003Z</time></trkpt><trkpt lat="44.889786041960654" lon="11.835681475063293"><ele>1.0</ele><time>2026-04-05T11:41:44.003Z</time></trkpt><trkpt lat="44.8898548260606" lon="11.835754714860165"><ele>1.0</ele><time>2026-04-05T11:41:45.003Z</time></trkpt><trkpt lat="44.889920081872084" lon="11.83582739486663"><ele>1.0</ele><time>2026-04-05T11:41:46.003Z</time></trkpt><trkpt lat="44.889994872998095" lon="11.835901013625023"><ele>1.0</ele><time>2026-04-05T11:41:47.003Z</time></trkpt><trkpt lat="44.890079038805915" lon="11.83596624506142"><ele>1.0</ele><time>2026-04-05T11:41:48.003Z</time></trkpt><trkpt lat="44.890173663728994" lon="11.836038743302904"><ele>1.4</ele><time>2026-04-05T11:41:49.003Z</time></trkpt><trkpt lat="44.89026511396887" lon="11.83609787994719"><ele>1.8</ele><time>2026-04-05T11:41:50.003Z</time></trkpt><trkpt lat="44.890367155196444" lon="11.836144426100791"><ele>2.1999999999999997</ele><time>2026-04-05T11:41:51.003Z</time></trkpt><trkpt lat="44.890480061213765" lon="11.836199778616525"><ele>2.6</ele><time>2026-04-05T11:41:52.003Z</time></trkpt><trkpt lat="44.89057521853608" lon="11.83624184768957"><ele>3.0</ele><time>2026-04-05T11:41:53.003Z</time></trkpt><trkpt lat="44.89066753308085" lon="11.836262388282023"><ele>3.0</ele><time>2026-04-05T11:41:54.003Z</time></trkpt><trkpt lat="44.89074332859105" lon="11.83626866905239"><ele>3.0</ele><time>2026-04-05T11:41:55.003Z</time></trkpt><trkpt lat="44.890806167111315" lon="11.83628096440884"><ele>3.0</ele><time>2026-04-05T11:41:56.003Z</time></trkpt><trkpt lat="44.8908895120685" lon="11.836287005109812"><ele>3.0</ele><time>2026-04-05T11:41:58.003Z</time></trkpt><trkpt lat="44.890964640011745" lon="11.836361742965396"><ele>3.0</ele><time>2026-04-05T11:42:01.002Z</time></trkpt><trkpt lat="44.89098423555496" lon="11.836447168398621"><ele>3.0</ele><time>2026-04-05T11:42:02.002Z</time></trkpt><trkpt lat="44.890994336926966" lon="11.836556754646065"><ele>3.0</ele><time>2026-04-05T11:42:03.002Z</time></trkpt><trkpt lat="44.89100074860598" lon="11.836659379647804"><ele>3.0</ele><time>2026-04-05T11:42:04.002Z</time></trkpt><trkpt lat="44.89099898089328" lon="11.8367490475186"><ele>3.0</ele><time>2026-04-05T11:42:05.002Z</time></trkpt><trkpt lat="44.89102137011444" lon="11.83687643827659"><ele>3.0</ele><time>2026-04-05T11:42:07.002Z</time></trkpt><trkpt lat="44.89096033004183" lon="11.837001132768522"><ele>3.0</ele><time>2026-04-05T11:42:09.002Z</time></trkpt><trkpt lat="44.890829327643026" lon="11.837047242028248"><ele>2.8</ele><time>2026-04-05T11:42:11.002Z</time></trkpt><trkpt lat="44.89074410675311" lon="11.837039340198185"><ele>2.5999999999999996</ele><time>2026-04-05T11:42:12.002Z</time></trkpt><trkpt lat="44.89063675747602" lon="11.837024236307446"><ele>2.4000000000000004</ele><time>2026-04-05T11:42:13.002Z</time></trkpt><trkpt lat="44.89053024436204" lon="11.836991212330632"><ele>2.2</ele><time>2026-04-05T11:42:14.002Z</time></trkpt><trkpt lat="44.89042984841458" lon="11.836976818103258"><ele>2.0</ele><time>2026-04-05T11:42:15.002Z</time></trkpt><trkpt lat="44.890316255080194" lon="11.836938031569408"><ele>2.0</ele><time>2026-04-05T11:42:16.002Z</time></trkpt><trkpt lat="44.89019185313577" lon="11.836852418720863"><ele>2.0</ele><time>2026-04-05T11:42:17.002Z</time></trkpt><trkpt lat="44.890079194463105" lon="11.836817769594811"><ele>2.0</ele><time>2026-04-05T11:42:18.002Z</time></trkpt><trkpt lat="44.88995750619109" lon="11.836733251682675"><ele>2.0</ele><time>2026-04-05T11:42:19.002Z</time></trkpt><trkpt lat="44.889823894810355" lon="11.83663385002635"><ele>1.75</ele><time>2026-04-05T11:42:20.002Z</time></trkpt><trkpt lat="44.889693692436815" lon="11.836536271934017"><ele>1.5</ele><time>2026-04-05T11:42:21.002Z</time></trkpt><trkpt lat="44.88957222636244" lon="11.836422075509693"><ele>1.25</ele><time>2026-04-05T11:42:22.002Z</time></trkpt><trkpt lat="44.88945683335165" lon="11.836276273502037"><ele>1.0</ele><time>2026-04-05T11:42:23.002Z</time></trkpt><trkpt lat="44.88934692003075" lon="11.836137116597783"><ele>1.0</ele><time>2026-04-05T11:42:24.002Z</time></trkpt><trkpt lat="44.88925991181434" lon="11.835983018671927"><ele>1.0</ele><time>2026-04-05T11:42:25.002Z</time></trkpt><trkpt lat="44.88918247896203" lon="11.835847661338176"><ele>1.0</ele><time>2026-04-05T11:42:26.002Z</time></trkpt><trkpt lat="44.88910705897013" lon="11.83573395924157"><ele>1.0</ele><time>2026-04-05T11:42:27.002Z</time></trkpt><trkpt lat="44.8890476413511" lon="11.835604140417415"><ele>0.9999999999999999</ele><time>2026-04-05T11:42:28.002Z</time></trkpt><trkpt lat="44.888993464107365" lon="11.835486130323751"><ele>1.0</ele><time>2026-04-05T11:42:29.002Z</time></trkpt><trkpt lat="44.888956080984336" lon="11.835362892255871"><ele>1.0</ele><time>2026-04-05T11:42:30.002Z</time></trkpt><trkpt lat="44.88892135381963" lon="11.835278624075"><ele>1.0</ele><time>2026-04-05T11:42:31.002Z</time></trkpt><trkpt lat="44.88889905213647" lon="11.835193251810159"><ele>0.9999999999999999</ele><time>2026-04-05T11:42:32.002Z</time></trkpt><trkpt lat="44.888838394089255" lon="11.835102586414662"><ele>1.0</ele><time>2026-04-05T11:42:34.002Z</time></trkpt><trkpt lat="44.888742931587025" lon="11.835107524718659"><ele>1.0</ele><time>2026-04-05T11:42:36.002Z</time></trkpt><trkpt lat="44.88869027729341" lon="11.83516704547657"><ele>1.0</ele><time>2026-04-05T11:42:37.002Z</time></trkpt><trkpt lat="44.888643940041604" lon="11.835287308475396"><ele>1.0</ele><time>2026-04-05T11:42:38.002Z</time></trkpt><trkpt lat="44.88859320311298" lon="11.835448945386169"><ele>1.0</ele><time>2026-04-05T11:42:39.002Z</time></trkpt><trkpt lat="44.88852664071368" lon="11.8356280987914"><ele>1.0</ele><time>2026-04-05T11:42:40.002Z</time></trkpt><trkpt lat="44.88844859611693" lon="11.83579742418383"><ele>1.0</ele><time>2026-04-05T11:42:41.002Z</time></trkpt><trkpt lat="44.888361512786524" lon="11.835950620483908"><ele>1.0</ele><time>2026-04-05T11:42:42.002Z</time></trkpt><trkpt lat="44.888266337677244" lon="11.836111163044208"><ele>1.0</ele><time>2026-04-05T11:42:43.002Z</time></trkpt><trkpt lat="44.88815827989039" lon="11.836275790694737"><ele>1.0</ele><time>2026-04-05T11:42:44.002Z</time></trkpt><trkpt lat="44.888057823116654" lon="11.836446021572021"><ele>1.0</ele><time>2026-04-05T11:42:45.002Z</time></trkpt><trkpt lat="44.887963239630295" lon="11.836606715112321"><ele>1.0</ele><time>2026-04-05T11:42:46.002Z</time></trkpt><trkpt lat="44.88787147861918" lon="11.836734525318906"><ele>1.0</ele><time>2026-04-05T11:42:47.002Z</time></trkpt><trkpt lat="44.88777876430521" lon="11.836828462496511"><ele>1.0</ele><time>2026-04-05T11:42:48.002Z</time></trkpt><trkpt lat="44.887680008083336" lon="11.836873880179915"><ele>0.8</ele><time>2026-04-05T11:42:49.002Z</time></trkpt><trkpt lat="44.88758187809219" lon="11.836881762210725"><ele>0.6000000000000001</ele><time>2026-04-05T11:42:50.002Z</time></trkpt><trkpt lat="44.88748671565128" lon="11.83685070214302"><ele>0.4</ele><time>2026-04-05T11:42:51.002Z</time></trkpt><trkpt lat="44.88738230802539" lon="11.836830125261242"><ele>0.2</ele><time>2026-04-05T11:42:52.002Z</time></trkpt><trkpt lat="44.88727528270321" lon="11.83684192567748"><ele>0.0</ele><time>2026-04-05T11:42:53.002Z</time></trkpt><trkpt lat="44.88716138321992" lon="11.836917268104903"><ele>0.0</ele><time>2026-04-05T11:42:54.002Z</time></trkpt><trkpt lat="44.88705151632228" lon="11.837023051272691"><ele>0.0</ele><time>2026-04-05T11:42:55.002Z</time></trkpt><trkpt lat="44.88690579476645" lon="11.837119873113405"><ele>0.0</ele><time>2026-04-05T11:42:56.002Z</time></trkpt><trkpt lat="44.88674093315988" lon="11.837204453200327"><ele>-0.3333333333333333</ele><time>2026-04-05T11:42:57.002Z</time></trkpt><trkpt lat="44.88655391978948" lon="11.837235947707395"><ele>-0.6666666666666666</ele><time>2026-04-05T11:42:58.002Z</time></trkpt><trkpt lat="44.88636336075416" lon="11.837265685677375"><ele>-1.0</ele><time>2026-04-05T11:42:59.002Z</time></trkpt><trkpt lat="44.886168965205705" lon="11.837310553601418"><ele>-1.0</ele><time>2026-04-05T11:43:00.002Z</time></trkpt><trkpt lat="44.88596923293296" lon="11.837352793476539"><ele>-1.0</ele><time>2026-04-05T11:43:01.002Z</time></trkpt><trkpt lat="44.885756587669185" lon="11.837397977330095"><ele>-1.0</ele><time>2026-04-05T11:43:02.002Z</time></trkpt><trkpt lat="44.885554509629756" lon="11.837430062863662"><ele>-0.5</ele><time>2026-04-05T11:43:03.002Z</time></trkpt><trkpt lat="44.8853210662548" lon="11.837486554975206"><ele>0.0</ele><time>2026-04-05T11:43:04.002Z</time></trkpt><trkpt lat="44.88510424774181" lon="11.837531658885327"><ele>0.0</ele><time>2026-04-05T11:43:05.002Z</time></trkpt><trkpt lat="44.88487053308174" lon="11.837585262840204"><ele>0.0</ele><time>2026-04-05T11:43:06.002Z</time></trkpt><trkpt lat="44.884634353977646" lon="11.837641304371004"><ele>1.0</ele><time>2026-04-05T11:43:07.002Z</time></trkpt><trkpt lat="44.884397545216636" lon="11.837699159126132"><ele>2.0</ele><time>2026-04-05T11:43:08.002Z</time></trkpt><trkpt lat="44.884157567179614" lon="11.837760941988325"><ele>2.0</ele><time>2026-04-05T11:43:09.002Z</time></trkpt><trkpt lat="44.88391451631601" lon="11.837820751694666"><ele>2.0</ele><time>2026-04-05T11:43:10.002Z</time></trkpt><trkpt lat="44.88365715306158" lon="11.837883344112358"><ele>2.0</ele><time>2026-04-05T11:43:11.002Z</time></trkpt><trkpt lat="44.88340615265032" lon="11.837948105588806"><ele>2.0</ele><time>2026-04-05T11:43:12.002Z</time></trkpt><trkpt lat="44.883157109783824" lon="11.838036565250155"><ele>2.0</ele><time>2026-04-05T11:43:13.002Z</time></trkpt><trkpt lat="44.88291186877315" lon="11.83814361689529"><ele>2.0</ele><time>2026-04-05T11:43:14.002Z</time></trkpt><trkpt lat="44.88265827037185" lon="11.838300469450413"><ele>1.5</ele><time>2026-04-05T11:43:15.002Z</time></trkpt><trkpt lat="44.88240590600931" lon="11.838430591117808"><ele>1.0</ele><time>2026-04-05T11:43:16.002Z</time></trkpt><trkpt lat="44.882151703837714" lon="11.83856963155371"><ele>1.0</ele><time>2026-04-05T11:43:17.002Z</time></trkpt><trkpt lat="44.88189085381807" lon="11.838687832068924"><ele>1.0</ele><time>2026-04-05T11:43:18.002Z</time></trkpt><trkpt lat="44.88163288377253" lon="11.838817212962528"><ele>1.5</ele><time>2026-04-05T11:43:19.002Z</time></trkpt><trkpt lat="44.881368600385436" lon="11.838947398301306"><ele>2.0</ele><time>2026-04-05T11:43:20.002Z</time></trkpt><trkpt lat="44.881102456650694" lon="11.83907512273098"><ele>1.5</ele><time>2026-04-05T11:43:21.002Z</time></trkpt><trkpt lat="44.8808528697047" lon="11.839207457487584"><ele>1.0</ele><time>2026-04-05T11:43:22.002Z</time></trkpt><trkpt lat="44.8805940568061" lon="11.839337357259264"><ele>1.0</ele><time>2026-04-05T11:43:23.002Z</time></trkpt><trkpt lat="44.88033835894226" lon="11.839464382095557"><ele>1.0</ele><time>2026-04-05T11:43:24.002Z</time></trkpt><trkpt lat="44.88007045917449" lon="11.83959201684496"><ele>0.5</ele><time>2026-04-05T11:43:25.002Z</time></trkpt><trkpt lat="44.8798235614318" lon="11.839728725651543"><ele>0.0</ele><time>2026-04-05T11:43:26.002Z</time></trkpt><trkpt lat="44.879568777143454" lon="11.839836211755578"><ele>0.0</ele><time>2026-04-05T11:43:27.002Z</time></trkpt><trkpt lat="44.87932866358498" lon="11.839925914056364"><ele>0.0</ele><time>2026-04-05T11:43:28.002Z</time></trkpt><trkpt lat="44.87910348765648" lon="11.839982530256144"><ele>-0.5</ele><time>2026-04-05T11:43:29.002Z</time></trkpt><trkpt lat="44.87887499224327" lon="11.840044331978456"><ele>-1.0</ele><time>2026-04-05T11:43:30.002Z</time></trkpt><trkpt lat="44.87865709604364" lon="11.840077882931443"><ele>-1.0</ele><time>2026-04-05T11:43:31.002Z</time></trkpt><trkpt lat="44.87844415007622" lon="11.840069184366444"><ele>-1.0</ele><time>2026-04-05T11:43:32.002Z</time></trkpt><trkpt lat="44.87822049924094" lon="11.839996432442874"><ele>-1.0</ele><time>2026-04-05T11:43:33.002Z</time></trkpt><trkpt lat="44.87801121644993" lon="11.839886122888956"><ele>0.0</ele><time>2026-04-05T11:43:34.002Z</time></trkpt><trkpt lat="44.8777930317784" lon="11.839754005116301"><ele>1.0</ele><time>2026-04-05T11:43:35.002Z</time></trkpt><trkpt lat="44.877586170191805" lon="11.839591691803058"><ele>1.5</ele><time>2026-04-05T11:43:36.002Z</time></trkpt><trkpt lat="44.877374399455704" lon="11.83946305421102"><ele>2.0</ele><time>2026-04-05T11:43:37.002Z</time></trkpt><trkpt lat="44.877156342704396" lon="11.839344270327132"><ele>2.0</ele><time>2026-04-05T11:43:38.002Z</time></trkpt><trkpt lat="44.87693566310711" lon="11.839239778398852"><ele>2.0</ele><time>2026-04-05T11:43:39.002Z</time></trkpt><trkpt lat="44.87671784232084" lon="11.83916145298189"><ele>2.0</ele><time>2026-04-05T11:43:40.002Z</time></trkpt><trkpt lat="44.87651337364442" lon="11.839097934675731"><ele>2.0</ele><time>2026-04-05T11:43:41.002Z</time></trkpt><trkpt lat="44.87632536161746" lon="11.839032469394228"><ele>2.0</ele><time>2026-04-05T11:43:42.002Z</time></trkpt><trkpt lat="44.87615018980842" lon="11.838965661637365"><ele>2.0</ele><time>2026-04-05T11:43:43.002Z</time></trkpt><trkpt lat="44.87599769029889" lon="11.83888189299263"><ele>2.0</ele><time>2026-04-05T11:43:44.002Z</time></trkpt><trkpt lat="44.875855289946266" lon="11.838802492224335"><ele>2.0</ele><time>2026-04-05T11:43:45.002Z</time></trkpt><trkpt lat="44.87572437595674" lon="11.838706741009235"><ele>1.75</ele><time>2026-04-05T11:43:46.002Z</time></trkpt><trkpt lat="44.87559980008888" lon="11.838603378742748"><ele>1.5</ele><time>2026-04-05T11:43:47.002Z</time></trkpt><trkpt lat="44.87548631472321" lon="11.838482029964"><ele>1.25</ele><time>2026-04-05T11:43:48.002Z</time></trkpt><trkpt lat="44.875380936155246" lon="11.838342864245872"><ele>1.0</ele><time>2026-04-05T11:43:49.003Z</time></trkpt><trkpt lat="44.87529093520229" lon="11.83818923068689"><ele>1.0</ele><time>2026-04-05T11:43:50.003Z</time></trkpt><trkpt lat="44.875201870114985" lon="11.838023576689581"><ele>1.0</ele><time>2026-04-05T11:43:51.003Z</time></trkpt><trkpt lat="44.87510298123089" lon="11.837861702115932"><ele>1.0</ele><time>2026-04-05T11:43:52.003Z</time></trkpt><trkpt lat="44.87498901638578" lon="11.8376929862522"><ele>1.6666666666666665</ele><time>2026-04-05T11:43:53.003Z</time></trkpt><trkpt lat="44.87485108467269" lon="11.837548395643449"><ele>2.3333333333333335</ele><time>2026-04-05T11:43:54.003Z</time></trkpt><trkpt lat="44.87472083758763" lon="11.837388262437148"><ele>3.0</ele><time>2026-04-05T11:43:55.003Z</time></trkpt><trkpt lat="44.8745780490598" lon="11.837235042650892"><ele>3.0</ele><time>2026-04-05T11:43:56.003Z</time></trkpt><trkpt lat="44.87441422311772" lon="11.837076902318756"><ele>3.0</ele><time>2026-04-05T11:43:57.003Z</time></trkpt><trkpt lat="44.874263069696234" lon="11.836918751301903"><ele>3.0</ele><time>2026-04-05T11:43:58.003Z</time></trkpt><trkpt lat="44.874089698537844" lon="11.836747127962946"><ele>2.3333333333333335</ele><time>2026-04-05T11:43:59.003Z</time></trkpt><trkpt lat="44.87391591872928" lon="11.83657754690899"><ele>1.6666666666666665</ele><time>2026-04-05T11:44:00.003Z</time></trkpt><trkpt lat="44.873726109971734" lon="11.836376626194127"><ele>1.0</ele><time>2026-04-05T11:44:01.003Z</time></trkpt><trkpt lat="44.87352896665198" lon="11.83617572725199"><ele>1.0</ele><time>2026-04-05T11:44:02.003Z</time></trkpt><trkpt lat="44.873330428807414" lon="11.835975066982655"><ele>1.0</ele><time>2026-04-05T11:44:03.003Z</time></trkpt><trkpt lat="44.873131958015854" lon="11.835767070817644"><ele>0.5</ele><time>2026-04-05T11:44:04.003Z</time></trkpt><trkpt lat="44.872930457654924" lon="11.835558118543315"><ele>0.0</ele><time>2026-04-05T11:44:05.003Z</time></trkpt><trkpt lat="44.87273068797632" lon="11.835352817242832"><ele>0.0</ele><time>2026-04-05T11:44:06.003Z</time></trkpt><trkpt lat="44.872536170713616" lon="11.835149654598206"><ele>0.0</ele><time>2026-04-05T11:44:07.003Z</time></trkpt><trkpt lat="44.8723474368484" lon="11.83495723967628"><ele>0.0</ele><time>2026-04-05T11:44:08.003Z</time></trkpt><trkpt lat="44.87216918225127" lon="11.834783431089912"><ele>0.0</ele><time>2026-04-05T11:44:09.003Z</time></trkpt><trkpt lat="44.8720085046483" lon="11.834621484963613"><ele>0.0</ele><time>2026-04-05T11:44:10.003Z</time></trkpt><trkpt lat="44.87185276586015" lon="11.834481523554"><ele>0.6666666666666666</ele><time>2026-04-05T11:44:11.003Z</time></trkpt><trkpt lat="44.87172715997139" lon="11.834336980626672"><ele>1.3333333333333333</ele><time>2026-04-05T11:44:12.003Z</time></trkpt><trkpt lat="44.87158420491802" lon="11.834249417340343"><ele>2.0</ele><time>2026-04-05T11:44:13.003Z</time></trkpt><trkpt lat="44.871446967328204" lon="11.834181918010573"><ele>2.0</ele><time>2026-04-05T11:44:14.003Z</time></trkpt><trkpt lat="44.871314179915096" lon="11.834128987330068"><ele>2.0</ele><time>2026-04-05T11:44:15.003Z</time></trkpt><trkpt lat="44.87118873526029" lon="11.834076865085796"><ele>2.0</ele><time>2026-04-05T11:44:16.003Z</time></trkpt><trkpt lat="44.87106865133086" lon="11.834022140194797"><ele>2.0</ele><time>2026-04-05T11:44:17.003Z</time></trkpt><trkpt lat="44.87094934264028" lon="11.8339363225681"><ele>2.333333333333333</ele><time>2026-04-05T11:44:18.003Z</time></trkpt><trkpt lat="44.8708226950492" lon="11.833826332391542"><ele>2.6666666666666665</ele><time>2026-04-05T11:44:19.003Z</time></trkpt><trkpt lat="44.87069089840134" lon="11.833699987924609"><ele>3.0</ele><time>2026-04-05T11:44:20.003Z</time></trkpt><trkpt lat="44.870548423968735" lon="11.833569693808467"><ele>3.0</ele><time>2026-04-05T11:44:21.003Z</time></trkpt><trkpt lat="44.87039624954373" lon="11.833425759964951"><ele>3.0</ele><time>2026-04-05T11:44:22.003Z</time></trkpt><trkpt lat="44.87023574971761" lon="11.833283429065618"><ele>3.0</ele><time>2026-04-05T11:44:23.003Z</time></trkpt><trkpt lat="44.870065607095945" lon="11.833133437808689"><ele>3.0</ele><time>2026-04-05T11:44:24.003Z</time></trkpt><trkpt lat="44.869893919170465" lon="11.832979160157501"><ele>3.0</ele><time>2026-04-05T11:44:25.003Z</time></trkpt><trkpt lat="44.869718338298085" lon="11.832828729454281"><ele>3.0</ele><time>2026-04-05T11:44:26.003Z</time></trkpt><trkpt lat="44.869539806887616" lon="11.832687722399795"><ele>3.0</ele><time>2026-04-05T11:44:27.003Z</time></trkpt><trkpt lat="44.86936478187692" lon="11.832543845989683"><ele>3.0</ele><time>2026-04-05T11:44:28.003Z</time></trkpt><trkpt lat="44.869197663981154" lon="11.83239326521947"><ele>3.0</ele><time>2026-04-05T11:44:29.003Z</time></trkpt><trkpt lat="44.8690268892761" lon="11.832246197781082"><ele>2.6666666666666665</ele><time>2026-04-05T11:44:30.003Z</time></trkpt><trkpt lat="44.86887541329862" lon="11.832086669782617"><ele>2.333333333333333</ele><time>2026-04-05T11:44:31.003Z</time></trkpt><trkpt lat="44.86872807874377" lon="11.831921171253034"><ele>2.0</ele><time>2026-04-05T11:44:32.003Z</time></trkpt><trkpt lat="44.868586496522866" lon="11.83174121798032"><ele>2.0</ele><time>2026-04-05T11:44:33.003Z</time></trkpt><trkpt lat="44.868450377220285" lon="11.831570283223813"><ele>2.0</ele><time>2026-04-05T11:44:34.003Z</time></trkpt><trkpt lat="44.86830275552925" lon="11.831400430507626"><ele>2.0</ele><time>2026-04-05T11:44:35.003Z</time></trkpt><trkpt lat="44.868157629171726" lon="11.83122117151877"><ele>2.0</ele><time>2026-04-05T11:44:36.003Z</time></trkpt><trkpt lat="44.86801471294354" lon="11.831045470855386"><ele>2.0</ele><time>2026-04-05T11:44:37.003Z</time></trkpt><trkpt lat="44.86787043304257" lon="11.830895011021893"><ele>2.0</ele><time>2026-04-05T11:44:38.003Z</time></trkpt><trkpt lat="44.86772511978843" lon="11.83076266424353"><ele>2.0</ele><time>2026-04-05T11:44:39.003Z</time></trkpt><trkpt lat="44.8675771014468" lon="11.83064996117528"><ele>2.0</ele><time>2026-04-05T11:44:40.003Z</time></trkpt><trkpt lat="44.86742196847688" lon="11.83055699474002"><ele>2.0</ele><time>2026-04-05T11:44:41.003Z</time></trkpt><trkpt lat="44.86725587974008" lon="11.830500517935498"><ele>2.0</ele><time>2026-04-05T11:44:42.003Z</time></trkpt><trkpt lat="44.86708364483641" lon="11.830482146229551"><ele>2.0</ele><time>2026-04-05T11:44:43.003Z</time></trkpt><trkpt lat="44.866907835504264" lon="11.830505826194505"><ele>2.0</ele><time>2026-04-05T11:44:44.003Z</time></trkpt><trkpt lat="44.86673597730646" lon="11.83054689445264"><ele>1.6666666666666665</ele><time>2026-04-05T11:44:45.003Z</time></trkpt><trkpt lat="44.86656100404827" lon="11.830612127627504"><ele>1.3333333333333333</ele><time>2026-04-05T11:44:46.003Z</time></trkpt><trkpt lat="44.86638260259636" lon="11.830695828917282"><ele>1.0</ele><time>2026-04-05T11:44:47.003Z</time></trkpt><trkpt lat="44.86620654203863" lon="11.830763685691657"><ele>1.0</ele><time>2026-04-05T11:44:48.003Z</time></trkpt><trkpt lat="44.866028489982135" lon="11.83085915726742"><ele>1.0</ele><time>2026-04-05T11:44:49.003Z</time></trkpt><trkpt lat="44.865858181781306" lon="11.830950972440753"><ele>1.0</ele><time>2026-04-05T11:44:50.003Z</time></trkpt><trkpt lat="44.8656927384434" lon="11.831034407935501"><ele>0.6666666666666666</ele><time>2026-04-05T11:44:51.003Z</time></trkpt><trkpt lat="44.86551961019217" lon="11.83111978712615"><ele>0.3333333333333333</ele><time>2026-04-05T11:44:52.003Z</time></trkpt><trkpt lat="44.865349381002446" lon="11.83118287637258"><ele>0.0</ele><time>2026-04-05T11:44:53.003Z</time></trkpt><trkpt lat="44.8651734530064" lon="11.83122643877746"><ele>0.3333333333333333</ele><time>2026-04-05T11:44:54.003Z</time></trkpt><trkpt lat="44.86499655414568" lon="11.831245616369781"><ele>0.6666666666666666</ele><time>2026-04-05T11:44:55.003Z</time></trkpt><trkpt lat="44.864814354467626" lon="11.831245645169734"><ele>1.0</ele><time>2026-04-05T11:44:56.003Z</time></trkpt><trkpt lat="44.86462247372107" lon="11.831227651903419"><ele>1.0</ele><time>2026-04-05T11:44:57.003Z</time></trkpt><trkpt lat="44.864422442511" lon="11.831214232598347"><ele>1.0</ele><time>2026-04-05T11:44:58.003Z</time></trkpt><trkpt lat="44.8642052540106" lon="11.83121731282865"><ele>1.0</ele><time>2026-04-05T11:44:59.003Z</time></trkpt><trkpt lat="44.86398917578331" lon="11.83122338157684"><ele>1.0</ele><time>2026-04-05T11:45:00.003Z</time></trkpt><trkpt lat="44.863763858647594" lon="11.831234676614503"><ele>1.0</ele><time>2026-04-05T11:45:01.003Z</time></trkpt><trkpt lat="44.86353083362603" lon="11.83126308930341"><ele>0.6666666666666666</ele><time>2026-04-05T11:45:02.003Z</time></trkpt><trkpt lat="44.86331875721077" lon="11.831272469177792"><ele>0.3333333333333333</ele><time>2026-04-05T11:45:03.003Z</time></trkpt><trkpt lat="44.863127593374415" lon="11.831279893177078"><ele>0.0</ele><time>2026-04-05T11:45:04.003Z</time></trkpt><trkpt lat="44.862944396840376" lon="11.831277367767221"><ele>0.0</ele><time>2026-04-05T11:45:05.003Z</time></trkpt><trkpt lat="44.862755527077105" lon="11.831282608827717"><ele>0.0</ele><time>2026-04-05T11:45:06.003Z</time></trkpt><trkpt lat="44.86256434805569" lon="11.831283150486994"><ele>0.0</ele><time>2026-04-05T11:45:07.003Z</time></trkpt><trkpt lat="44.86236335246054" lon="11.831301478535563"><ele>0.0</ele><time>2026-04-05T11:45:08.003Z</time></trkpt><trkpt lat="44.862166590359045" lon="11.831315758003967"><ele>0.0</ele><time>2026-04-05T11:45:09.003Z</time></trkpt><trkpt lat="44.86196634312622" lon="11.831329205961065"><ele>0.0</ele><time>2026-04-05T11:45:10.003Z</time></trkpt><trkpt lat="44.86176561599883" lon="11.83137915597891"><ele>-0.3333333333333333</ele><time>2026-04-05T11:45:11.003Z</time></trkpt><trkpt lat="44.86157922121592" lon="11.83145681627781"><ele>-0.6666666666666666</ele><time>2026-04-05T11:45:12.003Z</time></trkpt><trkpt lat="44.86139306208261" lon="11.83157808699534"><ele>-1.0</ele><time>2026-04-05T11:45:13.003Z</time></trkpt><trkpt lat="44.861214664105475" lon="11.831734254523445"><ele>-0.6666666666666666</ele><time>2026-04-05T11:45:14.003Z</time></trkpt><trkpt lat="44.86105453347688" lon="11.831904249262262"><ele>-0.3333333333333333</ele><time>2026-04-05T11:45:15.003Z</time></trkpt><trkpt lat="44.86089577168034" lon="11.832122775598327"><ele>0.0</ele><time>2026-04-05T11:45:16.003Z</time></trkpt><trkpt lat="44.86072875062589" lon="11.832378092067026"><ele>0.0</ele><time>2026-04-05T11:45:17.003Z</time></trkpt><trkpt lat="44.860529471118674" lon="11.83262178673758"><ele>0.0</ele><time>2026-04-05T11:45:18.003Z</time></trkpt><trkpt lat="44.860345089092185" lon="11.83289393617884"><ele>0.0</ele><time>2026-04-05T11:45:19.003Z</time></trkpt><trkpt lat="44.860141594062625" lon="11.833153064483579"><ele>0.0</ele><time>2026-04-05T11:45:20.003Z</time></trkpt><trkpt lat="44.8599407612134" lon="11.833404582423027"><ele>0.5</ele><time>2026-04-05T11:45:21.003Z</time></trkpt><trkpt lat="44.859746647606826" lon="11.833639159083164"><ele>1.0</ele><time>2026-04-05T11:45:22.003Z</time></trkpt><trkpt lat="44.85954267945013" lon="11.833854923488358"><ele>1.0</ele><time>2026-04-05T11:45:23.003Z</time></trkpt><trkpt lat="44.85933367193643" lon="11.834057484553929"><ele>1.0</ele><time>2026-04-05T11:45:24.003Z</time></trkpt><trkpt lat="44.85912351740936" lon="11.83425053074845"><ele>1.0</ele><time>2026-04-05T11:45:25.003Z</time></trkpt><trkpt lat="44.85890542462549" lon="11.834407077614383"><ele>1.0</ele><time>2026-04-05T11:45:26.003Z</time></trkpt><trkpt lat="44.858707545727675" lon="11.83457313268373"><ele>1.0</ele><time>2026-04-05T11:45:27.003Z</time></trkpt><trkpt lat="44.85852310675995" lon="11.834751463121973"><ele>1.0</ele><time>2026-04-05T11:45:28.003Z</time></trkpt><trkpt lat="44.85833984544387" lon="11.83489802727518"><ele>1.0</ele><time>2026-04-05T11:45:29.003Z</time></trkpt><trkpt lat="44.85814332656914" lon="11.83502177109255"><ele>1.0</ele><time>2026-04-05T11:45:30.003Z</time></trkpt><trkpt lat="44.85793659113058" lon="11.835122148220012"><ele>1.0</ele><time>2026-04-05T11:45:31.003Z</time></trkpt><trkpt lat="44.85772402232877" lon="11.835207331984012"><ele>1.0</ele><time>2026-04-05T11:45:32.003Z</time></trkpt><trkpt lat="44.85750454765945" lon="11.835265341554907"><ele>1.6666666666666665</ele><time>2026-04-05T11:45:33.003Z</time></trkpt><trkpt lat="44.857278689491274" lon="11.83530631771628"><ele>2.3333333333333335</ele><time>2026-04-05T11:45:34.003Z</time></trkpt><trkpt lat="44.85705729795654" lon="11.835316490249571"><ele>3.0</ele><time>2026-04-05T11:45:35.003Z</time></trkpt><trkpt lat="44.85684139172525" lon="11.83528679178179"><ele>2.0</ele><time>2026-04-05T11:45:36.003Z</time></trkpt><trkpt lat="44.856619643113135" lon="11.835213184150305"><ele>1.0</ele><time>2026-04-05T11:45:37.003Z</time></trkpt><trkpt lat="44.85639967651002" lon="11.83512595333416"><ele>0.5</ele><time>2026-04-05T11:45:38.003Z</time></trkpt><trkpt lat="44.8561727318338" lon="11.835012675874962"><ele>0.0</ele><time>2026-04-05T11:45:39.003Z</time></trkpt><trkpt lat="44.85595364870968" lon="11.834855728586412"><ele>0.0</ele><time>2026-04-05T11:45:40.003Z</time></trkpt><trkpt lat="44.8557399506731" lon="11.834675463982718"><ele>0.0</ele><time>2026-04-05T11:45:41.003Z</time></trkpt><trkpt lat="44.85552655668636" lon="11.834497950545108"><ele>0.0</ele><time>2026-04-05T11:45:42.003Z</time></trkpt><trkpt lat="44.85531280444696" lon="11.834321812312774"><ele>0.0</ele><time>2026-04-05T11:45:43.003Z</time></trkpt><trkpt lat="44.85509644995758" lon="11.83414659749493"><ele>0.5</ele><time>2026-04-05T11:45:44.003Z</time></trkpt><trkpt lat="44.854881730017276" lon="11.833966337494664"><ele>1.0</ele><time>2026-04-05T11:45:45.003Z</time></trkpt><trkpt lat="44.85466947545735" lon="11.833780618382576"><ele>1.0</ele><time>2026-04-05T11:45:46.003Z</time></trkpt><trkpt lat="44.85445444720542" lon="11.83359332405571"><ele>1.0</ele><time>2026-04-05T11:45:47.003Z</time></trkpt><trkpt lat="44.85423608973792" lon="11.83341545165347"><ele>1.5</ele><time>2026-04-05T11:45:48.003Z</time></trkpt><trkpt lat="44.85401530057001" lon="11.83323852123206"><ele>2.0</ele><time>2026-04-05T11:45:49.003Z</time></trkpt><trkpt lat="44.85379194310791" lon="11.833051468783179"><ele>2.0</ele><time>2026-04-05T11:45:50.003Z</time></trkpt><trkpt lat="44.85356307094756" lon="11.832860429851822"><ele>2.0</ele><time>2026-04-05T11:45:51.003Z</time></trkpt><trkpt lat="44.853329287412244" lon="11.832669117110253"><ele>1.5</ele><time>2026-04-05T11:45:52.003Z</time></trkpt><trkpt lat="44.85309782905375" lon="11.832479379005962"><ele>1.0</ele><time>2026-04-05T11:45:53.003Z</time></trkpt><trkpt lat="44.85286926210101" lon="11.832290553875648"><ele>1.0</ele><time>2026-04-05T11:45:54.003Z</time></trkpt><trkpt lat="44.85264471099415" lon="11.832101319145172"><ele>1.0</ele><time>2026-04-05T11:45:55.003Z</time></trkpt><trkpt lat="44.85242213615225" lon="11.83191719025611"><ele>1.0</ele><time>2026-04-05T11:45:56.003Z</time></trkpt><trkpt lat="44.85220318729104" lon="11.831739445676071"><ele>1.0</ele><time>2026-04-05T11:45:57.003Z</time></trkpt><trkpt lat="44.85199042109349" lon="11.831561506250159"><ele>1.0</ele><time>2026-04-05T11:45:58.003Z</time></trkpt><trkpt lat="44.85178197841305" lon="11.831390167597505"><ele>1.0</ele><time>2026-04-05T11:45:59.003Z</time></trkpt><trkpt lat="44.85157758807662" lon="11.831222855191552"><ele>1.0</ele><time>2026-04-05T11:46:00.003Z</time></trkpt><trkpt lat="44.851373544300515" lon="11.83106365275286"><ele>1.0</ele><time>2026-04-05T11:46:01.003Z</time></trkpt><trkpt lat="44.85116501381039" lon="11.830930090485069"><ele>1.0</ele><time>2026-04-05T11:46:02.003Z</time></trkpt><trkpt lat="44.85095618415659" lon="11.830821070904166"><ele>1.0</ele><time>2026-04-05T11:46:03.003Z</time></trkpt><trkpt lat="44.850739300618656" lon="11.830747479104678"><ele>1.0</ele><time>2026-04-05T11:46:04.003Z</time></trkpt><trkpt lat="44.850517407366866" lon="11.830705976927502"><ele>1.0</ele><time>2026-04-05T11:46:05.003Z</time></trkpt><trkpt lat="44.850297055686134" lon="11.830695348966776"><ele>1.0</ele><time>2026-04-05T11:46:06.003Z</time></trkpt><trkpt lat="44.85006765113794" lon="11.830725887893374"><ele>1.0</ele><time>2026-04-05T11:46:07.003Z</time></trkpt><trkpt lat="44.84983583428181" lon="11.830800712373488"><ele>1.0</ele><time>2026-04-05T11:46:08.003Z</time></trkpt><trkpt lat="44.84960505681831" lon="11.830891615096183"><ele>1.0</ele><time>2026-04-05T11:46:09.003Z</time></trkpt><trkpt lat="44.849366237763824" lon="11.831003630853983"><ele>1.0</ele><time>2026-04-05T11:46:10.003Z</time></trkpt><trkpt lat="44.84913117464089" lon="11.831117733602921"><ele>1.0</ele><time>2026-04-05T11:46:11.003Z</time></trkpt><trkpt lat="44.848889242255375" lon="11.831228913868603"><ele>1.0</ele><time>2026-04-05T11:46:12.003Z</time></trkpt><trkpt lat="44.848647441495174" lon="11.831340721078657"><ele>1.0</ele><time>2026-04-05T11:46:13.003Z</time></trkpt><trkpt lat="44.84841203302096" lon="11.83146772774224"><ele>1.0</ele><time>2026-04-05T11:46:14.003Z</time></trkpt><trkpt lat="44.84818635960429" lon="11.831608873374412"><ele>1.0</ele><time>2026-04-05T11:46:15.003Z</time></trkpt><trkpt lat="44.84796065776308" lon="11.831768603039603"><ele>1.0</ele><time>2026-04-05T11:46:16.003Z</time></trkpt><trkpt lat="44.84774209387556" lon="11.831935977970039"><ele>1.5</ele><time>2026-04-05T11:46:17.003Z</time></trkpt><trkpt lat="44.84753017284511" lon="11.832123636724532"><ele>2.0</ele><time>2026-04-05T11:46:18.003Z</time></trkpt><trkpt lat="44.84733146630567" lon="11.83231731098317"><ele>2.0</ele><time>2026-04-05T11:46:19.003Z</time></trkpt><trkpt lat="44.84715715357334" lon="11.83250148198512"><ele>2.0</ele><time>2026-04-05T11:46:20.004Z</time></trkpt><trkpt lat="44.847007799037975" lon="11.83268191955604"><ele>2.0</ele><time>2026-04-05T11:46:21.004Z</time></trkpt><trkpt lat="44.84688595258387" lon="11.832869816195236"><ele>2.0</ele><time>2026-04-05T11:46:22.004Z</time></trkpt><trkpt lat="44.84678452198685" lon="11.833094537409302"><ele>2.0</ele><time>2026-04-05T11:46:23.004Z</time></trkpt><trkpt lat="44.84670063214962" lon="11.833363051825081"><ele>2.0</ele><time>2026-04-05T11:46:24.004Z</time></trkpt><trkpt lat="44.846624274284174" lon="11.833667445037618"><ele>2.0</ele><time>2026-04-05T11:46:25.004Z</time></trkpt><trkpt lat="44.846559131310904" lon="11.833999240188962"><ele>2.0</ele><time>2026-04-05T11:46:26.004Z</time></trkpt><trkpt lat="44.84650021439937" lon="11.834334961619364"><ele>1.5</ele><time>2026-04-05T11:46:27.004Z</time></trkpt><trkpt lat="44.8464639256647" lon="11.834678868978425"><ele>1.0</ele><time>2026-04-05T11:46:28.004Z</time></trkpt><trkpt lat="44.84645757171646" lon="11.835043111921228"><ele>0.0</ele><time>2026-04-05T11:46:29.004Z</time></trkpt><trkpt lat="44.84646260988022" lon="11.835419210579422"><ele>-1.0</ele><time>2026-04-05T11:46:30.004Z</time></trkpt><trkpt lat="44.84647814564627" lon="11.835809942412578"><ele>-0.5</ele><time>2026-04-05T11:46:31.004Z</time></trkpt><trkpt lat="44.846496612369904" lon="11.83620496603461"><ele>0.0</ele><time>2026-04-05T11:46:32.004Z</time></trkpt><trkpt lat="44.84651542901538" lon="11.836595408397612"><ele>1.0</ele><time>2026-04-05T11:46:33.004Z</time></trkpt><trkpt lat="44.846528485442334" lon="11.836985157721758"><ele>2.0</ele><time>2026-04-05T11:46:34.004Z</time></trkpt><trkpt lat="44.846536500885875" lon="11.837374531435765"><ele>2.0</ele><time>2026-04-05T11:46:35.004Z</time></trkpt><trkpt lat="44.84653598808876" lon="11.83776700802959"><ele>2.0</ele><time>2026-04-05T11:46:36.004Z</time></trkpt><trkpt lat="44.846519635236085" lon="11.83815950525119"><ele>1.5</ele><time>2026-04-05T11:46:37.004Z</time></trkpt><trkpt lat="44.846498412209854" lon="11.838545500324733"><ele>1.0</ele><time>2026-04-05T11:46:38.004Z</time></trkpt><trkpt lat="44.846468585393495" lon="11.838937069160796"><ele>1.0</ele><time>2026-04-05T11:46:39.004Z</time></trkpt><trkpt lat="44.846452418833465" lon="11.83932266374374"><ele>1.0</ele><time>2026-04-05T11:46:40.004Z</time></trkpt><trkpt lat="44.84642988608937" lon="11.839705389031472"><ele>1.0</ele><time>2026-04-05T11:46:41.004Z</time></trkpt><trkpt lat="44.84641741200021" lon="11.840093595923108"><ele>1.0</ele><time>2026-04-05T11:46:42.004Z</time></trkpt><trkpt lat="44.846384654957326" lon="11.84046363760723"><ele>0.5</ele><time>2026-04-05T11:46:43.004Z</time></trkpt><trkpt lat="44.846371716811475" lon="11.84081908717319"><ele>0.0</ele><time>2026-04-05T11:46:44.004Z</time></trkpt><trkpt lat="44.8463585363723" lon="11.8411445712083"><ele>-1.0</ele><time>2026-04-05T11:46:45.004Z</time></trkpt><trkpt lat="44.84634238233066" lon="11.841436938710418"><ele>-2.0</ele><time>2026-04-05T11:46:46.004Z</time></trkpt><trkpt lat="44.84631031035769" lon="11.84171409671937"><ele>-3.0</ele><time>2026-04-05T11:46:47.004Z</time></trkpt><trkpt lat="44.84627142710848" lon="11.841945127675105"><ele>-3.0</ele><time>2026-04-05T11:46:48.004Z</time></trkpt><trkpt lat="44.84620198535093" lon="11.842176279746544"><ele>-3.0</ele><time>2026-04-05T11:46:49.004Z</time></trkpt><trkpt lat="44.846090465951576" lon="11.842389324102344"><ele>-3.0</ele><time>2026-04-05T11:46:50.004Z</time></trkpt><trkpt lat="44.845956292422066" lon="11.842589523147376"><ele>-3.0</ele><time>2026-04-05T11:46:51.004Z</time></trkpt><trkpt lat="44.84578494810435" lon="11.842799120767237"><ele>-3.0</ele><time>2026-04-05T11:46:52.004Z</time></trkpt><trkpt lat="44.84559124650225" lon="11.84300583364273"><ele>-3.0</ele><time>2026-04-05T11:46:53.004Z</time></trkpt><trkpt lat="44.845394256166614" lon="11.843217951154486"><ele>-3.0</ele><time>2026-04-05T11:46:54.004Z</time></trkpt><trkpt lat="44.84519633465279" lon="11.843434483919248"><ele>0.0</ele><time>2026-04-05T11:46:55.004Z</time></trkpt><trkpt lat="44.84501113486001" lon="11.843664814031763"><ele>3.0</ele><time>2026-04-05T11:46:56.004Z</time></trkpt><trkpt lat="44.84481868016724" lon="11.843884422616243"><ele>3.0</ele><time>2026-04-05T11:46:57.004Z</time></trkpt><trkpt lat="44.8446253970157" lon="11.844099036853613"><ele>3.0</ele><time>2026-04-05T11:46:58.004Z</time></trkpt><trkpt lat="44.844433707651646" lon="11.844338477284039"><ele>4.5</ele><time>2026-04-05T11:46:59.004Z</time></trkpt><trkpt lat="44.84424708429552" lon="11.844573158939452"><ele>6.0</ele><time>2026-04-05T11:47:00.004Z</time></trkpt><trkpt lat="44.84405373321255" lon="11.844802889457677"><ele>6.0</ele><time>2026-04-05T11:47:01.004Z</time></trkpt><trkpt lat="44.84384580218759" lon="11.845039432811944"><ele>6.0</ele><time>2026-04-05T11:47:02.004Z</time></trkpt><trkpt lat="44.843645974751304" lon="11.845268134628771"><ele>4.5</ele><time>2026-04-05T11:47:03.004Z</time></trkpt><trkpt lat="44.84345391914843" lon="11.845477317717522"><ele>3.0</ele><time>2026-04-05T11:47:04.004Z</time></trkpt><trkpt lat="44.84326047873966" lon="11.845681896283505"><ele>3.0</ele><time>2026-04-05T11:47:05.004Z</time></trkpt><trkpt lat="44.84309750923885" lon="11.845888090028543"><ele>3.0</ele><time>2026-04-05T11:47:06.004Z</time></trkpt><trkpt lat="44.842946732957586" lon="11.84607477643975"><ele>3.0</ele><time>2026-04-05T11:47:07.004Z</time></trkpt><trkpt lat="44.84280306816732" lon="11.84624901211686"><ele>3.0</ele><time>2026-04-05T11:47:08.004Z</time></trkpt><trkpt lat="44.842666403411066" lon="11.846436602394494"><ele>3.0</ele><time>2026-04-05T11:47:09.004Z</time></trkpt><trkpt lat="44.84254369213606" lon="11.846649230138558"><ele>3.0</ele><time>2026-04-05T11:47:10.004Z</time></trkpt><trkpt lat="44.84246306144884" lon="11.84688616944131"><ele>3.0</ele><time>2026-04-05T11:47:11.004Z</time></trkpt><trkpt lat="44.84238238594725" lon="11.847138432786453"><ele>3.0</ele><time>2026-04-05T11:47:12.004Z</time></trkpt><trkpt lat="44.84230084962617" lon="11.847395165296668"><ele>3.0</ele><time>2026-04-05T11:47:13.004Z</time></trkpt><trkpt lat="44.842283438196375" lon="11.847683389272747"><ele>3.333333333333333</ele><time>2026-04-05T11:47:14.004Z</time></trkpt><trkpt lat="44.84229233269448" lon="11.847979087813224"><ele>3.6666666666666665</ele><time>2026-04-05T11:47:15.004Z</time></trkpt><trkpt lat="44.8423044887146" lon="11.848260154186859"><ele>4.0</ele><time>2026-04-05T11:47:16.004Z</time></trkpt><trkpt lat="44.84233179783565" lon="11.84851629033166"><ele>3.25</ele><time>2026-04-05T11:47:17.004Z</time></trkpt><trkpt lat="44.842326262264905" lon="11.848737166297417"><ele>2.5</ele><time>2026-04-05T11:47:18.004Z</time></trkpt><trkpt lat="44.842332586748945" lon="11.848903283562732"><ele>1.75</ele><time>2026-04-05T11:47:19.004Z</time></trkpt><trkpt lat="44.84233640282656" lon="11.849020490899706"><ele>1.0</ele><time>2026-04-05T11:47:20.004Z</time></trkpt><trkpt lat="44.84227987652552" lon="11.849189313751534"><ele>1.0</ele><time>2026-04-05T11:47:22.004Z</time></trkpt><trkpt lat="44.84221217852179" lon="11.849209203035905"><ele>1.0</ele><time>2026-04-05T11:47:23.004Z</time></trkpt><trkpt lat="44.84211669589106" lon="11.84928493176733"><ele>1.0</ele><time>2026-04-05T11:47:24.004Z</time></trkpt><trkpt lat="44.842044303181304" lon="11.84942219645052"><ele>1.0</ele><time>2026-04-05T11:47:25.004Z</time></trkpt><trkpt lat="44.8420470232045" lon="11.849617824911409"><ele>1.0</ele><time>2026-04-05T11:47:26.004Z</time></trkpt><trkpt lat="44.841996733045754" lon="11.849776876824661"><ele>1.0</ele><time>2026-04-05T11:47:27.004Z</time></trkpt><trkpt lat="44.84190621449605" lon="11.849917231593484"><ele>1.0</ele><time>2026-04-05T11:47:28.004Z</time></trkpt><trkpt lat="44.84178830971303" lon="11.850052529236478"><ele>1.0</ele><time>2026-04-05T11:47:29.004Z</time></trkpt><trkpt lat="44.84163147154342" lon="11.850156706910434"><ele>0.3333333333333333</ele><time>2026-04-05T11:47:30.004Z</time></trkpt><trkpt lat="44.84149915225613" lon="11.850301332137933"><ele>-0.3333333333333333</ele><time>2026-04-05T11:47:31.004Z</time></trkpt><trkpt lat="44.84135331028149" lon="11.85046073770367"><ele>-1.0</ele><time>2026-04-05T11:47:32.004Z</time></trkpt><trkpt lat="44.841191551227624" lon="11.850637540626172"><ele>-1.0</ele><time>2026-04-05T11:47:33.004Z</time></trkpt><trkpt lat="44.84101373698307" lon="11.850831892024477"><ele>-1.0</ele><time>2026-04-05T11:47:34.004Z</time></trkpt><trkpt lat="44.84082607971208" lon="11.851037001793681"><ele>-1.0</ele><time>2026-04-05T11:47:35.004Z</time></trkpt><trkpt lat="44.84063129702812" lon="11.851249899679203"><ele>-1.0</ele><time>2026-04-05T11:47:36.004Z</time></trkpt><trkpt lat="44.84042974949811" lon="11.851470191441276"><ele>-1.0</ele><time>2026-04-05T11:47:37.004Z</time></trkpt><trkpt lat="44.84023175142554" lon="11.851687745955577"><ele>-1.0</ele><time>2026-04-05T11:47:38.004Z</time></trkpt><trkpt lat="44.84003810498792" lon="11.851901470540353"><ele>0.0</ele><time>2026-04-05T11:47:39.004Z</time></trkpt><trkpt lat="44.83984133599585" lon="11.852121476547541"><ele>1.0</ele><time>2026-04-05T11:47:40.004Z</time></trkpt><trkpt lat="44.839642596528314" lon="11.852339038802445"><ele>1.0</ele><time>2026-04-05T11:47:41.004Z</time></trkpt><trkpt lat="44.839442171351365" lon="11.8525582082235"><ele>1.0</ele><time>2026-04-05T11:47:42.004Z</time></trkpt><trkpt lat="44.83924053476558" lon="11.852779545314842"><ele>0.5</ele><time>2026-04-05T11:47:43.004Z</time></trkpt><trkpt lat="44.83904117992451" lon="11.852998377710547"><ele>0.0</ele><time>2026-04-05T11:47:44.004Z</time></trkpt><trkpt lat="44.83884566651323" lon="11.853220250815106"><ele>-1.5</ele><time>2026-04-05T11:47:45.004Z</time></trkpt><trkpt lat="44.83866515321222" lon="11.853465071418505"><ele>-3.0</ele><time>2026-04-05T11:47:46.004Z</time></trkpt><trkpt lat="44.83850374761861" lon="11.853720614914652"><ele>-1.0</ele><time>2026-04-05T11:47:47.004Z</time></trkpt><trkpt lat="44.83835415135939" lon="11.853996802194931"><ele>1.0</ele><time>2026-04-05T11:47:48.004Z</time></trkpt><trkpt lat="44.83821268791815" lon="11.854282545532357"><ele>1.0</ele><time>2026-04-05T11:47:49.004Z</time></trkpt><trkpt lat="44.83810342016409" lon="11.854595708097033"><ele>1.0</ele><time>2026-04-05T11:47:50.004Z</time></trkpt><trkpt lat="44.8379927171899" lon="11.85490557019396"><ele>0.0</ele><time>2026-04-05T11:47:51.004Z</time></trkpt><trkpt lat="44.83788696776687" lon="11.855222116415536"><ele>-1.0</ele><time>2026-04-05T11:47:52.004Z</time></trkpt><trkpt lat="44.8377910446816" lon="11.855534117949572"><ele>-1.0</ele><time>2026-04-05T11:47:53.004Z</time></trkpt><trkpt lat="44.83769793835316" lon="11.85583157917503"><ele>-1.0</ele><time>2026-04-05T11:47:54.004Z</time></trkpt><trkpt lat="44.83761094669211" lon="11.856111210556325"><ele>-1.0</ele><time>2026-04-05T11:47:55.004Z</time></trkpt><trkpt lat="44.83753434148623" lon="11.856380335344138"><ele>-1.3333333333333333</ele><time>2026-04-05T11:47:56.004Z</time></trkpt><trkpt lat="44.837447202204075" lon="11.856642474920427"><ele>-1.6666666666666665</ele><time>2026-04-05T11:47:57.004Z</time></trkpt><trkpt lat="44.83737227320776" lon="11.856896096216008"><ele>-2.0</ele><time>2026-04-05T11:47:58.004Z</time></trkpt><trkpt lat="44.8373142516696" lon="11.85715172021249"><ele>-2.0</ele><time>2026-04-05T11:47:59.004Z</time></trkpt><trkpt lat="44.83726766723872" lon="11.857395467953614"><ele>-2.0</ele><time>2026-04-05T11:48:00.004Z</time></trkpt><trkpt lat="44.8372337649418" lon="11.857629518544751"><ele>-2.0</ele><time>2026-04-05T11:48:01.004Z</time></trkpt><trkpt lat="44.83721204775262" lon="11.857854108820304"><ele>-1.75</ele><time>2026-04-05T11:48:02.004Z</time></trkpt><trkpt lat="44.837215344650275" lon="11.858068613758109"><ele>-1.5</ele><time>2026-04-05T11:48:03.004Z</time></trkpt><trkpt lat="44.83722570909515" lon="11.858240395715248"><ele>-1.25</ele><time>2026-04-05T11:48:04.004Z</time></trkpt><trkpt lat="44.83722659429022" lon="11.858386932538005"><ele>-1.0</ele><time>2026-04-05T11:48:05.004Z</time></trkpt><trkpt lat="44.83721567028749" lon="11.858500524416462"><ele>-0.6000000000000001</ele><time>2026-04-05T11:48:06.004Z</time></trkpt><trkpt lat="44.837191248714504" lon="11.858624587436454"><ele>-0.20000000000000007</ele><time>2026-04-05T11:48:07.004Z</time></trkpt><trkpt lat="44.837133154955715" lon="11.858763795468569"><ele>0.20000000000000007</ele><time>2026-04-05T11:48:08.004Z</time></trkpt><trkpt lat="44.83706025509124" lon="11.858896159441956"><ele>0.6000000000000001</ele><time>2026-04-05T11:48:09.004Z</time></trkpt><trkpt lat="44.836963654352466" lon="11.858995607818875"><ele>1.0</ele><time>2026-04-05T11:48:10.004Z</time></trkpt><trkpt lat="44.83684433715955" lon="11.859067977680446"><ele>1.0</ele><time>2026-04-05T11:48:11.004Z</time></trkpt><trkpt lat="44.83669898841183" lon="11.859118938211482"><ele>1.0</ele><time>2026-04-05T11:48:12.004Z</time></trkpt><trkpt lat="44.836535248704806" lon="11.859161672740655"><ele>1.0</ele><time>2026-04-05T11:48:13.004Z</time></trkpt><trkpt lat="44.83634427981233" lon="11.859211887873588"><ele>1.0</ele><time>2026-04-05T11:48:14.004Z</time></trkpt><trkpt lat="44.836137893509004" lon="11.859268050248023"><ele>1.0</ele><time>2026-04-05T11:48:15.004Z</time></trkpt><trkpt lat="44.83592689365791" lon="11.859277850390804"><ele>1.0</ele><time>2026-04-05T11:48:16.004Z</time></trkpt><trkpt lat="44.83574903607977" lon="11.859373362791263"><ele>0.6666666666666666</ele><time>2026-04-05T11:48:17.004Z</time></trkpt><trkpt lat="44.83555889478463" lon="11.859482970429465"><ele>0.3333333333333333</ele><time>2026-04-05T11:48:18.004Z</time></trkpt><trkpt lat="44.83537597959391" lon="11.859605481712327"><ele>0.0</ele><time>2026-04-05T11:48:19.004Z</time></trkpt><trkpt lat="44.835189213777824" lon="11.859757484191078"><ele>0.0</ele><time>2026-04-05T11:48:20.004Z</time></trkpt><trkpt lat="44.835012851144775" lon="11.859949863890689"><ele>0.0</ele><time>2026-04-05T11:48:21.004Z</time></trkpt><trkpt lat="44.83482958196536" lon="11.860143207618156"><ele>0.3333333333333333</ele><time>2026-04-05T11:48:22.004Z</time></trkpt><trkpt lat="44.834664909849295" lon="11.860354774738514"><ele>0.6666666666666666</ele><time>2026-04-05T11:48:23.004Z</time></trkpt><trkpt lat="44.83450182400569" lon="11.8605656742555"><ele>1.0</ele><time>2026-04-05T11:48:24.004Z</time></trkpt><trkpt lat="44.834361492849794" lon="11.860773473537785"><ele>0.6666666666666666</ele><time>2026-04-05T11:48:25.004Z</time></trkpt><trkpt lat="44.834225192331076" lon="11.86095373152221"><ele>0.3333333333333333</ele><time>2026-04-05T11:48:26.004Z</time></trkpt><trkpt lat="44.83408178037966" lon="11.861107965398284"><ele>0.0</ele><time>2026-04-05T11:48:27.004Z</time></trkpt><trkpt lat="44.83391727694606" lon="11.861216241320397"><ele>0.0</ele><time>2026-04-05T11:48:28.004Z</time></trkpt><trkpt lat="44.83373660007301" lon="11.861289489058507"><ele>0.0</ele><time>2026-04-05T11:48:29.004Z</time></trkpt><trkpt lat="44.83353889861727" lon="11.861291803097657"><ele>0.0</ele><time>2026-04-05T11:48:30.004Z</time></trkpt><trkpt lat="44.83332569524747" lon="11.861286561407354"><ele>0.0</ele><time>2026-04-05T11:48:31.004Z</time></trkpt><trkpt lat="44.83309990877742" lon="11.861291765257409"><ele>0.0</ele><time>2026-04-05T11:48:32.004Z</time></trkpt><trkpt lat="44.83286669447195" lon="11.861336557289441"><ele>0.0</ele><time>2026-04-05T11:48:33.004Z</time></trkpt><trkpt lat="44.83264188952856" lon="11.861402133730223"><ele>0.0</ele><time>2026-04-05T11:48:34.004Z</time></trkpt><trkpt lat="44.832409365909335" lon="11.861475283422608"><ele>0.0</ele><time>2026-04-05T11:48:35.004Z</time></trkpt><trkpt lat="44.83217195899283" lon="11.86154982579299"><ele>0.0</ele><time>2026-04-05T11:48:36.004Z</time></trkpt><trkpt lat="44.83193705692326" lon="11.861622632046341"><ele>-1.0</ele><time>2026-04-05T11:48:37.004Z</time></trkpt><trkpt lat="44.831697339206585" lon="11.861696060629193"><ele>-2.0</ele><time>2026-04-05T11:48:38.004Z</time></trkpt><trkpt lat="44.83145194743894" lon="11.861771154653118"><ele>-2.0</ele><time>2026-04-05T11:48:39.004Z</time></trkpt><trkpt lat="44.83122781009475" lon="11.86183973012735"><ele>-2.0</ele><time>2026-04-05T11:48:40.004Z</time></trkpt><trkpt lat="44.83099210796532" lon="11.861907958797946"><ele>-2.0</ele><time>2026-04-05T11:48:41.004Z</time></trkpt><trkpt lat="44.83076742295293" lon="11.861958573730298"><ele>-2.0</ele><time>2026-04-05T11:48:42.004Z</time></trkpt><trkpt lat="44.83052807260273" lon="11.861995784301849"><ele>-2.0</ele><time>2026-04-05T11:48:43.004Z</time></trkpt><trkpt lat="44.83028966080054" lon="11.862020462516677"><ele>-2.0</ele><time>2026-04-05T11:48:44.004Z</time></trkpt><trkpt lat="44.83004373089458" lon="11.862043064100199"><ele>-1.0</ele><time>2026-04-05T11:48:45.004Z</time></trkpt><trkpt lat="44.82979335141295" lon="11.862062428837216"><ele>0.0</ele><time>2026-04-05T11:48:46.004Z</time></trkpt><trkpt lat="44.829543464193044" lon="11.862078241127934"><ele>-0.5</ele><time>2026-04-05T11:48:47.004Z</time></trkpt><trkpt lat="44.82929222903514" lon="11.862091634993444"><ele>-1.0</ele><time>2026-04-05T11:48:48.004Z</time></trkpt><trkpt lat="44.82904088955182" lon="11.862102341087235"><ele>-1.0</ele><time>2026-04-05T11:48:49.004Z</time></trkpt><trkpt lat="44.82878703132821" lon="11.862108679713794"><ele>-1.0</ele><time>2026-04-05T11:48:50.005Z</time></trkpt><trkpt lat="44.82853377667255" lon="11.862117458846573"><ele>-1.0</ele><time>2026-04-05T11:48:51.005Z</time></trkpt><trkpt lat="44.828279481274066" lon="11.862126931294698"><ele>-1.0</ele><time>2026-04-05T11:48:52.005Z</time></trkpt><trkpt lat="44.82803920776874" lon="11.862134974174106"><ele>-1.0</ele><time>2026-04-05T11:48:53.005Z</time></trkpt><trkpt lat="44.82780047184131" lon="11.862142062018616"><ele>-1.0</ele><time>2026-04-05T11:48:54.005Z</time></trkpt><trkpt lat="44.82756762708901" lon="11.862152042046818"><ele>-0.6666666666666666</ele><time>2026-04-05T11:48:55.005Z</time></trkpt><trkpt lat="44.8273464621298" lon="11.862167800338366"><ele>-0.3333333333333333</ele><time>2026-04-05T11:48:56.005Z</time></trkpt><trkpt lat="44.82712144833357" lon="11.86220471527459"><ele>0.0</ele><time>2026-04-05T11:48:57.005Z</time></trkpt><trkpt lat="44.826897824673246" lon="11.862287743826531"><ele>-0.5</ele><time>2026-04-05T11:48:58.005Z</time></trkpt><trkpt lat="44.82667864580668" lon="11.862416341116688"><ele>-1.0</ele><time>2026-04-05T11:48:59.005Z</time></trkpt><trkpt lat="44.82644729343485" lon="11.862506809265945"><ele>-0.5</ele><time>2026-04-05T11:49:00.005Z</time></trkpt><trkpt lat="44.82623708510058" lon="11.862636889065598"><ele>0.0</ele><time>2026-04-05T11:49:01.005Z</time></trkpt><trkpt lat="44.82602028168194" lon="11.862724840074483"><ele>0.0</ele><time>2026-04-05T11:49:02.005Z</time></trkpt><trkpt lat="44.82582106853305" lon="11.862840604323466"><ele>0.0</ele><time>2026-04-05T11:49:03.005Z</time></trkpt><trkpt lat="44.82563909837621" lon="11.862998723154634"><ele>0.0</ele><time>2026-04-05T11:49:04.005Z</time></trkpt><trkpt lat="44.825464337755804" lon="11.863135217945304"><ele>0.0</ele><time>2026-04-05T11:49:05.005Z</time></trkpt><trkpt lat="44.82529415744366" lon="11.863292819082298"><ele>0.0</ele><time>2026-04-05T11:49:06.005Z</time></trkpt><trkpt lat="44.82514171681826" lon="11.863489232294773"><ele>0.0</ele><time>2026-04-05T11:49:07.005Z</time></trkpt><trkpt lat="44.8249977527883" lon="11.863735508379532"><ele>0.0</ele><time>2026-04-05T11:49:08.005Z</time></trkpt><trkpt lat="44.82487368182235" lon="11.86401105525689"><ele>0.0</ele><time>2026-04-05T11:49:09.005Z</time></trkpt><trkpt lat="44.82474005488402" lon="11.864307804765952"><ele>-0.5</ele><time>2026-04-05T11:49:10.005Z</time></trkpt><trkpt lat="44.82460094644494" lon="11.864604065542652"><ele>-1.0</ele><time>2026-04-05T11:49:11.005Z</time></trkpt><trkpt lat="44.82446419716635" lon="11.864901607190559"><ele>-1.0</ele><time>2026-04-05T11:49:12.005Z</time></trkpt><trkpt lat="44.82432899142086" lon="11.865195507049728"><ele>-1.0</ele><time>2026-04-05T11:49:13.005Z</time></trkpt><trkpt lat="44.824194889627506" lon="11.865486051149635"><ele>-0.5</ele><time>2026-04-05T11:49:14.005Z</time></trkpt><trkpt lat="44.82406327902261" lon="11.86577160943828"><ele>0.0</ele><time>2026-04-05T11:49:15.005Z</time></trkpt><trkpt lat="44.82393749600662" lon="11.866040513226608"><ele>0.0</ele><time>2026-04-05T11:49:16.005Z</time></trkpt><trkpt lat="44.82381969615622" lon="11.866286468020899"><ele>0.0</ele><time>2026-04-05T11:49:17.005Z</time></trkpt><trkpt lat="44.82369839292792" lon="11.86649766844076"><ele>0.0</ele><time>2026-04-05T11:49:18.005Z</time></trkpt><trkpt lat="44.82357033657696" lon="11.866702107236353"><ele>0.3333333333333333</ele><time>2026-04-05T11:49:19.005Z</time></trkpt><trkpt lat="44.82340882703283" lon="11.866890725387183"><ele>0.6666666666666666</ele><time>2026-04-05T11:49:20.005Z</time></trkpt><trkpt lat="44.82322612338159" lon="11.867079917403487"><ele>1.0</ele><time>2026-04-05T11:49:21.005Z</time></trkpt><trkpt lat="44.82303046374624" lon="11.867267365201918"><ele>1.0</ele><time>2026-04-05T11:49:22.005Z</time></trkpt><trkpt lat="44.82283245378396" lon="11.867470504852614"><ele>1.0</ele><time>2026-04-05T11:49:23.005Z</time></trkpt><trkpt lat="44.82263862549083" lon="11.867675477775292"><ele>1.0</ele><time>2026-04-05T11:49:24.005Z</time></trkpt><trkpt lat="44.822437989870686" lon="11.867897986401106"><ele>1.0</ele><time>2026-04-05T11:49:25.005Z</time></trkpt><trkpt lat="44.82225009030944" lon="11.86811372628045"><ele>1.0</ele><time>2026-04-05T11:49:26.005Z</time></trkpt><trkpt lat="44.82206873490485" lon="11.868338632448491"><ele>1.0</ele><time>2026-04-05T11:49:27.005Z</time></trkpt><trkpt lat="44.82188604006649" lon="11.868561533510004"><ele>0.0</ele><time>2026-04-05T11:49:28.005Z</time></trkpt><trkpt lat="44.82170212193467" lon="11.868785438280387"><ele>-1.0</ele><time>2026-04-05T11:49:29.005Z</time></trkpt><trkpt lat="44.821522618004664" lon="11.86900367393845"><ele>-1.0</ele><time>2026-04-05T11:49:30.005Z</time></trkpt><trkpt lat="44.821345880633814" lon="11.869228014297727"><ele>-1.0</ele><time>2026-04-05T11:49:31.005Z</time></trkpt><trkpt lat="44.821179121539615" lon="11.869472012267074"><ele>-1.0</ele><time>2026-04-05T11:49:32.005Z</time></trkpt><trkpt lat="44.82102248577499" lon="11.869723056506153"><ele>-1.0</ele><time>2026-04-05T11:49:33.005Z</time></trkpt><trkpt lat="44.8208698965324" lon="11.869968993613679"><ele>-1.3333333333333333</ele><time>2026-04-05T11:49:34.005Z</time></trkpt><trkpt lat="44.820731293521774" lon="11.870207023292718"><ele>-1.6666666666666665</ele><time>2026-04-05T11:49:35.005Z</time></trkpt><trkpt lat="44.8205987202014" lon="11.870423437338754"><ele>-2.0</ele><time>2026-04-05T11:49:36.005Z</time></trkpt><trkpt lat="44.82047208466587" lon="11.870622141959219"><ele>-2.0</ele><time>2026-04-05T11:49:37.005Z</time></trkpt><trkpt lat="44.82034854400272" lon="11.87080099932839"><ele>-2.0</ele><time>2026-04-05T11:49:38.005Z</time></trkpt><trkpt lat="44.820214886928106" lon="11.870959405721887"><ele>-2.0</ele><time>2026-04-05T11:49:39.005Z</time></trkpt><trkpt lat="44.8200622465682" lon="11.871082608019268"><ele>-1.6666666666666665</ele><time>2026-04-05T11:49:40.005Z</time></trkpt><trkpt lat="44.81989410321724" lon="11.871180394146252"><ele>-1.3333333333333333</ele><time>2026-04-05T11:49:41.005Z</time></trkpt><trkpt lat="44.819712988860715" lon="11.871230729879525"><ele>-1.0</ele><time>2026-04-05T11:49:42.005Z</time></trkpt><trkpt lat="44.81951658871713" lon="11.871235694695008"><ele>-1.0</ele><time>2026-04-05T11:49:43.005Z</time></trkpt><trkpt lat="44.819298943614704" lon="11.87119037379705"><ele>-1.0</ele><time>2026-04-05T11:49:44.005Z</time></trkpt><trkpt lat="44.8190796006143" lon="11.871137292971397"><ele>-1.0</ele><time>2026-04-05T11:49:45.005Z</time></trkpt><trkpt lat="44.81885428123298" lon="11.871081019069475"><ele>-1.0</ele><time>2026-04-05T11:49:46.005Z</time></trkpt><trkpt lat="44.81862319751422" lon="11.871011885107935"><ele>-1.0</ele><time>2026-04-05T11:49:47.005Z</time></trkpt><trkpt lat="44.81838794146667" lon="11.870951599376829"><ele>-0.6666666666666666</ele><time>2026-04-05T11:49:48.005Z</time></trkpt><trkpt lat="44.81816212537064" lon="11.8708997206476"><ele>-0.3333333333333333</ele><time>2026-04-05T11:49:49.005Z</time></trkpt><trkpt lat="44.81795116885351" lon="11.870859578449881"><ele>0.0</ele><time>2026-04-05T11:49:50.005Z</time></trkpt><trkpt lat="44.81775343365083" lon="11.870869268678977"><ele>0.0</ele><time>2026-04-05T11:49:51.005Z</time></trkpt><trkpt lat="44.817549620700085" lon="11.870918604695962"><ele>0.0</ele><time>2026-04-05T11:49:52.005Z</time></trkpt><trkpt lat="44.81734842635496" lon="11.871010985408699"><ele>0.0</ele><time>2026-04-05T11:49:53.005Z</time></trkpt><trkpt lat="44.81714650847455" lon="11.871156252051291"><ele>0.0</ele><time>2026-04-05T11:49:54.005Z</time></trkpt><trkpt lat="44.81693628842665" lon="11.87133561591504"><ele>0.0</ele><time>2026-04-05T11:49:55.005Z</time></trkpt><trkpt lat="44.816716799162435" lon="11.871518542502256"><ele>-0.5</ele><time>2026-04-05T11:49:56.005Z</time></trkpt><trkpt lat="44.81649739249181" lon="11.871696570215246"><ele>-1.0</ele><time>2026-04-05T11:49:57.005Z</time></trkpt><trkpt lat="44.816276390078215" lon="11.871873156591116"><ele>-1.0</ele><time>2026-04-05T11:49:58.005Z</time></trkpt><trkpt lat="44.81605225800707" lon="11.872043917114391"><ele>-1.0</ele><time>2026-04-05T11:49:59.005Z</time></trkpt><trkpt lat="44.81581863976635" lon="11.872208658772578"><ele>-0.5</ele><time>2026-04-05T11:50:00.005Z</time></trkpt><trkpt lat="44.81558038147215" lon="11.872377002295908"><ele>0.0</ele><time>2026-04-05T11:50:01.005Z</time></trkpt><trkpt lat="44.815343236360754" lon="11.872541226909927"><ele>0.0</ele><time>2026-04-05T11:50:02.005Z</time></trkpt><trkpt lat="44.815107335209646" lon="11.87271047644692"><ele>0.0</ele><time>2026-04-05T11:50:03.005Z</time></trkpt><trkpt lat="44.81487083853054" lon="11.872874403279102"><ele>0.0</ele><time>2026-04-05T11:50:04.005Z</time></trkpt><trkpt lat="44.814633433935505" lon="11.873042443940971"><ele>0.0</ele><time>2026-04-05T11:50:05.005Z</time></trkpt><trkpt lat="44.8144004997494" lon="11.873204607842435"><ele>0.5</ele><time>2026-04-05T11:50:06.005Z</time></trkpt><trkpt lat="44.81416671609179" lon="11.873373573636702"><ele>1.0</ele><time>2026-04-05T11:50:07.005Z</time></trkpt><trkpt lat="44.81393335275586" lon="11.873542290018383"><ele>1.0</ele><time>2026-04-05T11:50:08.005Z</time></trkpt><trkpt lat="44.81369833926859" lon="11.873709264942388"><ele>1.0</ele><time>2026-04-05T11:50:09.005Z</time></trkpt><trkpt lat="44.81346683498829" lon="11.873863672385697"><ele>1.0</ele><time>2026-04-05T11:50:10.005Z</time></trkpt><trkpt lat="44.813231297730354" lon="11.874026807659442"><ele>1.0</ele><time>2026-04-05T11:50:11.005Z</time></trkpt><trkpt lat="44.81299657610183" lon="11.87419725633856"><ele>1.0</ele><time>2026-04-05T11:50:12.005Z</time></trkpt><trkpt lat="44.81276416833347" lon="11.87435781197172"><ele>1.0</ele><time>2026-04-05T11:50:13.005Z</time></trkpt><trkpt lat="44.81253926557392" lon="11.874510693027348"><ele>1.0</ele><time>2026-04-05T11:50:14.005Z</time></trkpt><trkpt lat="44.81232483162289" lon="11.874653102833788"><ele>1.0</ele><time>2026-04-05T11:50:15.005Z</time></trkpt><trkpt lat="44.81212354596065" lon="11.874782318524142"><ele>1.0</ele><time>2026-04-05T11:50:16.005Z</time></trkpt><trkpt lat="44.811932570548514" lon="11.874907449906036"><ele>1.0</ele><time>2026-04-05T11:50:17.005Z</time></trkpt><trkpt lat="44.811748837697984" lon="11.875031897984458"><ele>1.0</ele><time>2026-04-05T11:50:18.005Z</time></trkpt><trkpt lat="44.81158880917775" lon="11.875140788248624"><ele>1.0</ele><time>2026-04-05T11:50:19.005Z</time></trkpt><trkpt lat="44.81143890430507" lon="11.875238366502089"><ele>1.0</ele><time>2026-04-05T11:50:20.005Z</time></trkpt><trkpt lat="44.811299522303806" lon="11.875326747929076"><ele>1.0</ele><time>2026-04-05T11:50:21.005Z</time></trkpt><trkpt lat="44.81115933905236" lon="11.875416500239478"><ele>1.0</ele><time>2026-04-05T11:50:22.005Z</time></trkpt><trkpt lat="44.81101794342557" lon="11.875499684816996"><ele>1.0</ele><time>2026-04-05T11:50:23.005Z</time></trkpt><trkpt lat="44.8108754511258" lon="11.87556505730825"><ele>1.0</ele><time>2026-04-05T11:50:24.005Z</time></trkpt><trkpt lat="44.81073518604203" lon="11.875595548689745"><ele>1.0</ele><time>2026-04-05T11:50:25.005Z</time></trkpt><trkpt lat="44.81059689927356" lon="11.875611951864729"><ele>1.25</ele><time>2026-04-05T11:50:26.005Z</time></trkpt><trkpt lat="44.8104692976499" lon="11.8756003425209"><ele>1.5</ele><time>2026-04-05T11:50:27.005Z</time></trkpt><trkpt lat="44.81034195333615" lon="11.875569852218044"><ele>1.75</ele><time>2026-04-05T11:50:28.005Z</time></trkpt><trkpt lat="44.81021381934217" lon="11.875516017961225"><ele>2.0</ele><time>2026-04-05T11:50:29.005Z</time></trkpt><trkpt lat="44.8100949777444" lon="11.875424619656993"><ele>2.0</ele><time>2026-04-05T11:50:30.005Z</time></trkpt><trkpt lat="44.809978922677665" lon="11.87531126964096"><ele>2.0</ele><time>2026-04-05T11:50:31.005Z</time></trkpt><trkpt lat="44.80986740516484" lon="11.8751801150674"><ele>2.0</ele><time>2026-04-05T11:50:32.005Z</time></trkpt><trkpt lat="44.809751821482045" lon="11.87503938711886"><ele>2.0</ele><time>2026-04-05T11:50:33.005Z</time></trkpt><trkpt lat="44.809638241724045" lon="11.874899023325165"><ele>2.0</ele><time>2026-04-05T11:50:34.005Z</time></trkpt><trkpt lat="44.80952199725417" lon="11.874757901518269"><ele>2.0</ele><time>2026-04-05T11:50:35.005Z</time></trkpt><trkpt lat="44.8094057207501" lon="11.874612260094777"><ele>2.0</ele><time>2026-04-05T11:50:36.005Z</time></trkpt><trkpt lat="44.80928889719644" lon="11.874474909244313"><ele>2.0</ele><time>2026-04-05T11:50:37.005Z</time></trkpt><trkpt lat="44.80917135822001" lon="11.874344587260902"><ele>2.0</ele><time>2026-04-05T11:50:38.005Z</time></trkpt><trkpt lat="44.80904823476509" lon="11.874230312139842"><ele>2.0</ele><time>2026-04-05T11:50:39.005Z</time></trkpt><trkpt lat="44.80890843999406" lon="11.874138317868598"><ele>2.0</ele><time>2026-04-05T11:50:40.005Z</time></trkpt><trkpt lat="44.80878335766034" lon="11.874055390743228"><ele>2.0</ele><time>2026-04-05T11:50:41.005Z</time></trkpt><trkpt lat="44.80866498232923" lon="11.873947472740088"><ele>2.0</ele><time>2026-04-05T11:50:42.005Z</time></trkpt><trkpt lat="44.808520807287586" lon="11.873944440901385"><ele>2.0</ele><time>2026-04-05T11:50:43.005Z</time></trkpt><trkpt lat="44.80838801726817" lon="11.873902659519947"><ele>2.0</ele><time>2026-04-05T11:50:44.005Z</time></trkpt><trkpt lat="44.808255284523135" lon="11.873879340268191"><ele>2.0</ele><time>2026-04-05T11:50:45.005Z</time></trkpt><trkpt lat="44.80812303213589" lon="11.873865628921596"><ele>2.0</ele><time>2026-04-05T11:50:46.005Z</time></trkpt><trkpt lat="44.807994637758505" lon="11.873817652971505"><ele>2.0</ele><time>2026-04-05T11:50:47.005Z</time></trkpt><trkpt lat="44.807874260483295" lon="11.873850583433782"><ele>2.0</ele><time>2026-04-05T11:50:48.005Z</time></trkpt><trkpt lat="44.807780213104664" lon="11.873945822030487"><ele>2.0</ele><time>2026-04-05T11:50:49.005Z</time></trkpt><trkpt lat="44.80769899913819" lon="11.87403340841208"><ele>2.0</ele><time>2026-04-05T11:50:50.005Z</time></trkpt><trkpt lat="44.80762385299149" lon="11.87413211889152"><ele>2.0</ele><time>2026-04-05T11:50:51.005Z</time></trkpt><trkpt lat="44.80759188313047" lon="11.874265017285659"><ele>2.0</ele><time>2026-04-05T11:50:52.005Z</time></trkpt><trkpt lat="44.807552428141136" lon="11.874363141354898"><ele>2.333333333333333</ele><time>2026-04-05T11:50:53.005Z</time></trkpt><trkpt lat="44.807506702745464" lon="11.874448712374933"><ele>2.6666666666666665</ele><time>2026-04-05T11:50:54.005Z</time></trkpt><trkpt lat="44.80746219434773" lon="11.874515897362846"><ele>3.0</ele><time>2026-04-05T11:50:55.005Z</time></trkpt><trkpt lat="44.8074107881941" lon="11.874586451952807"><ele>3.333333333333333</ele><time>2026-04-05T11:50:56.005Z</time></trkpt><trkpt lat="44.80734032291032" lon="11.874651460450155"><ele>3.6666666666666665</ele><time>2026-04-05T11:50:57.005Z</time></trkpt><trkpt lat="44.80726112712784" lon="11.874745664811577"><ele>4.0</ele><time>2026-04-05T11:50:58.005Z</time></trkpt><trkpt lat="44.80718974042943" lon="11.874859403338641"><ele>4.0</ele><time>2026-04-05T11:50:59.005Z</time></trkpt><trkpt lat="44.80713381905757" lon="11.874990554314756"><ele>4.0</ele><time>2026-04-05T11:51:00.005Z</time></trkpt><trkpt lat="44.807069508004986" lon="11.87510360821949"><ele>4.0</ele><time>2026-04-05T11:51:01.005Z</time></trkpt><trkpt lat="44.807010797834295" lon="11.875242628165598"><ele>4.0</ele><time>2026-04-05T11:51:02.005Z</time></trkpt><trkpt lat="44.80695798625946" lon="11.875395633037089"><ele>4.0</ele><time>2026-04-05T11:51:03.005Z</time></trkpt><trkpt lat="44.8069438022232" lon="11.875564407799624"><ele>3.5</ele><time>2026-04-05T11:51:04.005Z</time></trkpt><trkpt lat="44.80695012148502" lon="11.875744962165047"><ele>3.0</ele><time>2026-04-05T11:51:05.005Z</time></trkpt><trkpt lat="44.80698531007835" lon="11.875934658497508"><ele>2.5</ele><time>2026-04-05T11:51:06.005Z</time></trkpt><trkpt lat="44.80703908640683" lon="11.876168670204743"><ele>2.0</ele><time>2026-04-05T11:51:07.005Z</time></trkpt><trkpt lat="44.807100633716026" lon="11.876417296153942"><ele>2.0</ele><time>2026-04-05T11:51:08.005Z</time></trkpt><trkpt lat="44.807155185642614" lon="11.876682342880505"><ele>2.0</ele><time>2026-04-05T11:51:09.005Z</time></trkpt><trkpt lat="44.807182255509986" lon="11.876957321064847"><ele>2.0</ele><time>2026-04-05T11:51:10.005Z</time></trkpt><trkpt lat="44.807187109234874" lon="11.877249822083714"><ele>2.0</ele><time>2026-04-05T11:51:11.005Z</time></trkpt><trkpt lat="44.80719092212667" lon="11.87753877318724"><ele>2.0</ele><time>2026-04-05T11:51:12.005Z</time></trkpt><trkpt lat="44.80718923203481" lon="11.877838466025839"><ele>2.0</ele><time>2026-04-05T11:51:13.005Z</time></trkpt><trkpt lat="44.80718589148215" lon="11.878142431894375"><ele>1.3333333333333333</ele><time>2026-04-05T11:51:14.005Z</time></trkpt><trkpt lat="44.80717203125138" lon="11.878443643201344"><ele>0.6666666666666666</ele><time>2026-04-05T11:51:15.005Z</time></trkpt><trkpt lat="44.807169563485374" lon="11.87874038122894"><ele>0.0</ele><time>2026-04-05T11:51:16.005Z</time></trkpt><trkpt lat="44.807180752690556" lon="11.87902343104433"><ele>0.3333333333333333</ele><time>2026-04-05T11:51:17.005Z</time></trkpt><trkpt lat="44.80714179862771" lon="11.87930659425521"><ele>0.6666666666666666</ele><time>2026-04-05T11:51:18.005Z</time></trkpt><trkpt lat="44.80712133087679" lon="11.879596975181844"><ele>1.0</ele><time>2026-04-05T11:51:19.005Z</time></trkpt><trkpt lat="44.80707772127159" lon="11.879898474482847"><ele>1.5</ele><time>2026-04-05T11:51:20.005Z</time></trkpt><trkpt lat="44.807013471063236" lon="11.88020503766926"><ele>2.0</ele><time>2026-04-05T11:51:21.006Z</time></trkpt><trkpt lat="44.80693961172193" lon="11.880517742436664"><ele>2.0</ele><time>2026-04-05T11:51:22.006Z</time></trkpt><trkpt lat="44.80687419149236" lon="11.880832588107454"><ele>2.0</ele><time>2026-04-05T11:51:23.006Z</time></trkpt><trkpt lat="44.806806727049796" lon="11.88115280758145"><ele>1.5</ele><time>2026-04-05T11:51:24.006Z</time></trkpt><trkpt lat="44.80674396789707" lon="11.881477992831499"><ele>1.0</ele><time>2026-04-05T11:51:25.006Z</time></trkpt><trkpt lat="44.806674076519705" lon="11.881806703708945"><ele>1.0</ele><time>2026-04-05T11:51:26.006Z</time></trkpt><trkpt lat="44.806608195060754" lon="11.882138987793656"><ele>1.0</ele><time>2026-04-05T11:51:27.006Z</time></trkpt><trkpt lat="44.8065477222292" lon="11.882462503760264"><ele>0.6666666666666666</ele><time>2026-04-05T11:51:28.006Z</time></trkpt><trkpt lat="44.80648500534869" lon="11.882765264814472"><ele>0.3333333333333333</ele><time>2026-04-05T11:51:29.006Z</time></trkpt><trkpt lat="44.8064257942941" lon="11.883048198996176"><ele>0.0</ele><time>2026-04-05T11:51:30.006Z</time></trkpt><trkpt lat="44.80636056674228" lon="11.883315533034223"><ele>0.0</ele><time>2026-04-05T11:51:31.006Z</time></trkpt><trkpt lat="44.806284807413334" lon="11.88357463748487"><ele>0.0</ele><time>2026-04-05T11:51:32.006Z</time></trkpt><trkpt lat="44.806180627658975" lon="11.883822350224813"><ele>0.0</ele><time>2026-04-05T11:51:33.006Z</time></trkpt><trkpt lat="44.806060678370294" lon="11.884070899777536"><ele>0.0</ele><time>2026-04-05T11:51:34.006Z</time></trkpt><trkpt lat="44.805924925596585" lon="11.884305749768691"><ele>0.0</ele><time>2026-04-05T11:51:35.006Z</time></trkpt><trkpt lat="44.805788850987696" lon="11.884545315655918"><ele>0.0</ele><time>2026-04-05T11:51:36.006Z</time></trkpt><trkpt lat="44.80564028672781" lon="11.884776467889923"><ele>0.0</ele><time>2026-04-05T11:51:37.006Z</time></trkpt><trkpt lat="44.805492976590806" lon="11.884993584125342"><ele>0.0</ele><time>2026-04-05T11:51:38.006Z</time></trkpt><trkpt lat="44.805349969258245" lon="11.885190732166977"><ele>0.0</ele><time>2026-04-05T11:51:39.006Z</time></trkpt><trkpt lat="44.805221462318684" lon="11.885363345596678"><ele>0.3333333333333333</ele><time>2026-04-05T11:51:40.006Z</time></trkpt><trkpt lat="44.805096871492104" lon="11.885553567510462"><ele>0.6666666666666666</ele><time>2026-04-05T11:51:41.006Z</time></trkpt><trkpt lat="44.80500614170197" lon="11.885790008682388"><ele>1.0</ele><time>2026-04-05T11:51:42.006Z</time></trkpt><trkpt lat="44.80493438604494" lon="11.886036325861888"><ele>0.3333333333333333</ele><time>2026-04-05T11:51:43.006Z</time></trkpt><trkpt lat="44.80482918378225" lon="11.886284059604574"><ele>-0.3333333333333333</ele><time>2026-04-05T11:51:44.006Z</time></trkpt><trkpt lat="44.80470027660925" lon="11.886519522920807"><ele>-1.0</ele><time>2026-04-05T11:51:45.006Z</time></trkpt><trkpt lat="44.80459737202826" lon="11.886784235132053"><ele>-1.0</ele><time>2026-04-05T11:51:46.006Z</time></trkpt><trkpt lat="44.80451355078067" lon="11.887077130728889"><ele>-1.0</ele><time>2026-04-05T11:51:47.006Z</time></trkpt><trkpt lat="44.804408643974206" lon="11.887361191674641"><ele>1.0</ele><time>2026-04-05T11:51:48.006Z</time></trkpt><trkpt lat="44.80431209232364" lon="11.887669297386475"><ele>3.0</ele><time>2026-04-05T11:51:49.006Z</time></trkpt><trkpt lat="44.804228823371275" lon="11.887984980129444"><ele>3.0</ele><time>2026-04-05T11:51:50.006Z</time></trkpt><trkpt lat="44.80415064714845" lon="11.888311612780793"><ele>3.0</ele><time>2026-04-05T11:51:51.006Z</time></trkpt><trkpt lat="44.80406721358649" lon="11.888622290345484"><ele>2.5</ele><time>2026-04-05T11:51:52.006Z</time></trkpt><trkpt lat="44.80398994081197" lon="11.888934106871883"><ele>2.0</ele><time>2026-04-05T11:51:53.006Z</time></trkpt><trkpt lat="44.803912360400915" lon="11.889228850027829"><ele>1.6666666666666665</ele><time>2026-04-05T11:51:54.006Z</time></trkpt><trkpt lat="44.803830450888924" lon="11.88950888693206"><ele>1.3333333333333333</ele><time>2026-04-05T11:51:55.006Z</time></trkpt><trkpt lat="44.80374283544002" lon="11.889775492747788"><ele>1.0</ele><time>2026-04-05T11:51:56.006Z</time></trkpt><trkpt lat="44.80364072394148" lon="11.890034443929952"><ele>1.0</ele><time>2026-04-05T11:51:57.006Z</time></trkpt><trkpt lat="44.80352269294543" lon="11.890294276289167"><ele>1.0</ele><time>2026-04-05T11:51:58.006Z</time></trkpt><trkpt lat="44.803398160173096" lon="11.890535474668555"><ele>1.0</ele><time>2026-04-05T11:51:59.006Z</time></trkpt><trkpt lat="44.80326249030078" lon="11.890763334154418"><ele>0.6666666666666666</ele><time>2026-04-05T11:52:00.006Z</time></trkpt><trkpt lat="44.80311640202447" lon="11.890974495928054"><ele>0.3333333333333333</ele><time>2026-04-05T11:52:01.006Z</time></trkpt><trkpt lat="44.80295407389392" lon="11.891182700742252"><ele>0.0</ele><time>2026-04-05T11:52:02.006Z</time></trkpt><trkpt lat="44.802781611486665" lon="11.891397800236533"><ele>0.0</ele><time>2026-04-05T11:52:03.006Z</time></trkpt><trkpt lat="44.80262004279084" lon="11.89161292729961"><ele>0.0</ele><time>2026-04-05T11:52:04.006Z</time></trkpt><trkpt lat="44.80245065425276" lon="11.891830980483194"><ele>-0.3333333333333333</ele><time>2026-04-05T11:52:05.006Z</time></trkpt><trkpt lat="44.80228633695354" lon="11.892053464642862"><ele>-0.6666666666666666</ele><time>2026-04-05T11:52:06.006Z</time></trkpt><trkpt lat="44.802127001899294" lon="11.89227040329207"><ele>-1.0</ele><time>2026-04-05T11:52:07.006Z</time></trkpt><trkpt lat="44.80196969419727" lon="11.892486424892128"><ele>-0.6666666666666666</ele><time>2026-04-05T11:52:08.006Z</time></trkpt><trkpt lat="44.801825570861446" lon="11.892688918821603"><ele>-0.3333333333333333</ele><time>2026-04-05T11:52:09.006Z</time></trkpt><trkpt lat="44.80169464227734" lon="11.892881875619516"><ele>0.0</ele><time>2026-04-05T11:52:10.006Z</time></trkpt><trkpt lat="44.80157659998809" lon="11.893056291580661"><ele>0.0</ele><time>2026-04-05T11:52:11.006Z</time></trkpt><trkpt lat="44.801468730815365" lon="11.893211750684952"><ele>0.0</ele><time>2026-04-05T11:52:12.006Z</time></trkpt><trkpt lat="44.801364633220985" lon="11.893358795426321"><ele>0.0</ele><time>2026-04-05T11:52:13.006Z</time></trkpt><trkpt lat="44.80127410823927" lon="11.893488251313654"><ele>0.0</ele><time>2026-04-05T11:52:14.006Z</time></trkpt><trkpt lat="44.80119584448572" lon="11.89360571336971"><ele>0.0</ele><time>2026-04-05T11:52:15.006Z</time></trkpt><trkpt lat="44.80112371397263" lon="11.893706004570841"><ele>0.0</ele><time>2026-04-05T11:52:16.006Z</time></trkpt><trkpt lat="44.80106026338859" lon="11.893788949233715"><ele>0.0</ele><time>2026-04-05T11:52:17.006Z</time></trkpt><trkpt lat="44.80100311067525" lon="11.893832970174774"><ele>0.0</ele><time>2026-04-05T11:52:18.006Z</time></trkpt><trkpt lat="44.80087740013144" lon="11.893819241447728"><ele>0.0</ele><time>2026-04-05T11:52:20.006Z</time></trkpt><trkpt lat="44.80080089001439" lon="11.893727151496986"><ele>0.25</ele><time>2026-04-05T11:52:21.006Z</time></trkpt><trkpt lat="44.80071666303861" lon="11.893590793641033"><ele>0.5</ele><time>2026-04-05T11:52:22.006Z</time></trkpt><trkpt lat="44.800620513100405" lon="11.893430790504157"><ele>0.75</ele><time>2026-04-05T11:52:23.006Z</time></trkpt><trkpt lat="44.80051765716914" lon="11.893247325084495"><ele>1.0</ele><time>2026-04-05T11:52:24.006Z</time></trkpt><trkpt lat="44.80039865403481" lon="11.893066509342725"><ele>1.0</ele><time>2026-04-05T11:52:25.006Z</time></trkpt><trkpt lat="44.800276769723105" lon="11.892857889541018"><ele>1.0</ele><time>2026-04-05T11:52:26.006Z</time></trkpt><trkpt lat="44.800146898245906" lon="11.892638045255053"><ele>1.0</ele><time>2026-04-05T11:52:27.006Z</time></trkpt><trkpt lat="44.800012577778816" lon="11.892422375022706"><ele>1.0</ele><time>2026-04-05T11:52:28.006Z</time></trkpt><trkpt lat="44.79986861291936" lon="11.892203245887448"><ele>1.0</ele><time>2026-04-05T11:52:29.006Z</time></trkpt><trkpt lat="44.799730577960645" lon="11.891977817091687"><ele>1.0</ele><time>2026-04-05T11:52:30.006Z</time></trkpt><trkpt lat="44.79959620933371" lon="11.891750696841985"><ele>1.0</ele><time>2026-04-05T11:52:31.006Z</time></trkpt><trkpt lat="44.799471602069886" lon="11.891533204344837"><ele>1.0</ele><time>2026-04-05T11:52:32.006Z</time></trkpt><trkpt lat="44.79935541346779" lon="11.891319456521119"><ele>1.0</ele><time>2026-04-05T11:52:33.006Z</time></trkpt><trkpt lat="44.799235101388405" lon="11.891132705303118"><ele>1.0</ele><time>2026-04-05T11:52:34.006Z</time></trkpt><trkpt lat="44.79911353604564" lon="11.890980639561807"><ele>1.0</ele><time>2026-04-05T11:52:35.006Z</time></trkpt><trkpt lat="44.798982785351384" lon="11.890859838837263"><ele>1.0</ele><time>2026-04-05T11:52:36.006Z</time></trkpt><trkpt lat="44.79884000837296" lon="11.890766629333017"><ele>1.3333333333333333</ele><time>2026-04-05T11:52:37.006Z</time></trkpt><trkpt lat="44.79868924546048" lon="11.890667584737244"><ele>1.6666666666666665</ele><time>2026-04-05T11:52:38.006Z</time></trkpt><trkpt lat="44.79853740902298" lon="11.890582274945087"><ele>2.0</ele><time>2026-04-05T11:52:39.006Z</time></trkpt><trkpt lat="44.7983886269184" lon="11.89049839375818"><ele>2.0</ele><time>2026-04-05T11:52:40.006Z</time></trkpt><trkpt lat="44.79823774108177" lon="11.890424828880024"><ele>2.0</ele><time>2026-04-05T11:52:41.006Z</time></trkpt><trkpt lat="44.798076787306755" lon="11.89033615167102"><ele>2.0</ele><time>2026-04-05T11:52:42.006Z</time></trkpt><trkpt lat="44.79791906497803" lon="11.890232633525924"><ele>2.0</ele><time>2026-04-05T11:52:43.006Z</time></trkpt><trkpt lat="44.79776916434476" lon="11.890123187692206"><ele>2.0</ele><time>2026-04-05T11:52:44.006Z</time></trkpt><trkpt lat="44.797637446650405" lon="11.89001779292451"><ele>2.0</ele><time>2026-04-05T11:52:45.006Z</time></trkpt><trkpt lat="44.79751070869201" lon="11.889921588849504"><ele>2.4000000000000004</ele><time>2026-04-05T11:52:46.006Z</time></trkpt><trkpt lat="44.79739830462055" lon="11.88984100169446"><ele>2.8000000000000003</ele><time>2026-04-05T11:52:47.006Z</time></trkpt><trkpt lat="44.79729707524478" lon="11.889779898093463"><ele>3.2</ele><time>2026-04-05T11:52:48.006Z</time></trkpt><trkpt lat="44.797213396413035" lon="11.889725318316437"><ele>3.6</ele><time>2026-04-05T11:52:49.006Z</time></trkpt><trkpt lat="44.797128828934355" lon="11.889680538782862"><ele>4.0</ele><time>2026-04-05T11:52:50.006Z</time></trkpt><trkpt lat="44.79704791085515" lon="11.889678081485691"><ele>4.0</ele><time>2026-04-05T11:52:51.006Z</time></trkpt><trkpt lat="44.79696367385389" lon="11.88971901605383"><ele>4.0</ele><time>2026-04-05T11:52:52.006Z</time></trkpt><trkpt lat="44.7968688039752" lon="11.889797467273588"><ele>4.0</ele><time>2026-04-05T11:52:53.006Z</time></trkpt><trkpt lat="44.796758669558876" lon="11.889917259159445"><ele>4.0</ele><time>2026-04-05T11:52:54.006Z</time></trkpt><trkpt lat="44.79663879280197" lon="11.890081734363116"><ele>3.0</ele><time>2026-04-05T11:52:55.006Z</time></trkpt><trkpt lat="44.7965221077003" lon="11.890273387428874"><ele>2.0</ele><time>2026-04-05T11:52:56.006Z</time></trkpt><trkpt lat="44.796404066196146" lon="11.890511564670733"><ele>1.0</ele><time>2026-04-05T11:52:57.006Z</time></trkpt><trkpt lat="44.79628340088658" lon="11.890758755133076"><ele>0.6666666666666666</ele><time>2026-04-05T11:52:58.006Z</time></trkpt><trkpt lat="44.79615892590882" lon="11.890998197440767"><ele>0.3333333333333333</ele><time>2026-04-05T11:52:59.006Z</time></trkpt><trkpt lat="44.79602996408253" lon="11.89124323925653"><ele>0.0</ele><time>2026-04-05T11:53:00.006Z</time></trkpt><trkpt lat="44.79590271135354" lon="11.891491672648694"><ele>0.0</ele><time>2026-04-05T11:53:01.006Z</time></trkpt><trkpt lat="44.79577021751788" lon="11.891753244218028"><ele>0.0</ele><time>2026-04-05T11:53:02.006Z</time></trkpt><trkpt lat="44.795626506386995" lon="11.892020782437527"><ele>0.5</ele><time>2026-04-05T11:53:03.006Z</time></trkpt><trkpt lat="44.79548338105387" lon="11.892272270387775"><ele>1.0</ele><time>2026-04-05T11:53:04.006Z</time></trkpt><trkpt lat="44.79533720710151" lon="11.892524494541407"><ele>1.0</ele><time>2026-04-05T11:53:05.006Z</time></trkpt><trkpt lat="44.795184679859496" lon="11.892768228685627"><ele>1.0</ele><time>2026-04-05T11:53:06.006Z</time></trkpt><trkpt lat="44.7950365933036" lon="11.893024987727683"><ele>1.0</ele><time>2026-04-05T11:53:07.006Z</time></trkpt><trkpt lat="44.79489197057586" lon="11.893277015687236"><ele>1.0</ele><time>2026-04-05T11:53:08.006Z</time></trkpt><trkpt lat="44.7947499362966" lon="11.893533672378403"><ele>1.0</ele><time>2026-04-05T11:53:09.006Z</time></trkpt><trkpt lat="44.79461299004041" lon="11.893802477375141"><ele>1.0</ele><time>2026-04-05T11:53:10.006Z</time></trkpt><trkpt lat="44.79448378824931" lon="11.894083715006099"><ele>1.0</ele><time>2026-04-05T11:53:11.006Z</time></trkpt><trkpt lat="44.79436064187697" lon="11.894363531296543"><ele>1.0</ele><time>2026-04-05T11:53:12.006Z</time></trkpt><trkpt lat="44.79423765894081" lon="11.894643523498754"><ele>1.0</ele><time>2026-04-05T11:53:13.006Z</time></trkpt><trkpt lat="44.79412689889636" lon="11.894930665456588"><ele>1.0</ele><time>2026-04-05T11:53:14.006Z</time></trkpt><trkpt lat="44.79400333869809" lon="11.89520506948055"><ele>-0.5</ele><time>2026-04-05T11:53:15.006Z</time></trkpt><trkpt lat="44.79387019396158" lon="11.895471769814248"><ele>-2.0</ele><time>2026-04-05T11:53:16.006Z</time></trkpt><trkpt lat="44.79375600206002" lon="11.895757185208694"><ele>-1.5</ele><time>2026-04-05T11:53:17.006Z</time></trkpt><trkpt lat="44.79361315108898" lon="11.896029885038672"><ele>-1.0</ele><time>2026-04-05T11:53:18.006Z</time></trkpt><trkpt lat="44.79348337484103" lon="11.896303874182694"><ele>-0.5</ele><time>2026-04-05T11:53:19.006Z</time></trkpt><trkpt lat="44.7933438210592" lon="11.896577061319926"><ele>0.0</ele><time>2026-04-05T11:53:20.006Z</time></trkpt><trkpt lat="44.79321078294096" lon="11.896848641548566"><ele>0.0</ele><time>2026-04-05T11:53:21.006Z</time></trkpt><trkpt lat="44.79307356444057" lon="11.897117354911865"><ele>0.0</ele><time>2026-04-05T11:53:22.006Z</time></trkpt><trkpt lat="44.79293672513574" lon="11.897386622907206"><ele>0.0</ele><time>2026-04-05T11:53:23.006Z</time></trkpt><trkpt lat="44.79281239510008" lon="11.897643107361084"><ele>0.0</ele><time>2026-04-05T11:53:24.006Z</time></trkpt><trkpt lat="44.79268568788619" lon="11.89789230013008"><ele>0.0</ele><time>2026-04-05T11:53:25.006Z</time></trkpt><trkpt lat="44.79255373464038" lon="11.898130250840799"><ele>0.3333333333333333</ele><time>2026-04-05T11:53:26.006Z</time></trkpt><trkpt lat="44.79241422536015" lon="11.898362420058534"><ele>0.6666666666666666</ele><time>2026-04-05T11:53:27.006Z</time></trkpt><trkpt lat="44.79225549695609" lon="11.89858778678819"><ele>1.0</ele><time>2026-04-05T11:53:28.006Z</time></trkpt><trkpt lat="44.79208717474583" lon="11.89880636364386"><ele>0.0</ele><time>2026-04-05T11:53:29.006Z</time></trkpt><trkpt lat="44.791904977226366" lon="11.89900539123175"><ele>-1.0</ele><time>2026-04-05T11:53:30.006Z</time></trkpt><trkpt lat="44.791714885764364" lon="11.899190321280448"><ele>-1.5</ele><time>2026-04-05T11:53:31.006Z</time></trkpt><trkpt lat="44.79149895902612" lon="11.899347799626398"><ele>-2.0</ele><time>2026-04-05T11:53:32.006Z</time></trkpt><trkpt lat="44.791282096627846" lon="11.89952712883466"><ele>-2.0</ele><time>2026-04-05T11:53:33.006Z</time></trkpt><trkpt lat="44.79107123569134" lon="11.89970340786265"><ele>-2.0</ele><time>2026-04-05T11:53:34.006Z</time></trkpt><trkpt lat="44.790871494835535" lon="11.899866122978215"><ele>-1.6666666666666665</ele><time>2026-04-05T11:53:35.006Z</time></trkpt><trkpt lat="44.79068314039207" lon="11.90002394103712"><ele>-1.3333333333333333</ele><time>2026-04-05T11:53:36.006Z</time></trkpt><trkpt lat="44.790511633936894" lon="11.900173281695942"><ele>-1.0</ele><time>2026-04-05T11:53:37.006Z</time></trkpt><trkpt lat="44.79033579129918" lon="11.900344461057566"><ele>-0.6666666666666666</ele><time>2026-04-05T11:53:38.006Z</time></trkpt><trkpt lat="44.79018014357496" lon="11.900548531594392"><ele>-0.3333333333333333</ele><time>2026-04-05T11:53:39.006Z</time></trkpt><trkpt lat="44.790037203753" lon="11.900791651627154"><ele>0.0</ele><time>2026-04-05T11:53:40.006Z</time></trkpt><trkpt lat="44.78989524583969" lon="11.901050580467155"><ele>0.0</ele><time>2026-04-05T11:53:41.006Z</time></trkpt><trkpt lat="44.789748671790875" lon="11.901326015270966"><ele>0.0</ele><time>2026-04-05T11:53:42.006Z</time></trkpt><trkpt lat="44.789589179494826" lon="11.901585723839315"><ele>0.5</ele><time>2026-04-05T11:53:43.006Z</time></trkpt><trkpt lat="44.7894394982614" lon="11.901859392577796"><ele>1.0</ele><time>2026-04-05T11:53:44.006Z</time></trkpt><trkpt lat="44.78929558222953" lon="11.902161502562063"><ele>0.5</ele><time>2026-04-05T11:53:45.006Z</time></trkpt><trkpt lat="44.78913983685227" lon="11.902429870771405"><ele>0.0</ele><time>2026-04-05T11:53:46.006Z</time></trkpt><trkpt lat="44.78900084132287" lon="11.902701004699962"><ele>0.0</ele><time>2026-04-05T11:53:47.006Z</time></trkpt><trkpt lat="44.78887809183552" lon="11.9029777936897"><ele>0.0</ele><time>2026-04-05T11:53:48.006Z</time></trkpt><trkpt lat="44.78875908956373" lon="11.903259656155452"><ele>0.0</ele><time>2026-04-05T11:53:49.006Z</time></trkpt><trkpt lat="44.78866260446374" lon="11.903563336036559"><ele>0.0</ele><time>2026-04-05T11:53:50.006Z</time></trkpt><trkpt lat="44.78851993274861" lon="11.903841413604981"><ele>0.0</ele><time>2026-04-05T11:53:51.006Z</time></trkpt><trkpt lat="44.788386580608346" lon="11.904129996477952"><ele>0.0</ele><time>2026-04-05T11:53:52.007Z</time></trkpt><trkpt lat="44.788232327675566" lon="11.904415075856912"><ele>0.0</ele><time>2026-04-05T11:53:53.007Z</time></trkpt><trkpt lat="44.788076392380326" lon="11.904710927972715"><ele>0.0</ele><time>2026-04-05T11:53:54.007Z</time></trkpt><trkpt lat="44.78791809840557" lon="11.905011093894885"><ele>0.0</ele><time>2026-04-05T11:53:55.007Z</time></trkpt><trkpt lat="44.78775912552765" lon="11.905313675735137"><ele>0.0</ele><time>2026-04-05T11:53:56.007Z</time></trkpt><trkpt lat="44.78759276603805" lon="11.905624670796918"><ele>0.0</ele><time>2026-04-05T11:53:57.007Z</time></trkpt><trkpt lat="44.787421101542265" lon="11.905938308874552"><ele>0.0</ele><time>2026-04-05T11:53:58.007Z</time></trkpt><trkpt lat="44.78725039208484" lon="11.906252370839425"><ele>0.0</ele><time>2026-04-05T11:53:59.007Z</time></trkpt><trkpt lat="44.78707908990297" lon="11.906558755340363"><ele>0.0</ele><time>2026-04-05T11:54:00.007Z</time></trkpt><trkpt lat="44.78690822833808" lon="11.906862528096699"><ele>-0.5</ele><time>2026-04-05T11:54:01.007Z</time></trkpt><trkpt lat="44.786739716385505" lon="11.907167715916426"><ele>-1.0</ele><time>2026-04-05T11:54:02.007Z</time></trkpt><trkpt lat="44.78656991228139" lon="11.907474271015202"><ele>-1.0</ele><time>2026-04-05T11:54:03.007Z</time></trkpt><trkpt lat="44.786403301169194" lon="11.907783611224076"><ele>-1.0</ele><time>2026-04-05T11:54:04.007Z</time></trkpt><trkpt lat="44.7862378875063" lon="11.908094018855358"><ele>-1.0</ele><time>2026-04-05T11:54:05.007Z</time></trkpt><trkpt lat="44.786059516647505" lon="11.908401617698303"><ele>-1.0</ele><time>2026-04-05T11:54:06.007Z</time></trkpt><trkpt lat="44.78588865630865" lon="11.908720149049639"><ele>-1.0</ele><time>2026-04-05T11:54:07.007Z</time></trkpt><trkpt lat="44.7857170653798" lon="11.909037843677114"><ele>-1.0</ele><time>2026-04-05T11:54:08.007Z</time></trkpt><trkpt lat="44.78554093316133" lon="11.909355671448509"><ele>-1.5</ele><time>2026-04-05T11:54:09.007Z</time></trkpt><trkpt lat="44.785355727165644" lon="11.909681714897076"><ele>-2.0</ele><time>2026-04-05T11:54:10.007Z</time></trkpt><trkpt lat="44.78518638486588" lon="11.910002573983439"><ele>-2.5</ele><time>2026-04-05T11:54:11.007Z</time></trkpt><trkpt lat="44.78501990990817" lon="11.910315924170432"><ele>-3.0</ele><time>2026-04-05T11:54:12.007Z</time></trkpt><trkpt lat="44.78485172332254" lon="11.910621846176491"><ele>-3.0</ele><time>2026-04-05T11:54:13.007Z</time></trkpt><trkpt lat="44.784684822323065" lon="11.91092688442381"><ele>-3.0</ele><time>2026-04-05T11:54:14.007Z</time></trkpt><trkpt lat="44.78452171338455" lon="11.911241606789305"><ele>-3.0</ele><time>2026-04-05T11:54:15.007Z</time></trkpt><trkpt lat="44.784353967974276" lon="11.911551031969958"><ele>-3.0</ele><time>2026-04-05T11:54:16.007Z</time></trkpt><trkpt lat="44.78418472208112" lon="11.911864128121593"><ele>-2.0</ele><time>2026-04-05T11:54:17.007Z</time></trkpt><trkpt lat="44.784018226075446" lon="11.912171387788367"><ele>-1.0</ele><time>2026-04-05T11:54:18.007Z</time></trkpt><trkpt lat="44.783850340550984" lon="11.912480252252086"><ele>-1.0</ele><time>2026-04-05T11:54:19.007Z</time></trkpt><trkpt lat="44.78367331283747" lon="11.912782691417531"><ele>-1.0</ele><time>2026-04-05T11:54:20.007Z</time></trkpt><trkpt lat="44.783490427534865" lon="11.913082095639439"><ele>-1.0</ele><time>2026-04-05T11:54:21.007Z</time></trkpt><trkpt lat="44.7833000383738" lon="11.913372053623675"><ele>-1.0</ele><time>2026-04-05T11:54:22.007Z</time></trkpt><trkpt lat="44.783107622293436" lon="11.9136631351151"><ele>-0.5</ele><time>2026-04-05T11:54:23.007Z</time></trkpt><trkpt lat="44.78291469741464" lon="11.913955202358725"><ele>0.0</ele><time>2026-04-05T11:54:24.007Z</time></trkpt><trkpt lat="44.78272545564294" lon="11.914244202463605"><ele>0.0</ele><time>2026-04-05T11:54:25.007Z</time></trkpt><trkpt lat="44.78253879069366" lon="11.914530638472371"><ele>0.0</ele><time>2026-04-05T11:54:26.007Z</time></trkpt><trkpt lat="44.78236121970515" lon="11.914798595562194"><ele>0.0</ele><time>2026-04-05T11:54:27.007Z</time></trkpt><trkpt lat="44.782191899128975" lon="11.915069131376493"><ele>0.0</ele><time>2026-04-05T11:54:28.007Z</time></trkpt><trkpt lat="44.78203832799525" lon="11.915356031775156"><ele>-1.0</ele><time>2026-04-05T11:54:29.007Z</time></trkpt><trkpt lat="44.78189429203172" lon="11.915653219811672"><ele>-2.0</ele><time>2026-04-05T11:54:30.007Z</time></trkpt><trkpt lat="44.78175220774228" lon="11.915967012658472"><ele>-2.0</ele><time>2026-04-05T11:54:31.007Z</time></trkpt><trkpt lat="44.78160871492314" lon="11.91628723683417"><ele>-2.0</ele><time>2026-04-05T11:54:32.007Z</time></trkpt><trkpt lat="44.781459927364125" lon="11.916610806664876"><ele>-2.0</ele><time>2026-04-05T11:54:33.007Z</time></trkpt><trkpt lat="44.78132913607527" lon="11.916931989279322"><ele>-2.0</ele><time>2026-04-05T11:54:34.007Z</time></trkpt><trkpt lat="44.781171753663415" lon="11.917236940170678"><ele>-2.0</ele><time>2026-04-05T11:54:35.007Z</time></trkpt><trkpt lat="44.78102220616077" lon="11.917542111422154"><ele>-2.0</ele><time>2026-04-05T11:54:36.007Z</time></trkpt><trkpt lat="44.78089503671988" lon="11.917848096878785"><ele>-2.0</ele><time>2026-04-05T11:54:37.007Z</time></trkpt><trkpt lat="44.780778672808815" lon="11.918153142135402"><ele>-2.0</ele><time>2026-04-05T11:54:38.007Z</time></trkpt><trkpt lat="44.78067103860869" lon="11.918456894093458"><ele>-2.0</ele><time>2026-04-05T11:54:39.007Z</time></trkpt><trkpt lat="44.78057765198417" lon="11.918755200807004"><ele>-2.0</ele><time>2026-04-05T11:54:40.007Z</time></trkpt><trkpt lat="44.780490292500296" lon="11.919037067629063"><ele>-1.6666666666666665</ele><time>2026-04-05T11:54:41.007Z</time></trkpt><trkpt lat="44.780409030461485" lon="11.919294132439076"><ele>-1.3333333333333333</ele><time>2026-04-05T11:54:42.007Z</time></trkpt><trkpt lat="44.780337465493965" lon="11.919537267608915"><ele>-1.0</ele><time>2026-04-05T11:54:43.007Z</time></trkpt><trkpt lat="44.78027187849988" lon="11.919775214250016"><ele>-1.0</ele><time>2026-04-05T11:54:44.007Z</time></trkpt><trkpt lat="44.78022248312236" lon="11.920010494066014"><ele>-1.0</ele><time>2026-04-05T11:54:45.007Z</time></trkpt><trkpt lat="44.78018607936617" lon="11.92025473625792"><ele>-1.0</ele><time>2026-04-05T11:54:46.007Z</time></trkpt><trkpt lat="44.780158674538015" lon="11.92050900027482"><ele>-1.0</ele><time>2026-04-05T11:54:47.007Z</time></trkpt><trkpt lat="44.780140218842256" lon="11.920760910361778"><ele>-1.0</ele><time>2026-04-05T11:54:48.007Z</time></trkpt><trkpt lat="44.78014205819086" lon="11.92101483662971"><ele>-1.0</ele><time>2026-04-05T11:54:49.007Z</time></trkpt><trkpt lat="44.78016284729967" lon="11.921266913442254"><ele>-0.6666666666666666</ele><time>2026-04-05T11:54:50.007Z</time></trkpt><trkpt lat="44.78020399076002" lon="11.921511720836042"><ele>-0.3333333333333333</ele><time>2026-04-05T11:54:51.007Z</time></trkpt><trkpt lat="44.780272015275116" lon="11.921761522532687"><ele>0.0</ele><time>2026-04-05T11:54:52.007Z</time></trkpt><trkpt lat="44.78035848987938" lon="11.922009744121993"><ele>0.0</ele><time>2026-04-05T11:54:53.007Z</time></trkpt><trkpt lat="44.78044906646332" lon="11.922264744823577"><ele>0.0</ele><time>2026-04-05T11:54:54.007Z</time></trkpt><trkpt lat="44.78054405693105" lon="11.92252564456441"><ele>0.0</ele><time>2026-04-05T11:54:55.007Z</time></trkpt><trkpt lat="44.78063248356897" lon="11.92277259739744"><ele>0.0</ele><time>2026-04-05T11:54:56.007Z</time></trkpt><trkpt lat="44.78071876298441" lon="11.923017603804755"><ele>0.0</ele><time>2026-04-05T11:54:57.007Z</time></trkpt><trkpt lat="44.780812961494476" lon="11.923257513564643"><ele>0.0</ele><time>2026-04-05T11:54:58.007Z</time></trkpt><trkpt lat="44.78089003624867" lon="11.923511655587513"><ele>-0.3333333333333333</ele><time>2026-04-05T11:54:59.007Z</time></trkpt><trkpt lat="44.780947640086985" lon="11.92378077973622"><ele>-0.6666666666666666</ele><time>2026-04-05T11:55:00.007Z</time></trkpt><trkpt lat="44.78096697269802" lon="11.92406411760885"><ele>-1.0</ele><time>2026-04-05T11:55:01.007Z</time></trkpt><trkpt lat="44.78098542076755" lon="11.924360563763187"><ele>-1.0</ele><time>2026-04-05T11:55:02.007Z</time></trkpt><trkpt lat="44.78099972957355" lon="11.924657753318538"><ele>-1.0</ele><time>2026-04-05T11:55:03.007Z</time></trkpt><trkpt lat="44.781013750897536" lon="11.924951720086751"><ele>-1.0</ele><time>2026-04-05T11:55:04.007Z</time></trkpt><trkpt lat="44.7810394855303" lon="11.925243039982004"><ele>-1.0</ele><time>2026-04-05T11:55:05.007Z</time></trkpt><trkpt lat="44.78104757786603" lon="11.925520419558302"><ele>-1.0</ele><time>2026-04-05T11:55:06.007Z</time></trkpt><trkpt lat="44.78105585148955" lon="11.925783768747303"><ele>-1.0</ele><time>2026-04-05T11:55:07.007Z</time></trkpt><trkpt lat="44.78105017980335" lon="11.926034026992435"><ele>-1.0</ele><time>2026-04-05T11:55:08.007Z</time></trkpt><trkpt lat="44.78102963266869" lon="11.92625740896249"><ele>-1.0</ele><time>2026-04-05T11:55:09.007Z</time></trkpt><trkpt lat="44.78098544542049" lon="11.926453474209989"><ele>-1.0</ele><time>2026-04-05T11:55:10.007Z</time></trkpt><trkpt lat="44.78089259606127" lon="11.926602963745355"><ele>-1.0</ele><time>2026-04-05T11:55:11.007Z</time></trkpt><trkpt lat="44.780776335364166" lon="11.926721027597422"><ele>-1.0</ele><time>2026-04-05T11:55:12.007Z</time></trkpt><trkpt lat="44.78063562928655" lon="11.92683191297035"><ele>-1.0</ele><time>2026-04-05T11:55:13.007Z</time></trkpt><trkpt lat="44.780477603854486" lon="11.926956882570614"><ele>-1.0</ele><time>2026-04-05T11:55:14.007Z</time></trkpt><trkpt lat="44.78031359564225" lon="11.927098775148803"><ele>-1.0</ele><time>2026-04-05T11:55:15.007Z</time></trkpt><trkpt lat="44.78013847853082" lon="11.927251574558"><ele>-1.0</ele><time>2026-04-05T11:55:16.007Z</time></trkpt><trkpt lat="44.779950684030545" lon="11.92740214957748"><ele>-1.0</ele><time>2026-04-05T11:55:17.007Z</time></trkpt><trkpt lat="44.77975275361645" lon="11.927561735344579"><ele>-1.0</ele><time>2026-04-05T11:55:18.007Z</time></trkpt><trkpt lat="44.77954619277324" lon="11.927722455650382"><ele>-1.0</ele><time>2026-04-05T11:55:19.007Z</time></trkpt><trkpt lat="44.77934624917968" lon="11.927884243204458"><ele>-1.0</ele><time>2026-04-05T11:55:20.007Z</time></trkpt><trkpt lat="44.77913354886366" lon="11.928074244394008"><ele>-1.0</ele><time>2026-04-05T11:55:21.007Z</time></trkpt><trkpt lat="44.778922094466346" lon="11.928248726019225"><ele>-1.5</ele><time>2026-04-05T11:55:22.007Z</time></trkpt><trkpt lat="44.778711771565916" lon="11.928424009101215"><ele>-2.0</ele><time>2026-04-05T11:55:23.007Z</time></trkpt><trkpt lat="44.77848942483333" lon="11.928586834201761"><ele>-2.0</ele><time>2026-04-05T11:55:24.007Z</time></trkpt><trkpt lat="44.778273347339955" lon="11.92876662483221"><ele>-2.0</ele><time>2026-04-05T11:55:25.007Z</time></trkpt><trkpt lat="44.778052734411936" lon="11.928947718818057"><ele>-2.0</ele><time>2026-04-05T11:55:26.007Z</time></trkpt><trkpt lat="44.777827203706025" lon="11.929133378390539"><ele>-2.0</ele><time>2026-04-05T11:55:27.007Z</time></trkpt><trkpt lat="44.77760576137741" lon="11.929316320840085"><ele>-2.0</ele><time>2026-04-05T11:55:28.007Z</time></trkpt><trkpt lat="44.77739608140304" lon="11.9294895459398"><ele>-2.0</ele><time>2026-04-05T11:55:29.007Z</time></trkpt><trkpt lat="44.77717919304209" lon="11.92966880380475"><ele>-2.0</ele><time>2026-04-05T11:55:30.007Z</time></trkpt><trkpt lat="44.776960582664266" lon="11.929850464154859"><ele>-2.0</ele><time>2026-04-05T11:55:31.007Z</time></trkpt><trkpt lat="44.77675111992452" lon="11.93002452303387"><ele>0.0</ele><time>2026-04-05T11:55:32.007Z</time></trkpt><trkpt lat="44.776547693439575" lon="11.93019356592235"><ele>2.0</ele><time>2026-04-05T11:55:33.007Z</time></trkpt><trkpt lat="44.77634594108188" lon="11.930361217627247"><ele>2.0</ele><time>2026-04-05T11:55:34.007Z</time></trkpt><trkpt lat="44.77614605458841" lon="11.930519323492447"><ele>2.0</ele><time>2026-04-05T11:55:35.007Z</time></trkpt><trkpt lat="44.77594880484996" lon="11.930677926829707"><ele>0.5</ele><time>2026-04-05T11:55:36.007Z</time></trkpt><trkpt lat="44.77575115917153" lon="11.930835945276188"><ele>-1.0</ele><time>2026-04-05T11:55:37.007Z</time></trkpt><trkpt lat="44.775557931300085" lon="11.930998700557089"><ele>-1.0</ele><time>2026-04-05T11:55:38.007Z</time></trkpt><trkpt lat="44.77536656325409" lon="11.931161157583468"><ele>-1.0</ele><time>2026-04-05T11:55:39.007Z</time></trkpt><trkpt lat="44.775174693001034" lon="11.931321806146741"><ele>-1.0</ele><time>2026-04-05T11:55:40.007Z</time></trkpt><trkpt lat="44.77497985723805" lon="11.931486419907634"><ele>-1.0</ele><time>2026-04-05T11:55:41.007Z</time></trkpt><trkpt lat="44.774788771966726" lon="11.931642839322382"><ele>-1.0</ele><time>2026-04-05T11:55:42.007Z</time></trkpt><trkpt lat="44.77460249804318" lon="11.93180880766023"><ele>-1.0</ele><time>2026-04-05T11:55:43.007Z</time></trkpt><trkpt lat="44.774424740347776" lon="11.93195945567529"><ele>0.0</ele><time>2026-04-05T11:55:44.007Z</time></trkpt><trkpt lat="44.774249908375836" lon="11.932102557665129"><ele>1.0</ele><time>2026-04-05T11:55:45.007Z</time></trkpt><trkpt lat="44.77408370179028" lon="11.932241958156252"><ele>2.0</ele><time>2026-04-05T11:55:46.007Z</time></trkpt><trkpt lat="44.77393150907932" lon="11.932369031461961"><ele>2.0</ele><time>2026-04-05T11:55:47.007Z</time></trkpt><trkpt lat="44.77378864260068" lon="11.93248229223419"><ele>2.0</ele><time>2026-04-05T11:55:48.007Z</time></trkpt><trkpt lat="44.7736613390798" lon="11.932591526053836"><ele>2.0</ele><time>2026-04-05T11:55:49.007Z</time></trkpt><trkpt lat="44.77354596822343" lon="11.932689159678326"><ele>2.0</ele><time>2026-04-05T11:55:50.007Z</time></trkpt><trkpt lat="44.77344302881933" lon="11.932771890056001"><ele>2.0</ele><time>2026-04-05T11:55:51.007Z</time></trkpt><trkpt lat="44.77335129570649" lon="11.932847893646128"><ele>2.0</ele><time>2026-04-05T11:55:52.007Z</time></trkpt><trkpt lat="44.77326422428216" lon="11.93293504901726"><ele>2.0</ele><time>2026-04-05T11:55:53.007Z</time></trkpt><trkpt lat="44.77319148397145" lon="11.933038030167875"><ele>2.0</ele><time>2026-04-05T11:55:54.007Z</time></trkpt><trkpt lat="44.773132893243535" lon="11.933158815439903"><ele>2.0</ele><time>2026-04-05T11:55:55.007Z</time></trkpt><trkpt lat="44.773107847368856" lon="11.933315386296442"><ele>1.75</ele><time>2026-04-05T11:55:56.007Z</time></trkpt><trkpt lat="44.77312422180682" lon="11.933468974777409"><ele>1.5</ele><time>2026-04-05T11:55:57.007Z</time></trkpt><trkpt lat="44.77315639746657" lon="11.933621689246703"><ele>1.25</ele><time>2026-04-05T11:55:58.007Z</time></trkpt><trkpt lat="44.77323883274552" lon="11.933821253086071"><ele>1.0</ele><time>2026-04-05T11:55:59.007Z</time></trkpt><trkpt lat="44.77334277746099" lon="11.934044875244538"><ele>1.3333333333333333</ele><time>2026-04-05T11:56:00.007Z</time></trkpt><trkpt lat="44.773457921754456" lon="11.934268378326331"><ele>1.6666666666666665</ele><time>2026-04-05T11:56:01.007Z</time></trkpt><trkpt lat="44.77357403118387" lon="11.934488549589691"><ele>2.0</ele><time>2026-04-05T11:56:02.007Z</time></trkpt><trkpt lat="44.77368716390392" lon="11.934709798819624"><ele>2.0</ele><time>2026-04-05T11:56:03.007Z</time></trkpt><trkpt lat="44.77379704899368" lon="11.934921352243222"><ele>2.0</ele><time>2026-04-05T11:56:04.007Z</time></trkpt><trkpt lat="44.77390970611982" lon="11.935129531243923"><ele>2.0</ele><time>2026-04-05T11:56:05.007Z</time></trkpt><trkpt lat="44.77401564251237" lon="11.9353309837872"><ele>2.333333333333333</ele><time>2026-04-05T11:56:06.007Z</time></trkpt><trkpt lat="44.774101958449315" lon="11.93553918069997"><ele>2.6666666666666665</ele><time>2026-04-05T11:56:07.007Z</time></trkpt><trkpt lat="44.77421381503784" lon="11.93572332371506"><ele>3.0</ele><time>2026-04-05T11:56:08.007Z</time></trkpt><trkpt lat="44.77431377441441" lon="11.935914732751213"><ele>2.6666666666666665</ele><time>2026-04-05T11:56:09.007Z</time></trkpt><trkpt lat="44.77440561082755" lon="11.936099831940945"><ele>2.333333333333333</ele><time>2026-04-05T11:56:10.007Z</time></trkpt><trkpt lat="44.774493032993846" lon="11.936279305702083"><ele>2.0</ele><time>2026-04-05T11:56:11.007Z</time></trkpt><trkpt lat="44.77456872812603" lon="11.936460916711242"><ele>2.0</ele><time>2026-04-05T11:56:12.007Z</time></trkpt><trkpt lat="44.77464397384989" lon="11.93661544738585"><ele>2.0</ele><time>2026-04-05T11:56:13.007Z</time></trkpt><trkpt lat="44.77471131773442" lon="11.936753750154397"><ele>2.0</ele><time>2026-04-05T11:56:14.007Z</time></trkpt><trkpt lat="44.774779587969405" lon="11.936893955554723"><ele>2.0</ele><time>2026-04-05T11:56:15.007Z</time></trkpt><trkpt lat="44.774851528879154" lon="11.937005721543736"><ele>1.9999999999999998</ele><time>2026-04-05T11:56:16.007Z</time></trkpt><trkpt lat="44.77488960949857" lon="11.93711813960067"><ele>2.0</ele><time>2026-04-05T11:56:17.007Z</time></trkpt><trkpt lat="44.77493291148912" lon="11.937218305319227"><ele>2.0</ele><time>2026-04-05T11:56:18.007Z</time></trkpt><trkpt lat="44.77496995612239" lon="11.93731724338101"><ele>2.0</ele><time>2026-04-05T11:56:19.007Z</time></trkpt><trkpt lat="44.77498697656829" lon="11.93742306077998"><ele>1.9999999999999998</ele><time>2026-04-05T11:56:20.007Z</time></trkpt><trkpt lat="44.77504419253394" lon="11.937556337893122"><ele>2.0</ele><time>2026-04-05T11:56:22.007Z</time></trkpt><trkpt lat="44.77489662237596" lon="11.93770918970236"><ele>2.0</ele><time>2026-04-05T11:56:23.008Z</time></trkpt><trkpt lat="44.774811353603596" lon="11.937784822198575"><ele>2.0</ele><time>2026-04-05T11:56:24.008Z</time></trkpt><trkpt lat="44.77469957575407" lon="11.937869464920022"><ele>2.0</ele><time>2026-04-05T11:56:25.008Z</time></trkpt><trkpt lat="44.77458547406238" lon="11.937960638095998"><ele>2.0</ele><time>2026-04-05T11:56:26.008Z</time></trkpt><trkpt lat="44.77446984655948" lon="11.93805361645881"><ele>2.25</ele><time>2026-04-05T11:56:27.008Z</time></trkpt><trkpt lat="44.77435255525013" lon="11.938156103409197"><ele>2.5</ele><time>2026-04-05T11:56:28.008Z</time></trkpt><trkpt lat="44.77424162046983" lon="11.938259851095255"><ele>2.75</ele><time>2026-04-05T11:56:29.008Z</time></trkpt><trkpt lat="44.77414384942913" lon="11.938349124062704"><ele>3.0</ele><time>2026-04-05T11:56:30.008Z</time></trkpt><trkpt lat="44.77405619320099" lon="11.938426870860972"><ele>3.3333333333333335</ele><time>2026-04-05T11:56:31.008Z</time></trkpt><trkpt lat="44.77397729589349" lon="11.938492003768507"><ele>3.666666666666667</ele><time>2026-04-05T11:56:32.008Z</time></trkpt><trkpt lat="44.77391251841613" lon="11.938525250496435"><ele>4.0</ele><time>2026-04-05T11:56:33.008Z</time></trkpt><trkpt lat="44.77385226668007" lon="11.938562137132966"><ele>4.333333333333334</ele><time>2026-04-05T11:56:34.008Z</time></trkpt><trkpt lat="44.773788237068466" lon="11.93855142655909"><ele>4.666666666666667</ele><time>2026-04-05T11:56:35.008Z</time></trkpt><trkpt lat="44.77372333969138" lon="11.938508250959437"><ele>5.0</ele><time>2026-04-05T11:56:36.008Z</time></trkpt><trkpt lat="44.773650062334795" lon="11.938418254444825"><ele>4.75</ele><time>2026-04-05T11:56:37.008Z</time></trkpt><trkpt lat="44.773569150810154" lon="11.938297091291108"><ele>4.5</ele><time>2026-04-05T11:56:38.008Z</time></trkpt><trkpt lat="44.77350469792232" lon="11.938141027178599"><ele>4.25</ele><time>2026-04-05T11:56:39.008Z</time></trkpt><trkpt lat="44.77342728631567" lon="11.937955233033444"><ele>4.0</ele><time>2026-04-05T11:56:40.008Z</time></trkpt><trkpt lat="44.77334418487633" lon="11.937788260666991"><ele>4.0</ele><time>2026-04-05T11:56:41.008Z</time></trkpt><trkpt lat="44.773260361783784" lon="11.937602306256446"><ele>4.0</ele><time>2026-04-05T11:56:42.008Z</time></trkpt><trkpt lat="44.773177408413886" lon="11.937420134634449"><ele>4.0</ele><time>2026-04-05T11:56:43.008Z</time></trkpt><trkpt lat="44.7730827821355" lon="11.937236675519019"><ele>4.0</ele><time>2026-04-05T11:56:44.008Z</time></trkpt><trkpt lat="44.77299338694938" lon="11.937036464685225"><ele>4.0</ele><time>2026-04-05T11:56:45.008Z</time></trkpt><trkpt lat="44.77292248290247" lon="11.936847700078365"><ele>4.0</ele><time>2026-04-05T11:56:46.008Z</time></trkpt><trkpt lat="44.77285536933263" lon="11.936662412189854"><ele>4.0</ele><time>2026-04-05T11:56:47.008Z</time></trkpt><trkpt lat="44.77281969595569" lon="11.93646526445098"><ele>4.0</ele><time>2026-04-05T11:56:48.008Z</time></trkpt><trkpt lat="44.77277684275943" lon="11.936289529380396"><ele>4.0</ele><time>2026-04-05T11:56:49.008Z</time></trkpt><trkpt lat="44.772738354692066" lon="11.93612473206054"><ele>4.0</ele><time>2026-04-05T11:56:50.008Z</time></trkpt><trkpt lat="44.77267431024481" lon="11.935960707971724"><ele>3.75</ele><time>2026-04-05T11:56:51.008Z</time></trkpt><trkpt lat="44.77261889301441" lon="11.935791514161677"><ele>3.5</ele><time>2026-04-05T11:56:52.008Z</time></trkpt><trkpt lat="44.77256343041478" lon="11.935629245430883"><ele>3.25</ele><time>2026-04-05T11:56:53.008Z</time></trkpt><trkpt lat="44.77251821601286" lon="11.935466646239487"><ele>3.0</ele><time>2026-04-05T11:56:54.008Z</time></trkpt><trkpt lat="44.77247843037951" lon="11.935294417232532"><ele>3.0</ele><time>2026-04-05T11:56:55.008Z</time></trkpt><trkpt lat="44.77241362773898" lon="11.935113801989738"><ele>3.0</ele><time>2026-04-05T11:56:56.008Z</time></trkpt><trkpt lat="44.772352782065425" lon="11.93493722860953"><ele>3.0</ele><time>2026-04-05T11:56:57.008Z</time></trkpt><trkpt lat="44.77229526596442" lon="11.934766388482535"><ele>3.0</ele><time>2026-04-05T11:56:58.008Z</time></trkpt><trkpt lat="44.77224767043447" lon="11.934610569249163"><ele>3.0</ele><time>2026-04-05T11:56:59.008Z</time></trkpt><trkpt lat="44.77219464943002" lon="11.934474986193923"><ele>3.0</ele><time>2026-04-05T11:57:00.008Z</time></trkpt><trkpt lat="44.77214859114915" lon="11.934336171643226"><ele>3.0</ele><time>2026-04-05T11:57:01.008Z</time></trkpt><trkpt lat="44.77209141687111" lon="11.934217283072535"><ele>3.0</ele><time>2026-04-05T11:57:02.008Z</time></trkpt><trkpt lat="44.77206387914084" lon="11.934091929367868"><ele>3.0</ele><time>2026-04-05T11:57:03.008Z</time></trkpt><trkpt lat="44.77202654182277" lon="11.933982694083912"><ele>3.0</ele><time>2026-04-05T11:57:04.008Z</time></trkpt><trkpt lat="44.77198718782047" lon="11.933893626683773"><ele>3.0</ele><time>2026-04-05T11:57:05.008Z</time></trkpt><trkpt lat="44.77193988078021" lon="11.933784295300063"><ele>3.0</ele><time>2026-04-05T11:57:07.008Z</time></trkpt><trkpt lat="44.771886224939294" lon="11.933660756372287"><ele>3.0</ele><time>2026-04-05T11:57:09.008Z</time></trkpt><trkpt lat="44.771847340583406" lon="11.933572350975826"><ele>3.0</ele><time>2026-04-05T11:57:10.008Z</time></trkpt><trkpt lat="44.771810302060786" lon="11.933482988734443"><ele>3.0</ele><time>2026-04-05T11:57:11.008Z</time></trkpt><trkpt lat="44.77178221909124" lon="11.933385270887944"><ele>3.0</ele><time>2026-04-05T11:57:12.008Z</time></trkpt><trkpt lat="44.77175240632265" lon="11.933278722383442"><ele>3.0</ele><time>2026-04-05T11:57:13.008Z</time></trkpt><trkpt lat="44.77171049709336" lon="11.93317394280235"><ele>3.0</ele><time>2026-04-05T11:57:14.008Z</time></trkpt><trkpt lat="44.77167177297471" lon="11.933065133420989"><ele>3.0</ele><time>2026-04-05T11:57:15.008Z</time></trkpt><trkpt lat="44.77163095671701" lon="11.932960475527253"><ele>3.0</ele><time>2026-04-05T11:57:16.008Z</time></trkpt><trkpt lat="44.771588557286115" lon="11.932839793686341"><ele>3.0</ele><time>2026-04-05T11:57:17.008Z</time></trkpt><trkpt lat="44.771539887630354" lon="11.932711700442736"><ele>3.0</ele><time>2026-04-05T11:57:18.008Z</time></trkpt><trkpt lat="44.77148720098811" lon="11.932583877707344"><ele>3.0</ele><time>2026-04-05T11:57:19.008Z</time></trkpt><trkpt lat="44.77144911941757" lon="11.932458492082471"><ele>3.0</ele><time>2026-04-05T11:57:20.008Z</time></trkpt><trkpt lat="44.77140949628771" lon="11.932342045239736"><ele>3.0</ele><time>2026-04-05T11:57:21.008Z</time></trkpt><trkpt lat="44.77137594354546" lon="11.932231926187757"><ele>3.0</ele><time>2026-04-05T11:57:22.008Z</time></trkpt><trkpt lat="44.771335848066954" lon="11.932131100078617"><ele>3.1428571428571423</ele><time>2026-04-05T11:57:23.008Z</time></trkpt><trkpt lat="44.77129673516126" lon="11.932033446578563"><ele>3.2857142857142856</ele><time>2026-04-05T11:57:24.008Z</time></trkpt><trkpt lat="44.771267190846196" lon="11.931939246301031"><ele>3.4285714285714284</ele><time>2026-04-05T11:57:25.008Z</time></trkpt><trkpt lat="44.771239525167715" lon="11.93184648496077"><ele>3.571428571428571</ele><time>2026-04-05T11:57:26.008Z</time></trkpt><trkpt lat="44.77121424866279" lon="11.931751253592685"><ele>3.714285714285714</ele><time>2026-04-05T11:57:27.008Z</time></trkpt><trkpt lat="44.77118413486801" lon="11.931654713495309"><ele>3.8571428571428568</ele><time>2026-04-05T11:57:28.008Z</time></trkpt><trkpt lat="44.77116685751406" lon="11.931554969433256"><ele>4.0</ele><time>2026-04-05T11:57:29.008Z</time></trkpt><trkpt lat="44.771129873406586" lon="11.931434436903304"><ele>4.0</ele><time>2026-04-05T11:57:31.008Z</time></trkpt><trkpt lat="44.77104714777024" lon="11.9314257145241"><ele>4.0</ele><time>2026-04-05T11:57:34.008Z</time></trkpt><trkpt lat="44.770945028364004" lon="11.931476100052887"><ele>4.0</ele><time>2026-04-05T11:57:36.008Z</time></trkpt><trkpt lat="44.770878357725046" lon="11.931504270244348"><ele>4.0</ele><time>2026-04-05T11:57:37.008Z</time></trkpt><trkpt lat="44.77078175875015" lon="11.931517980668621"><ele>4.0</ele><time>2026-04-05T11:57:38.008Z</time></trkpt><trkpt lat="44.770675744279856" lon="11.931489226868818"><ele>4.0</ele><time>2026-04-05T11:57:39.008Z</time></trkpt><trkpt lat="44.770577963355045" lon="11.931435326714508"><ele>4.0</ele><time>2026-04-05T11:57:40.008Z</time></trkpt><trkpt lat="44.77045530931136" lon="11.9314056720393"><ele>4.0</ele><time>2026-04-05T11:57:41.008Z</time></trkpt><trkpt lat="44.77034884392763" lon="11.931387358629696"><ele>4.0</ele><time>2026-04-05T11:57:42.008Z</time></trkpt><trkpt lat="44.770238793518836" lon="11.93134221809681"><ele>3.6</ele><time>2026-04-05T11:57:43.008Z</time></trkpt><trkpt lat="44.77013219044854" lon="11.931317784551064"><ele>3.2</ele><time>2026-04-05T11:57:44.008Z</time></trkpt><trkpt lat="44.77003141193047" lon="11.931285853013222"><ele>2.8000000000000003</ele><time>2026-04-05T11:57:45.008Z</time></trkpt><trkpt lat="44.769924995437385" lon="11.931258800260004"><ele>2.4000000000000004</ele><time>2026-04-05T11:57:46.008Z</time></trkpt><trkpt lat="44.76980664852839" lon="11.931224866572542"><ele>2.0</ele><time>2026-04-05T11:57:47.008Z</time></trkpt><trkpt lat="44.76968787692964" lon="11.931187976755258"><ele>2.0</ele><time>2026-04-05T11:57:48.008Z</time></trkpt><trkpt lat="44.76956176312947" lon="11.931160811801481"><ele>2.0</ele><time>2026-04-05T11:57:49.008Z</time></trkpt><trkpt lat="44.769423061072715" lon="11.931137045932243"><ele>2.0</ele><time>2026-04-05T11:57:50.008Z</time></trkpt><trkpt lat="44.7692968103064" lon="11.931083758542309"><ele>2.0</ele><time>2026-04-05T11:57:51.008Z</time></trkpt><trkpt lat="44.76917649142869" lon="11.931027236461018"><ele>1.75</ele><time>2026-04-05T11:57:52.008Z</time></trkpt><trkpt lat="44.76905722023208" lon="11.930979064724152"><ele>1.5</ele><time>2026-04-05T11:57:53.008Z</time></trkpt><trkpt lat="44.76895109514732" lon="11.930919296910753"><ele>1.25</ele><time>2026-04-05T11:57:54.008Z</time></trkpt><trkpt lat="44.768831147861775" lon="11.930807054246076"><ele>1.0</ele><time>2026-04-05T11:57:55.008Z</time></trkpt><trkpt lat="44.76872665914056" lon="11.930711194457688"><ele>1.0</ele><time>2026-04-05T11:57:56.008Z</time></trkpt><trkpt lat="44.768623838114" lon="11.930599405409298"><ele>1.0</ele><time>2026-04-05T11:57:57.008Z</time></trkpt><trkpt lat="44.768525196990744" lon="11.930514766699767"><ele>1.0</ele><time>2026-04-05T11:57:58.008Z</time></trkpt><trkpt lat="44.76842817650643" lon="11.930427282283407"><ele>1.0</ele><time>2026-04-05T11:57:59.008Z</time></trkpt><trkpt lat="44.76832425080586" lon="11.930340145402711"><ele>1.2000000000000002</ele><time>2026-04-05T11:58:00.008Z</time></trkpt><trkpt lat="44.76822984783914" lon="11.930247933538512"><ele>1.4000000000000001</ele><time>2026-04-05T11:58:01.008Z</time></trkpt><trkpt lat="44.76816176976264" lon="11.930143609174662"><ele>1.6</ele><time>2026-04-05T11:58:02.008Z</time></trkpt><trkpt lat="44.76810958856625" lon="11.930009439514313"><ele>1.8</ele><time>2026-04-05T11:58:03.008Z</time></trkpt><trkpt lat="44.76806084785446" lon="11.929870577173018"><ele>2.0</ele><time>2026-04-05T11:58:04.008Z</time></trkpt><trkpt lat="44.768007751999775" lon="11.929739964757232"><ele>2.0</ele><time>2026-04-05T11:58:05.008Z</time></trkpt><trkpt lat="44.7679369131731" lon="11.929629835395163"><ele>2.0</ele><time>2026-04-05T11:58:06.008Z</time></trkpt><trkpt lat="44.76784447809728" lon="11.92954781390768"><ele>2.0</ele><time>2026-04-05T11:58:07.008Z</time></trkpt><trkpt lat="44.76773761328801" lon="11.92948232019801"><ele>2.0</ele><time>2026-04-05T11:58:08.008Z</time></trkpt><trkpt lat="44.767626381089684" lon="11.929442519394968"><ele>2.0</ele><time>2026-04-05T11:58:09.008Z</time></trkpt><trkpt lat="44.767517426114715" lon="11.9293909998516"><ele>2.0</ele><time>2026-04-05T11:58:10.023Z</time></trkpt><trkpt lat="44.76741360016715" lon="11.929358593570038"><ele>2.0</ele><time>2026-04-05T11:58:11.023Z</time></trkpt><trkpt lat="44.767330000412706" lon="11.929323232748015"><ele>2.0</ele><time>2026-04-05T11:58:12.023Z</time></trkpt><trkpt lat="44.76725736009582" lon="11.929288367236829"><ele>2.0</ele><time>2026-04-05T11:58:13.023Z</time></trkpt><trkpt lat="44.76719727290127" lon="11.929257671109537"><ele>2.0</ele><time>2026-04-05T11:58:14.023Z</time></trkpt><trkpt lat="44.76710196050535" lon="11.929164772890433"><ele>1.9999999999999998</ele><time>2026-04-05T11:58:16.023Z</time></trkpt><trkpt lat="44.767084760442444" lon="11.929044494858521"><ele>2.0</ele><time>2026-04-05T11:58:18.023Z</time></trkpt><trkpt lat="44.76711225467681" lon="11.928958728375626"><ele>2.0</ele><time>2026-04-05T11:58:19.023Z</time></trkpt><trkpt lat="44.76713916925864" lon="11.928873017577375"><ele>2.0</ele><time>2026-04-05T11:58:20.023Z</time></trkpt><trkpt lat="44.76716882058695" lon="11.92877325358733"><ele>1.9999999999999998</ele><time>2026-04-05T11:58:21.023Z</time></trkpt><trkpt lat="44.76720919744917" lon="11.928646965943237"><ele>2.0</ele><time>2026-04-05T11:58:23.023Z</time></trkpt><trkpt lat="44.76729625926657" lon="11.928581886957573"><ele>1.9999999999999998</ele><time>2026-04-05T11:58:25.023Z</time></trkpt><trkpt lat="44.76738470635731" lon="11.928621483796382"><ele>2.0</ele><time>2026-04-05T11:58:27.023Z</time></trkpt><trkpt lat="44.76746855295565" lon="11.928660464468798"><ele>2.0</ele><time>2026-04-05T11:58:29.023Z</time></trkpt><trkpt lat="44.76754744165384" lon="11.928702764847959"><ele>2.0</ele><time>2026-04-05T11:58:31.023Z</time></trkpt><trkpt lat="44.767617024816396" lon="11.928737394485655"><ele>1.9999999999999998</ele><time>2026-04-05T11:58:33.023Z</time></trkpt><trkpt lat="44.767678722045886" lon="11.928764474155615"><ele>2.0</ele><time>2026-04-05T11:59:29.025Z</time></trkpt><trkpt lat="44.76766360464525" lon="11.928853611553176"><ele>2.0</ele><time>2026-04-05T11:59:56.025Z</time></trkpt><trkpt lat="44.76768394584021" lon="11.928939314312556"><ele>2.0</ele><time>2026-04-05T12:00:04.025Z</time></trkpt><trkpt lat="44.767619887965225" lon="11.92877600247166"><ele>2.0</ele><time>2026-04-05T12:00:28.599Z</time></trkpt><trkpt lat="44.767667877129455" lon="11.928919900440736"><ele>2.0</ele><time>2026-04-05T12:00:53.17Z</time></trkpt><trkpt lat="44.76757324450511" lon="11.92877692348971"><ele>2.0</ele><time>2026-04-05T12:01:27.026Z</time></trkpt><trkpt lat="44.7676459464166" lon="11.928767981769361"><ele>2.0</ele><time>2026-04-05T12:01:48.028Z</time></trkpt><trkpt lat="44.76782910478586" lon="11.928731431069705"><ele>2.0</ele><time>2026-04-05T12:04:54.03Z</time></trkpt><trkpt lat="44.767911310084116" lon="11.928787747041879"><ele>2.0</ele><time>2026-04-05T12:04:55.03Z</time></trkpt><trkpt lat="44.76799970769582" lon="11.928819851367052"><ele>2.0</ele><time>2026-04-05T12:04:56.03Z</time></trkpt><trkpt lat="44.76807004249584" lon="11.9289300399233"><ele>1.9999999999999998</ele><time>2026-04-05T12:04:57.03Z</time></trkpt><trkpt lat="44.76816269748037" lon="11.92897433062792"><ele>2.0</ele><time>2026-04-05T12:04:58.03Z</time></trkpt><trkpt lat="44.768254892231255" lon="11.929018401338267"><ele>2.0</ele><time>2026-04-05T12:04:59.03Z</time></trkpt><trkpt lat="44.76835676923034" lon="11.929044422555414"><ele>2.0</ele><time>2026-04-05T12:05:00.03Z</time></trkpt><trkpt lat="44.76842522530037" lon="11.92909982353032"><ele>1.9999999999999998</ele><time>2026-04-05T12:05:01.03Z</time></trkpt><trkpt lat="44.76848845771636" lon="11.929107701676708"><ele>2.0</ele><time>2026-04-05T12:05:02.03Z</time></trkpt><trkpt lat="44.7685500370982" lon="11.929158651300433"><ele>2.0</ele><time>2026-04-05T12:05:04.03Z</time></trkpt><trkpt lat="44.768538024407206" lon="11.929376297556164"><ele>2.0</ele><time>2026-04-05T12:05:07.03Z</time></trkpt><trkpt lat="44.76851248147425" lon="11.92946480923193"><ele>2.0</ele><time>2026-04-05T12:05:08.03Z</time></trkpt><trkpt lat="44.768459880286" lon="11.929634104440403"><ele>2.0</ele><time>2026-04-05T12:05:10.03Z</time></trkpt><trkpt lat="44.768436366838806" lon="11.929753727284112"><ele>2.0</ele><time>2026-04-05T12:05:12.03Z</time></trkpt><trkpt lat="44.76827230804333" lon="11.929729129736014"><ele>1.9999999999999998</ele><time>2026-04-05T12:05:16.03Z</time></trkpt><trkpt lat="44.768216389234524" lon="11.929684804373535"><ele>2.0</ele><time>2026-04-05T12:05:17.03Z</time></trkpt><trkpt lat="44.7681552603267" lon="11.929642348431594"><ele>2.0</ele><time>2026-04-05T12:05:18.03Z</time></trkpt><trkpt lat="44.768054712207274" lon="11.929579941170392"><ele>2.0</ele><time>2026-04-05T12:05:20.03Z</time></trkpt><trkpt lat="44.76798874791134" lon="11.92958417316392"><ele>1.9999999999999998</ele><time>2026-04-05T12:05:21.03Z</time></trkpt><trkpt lat="44.76791206255878" lon="11.929583261619713"><ele>2.0</ele><time>2026-04-05T12:05:22.03Z</time></trkpt><trkpt lat="44.76779765710146" lon="11.929495799020058"><ele>2.2</ele><time>2026-04-05T12:05:23.03Z</time></trkpt><trkpt lat="44.76768792070565" lon="11.929430315879026"><ele>2.4000000000000004</ele><time>2026-04-05T12:05:24.03Z</time></trkpt><trkpt lat="44.76758774410604" lon="11.929374665237946"><ele>2.5999999999999996</ele><time>2026-04-05T12:05:25.03Z</time></trkpt><trkpt lat="44.76749648411059" lon="11.929351284228987"><ele>2.8</ele><time>2026-04-05T12:05:26.03Z</time></trkpt><trkpt lat="44.7673813114756" lon="11.929293399742518"><ele>3.0</ele><time>2026-04-05T12:05:28.03Z</time></trkpt><trkpt lat="44.76728775939362" lon="11.929312935769156"><ele>3.0</ele><time>2026-04-05T12:05:31.03Z</time></trkpt><trkpt lat="44.76721750206168" lon="11.929299714168002"><ele>3.0</ele><time>2026-04-05T12:05:32.03Z</time></trkpt><trkpt lat="44.76711272646711" lon="11.929268693767705"><ele>3.0</ele><time>2026-04-05T12:05:33.03Z</time></trkpt><trkpt lat="44.76698152112679" lon="11.929198995734183"><ele>3.0</ele><time>2026-04-05T12:05:34.03Z</time></trkpt><trkpt lat="44.76684546483156" lon="11.929122370821053"><ele>2.75</ele><time>2026-04-05T12:05:35.03Z</time></trkpt><trkpt lat="44.76673677287033" lon="11.929062004449195"><ele>2.5</ele><time>2026-04-05T12:05:36.03Z</time></trkpt><trkpt lat="44.76663725257902" lon="11.929010455332627"><ele>2.25</ele><time>2026-04-05T12:05:37.03Z</time></trkpt><trkpt lat="44.766522981570894" lon="11.928945434697798"><ele>2.0</ele><time>2026-04-05T12:05:38.03Z</time></trkpt><trkpt lat="44.76638601779724" lon="11.928871742347225"><ele>2.0</ele><time>2026-04-05T12:05:39.03Z</time></trkpt><trkpt lat="44.76623200689664" lon="11.928783949281693"><ele>2.0</ele><time>2026-04-05T12:05:40.03Z</time></trkpt><trkpt lat="44.766069358366515" lon="11.928695233845419"><ele>2.0</ele><time>2026-04-05T12:05:41.03Z</time></trkpt><trkpt lat="44.76590482412967" lon="11.928613664983285"><ele>1.6666666666666665</ele><time>2026-04-05T12:05:42.03Z</time></trkpt><trkpt lat="44.765746224793645" lon="11.928538523950145"><ele>1.3333333333333333</ele><time>2026-04-05T12:05:43.031Z</time></trkpt><trkpt lat="44.76559564082327" lon="11.928472711782833"><ele>1.0</ele><time>2026-04-05T12:05:44.031Z</time></trkpt><trkpt lat="44.76545464189764" lon="11.928404590987475"><ele>1.0</ele><time>2026-04-05T12:05:45.032Z</time></trkpt><trkpt lat="44.76533101578773" lon="11.928339528238977"><ele>1.0</ele><time>2026-04-05T12:05:46.032Z</time></trkpt><trkpt lat="44.76522892567247" lon="11.92828415829595"><ele>1.0</ele><time>2026-04-05T12:05:47.032Z</time></trkpt><trkpt lat="44.765139444280905" lon="11.928248609798963"><ele>1.0</ele><time>2026-04-05T12:05:48.033Z</time></trkpt><trkpt lat="44.76506435138452" lon="11.928218233213851"><ele>1.0</ele><time>2026-04-05T12:05:49.032Z</time></trkpt><trkpt lat="44.76500464702746" lon="11.928177177999181"><ele>1.0</ele><time>2026-04-05T12:05:50.032Z</time></trkpt><trkpt lat="44.76486738995012" lon="11.92811645873211"><ele>1.0</ele><time>2026-04-05T12:05:52.032Z</time></trkpt><trkpt lat="44.764759302189184" lon="11.92808102120853"><ele>1.0</ele><time>2026-04-05T12:05:53.032Z</time></trkpt><trkpt lat="44.76463853835111" lon="11.928030883051129"><ele>1.0</ele><time>2026-04-05T12:05:54.032Z</time></trkpt><trkpt lat="44.764520223335396" lon="11.927971566929262"><ele>1.0</ele><time>2026-04-05T12:05:55.033Z</time></trkpt><trkpt lat="44.76439876097584" lon="11.92790327409984"><ele>1.0</ele><time>2026-04-05T12:05:56.033Z</time></trkpt><trkpt lat="44.76427312806262" lon="11.927840710497984"><ele>1.0</ele><time>2026-04-05T12:05:57.033Z</time></trkpt><trkpt lat="44.76414122402985" lon="11.927787498078727"><ele>1.0</ele><time>2026-04-05T12:05:58.033Z</time></trkpt><trkpt lat="44.76400870455295" lon="11.927717598496367"><ele>1.0</ele><time>2026-04-05T12:05:59.033Z</time></trkpt><trkpt lat="44.76386613763072" lon="11.927662604926784"><ele>1.0</ele><time>2026-04-05T12:06:00.033Z</time></trkpt><trkpt lat="44.76372452191771" lon="11.927604596250326"><ele>1.0</ele><time>2026-04-05T12:06:01.033Z</time></trkpt><trkpt lat="44.763611320358805" lon="11.927553960615986"><ele>1.0</ele><time>2026-04-05T12:06:02.033Z</time></trkpt><trkpt lat="44.76349712428634" lon="11.92750834259607"><ele>1.25</ele><time>2026-04-05T12:06:03.033Z</time></trkpt><trkpt lat="44.76336450031904" lon="11.927452628781586"><ele>1.5</ele><time>2026-04-05T12:06:04.033Z</time></trkpt><trkpt lat="44.76322393582976" lon="11.927396590018796"><ele>1.75</ele><time>2026-04-05T12:06:05.033Z</time></trkpt><trkpt lat="44.76307190543866" lon="11.927341144788604"><ele>2.0</ele><time>2026-04-05T12:06:06.033Z</time></trkpt><trkpt lat="44.76291094228231" lon="11.927272074071025"><ele>2.0</ele><time>2026-04-05T12:06:07.033Z</time></trkpt><trkpt lat="44.76275190016335" lon="11.927215560483656"><ele>2.0</ele><time>2026-04-05T12:06:08.033Z</time></trkpt><trkpt lat="44.762598642971646" lon="11.927163285871027"><ele>2.0</ele><time>2026-04-05T12:06:09.033Z</time></trkpt><trkpt lat="44.7624614672721" lon="11.92711414037954"><ele>1.25</ele><time>2026-04-05T12:06:10.033Z</time></trkpt><trkpt lat="44.76234555923478" lon="11.927068969881558"><ele>0.5</ele><time>2026-04-05T12:06:11.033Z</time></trkpt><trkpt lat="44.76223582578698" lon="11.927039430130657"><ele>-0.25</ele><time>2026-04-05T12:06:12.033Z</time></trkpt><trkpt lat="44.762118904522026" lon="11.927025896963066"><ele>-1.0</ele><time>2026-04-05T12:06:13.033Z</time></trkpt><trkpt lat="44.76199163470273" lon="11.92703817109206"><ele>-1.0</ele><time>2026-04-05T12:06:14.033Z</time></trkpt><trkpt lat="44.76186627935922" lon="11.927104064329914"><ele>-1.0</ele><time>2026-04-05T12:06:15.033Z</time></trkpt><trkpt lat="44.76173656073248" lon="11.9271999457231"><ele>-1.0</ele><time>2026-04-05T12:06:16.033Z</time></trkpt><trkpt lat="44.761621242036135" lon="11.927281338741453"><ele>-1.0</ele><time>2026-04-05T12:06:17.033Z</time></trkpt><trkpt lat="44.761517296856994" lon="11.927344189456324"><ele>-1.1666666666666665</ele><time>2026-04-05T12:06:18.033Z</time></trkpt><trkpt lat="44.7614411894667" lon="11.927383767798679"><ele>-1.3333333333333333</ele><time>2026-04-05T12:06:19.033Z</time></trkpt><trkpt lat="44.76137108397735" lon="11.927404919966044"><ele>-1.5</ele><time>2026-04-05T12:06:20.033Z</time></trkpt><trkpt lat="44.76129841647489" lon="11.927398189732084"><ele>-1.6666666666666665</ele><time>2026-04-05T12:06:21.033Z</time></trkpt><trkpt lat="44.76121669239209" lon="11.927382003452966"><ele>-1.8333333333333333</ele><time>2026-04-05T12:06:22.033Z</time></trkpt><trkpt lat="44.76115861548774" lon="11.927297621444183"><ele>-2.0</ele><time>2026-04-05T12:06:23.033Z</time></trkpt><trkpt lat="44.76107933707369" lon="11.92718354004552"><ele>-2.5</ele><time>2026-04-05T12:06:24.033Z</time></trkpt><trkpt lat="44.76101103844507" lon="11.927063967363138"><ele>-3.0</ele><time>2026-04-05T12:06:25.033Z</time></trkpt><trkpt lat="44.76094729620586" lon="11.92687971994883"><ele>-3.5</ele><time>2026-04-05T12:06:26.033Z</time></trkpt><trkpt lat="44.760889293009676" lon="11.926651113535952"><ele>-4.0</ele><time>2026-04-05T12:06:27.033Z</time></trkpt><trkpt lat="44.7608229805608" lon="11.926418047674153"><ele>-2.6666666666666665</ele><time>2026-04-05T12:06:28.033Z</time></trkpt><trkpt lat="44.760745578394854" lon="11.9261780643497"><ele>-1.3333333333333333</ele><time>2026-04-05T12:06:29.033Z</time></trkpt><trkpt lat="44.76065826710491" lon="11.925935488581521"><ele>0.0</ele><time>2026-04-05T12:06:30.033Z</time></trkpt><trkpt lat="44.760571332805476" lon="11.925685356129248"><ele>0.0</ele><time>2026-04-05T12:06:31.033Z</time></trkpt><trkpt lat="44.76046838376362" lon="11.925420188674956"><ele>0.0</ele><time>2026-04-05T12:06:32.033Z</time></trkpt><trkpt lat="44.7603888346671" lon="11.925144597152942"><ele>0.0</ele><time>2026-04-05T12:06:33.033Z</time></trkpt><trkpt lat="44.76031161119244" lon="11.924854624899645"><ele>0.0</ele><time>2026-04-05T12:06:34.033Z</time></trkpt><trkpt lat="44.7602286332481" lon="11.924563590908793"><ele>0.0</ele><time>2026-04-05T12:06:35.033Z</time></trkpt><trkpt lat="44.760135941890795" lon="11.924266733593063"><ele>1.0</ele><time>2026-04-05T12:06:36.033Z</time></trkpt><trkpt lat="44.76004872733483" lon="11.923970794969879"><ele>2.0</ele><time>2026-04-05T12:06:37.033Z</time></trkpt><trkpt lat="44.7599584755738" lon="11.923667216403269"><ele>2.5</ele><time>2026-04-05T12:06:38.033Z</time></trkpt><trkpt lat="44.75985800154179" lon="11.923360211456659"><ele>3.0</ele><time>2026-04-05T12:06:39.033Z</time></trkpt><trkpt lat="44.75976939532958" lon="11.923046351114811"><ele>3.0</ele><time>2026-04-05T12:06:40.033Z</time></trkpt><trkpt lat="44.75967855761985" lon="11.922740801728596"><ele>3.0</ele><time>2026-04-05T12:06:41.033Z</time></trkpt><trkpt lat="44.75959874077801" lon="11.922423567469352"><ele>1.5</ele><time>2026-04-05T12:06:42.033Z</time></trkpt><trkpt lat="44.759516443395626" lon="11.922109032326595"><ele>0.0</ele><time>2026-04-05T12:06:43.033Z</time></trkpt><trkpt lat="44.75943761010807" lon="11.921791714608014"><ele>-1.0</ele><time>2026-04-05T12:06:44.033Z</time></trkpt><trkpt lat="44.75934382466444" lon="11.921473462453433"><ele>-2.0</ele><time>2026-04-05T12:06:45.033Z</time></trkpt><trkpt lat="44.75925031868562" lon="11.921164616177172"><ele>-1.0</ele><time>2026-04-05T12:06:46.033Z</time></trkpt><trkpt lat="44.75916688974326" lon="11.920875809485633"><ele>0.0</ele><time>2026-04-05T12:06:47.033Z</time></trkpt><trkpt lat="44.75908845113481" lon="11.920613111853626"><ele>1.0</ele><time>2026-04-05T12:06:48.033Z</time></trkpt><trkpt lat="44.75901743760984" lon="11.920362948050556"><ele>1.0</ele><time>2026-04-05T12:06:49.033Z</time></trkpt><trkpt lat="44.75893214797805" lon="11.920128733605303"><ele>1.0</ele><time>2026-04-05T12:06:50.033Z</time></trkpt><trkpt lat="44.75883361749727" lon="11.919903763098144"><ele>1.0</ele><time>2026-04-05T12:06:51.033Z</time></trkpt><trkpt lat="44.75871503556568" lon="11.919686643534774"><ele>1.0</ele><time>2026-04-05T12:06:52.033Z</time></trkpt><trkpt lat="44.75857461822774" lon="11.919460386373022"><ele>1.0</ele><time>2026-04-05T12:06:53.033Z</time></trkpt><trkpt lat="44.75842798633834" lon="11.919269378547366"><ele>1.0</ele><time>2026-04-05T12:06:54.033Z</time></trkpt><trkpt lat="44.758264660486866" lon="11.919081721537477"><ele>1.0</ele><time>2026-04-05T12:06:55.033Z</time></trkpt><trkpt lat="44.75809153577428" lon="11.91890351803021"><ele>1.0</ele><time>2026-04-05T12:06:56.033Z</time></trkpt><trkpt lat="44.75792842653149" lon="11.918734221824062"><ele>1.0</ele><time>2026-04-05T12:06:57.033Z</time></trkpt><trkpt lat="44.7577636733027" lon="11.918593173385837"><ele>0.6666666666666666</ele><time>2026-04-05T12:06:58.033Z</time></trkpt><trkpt lat="44.75759960801479" lon="11.91843116130986"><ele>0.3333333333333333</ele><time>2026-04-05T12:06:59.033Z</time></trkpt><trkpt lat="44.75742986326334" lon="11.91827227471743"><ele>0.0</ele><time>2026-04-05T12:07:00.033Z</time></trkpt><trkpt lat="44.75726315814966" lon="11.918130879119737"><ele>0.0</ele><time>2026-04-05T12:07:01.033Z</time></trkpt><trkpt lat="44.75708870144608" lon="11.91798730828352"><ele>0.0</ele><time>2026-04-05T12:07:02.033Z</time></trkpt><trkpt lat="44.75691542965561" lon="11.917837608358617"><ele>0.0</ele><time>2026-04-05T12:07:03.033Z</time></trkpt><trkpt lat="44.75674877970833" lon="11.917693102368625"><ele>0.0</ele><time>2026-04-05T12:07:04.033Z</time></trkpt><trkpt lat="44.756576425259574" lon="11.917519005682593"><ele>0.0</ele><time>2026-04-05T12:07:05.033Z</time></trkpt><trkpt lat="44.75640013037082" lon="11.917361899401085"><ele>0.0</ele><time>2026-04-05T12:07:06.033Z</time></trkpt><trkpt lat="44.75622809796963" lon="11.917189699591615"><ele>0.3333333333333333</ele><time>2026-04-05T12:07:07.033Z</time></trkpt><trkpt lat="44.756034820716735" lon="11.91702317341365"><ele>0.6666666666666666</ele><time>2026-04-05T12:07:08.033Z</time></trkpt><trkpt lat="44.75585481240691" lon="11.916851653123055"><ele>1.0</ele><time>2026-04-05T12:07:09.033Z</time></trkpt><trkpt lat="44.75567202558196" lon="11.916673104612459"><ele>1.0</ele><time>2026-04-05T12:07:10.033Z</time></trkpt><trkpt lat="44.75548826476005" lon="11.916520521007364"><ele>1.0</ele><time>2026-04-05T12:07:11.033Z</time></trkpt><trkpt lat="44.75530859672956" lon="11.91635326431586"><ele>1.0</ele><time>2026-04-05T12:07:12.033Z</time></trkpt><trkpt lat="44.755130002777726" lon="11.916199780721636"><ele>1.0</ele><time>2026-04-05T12:07:13.033Z</time></trkpt><trkpt lat="44.75495770355303" lon="11.916041266915075"><ele>1.0</ele><time>2026-04-05T12:07:14.033Z</time></trkpt><trkpt lat="44.75479060469428" lon="11.915883900375203"><ele>1.0</ele><time>2026-04-05T12:07:15.033Z</time></trkpt><trkpt lat="44.754619087180714" lon="11.91572997336573"><ele>1.0</ele><time>2026-04-05T12:07:16.033Z</time></trkpt><trkpt lat="44.75444157872744" lon="11.915586066206377"><ele>1.0</ele><time>2026-04-05T12:07:17.033Z</time></trkpt><trkpt lat="44.7542661694645" lon="11.91541746726644"><ele>1.0</ele><time>2026-04-05T12:07:18.033Z</time></trkpt><trkpt lat="44.75407638076123" lon="11.915251458520215"><ele>1.5</ele><time>2026-04-05T12:07:19.033Z</time></trkpt><trkpt lat="44.75388440803018" lon="11.915069256498224"><ele>2.0</ele><time>2026-04-05T12:07:20.033Z</time></trkpt><trkpt lat="44.7536948513221" lon="11.914902653571248"><ele>1.5</ele><time>2026-04-05T12:07:21.033Z</time></trkpt><trkpt lat="44.753496387245455" lon="11.914720607623785"><ele>1.0</ele><time>2026-04-05T12:07:22.033Z</time></trkpt><trkpt lat="44.75330426157916" lon="11.914530729534164"><ele>1.0</ele><time>2026-04-05T12:07:23.033Z</time></trkpt><trkpt lat="44.75311858193293" lon="11.91436178181674"><ele>1.0</ele><time>2026-04-05T12:07:24.033Z</time></trkpt><trkpt lat="44.75293644695761" lon="11.91420314488834"><ele>1.0</ele><time>2026-04-05T12:07:25.033Z</time></trkpt><trkpt lat="44.75275028846944" lon="11.91406167539084"><ele>0.3333333333333333</ele><time>2026-04-05T12:07:26.033Z</time></trkpt><trkpt lat="44.75255423119144" lon="11.913947914651375"><ele>-0.3333333333333333</ele><time>2026-04-05T12:07:27.033Z</time></trkpt><trkpt lat="44.75234627990676" lon="11.913866822712828"><ele>-1.0</ele><time>2026-04-05T12:07:28.033Z</time></trkpt><trkpt lat="44.75213391416001" lon="11.913804379830633"><ele>-1.0</ele><time>2026-04-05T12:07:29.033Z</time></trkpt><trkpt lat="44.75191943724317" lon="11.913746117761725"><ele>-1.0</ele><time>2026-04-05T12:07:30.033Z</time></trkpt><trkpt lat="44.75170878394891" lon="11.9136925641223"><ele>-1.0</ele><time>2026-04-05T12:07:31.033Z</time></trkpt><trkpt lat="44.75149578019758" lon="11.913654794906426"><ele>-1.0</ele><time>2026-04-05T12:07:32.033Z</time></trkpt><trkpt lat="44.75129354913425" lon="11.91362157113538"><ele>-1.0</ele><time>2026-04-05T12:07:33.033Z</time></trkpt><trkpt lat="44.751096500107785" lon="11.91358240311229"><ele>-1.0</ele><time>2026-04-05T12:07:34.033Z</time></trkpt><trkpt lat="44.75090241756234" lon="11.913541100902266"><ele>-0.6666666666666666</ele><time>2026-04-05T12:07:35.033Z</time></trkpt><trkpt lat="44.750712293107085" lon="11.913497695888454"><ele>-0.3333333333333333</ele><time>2026-04-05T12:07:36.033Z</time></trkpt><trkpt lat="44.75052992488264" lon="11.913455274165619"><ele>0.0</ele><time>2026-04-05T12:07:37.033Z</time></trkpt><trkpt lat="44.750359989533806" lon="11.913410876334781"><ele>0.3333333333333333</ele><time>2026-04-05T12:07:38.033Z</time></trkpt><trkpt lat="44.75018093832406" lon="11.913386161024658"><ele>0.6666666666666666</ele><time>2026-04-05T12:07:39.033Z</time></trkpt><trkpt lat="44.750014875930304" lon="11.913369749929291"><ele>1.0</ele><time>2026-04-05T12:07:40.033Z</time></trkpt><trkpt lat="44.74985131225058" lon="11.9133542187294"><ele>1.0</ele><time>2026-04-05T12:07:41.033Z</time></trkpt><trkpt lat="44.74969457783602" lon="11.913365172891423"><ele>1.0</ele><time>2026-04-05T12:07:42.033Z</time></trkpt><trkpt lat="44.749547383757516" lon="11.913355032645226"><ele>1.0</ele><time>2026-04-05T12:07:43.033Z</time></trkpt><trkpt lat="44.74941423838951" lon="11.913330068079123"><ele>1.0</ele><time>2026-04-05T12:07:44.033Z</time></trkpt><trkpt lat="44.74930370315753" lon="11.913294702780101"><ele>0.9999999999999999</ele><time>2026-04-05T12:07:45.033Z</time></trkpt><trkpt lat="44.749206718723364" lon="11.913241743007864"><ele>1.0</ele><time>2026-04-05T12:07:46.033Z</time></trkpt><trkpt lat="44.74912808906842" lon="11.913198074506216"><ele>1.0</ele><time>2026-04-05T12:07:47.033Z</time></trkpt><trkpt lat="44.74905560234188" lon="11.913138358705377"><ele>1.0</ele><time>2026-04-05T12:07:48.033Z</time></trkpt><trkpt lat="44.74900218156207" lon="11.913090336609825"><ele>0.9999999999999999</ele><time>2026-04-05T12:07:49.033Z</time></trkpt><trkpt lat="44.748921241181705" lon="11.913049295569673"><ele>1.0</ele><time>2026-04-05T12:07:51.035Z</time></trkpt><trkpt lat="44.74884292937274" lon="11.91313369065324"><ele>1.0</ele><time>2026-04-05T12:07:53.035Z</time></trkpt><trkpt lat="44.748815593888914" lon="11.913227737707473"><ele>1.0</ele><time>2026-04-05T12:07:54.035Z</time></trkpt><trkpt lat="44.74879944565738" lon="11.913411511704775"><ele>1.0</ele><time>2026-04-05T12:07:55.035Z</time></trkpt><trkpt lat="44.748795104063944" lon="11.913639409038053"><ele>1.0</ele><time>2026-04-05T12:07:56.035Z</time></trkpt><trkpt lat="44.74880223257214" lon="11.913888135521917"><ele>0.3333333333333333</ele><time>2026-04-05T12:07:57.034Z</time></trkpt><trkpt lat="44.74880680081173" lon="11.914157610041611"><ele>-0.3333333333333333</ele><time>2026-04-05T12:07:58.034Z</time></trkpt><trkpt lat="44.74880544225792" lon="11.914428771507355"><ele>-1.0</ele><time>2026-04-05T12:07:59.034Z</time></trkpt><trkpt lat="44.74881946277993" lon="11.914724628969104"><ele>-1.0</ele><time>2026-04-05T12:08:00.035Z</time></trkpt><trkpt lat="44.74881835143303" lon="11.91504352169105"><ele>-1.0</ele><time>2026-04-05T12:08:01.034Z</time></trkpt><trkpt lat="44.74880864482139" lon="11.915368978958105"><ele>0.0</ele><time>2026-04-05T12:08:02.034Z</time></trkpt><trkpt lat="44.74880887190983" lon="11.915695805896362"><ele>1.0</ele><time>2026-04-05T12:08:03.035Z</time></trkpt><trkpt lat="44.74880910318879" lon="11.916028663809383"><ele>1.0</ele><time>2026-04-05T12:08:04.035Z</time></trkpt><trkpt lat="44.748809338264394" lon="11.916366983920415"><ele>1.0</ele><time>2026-04-05T12:08:05.035Z</time></trkpt><trkpt lat="44.74880956812953" lon="11.916715268196935"><ele>1.0</ele><time>2026-04-05T12:08:06.035Z</time></trkpt><trkpt lat="44.74880978543845" lon="11.917060817463506"><ele>1.0</ele><time>2026-04-05T12:08:07.035Z</time></trkpt><trkpt lat="44.74881000612254" lon="11.917411732100751"><ele>1.0</ele><time>2026-04-05T12:08:08.035Z</time></trkpt><trkpt lat="44.74881022802651" lon="11.917764582829012"><ele>1.0</ele><time>2026-04-05T12:08:09.035Z</time></trkpt><trkpt lat="44.74881083112594" lon="11.918122252905805"><ele>1.0</ele><time>2026-04-05T12:08:10.035Z</time></trkpt><trkpt lat="44.74881135236829" lon="11.918467703063685"><ele>1.0</ele><time>2026-04-05T12:08:11.035Z</time></trkpt><trkpt lat="44.74881135236782" lon="11.918809981561779"><ele>1.0</ele><time>2026-04-05T12:08:12.035Z</time></trkpt><trkpt lat="44.74881135236574" lon="11.919141684045833"><ele>1.0</ele><time>2026-04-05T12:08:13.035Z</time></trkpt><trkpt lat="44.74881135235992" lon="11.919459967915447"><ele>0.6666666666666666</ele><time>2026-04-05T12:08:14.035Z</time></trkpt><trkpt lat="44.74882881337305" lon="11.919776164010086"><ele>0.3333333333333333</ele><time>2026-04-05T12:08:15.035Z</time></trkpt><trkpt lat="44.748832955781566" lon="11.92008297447712"><ele>0.0</ele><time>2026-04-05T12:08:16.035Z</time></trkpt><trkpt lat="44.748838053927585" lon="11.92038704686731"><ele>0.0</ele><time>2026-04-05T12:08:17.035Z</time></trkpt><trkpt lat="44.74885573203909" lon="11.920685271301979"><ele>0.0</ele><time>2026-04-05T12:08:18.035Z</time></trkpt><trkpt lat="44.74884743070521" lon="11.920969697503999"><ele>0.0</ele><time>2026-04-05T12:08:19.035Z</time></trkpt><trkpt lat="44.74887759565628" lon="11.921239175221285"><ele>0.3333333333333333</ele><time>2026-04-05T12:08:20.035Z</time></trkpt><trkpt lat="44.74889720762522" lon="11.921510752006679"><ele>0.6666666666666666</ele><time>2026-04-05T12:08:21.035Z</time></trkpt><trkpt lat="44.74891623014646" lon="11.921770591422021"><ele>1.0</ele><time>2026-04-05T12:08:22.035Z</time></trkpt><trkpt lat="44.74892110223809" lon="11.922020853008215"><ele>1.0</ele><time>2026-04-05T12:08:23.035Z</time></trkpt><trkpt lat="44.74893703259617" lon="11.922248091639101"><ele>1.0</ele><time>2026-04-05T12:08:24.035Z</time></trkpt><trkpt lat="44.74895175471056" lon="11.922458095292852"><ele>1.0</ele><time>2026-04-05T12:08:25.035Z</time></trkpt><trkpt lat="44.748966288665244" lon="11.922665414916505"><ele>2.0</ele><time>2026-04-05T12:08:26.035Z</time></trkpt><trkpt lat="44.748991935990176" lon="11.92286483460188"><ele>3.0</ele><time>2026-04-05T12:08:27.035Z</time></trkpt><trkpt lat="44.74898952238676" lon="11.923091792619"><ele>4.0</ele><time>2026-04-05T12:08:28.035Z</time></trkpt><trkpt lat="44.74900529747118" lon="11.923320137847549"><ele>4.0</ele><time>2026-04-05T12:08:29.035Z</time></trkpt><trkpt lat="44.74901022417104" lon="11.923543685736355"><ele>4.0</ele><time>2026-04-05T12:08:30.035Z</time></trkpt><trkpt lat="44.74904072121824" lon="11.923774851877319"><ele>4.0</ele><time>2026-04-05T12:08:31.035Z</time></trkpt><trkpt lat="44.74906675442631" lon="11.924006101742473"><ele>4.0</ele><time>2026-04-05T12:08:32.035Z</time></trkpt><trkpt lat="44.749071317663685" lon="11.92422913009376"><ele>4.0</ele><time>2026-04-05T12:08:33.035Z</time></trkpt><trkpt lat="44.749076614534886" lon="11.924450612960506"><ele>4.0</ele><time>2026-04-05T12:08:34.035Z</time></trkpt><trkpt lat="44.749078726593275" lon="11.924687971389417"><ele>3.0</ele><time>2026-04-05T12:08:35.035Z</time></trkpt><trkpt lat="44.74906317774027" lon="11.92495577810057"><ele>2.0</ele><time>2026-04-05T12:08:36.035Z</time></trkpt><trkpt lat="44.74905478293247" lon="11.9252733867448"><ele>1.0</ele><time>2026-04-05T12:08:37.035Z</time></trkpt><trkpt lat="44.74902731704675" lon="11.925624268816703"><ele>1.0</ele><time>2026-04-05T12:08:38.035Z</time></trkpt><trkpt lat="44.749009474448414" lon="11.925988687241034"><ele>1.0</ele><time>2026-04-05T12:08:39.035Z</time></trkpt><trkpt lat="44.74899006101474" lon="11.926364498451576"><ele>1.5</ele><time>2026-04-05T12:08:40.035Z</time></trkpt><trkpt lat="44.74898354991985" lon="11.926759009524044"><ele>2.0</ele><time>2026-04-05T12:08:41.035Z</time></trkpt><trkpt lat="44.74898451092277" lon="11.9271602981259"><ele>2.0</ele><time>2026-04-05T12:08:42.035Z</time></trkpt><trkpt lat="44.74897879117562" lon="11.92756363373668"><ele>2.0</ele><time>2026-04-05T12:08:43.035Z</time></trkpt><trkpt lat="44.74897217832422" lon="11.927965615530727"><ele>2.0</ele><time>2026-04-05T12:08:44.035Z</time></trkpt><trkpt lat="44.74896916166822" lon="11.928331559377268"><ele>2.0</ele><time>2026-04-05T12:08:45.035Z</time></trkpt><trkpt lat="44.74896779395961" lon="11.928677026406756"><ele>1.3333333333333333</ele><time>2026-04-05T12:08:46.035Z</time></trkpt><trkpt lat="44.7489489805906" lon="11.928996300910644"><ele>0.6666666666666666</ele><time>2026-04-05T12:08:47.035Z</time></trkpt><trkpt lat="44.748930167938184" lon="11.929306098651187"><ele>0.0</ele><time>2026-04-05T12:08:48.035Z</time></trkpt><trkpt lat="44.7488927649484" lon="11.929604833252238"><ele>-0.3333333333333333</ele><time>2026-04-05T12:08:49.035Z</time></trkpt><trkpt lat="44.74883971513862" lon="11.929906201072104"><ele>-0.6666666666666666</ele><time>2026-04-05T12:08:50.035Z</time></trkpt><trkpt lat="44.7487727364359" lon="11.930205807198739"><ele>-1.0</ele><time>2026-04-05T12:08:51.035Z</time></trkpt><trkpt lat="44.7486898247788" lon="11.930496047877748"><ele>-1.0</ele><time>2026-04-05T12:08:52.035Z</time></trkpt><trkpt lat="44.74860145465095" lon="11.93079035924773"><ele>-1.0</ele><time>2026-04-05T12:08:53.035Z</time></trkpt><trkpt lat="44.74851085577825" lon="11.931085940892972"><ele>0.5</ele><time>2026-04-05T12:08:54.035Z</time></trkpt><trkpt lat="44.748419738143184" lon="11.931384367981593"><ele>2.0</ele><time>2026-04-05T12:08:55.035Z</time></trkpt><trkpt lat="44.74833067156254" lon="11.931686022653412"><ele>1.0</ele><time>2026-04-05T12:08:56.035Z</time></trkpt><trkpt lat="44.74825142042451" lon="11.931991937234859"><ele>0.0</ele><time>2026-04-05T12:08:57.035Z</time></trkpt><trkpt lat="44.74817551278951" lon="11.93229777791606"><ele>-1.0</ele><time>2026-04-05T12:08:58.035Z</time></trkpt><trkpt lat="44.748112953012765" lon="11.932606011573695"><ele>-2.0</ele><time>2026-04-05T12:08:59.035Z</time></trkpt><trkpt lat="44.74806941023293" lon="11.93291237282329"><ele>-2.0</ele><time>2026-04-05T12:09:00.035Z</time></trkpt><trkpt lat="44.7480317441771" lon="11.933195278451759"><ele>-2.0</ele><time>2026-04-05T12:09:01.035Z</time></trkpt><trkpt lat="44.74801237526611" lon="11.933461042742117"><ele>-2.0</ele><time>2026-04-05T12:09:02.035Z</time></trkpt><trkpt lat="44.74799173613138" lon="11.933719562630221"><ele>-2.0</ele><time>2026-04-05T12:09:03.035Z</time></trkpt><trkpt lat="44.74798277378473" lon="11.93396298961226"><ele>-2.0</ele><time>2026-04-05T12:09:04.035Z</time></trkpt><trkpt lat="44.7479580378367" lon="11.934195800158935"><ele>-2.0</ele><time>2026-04-05T12:09:05.035Z</time></trkpt><trkpt lat="44.74794744549619" lon="11.934419370083132"><ele>-2.0</ele><time>2026-04-05T12:09:06.035Z</time></trkpt><trkpt lat="44.747939325603866" lon="11.934639272053222"><ele>-2.0</ele><time>2026-04-05T12:09:07.035Z</time></trkpt><trkpt lat="44.74792841912232" lon="11.934840282061831"><ele>-2.0</ele><time>2026-04-05T12:09:08.035Z</time></trkpt><trkpt lat="44.747917611839796" lon="11.935029778398146"><ele>-2.0</ele><time>2026-04-05T12:09:09.035Z</time></trkpt><trkpt lat="44.74791356173257" lon="11.935203983391435"><ele>-1.6666666666666665</ele><time>2026-04-05T12:09:10.035Z</time></trkpt><trkpt lat="44.74790615043633" lon="11.935355378379432"><ele>-1.3333333333333333</ele><time>2026-04-05T12:09:11.035Z</time></trkpt><trkpt lat="44.74790520016919" lon="11.935494494916783"><ele>-1.0</ele><time>2026-04-05T12:09:12.035Z</time></trkpt><trkpt lat="44.74790427968632" lon="11.935613973954373"><ele>-0.6666666666666666</ele><time>2026-04-05T12:09:13.035Z</time></trkpt><trkpt lat="44.74791502227911" lon="11.935718289275735"><ele>-0.3333333333333333</ele><time>2026-04-05T12:09:14.035Z</time></trkpt><trkpt lat="44.74794955048162" lon="11.935798620342545"><ele>0.0</ele><time>2026-04-05T12:09:15.035Z</time></trkpt><trkpt lat="44.748002849970774" lon="11.935847373898865"><ele>0.0</ele><time>2026-04-05T12:09:16.035Z</time></trkpt><trkpt lat="44.74809530863516" lon="11.935863754414463"><ele>0.0</ele><time>2026-04-05T12:09:17.035Z</time></trkpt><trkpt lat="44.74819577143942" lon="11.93586386381343"><ele>0.0</ele><time>2026-04-05T12:09:18.035Z</time></trkpt><trkpt lat="44.748348586777716" lon="11.935864687105562"><ele>0.0</ele><time>2026-04-05T12:09:19.035Z</time></trkpt><trkpt lat="44.7485317457356" lon="11.935867958651041"><ele>0.0</ele><time>2026-04-05T12:09:20.035Z</time></trkpt><trkpt lat="44.74872190286451" lon="11.935855337068933"><ele>0.0</ele><time>2026-04-05T12:09:21.035Z</time></trkpt><trkpt lat="44.7489067413219" lon="11.935841986757387"><ele>0.0</ele><time>2026-04-05T12:09:22.035Z</time></trkpt><trkpt lat="44.74910115596922" lon="11.935837200550143"><ele>0.0</ele><time>2026-04-05T12:09:23.035Z</time></trkpt><trkpt lat="44.74929935218559" lon="11.935839373298348"><ele>0.0</ele><time>2026-04-05T12:09:24.035Z</time></trkpt><trkpt lat="44.74950650383892" lon="11.935845235734822"><ele>0.0</ele><time>2026-04-05T12:09:25.035Z</time></trkpt><trkpt lat="44.74971607412423" lon="11.9358565927548"><ele>-0.3333333333333333</ele><time>2026-04-05T12:09:26.035Z</time></trkpt><trkpt lat="44.749923998097486" lon="11.935870988455727"><ele>-0.6666666666666666</ele><time>2026-04-05T12:09:27.035Z</time></trkpt><trkpt lat="44.75012385470064" lon="11.935892280245026"><ele>-1.0</ele><time>2026-04-05T12:09:28.035Z</time></trkpt><trkpt lat="44.750309344410454" lon="11.935917330072241"><ele>-1.3333333333333333</ele><time>2026-04-05T12:09:29.035Z</time></trkpt><trkpt lat="44.750483776167286" lon="11.935943656435644"><ele>-1.6666666666666665</ele><time>2026-04-05T12:09:30.035Z</time></trkpt><trkpt lat="44.750645974258354" lon="11.935972672558092"><ele>-2.0</ele><time>2026-04-05T12:09:31.035Z</time></trkpt><trkpt lat="44.75079839951149" lon="11.936000332137572"><ele>-2.0</ele><time>2026-04-05T12:09:32.035Z</time></trkpt><trkpt lat="44.75092549401128" lon="11.936025666220646"><ele>-2.0</ele><time>2026-04-05T12:09:33.035Z</time></trkpt><trkpt lat="44.75102212202604" lon="11.936056492469419"><ele>-2.0</ele><time>2026-04-05T12:09:34.035Z</time></trkpt><trkpt lat="44.751090459376485" lon="11.936109009368266"><ele>-2.0</ele><time>2026-04-05T12:09:35.035Z</time></trkpt><trkpt lat="44.75118110102306" lon="11.936158053911257"><ele>-2.0</ele><time>2026-04-05T12:09:37.035Z</time></trkpt><trkpt lat="44.751170135940114" lon="11.936472953053606"><ele>-2.25</ele><time>2026-04-05T12:09:39.035Z</time></trkpt><trkpt lat="44.75112800322284" lon="11.93662611448452"><ele>-2.5</ele><time>2026-04-05T12:09:40.035Z</time></trkpt><trkpt lat="44.75106083023087" lon="11.936800092621521"><ele>-2.75</ele><time>2026-04-05T12:09:41.035Z</time></trkpt><trkpt lat="44.75098785249183" lon="11.937002373274572"><ele>-3.0</ele><time>2026-04-05T12:09:42.035Z</time></trkpt><trkpt lat="44.75089918010324" lon="11.937223081925861"><ele>-2.3333333333333335</ele><time>2026-04-05T12:09:43.035Z</time></trkpt><trkpt lat="44.75080879534256" lon="11.937449684955073"><ele>-1.6666666666666665</ele><time>2026-04-05T12:09:44.035Z</time></trkpt><trkpt lat="44.750719959381584" lon="11.937700217788079"><ele>-1.0</ele><time>2026-04-05T12:09:45.035Z</time></trkpt><trkpt lat="44.75061991334559" lon="11.937958527560951"><ele>-1.0</ele><time>2026-04-05T12:09:46.035Z</time></trkpt><trkpt lat="44.750510438502005" lon="11.938224412342572"><ele>-1.0</ele><time>2026-04-05T12:09:47.035Z</time></trkpt><trkpt lat="44.75040320072981" lon="11.938510022785474"><ele>-1.0</ele><time>2026-04-05T12:09:48.035Z</time></trkpt><trkpt lat="44.75029161066098" lon="11.938807224871852"><ele>0.0</ele><time>2026-04-05T12:09:49.035Z</time></trkpt><trkpt lat="44.750183781010186" lon="11.939094411695718"><ele>1.0</ele><time>2026-04-05T12:09:50.035Z</time></trkpt><trkpt lat="44.75007262467555" lon="11.939389482973283"><ele>1.0</ele><time>2026-04-05T12:09:51.035Z</time></trkpt><trkpt lat="44.749963468739175" lon="11.93967884131845"><ele>1.0</ele><time>2026-04-05T12:09:52.035Z</time></trkpt><trkpt lat="44.7498547074964" lon="11.939967267859224"><ele>0.3333333333333333</ele><time>2026-04-05T12:09:53.035Z</time></trkpt><trkpt lat="44.74974984537102" lon="11.940245782711797"><ele>-0.3333333333333333</ele><time>2026-04-05T12:09:54.035Z</time></trkpt><trkpt lat="44.749649289478185" lon="11.940513149319363"><ele>-1.0</ele><time>2026-04-05T12:09:55.035Z</time></trkpt><trkpt lat="44.749548255370996" lon="11.940783576045929"><ele>-1.0</ele><time>2026-04-05T12:09:56.035Z</time></trkpt><trkpt lat="44.749446103516824" lon="11.941055393895603"><ele>-1.0</ele><time>2026-04-05T12:09:57.037Z</time></trkpt><trkpt lat="44.749345916923716" lon="11.941324169364611"><ele>-1.0</ele><time>2026-04-05T12:09:58.038Z</time></trkpt><trkpt lat="44.749236912667065" lon="11.941611047839098"><ele>-1.5</ele><time>2026-04-05T12:09:59.038Z</time></trkpt><trkpt lat="44.749119939281606" lon="11.941915045001249"><ele>-2.0</ele><time>2026-04-05T12:10:00.037Z</time></trkpt><trkpt lat="44.74900182339484" lon="11.942223501395112"><ele>-2.0</ele><time>2026-04-05T12:10:01.037Z</time></trkpt><trkpt lat="44.74888175611201" lon="11.942542710088285"><ele>-2.0</ele><time>2026-04-05T12:10:02.037Z</time></trkpt><trkpt lat="44.74875816824884" lon="11.942870739890378"><ele>-2.0</ele><time>2026-04-05T12:10:03.038Z</time></trkpt><trkpt lat="44.748636018005904" lon="11.94319377887168"><ele>-2.0</ele><time>2026-04-05T12:10:04.037Z</time></trkpt><trkpt lat="44.74851411754499" lon="11.943516121534833"><ele>-2.5</ele><time>2026-04-05T12:10:05.037Z</time></trkpt><trkpt lat="44.74839265406863" lon="11.943837308902824"><ele>-3.0</ele><time>2026-04-05T12:10:06.037Z</time></trkpt><trkpt lat="44.7482774687768" lon="11.944142490073446"><ele>-2.5</ele><time>2026-04-05T12:10:07.037Z</time></trkpt><trkpt lat="44.74816445471476" lon="11.944443324075637"><ele>-2.0</ele><time>2026-04-05T12:10:08.037Z</time></trkpt><trkpt lat="44.74808393512415" lon="11.944745363275185"><ele>-2.0</ele><time>2026-04-05T12:10:09.038Z</time></trkpt><trkpt lat="44.74798832803015" lon="11.94499548957252"><ele>-2.0</ele><time>2026-04-05T12:10:10.037Z</time></trkpt><trkpt lat="44.74788344964561" lon="11.945240313762781"><ele>-2.0</ele><time>2026-04-05T12:10:11.038Z</time></trkpt><trkpt lat="44.74777739866559" lon="11.945477802051514"><ele>-2.0</ele><time>2026-04-05T12:10:12.038Z</time></trkpt><trkpt lat="44.747692001024056" lon="11.945708971277128"><ele>-2.0</ele><time>2026-04-05T12:10:13.038Z</time></trkpt><trkpt lat="44.74760550401072" lon="11.94595087375731"><ele>-2.0</ele><time>2026-04-05T12:10:14.038Z</time></trkpt><trkpt lat="44.74751736204048" lon="11.946184700417055"><ele>-2.0</ele><time>2026-04-05T12:10:15.038Z</time></trkpt><trkpt lat="44.74744314138456" lon="11.946441143655214"><ele>-2.0</ele><time>2026-04-05T12:10:16.038Z</time></trkpt><trkpt lat="44.74738401379452" lon="11.946712187532528"><ele>-2.0</ele><time>2026-04-05T12:10:17.038Z</time></trkpt><trkpt lat="44.74734171495378" lon="11.947013428731719"><ele>-2.0</ele><time>2026-04-05T12:10:18.038Z</time></trkpt><trkpt lat="44.74731787254492" lon="11.94731570630256"><ele>-2.0</ele><time>2026-04-05T12:10:19.038Z</time></trkpt><trkpt lat="44.747321229814155" lon="11.947647237170012"><ele>-2.0</ele><time>2026-04-05T12:10:20.038Z</time></trkpt><trkpt lat="44.74734897275821" lon="11.947974782932363"><ele>-2.0</ele><time>2026-04-05T12:10:21.038Z</time></trkpt><trkpt lat="44.74735478284579" lon="11.948308865817085"><ele>-2.0</ele><time>2026-04-05T12:10:22.038Z</time></trkpt><trkpt lat="44.74734467761246" lon="11.948652173171993"><ele>-2.0</ele><time>2026-04-05T12:10:23.038Z</time></trkpt><trkpt lat="44.74735597808524" lon="11.948977803678329"><ele>-2.0</ele><time>2026-04-05T12:10:24.038Z</time></trkpt><trkpt lat="44.747345698045" lon="11.949289169681224"><ele>-2.0</ele><time>2026-04-05T12:10:25.038Z</time></trkpt><trkpt lat="44.74735116278474" lon="11.949597558954798"><ele>-2.0</ele><time>2026-04-05T12:10:26.038Z</time></trkpt><trkpt lat="44.747358213819034" lon="11.949874498045915"><ele>-1.6666666666666665</ele><time>2026-04-05T12:10:27.038Z</time></trkpt><trkpt lat="44.747336411357644" lon="11.950125608692957"><ele>-1.3333333333333333</ele><time>2026-04-05T12:10:28.038Z</time></trkpt><trkpt lat="44.74731878911737" lon="11.950368527724837"><ele>-1.0</ele><time>2026-04-05T12:10:29.038Z</time></trkpt><trkpt lat="44.7472780473248" lon="11.950593212937713"><ele>-1.0</ele><time>2026-04-05T12:10:30.038Z</time></trkpt><trkpt lat="44.74723013294202" lon="11.950825319395593"><ele>-1.0</ele><time>2026-04-05T12:10:31.038Z</time></trkpt><trkpt lat="44.74715796104562" lon="11.95103551897009"><ele>-1.0</ele><time>2026-04-05T12:10:32.038Z</time></trkpt><trkpt lat="44.74708666957204" lon="11.951217770259742"><ele>-1.0</ele><time>2026-04-05T12:10:33.038Z</time></trkpt><trkpt lat="44.74699633906884" lon="11.951394540689595"><ele>-1.0</ele><time>2026-04-05T12:10:34.038Z</time></trkpt><trkpt lat="44.746892907202025" lon="11.951556267168966"><ele>-1.0</ele><time>2026-04-05T12:10:35.038Z</time></trkpt><trkpt lat="44.746778927692034" lon="11.951703000428365"><ele>-1.25</ele><time>2026-04-05T12:10:36.038Z</time></trkpt><trkpt lat="44.746659087665975" lon="11.95181636368082"><ele>-1.5</ele><time>2026-04-05T12:10:37.038Z</time></trkpt><trkpt lat="44.74652546226696" lon="11.95192599944981"><ele>-1.75</ele><time>2026-04-05T12:10:38.038Z</time></trkpt><trkpt lat="44.74639687083607" lon="11.95201227298156"><ele>-2.0</ele><time>2026-04-05T12:10:39.038Z</time></trkpt><trkpt lat="44.74626245832828" lon="11.952108706782768"><ele>-2.0</ele><time>2026-04-05T12:10:40.038Z</time></trkpt><trkpt lat="44.746133791805164" lon="11.952159110624793"><ele>-2.0</ele><time>2026-04-05T12:10:41.038Z</time></trkpt><trkpt lat="44.746000818309874" lon="11.952257836553946"><ele>-2.0</ele><time>2026-04-05T12:10:42.038Z</time></trkpt><trkpt lat="44.74586593974241" lon="11.95236550183755"><ele>-2.0</ele><time>2026-04-05T12:10:43.038Z</time></trkpt><trkpt lat="44.745749451921846" lon="11.95248681366749"><ele>-1.3333333333333333</ele><time>2026-04-05T12:10:44.038Z</time></trkpt><trkpt lat="44.74564611105893" lon="11.952630753837697"><ele>-0.6666666666666666</ele><time>2026-04-05T12:10:45.038Z</time></trkpt><trkpt lat="44.74554117933582" lon="11.952825952565334"><ele>0.0</ele><time>2026-04-05T12:10:46.038Z</time></trkpt><trkpt lat="44.745445576127054" lon="11.953031156323087"><ele>0.0</ele><time>2026-04-05T12:10:47.038Z</time></trkpt><trkpt lat="44.74536926738859" lon="11.953248812416371"><ele>0.0</ele><time>2026-04-05T12:10:48.038Z</time></trkpt><trkpt lat="44.74531395286011" lon="11.9534828652238"><ele>0.0</ele><time>2026-04-05T12:10:49.038Z</time></trkpt><trkpt lat="44.74527416621409" lon="11.953740589356466"><ele>0.3333333333333333</ele><time>2026-04-05T12:10:50.038Z</time></trkpt><trkpt lat="44.74525811279479" lon="11.953999916584861"><ele>0.6666666666666666</ele><time>2026-04-05T12:10:51.038Z</time></trkpt><trkpt lat="44.74525422578077" lon="11.954262707347834"><ele>1.0</ele><time>2026-04-05T12:10:52.038Z</time></trkpt><trkpt lat="44.74525603720822" lon="11.954519504382572"><ele>0.3333333333333333</ele><time>2026-04-05T12:10:53.038Z</time></trkpt><trkpt lat="44.74525443489235" lon="11.954782930211367"><ele>-0.3333333333333333</ele><time>2026-04-05T12:10:54.038Z</time></trkpt><trkpt lat="44.745259445286194" lon="11.955045751141734"><ele>-1.0</ele><time>2026-04-05T12:10:55.038Z</time></trkpt><trkpt lat="44.74526911706251" lon="11.955313016459975"><ele>-1.3333333333333333</ele><time>2026-04-05T12:10:56.038Z</time></trkpt><trkpt lat="44.745274845628536" lon="11.955584026232048"><ele>-1.6666666666666665</ele><time>2026-04-05T12:10:57.038Z</time></trkpt><trkpt lat="44.74529413677767" lon="11.955846722289941"><ele>-2.0</ele><time>2026-04-05T12:10:58.038Z</time></trkpt><trkpt lat="44.7453086926589" lon="11.956107079833695"><ele>-1.3333333333333333</ele><time>2026-04-05T12:10:59.038Z</time></trkpt><trkpt lat="44.74532780543028" lon="11.956364863977708"><ele>-0.6666666666666666</ele><time>2026-04-05T12:11:00.038Z</time></trkpt><trkpt lat="44.74535184042579" lon="11.956622117872756"><ele>0.0</ele><time>2026-04-05T12:11:01.038Z</time></trkpt><trkpt lat="44.74536302719165" lon="11.95688455300961"><ele>0.0</ele><time>2026-04-05T12:11:02.038Z</time></trkpt><trkpt lat="44.74539214140213" lon="11.9571415712886"><ele>0.0</ele><time>2026-04-05T12:11:03.038Z</time></trkpt><trkpt lat="44.745453140265745" lon="11.957388311801713"><ele>0.0</ele><time>2026-04-05T12:11:04.038Z</time></trkpt><trkpt lat="44.74553268266324" lon="11.95760235780521"><ele>-0.3333333333333333</ele><time>2026-04-05T12:11:05.038Z</time></trkpt><trkpt lat="44.74563301040226" lon="11.957799300214196"><ele>-0.6666666666666666</ele><time>2026-04-05T12:11:06.038Z</time></trkpt><trkpt lat="44.745738827794014" lon="11.957974728862153"><ele>-1.0</ele><time>2026-04-05T12:11:07.038Z</time></trkpt><trkpt lat="44.745836112378704" lon="11.958156340488404"><ele>-1.3333333333333333</ele><time>2026-04-05T12:11:08.038Z</time></trkpt><trkpt lat="44.745907765083956" lon="11.958369894088907"><ele>-1.6666666666666665</ele><time>2026-04-05T12:11:09.038Z</time></trkpt><trkpt lat="44.745966631256096" lon="11.958613549843347"><ele>-2.0</ele><time>2026-04-05T12:11:10.038Z</time></trkpt><trkpt lat="44.74602664908642" lon="11.958885798541719"><ele>-1.6666666666666665</ele><time>2026-04-05T12:11:11.038Z</time></trkpt><trkpt lat="44.746085932644675" lon="11.959166862320227"><ele>-1.3333333333333333</ele><time>2026-04-05T12:11:12.038Z</time></trkpt><trkpt lat="44.746140457531816" lon="11.959466678948882"><ele>-1.0</ele><time>2026-04-05T12:11:13.038Z</time></trkpt><trkpt lat="44.7461945300881" lon="11.959776317247684"><ele>-0.5</ele><time>2026-04-05T12:11:14.038Z</time></trkpt><trkpt lat="44.74625188513302" lon="11.960105497375878"><ele>0.0</ele><time>2026-04-05T12:11:15.038Z</time></trkpt><trkpt lat="44.746303965477814" lon="11.960430980667502"><ele>0.0</ele><time>2026-04-05T12:11:16.038Z</time></trkpt><trkpt lat="44.74635948833889" lon="11.960764974678936"><ele>0.0</ele><time>2026-04-05T12:11:17.038Z</time></trkpt><trkpt lat="44.746416087992294" lon="11.96110517902066"><ele>0.0</ele><time>2026-04-05T12:11:18.038Z</time></trkpt><trkpt lat="44.74646904503842" lon="11.961441565970203"><ele>0.0</ele><time>2026-04-05T12:11:19.038Z</time></trkpt><trkpt lat="44.74652502809421" lon="11.961774851056552"><ele>1.0</ele><time>2026-04-05T12:11:20.038Z</time></trkpt><trkpt lat="44.74657956391706" lon="11.962115466367464"><ele>2.0</ele><time>2026-04-05T12:11:21.038Z</time></trkpt><trkpt lat="44.7466404467766" lon="11.962450099772848"><ele>1.0</ele><time>2026-04-05T12:11:22.038Z</time></trkpt><trkpt lat="44.74670500222769" lon="11.962793436256126"><ele>0.0</ele><time>2026-04-05T12:11:23.038Z</time></trkpt><trkpt lat="44.74676354201064" lon="11.963150723008264"><ele>-0.5</ele><time>2026-04-05T12:11:24.038Z</time></trkpt><trkpt lat="44.74683153882464" lon="11.963505869840525"><ele>-1.0</ele><time>2026-04-05T12:11:25.038Z</time></trkpt><trkpt lat="44.74690623084641" lon="11.963872041435534"><ele>-0.5</ele><time>2026-04-05T12:11:26.038Z</time></trkpt><trkpt lat="44.7469816944796" lon="11.96423437870471"><ele>0.0</ele><time>2026-04-05T12:11:27.038Z</time></trkpt><trkpt lat="44.74704931952457" lon="11.964607493325024"><ele>0.0</ele><time>2026-04-05T12:11:28.038Z</time></trkpt><trkpt lat="44.74711046499544" lon="11.964981551447183"><ele>0.0</ele><time>2026-04-05T12:11:29.038Z</time></trkpt><trkpt lat="44.747170421217305" lon="11.965352798420493"><ele>0.0</ele><time>2026-04-05T12:11:30.038Z</time></trkpt><trkpt lat="44.74723405604551" lon="11.965723293679229"><ele>0.0</ele><time>2026-04-05T12:11:31.038Z</time></trkpt><trkpt lat="44.74729659610794" lon="11.966094197954016"><ele>0.0</ele><time>2026-04-05T12:11:32.038Z</time></trkpt><trkpt lat="44.74735866465967" lon="11.966462896127402"><ele>0.0</ele><time>2026-04-05T12:11:33.038Z</time></trkpt><trkpt lat="44.74741961802156" lon="11.966831264711965"><ele>0.0</ele><time>2026-04-05T12:11:34.038Z</time></trkpt><trkpt lat="44.7474823279671" lon="11.967196628949335"><ele>0.0</ele><time>2026-04-05T12:11:35.038Z</time></trkpt><trkpt lat="44.747546478979224" lon="11.96756286418328"><ele>-0.5</ele><time>2026-04-05T12:11:36.038Z</time></trkpt><trkpt lat="44.7476068579042" lon="11.967930775603314"><ele>-1.0</ele><time>2026-04-05T12:11:37.038Z</time></trkpt><trkpt lat="44.74766720209348" lon="11.968298961626209"><ele>-1.5</ele><time>2026-04-05T12:11:38.038Z</time></trkpt><trkpt lat="44.747725084925364" lon="11.968669597902823"><ele>-2.0</ele><time>2026-04-05T12:11:39.038Z</time></trkpt><trkpt lat="44.747773995073025" lon="11.9690402031393"><ele>-2.0</ele><time>2026-04-05T12:11:40.038Z</time></trkpt><trkpt lat="44.74782641713589" lon="11.969410552390327"><ele>-2.0</ele><time>2026-04-05T12:11:41.038Z</time></trkpt><trkpt lat="44.7478761588879" lon="11.969772427600947"><ele>-2.0</ele><time>2026-04-05T12:11:42.038Z</time></trkpt><trkpt lat="44.74792694920426" lon="11.970124328677532"><ele>-2.0</ele><time>2026-04-05T12:11:43.038Z</time></trkpt><trkpt lat="44.747975074303184" lon="11.970460155554166"><ele>-2.0</ele><time>2026-04-05T12:11:44.038Z</time></trkpt><trkpt lat="44.74801315501501" lon="11.97078271573664"><ele>-2.0</ele><time>2026-04-05T12:11:45.038Z</time></trkpt><trkpt lat="44.748047607296364" lon="11.971108341487156"><ele>-1.5</ele><time>2026-04-05T12:11:46.038Z</time></trkpt><trkpt lat="44.74807121109183" lon="11.971435281471573"><ele>-1.0</ele><time>2026-04-05T12:11:47.038Z</time></trkpt><trkpt lat="44.74806798720866" lon="11.97177454685843"><ele>-1.0</ele><time>2026-04-05T12:11:48.038Z</time></trkpt><trkpt lat="44.74805970276622" lon="11.97211243838332"><ele>-1.0</ele><time>2026-04-05T12:11:49.038Z</time></trkpt><trkpt lat="44.748033227143885" lon="11.97246926868937"><ele>-1.0</ele><time>2026-04-05T12:11:50.038Z</time></trkpt><trkpt lat="44.74800926533614" lon="11.972826554806051"><ele>-1.0</ele><time>2026-04-05T12:11:51.038Z</time></trkpt><trkpt lat="44.7479712392913" lon="11.973167526370405"><ele>-1.5</ele><time>2026-04-05T12:11:52.038Z</time></trkpt><trkpt lat="44.74792161079246" lon="11.973486929766821"><ele>-2.0</ele><time>2026-04-05T12:11:53.038Z</time></trkpt><trkpt lat="44.74784709427612" lon="11.973795393334488"><ele>-2.0</ele><time>2026-04-05T12:11:54.038Z</time></trkpt><trkpt lat="44.74772481493561" lon="11.974081585793472"><ele>-2.0</ele><time>2026-04-05T12:11:55.038Z</time></trkpt><trkpt lat="44.74760238706308" lon="11.974387145723231"><ele>-2.0</ele><time>2026-04-05T12:11:56.038Z</time></trkpt><trkpt lat="44.7474757781352" lon="11.974697588533505"><ele>-2.0</ele><time>2026-04-05T12:11:57.038Z</time></trkpt><trkpt lat="44.74734335607856" lon="11.975025236901226"><ele>-2.0</ele><time>2026-04-05T12:11:58.038Z</time></trkpt><trkpt lat="44.74720791183912" lon="11.975362989151387"><ele>-2.0</ele><time>2026-04-05T12:11:59.038Z</time></trkpt><trkpt lat="44.74708033951102" lon="11.975681110421739"><ele>-2.0</ele><time>2026-04-05T12:12:00.038Z</time></trkpt><trkpt lat="44.746944829897636" lon="11.976021543817964"><ele>-2.0</ele><time>2026-04-05T12:12:01.038Z</time></trkpt><trkpt lat="44.746819995424666" lon="11.9763746454797"><ele>-0.5</ele><time>2026-04-05T12:12:02.038Z</time></trkpt><trkpt lat="44.74667497562294" lon="11.97670054614179"><ele>1.0</ele><time>2026-04-05T12:12:03.039Z</time></trkpt><trkpt lat="44.746543346036475" lon="11.977027048947873"><ele>1.0</ele><time>2026-04-05T12:12:04.039Z</time></trkpt><trkpt lat="44.74640001068287" lon="11.977358993804078"><ele>1.0</ele><time>2026-04-05T12:12:05.039Z</time></trkpt><trkpt lat="44.74626338979989" lon="11.977700184998973"><ele>1.0</ele><time>2026-04-05T12:12:06.04Z</time></trkpt><trkpt lat="44.74613177833767" lon="11.978033690816634"><ele>1.0</ele><time>2026-04-05T12:12:07.04Z</time></trkpt><trkpt lat="44.74600364187275" lon="11.978366206202075"><ele>1.0</ele><time>2026-04-05T12:12:08.04Z</time></trkpt><trkpt lat="44.745870792370546" lon="11.978699061961258"><ele>1.0</ele><time>2026-04-05T12:12:09.039Z</time></trkpt><trkpt lat="44.7457393135667" lon="11.9790318945239"><ele>0.5</ele><time>2026-04-05T12:12:10.04Z</time></trkpt><trkpt lat="44.74561252222767" lon="11.97936602138988"><ele>0.0</ele><time>2026-04-05T12:12:11.04Z</time></trkpt><trkpt lat="44.745484484051424" lon="11.979699877457406"><ele>-1.5</ele><time>2026-04-05T12:12:12.04Z</time></trkpt><trkpt lat="44.745355586044035" lon="11.980033154270023"><ele>-3.0</ele><time>2026-04-05T12:12:13.039Z</time></trkpt><trkpt lat="44.74522595591527" lon="11.980369331659482"><ele>-1.5</ele><time>2026-04-05T12:12:14.039Z</time></trkpt><trkpt lat="44.74510232840863" lon="11.980712156077667"><ele>0.0</ele><time>2026-04-05T12:12:15.039Z</time></trkpt><trkpt lat="44.744990526456604" lon="11.981055569710325"><ele>0.0</ele><time>2026-04-05T12:12:16.04Z</time></trkpt><trkpt lat="44.744884749145356" lon="11.981405494592797"><ele>0.0</ele><time>2026-04-05T12:12:17.04Z</time></trkpt><trkpt lat="44.74478359517515" lon="11.98176277800817"><ele>-0.5</ele><time>2026-04-05T12:12:18.04Z</time></trkpt><trkpt lat="44.744679742871895" lon="11.98212270667051"><ele>-1.0</ele><time>2026-04-05T12:12:19.04Z</time></trkpt><trkpt lat="44.744587811921924" lon="11.98248902061169"><ele>-1.0</ele><time>2026-04-05T12:12:20.04Z</time></trkpt><trkpt lat="44.74449412612477" lon="11.982856044045226"><ele>-1.0</ele><time>2026-04-05T12:12:21.04Z</time></trkpt><trkpt lat="44.744409228665596" lon="11.983227546204853"><ele>0.0</ele><time>2026-04-05T12:12:22.04Z</time></trkpt><trkpt lat="44.74432425342526" lon="11.983608750485466"><ele>1.0</ele><time>2026-04-05T12:12:23.04Z</time></trkpt><trkpt lat="44.74425003842185" lon="11.983981485680337"><ele>0.5</ele><time>2026-04-05T12:12:24.04Z</time></trkpt><trkpt lat="44.744175147908045" lon="11.984354064822782"><ele>0.0</ele><time>2026-04-05T12:12:25.04Z</time></trkpt><trkpt lat="44.744105645253235" lon="11.984722331017384"><ele>0.0</ele><time>2026-04-05T12:12:26.04Z</time></trkpt><trkpt lat="44.74403444336765" lon="11.985084662492824"><ele>0.0</ele><time>2026-04-05T12:12:27.04Z</time></trkpt><trkpt lat="44.74395340943163" lon="11.985448252451976"><ele>0.0</ele><time>2026-04-05T12:12:28.04Z</time></trkpt><trkpt lat="44.743865597424374" lon="11.985806680688633"><ele>0.0</ele><time>2026-04-05T12:12:29.04Z</time></trkpt><trkpt lat="44.74376804993188" lon="11.986152577651811"><ele>-0.5</ele><time>2026-04-05T12:12:30.04Z</time></trkpt><trkpt lat="44.743665814070724" lon="11.986510791788433"><ele>-1.0</ele><time>2026-04-05T12:12:31.04Z</time></trkpt><trkpt lat="44.74358066193585" lon="11.98686366032998"><ele>-1.0</ele><time>2026-04-05T12:12:32.04Z</time></trkpt><trkpt lat="44.74351337810228" lon="11.987213237420002"><ele>-1.0</ele><time>2026-04-05T12:12:33.04Z</time></trkpt><trkpt lat="44.74344067842513" lon="11.987561182660347"><ele>-1.5</ele><time>2026-04-05T12:12:34.04Z</time></trkpt><trkpt lat="44.7433813944961" lon="11.987896005356086"><ele>-2.0</ele><time>2026-04-05T12:12:35.04Z</time></trkpt><trkpt lat="44.74331166782567" lon="11.988221837210327"><ele>-2.0</ele><time>2026-04-05T12:12:36.04Z</time></trkpt><trkpt lat="44.74322064084619" lon="11.988538123695376"><ele>-2.0</ele><time>2026-04-05T12:12:37.04Z</time></trkpt><trkpt lat="44.74311605173319" lon="11.988847265069046"><ele>-2.0</ele><time>2026-04-05T12:12:38.04Z</time></trkpt><trkpt lat="44.74300148440195" lon="11.989132536710102"><ele>-2.0</ele><time>2026-04-05T12:12:39.04Z</time></trkpt><trkpt lat="44.74288130610959" lon="11.989405927504698"><ele>-2.0</ele><time>2026-04-05T12:12:40.04Z</time></trkpt><trkpt lat="44.74277458418918" lon="11.989696536252435"><ele>-2.0</ele><time>2026-04-05T12:12:41.04Z</time></trkpt><trkpt lat="44.742696627834654" lon="11.98999994056197"><ele>-2.0</ele><time>2026-04-05T12:12:42.04Z</time></trkpt><trkpt lat="44.74262820476998" lon="11.990321863830363"><ele>-2.0</ele><time>2026-04-05T12:12:43.04Z</time></trkpt><trkpt lat="44.74256960282412" lon="11.9906640667234"><ele>-2.0</ele><time>2026-04-05T12:12:44.04Z</time></trkpt><trkpt lat="44.74251602688403" lon="11.991006692108725"><ele>-2.0</ele><time>2026-04-05T12:12:45.04Z</time></trkpt><trkpt lat="44.74247276462754" lon="11.991356289301546"><ele>-2.0</ele><time>2026-04-05T12:12:46.04Z</time></trkpt><trkpt lat="44.74243693242569" lon="11.991714324585594"><ele>-2.0</ele><time>2026-04-05T12:12:47.04Z</time></trkpt><trkpt lat="44.74241043588435" lon="11.99208031898406"><ele>-2.0</ele><time>2026-04-05T12:12:48.04Z</time></trkpt><trkpt lat="44.74238967640254" lon="11.992444096659431"><ele>-2.0</ele><time>2026-04-05T12:12:49.04Z</time></trkpt><trkpt lat="44.74237185349531" lon="11.992810850013427"><ele>-3.0</ele><time>2026-04-05T12:12:50.04Z</time></trkpt><trkpt lat="44.74235433484684" lon="11.993169460657874"><ele>-4.0</ele><time>2026-04-05T12:12:51.04Z</time></trkpt><trkpt lat="44.74233558641629" lon="11.993536020936569"><ele>-4.0</ele><time>2026-04-05T12:12:52.04Z</time></trkpt><trkpt lat="44.74230795801525" lon="11.993899927975585"><ele>-4.0</ele><time>2026-04-05T12:12:53.04Z</time></trkpt><trkpt lat="44.74228518036075" lon="11.99425443979532"><ele>-3.5</ele><time>2026-04-05T12:12:54.04Z</time></trkpt><trkpt lat="44.742255211727986" lon="11.994607452496783"><ele>-3.0</ele><time>2026-04-05T12:12:55.04Z</time></trkpt><trkpt lat="44.74222516812537" lon="11.99495441264789"><ele>-3.0</ele><time>2026-04-05T12:12:56.04Z</time></trkpt><trkpt lat="44.74218473021253" lon="11.995303103968947"><ele>-3.0</ele><time>2026-04-05T12:12:57.04Z</time></trkpt><trkpt lat="44.74214566371332" lon="11.995653471547852"><ele>-2.5</ele><time>2026-04-05T12:12:58.04Z</time></trkpt><trkpt lat="44.74210196532745" lon="11.996006455008974"><ele>-2.0</ele><time>2026-04-05T12:12:59.04Z</time></trkpt><trkpt lat="44.74205590856007" lon="11.996358588236484"><ele>-1.5</ele><time>2026-04-05T12:13:00.04Z</time></trkpt><trkpt lat="44.74200924276245" lon="11.996702425666637"><ele>-1.0</ele><time>2026-04-05T12:13:01.04Z</time></trkpt><trkpt lat="44.74196984189046" lon="11.997047495545077"><ele>-1.0</ele><time>2026-04-05T12:13:02.04Z</time></trkpt><trkpt lat="44.741928587029" lon="11.99738872004473"><ele>-1.0</ele><time>2026-04-05T12:13:03.04Z</time></trkpt><trkpt lat="44.74188903150312" lon="11.997723534070929"><ele>-0.5</ele><time>2026-04-05T12:13:04.04Z</time></trkpt><trkpt lat="44.74185105988223" lon="11.998057105468645"><ele>0.0</ele><time>2026-04-05T12:13:05.04Z</time></trkpt><trkpt lat="44.741801171820015" lon="11.998382222801844"><ele>0.0</ele><time>2026-04-05T12:13:06.04Z</time></trkpt><trkpt lat="44.7417391452269" lon="11.998705925478932"><ele>0.0</ele><time>2026-04-05T12:13:07.04Z</time></trkpt><trkpt lat="44.74169310116708" lon="11.999038958609116"><ele>0.0</ele><time>2026-04-05T12:13:08.04Z</time></trkpt><trkpt lat="44.741634169998626" lon="11.999364039499213"><ele>0.0</ele><time>2026-04-05T12:13:09.04Z</time></trkpt><trkpt lat="44.741561785485416" lon="11.99970631839786"><ele>0.0</ele><time>2026-04-05T12:13:10.04Z</time></trkpt><trkpt lat="44.74148780766554" lon="12.000041633317561"><ele>0.0</ele><time>2026-04-05T12:13:11.04Z</time></trkpt><trkpt lat="44.74141094108323" lon="12.000390041963382"><ele>0.0</ele><time>2026-04-05T12:13:12.04Z</time></trkpt><trkpt lat="44.741332414111795" lon="12.000745976554997"><ele>0.0</ele><time>2026-04-05T12:13:13.04Z</time></trkpt><trkpt lat="44.74126643770734" lon="12.001103620793307"><ele>-0.5</ele><time>2026-04-05T12:13:14.04Z</time></trkpt><trkpt lat="44.741187664594456" lon="12.001442412215933"><ele>-1.0</ele><time>2026-04-05T12:13:15.04Z</time></trkpt><trkpt lat="44.741104421502854" lon="12.001792505147979"><ele>-0.5</ele><time>2026-04-05T12:13:16.04Z</time></trkpt><trkpt lat="44.74102597550808" lon="12.002149942912455"><ele>0.0</ele><time>2026-04-05T12:13:17.04Z</time></trkpt><trkpt lat="44.740955353903445" lon="12.002508869443519"><ele>0.5</ele><time>2026-04-05T12:13:18.04Z</time></trkpt><trkpt lat="44.7408860062084" lon="12.002873924589764"><ele>1.0</ele><time>2026-04-05T12:13:19.04Z</time></trkpt><trkpt lat="44.74082000919422" lon="12.003243016368252"><ele>0.0</ele><time>2026-04-05T12:13:20.04Z</time></trkpt><trkpt lat="44.74075566324828" lon="12.003608357911048"><ele>-1.0</ele><time>2026-04-05T12:13:21.04Z</time></trkpt><trkpt lat="44.74069040651469" lon="12.00396828422852"><ele>-1.0</ele><time>2026-04-05T12:13:22.04Z</time></trkpt><trkpt lat="44.740623267952856" lon="12.004331265609308"><ele>-1.0</ele><time>2026-04-05T12:13:23.04Z</time></trkpt><trkpt lat="44.74055011476542" lon="12.004688267533037"><ele>-1.0</ele><time>2026-04-05T12:13:24.04Z</time></trkpt><trkpt lat="44.74048695309035" lon="12.00504201388952"><ele>-1.0</ele><time>2026-04-05T12:13:25.04Z</time></trkpt><trkpt lat="44.74041935088013" lon="12.005391421782331"><ele>-1.0</ele><time>2026-04-05T12:13:26.04Z</time></trkpt><trkpt lat="44.74035076891848" lon="12.005738694872498"><ele>-1.0</ele><time>2026-04-05T12:13:27.04Z</time></trkpt><trkpt lat="44.74028410280183" lon="12.00607928711691"><ele>-1.0</ele><time>2026-04-05T12:13:28.04Z</time></trkpt><trkpt lat="44.74022181477931" lon="12.006426483110545"><ele>-1.0</ele><time>2026-04-05T12:13:29.04Z</time></trkpt><trkpt lat="44.74015691208376" lon="12.006769067482676"><ele>-1.0</ele><time>2026-04-05T12:13:30.04Z</time></trkpt><trkpt lat="44.74007187763188" lon="12.007106372883866"><ele>-1.0</ele><time>2026-04-05T12:13:31.04Z</time></trkpt><trkpt lat="44.74002060058124" lon="12.007464565024518"><ele>-1.0</ele><time>2026-04-05T12:13:32.04Z</time></trkpt><trkpt lat="44.73997507850518" lon="12.007826123648544"><ele>-1.0</ele><time>2026-04-05T12:13:33.04Z</time></trkpt><trkpt lat="44.73994020355685" lon="12.00818868233666"><ele>-1.0</ele><time>2026-04-05T12:13:34.04Z</time></trkpt><trkpt lat="44.73991496263212" lon="12.008549554471058"><ele>-1.0</ele><time>2026-04-05T12:13:35.04Z</time></trkpt><trkpt lat="44.73989563218822" lon="12.008909590256925"><ele>-1.5</ele><time>2026-04-05T12:13:36.04Z</time></trkpt><trkpt lat="44.73987811950678" lon="12.009270866120419"><ele>-2.0</ele><time>2026-04-05T12:13:37.04Z</time></trkpt><trkpt lat="44.7398643280036" lon="12.009633716399323"><ele>-2.0</ele><time>2026-04-05T12:13:38.04Z</time></trkpt><trkpt lat="44.739855031567565" lon="12.009995359786547"><ele>-2.0</ele><time>2026-04-05T12:13:39.041Z</time></trkpt><trkpt lat="44.73985265233732" lon="12.010346507315512"><ele>-2.0</ele><time>2026-04-05T12:13:40.041Z</time></trkpt><trkpt lat="44.73985542978423" lon="12.010685551130349"><ele>-2.0</ele><time>2026-04-05T12:13:41.041Z</time></trkpt><trkpt lat="44.739876774867064" lon="12.011038178691605"><ele>-2.5</ele><time>2026-04-05T12:13:42.041Z</time></trkpt><trkpt lat="44.73990080616929" lon="12.011389589674625"><ele>-3.0</ele><time>2026-04-05T12:13:43.041Z</time></trkpt><trkpt lat="44.73992517833458" lon="12.011739632409428"><ele>-1.0</ele><time>2026-04-05T12:13:44.041Z</time></trkpt><trkpt lat="44.739948615928284" lon="12.012076252468825"><ele>1.0</ele><time>2026-04-05T12:13:45.041Z</time></trkpt><trkpt lat="44.73996987638931" lon="12.01240563363918"><ele>1.5</ele><time>2026-04-05T12:13:46.041Z</time></trkpt><trkpt lat="44.7399854912253" lon="12.012726278942228"><ele>2.0</ele><time>2026-04-05T12:13:47.041Z</time></trkpt><trkpt lat="44.739988029434706" lon="12.01305556467596"><ele>2.0</ele><time>2026-04-05T12:13:48.041Z</time></trkpt><trkpt lat="44.73997260068382" lon="12.013387825739398"><ele>2.0</ele><time>2026-04-05T12:13:49.041Z</time></trkpt><trkpt lat="44.73994936107108" lon="12.013718751298464"><ele>2.0</ele><time>2026-04-05T12:13:50.041Z</time></trkpt><trkpt lat="44.739925834953844" lon="12.014048161846732"><ele>2.0</ele><time>2026-04-05T12:13:51.041Z</time></trkpt><trkpt lat="44.73990191539653" lon="12.0143634049789"><ele>1.6666666666666665</ele><time>2026-04-05T12:13:52.041Z</time></trkpt><trkpt lat="44.73987553398248" lon="12.014659473466697"><ele>1.3333333333333333</ele><time>2026-04-05T12:13:53.041Z</time></trkpt><trkpt lat="44.739835341771105" lon="12.01493771391103"><ele>1.0</ele><time>2026-04-05T12:13:54.041Z</time></trkpt><trkpt lat="44.73977581407538" lon="12.01521645690945"><ele>0.3333333333333333</ele><time>2026-04-05T12:13:55.041Z</time></trkpt><trkpt lat="44.73969925452125" lon="12.015487559174023"><ele>-0.3333333333333333</ele><time>2026-04-05T12:13:56.041Z</time></trkpt><trkpt lat="44.73960530364457" lon="12.015743217428954"><ele>-1.0</ele><time>2026-04-05T12:13:57.041Z</time></trkpt><trkpt lat="44.739489621097505" lon="12.015983067362317"><ele>-1.0</ele><time>2026-04-05T12:13:58.041Z</time></trkpt><trkpt lat="44.73936438197433" lon="12.016228052281253"><ele>-1.0</ele><time>2026-04-05T12:13:59.041Z</time></trkpt><trkpt lat="44.739236744607915" lon="12.016476870464054"><ele>-1.0</ele><time>2026-04-05T12:14:00.041Z</time></trkpt><trkpt lat="44.739106907157385" lon="12.016730560103865"><ele>-1.0</ele><time>2026-04-05T12:14:01.041Z</time></trkpt><trkpt lat="44.73897186554565" lon="12.016994729452882"><ele>-1.0</ele><time>2026-04-05T12:14:02.041Z</time></trkpt><trkpt lat="44.73883426829215" lon="12.017263898110397"><ele>-1.0</ele><time>2026-04-05T12:14:03.041Z</time></trkpt><trkpt lat="44.738709358838086" lon="12.017547700088585"><ele>-1.0</ele><time>2026-04-05T12:14:04.041Z</time></trkpt><trkpt lat="44.73855132497598" lon="12.017819581986718"><ele>-1.0</ele><time>2026-04-05T12:14:05.041Z</time></trkpt><trkpt lat="44.738421270156685" lon="12.018122495304421"><ele>-1.0</ele><time>2026-04-05T12:14:06.041Z</time></trkpt><trkpt lat="44.738275117884754" lon="12.018417244346187"><ele>0.0</ele><time>2026-04-05T12:14:07.041Z</time></trkpt><trkpt lat="44.73812849966102" lon="12.018711668695534"><ele>1.0</ele><time>2026-04-05T12:14:08.041Z</time></trkpt><trkpt lat="44.737978869675025" lon="12.019008666134402"><ele>1.0</ele><time>2026-04-05T12:14:09.042Z</time></trkpt><trkpt lat="44.737826902356495" lon="12.01930704917008"><ele>1.0</ele><time>2026-04-05T12:14:10.042Z</time></trkpt><trkpt lat="44.737680994638865" lon="12.019603268088906"><ele>0.5</ele><time>2026-04-05T12:14:11.042Z</time></trkpt><trkpt lat="44.73753083546983" lon="12.019914688846274"><ele>0.0</ele><time>2026-04-05T12:14:12.042Z</time></trkpt><trkpt lat="44.73737958945292" lon="12.020221287686839"><ele>-0.5</ele><time>2026-04-05T12:14:13.042Z</time></trkpt><trkpt lat="44.737230199927666" lon="12.020526774967152"><ele>-1.0</ele><time>2026-04-05T12:14:14.042Z</time></trkpt><trkpt lat="44.73707244705129" lon="12.020837648930677"><ele>-1.0</ele><time>2026-04-05T12:14:15.042Z</time></trkpt><trkpt lat="44.73691399421217" lon="12.021143224571679"><ele>-1.0</ele><time>2026-04-05T12:14:16.042Z</time></trkpt><trkpt lat="44.73675576036647" lon="12.021451454460374"><ele>0.0</ele><time>2026-04-05T12:14:17.042Z</time></trkpt><trkpt lat="44.736597569246776" lon="12.021757005501762"><ele>1.0</ele><time>2026-04-05T12:14:18.042Z</time></trkpt><trkpt lat="44.736433008263866" lon="12.022053850478995"><ele>1.0</ele><time>2026-04-05T12:14:19.042Z</time></trkpt><trkpt lat="44.73627868834642" lon="12.022355847004215"><ele>1.0</ele><time>2026-04-05T12:14:20.042Z</time></trkpt><trkpt lat="44.736133331626036" lon="12.022665748393273"><ele>0.5</ele><time>2026-04-05T12:14:21.042Z</time></trkpt><trkpt lat="44.73600194418482" lon="12.02298307740489"><ele>0.0</ele><time>2026-04-05T12:14:22.042Z</time></trkpt><trkpt lat="44.73588166058278" lon="12.023311093862187"><ele>0.5</ele><time>2026-04-05T12:14:23.042Z</time></trkpt><trkpt lat="44.73577090531175" lon="12.023656517846437"><ele>1.0</ele><time>2026-04-05T12:14:24.042Z</time></trkpt><trkpt lat="44.73566516763621" lon="12.02399722545612"><ele>1.0</ele><time>2026-04-05T12:14:25.042Z</time></trkpt><trkpt lat="44.735557037333415" lon="12.024337175447323"><ele>1.0</ele><time>2026-04-05T12:14:26.042Z</time></trkpt><trkpt lat="44.73545618497993" lon="12.024672609146247"><ele>0.0</ele><time>2026-04-05T12:14:27.042Z</time></trkpt><trkpt lat="44.735357528628086" lon="12.025019995688194"><ele>-1.0</ele><time>2026-04-05T12:14:28.042Z</time></trkpt><trkpt lat="44.735252137939035" lon="12.025360675840592"><ele>0.0</ele><time>2026-04-05T12:14:29.042Z</time></trkpt><trkpt lat="44.73513707854219" lon="12.025697952550326"><ele>1.0</ele><time>2026-04-05T12:14:30.042Z</time></trkpt><trkpt lat="44.73501406998729" lon="12.02603528117031"><ele>1.0</ele><time>2026-04-05T12:14:31.042Z</time></trkpt><trkpt lat="44.73488699473189" lon="12.026365854672532"><ele>1.0</ele><time>2026-04-05T12:14:32.042Z</time></trkpt><trkpt lat="44.734772407206336" lon="12.026696752367839"><ele>0.0</ele><time>2026-04-05T12:14:33.042Z</time></trkpt><trkpt lat="44.73465403221574" lon="12.027031105079294"><ele>-1.0</ele><time>2026-04-05T12:14:34.042Z</time></trkpt><trkpt lat="44.73453216388959" lon="12.027370232606811"><ele>-1.0</ele><time>2026-04-05T12:14:35.042Z</time></trkpt><trkpt lat="44.734406406975836" lon="12.027713779870687"><ele>-1.0</ele><time>2026-04-05T12:14:36.042Z</time></trkpt><trkpt lat="44.73427472388912" lon="12.028054064025694"><ele>-1.0</ele><time>2026-04-05T12:14:37.042Z</time></trkpt><trkpt lat="44.734137271677845" lon="12.028386728459862"><ele>-1.0</ele><time>2026-04-05T12:14:38.042Z</time></trkpt><trkpt lat="44.73401380733207" lon="12.028730548620546"><ele>-1.0</ele><time>2026-04-05T12:14:39.042Z</time></trkpt><trkpt lat="44.733884957960086" lon="12.029078552874934"><ele>-1.0</ele><time>2026-04-05T12:14:40.042Z</time></trkpt><trkpt lat="44.733759142517115" lon="12.02942928488908"><ele>-1.0</ele><time>2026-04-05T12:14:41.042Z</time></trkpt><trkpt lat="44.73364002539528" lon="12.02978475074299"><ele>-1.0</ele><time>2026-04-05T12:14:42.042Z</time></trkpt><trkpt lat="44.733508695250066" lon="12.03014697783908"><ele>-1.0</ele><time>2026-04-05T12:14:43.042Z</time></trkpt><trkpt lat="44.733392003195306" lon="12.030499358540391"><ele>-1.0</ele><time>2026-04-05T12:14:44.042Z</time></trkpt><trkpt lat="44.73326982977076" lon="12.030863400975147"><ele>-1.0</ele><time>2026-04-05T12:14:45.042Z</time></trkpt><trkpt lat="44.733145216448946" lon="12.031231089781881"><ele>-1.0</ele><time>2026-04-05T12:14:46.042Z</time></trkpt><trkpt lat="44.733021940009785" lon="12.031595897418976"><ele>-2.0</ele><time>2026-04-05T12:14:47.042Z</time></trkpt><trkpt lat="44.73289475251323" lon="12.031947249810148"><ele>-3.0</ele><time>2026-04-05T12:14:48.042Z</time></trkpt><trkpt lat="44.732768050915936" lon="12.032301567096518"><ele>-2.5</ele><time>2026-04-05T12:14:49.042Z</time></trkpt><trkpt lat="44.73264617123731" lon="12.032658102383484"><ele>-2.0</ele><time>2026-04-05T12:14:50.042Z</time></trkpt><trkpt lat="44.73252589191955" lon="12.03301943937236"><ele>-2.5</ele><time>2026-04-05T12:14:51.042Z</time></trkpt><trkpt lat="44.73240959330252" lon="12.03338366694469"><ele>-3.0</ele><time>2026-04-05T12:14:52.042Z</time></trkpt><trkpt lat="44.73228909488739" lon="12.033745541305516"><ele>-3.0</ele><time>2026-04-05T12:14:53.042Z</time></trkpt><trkpt lat="44.73216284235531" lon="12.034109755921518"><ele>-3.0</ele><time>2026-04-05T12:14:54.042Z</time></trkpt><trkpt lat="44.732036715431974" lon="12.03447574377933"><ele>-2.5</ele><time>2026-04-05T12:14:55.042Z</time></trkpt><trkpt lat="44.73191193259321" lon="12.034836896983032"><ele>-2.0</ele><time>2026-04-05T12:14:56.042Z</time></trkpt><trkpt lat="44.731797698269666" lon="12.035187896551365"><ele>-2.5</ele><time>2026-04-05T12:14:57.042Z</time></trkpt><trkpt lat="44.731672671342345" lon="12.035551386890411"><ele>-3.0</ele><time>2026-04-05T12:14:58.042Z</time></trkpt><trkpt lat="44.7315520317647" lon="12.035913387136686"><ele>-3.0</ele><time>2026-04-05T12:14:59.042Z</time></trkpt><trkpt lat="44.7314230215154" lon="12.036269163601384"><ele>-3.0</ele><time>2026-04-05T12:15:00.042Z</time></trkpt><trkpt lat="44.731302222737284" lon="12.03663005703937"><ele>-3.0</ele><time>2026-04-05T12:15:01.042Z</time></trkpt><trkpt lat="44.731179269463226" lon="12.036993715810585"><ele>-3.0</ele><time>2026-04-05T12:15:02.042Z</time></trkpt><trkpt lat="44.73105398141718" lon="12.037353138610628"><ele>-2.5</ele><time>2026-04-05T12:15:03.042Z</time></trkpt><trkpt lat="44.73093326250931" lon="12.037708614462026"><ele>-2.0</ele><time>2026-04-05T12:15:04.042Z</time></trkpt><trkpt lat="44.73081304989462" lon="12.038053273257303"><ele>-2.0</ele><time>2026-04-05T12:15:05.042Z</time></trkpt><trkpt lat="44.73069872160761" lon="12.03837102709729"><ele>-2.0</ele><time>2026-04-05T12:15:06.042Z</time></trkpt><trkpt lat="44.73059838620483" lon="12.038672155185585"><ele>-2.0</ele><time>2026-04-05T12:15:07.042Z</time></trkpt><trkpt lat="44.73050037119633" lon="12.038945316141087"><ele>-2.0</ele><time>2026-04-05T12:15:08.042Z</time></trkpt><trkpt lat="44.73040617318747" lon="12.039205445067815"><ele>-2.0</ele><time>2026-04-05T12:15:09.042Z</time></trkpt><trkpt lat="44.73032193051811" lon="12.039448367077183"><ele>-1.6666666666666665</ele><time>2026-04-05T12:15:10.042Z</time></trkpt><trkpt lat="44.73024208588142" lon="12.03969477386859"><ele>-1.3333333333333333</ele><time>2026-04-05T12:15:11.042Z</time></trkpt><trkpt lat="44.73016452738317" lon="12.03993368434381"><ele>-1.0</ele><time>2026-04-05T12:15:12.042Z</time></trkpt><trkpt lat="44.730088112085376" lon="12.040170300215816"><ele>-0.6666666666666666</ele><time>2026-04-05T12:15:13.042Z</time></trkpt><trkpt lat="44.72999842597807" lon="12.040396049039522"><ele>-0.3333333333333333</ele><time>2026-04-05T12:15:14.042Z</time></trkpt><trkpt lat="44.729937818335664" lon="12.040618932995155"><ele>0.0</ele><time>2026-04-05T12:15:15.042Z</time></trkpt><trkpt lat="44.72987114181187" lon="12.040813875676463"><ele>0.25</ele><time>2026-04-05T12:15:16.042Z</time></trkpt><trkpt lat="44.72980982873651" lon="12.040992386369913"><ele>0.5</ele><time>2026-04-05T12:15:17.042Z</time></trkpt><trkpt lat="44.72975190204021" lon="12.041162402147227"><ele>0.75</ele><time>2026-04-05T12:15:18.042Z</time></trkpt><trkpt lat="44.72969170593714" lon="12.041316813702924"><ele>1.0</ele><time>2026-04-05T12:15:19.042Z</time></trkpt><trkpt lat="44.72964210469395" lon="12.04147033938509"><ele>1.0</ele><time>2026-04-05T12:15:20.042Z</time></trkpt><trkpt lat="44.72959267029094" lon="12.041628066632112"><ele>1.0</ele><time>2026-04-05T12:15:21.042Z</time></trkpt><trkpt lat="44.729506031459216" lon="12.041775737214673"><ele>1.0</ele><time>2026-04-05T12:15:22.042Z</time></trkpt><trkpt lat="44.72944821643896" lon="12.041944350358365"><ele>1.0</ele><time>2026-04-05T12:15:23.042Z</time></trkpt><trkpt lat="44.72933270272371" lon="12.042296410593195"><ele>0.6666666666666666</ele><time>2026-04-05T12:15:25.042Z</time></trkpt><trkpt lat="44.72926669406541" lon="12.042492735597557"><ele>0.3333333333333333</ele><time>2026-04-05T12:15:26.042Z</time></trkpt><trkpt lat="44.729197059155865" lon="12.042701272306031"><ele>0.0</ele><time>2026-04-05T12:15:27.042Z</time></trkpt><trkpt lat="44.729124916454765" lon="12.042921573033354"><ele>0.0</ele><time>2026-04-05T12:15:28.042Z</time></trkpt><trkpt lat="44.72905050047641" lon="12.043137419437347"><ele>0.0</ele><time>2026-04-05T12:15:29.042Z</time></trkpt><trkpt lat="44.72897484940946" lon="12.043359704196698"><ele>0.0</ele><time>2026-04-05T12:15:30.042Z</time></trkpt><trkpt lat="44.728896530208544" lon="12.04358577835763"><ele>-0.3333333333333333</ele><time>2026-04-05T12:15:31.042Z</time></trkpt><trkpt lat="44.72881868375916" lon="12.043815397057408"><ele>-0.6666666666666666</ele><time>2026-04-05T12:15:32.042Z</time></trkpt><trkpt lat="44.728740826253585" lon="12.044045387200851"><ele>-1.0</ele><time>2026-04-05T12:15:33.042Z</time></trkpt><trkpt lat="44.7286672372391" lon="12.044277496363597"><ele>-0.6666666666666666</ele><time>2026-04-05T12:15:34.042Z</time></trkpt><trkpt lat="44.728591143568174" lon="12.04450211600696"><ele>-0.3333333333333333</ele><time>2026-04-05T12:15:35.042Z</time></trkpt><trkpt lat="44.728516061809266" lon="12.044722687763402"><ele>0.0</ele><time>2026-04-05T12:15:36.042Z</time></trkpt><trkpt lat="44.72844529238354" lon="12.04494613221571"><ele>0.0</ele><time>2026-04-05T12:15:37.042Z</time></trkpt><trkpt lat="44.728373832332096" lon="12.045164903522592"><ele>0.0</ele><time>2026-04-05T12:15:38.042Z</time></trkpt><trkpt lat="44.728302625129245" lon="12.045387509036557"><ele>0.0</ele><time>2026-04-05T12:15:39.042Z</time></trkpt><trkpt lat="44.72823095016835" lon="12.045605050613673"><ele>0.5</ele><time>2026-04-05T12:15:40.042Z</time></trkpt><trkpt lat="44.72815653595409" lon="12.045821646659363"><ele>1.0</ele><time>2026-04-05T12:15:41.042Z</time></trkpt><trkpt lat="44.72799433503648" lon="12.046256182613732"><ele>1.0</ele><time>2026-04-05T12:15:43.042Z</time></trkpt><trkpt lat="44.72789082140031" lon="12.046471895430514"><ele>1.0</ele><time>2026-04-05T12:15:44.042Z</time></trkpt><trkpt lat="44.72778576157121" lon="12.046682389456796"><ele>1.0</ele><time>2026-04-05T12:15:45.042Z</time></trkpt><trkpt lat="44.72768251629172" lon="12.046884493868449"><ele>1.0</ele><time>2026-04-05T12:15:46.042Z</time></trkpt><trkpt lat="44.727571981597265" lon="12.047096103270958"><ele>1.0</ele><time>2026-04-05T12:15:47.042Z</time></trkpt><trkpt lat="44.727457683587694" lon="12.047301462086606"><ele>1.0</ele><time>2026-04-05T12:15:48.042Z</time></trkpt><trkpt lat="44.72734368656562" lon="12.047509905237373"><ele>1.0</ele><time>2026-04-05T12:15:49.042Z</time></trkpt><trkpt lat="44.727233321310436" lon="12.047722468785828"><ele>1.0</ele><time>2026-04-05T12:15:50.042Z</time></trkpt><trkpt lat="44.727124012797496" lon="12.04793865252196"><ele>1.0</ele><time>2026-04-05T12:15:51.042Z</time></trkpt><trkpt lat="44.72701633164712" lon="12.048155931366969"><ele>0.3333333333333333</ele><time>2026-04-05T12:15:52.042Z</time></trkpt><trkpt lat="44.7269096815107" lon="12.048372899268047"><ele>-0.3333333333333333</ele><time>2026-04-05T12:15:53.042Z</time></trkpt><trkpt lat="44.726802657562864" lon="12.048589267552833"><ele>-1.0</ele><time>2026-04-05T12:15:54.042Z</time></trkpt><trkpt lat="44.72669359293702" lon="12.048798261873474"><ele>-1.0</ele><time>2026-04-05T12:15:55.042Z</time></trkpt><trkpt lat="44.72658805426766" lon="12.049000357438967"><ele>-1.0</ele><time>2026-04-05T12:15:56.042Z</time></trkpt><trkpt lat="44.7264834185573" lon="12.049206597995292"><ele>-1.0</ele><time>2026-04-05T12:15:57.042Z</time></trkpt><trkpt lat="44.72637637624673" lon="12.049418606939268"><ele>-1.0</ele><time>2026-04-05T12:15:58.042Z</time></trkpt><trkpt lat="44.72627645143035" lon="12.049617491366583"><ele>-1.0</ele><time>2026-04-05T12:15:59.042Z</time></trkpt><trkpt lat="44.72616011959428" lon="12.049797945072688"><ele>-1.0</ele><time>2026-04-05T12:16:00.042Z</time></trkpt><trkpt lat="44.72605553883593" lon="12.050000676515937"><ele>-1.0</ele><time>2026-04-05T12:16:01.042Z</time></trkpt><trkpt lat="44.725953430265264" lon="12.050198174917451"><ele>-1.0</ele><time>2026-04-05T12:16:02.042Z</time></trkpt><trkpt lat="44.72585753401913" lon="12.050383670438299"><ele>-1.0</ele><time>2026-04-05T12:16:03.042Z</time></trkpt><trkpt lat="44.72579234779557" lon="12.050584245203545"><ele>-1.0</ele><time>2026-04-05T12:16:04.042Z</time></trkpt><trkpt lat="44.725704225844666" lon="12.050755926426518"><ele>-1.0</ele><time>2026-04-05T12:16:05.042Z</time></trkpt><trkpt lat="44.72561580399105" lon="12.050917197272717"><ele>-1.0</ele><time>2026-04-05T12:16:06.042Z</time></trkpt><trkpt lat="44.725529936849355" lon="12.051080115115536"><ele>-1.0</ele><time>2026-04-05T12:16:07.042Z</time></trkpt><trkpt lat="44.72545077190464" lon="12.051247015009984"><ele>-0.75</ele><time>2026-04-05T12:16:08.042Z</time></trkpt><trkpt lat="44.725368571046666" lon="12.051394385696566"><ele>-0.5</ele><time>2026-04-05T12:16:09.042Z</time></trkpt><trkpt lat="44.72528656493331" lon="12.051542819568972"><ele>-0.25</ele><time>2026-04-05T12:16:10.042Z</time></trkpt><trkpt lat="44.72520279374422" lon="12.051697287555763"><ele>0.0</ele><time>2026-04-05T12:16:11.042Z</time></trkpt><trkpt lat="44.725122952709064" lon="12.051853514945469"><ele>0.3333333333333333</ele><time>2026-04-05T12:16:12.043Z</time></trkpt><trkpt lat="44.7250373039608" lon="12.052027753918097"><ele>0.6666666666666666</ele><time>2026-04-05T12:16:13.043Z</time></trkpt><trkpt lat="44.72493675676679" lon="12.052218409579924"><ele>1.0</ele><time>2026-04-05T12:16:14.043Z</time></trkpt><trkpt lat="44.72483636461462" lon="12.05242613210139"><ele>0.0</ele><time>2026-04-05T12:16:15.044Z</time></trkpt><trkpt lat="44.72470309172214" lon="12.052669310585916"><ele>-1.0</ele><time>2026-04-05T12:16:16.044Z</time></trkpt><trkpt lat="44.72456732985946" lon="12.05291115149824"><ele>-2.0</ele><time>2026-04-05T12:16:17.044Z</time></trkpt><trkpt lat="44.72444644408415" lon="12.053142695506665"><ele>-1.3333333333333333</ele><time>2026-04-05T12:16:18.045Z</time></trkpt><trkpt lat="44.72430288619018" lon="12.053357797445639"><ele>-0.6666666666666666</ele><time>2026-04-05T12:16:19.045Z</time></trkpt><trkpt lat="44.72416940829655" lon="12.053608394928215"><ele>0.0</ele><time>2026-04-05T12:16:20.045Z</time></trkpt><trkpt lat="44.72403718125476" lon="12.053855560759736"><ele>0.0</ele><time>2026-04-05T12:16:21.044Z</time></trkpt><trkpt lat="44.72390515880089" lon="12.054100630074498"><ele>0.0</ele><time>2026-04-05T12:16:22.045Z</time></trkpt><trkpt lat="44.723782570790775" lon="12.05437516948926"><ele>0.0</ele><time>2026-04-05T12:16:23.045Z</time></trkpt><trkpt lat="44.72369233209377" lon="12.054638929469348"><ele>0.0</ele><time>2026-04-05T12:16:24.044Z</time></trkpt><trkpt lat="44.72363029394265" lon="12.054935637584892"><ele>0.0</ele><time>2026-04-05T12:16:25.044Z</time></trkpt><trkpt lat="44.72358826488915" lon="12.055251933541431"><ele>0.0</ele><time>2026-04-05T12:16:26.044Z</time></trkpt><trkpt lat="44.723553255689936" lon="12.05556830172842"><ele>-0.5</ele><time>2026-04-05T12:16:27.045Z</time></trkpt><trkpt lat="44.72352051617847" lon="12.055889234425706"><ele>-1.0</ele><time>2026-04-05T12:16:28.044Z</time></trkpt><trkpt lat="44.72348776090485" lon="12.05621032161572"><ele>-1.0</ele><time>2026-04-05T12:16:29.044Z</time></trkpt><trkpt lat="44.72345566076148" lon="12.05652498681045"><ele>-1.0</ele><time>2026-04-05T12:16:30.044Z</time></trkpt><trkpt lat="44.72347182832689" lon="12.056856107232905"><ele>-0.5</ele><time>2026-04-05T12:16:31.044Z</time></trkpt><trkpt lat="44.723438522032104" lon="12.057178835817592"><ele>0.0</ele><time>2026-04-05T12:16:32.044Z</time></trkpt><trkpt lat="44.723406782660085" lon="12.057502652284079"><ele>-1.0</ele><time>2026-04-05T12:16:33.044Z</time></trkpt><trkpt lat="44.72336902230053" lon="12.057832394545102"><ele>-2.0</ele><time>2026-04-05T12:16:34.044Z</time></trkpt><trkpt lat="44.723330772926424" lon="12.058173295196227"><ele>-1.5</ele><time>2026-04-05T12:16:35.044Z</time></trkpt><trkpt lat="44.72328531894224" lon="12.058525879525465"><ele>-1.0</ele><time>2026-04-05T12:16:36.044Z</time></trkpt><trkpt lat="44.723252175280535" lon="12.058872501646029"><ele>-2.0</ele><time>2026-04-05T12:16:37.044Z</time></trkpt><trkpt lat="44.72322020839625" lon="12.059230572954723"><ele>-3.0</ele><time>2026-04-05T12:16:38.044Z</time></trkpt><trkpt lat="44.723185025263255" lon="12.05958562537973"><ele>-2.5</ele><time>2026-04-05T12:16:39.044Z</time></trkpt><trkpt lat="44.723155517042905" lon="12.059955677422792"><ele>-2.0</ele><time>2026-04-05T12:16:40.044Z</time></trkpt><trkpt lat="44.723119907788664" lon="12.060308864629375"><ele>-2.0</ele><time>2026-04-05T12:16:41.044Z</time></trkpt><trkpt lat="44.72308644607469" lon="12.060667723101913"><ele>-2.0</ele><time>2026-04-05T12:16:42.044Z</time></trkpt><trkpt lat="44.72305312047198" lon="12.061009145198867"><ele>-1.5</ele><time>2026-04-05T12:16:43.044Z</time></trkpt><trkpt lat="44.723004960495416" lon="12.06133959044533"><ele>-1.0</ele><time>2026-04-05T12:16:44.045Z</time></trkpt><trkpt lat="44.72296794693202" lon="12.061651837721842"><ele>-1.0</ele><time>2026-04-05T12:16:45.045Z</time></trkpt><trkpt lat="44.722890793316935" lon="12.06193066132757"><ele>-1.0</ele><time>2026-04-05T12:16:46.045Z</time></trkpt><trkpt lat="44.72286115372007" lon="12.06220535449896"><ele>-1.0</ele><time>2026-04-05T12:16:47.045Z</time></trkpt><trkpt lat="44.72283356747652" lon="12.062461017696785"><ele>-1.6666666666666665</ele><time>2026-04-05T12:16:48.045Z</time></trkpt><trkpt lat="44.72280664245835" lon="12.062710552762553"><ele>-2.3333333333333335</ele><time>2026-04-05T12:16:49.045Z</time></trkpt><trkpt lat="44.7227807497185" lon="12.062954932160286"><ele>-3.0</ele><time>2026-04-05T12:16:50.045Z</time></trkpt><trkpt lat="44.72274336185173" lon="12.063208222463341"><ele>-2.6666666666666665</ele><time>2026-04-05T12:16:51.045Z</time></trkpt><trkpt lat="44.72272828793849" lon="12.063460922740724"><ele>-2.333333333333333</ele><time>2026-04-05T12:16:52.045Z</time></trkpt><trkpt lat="44.722706554007225" lon="12.0637125986457"><ele>-2.0</ele><time>2026-04-05T12:16:53.045Z</time></trkpt><trkpt lat="44.722675670556605" lon="12.063964398331935"><ele>-2.333333333333333</ele><time>2026-04-05T12:16:54.045Z</time></trkpt><trkpt lat="44.72266361438508" lon="12.064232666215053"><ele>-2.6666666666666665</ele><time>2026-04-05T12:16:55.045Z</time></trkpt><trkpt lat="44.72264087211616" lon="12.064491031641408"><ele>-3.0</ele><time>2026-04-05T12:16:56.045Z</time></trkpt><trkpt lat="44.722609440595726" lon="12.064756962268905"><ele>-2.3333333333333335</ele><time>2026-04-05T12:16:57.045Z</time></trkpt><trkpt lat="44.72256653481718" lon="12.0650297032083"><ele>-1.6666666666666665</ele><time>2026-04-05T12:16:58.045Z</time></trkpt><trkpt lat="44.72253599949335" lon="12.06531212686446"><ele>-1.0</ele><time>2026-04-05T12:16:59.045Z</time></trkpt><trkpt lat="44.722505328282764" lon="12.065595807345042"><ele>-0.6666666666666666</ele><time>2026-04-05T12:17:00.045Z</time></trkpt><trkpt lat="44.72247523280865" lon="12.065874162771951"><ele>-0.3333333333333333</ele><time>2026-04-05T12:17:01.045Z</time></trkpt><trkpt lat="44.722445628817574" lon="12.06615144067467"><ele>0.0</ele><time>2026-04-05T12:17:02.045Z</time></trkpt><trkpt lat="44.7224165611543" lon="12.066430467953227"><ele>0.0</ele><time>2026-04-05T12:17:03.045Z</time></trkpt><trkpt lat="44.72238680431846" lon="12.066716110832607"><ele>0.0</ele><time>2026-04-05T12:17:04.045Z</time></trkpt><trkpt lat="44.72235743225358" lon="12.066998060154367"><ele>0.0</ele><time>2026-04-05T12:17:05.045Z</time></trkpt><trkpt lat="44.72232753269365" lon="12.067285073021106"><ele>-0.6666666666666666</ele><time>2026-04-05T12:17:06.045Z</time></trkpt><trkpt lat="44.7222981874105" lon="12.067568575046863"><ele>-1.3333333333333333</ele><time>2026-04-05T12:17:07.045Z</time></trkpt><trkpt lat="44.72226772359749" lon="12.067863058562844"><ele>-2.0</ele><time>2026-04-05T12:17:08.045Z</time></trkpt><trkpt lat="44.72223598662098" lon="12.068169849358648"><ele>-3.0</ele><time>2026-04-05T12:17:09.045Z</time></trkpt><trkpt lat="44.72220247914883" lon="12.06849375492294"><ele>-4.0</ele><time>2026-04-05T12:17:10.045Z</time></trkpt><trkpt lat="44.7221677406429" lon="12.068825434150881"><ele>-3.5</ele><time>2026-04-05T12:17:11.045Z</time></trkpt><trkpt lat="44.72212884000177" lon="12.069195676158474"><ele>-3.0</ele><time>2026-04-05T12:17:12.045Z</time></trkpt><trkpt lat="44.72208625170428" lon="12.069601015887622"><ele>-2.5</ele><time>2026-04-05T12:17:13.045Z</time></trkpt><trkpt lat="44.72204277317601" lon="12.070014828511308"><ele>-2.0</ele><time>2026-04-05T12:17:14.045Z</time></trkpt><trkpt lat="44.72199884412221" lon="12.07043292907056"><ele>-2.5</ele><time>2026-04-05T12:17:15.045Z</time></trkpt><trkpt lat="44.72195430137093" lon="12.070855892885145"><ele>-3.0</ele><time>2026-04-05T12:17:16.045Z</time></trkpt><trkpt lat="44.72190949589921" lon="12.071278502513763"><ele>-2.0</ele><time>2026-04-05T12:17:17.045Z</time></trkpt><trkpt lat="44.721865179509734" lon="12.071696499087064"><ele>-1.0</ele><time>2026-04-05T12:17:18.045Z</time></trkpt><trkpt lat="44.721821144203524" lon="12.072111844416103"><ele>-1.0</ele><time>2026-04-05T12:17:19.045Z</time></trkpt><trkpt lat="44.7217756097042" lon="12.072541330321396"><ele>-1.0</ele><time>2026-04-05T12:17:20.045Z</time></trkpt><trkpt lat="44.72173164181082" lon="12.072962281788346"><ele>-1.0</ele><time>2026-04-05T12:17:21.045Z</time></trkpt><trkpt lat="44.72168741057972" lon="12.073386431512098"><ele>-1.0</ele><time>2026-04-05T12:17:22.045Z</time></trkpt><trkpt lat="44.72164342787254" lon="12.073808198065588"><ele>-1.0</ele><time>2026-04-05T12:17:23.045Z</time></trkpt><trkpt lat="44.72159925532442" lon="12.074231785150316"><ele>-1.0</ele><time>2026-04-05T12:17:24.045Z</time></trkpt><trkpt lat="44.721568926088665" lon="12.074644712769521"><ele>-0.5</ele><time>2026-04-05T12:17:25.045Z</time></trkpt><trkpt lat="44.72152024622581" lon="12.0750534974118"><ele>0.0</ele><time>2026-04-05T12:17:26.045Z</time></trkpt><trkpt lat="44.7214744074023" lon="12.075481248791249"><ele>-0.5</ele><time>2026-04-05T12:17:27.045Z</time></trkpt><trkpt lat="44.72143112439684" lon="12.075893390657264"><ele>-1.0</ele><time>2026-04-05T12:17:28.045Z</time></trkpt><trkpt lat="44.72139862994489" lon="12.076301192244236"><ele>-1.5</ele><time>2026-04-05T12:17:29.045Z</time></trkpt><trkpt lat="44.72135652984359" lon="12.07671416214763"><ele>-2.0</ele><time>2026-04-05T12:17:30.045Z</time></trkpt><trkpt lat="44.72132820161957" lon="12.077115270499029"><ele>-2.0</ele><time>2026-04-05T12:17:31.045Z</time></trkpt><trkpt lat="44.72129046238574" lon="12.077512881968204"><ele>-2.0</ele><time>2026-04-05T12:17:32.045Z</time></trkpt><trkpt lat="44.72124481858141" lon="12.077897675173364"><ele>-2.5</ele><time>2026-04-05T12:17:33.045Z</time></trkpt><trkpt lat="44.72119928785917" lon="12.078283197262863"><ele>-3.0</ele><time>2026-04-05T12:17:34.045Z</time></trkpt><trkpt lat="44.72116524850595" lon="12.078656390449321"><ele>-3.0</ele><time>2026-04-05T12:17:35.045Z</time></trkpt><trkpt lat="44.721121826973864" lon="12.079030291008177"><ele>-3.0</ele><time>2026-04-05T12:17:36.045Z</time></trkpt><trkpt lat="44.721080132295405" lon="12.079398764631566"><ele>-2.5</ele><time>2026-04-05T12:17:37.045Z</time></trkpt><trkpt lat="44.721036406893" lon="12.079768721890922"><ele>-2.0</ele><time>2026-04-05T12:17:38.045Z</time></trkpt><trkpt lat="44.72098457973789" lon="12.080125724035922"><ele>-1.5</ele><time>2026-04-05T12:17:39.045Z</time></trkpt><trkpt lat="44.72092421623227" lon="12.08048459614384"><ele>-1.0</ele><time>2026-04-05T12:17:40.045Z</time></trkpt><trkpt lat="44.7208608305504" lon="12.080841324092876"><ele>-1.0</ele><time>2026-04-05T12:17:41.045Z</time></trkpt><trkpt lat="44.72079348551735" lon="12.0811929431193"><ele>-1.0</ele><time>2026-04-05T12:17:42.045Z</time></trkpt><trkpt lat="44.72071485826791" lon="12.081538749685322"><ele>-2.0</ele><time>2026-04-05T12:17:43.045Z</time></trkpt><trkpt lat="44.720620618761075" lon="12.08187202831213"><ele>-3.0</ele><time>2026-04-05T12:17:44.045Z</time></trkpt><trkpt lat="44.72051645746834" lon="12.08220067022353"><ele>-3.0</ele><time>2026-04-05T12:17:45.045Z</time></trkpt><trkpt lat="44.72039394733956" lon="12.082518262821182"><ele>-3.0</ele><time>2026-04-05T12:17:46.045Z</time></trkpt><trkpt lat="44.72025835763872" lon="12.082830885795868"><ele>-2.5</ele><time>2026-04-05T12:17:47.045Z</time></trkpt><trkpt lat="44.72012737307625" lon="12.083140630711359"><ele>-2.0</ele><time>2026-04-05T12:17:48.045Z</time></trkpt><trkpt lat="44.71998270335704" lon="12.083446853692372"><ele>-2.0</ele><time>2026-04-05T12:17:49.045Z</time></trkpt><trkpt lat="44.71984256595834" lon="12.08374626022268"><ele>-2.0</ele><time>2026-04-05T12:17:50.045Z</time></trkpt><trkpt lat="44.719678723646744" lon="12.084047136736183"><ele>-2.0</ele><time>2026-04-05T12:17:51.045Z</time></trkpt><trkpt lat="44.719516324130225" lon="12.084345348296635"><ele>-2.0</ele><time>2026-04-05T12:17:52.045Z</time></trkpt><trkpt lat="44.7193415226453" lon="12.084642850844382"><ele>-2.0</ele><time>2026-04-05T12:17:53.045Z</time></trkpt><trkpt lat="44.71916861951227" lon="12.084931208538315"><ele>-2.0</ele><time>2026-04-05T12:17:54.045Z</time></trkpt><trkpt lat="44.71899152255326" lon="12.08521754869152"><ele>-2.0</ele><time>2026-04-05T12:17:55.045Z</time></trkpt><trkpt lat="44.718802038619344" lon="12.085504450135275"><ele>-2.0</ele><time>2026-04-05T12:17:56.045Z</time></trkpt><trkpt lat="44.71860984336018" lon="12.085787331323353"><ele>-1.5</ele><time>2026-04-05T12:17:57.045Z</time></trkpt><trkpt lat="44.71841859528129" lon="12.086063335126518"><ele>-1.0</ele><time>2026-04-05T12:17:58.045Z</time></trkpt><trkpt lat="44.718225382912344" lon="12.086339748393536"><ele>-1.0</ele><time>2026-04-05T12:17:59.045Z</time></trkpt><trkpt lat="44.71803120015135" lon="12.086618717939814"><ele>-1.0</ele><time>2026-04-05T12:18:00.045Z</time></trkpt><trkpt lat="44.717838627887794" lon="12.086891529245925"><ele>-1.0</ele><time>2026-04-05T12:18:01.045Z</time></trkpt><trkpt lat="44.71764482586227" lon="12.087165829760199"><ele>-1.0</ele><time>2026-04-05T12:18:02.045Z</time></trkpt><trkpt lat="44.71744884566934" lon="12.08742259843794"><ele>-1.0</ele><time>2026-04-05T12:18:03.045Z</time></trkpt><trkpt lat="44.717244608251015" lon="12.087673021815844"><ele>-1.0</ele><time>2026-04-05T12:18:04.045Z</time></trkpt><trkpt lat="44.71703328621179" lon="12.087921650850795"><ele>-1.0</ele><time>2026-04-05T12:18:05.045Z</time></trkpt><trkpt lat="44.71682284201417" lon="12.088154949751393"><ele>-1.0</ele><time>2026-04-05T12:18:06.045Z</time></trkpt><trkpt lat="44.71660424018437" lon="12.088393207804643"><ele>-1.0</ele><time>2026-04-05T12:18:07.045Z</time></trkpt><trkpt lat="44.716383888849826" lon="12.088617877297528"><ele>-1.0</ele><time>2026-04-05T12:18:08.045Z</time></trkpt><trkpt lat="44.71616013663624" lon="12.088838975551058"><ele>-1.5</ele><time>2026-04-05T12:18:09.045Z</time></trkpt><trkpt lat="44.71593398589584" lon="12.089045715647957"><ele>-2.0</ele><time>2026-04-05T12:18:10.045Z</time></trkpt><trkpt lat="44.715698593952006" lon="12.089223051633045"><ele>-2.0</ele><time>2026-04-05T12:18:11.045Z</time></trkpt><trkpt lat="44.715464317407495" lon="12.089382825712345"><ele>-2.0</ele><time>2026-04-05T12:18:12.045Z</time></trkpt><trkpt lat="44.71522953520831" lon="12.08953800970702"><ele>-2.0</ele><time>2026-04-05T12:18:13.045Z</time></trkpt><trkpt lat="44.7149992839538" lon="12.089688732058526"><ele>-2.0</ele><time>2026-04-05T12:18:14.045Z</time></trkpt><trkpt lat="44.71476883544205" lon="12.089825929142423"><ele>-1.5</ele><time>2026-04-05T12:18:15.045Z</time></trkpt><trkpt lat="44.71455142985075" lon="12.089965011367369"><ele>-1.0</ele><time>2026-04-05T12:18:16.045Z</time></trkpt><trkpt lat="44.71432940907023" lon="12.090091067365146"><ele>-1.0</ele><time>2026-04-05T12:18:17.045Z</time></trkpt><trkpt lat="44.71410970259173" lon="12.090208780631167"><ele>-1.0</ele><time>2026-04-05T12:18:18.045Z</time></trkpt><trkpt lat="44.71388520392384" lon="12.090347098223516"><ele>-1.0</ele><time>2026-04-05T12:18:19.045Z</time></trkpt><trkpt lat="44.71365226956897" lon="12.090490778986336"><ele>-1.0</ele><time>2026-04-05T12:18:20.045Z</time></trkpt><trkpt lat="44.71341838296254" lon="12.090636663465427"><ele>-1.5</ele><time>2026-04-05T12:18:21.047Z</time></trkpt><trkpt lat="44.71318059975683" lon="12.0907925973002"><ele>-2.0</ele><time>2026-04-05T12:18:22.047Z</time></trkpt><trkpt lat="44.71293834921333" lon="12.090947680399594"><ele>-2.0</ele><time>2026-04-05T12:18:23.047Z</time></trkpt><trkpt lat="44.71269606045692" lon="12.091099392648138"><ele>-2.0</ele><time>2026-04-05T12:18:24.047Z</time></trkpt><trkpt lat="44.71245922514908" lon="12.091246282684857"><ele>-2.0</ele><time>2026-04-05T12:18:25.047Z</time></trkpt><trkpt lat="44.71222298504237" lon="12.091391140963438"><ele>-2.0</ele><time>2026-04-05T12:18:26.047Z</time></trkpt><trkpt lat="44.71198243503967" lon="12.091549645100022"><ele>-2.0</ele><time>2026-04-05T12:18:27.046Z</time></trkpt><trkpt lat="44.711740984997526" lon="12.091705210433036"><ele>-2.0</ele><time>2026-04-05T12:18:28.046Z</time></trkpt><trkpt lat="44.71149776730601" lon="12.09186052408227"><ele>-2.0</ele><time>2026-04-05T12:18:29.046Z</time></trkpt><trkpt lat="44.711255985704625" lon="12.092011020482927"><ele>-2.0</ele><time>2026-04-05T12:18:30.046Z</time></trkpt><trkpt lat="44.711013471139886" lon="12.092167457372248"><ele>-2.0</ele><time>2026-04-05T12:18:31.047Z</time></trkpt><trkpt lat="44.710769113174386" lon="12.092341292689136"><ele>-2.0</ele><time>2026-04-05T12:18:32.047Z</time></trkpt><trkpt lat="44.7105221059335" lon="12.092516086212315"><ele>-2.0</ele><time>2026-04-05T12:18:33.047Z</time></trkpt><trkpt lat="44.710279021213964" lon="12.092663296321822"><ele>-2.0</ele><time>2026-04-05T12:18:34.047Z</time></trkpt><trkpt lat="44.710028171753386" lon="12.092824207983758"><ele>-2.0</ele><time>2026-04-05T12:18:35.047Z</time></trkpt><trkpt lat="44.70978855421377" lon="12.092978248874477"><ele>-2.0</ele><time>2026-04-05T12:18:36.047Z</time></trkpt><trkpt lat="44.70955575244703" lon="12.093152230421376"><ele>-1.0</ele><time>2026-04-05T12:18:37.047Z</time></trkpt><trkpt lat="44.70932416186704" lon="12.09328585349706"><ele>0.0</ele><time>2026-04-05T12:18:38.047Z</time></trkpt><trkpt lat="44.70907959875561" lon="12.093438473532787"><ele>0.0</ele><time>2026-04-05T12:18:39.047Z</time></trkpt><trkpt lat="44.70882819474536" lon="12.093605598496831"><ele>0.0</ele><time>2026-04-05T12:18:40.047Z</time></trkpt><trkpt lat="44.70858341955823" lon="12.093764121673196"><ele>0.5</ele><time>2026-04-05T12:18:41.047Z</time></trkpt><trkpt lat="44.708338066647876" lon="12.093913592890859"><ele>1.0</ele><time>2026-04-05T12:18:42.047Z</time></trkpt><trkpt lat="44.70809735230058" lon="12.094060373732376"><ele>0.5</ele><time>2026-04-05T12:18:43.047Z</time></trkpt><trkpt lat="44.70784569675871" lon="12.09422419036439"><ele>0.0</ele><time>2026-04-05T12:18:44.047Z</time></trkpt><trkpt lat="44.70760968830683" lon="12.094386804520482"><ele>0.0</ele><time>2026-04-05T12:18:45.047Z</time></trkpt><trkpt lat="44.707365133370345" lon="12.094542372717745"><ele>0.0</ele><time>2026-04-05T12:18:46.047Z</time></trkpt><trkpt lat="44.70712107492264" lon="12.094696131369927"><ele>0.5</ele><time>2026-04-05T12:18:47.047Z</time></trkpt><trkpt lat="44.70687688691796" lon="12.094868015064428"><ele>1.0</ele><time>2026-04-05T12:18:48.047Z</time></trkpt><trkpt lat="44.70661898437689" lon="12.0950202475567"><ele>-0.5</ele><time>2026-04-05T12:18:49.047Z</time></trkpt><trkpt lat="44.706364771352916" lon="12.095179234791093"><ele>-2.0</ele><time>2026-04-05T12:18:50.047Z</time></trkpt><trkpt lat="44.706115850917406" lon="12.095335098157847"><ele>-1.5</ele><time>2026-04-05T12:18:51.047Z</time></trkpt><trkpt lat="44.70586213065068" lon="12.095496426241453"><ele>-1.0</ele><time>2026-04-05T12:18:52.047Z</time></trkpt><trkpt lat="44.705621591246874" lon="12.095666646901888"><ele>-1.0</ele><time>2026-04-05T12:18:53.047Z</time></trkpt><trkpt lat="44.70536977499302" lon="12.09581767954371"><ele>-1.0</ele><time>2026-04-05T12:18:54.047Z</time></trkpt><trkpt lat="44.70511799975353" lon="12.095979696357627"><ele>-1.0</ele><time>2026-04-05T12:18:55.047Z</time></trkpt><trkpt lat="44.704869292576475" lon="12.09614730070882"><ele>-1.0</ele><time>2026-04-05T12:18:56.047Z</time></trkpt><trkpt lat="44.704616096062885" lon="12.096285806278376"><ele>-1.0</ele><time>2026-04-05T12:18:57.047Z</time></trkpt><trkpt lat="44.70437998657151" lon="12.096448934085673"><ele>-1.0</ele><time>2026-04-05T12:18:58.047Z</time></trkpt><trkpt lat="44.704137165941795" lon="12.096603902949317"><ele>-1.5</ele><time>2026-04-05T12:18:59.047Z</time></trkpt><trkpt lat="44.703895891174035" lon="12.096759183056815"><ele>-2.0</ele><time>2026-04-05T12:19:00.047Z</time></trkpt><trkpt lat="44.7036531924267" lon="12.096915115279167"><ele>-1.5</ele><time>2026-04-05T12:19:01.047Z</time></trkpt><trkpt lat="44.703415437475215" lon="12.097067822271999"><ele>-1.0</ele><time>2026-04-05T12:19:02.047Z</time></trkpt><trkpt lat="44.70317277345425" lon="12.097216143774068"><ele>-1.0</ele><time>2026-04-05T12:19:03.047Z</time></trkpt><trkpt lat="44.70293507940664" lon="12.097347483365272"><ele>-1.0</ele><time>2026-04-05T12:19:04.047Z</time></trkpt><trkpt lat="44.702706058674494" lon="12.097504306177349"><ele>-1.5</ele><time>2026-04-05T12:19:05.047Z</time></trkpt><trkpt lat="44.70249391952442" lon="12.097634500807228"><ele>-2.0</ele><time>2026-04-05T12:19:06.047Z</time></trkpt><trkpt lat="44.70228643249986" lon="12.097780735667639"><ele>-2.0</ele><time>2026-04-05T12:19:07.047Z</time></trkpt><trkpt lat="44.70209657918412" lon="12.0979670603447"><ele>-2.0</ele><time>2026-04-05T12:19:08.047Z</time></trkpt><trkpt lat="44.701928192185115" lon="12.098199406379093"><ele>-2.0</ele><time>2026-04-05T12:19:09.047Z</time></trkpt><trkpt lat="44.70177418326611" lon="12.09844561812019"><ele>-2.0</ele><time>2026-04-05T12:19:10.047Z</time></trkpt><trkpt lat="44.701602440293556" lon="12.098723650807479"><ele>-2.0</ele><time>2026-04-05T12:19:11.047Z</time></trkpt><trkpt lat="44.70142346496927" lon="12.099013391836708"><ele>-2.0</ele><time>2026-04-05T12:19:12.047Z</time></trkpt><trkpt lat="44.70124053319013" lon="12.099309537277634"><ele>-3.0</ele><time>2026-04-05T12:19:13.047Z</time></trkpt><trkpt lat="44.70106268385572" lon="12.099599838580566"><ele>-4.0</ele><time>2026-04-05T12:19:14.047Z</time></trkpt><trkpt lat="44.700886869785776" lon="12.099891335667602"><ele>-3.5</ele><time>2026-04-05T12:19:15.047Z</time></trkpt><trkpt lat="44.70070569382479" lon="12.10018616581098"><ele>-3.0</ele><time>2026-04-05T12:19:16.047Z</time></trkpt><trkpt lat="44.700528681779915" lon="12.100475775083561"><ele>-3.0</ele><time>2026-04-05T12:19:17.047Z</time></trkpt><trkpt lat="44.70035418396964" lon="12.100761551995024"><ele>-3.0</ele><time>2026-04-05T12:19:18.047Z</time></trkpt><trkpt lat="44.70019186183855" lon="12.101060114102276"><ele>-3.0</ele><time>2026-04-05T12:19:19.047Z</time></trkpt><trkpt lat="44.70000920449156" lon="12.101327866463889"><ele>-3.0</ele><time>2026-04-05T12:19:20.047Z</time></trkpt><trkpt lat="44.69983655041654" lon="12.10160318638459"><ele>-3.0</ele><time>2026-04-05T12:19:21.047Z</time></trkpt><trkpt lat="44.699671552901364" lon="12.101882423996534"><ele>-3.0</ele><time>2026-04-05T12:19:22.047Z</time></trkpt><trkpt lat="44.699500164011674" lon="12.102156130385396"><ele>-2.5</ele><time>2026-04-05T12:19:23.047Z</time></trkpt><trkpt lat="44.699332777434485" lon="12.10243313554112"><ele>-2.0</ele><time>2026-04-05T12:19:24.047Z</time></trkpt><trkpt lat="44.69917504196198" lon="12.102700172873982"><ele>-2.0</ele><time>2026-04-05T12:19:25.047Z</time></trkpt><trkpt lat="44.699008974676495" lon="12.102963748620024"><ele>-2.0</ele><time>2026-04-05T12:19:26.047Z</time></trkpt><trkpt lat="44.69885575223692" lon="12.103211277883124"><ele>-2.0</ele><time>2026-04-05T12:19:27.047Z</time></trkpt><trkpt lat="44.69871125414585" lon="12.103441042256646"><ele>-2.0</ele><time>2026-04-05T12:19:28.047Z</time></trkpt><trkpt lat="44.6985775145456" lon="12.103656083346248"><ele>-2.0</ele><time>2026-04-05T12:19:29.047Z</time></trkpt><trkpt lat="44.69845526462736" lon="12.103880725165798"><ele>-1.0</ele><time>2026-04-05T12:19:30.047Z</time></trkpt><trkpt lat="44.698346687396835" lon="12.104127972283237"><ele>0.0</ele><time>2026-04-05T12:19:31.047Z</time></trkpt><trkpt lat="44.69827351278554" lon="12.104400275831505"><ele>1.0</ele><time>2026-04-05T12:19:32.047Z</time></trkpt><trkpt lat="44.6982289767938" lon="12.104690660555152"><ele>0.5</ele><time>2026-04-05T12:19:33.047Z</time></trkpt><trkpt lat="44.698218337021366" lon="12.104999495577045"><ele>0.0</ele><time>2026-04-05T12:19:34.047Z</time></trkpt><trkpt lat="44.69822939205277" lon="12.105328001513822"><ele>0.0</ele><time>2026-04-05T12:19:35.047Z</time></trkpt><trkpt lat="44.69824270848574" lon="12.10566555661103"><ele>0.0</ele><time>2026-04-05T12:19:36.047Z</time></trkpt><trkpt lat="44.69825476851701" lon="12.10601599962599"><ele>0.5</ele><time>2026-04-05T12:19:37.047Z</time></trkpt><trkpt lat="44.698271191251024" lon="12.106372312546709"><ele>1.0</ele><time>2026-04-05T12:19:38.047Z</time></trkpt><trkpt lat="44.69828860643344" lon="12.106725462028983"><ele>1.0</ele><time>2026-04-05T12:19:39.047Z</time></trkpt><trkpt lat="44.69830285917264" lon="12.107075714220334"><ele>1.0</ele><time>2026-04-05T12:19:40.047Z</time></trkpt><trkpt lat="44.69832409904845" lon="12.107422609405525"><ele>0.0</ele><time>2026-04-05T12:19:41.047Z</time></trkpt><trkpt lat="44.69833530392243" lon="12.107749735644047"><ele>-1.0</ele><time>2026-04-05T12:19:42.047Z</time></trkpt><trkpt lat="44.69834806093577" lon="12.108067978000381"><ele>-1.3333333333333333</ele><time>2026-04-05T12:19:43.047Z</time></trkpt><trkpt lat="44.69835525676697" lon="12.108353943920935"><ele>-1.6666666666666665</ele><time>2026-04-05T12:19:44.047Z</time></trkpt><trkpt lat="44.69835844015327" lon="12.10860390936712"><ele>-2.0</ele><time>2026-04-05T12:19:45.047Z</time></trkpt><trkpt lat="44.69836265785472" lon="12.108827417229335"><ele>-2.0</ele><time>2026-04-05T12:19:46.047Z</time></trkpt><trkpt lat="44.698355886745894" lon="12.109025392037681"><ele>-2.0</ele><time>2026-04-05T12:19:47.047Z</time></trkpt><trkpt lat="44.698326806178535" lon="12.109185252386983"><ele>-2.0</ele><time>2026-04-05T12:19:48.047Z</time></trkpt><trkpt lat="44.69830319787899" lon="12.109323216055706"><ele>-2.0</ele><time>2026-04-05T12:19:49.047Z</time></trkpt><trkpt lat="44.69825123155073" lon="12.109418980838077"><ele>-2.0</ele><time>2026-04-05T12:19:50.047Z</time></trkpt><trkpt lat="44.69820314833028" lon="12.109512198206223"><ele>-2.2</ele><time>2026-04-05T12:19:51.047Z</time></trkpt><trkpt lat="44.69813905464915" lon="12.109610211136378"><ele>-2.4000000000000004</ele><time>2026-04-05T12:19:52.047Z</time></trkpt><trkpt lat="44.698084032249085" lon="12.109727835865046"><ele>-2.5999999999999996</ele><time>2026-04-05T12:19:53.047Z</time></trkpt><trkpt lat="44.69806793548602" lon="12.109846424073035"><ele>-2.8</ele><time>2026-04-05T12:19:54.047Z</time></trkpt><trkpt lat="44.6980858028164" lon="12.109996699555099"><ele>-3.0</ele><time>2026-04-05T12:19:55.047Z</time></trkpt><trkpt lat="44.69811089905164" lon="12.110146296694154"><ele>-3.0</ele><time>2026-04-05T12:19:56.047Z</time></trkpt><trkpt lat="44.69808728928774" lon="12.110318786020223"><ele>-3.0</ele><time>2026-04-05T12:19:57.047Z</time></trkpt><trkpt lat="44.69802058836709" lon="12.110512444895601"><ele>-3.0</ele><time>2026-04-05T12:19:58.047Z</time></trkpt><trkpt lat="44.69791007915941" lon="12.110713251907601"><ele>-3.333333333333333</ele><time>2026-04-05T12:19:59.047Z</time></trkpt><trkpt lat="44.697790008793554" lon="12.110939188533884"><ele>-3.6666666666666665</ele><time>2026-04-05T12:20:00.047Z</time></trkpt><trkpt lat="44.697644118959815" lon="12.11116082659152"><ele>-4.0</ele><time>2026-04-05T12:20:01.047Z</time></trkpt><trkpt lat="44.697524678019356" lon="12.111397957280836"><ele>-3.6666666666666665</ele><time>2026-04-05T12:20:02.047Z</time></trkpt><trkpt lat="44.69738896569974" lon="12.111636857189207"><ele>-3.333333333333333</ele><time>2026-04-05T12:20:03.047Z</time></trkpt><trkpt lat="44.69724840218629" lon="12.111861081394455"><ele>-3.0</ele><time>2026-04-05T12:20:04.047Z</time></trkpt><trkpt lat="44.697130099517956" lon="12.1121020375187"><ele>-3.0</ele><time>2026-04-05T12:20:05.047Z</time></trkpt><trkpt lat="44.69699525097852" lon="12.112328957295615"><ele>-3.0</ele><time>2026-04-05T12:20:06.047Z</time></trkpt><trkpt lat="44.69690023125012" lon="12.112579377431308"><ele>-3.0</ele><time>2026-04-05T12:20:07.047Z</time></trkpt><trkpt lat="44.69683102095884" lon="12.112803724526689"><ele>-1.6666666666666667</ele><time>2026-04-05T12:20:08.047Z</time></trkpt><trkpt lat="44.696796055047535" lon="12.113064889575961"><ele>-0.33333333333333337</ele><time>2026-04-05T12:20:09.047Z</time></trkpt><trkpt lat="44.69679432419017" lon="12.113340711684335"><ele>1.0</ele><time>2026-04-05T12:20:10.047Z</time></trkpt><trkpt lat="44.69682308841646" lon="12.113622175444164"><ele>1.3333333333333333</ele><time>2026-04-05T12:20:11.047Z</time></trkpt><trkpt lat="44.696884341748834" lon="12.113906656603447"><ele>1.6666666666666665</ele><time>2026-04-05T12:20:12.047Z</time></trkpt><trkpt lat="44.696964067629054" lon="12.114201582137314"><ele>2.0</ele><time>2026-04-05T12:20:13.047Z</time></trkpt><trkpt lat="44.69706751272053" lon="12.114474935683662"><ele>0.0</ele><time>2026-04-05T12:20:14.047Z</time></trkpt><trkpt lat="44.6971666178236" lon="12.114790252000155"><ele>-2.0</ele><time>2026-04-05T12:20:15.047Z</time></trkpt><trkpt lat="44.697267315153745" lon="12.11510729849122"><ele>-2.0</ele><time>2026-04-05T12:20:16.047Z</time></trkpt><trkpt lat="44.6973708916343" lon="12.115425487883236"><ele>-2.0</ele><time>2026-04-05T12:20:17.047Z</time></trkpt><trkpt lat="44.69746446950984" lon="12.115739725441342"><ele>-1.5</ele><time>2026-04-05T12:20:18.047Z</time></trkpt><trkpt lat="44.697557732762384" lon="12.116046549044414"><ele>-1.0</ele><time>2026-04-05T12:20:19.047Z</time></trkpt><trkpt lat="44.69765478053802" lon="12.116346301692431"><ele>-0.5</ele><time>2026-04-05T12:20:20.047Z</time></trkpt><trkpt lat="44.69774757401652" lon="12.116637705315272"><ele>0.0</ele><time>2026-04-05T12:20:21.047Z</time></trkpt><trkpt lat="44.697835590289394" lon="12.116939501324918"><ele>-1.0</ele><time>2026-04-05T12:20:22.047Z</time></trkpt><trkpt lat="44.69790282562042" lon="12.117251644934646"><ele>-2.0</ele><time>2026-04-05T12:20:23.047Z</time></trkpt><trkpt lat="44.69792476662838" lon="12.117599416037361"><ele>-2.0</ele><time>2026-04-05T12:20:24.047Z</time></trkpt><trkpt lat="44.69796689577309" lon="12.11795838916474"><ele>-2.0</ele><time>2026-04-05T12:20:25.047Z</time></trkpt><trkpt lat="44.69800827778413" lon="12.118324424013313"><ele>-2.0</ele><time>2026-04-05T12:20:26.047Z</time></trkpt><trkpt lat="44.69805047337863" lon="12.118697655334937"><ele>-2.0</ele><time>2026-04-05T12:20:27.048Z</time></trkpt><trkpt lat="44.69809256843892" lon="12.119069997138975"><ele>-2.0</ele><time>2026-04-05T12:20:28.049Z</time></trkpt><trkpt lat="44.698134803984445" lon="12.119438822054036"><ele>-2.0</ele><time>2026-04-05T12:20:29.049Z</time></trkpt><trkpt lat="44.69817702170138" lon="12.119806258375501"><ele>-1.5</ele><time>2026-04-05T12:20:30.049Z</time></trkpt><trkpt lat="44.698215856227215" lon="12.120154576040273"><ele>-1.0</ele><time>2026-04-05T12:20:31.049Z</time></trkpt><trkpt lat="44.69825434736679" lon="12.120499187912092"><ele>-1.0</ele><time>2026-04-05T12:20:32.049Z</time></trkpt><trkpt lat="44.69829185933844" lon="12.120840927218113"><ele>-1.0</ele><time>2026-04-05T12:20:33.049Z</time></trkpt><trkpt lat="44.69832956279225" lon="12.121184411183759"><ele>-1.0</ele><time>2026-04-05T12:20:34.049Z</time></trkpt><trkpt lat="44.69839580469955" lon="12.121519165877052"><ele>-1.0</ele><time>2026-04-05T12:20:35.049Z</time></trkpt><trkpt lat="44.69843718355454" lon="12.121857840843882"><ele>-1.0</ele><time>2026-04-05T12:20:36.049Z</time></trkpt><trkpt lat="44.698471441884614" lon="12.12218939105967"><ele>-1.0</ele><time>2026-04-05T12:20:37.049Z</time></trkpt><trkpt lat="44.69850540580403" lon="12.122514092769476"><ele>-1.3333333333333333</ele><time>2026-04-05T12:20:38.049Z</time></trkpt><trkpt lat="44.69852740379846" lon="12.12283447952835"><ele>-1.6666666666666665</ele><time>2026-04-05T12:20:39.049Z</time></trkpt><trkpt lat="44.69855572604619" lon="12.123139942670985"><ele>-2.0</ele><time>2026-04-05T12:20:40.049Z</time></trkpt><trkpt lat="44.69859639443498" lon="12.12345645718617"><ele>-2.0</ele><time>2026-04-05T12:20:41.049Z</time></trkpt><trkpt lat="44.69864001759864" lon="12.123742762969147"><ele>-2.0</ele><time>2026-04-05T12:20:42.049Z</time></trkpt><trkpt lat="44.69868775621952" lon="12.124029472559092"><ele>-2.0</ele><time>2026-04-05T12:20:43.049Z</time></trkpt><trkpt lat="44.69879276798935" lon="12.124317175223846"><ele>-2.0</ele><time>2026-04-05T12:20:44.049Z</time></trkpt><trkpt lat="44.69894101755882" lon="12.124554530436297"><ele>-2.0</ele><time>2026-04-05T12:20:45.049Z</time></trkpt><trkpt lat="44.699101022019526" lon="12.12479444234881"><ele>-1.5</ele><time>2026-04-05T12:20:46.049Z</time></trkpt><trkpt lat="44.699269744173115" lon="12.125031376796157"><ele>-1.0</ele><time>2026-04-05T12:20:47.049Z</time></trkpt><trkpt lat="44.69945137672466" lon="12.12528670423098"><ele>-1.5</ele><time>2026-04-05T12:20:48.049Z</time></trkpt><trkpt lat="44.69963685071445" lon="12.125543324731526"><ele>-2.0</ele><time>2026-04-05T12:20:49.049Z</time></trkpt><trkpt lat="44.699817705776624" lon="12.125797648862656"><ele>-2.0</ele><time>2026-04-05T12:20:50.049Z</time></trkpt><trkpt lat="44.69998396382016" lon="12.126038845696149"><ele>-2.0</ele><time>2026-04-05T12:20:51.049Z</time></trkpt><trkpt lat="44.70012617583308" lon="12.126287443373045"><ele>-2.0</ele><time>2026-04-05T12:20:52.049Z</time></trkpt><trkpt lat="44.7002617678354" lon="12.126506739253061"><ele>-2.0</ele><time>2026-04-05T12:20:53.049Z</time></trkpt><trkpt lat="44.700370655514114" lon="12.126722196008318"><ele>-2.0</ele><time>2026-04-05T12:20:54.049Z</time></trkpt><trkpt lat="44.70046378977309" lon="12.126929879232375"><ele>-2.6666666666666665</ele><time>2026-04-05T12:20:55.049Z</time></trkpt><trkpt lat="44.700501585593635" lon="12.127156553020844"><ele>-3.333333333333333</ele><time>2026-04-05T12:20:56.049Z</time></trkpt><trkpt lat="44.70050828339094" lon="12.127408146194579"><ele>-4.0</ele><time>2026-04-05T12:20:57.049Z</time></trkpt><trkpt lat="44.70051730059908" lon="12.127676702707062"><ele>-4.0</ele><time>2026-04-05T12:20:58.049Z</time></trkpt><trkpt lat="44.70050926951222" lon="12.12796660493543"><ele>-4.0</ele><time>2026-04-05T12:20:59.049Z</time></trkpt><trkpt lat="44.700449995422865" lon="12.128295638520303"><ele>-4.0</ele><time>2026-04-05T12:21:00.049Z</time></trkpt><trkpt lat="44.70039605006171" lon="12.128638564977718"><ele>-3.5</ele><time>2026-04-05T12:21:01.049Z</time></trkpt><trkpt lat="44.700345184892406" lon="12.128986120499988"><ele>-3.0</ele><time>2026-04-05T12:21:02.049Z</time></trkpt><trkpt lat="44.70027686252294" lon="12.12933978472477"><ele>-2.5</ele><time>2026-04-05T12:21:03.049Z</time></trkpt><trkpt lat="44.70023638512081" lon="12.129699316038232"><ele>-2.0</ele><time>2026-04-05T12:21:04.049Z</time></trkpt><trkpt lat="44.70019531371725" lon="12.130055858134085"><ele>-2.0</ele><time>2026-04-05T12:21:05.049Z</time></trkpt><trkpt lat="44.70016828546063" lon="12.130416863150344"><ele>-2.0</ele><time>2026-04-05T12:21:06.049Z</time></trkpt><trkpt lat="44.70012144650612" lon="12.130759067704792"><ele>-1.5</ele><time>2026-04-05T12:21:07.049Z</time></trkpt><trkpt lat="44.70007514244977" lon="12.131107698555127"><ele>-1.0</ele><time>2026-04-05T12:21:08.049Z</time></trkpt><trkpt lat="44.70001735695735" lon="12.131458560009415"><ele>-1.5</ele><time>2026-04-05T12:21:09.049Z</time></trkpt><trkpt lat="44.69996161175264" lon="12.131793888226582"><ele>-2.0</ele><time>2026-04-05T12:21:10.049Z</time></trkpt><trkpt lat="44.69992438795912" lon="12.132122059582647"><ele>-1.5</ele><time>2026-04-05T12:21:11.049Z</time></trkpt><trkpt lat="44.69988119980862" lon="12.132440160180346"><ele>-1.0</ele><time>2026-04-05T12:21:12.049Z</time></trkpt><trkpt lat="44.69984658916561" lon="12.132752892369068"><ele>-1.0</ele><time>2026-04-05T12:21:13.049Z</time></trkpt><trkpt lat="44.69979969017217" lon="12.13305726549141"><ele>-1.0</ele><time>2026-04-05T12:21:14.049Z</time></trkpt><trkpt lat="44.699766261841205" lon="12.133363783828388"><ele>-1.0</ele><time>2026-04-05T12:21:15.049Z</time></trkpt><trkpt lat="44.699732053138945" lon="12.133654104519376"><ele>-1.0</ele><time>2026-04-05T12:21:16.049Z</time></trkpt><trkpt lat="44.69970970936983" lon="12.133947695849594"><ele>-1.0</ele><time>2026-04-05T12:21:17.049Z</time></trkpt><trkpt lat="44.69973239163473" lon="12.134255581209995"><ele>-1.0</ele><time>2026-04-05T12:21:18.049Z</time></trkpt><trkpt lat="44.69976351146514" lon="12.13457549791932"><ele>-1.0</ele><time>2026-04-05T12:21:19.049Z</time></trkpt><trkpt lat="44.699816153440295" lon="12.134901570452097"><ele>-1.0</ele><time>2026-04-05T12:21:20.049Z</time></trkpt><trkpt lat="44.69987034897905" lon="12.135230036256646"><ele>-1.0</ele><time>2026-04-05T12:21:21.049Z</time></trkpt><trkpt lat="44.69992065622712" lon="12.135535788772799"><ele>-1.0</ele><time>2026-04-05T12:21:22.049Z</time></trkpt><trkpt lat="44.69997326396479" lon="12.13585120823945"><ele>-1.0</ele><time>2026-04-05T12:21:23.049Z</time></trkpt><trkpt lat="44.6999826252124" lon="12.136163541768248"><ele>-1.0</ele><time>2026-04-05T12:21:24.049Z</time></trkpt><trkpt lat="44.69999533197906" lon="12.136485695377512"><ele>-2.0</ele><time>2026-04-05T12:21:25.049Z</time></trkpt><trkpt lat="44.699989351518525" lon="12.136820319799599"><ele>-3.0</ele><time>2026-04-05T12:21:26.049Z</time></trkpt><trkpt lat="44.69995644521662" lon="12.137159820858015"><ele>-2.5</ele><time>2026-04-05T12:21:27.049Z</time></trkpt><trkpt lat="44.69993752078396" lon="12.137503095929969"><ele>-2.0</ele><time>2026-04-05T12:21:28.049Z</time></trkpt><trkpt lat="44.699879537289334" lon="12.137824429705088"><ele>-2.0</ele><time>2026-04-05T12:21:29.049Z</time></trkpt><trkpt lat="44.699866273640524" lon="12.138148366248155"><ele>-2.0</ele><time>2026-04-05T12:21:30.049Z</time></trkpt><trkpt lat="44.69985510345038" lon="12.13847047911162"><ele>-2.0</ele><time>2026-04-05T12:21:31.049Z</time></trkpt><trkpt lat="44.69985288600221" lon="12.13877368702724"><ele>-2.0</ele><time>2026-04-05T12:21:32.049Z</time></trkpt><trkpt lat="44.69987596643949" lon="12.139077335174338"><ele>-2.0</ele><time>2026-04-05T12:21:33.049Z</time></trkpt><trkpt lat="44.69993984266347" lon="12.139363765403159"><ele>-2.0</ele><time>2026-04-05T12:21:34.049Z</time></trkpt><trkpt lat="44.699994186545545" lon="12.139637397935987"><ele>-2.0</ele><time>2026-04-05T12:21:35.049Z</time></trkpt><trkpt lat="44.70007315634196" lon="12.139892537812763"><ele>-2.0</ele><time>2026-04-05T12:21:36.049Z</time></trkpt><trkpt lat="44.70019599340274" lon="12.140135754415777"><ele>-2.333333333333333</ele><time>2026-04-05T12:21:37.049Z</time></trkpt><trkpt lat="44.700341671361016" lon="12.140360695347036"><ele>-2.6666666666666665</ele><time>2026-04-05T12:21:38.049Z</time></trkpt><trkpt lat="44.70050331951825" lon="12.140570005140834"><ele>-3.0</ele><time>2026-04-05T12:21:39.049Z</time></trkpt><trkpt lat="44.7006595640422" lon="12.140796076023646"><ele>-3.0</ele><time>2026-04-05T12:21:40.049Z</time></trkpt><trkpt lat="44.70080949778281" lon="12.141041788131925"><ele>-3.0</ele><time>2026-04-05T12:21:41.049Z</time></trkpt><trkpt lat="44.70095462584842" lon="12.141300009312681"><ele>-3.0</ele><time>2026-04-05T12:21:42.049Z</time></trkpt><trkpt lat="44.701094733278225" lon="12.141571014268541"><ele>-3.0</ele><time>2026-04-05T12:21:43.049Z</time></trkpt><trkpt lat="44.70121620489492" lon="12.141853902296258"><ele>-3.0</ele><time>2026-04-05T12:21:44.049Z</time></trkpt><trkpt lat="44.701324797684656" lon="12.142149043414294"><ele>-3.0</ele><time>2026-04-05T12:21:45.049Z</time></trkpt><trkpt lat="44.7014228439959" lon="12.142450737339013"><ele>-3.0</ele><time>2026-04-05T12:21:46.049Z</time></trkpt><trkpt lat="44.70150783487952" lon="12.142741795142788"><ele>-3.0</ele><time>2026-04-05T12:21:47.049Z</time></trkpt><trkpt lat="44.70157691419584" lon="12.143015218857538"><ele>-3.0</ele><time>2026-04-05T12:21:48.05Z</time></trkpt><trkpt lat="44.701629146363814" lon="12.143270746129216"><ele>-3.0</ele><time>2026-04-05T12:21:49.05Z</time></trkpt><trkpt lat="44.701664732625886" lon="12.14351578062666"><ele>-3.0</ele><time>2026-04-05T12:21:50.05Z</time></trkpt><trkpt lat="44.70169069295839" lon="12.143757798329188"><ele>-3.0</ele><time>2026-04-05T12:21:51.05Z</time></trkpt><trkpt lat="44.701687115477924" lon="12.144004189102137"><ele>-3.666666666666667</ele><time>2026-04-05T12:21:52.05Z</time></trkpt><trkpt lat="44.701668622073896" lon="12.144256176969721"><ele>-4.333333333333334</ele><time>2026-04-05T12:21:53.05Z</time></trkpt><trkpt lat="44.70163574929525" lon="12.144510832898119"><ele>-5.0</ele><time>2026-04-05T12:21:54.05Z</time></trkpt><trkpt lat="44.70160316142816" lon="12.144773718531358"><ele>-5.0</ele><time>2026-04-05T12:21:55.05Z</time></trkpt><trkpt lat="44.701557611113245" lon="12.14502163398071"><ele>-5.0</ele><time>2026-04-05T12:21:56.05Z</time></trkpt><trkpt lat="44.701517334271514" lon="12.145253074372095"><ele>-5.0</ele><time>2026-04-05T12:21:57.05Z</time></trkpt><trkpt lat="44.70145974507805" lon="12.145499031236438"><ele>-4.666666666666667</ele><time>2026-04-05T12:21:58.05Z</time></trkpt><trkpt lat="44.701389613975486" lon="12.145732701393014"><ele>-4.333333333333333</ele><time>2026-04-05T12:21:59.05Z</time></trkpt><trkpt lat="44.701313497518214" lon="12.145974677887203"><ele>-4.0</ele><time>2026-04-05T12:22:00.05Z</time></trkpt><trkpt lat="44.701258195490034" lon="12.146225043757665"><ele>-4.0</ele><time>2026-04-05T12:22:01.05Z</time></trkpt><trkpt lat="44.70121334966951" lon="12.146480989750174"><ele>-4.0</ele><time>2026-04-05T12:22:02.049Z</time></trkpt><trkpt lat="44.70116444463428" lon="12.146717720335495"><ele>-4.0</ele><time>2026-04-05T12:22:03.048Z</time></trkpt><trkpt lat="44.70115082581807" lon="12.146972399228645"><ele>-4.0</ele><time>2026-04-05T12:22:04.048Z</time></trkpt><trkpt lat="44.701136104112166" lon="12.147234310995229"><ele>-4.0</ele><time>2026-04-05T12:22:05.047Z</time></trkpt><trkpt lat="44.70113171258787" lon="12.14753590663093"><ele>-4.0</ele><time>2026-04-05T12:22:06.047Z</time></trkpt><trkpt lat="44.70113680025662" lon="12.147856662842187"><ele>-4.0</ele><time>2026-04-05T12:22:07.046Z</time></trkpt><trkpt lat="44.7011187752819" lon="12.148162578344703"><ele>-4.0</ele><time>2026-04-05T12:22:08.046Z</time></trkpt><trkpt lat="44.701129365543174" lon="12.148466109298273"><ele>-4.0</ele><time>2026-04-05T12:22:09.046Z</time></trkpt><trkpt lat="44.701106783647475" lon="12.14877758612468"><ele>-3.333333333333333</ele><time>2026-04-05T12:22:10.045Z</time></trkpt><trkpt lat="44.70107568031115" lon="12.14907722001527"><ele>-2.6666666666666665</ele><time>2026-04-05T12:22:11.045Z</time></trkpt><trkpt lat="44.70102544281805" lon="12.149380065797725"><ele>-2.0</ele><time>2026-04-05T12:22:12.045Z</time></trkpt><trkpt lat="44.70096818089447" lon="12.14967121417578"><ele>-2.0</ele><time>2026-04-05T12:22:13.044Z</time></trkpt><trkpt lat="44.70090861718204" lon="12.14997605972093"><ele>-2.0</ele><time>2026-04-05T12:22:14.044Z</time></trkpt><trkpt lat="44.700860944826154" lon="12.150284675300929"><ele>-2.0</ele><time>2026-04-05T12:22:15.044Z</time></trkpt><trkpt lat="44.70083067231827" lon="12.150590651855243"><ele>-2.333333333333333</ele><time>2026-04-05T12:22:16.044Z</time></trkpt><trkpt lat="44.70080726421471" lon="12.150882640149586"><ele>-2.6666666666666665</ele><time>2026-04-05T12:22:17.043Z</time></trkpt><trkpt lat="44.70078313255034" lon="12.15118202674143"><ele>-3.0</ele><time>2026-04-05T12:22:18.043Z</time></trkpt><trkpt lat="44.70075334147035" lon="12.151456604712223"><ele>-3.333333333333333</ele><time>2026-04-05T12:22:19.043Z</time></trkpt><trkpt lat="44.70071840103251" lon="12.151727235189108"><ele>-3.6666666666666665</ele><time>2026-04-05T12:22:20.043Z</time></trkpt><trkpt lat="44.700676627933895" lon="12.151990343594312"><ele>-4.0</ele><time>2026-04-05T12:22:21.042Z</time></trkpt><trkpt lat="44.700635542044665" lon="12.152239306102977"><ele>-3.6666666666666665</ele><time>2026-04-05T12:22:22.042Z</time></trkpt><trkpt lat="44.70060934979817" lon="12.15247557351492"><ele>-3.333333333333333</ele><time>2026-04-05T12:22:23.042Z</time></trkpt><trkpt lat="44.700545578354" lon="12.15271420834607"><ele>-3.0</ele><time>2026-04-05T12:22:24.042Z</time></trkpt><trkpt lat="44.70050009578153" lon="12.152959107996335"><ele>-2.6666666666666665</ele><time>2026-04-05T12:22:25.042Z</time></trkpt><trkpt lat="44.70046069180154" lon="12.153208601838237"><ele>-2.333333333333333</ele><time>2026-04-05T12:22:26.042Z</time></trkpt><trkpt lat="44.700417130445054" lon="12.153468179379473"><ele>-2.0</ele><time>2026-04-05T12:22:27.042Z</time></trkpt><trkpt lat="44.700362070434004" lon="12.153733966095267"><ele>-2.0</ele><time>2026-04-05T12:22:28.042Z</time></trkpt><trkpt lat="44.70030285659703" lon="12.154006212199231"><ele>-2.0</ele><time>2026-04-05T12:22:29.041Z</time></trkpt><trkpt lat="44.70025086266304" lon="12.15430153385646"><ele>-2.0</ele><time>2026-04-05T12:22:30.041Z</time></trkpt><trkpt lat="44.70018120681919" lon="12.154607088001013"><ele>-1.5</ele><time>2026-04-05T12:22:31.041Z</time></trkpt><trkpt lat="44.70009632450715" lon="12.154919402358825"><ele>-1.0</ele><time>2026-04-05T12:22:32.041Z</time></trkpt><trkpt lat="44.699981636789744" lon="12.15523464559244"><ele>-1.0</ele><time>2026-04-05T12:22:33.043Z</time></trkpt><trkpt lat="44.69986104424207" lon="12.155543575694383"><ele>-1.0</ele><time>2026-04-05T12:22:34.042Z</time></trkpt><trkpt lat="44.69974818173772" lon="12.155862614759354"><ele>-2.0</ele><time>2026-04-05T12:22:35.042Z</time></trkpt><trkpt lat="44.699625697649296" lon="12.156177266895266"><ele>-3.0</ele><time>2026-04-05T12:22:36.042Z</time></trkpt><trkpt lat="44.69951131779769" lon="12.156498321234062"><ele>-1.5</ele><time>2026-04-05T12:22:37.043Z</time></trkpt><trkpt lat="44.69940048737921" lon="12.156819147773984"><ele>0.0</ele><time>2026-04-05T12:22:38.043Z</time></trkpt><trkpt lat="44.69928740202389" lon="12.157139805205253"><ele>0.0</ele><time>2026-04-05T12:22:39.042Z</time></trkpt><trkpt lat="44.699176823891136" lon="12.157460644912486"><ele>0.0</ele><time>2026-04-05T12:22:40.042Z</time></trkpt><trkpt lat="44.6990608136014" lon="12.157779374889815"><ele>0.0</ele><time>2026-04-05T12:22:41.042Z</time></trkpt><trkpt lat="44.698950427678874" lon="12.158085257164261"><ele>0.0</ele><time>2026-04-05T12:22:42.042Z</time></trkpt><trkpt lat="44.698844546959975" lon="12.158389611926257"><ele>-1.0</ele><time>2026-04-05T12:22:43.042Z</time></trkpt><trkpt lat="44.69873449339215" lon="12.158692448287912"><ele>-2.0</ele><time>2026-04-05T12:22:44.042Z</time></trkpt><trkpt lat="44.69862689318709" lon="12.158988787309095"><ele>-1.3333333333333333</ele><time>2026-04-05T12:22:45.042Z</time></trkpt><trkpt lat="44.6985252206202" lon="12.159273695050464"><ele>-0.6666666666666666</ele><time>2026-04-05T12:22:46.042Z</time></trkpt><trkpt lat="44.698427083871174" lon="12.159542851454043"><ele>0.0</ele><time>2026-04-05T12:22:47.042Z</time></trkpt><trkpt lat="44.69833514321067" lon="12.1598004412115"><ele>-0.6666666666666666</ele><time>2026-04-05T12:22:48.042Z</time></trkpt><trkpt lat="44.698254346984605" lon="12.160052084946381"><ele>-1.3333333333333333</ele><time>2026-04-05T12:22:49.041Z</time></trkpt><trkpt lat="44.698194363102594" lon="12.160296775852123"><ele>-2.0</ele><time>2026-04-05T12:22:50.041Z</time></trkpt><trkpt lat="44.6981619463141" lon="12.160561617211979"><ele>-2.0</ele><time>2026-04-05T12:22:51.041Z</time></trkpt><trkpt lat="44.698153734131814" lon="12.160845499360386"><ele>-2.0</ele><time>2026-04-05T12:22:52.041Z</time></trkpt><trkpt lat="44.69816131878017" lon="12.161150844840002"><ele>-2.0</ele><time>2026-04-05T12:22:53.041Z</time></trkpt><trkpt lat="44.69820211675853" lon="12.161468200622751"><ele>-2.0</ele><time>2026-04-05T12:22:54.041Z</time></trkpt><trkpt lat="44.6982513578232" lon="12.161790478982532"><ele>-2.0</ele><time>2026-04-05T12:22:55.041Z</time></trkpt><trkpt lat="44.69829999503076" lon="12.162115020762428"><ele>-2.5</ele><time>2026-04-05T12:22:56.041Z</time></trkpt><trkpt lat="44.69835221879693" lon="12.162443616870219"><ele>-3.0</ele><time>2026-04-05T12:22:57.041Z</time></trkpt><trkpt lat="44.69840589712054" lon="12.162775976244296"><ele>-3.0</ele><time>2026-04-05T12:22:58.041Z</time></trkpt><trkpt lat="44.69845172875026" lon="12.163115754437497"><ele>-3.0</ele><time>2026-04-05T12:22:59.041Z</time></trkpt><trkpt lat="44.698506694582285" lon="12.163448750015839"><ele>-2.5</ele><time>2026-04-05T12:23:00.041Z</time></trkpt><trkpt lat="44.698560688866046" lon="12.163775637872897"><ele>-2.0</ele><time>2026-04-05T12:23:01.041Z</time></trkpt><trkpt lat="44.698608121536175" lon="12.164100916363509"><ele>-2.0</ele><time>2026-04-05T12:23:02.041Z</time></trkpt><trkpt lat="44.698657638438966" lon="12.164420723287144"><ele>-2.0</ele><time>2026-04-05T12:23:03.041Z</time></trkpt><trkpt lat="44.69869976719002" lon="12.164723155528675"><ele>-1.3333333333333333</ele><time>2026-04-05T12:23:04.041Z</time></trkpt><trkpt lat="44.69873859507845" lon="12.16501567084644"><ele>-0.6666666666666666</ele><time>2026-04-05T12:23:05.041Z</time></trkpt><trkpt lat="44.69877684918822" lon="12.165295370895892"><ele>0.0</ele><time>2026-04-05T12:23:06.041Z</time></trkpt><trkpt lat="44.698821415310555" lon="12.165557229292837"><ele>0.3333333333333333</ele><time>2026-04-05T12:23:07.041Z</time></trkpt><trkpt lat="44.698862519340125" lon="12.16581347232335"><ele>0.6666666666666666</ele><time>2026-04-05T12:23:08.041Z</time></trkpt><trkpt lat="44.69890610050341" lon="12.166067725615697"><ele>1.0</ele><time>2026-04-05T12:23:09.041Z</time></trkpt><trkpt lat="44.698944150582065" lon="12.16632304650678"><ele>1.0</ele><time>2026-04-05T12:23:10.041Z</time></trkpt><trkpt lat="44.69898152690996" lon="12.166587111796744"><ele>1.0</ele><time>2026-04-05T12:23:11.041Z</time></trkpt><trkpt lat="44.699022753661545" lon="12.166847318716433"><ele>1.0</ele><time>2026-04-05T12:23:12.041Z</time></trkpt><trkpt lat="44.69905613450473" lon="12.167108317410461"><ele>1.0</ele><time>2026-04-05T12:23:13.041Z</time></trkpt><trkpt lat="44.69909198908507" lon="12.167372459323751"><ele>1.0</ele><time>2026-04-05T12:23:14.041Z</time></trkpt><trkpt lat="44.69912326633025" lon="12.167633002010403"><ele>1.0</ele><time>2026-04-05T12:23:15.041Z</time></trkpt><trkpt lat="44.699155265892685" lon="12.16789897813722"><ele>1.0</ele><time>2026-04-05T12:23:16.041Z</time></trkpt><trkpt lat="44.699189988739064" lon="12.168161640941841"><ele>1.0</ele><time>2026-04-05T12:23:17.041Z</time></trkpt><trkpt lat="44.699224213955695" lon="12.168420183432293"><ele>1.0</ele><time>2026-04-05T12:23:18.041Z</time></trkpt><trkpt lat="44.69924373811354" lon="12.168677319136968"><ele>1.0</ele><time>2026-04-05T12:23:19.041Z</time></trkpt><trkpt lat="44.69925575268789" lon="12.16893674015685"><ele>1.0</ele><time>2026-04-05T12:23:20.041Z</time></trkpt><trkpt lat="44.69925170392286" lon="12.169191674039265"><ele>1.0</ele><time>2026-04-05T12:23:21.041Z</time></trkpt><trkpt lat="44.69922750787839" lon="12.169450101387522"><ele>1.0</ele><time>2026-04-05T12:23:22.041Z</time></trkpt><trkpt lat="44.69918629897394" lon="12.16970328290537"><ele>1.0</ele><time>2026-04-05T12:23:23.041Z</time></trkpt><trkpt lat="44.69912664250065" lon="12.169947699419914"><ele>1.0</ele><time>2026-04-05T12:23:24.041Z</time></trkpt><trkpt lat="44.69905605768471" lon="12.17019287287487"><ele>1.0</ele><time>2026-04-05T12:23:25.041Z</time></trkpt><trkpt lat="44.69896765905697" lon="12.170438244659605"><ele>1.0</ele><time>2026-04-05T12:23:26.041Z</time></trkpt><trkpt lat="44.69887978059125" lon="12.170675242161979"><ele>1.0</ele><time>2026-04-05T12:23:27.041Z</time></trkpt><trkpt lat="44.69879616825238" lon="12.170912097808765"><ele>0.6666666666666666</ele><time>2026-04-05T12:23:28.041Z</time></trkpt><trkpt lat="44.69870777494821" lon="12.171156309980724"><ele>0.3333333333333333</ele><time>2026-04-05T12:23:29.041Z</time></trkpt><trkpt lat="44.698631403996956" lon="12.171399240048023"><ele>0.0</ele><time>2026-04-05T12:23:30.041Z</time></trkpt><trkpt lat="44.69855215593482" lon="12.171633258594444"><ele>-0.3333333333333333</ele><time>2026-04-05T12:23:31.041Z</time></trkpt><trkpt lat="44.698471552103534" lon="12.171862521125757"><ele>-0.6666666666666666</ele><time>2026-04-05T12:23:32.041Z</time></trkpt><trkpt lat="44.69839097119174" lon="12.172099737157767"><ele>-1.0</ele><time>2026-04-05T12:23:33.041Z</time></trkpt><trkpt lat="44.69830508276004" lon="12.172321836514735"><ele>-1.0</ele><time>2026-04-05T12:23:34.041Z</time></trkpt><trkpt lat="44.69822620372848" lon="12.172552877405122"><ele>-1.0</ele><time>2026-04-05T12:23:35.041Z</time></trkpt><trkpt lat="44.69813678869942" lon="12.172792289980167"><ele>-1.0</ele><time>2026-04-05T12:23:36.041Z</time></trkpt><trkpt lat="44.69804770420198" lon="12.173021547153"><ele>-1.0</ele><time>2026-04-05T12:23:37.041Z</time></trkpt><trkpt lat="44.69795147693557" lon="12.173262583553958"><ele>-1.0</ele><time>2026-04-05T12:23:38.041Z</time></trkpt><trkpt lat="44.69785358281751" lon="12.173506605394339"><ele>-1.0</ele><time>2026-04-05T12:23:39.041Z</time></trkpt><trkpt lat="44.69772776501809" lon="12.1737236830921"><ele>-1.0</ele><time>2026-04-05T12:23:40.041Z</time></trkpt><trkpt lat="44.697600982207526" lon="12.173938621178117"><ele>-1.0</ele><time>2026-04-05T12:23:41.041Z</time></trkpt><trkpt lat="44.69746945472123" lon="12.174141212665454"><ele>-1.0</ele><time>2026-04-05T12:23:42.041Z</time></trkpt><trkpt lat="44.69733900005848" lon="12.174348129536522"><ele>-0.6666666666666666</ele><time>2026-04-05T12:23:43.041Z</time></trkpt><trkpt lat="44.69720948151575" lon="12.174551656804665"><ele>-0.3333333333333333</ele><time>2026-04-05T12:23:44.041Z</time></trkpt><trkpt lat="44.69708280217581" lon="12.174752972228077"><ele>0.0</ele><time>2026-04-05T12:23:45.041Z</time></trkpt><trkpt lat="44.696959908847575" lon="12.174954129886663"><ele>0.0</ele><time>2026-04-05T12:23:46.041Z</time></trkpt><trkpt lat="44.69683868090206" lon="12.175152332611228"><ele>0.0</ele><time>2026-04-05T12:23:47.041Z</time></trkpt><trkpt lat="44.696726460485465" lon="12.175348829114412"><ele>0.0</ele><time>2026-04-05T12:23:48.041Z</time></trkpt><trkpt lat="44.69661205630569" lon="12.17554188796956"><ele>0.0</ele><time>2026-04-05T12:23:49.041Z</time></trkpt><trkpt lat="44.69651259438681" lon="12.175706364639316"><ele>0.0</ele><time>2026-04-05T12:23:50.041Z</time></trkpt><trkpt lat="44.69643591364432" lon="12.175834838361371"><ele>0.0</ele><time>2026-04-05T12:23:51.041Z</time></trkpt><trkpt lat="44.69636113979889" lon="12.17595109904216"><ele>0.0</ele><time>2026-04-05T12:23:52.041Z</time></trkpt><trkpt lat="44.69630148265086" lon="12.176051716022346"><ele>0.0</ele><time>2026-04-05T12:23:53.041Z</time></trkpt><trkpt lat="44.69623076939535" lon="12.17616242099123"><ele>0.0</ele><time>2026-04-05T12:23:54.041Z</time></trkpt><trkpt lat="44.696168712497176" lon="12.176277510602834"><ele>0.0</ele><time>2026-04-05T12:23:55.041Z</time></trkpt><trkpt lat="44.696096928094505" lon="12.176411087558984"><ele>0.0</ele><time>2026-04-05T12:23:56.041Z</time></trkpt><trkpt lat="44.6960134810137" lon="12.176563026489282"><ele>0.0</ele><time>2026-04-05T12:23:57.041Z</time></trkpt><trkpt lat="44.695912452375666" lon="12.176720233817578"><ele>0.0</ele><time>2026-04-05T12:23:58.041Z</time></trkpt><trkpt lat="44.69581098897555" lon="12.176882300987891"><ele>0.0</ele><time>2026-04-05T12:23:59.041Z</time></trkpt><trkpt lat="44.695705052903214" lon="12.17705702115815"><ele>0.0</ele><time>2026-04-05T12:24:00.041Z</time></trkpt><trkpt lat="44.695600870496584" lon="12.177224231033263"><ele>0.0</ele><time>2026-04-05T12:24:01.041Z</time></trkpt><trkpt lat="44.69549410525004" lon="12.177408755041029"><ele>0.0</ele><time>2026-04-05T12:24:02.041Z</time></trkpt><trkpt lat="44.695383785124456" lon="12.177585988711705"><ele>0.0</ele><time>2026-04-05T12:24:03.041Z</time></trkpt><trkpt lat="44.695273571836864" lon="12.177758356562675"><ele>0.0</ele><time>2026-04-05T12:24:04.041Z</time></trkpt><trkpt lat="44.69513933011968" lon="12.177891430548602"><ele>0.0</ele><time>2026-04-05T12:24:05.041Z</time></trkpt><trkpt lat="44.69504042797655" lon="12.178054012350962"><ele>0.3333333333333333</ele><time>2026-04-05T12:24:06.041Z</time></trkpt><trkpt lat="44.694938262936006" lon="12.17822005238939"><ele>0.6666666666666666</ele><time>2026-04-05T12:24:07.041Z</time></trkpt><trkpt lat="44.694838464909" lon="12.178381986327201"><ele>1.0</ele><time>2026-04-05T12:24:08.041Z</time></trkpt><trkpt lat="44.6947432773847" lon="12.178536439198181"><ele>1.0</ele><time>2026-04-05T12:24:09.041Z</time></trkpt><trkpt lat="44.69465328851001" lon="12.178681837274292"><ele>1.0</ele><time>2026-04-05T12:24:10.041Z</time></trkpt><trkpt lat="44.69457268794511" lon="12.178811969631726"><ele>1.0</ele><time>2026-04-05T12:24:11.041Z</time></trkpt><trkpt lat="44.69451069943683" lon="12.178941848261621"><ele>1.0</ele><time>2026-04-05T12:24:12.041Z</time></trkpt><trkpt lat="44.69442392792937" lon="12.179020187924012"><ele>0.9999999999999999</ele><time>2026-04-05T12:24:13.041Z</time></trkpt><trkpt lat="44.69437221180212" lon="12.179090360354646"><ele>1.0</ele><time>2026-04-05T12:24:14.041Z</time></trkpt><trkpt lat="44.69431577761883" lon="12.179157916576575"><ele>1.0</ele><time>2026-04-05T12:24:15.041Z</time></trkpt><trkpt lat="44.69425096300074" lon="12.17920527914687"><ele>1.0</ele><time>2026-04-05T12:24:16.041Z</time></trkpt><trkpt lat="44.69419933392024" lon="12.179284068902067"><ele>0.9999999999999999</ele><time>2026-04-05T12:24:17.041Z</time></trkpt><trkpt lat="44.694095355364965" lon="12.179281734280204"><ele>1.0</ele><time>2026-04-05T12:24:18.041Z</time></trkpt><trkpt lat="44.69400345057387" lon="12.179326706056402"><ele>1.0</ele><time>2026-04-05T12:24:19.041Z</time></trkpt><trkpt lat="44.693912559465254" lon="12.179402826266594"><ele>1.0</ele><time>2026-04-05T12:24:20.041Z</time></trkpt><trkpt lat="44.69382065884776" lon="12.17947129974706"><ele>1.0</ele><time>2026-04-05T12:24:21.041Z</time></trkpt><trkpt lat="44.69370623706788" lon="12.179519981840238"><ele>1.0</ele><time>2026-04-05T12:24:22.041Z</time></trkpt><trkpt lat="44.69359764469545" lon="12.179518007946458"><ele>1.0</ele><time>2026-04-05T12:24:23.041Z</time></trkpt><trkpt lat="44.69349666408475" lon="12.17949780245612"><ele>1.25</ele><time>2026-04-05T12:24:24.041Z</time></trkpt><trkpt lat="44.69339326040567" lon="12.17945761279711"><ele>1.5</ele><time>2026-04-05T12:24:25.041Z</time></trkpt><trkpt lat="44.693268420406866" lon="12.17940016210659"><ele>1.75</ele><time>2026-04-05T12:24:26.041Z</time></trkpt><trkpt lat="44.693134325831664" lon="12.179343975523878"><ele>2.0</ele><time>2026-04-05T12:24:27.041Z</time></trkpt><trkpt lat="44.69299538371006" lon="12.179290910112128"><ele>2.0</ele><time>2026-04-05T12:24:28.041Z</time></trkpt><trkpt lat="44.69284994310252" lon="12.179228566215642"><ele>2.0</ele><time>2026-04-05T12:24:29.041Z</time></trkpt><trkpt lat="44.692706311602116" lon="12.179155748702547"><ele>2.0</ele><time>2026-04-05T12:24:30.041Z</time></trkpt><trkpt lat="44.69256612730262" lon="12.179081248395537"><ele>1.5</ele><time>2026-04-05T12:24:31.041Z</time></trkpt><trkpt lat="44.692440128282946" lon="12.179004818253649"><ele>1.0</ele><time>2026-04-05T12:24:32.041Z</time></trkpt><trkpt lat="44.69232453427737" lon="12.17894574819079"><ele>0.5</ele><time>2026-04-05T12:24:33.041Z</time></trkpt><trkpt lat="44.69221728301283" lon="12.178886232230475"><ele>0.0</ele><time>2026-04-05T12:24:34.041Z</time></trkpt><trkpt lat="44.692111923494345" lon="12.17883990266542"><ele>0.0</ele><time>2026-04-05T12:24:35.041Z</time></trkpt><trkpt lat="44.69201048555735" lon="12.178800720099918"><ele>0.0</ele><time>2026-04-05T12:24:36.041Z</time></trkpt><trkpt lat="44.69190651876859" lon="12.17875015821096"><ele>0.0</ele><time>2026-04-05T12:24:37.041Z</time></trkpt><trkpt lat="44.6917954501326" lon="12.178717526908308"><ele>0.0</ele><time>2026-04-05T12:24:38.041Z</time></trkpt><trkpt lat="44.69168271452869" lon="12.178693860470647"><ele>0.0</ele><time>2026-04-05T12:24:39.043Z</time></trkpt><trkpt lat="44.69155576747165" lon="12.178708025006939"><ele>-1.0</ele><time>2026-04-05T12:24:40.043Z</time></trkpt><trkpt lat="44.69143470023249" lon="12.17874279477753"><ele>-2.0</ele><time>2026-04-05T12:24:41.043Z</time></trkpt><trkpt lat="44.69131610792893" lon="12.178811311623098"><ele>-3.0</ele><time>2026-04-05T12:24:42.043Z</time></trkpt><trkpt lat="44.691209770045724" lon="12.178899116944732"><ele>-4.0</ele><time>2026-04-05T12:24:43.043Z</time></trkpt><trkpt lat="44.69111739307112" lon="12.179003262260458"><ele>-3.5</ele><time>2026-04-05T12:24:44.043Z</time></trkpt><trkpt lat="44.69103750028054" lon="12.17915050977042"><ele>-3.0</ele><time>2026-04-05T12:24:45.043Z</time></trkpt><trkpt lat="44.69097938661247" lon="12.179315763018474"><ele>-2.5</ele><time>2026-04-05T12:24:46.043Z</time></trkpt><trkpt lat="44.69091544382192" lon="12.179483804929522"><ele>-2.0</ele><time>2026-04-05T12:24:47.043Z</time></trkpt><trkpt lat="44.69089219778069" lon="12.179669735550432"><ele>-2.0</ele><time>2026-04-05T12:24:48.043Z</time></trkpt><trkpt lat="44.69089495266787" lon="12.17984495874626"><ele>-2.0</ele><time>2026-04-05T12:24:49.043Z</time></trkpt><trkpt lat="44.690915282600585" lon="12.180018244937695"><ele>-2.0</ele><time>2026-04-05T12:24:50.043Z</time></trkpt><trkpt lat="44.69095499943631" lon="12.180184569747878"><ele>-2.0</ele><time>2026-04-05T12:24:51.043Z</time></trkpt><trkpt lat="44.69100746114796" lon="12.180346481326696"><ele>-1.75</ele><time>2026-04-05T12:24:52.043Z</time></trkpt><trkpt lat="44.691064661223635" lon="12.18050993159219"><ele>-1.5</ele><time>2026-04-05T12:24:53.043Z</time></trkpt><trkpt lat="44.69112236486522" lon="12.180677213402971"><ele>-1.25</ele><time>2026-04-05T12:24:54.043Z</time></trkpt><trkpt lat="44.691183541372354" lon="12.180853028827858"><ele>-1.0</ele><time>2026-04-05T12:24:55.043Z</time></trkpt><trkpt lat="44.69124721829411" lon="12.181036004741363"><ele>-0.6666666666666666</ele><time>2026-04-05T12:24:56.043Z</time></trkpt><trkpt lat="44.69134925393028" lon="12.18119528719064"><ele>-0.3333333333333333</ele><time>2026-04-05T12:24:57.043Z</time></trkpt><trkpt lat="44.69142044592546" lon="12.181379812383845"><ele>0.0</ele><time>2026-04-05T12:24:58.043Z</time></trkpt><trkpt lat="44.6914846591166" lon="12.181573244640884"><ele>0.3333333333333333</ele><time>2026-04-05T12:24:59.043Z</time></trkpt><trkpt lat="44.691549498529234" lon="12.181765443372107"><ele>0.6666666666666666</ele><time>2026-04-05T12:25:00.043Z</time></trkpt><trkpt lat="44.691587322352724" lon="12.181980467805523"><ele>1.0</ele><time>2026-04-05T12:25:01.043Z</time></trkpt><trkpt lat="44.69166666721775" lon="12.182150012407966"><ele>1.0</ele><time>2026-04-05T12:25:02.043Z</time></trkpt><trkpt lat="44.6917386224423" lon="12.182296253282097"><ele>1.0</ele><time>2026-04-05T12:25:03.043Z</time></trkpt><trkpt lat="44.69180515561759" lon="12.182429949855077"><ele>1.0</ele><time>2026-04-05T12:25:04.043Z</time></trkpt><trkpt lat="44.69189608652483" lon="12.182518067519146"><ele>1.0</ele><time>2026-04-05T12:25:05.043Z</time></trkpt><trkpt lat="44.691941161311135" lon="12.182613554095344"><ele>1.0</ele><time>2026-04-05T12:25:06.043Z</time></trkpt><trkpt lat="44.691983171454375" lon="12.182738396029254"><ele>0.9999999999999999</ele><time>2026-04-05T12:25:08.043Z</time></trkpt><trkpt lat="44.69204280311431" lon="12.182811135179618"><ele>1.0</ele><time>2026-04-05T12:25:20.043Z</time></trkpt><trkpt lat="44.69208505633376" lon="12.182907517899794"><ele>1.0</ele><time>2026-04-05T12:25:22.043Z</time></trkpt><trkpt lat="44.69213882092933" lon="12.183018764440696"><ele>1.0</ele><time>2026-04-05T12:25:24.043Z</time></trkpt><trkpt lat="44.6922002882233" lon="12.183151546787986"><ele>0.9999999999999999</ele><time>2026-04-05T12:25:26.043Z</time></trkpt><trkpt lat="44.69224666214062" lon="12.18323330182256"><ele>1.0</ele><time>2026-04-05T12:25:27.043Z</time></trkpt><trkpt lat="44.692290054815594" lon="12.183303053643296"><ele>0.9999999999999999</ele><time>2026-04-05T12:25:28.043Z</time></trkpt><trkpt lat="44.69233975158132" lon="12.183378886211903"><ele>1.0</ele><time>2026-04-05T12:25:29.043Z</time></trkpt><trkpt lat="44.69239318240181" lon="12.18346082163658"><ele>1.0</ele><time>2026-04-05T12:25:30.043Z</time></trkpt><trkpt lat="44.692448892500266" lon="12.18355179746119"><ele>1.0</ele><time>2026-04-05T12:25:31.043Z</time></trkpt><trkpt lat="44.69250872162855" lon="12.183646886847988"><ele>0.9999999999999999</ele><time>2026-04-05T12:25:32.043Z</time></trkpt><trkpt lat="44.69257248071376" lon="12.183743287028884"><ele>1.0</ele><time>2026-04-05T12:25:33.043Z</time></trkpt><trkpt lat="44.6926432860028" lon="12.183839718852107"><ele>1.0</ele><time>2026-04-05T12:25:34.043Z</time></trkpt><trkpt lat="44.6927129433005" lon="12.183941242163081"><ele>1.0</ele><time>2026-04-05T12:25:35.043Z</time></trkpt><trkpt lat="44.69277968268823" lon="12.184042776769505"><ele>1.0</ele><time>2026-04-05T12:25:36.043Z</time></trkpt><trkpt lat="44.692839056803166" lon="12.184143268142451"><ele>1.0</ele><time>2026-04-05T12:25:37.043Z</time></trkpt><trkpt lat="44.69288498161952" lon="12.184241990475416"><ele>1.0</ele><time>2026-04-05T12:25:38.043Z</time></trkpt><trkpt lat="44.692909098204574" lon="12.18434905136178"><ele>1.0</ele><time>2026-04-05T12:25:39.043Z</time></trkpt><trkpt lat="44.69291784401925" lon="12.184450067293612"><ele>0.9999999999999999</ele><time>2026-04-05T12:25:40.043Z</time></trkpt><trkpt lat="44.692909625500846" lon="12.184544499346659"><ele>1.0</ele><time>2026-04-05T12:25:41.043Z</time></trkpt><trkpt lat="44.69288408910599" lon="12.184631707099761"><ele>1.0</ele><time>2026-04-05T12:25:42.043Z</time></trkpt><trkpt lat="44.69284386373597" lon="12.184705909775039"><ele>0.9999999999999999</ele><time>2026-04-05T12:25:43.043Z</time></trkpt><trkpt lat="44.69279097805021" lon="12.184775778973078"><ele>1.0</ele><time>2026-04-05T12:25:44.043Z</time></trkpt><trkpt lat="44.69272415232037" lon="12.184847949129342"><ele>1.0</ele><time>2026-04-05T12:25:45.043Z</time></trkpt><trkpt lat="44.69263625015529" lon="12.184925835388224"><ele>1.0</ele><time>2026-04-05T12:25:46.043Z</time></trkpt><trkpt lat="44.6925321800976" lon="12.18501057904008"><ele>1.0</ele><time>2026-04-05T12:25:47.043Z</time></trkpt><trkpt lat="44.69241580373319" lon="12.185094749629041"><ele>1.0</ele><time>2026-04-05T12:25:48.043Z</time></trkpt><trkpt lat="44.69230180726806" lon="12.185174004642372"><ele>1.0</ele><time>2026-04-05T12:25:49.043Z</time></trkpt><trkpt lat="44.69218124797069" lon="12.185261406468591"><ele>1.0</ele><time>2026-04-05T12:25:50.043Z</time></trkpt><trkpt lat="44.6920535937725" lon="12.185357597854198"><ele>1.0</ele><time>2026-04-05T12:25:51.043Z</time></trkpt><trkpt lat="44.69192100147786" lon="12.185455355302944"><ele>1.0</ele><time>2026-04-05T12:25:52.043Z</time></trkpt><trkpt lat="44.69178568713692" lon="12.185558516958475"><ele>1.0</ele><time>2026-04-05T12:25:53.043Z</time></trkpt><trkpt lat="44.69165779747051" lon="12.185663237614758"><ele>1.0</ele><time>2026-04-05T12:25:54.043Z</time></trkpt><trkpt lat="44.69153635298575" lon="12.185727896357559"><ele>1.0</ele><time>2026-04-05T12:25:55.043Z</time></trkpt><trkpt lat="44.69144340840747" lon="12.185823128364413"><ele>1.0</ele><time>2026-04-05T12:25:56.043Z</time></trkpt><trkpt lat="44.69136300909907" lon="12.185905163250796"><ele>1.0</ele><time>2026-04-05T12:25:57.043Z</time></trkpt><trkpt lat="44.69130470310582" lon="12.185965206160562"><ele>1.0</ele><time>2026-04-05T12:25:58.043Z</time></trkpt><trkpt lat="44.691253714623876" lon="12.186017811307288"><ele>1.0</ele><time>2026-04-05T12:25:59.043Z</time></trkpt><trkpt lat="44.691151099599814" lon="12.186100701442042"><ele>1.0</ele><time>2026-04-05T12:26:01.043Z</time></trkpt><trkpt lat="44.691109360334046" lon="12.186224378252412"><ele>1.0</ele><time>2026-04-05T12:26:02.043Z</time></trkpt><trkpt lat="44.69102605915527" lon="12.186359871751248"><ele>1.0</ele><time>2026-04-05T12:26:03.043Z</time></trkpt><trkpt lat="44.6909314137566" lon="12.186503537660144"><ele>0.6666666666666666</ele><time>2026-04-05T12:26:04.043Z</time></trkpt><trkpt lat="44.69083327444195" lon="12.186645683893095"><ele>0.3333333333333333</ele><time>2026-04-05T12:26:05.043Z</time></trkpt><trkpt lat="44.69072609625728" lon="12.186796739227027"><ele>0.0</ele><time>2026-04-05T12:26:06.043Z</time></trkpt><trkpt lat="44.69062116058338" lon="12.186962713851084"><ele>0.0</ele><time>2026-04-05T12:26:07.043Z</time></trkpt><trkpt lat="44.69051497106011" lon="12.187129159128412"><ele>0.0</ele><time>2026-04-05T12:26:08.043Z</time></trkpt><trkpt lat="44.690400031532725" lon="12.187298641132301"><ele>0.0</ele><time>2026-04-05T12:26:09.043Z</time></trkpt><trkpt lat="44.69028236236405" lon="12.187467685301538"><ele>-0.6666666666666666</ele><time>2026-04-05T12:26:10.043Z</time></trkpt><trkpt lat="44.690167650067046" lon="12.187641277011455"><ele>-1.3333333333333333</ele><time>2026-04-05T12:26:11.043Z</time></trkpt><trkpt lat="44.690057703366975" lon="12.187804476328987"><ele>-2.0</ele><time>2026-04-05T12:26:12.043Z</time></trkpt><trkpt lat="44.68993600169103" lon="12.18795108574634"><ele>-2.0</ele><time>2026-04-05T12:26:13.043Z</time></trkpt><trkpt lat="44.68982725494049" lon="12.18811064654811"><ele>-2.0</ele><time>2026-04-05T12:26:14.043Z</time></trkpt><trkpt lat="44.68972184177134" lon="12.188265316080173"><ele>-2.0</ele><time>2026-04-05T12:26:15.043Z</time></trkpt><trkpt lat="44.689613439310975" lon="12.188427823853461"><ele>-2.0</ele><time>2026-04-05T12:26:16.043Z</time></trkpt><trkpt lat="44.68950354671021" lon="12.188583209618118"><ele>-2.0</ele><time>2026-04-05T12:26:17.043Z</time></trkpt><trkpt lat="44.689399081058674" lon="12.188731131665808"><ele>-2.0</ele><time>2026-04-05T12:26:18.043Z</time></trkpt><trkpt lat="44.689293006685546" lon="12.188885162674826"><ele>-2.0</ele><time>2026-04-05T12:26:19.043Z</time></trkpt><trkpt lat="44.6891888683845" lon="12.189039945034473"><ele>-2.0</ele><time>2026-04-05T12:26:20.043Z</time></trkpt><trkpt lat="44.6890884244116" lon="12.189180005073519"><ele>-2.0</ele><time>2026-04-05T12:26:21.043Z</time></trkpt><trkpt lat="44.688986561409756" lon="12.189320288543046"><ele>-2.0</ele><time>2026-04-05T12:26:22.043Z</time></trkpt><trkpt lat="44.688886638952795" lon="12.189462255701208"><ele>-2.0</ele><time>2026-04-05T12:26:23.043Z</time></trkpt><trkpt lat="44.68879929036449" lon="12.189587498280835"><ele>-2.0</ele><time>2026-04-05T12:26:24.043Z</time></trkpt><trkpt lat="44.68871136831166" lon="12.189716345369387"><ele>-2.0</ele><time>2026-04-05T12:26:25.043Z</time></trkpt><trkpt lat="44.6886191670468" lon="12.189861169233046"><ele>-2.0</ele><time>2026-04-05T12:26:26.043Z</time></trkpt><trkpt lat="44.68851453487477" lon="12.190023621021906"><ele>-1.3333333333333333</ele><time>2026-04-05T12:26:27.043Z</time></trkpt><trkpt lat="44.68840198566413" lon="12.19019247412874"><ele>-0.6666666666666666</ele><time>2026-04-05T12:26:28.043Z</time></trkpt><trkpt lat="44.68828451081855" lon="12.190376527040835"><ele>0.0</ele><time>2026-04-05T12:26:29.043Z</time></trkpt><trkpt lat="44.688161574105855" lon="12.190548988332155"><ele>-0.6666666666666666</ele><time>2026-04-05T12:26:30.043Z</time></trkpt><trkpt lat="44.68803986642787" lon="12.190731550638182"><ele>-1.3333333333333333</ele><time>2026-04-05T12:26:31.043Z</time></trkpt><trkpt lat="44.68792063973135" lon="12.190910448357627"><ele>-2.0</ele><time>2026-04-05T12:26:32.043Z</time></trkpt><trkpt lat="44.6878041544444" lon="12.191083276027332"><ele>-2.0</ele><time>2026-04-05T12:26:33.043Z</time></trkpt><trkpt lat="44.68768932653488" lon="12.191250952768597"><ele>-2.0</ele><time>2026-04-05T12:26:34.043Z</time></trkpt><trkpt lat="44.68757711832287" lon="12.191413290469306"><ele>-2.0</ele><time>2026-04-05T12:26:35.043Z</time></trkpt><trkpt lat="44.68745146130004" lon="12.191563246109887"><ele>-2.0</ele><time>2026-04-05T12:26:36.043Z</time></trkpt><trkpt lat="44.68733343269814" lon="12.191732972616835"><ele>-2.0</ele><time>2026-04-05T12:26:37.043Z</time></trkpt><trkpt lat="44.68721692307267" lon="12.191900514819839"><ele>-2.0</ele><time>2026-04-05T12:26:38.043Z</time></trkpt><trkpt lat="44.687098253503486" lon="12.192071163047384"><ele>-2.0</ele><time>2026-04-05T12:26:39.043Z</time></trkpt><trkpt lat="44.68697911771122" lon="12.192243568998013"><ele>-2.0</ele><time>2026-04-05T12:26:40.043Z</time></trkpt><trkpt lat="44.6868604833818" lon="12.192417222453853"><ele>-2.0</ele><time>2026-04-05T12:26:41.043Z</time></trkpt><trkpt lat="44.686738825415134" lon="12.192595301817553"><ele>-2.333333333333333</ele><time>2026-04-05T12:26:42.043Z</time></trkpt><trkpt lat="44.68661717583192" lon="12.192773368910531"><ele>-2.6666666666666665</ele><time>2026-04-05T12:26:43.043Z</time></trkpt><trkpt lat="44.68649767000894" lon="12.192948298028059"><ele>-3.0</ele><time>2026-04-05T12:26:44.043Z</time></trkpt><trkpt lat="44.6863947660671" lon="12.193131926950935"><ele>-3.0</ele><time>2026-04-05T12:26:45.045Z</time></trkpt><trkpt lat="44.68627064155957" lon="12.193285081725918"><ele>-3.0</ele><time>2026-04-05T12:26:46.045Z</time></trkpt><trkpt lat="44.686156267079326" lon="12.193447047585744"><ele>-3.0</ele><time>2026-04-05T12:26:47.045Z</time></trkpt><trkpt lat="44.686038250016566" lon="12.193618133157395"><ele>-3.0</ele><time>2026-04-05T12:26:48.045Z</time></trkpt><trkpt lat="44.68592433402697" lon="12.193782379759929"><ele>-3.0</ele><time>2026-04-05T12:26:49.045Z</time></trkpt><trkpt lat="44.68581046204567" lon="12.193945886534394"><ele>-3.0</ele><time>2026-04-05T12:26:50.045Z</time></trkpt><trkpt lat="44.68569781983462" lon="12.19412094609754"><ele>-2.75</ele><time>2026-04-05T12:26:51.045Z</time></trkpt><trkpt lat="44.68559327872727" lon="12.194275085887"><ele>-2.5</ele><time>2026-04-05T12:26:52.045Z</time></trkpt><trkpt lat="44.68549361925184" lon="12.194420243639076"><ele>-2.25</ele><time>2026-04-05T12:26:53.045Z</time></trkpt><trkpt lat="44.68539340326562" lon="12.194566582333207"><ele>-2.0</ele><time>2026-04-05T12:26:54.045Z</time></trkpt><trkpt lat="44.6852943215978" lon="12.194715590725945"><ele>-1.5</ele><time>2026-04-05T12:26:55.045Z</time></trkpt><trkpt lat="44.685197167675135" lon="12.194860109893426"><ele>-1.0</ele><time>2026-04-05T12:26:56.045Z</time></trkpt><trkpt lat="44.68510084627308" lon="12.195004290254246"><ele>-0.5</ele><time>2026-04-05T12:26:57.046Z</time></trkpt><trkpt lat="44.684998817166914" lon="12.195150884479219"><ele>0.0</ele><time>2026-04-05T12:26:58.045Z</time></trkpt><trkpt lat="44.68490059452199" lon="12.1952971057592"><ele>0.0</ele><time>2026-04-05T12:26:59.045Z</time></trkpt><trkpt lat="44.68479486392123" lon="12.195417013337835"><ele>0.0</ele><time>2026-04-05T12:27:00.045Z</time></trkpt><trkpt lat="44.684707036721576" lon="12.195543986670605"><ele>0.0</ele><time>2026-04-05T12:27:01.045Z</time></trkpt><trkpt lat="44.68463246123781" lon="12.195675906232523"><ele>0.0</ele><time>2026-04-05T12:27:02.045Z</time></trkpt><trkpt lat="44.684543308140206" lon="12.195772344868752"><ele>0.0</ele><time>2026-04-05T12:27:03.045Z</time></trkpt><trkpt lat="44.68445166944478" lon="12.195862972034323"><ele>0.0</ele><time>2026-04-05T12:27:04.045Z</time></trkpt><trkpt lat="44.684342025196536" lon="12.195925791810307"><ele>0.0</ele><time>2026-04-05T12:27:05.045Z</time></trkpt><trkpt lat="44.68427714664806" lon="12.196091842008972"><ele>0.0</ele><time>2026-04-05T12:27:06.045Z</time></trkpt><trkpt lat="44.68419792801911" lon="12.196252097229245"><ele>-0.6666666666666666</ele><time>2026-04-05T12:27:07.045Z</time></trkpt><trkpt lat="44.6841143054767" lon="12.196426577799274"><ele>-1.3333333333333333</ele><time>2026-04-05T12:27:08.045Z</time></trkpt><trkpt lat="44.68401579258277" lon="12.196581009929705"><ele>-2.0</ele><time>2026-04-05T12:27:09.045Z</time></trkpt><trkpt lat="44.683885940606395" lon="12.19673627241139"><ele>-2.0</ele><time>2026-04-05T12:27:10.045Z</time></trkpt><trkpt lat="44.68376356210806" lon="12.19691623016685"><ele>-2.0</ele><time>2026-04-05T12:27:11.045Z</time></trkpt><trkpt lat="44.68363698277669" lon="12.197102365261568"><ele>-2.0</ele><time>2026-04-05T12:27:12.045Z</time></trkpt><trkpt lat="44.683518915673574" lon="12.197309463760236"><ele>-2.0</ele><time>2026-04-05T12:27:13.045Z</time></trkpt><trkpt lat="44.683375952100285" lon="12.19748621125694"><ele>-2.0</ele><time>2026-04-05T12:27:14.045Z</time></trkpt><trkpt lat="44.68324671932966" lon="12.19767624823597"><ele>-2.0</ele><time>2026-04-05T12:27:15.045Z</time></trkpt><trkpt lat="44.68313282041375" lon="12.197889692314247"><ele>-2.0</ele><time>2026-04-05T12:27:16.045Z</time></trkpt><trkpt lat="44.682992801274565" lon="12.198098211177346"><ele>-2.0</ele><time>2026-04-05T12:27:17.045Z</time></trkpt><trkpt lat="44.682837791160836" lon="12.198327359881818"><ele>-2.0</ele><time>2026-04-05T12:27:18.045Z</time></trkpt><trkpt lat="44.68268051903519" lon="12.198576713692225"><ele>-2.5</ele><time>2026-04-05T12:27:19.045Z</time></trkpt><trkpt lat="44.682527582291826" lon="12.198826451752167"><ele>-3.0</ele><time>2026-04-05T12:27:20.045Z</time></trkpt><trkpt lat="44.6823551790622" lon="12.199057367194364"><ele>-3.0</ele><time>2026-04-05T12:27:21.045Z</time></trkpt><trkpt lat="44.68217726680915" lon="12.199297004210225"><ele>-3.0</ele><time>2026-04-05T12:27:22.045Z</time></trkpt><trkpt lat="44.68199855729785" lon="12.19954768978553"><ele>-2.0</ele><time>2026-04-05T12:27:23.045Z</time></trkpt><trkpt lat="44.68182766197407" lon="12.199777094844922"><ele>-1.0</ele><time>2026-04-05T12:27:24.045Z</time></trkpt><trkpt lat="44.6816620202349" lon="12.200003558825218"><ele>-1.0</ele><time>2026-04-05T12:27:25.045Z</time></trkpt><trkpt lat="44.681493586543105" lon="12.200217475707808"><ele>-1.0</ele><time>2026-04-05T12:27:26.045Z</time></trkpt><trkpt lat="44.68130410815413" lon="12.200396482330314"><ele>-1.0</ele><time>2026-04-05T12:27:27.045Z</time></trkpt><trkpt lat="44.68110108444714" lon="12.20056695321239"><ele>-1.0</ele><time>2026-04-05T12:27:28.045Z</time></trkpt><trkpt lat="44.680897537935245" lon="12.200745441628387"><ele>-1.5</ele><time>2026-04-05T12:27:29.045Z</time></trkpt><trkpt lat="44.680698776720924" lon="12.200925732288637"><ele>-2.0</ele><time>2026-04-05T12:27:30.045Z</time></trkpt><trkpt lat="44.680493177757214" lon="12.201108319807961"><ele>-2.0</ele><time>2026-04-05T12:27:31.045Z</time></trkpt><trkpt lat="44.68030142832132" lon="12.201278209146883"><ele>-2.0</ele><time>2026-04-05T12:27:32.045Z</time></trkpt><trkpt lat="44.68009645794192" lon="12.201458667766275"><ele>-2.0</ele><time>2026-04-05T12:27:33.045Z</time></trkpt><trkpt lat="44.679893501658285" lon="12.201650019141896"><ele>-2.0</ele><time>2026-04-05T12:27:34.045Z</time></trkpt><trkpt lat="44.67969345229265" lon="12.201844515177068"><ele>-2.0</ele><time>2026-04-05T12:27:35.045Z</time></trkpt><trkpt lat="44.679492102999625" lon="12.202029043487778"><ele>-2.0</ele><time>2026-04-05T12:27:36.045Z</time></trkpt><trkpt lat="44.67929573695081" lon="12.20221498219511"><ele>-2.0</ele><time>2026-04-05T12:27:37.045Z</time></trkpt><trkpt lat="44.67910809987687" lon="12.20240489869634"><ele>-2.0</ele><time>2026-04-05T12:27:38.045Z</time></trkpt><trkpt lat="44.67893763611598" lon="12.202609301418208"><ele>-2.0</ele><time>2026-04-05T12:27:39.045Z</time></trkpt><trkpt lat="44.67877678940927" lon="12.202820265155156"><ele>-2.0</ele><time>2026-04-05T12:27:40.045Z</time></trkpt><trkpt lat="44.678617958386305" lon="12.203040593189998"><ele>-2.0</ele><time>2026-04-05T12:27:41.045Z</time></trkpt><trkpt lat="44.678477302761344" lon="12.203283577983271"><ele>-2.5</ele><time>2026-04-05T12:27:42.045Z</time></trkpt><trkpt lat="44.678345584836606" lon="12.20354406499152"><ele>-3.0</ele><time>2026-04-05T12:27:43.045Z</time></trkpt><trkpt lat="44.678217087152454" lon="12.20383869207748"><ele>-3.5</ele><time>2026-04-05T12:27:44.045Z</time></trkpt><trkpt lat="44.67811339736824" lon="12.204118538693567"><ele>-4.0</ele><time>2026-04-05T12:27:45.045Z</time></trkpt><trkpt lat="44.67801784616141" lon="12.204417900070917"><ele>-4.0</ele><time>2026-04-05T12:27:46.045Z</time></trkpt><trkpt lat="44.677941221545545" lon="12.204723627252614"><ele>-4.0</ele><time>2026-04-05T12:27:47.045Z</time></trkpt><trkpt lat="44.6778748947942" lon="12.205041339551418"><ele>-3.5</ele><time>2026-04-05T12:27:48.045Z</time></trkpt><trkpt lat="44.67782338447625" lon="12.205374502086846"><ele>-3.0</ele><time>2026-04-05T12:27:49.045Z</time></trkpt><trkpt lat="44.67778150249923" lon="12.20571638392748"><ele>-4.0</ele><time>2026-04-05T12:27:50.045Z</time></trkpt><trkpt lat="44.67772896021283" lon="12.206060030994445"><ele>-5.0</ele><time>2026-04-05T12:27:51.045Z</time></trkpt><trkpt lat="44.67769265899413" lon="12.206414954606942"><ele>-5.0</ele><time>2026-04-05T12:27:52.045Z</time></trkpt><trkpt lat="44.67765661080352" lon="12.206767404278992"><ele>-5.0</ele><time>2026-04-05T12:27:53.045Z</time></trkpt><trkpt lat="44.67762181669141" lon="12.207108056078154"><ele>-5.0</ele><time>2026-04-05T12:27:54.045Z</time></trkpt><trkpt lat="44.677587425818544" lon="12.207450939824326"><ele>-5.0</ele><time>2026-04-05T12:27:55.045Z</time></trkpt><trkpt lat="44.67755314853116" lon="12.207792691117586"><ele>-5.0</ele><time>2026-04-05T12:27:56.045Z</time></trkpt><trkpt lat="44.677519072222594" lon="12.20813243856606"><ele>-5.0</ele><time>2026-04-05T12:27:57.045Z</time></trkpt><trkpt lat="44.67748591664356" lon="12.208463006234648"><ele>-5.0</ele><time>2026-04-05T12:27:58.045Z</time></trkpt><trkpt lat="44.67745359635913" lon="12.208785245779117"><ele>-5.0</ele><time>2026-04-05T12:27:59.045Z</time></trkpt><trkpt lat="44.67742203658694" lon="12.209099902921102"><ele>-4.5</ele><time>2026-04-05T12:28:00.045Z</time></trkpt><trkpt lat="44.67738989800138" lon="12.209420330931847"><ele>-4.0</ele><time>2026-04-05T12:28:01.045Z</time></trkpt><trkpt lat="44.67735714953724" lon="12.209746839535624"><ele>-2.5</ele><time>2026-04-05T12:28:02.045Z</time></trkpt><trkpt lat="44.677324635575715" lon="12.210072452983903"><ele>-1.0</ele><time>2026-04-05T12:28:03.045Z</time></trkpt><trkpt lat="44.677292685295846" lon="12.210394209813595"><ele>-0.5</ele><time>2026-04-05T12:28:04.045Z</time></trkpt><trkpt lat="44.67726101115011" lon="12.210713185884218"><ele>0.0</ele><time>2026-04-05T12:28:05.045Z</time></trkpt><trkpt lat="44.677228911132545" lon="12.211036450735227"><ele>0.0</ele><time>2026-04-05T12:28:06.045Z</time></trkpt><trkpt lat="44.67719711517826" lon="12.21135665350378"><ele>0.0</ele><time>2026-04-05T12:28:07.045Z</time></trkpt><trkpt lat="44.67716505471931" lon="12.211679618402265"><ele>0.0</ele><time>2026-04-05T12:28:08.045Z</time></trkpt><trkpt lat="44.677133096863805" lon="12.21200061096799"><ele>0.0</ele><time>2026-04-05T12:28:09.045Z</time></trkpt><trkpt lat="44.67710123705241" lon="12.212318552168403"><ele>0.0</ele><time>2026-04-05T12:28:10.045Z</time></trkpt><trkpt lat="44.67706872524834" lon="12.2126409774563"><ele>0.0</ele><time>2026-04-05T12:28:11.045Z</time></trkpt><trkpt lat="44.677036336615856" lon="12.212960247728645"><ele>0.0</ele><time>2026-04-05T12:28:12.045Z</time></trkpt><trkpt lat="44.67703904231315" lon="12.213281109715773"><ele>0.0</ele><time>2026-04-05T12:28:13.045Z</time></trkpt><trkpt lat="44.67700481073241" lon="12.213592118604558"><ele>0.0</ele><time>2026-04-05T12:28:14.045Z</time></trkpt><trkpt lat="44.67697173567194" lon="12.21390300424396"><ele>0.0</ele><time>2026-04-05T12:28:15.045Z</time></trkpt><trkpt lat="44.676946370048704" lon="12.214221846201907"><ele>0.0</ele><time>2026-04-05T12:28:16.045Z</time></trkpt><trkpt lat="44.67691001612515" lon="12.21452966514208"><ele>0.0</ele><time>2026-04-05T12:28:17.045Z</time></trkpt><trkpt lat="44.676848742837755" lon="12.214827197180366"><ele>0.0</ele><time>2026-04-05T12:28:18.045Z</time></trkpt><trkpt lat="44.67681754786456" lon="12.21513612407432"><ele>0.0</ele><time>2026-04-05T12:28:19.045Z</time></trkpt><trkpt lat="44.676786680386535" lon="12.215441807748862"><ele>0.0</ele><time>2026-04-05T12:28:20.045Z</time></trkpt><trkpt lat="44.67675612639923" lon="12.215743570824323"><ele>0.0</ele><time>2026-04-05T12:28:21.045Z</time></trkpt><trkpt lat="44.676726002925314" lon="12.216041493912353"><ele>0.6666666666666666</ele><time>2026-04-05T12:28:22.045Z</time></trkpt><trkpt lat="44.67669531616923" lon="12.216344171328469"><ele>1.3333333333333333</ele><time>2026-04-05T12:28:23.045Z</time></trkpt><trkpt lat="44.67666465907086" lon="12.2166443712454"><ele>2.0</ele><time>2026-04-05T12:28:24.045Z</time></trkpt><trkpt lat="44.67663319853109" lon="12.21695243943258"><ele>2.333333333333333</ele><time>2026-04-05T12:28:25.045Z</time></trkpt><trkpt lat="44.67660146315923" lon="12.217263199558662"><ele>2.6666666666666665</ele><time>2026-04-05T12:28:26.045Z</time></trkpt><trkpt lat="44.676569699715564" lon="12.217574234578764"><ele>3.0</ele><time>2026-04-05T12:28:27.045Z</time></trkpt><trkpt lat="44.67654016815464" lon="12.217877149772784"><ele>2.0</ele><time>2026-04-05T12:28:28.045Z</time></trkpt><trkpt lat="44.67653382552526" lon="12.218198720047583"><ele>1.0</ele><time>2026-04-05T12:28:29.045Z</time></trkpt><trkpt lat="44.67650488962398" lon="12.218517743777827"><ele>1.0</ele><time>2026-04-05T12:28:30.045Z</time></trkpt><trkpt lat="44.67647945797078" lon="12.218827654394964"><ele>1.0</ele><time>2026-04-05T12:28:31.045Z</time></trkpt><trkpt lat="44.676451505845584" lon="12.219147640099212"><ele>0.5</ele><time>2026-04-05T12:28:32.045Z</time></trkpt><trkpt lat="44.676421731583716" lon="12.219458600813637"><ele>0.0</ele><time>2026-04-05T12:28:33.045Z</time></trkpt><trkpt lat="44.67639108349883" lon="12.21977412809055"><ele>-0.5</ele><time>2026-04-05T12:28:34.045Z</time></trkpt><trkpt lat="44.67635728730371" lon="12.220089369702956"><ele>-1.0</ele><time>2026-04-05T12:28:35.045Z</time></trkpt><trkpt lat="44.67632614992433" lon="12.220409309840825"><ele>-1.3333333333333333</ele><time>2026-04-05T12:28:36.045Z</time></trkpt><trkpt lat="44.6762946713678" lon="12.220719343764943"><ele>-1.6666666666666665</ele><time>2026-04-05T12:28:37.045Z</time></trkpt><trkpt lat="44.67626244528164" lon="12.221019335322433"><ele>-2.0</ele><time>2026-04-05T12:28:38.045Z</time></trkpt><trkpt lat="44.67622345491687" lon="12.221326489321973"><ele>-2.333333333333333</ele><time>2026-04-05T12:28:39.045Z</time></trkpt><trkpt lat="44.67619305635831" lon="12.221613364648281"><ele>-2.6666666666666665</ele><time>2026-04-05T12:28:40.045Z</time></trkpt><trkpt lat="44.676166928537334" lon="12.221897274669796"><ele>-3.0</ele><time>2026-04-05T12:28:41.045Z</time></trkpt><trkpt lat="44.676132228871786" lon="12.222166520025688"><ele>-2.3333333333333335</ele><time>2026-04-05T12:28:42.045Z</time></trkpt><trkpt lat="44.67610865980271" lon="12.22243099731079"><ele>-1.6666666666666665</ele><time>2026-04-05T12:28:43.045Z</time></trkpt><trkpt lat="44.67607835525261" lon="12.22268137238732"><ele>-1.0</ele><time>2026-04-05T12:28:44.045Z</time></trkpt><trkpt lat="44.67605578958335" lon="12.222935465672217"><ele>-0.3333333333333333</ele><time>2026-04-05T12:28:45.045Z</time></trkpt><trkpt lat="44.67603245334148" lon="12.223205724956802"><ele>0.3333333333333333</ele><time>2026-04-05T12:28:46.045Z</time></trkpt><trkpt lat="44.67600318758302" lon="12.223466434671542"><ele>1.0</ele><time>2026-04-05T12:28:47.045Z</time></trkpt><trkpt lat="44.67597776524042" lon="12.223721828994858"><ele>1.0</ele><time>2026-04-05T12:28:48.045Z</time></trkpt><trkpt lat="44.67596161295032" lon="12.223979111348045"><ele>1.0</ele><time>2026-04-05T12:28:49.045Z</time></trkpt><trkpt lat="44.67593451792509" lon="12.224222386316251"><ele>1.0</ele><time>2026-04-05T12:28:50.045Z</time></trkpt><trkpt lat="44.67590711282671" lon="12.22446337520495"><ele>1.0</ele><time>2026-04-05T12:28:51.047Z</time></trkpt><trkpt lat="44.675876924070415" lon="12.224693509289816"><ele>1.0</ele><time>2026-04-05T12:28:52.047Z</time></trkpt><trkpt lat="44.67585661558431" lon="12.224918733441024"><ele>1.0</ele><time>2026-04-05T12:28:53.047Z</time></trkpt><trkpt lat="44.67582939619766" lon="12.225142712469847"><ele>1.0</ele><time>2026-04-05T12:28:54.047Z</time></trkpt><trkpt lat="44.67580516382353" lon="12.225345432310027"><ele>1.0</ele><time>2026-04-05T12:28:55.047Z</time></trkpt><trkpt lat="44.67578730788571" lon="12.225526886179988"><ele>1.0</ele><time>2026-04-05T12:28:56.047Z</time></trkpt><trkpt lat="44.67576971741502" lon="12.225692926690293"><ele>1.0</ele><time>2026-04-05T12:28:57.047Z</time></trkpt><trkpt lat="44.67575605380702" lon="12.22583261319085"><ele>0.9999999999999999</ele><time>2026-04-05T12:28:58.047Z</time></trkpt><trkpt lat="44.67574471986481" lon="12.225956879255536"><ele>1.0</ele><time>2026-04-05T12:28:59.047Z</time></trkpt><trkpt lat="44.67572932209109" lon="12.226052311589129"><ele>1.0</ele><time>2026-04-05T12:29:00.047Z</time></trkpt><trkpt lat="44.67571614297404" lon="12.226149099772133"><ele>1.0</ele><time>2026-04-05T12:29:01.047Z</time></trkpt><trkpt lat="44.675690691507874" lon="12.2262459207109"><ele>0.9999999999999999</ele><time>2026-04-05T12:29:02.047Z</time></trkpt><trkpt lat="44.67568159201666" lon="12.22634449245036"><ele>1.0</ele><time>2026-04-05T12:29:03.047Z</time></trkpt><trkpt lat="44.67568792908683" lon="12.226458668833967"><ele>1.25</ele><time>2026-04-05T12:29:04.047Z</time></trkpt><trkpt lat="44.67572584694847" lon="12.226577157846705"><ele>1.5</ele><time>2026-04-05T12:29:05.047Z</time></trkpt><trkpt lat="44.675753884884486" lon="12.22674560564575"><ele>1.75</ele><time>2026-04-05T12:29:06.047Z</time></trkpt><trkpt lat="44.67577410839721" lon="12.22694073721559"><ele>2.0</ele><time>2026-04-05T12:29:07.047Z</time></trkpt><trkpt lat="44.675789406282874" lon="12.22714038368733"><ele>2.0</ele><time>2026-04-05T12:29:08.047Z</time></trkpt><trkpt lat="44.67580955987127" lon="12.227334900681754"><ele>2.0</ele><time>2026-04-05T12:29:09.047Z</time></trkpt><trkpt lat="44.67582829141179" lon="12.227522652687547"><ele>2.0</ele><time>2026-04-05T12:29:10.047Z</time></trkpt><trkpt lat="44.67584463266709" lon="12.227691760573723"><ele>2.0</ele><time>2026-04-05T12:29:11.047Z</time></trkpt><trkpt lat="44.675854777280676" lon="12.227841574730006"><ele>2.0</ele><time>2026-04-05T12:29:12.047Z</time></trkpt><trkpt lat="44.67587181368533" lon="12.227992964210262"><ele>2.0</ele><time>2026-04-05T12:29:13.047Z</time></trkpt><trkpt lat="44.6758921356249" lon="12.22817165106483"><ele>2.0</ele><time>2026-04-05T12:29:14.047Z</time></trkpt><trkpt lat="44.67591653754637" lon="12.228372457366167"><ele>2.0</ele><time>2026-04-05T12:29:15.047Z</time></trkpt><trkpt lat="44.67594205416508" lon="12.228585274623493"><ele>2.0</ele><time>2026-04-05T12:29:16.047Z</time></trkpt><trkpt lat="44.675965232826115" lon="12.228793136073676"><ele>2.0</ele><time>2026-04-05T12:29:17.047Z</time></trkpt><trkpt lat="44.67599262478907" lon="12.229004969431381"><ele>2.0</ele><time>2026-04-05T12:29:18.047Z</time></trkpt><trkpt lat="44.67601672952101" lon="12.229222865210833"><ele>2.0</ele><time>2026-04-05T12:29:19.047Z</time></trkpt><trkpt lat="44.67603915269286" lon="12.22944569731046"><ele>2.0</ele><time>2026-04-05T12:29:20.047Z</time></trkpt><trkpt lat="44.676064214432344" lon="12.229665237003703"><ele>2.0</ele><time>2026-04-05T12:29:21.047Z</time></trkpt><trkpt lat="44.676083232235875" lon="12.229877173175948"><ele>1.75</ele><time>2026-04-05T12:29:22.047Z</time></trkpt><trkpt lat="44.67610111483332" lon="12.230080721136474"><ele>1.5</ele><time>2026-04-05T12:29:23.047Z</time></trkpt><trkpt lat="44.67613489987935" lon="12.230268528079815"><ele>1.25</ele><time>2026-04-05T12:29:24.047Z</time></trkpt><trkpt lat="44.676150957077745" lon="12.230448290692856"><ele>1.0</ele><time>2026-04-05T12:29:25.047Z</time></trkpt><trkpt lat="44.676171920675834" lon="12.23062271740229"><ele>1.25</ele><time>2026-04-05T12:29:26.047Z</time></trkpt><trkpt lat="44.67619065496947" lon="12.230785888796467"><ele>1.5</ele><time>2026-04-05T12:29:27.047Z</time></trkpt><trkpt lat="44.67620178063289" lon="12.230953166874507"><ele>1.75</ele><time>2026-04-05T12:29:28.047Z</time></trkpt><trkpt lat="44.676203048593074" lon="12.23113403998855"><ele>2.0</ele><time>2026-04-05T12:29:29.047Z</time></trkpt><trkpt lat="44.6761963660221" lon="12.231325423770581"><ele>2.0</ele><time>2026-04-05T12:29:30.047Z</time></trkpt><trkpt lat="44.67617220900746" lon="12.231529225746462"><ele>2.0</ele><time>2026-04-05T12:29:31.047Z</time></trkpt><trkpt lat="44.676160184537956" lon="12.231723474423617"><ele>2.0</ele><time>2026-04-05T12:29:32.047Z</time></trkpt><trkpt lat="44.676148074085" lon="12.231922432236368"><ele>2.0</ele><time>2026-04-05T12:29:33.047Z</time></trkpt><trkpt lat="44.67613312206401" lon="12.232122977741822"><ele>2.0</ele><time>2026-04-05T12:29:34.047Z</time></trkpt><trkpt lat="44.67611301515038" lon="12.232338543404232"><ele>2.0</ele><time>2026-04-05T12:29:35.047Z</time></trkpt><trkpt lat="44.676089304153145" lon="12.232563486102453"><ele>2.0</ele><time>2026-04-05T12:29:36.047Z</time></trkpt><trkpt lat="44.67605961014475" lon="12.232769910455426"><ele>1.75</ele><time>2026-04-05T12:29:37.047Z</time></trkpt><trkpt lat="44.67603724708692" lon="12.232977179580772"><ele>1.5</ele><time>2026-04-05T12:29:38.047Z</time></trkpt><trkpt lat="44.67601622805612" lon="12.233181297532369"><ele>1.25</ele><time>2026-04-05T12:29:39.047Z</time></trkpt><trkpt lat="44.67599323564509" lon="12.233374775073763"><ele>1.0</ele><time>2026-04-05T12:29:40.047Z</time></trkpt><trkpt lat="44.67596894926735" lon="12.233567835629044"><ele>1.5</ele><time>2026-04-05T12:29:41.047Z</time></trkpt><trkpt lat="44.67595169226718" lon="12.233757719094964"><ele>2.0</ele><time>2026-04-05T12:29:42.047Z</time></trkpt><trkpt lat="44.67593963823891" lon="12.233941196380687"><ele>2.5</ele><time>2026-04-05T12:29:43.047Z</time></trkpt><trkpt lat="44.67592184175016" lon="12.23411312855164"><ele>3.0</ele><time>2026-04-05T12:29:44.047Z</time></trkpt><trkpt lat="44.675907667055824" lon="12.234273549838562"><ele>3.0</ele><time>2026-04-05T12:29:45.047Z</time></trkpt><trkpt lat="44.675897326859975" lon="12.234432456169873"><ele>3.0</ele><time>2026-04-05T12:29:46.047Z</time></trkpt><trkpt lat="44.675882492810196" lon="12.234598463483822"><ele>3.0</ele><time>2026-04-05T12:29:47.047Z</time></trkpt><trkpt lat="44.67586688357701" lon="12.23476506816956"><ele>3.0</ele><time>2026-04-05T12:29:48.047Z</time></trkpt><trkpt lat="44.675845704487934" lon="12.23491898924939"><ele>3.0</ele><time>2026-04-05T12:29:49.047Z</time></trkpt><trkpt lat="44.67582454505382" lon="12.23507380920423"><ele>3.0</ele><time>2026-04-05T12:29:50.047Z</time></trkpt><trkpt lat="44.67580259582054" lon="12.235229627980525"><ele>3.0</ele><time>2026-04-05T12:29:51.047Z</time></trkpt><trkpt lat="44.67577277813076" lon="12.23537618605252"><ele>3.0</ele><time>2026-04-05T12:29:52.047Z</time></trkpt><trkpt lat="44.67567944113303" lon="12.235500101636108"><ele>3.25</ele><time>2026-04-05T12:29:53.047Z</time></trkpt><trkpt lat="44.6756443273921" lon="12.235649050121474"><ele>3.5</ele><time>2026-04-05T12:29:54.047Z</time></trkpt><trkpt lat="44.67560788962176" lon="12.235798930798039"><ele>3.75</ele><time>2026-04-05T12:29:55.047Z</time></trkpt><trkpt lat="44.67557288306062" lon="12.235942917932283"><ele>4.0</ele><time>2026-04-05T12:29:56.047Z</time></trkpt><trkpt lat="44.675533898198054" lon="12.236101651710372"><ele>4.0</ele><time>2026-04-05T12:29:57.047Z</time></trkpt><trkpt lat="44.675495829052245" lon="12.236250716180047"><ele>4.0</ele><time>2026-04-05T12:29:58.047Z</time></trkpt><trkpt lat="44.67545868802564" lon="12.236396146504735"><ele>4.0</ele><time>2026-04-05T12:29:59.047Z</time></trkpt><trkpt lat="44.675416989171104" lon="12.23655573792566"><ele>4.0</ele><time>2026-04-05T12:30:00.047Z</time></trkpt><trkpt lat="44.67537733140262" lon="12.236698776560127"><ele>4.333333333333333</ele><time>2026-04-05T12:30:01.047Z</time></trkpt><trkpt lat="44.67534243556565" lon="12.236823959688213"><ele>4.666666666666666</ele><time>2026-04-05T12:30:02.047Z</time></trkpt><trkpt lat="44.675326803831446" lon="12.23693999381756"><ele>5.0</ele><time>2026-04-05T12:30:03.047Z</time></trkpt><trkpt lat="44.675288337500305" lon="12.237031658365657"><ele>5.333333333333333</ele><time>2026-04-05T12:30:04.047Z</time></trkpt><trkpt lat="44.67524923206232" lon="12.237179174474514"><ele>5.666666666666667</ele><time>2026-04-05T12:30:06.047Z</time></trkpt><trkpt lat="44.675234788808126" lon="12.237286817467472"><ele>6.0</ele><time>2026-04-05T12:30:08.047Z</time></trkpt><trkpt lat="44.675230444324235" lon="12.237375658333445"><ele>5.333333333333333</ele><time>2026-04-05T12:30:10.047Z</time></trkpt><trkpt lat="44.67522451679309" lon="12.237489365739478"><ele>4.666666666666667</ele><time>2026-04-05T12:30:13.047Z</time></trkpt><trkpt lat="44.67520539736529" lon="12.237585603311395"><ele>4.0</ele><time>2026-04-05T12:30:15.047Z</time></trkpt><trkpt lat="44.67519721405656" lon="12.237682899817191"><ele>3.333333333333333</ele><time>2026-04-05T12:30:17.047Z</time></trkpt><trkpt lat="44.67519047322268" lon="12.23778733335639"><ele>2.6666666666666665</ele><time>2026-04-05T12:30:19.047Z</time></trkpt><trkpt lat="44.67518297463335" lon="12.237891615185525"><ele>2.0</ele><time>2026-04-05T12:30:21.047Z</time></trkpt><trkpt lat="44.67518269185058" lon="12.238054426738968"><ele>2.0</ele><time>2026-04-05T12:30:23.047Z</time></trkpt><trkpt lat="44.6751855888096" lon="12.238158210070663"><ele>1.9999999999999998</ele><time>2026-04-05T12:30:24.047Z</time></trkpt><trkpt lat="44.67518120997877" lon="12.238261162131545"><ele>2.0</ele><time>2026-04-05T12:30:25.047Z</time></trkpt><trkpt lat="44.67518781684795" lon="12.238369672181323"><ele>2.0</ele><time>2026-04-05T12:30:26.047Z</time></trkpt><trkpt lat="44.67519301172869" lon="12.238469606904253"><ele>1.9999999999999998</ele><time>2026-04-05T12:30:27.047Z</time></trkpt><trkpt lat="44.67519464843928" lon="12.238569468838598"><ele>2.0</ele><time>2026-04-05T12:30:28.047Z</time></trkpt><trkpt lat="44.67519565189878" lon="12.238670760846935"><ele>2.0</ele><time>2026-04-05T12:30:29.047Z</time></trkpt><trkpt lat="44.67519497953244" lon="12.238770618717107"><ele>2.0</ele><time>2026-04-05T12:30:30.047Z</time></trkpt><trkpt lat="44.675194739970344" lon="12.238876032401624"><ele>2.0</ele><time>2026-04-05T12:30:31.047Z</time></trkpt><trkpt lat="44.6751966207219" lon="12.238974762903707"><ele>2.0</ele><time>2026-04-05T12:30:32.047Z</time></trkpt><trkpt lat="44.675196561011994" lon="12.239138212160555"><ele>2.0</ele><time>2026-04-05T12:30:34.047Z</time></trkpt><trkpt lat="44.67519576299592" lon="12.239276606743395"><ele>2.0</ele><time>2026-04-05T12:30:36.047Z</time></trkpt><trkpt lat="44.675170087096305" lon="12.239431480934513"><ele>1.9999999999999998</ele><time>2026-04-05T12:30:38.047Z</time></trkpt><trkpt lat="44.67516614941203" lon="12.239535137079773"><ele>2.0</ele><time>2026-04-05T12:30:39.047Z</time></trkpt><trkpt lat="44.67516368245017" lon="12.239654558498888"><ele>2.0</ele><time>2026-04-05T12:30:40.047Z</time></trkpt><trkpt lat="44.67516594052809" lon="12.23977409619709"><ele>2.0</ele><time>2026-04-05T12:30:41.047Z</time></trkpt><trkpt lat="44.6751739554485" lon="12.239907817309026"><ele>1.9999999999999998</ele><time>2026-04-05T12:30:42.047Z</time></trkpt><trkpt lat="44.67518416312702" lon="12.2400409046203"><ele>2.0</ele><time>2026-04-05T12:30:43.047Z</time></trkpt><trkpt lat="44.67519747298178" lon="12.24016695756256"><ele>1.9999999999999998</ele><time>2026-04-05T12:30:44.047Z</time></trkpt><trkpt lat="44.67518429405849" lon="12.240286878341568"><ele>2.0</ele><time>2026-04-05T12:30:45.047Z</time></trkpt><trkpt lat="44.67519498153563" lon="12.240404152957044"><ele>2.0</ele><time>2026-04-05T12:30:46.047Z</time></trkpt><trkpt lat="44.67520510642532" lon="12.24051272397333"><ele>2.0</ele><time>2026-04-05T12:30:47.047Z</time></trkpt><trkpt lat="44.67521797188341" lon="12.240616535740934"><ele>1.9999999999999998</ele><time>2026-04-05T12:30:48.047Z</time></trkpt><trkpt lat="44.67523181868756" lon="12.240716382530334"><ele>2.0</ele><time>2026-04-05T12:30:49.047Z</time></trkpt><trkpt lat="44.67524947096412" lon="12.240821344504981"><ele>2.0</ele><time>2026-04-05T12:30:50.047Z</time></trkpt><trkpt lat="44.67526061243501" lon="12.24092768930372"><ele>1.9999999999999998</ele><time>2026-04-05T12:30:51.047Z</time></trkpt><trkpt lat="44.67527600756146" lon="12.241025542897573"><ele>2.0</ele><time>2026-04-05T12:30:52.047Z</time></trkpt><trkpt lat="44.67529028048479" lon="12.241124995435401"><ele>2.0</ele><time>2026-04-05T12:30:53.047Z</time></trkpt><trkpt lat="44.67529858621167" lon="12.241217126294295"><ele>1.9999999999999998</ele><time>2026-04-05T12:30:54.047Z</time></trkpt><trkpt lat="44.6753070064258" lon="12.241307063226262"><ele>2.0</ele><time>2026-04-05T12:30:55.047Z</time></trkpt><trkpt lat="44.675319988818636" lon="12.241394721899283"><ele>2.0</ele><time>2026-04-05T12:30:56.047Z</time></trkpt><trkpt lat="44.675346448866776" lon="12.24152911806882"><ele>1.9999999999999998</ele><time>2026-04-05T12:30:58.045Z</time></trkpt><trkpt lat="44.675364367881684" lon="12.241616402037046"><ele>2.0</ele><time>2026-04-05T12:31:01.037Z</time></trkpt><trkpt lat="44.67537632865634" lon="12.241710695003661"><ele>2.0</ele><time>2026-04-05T12:31:19.01Z</time></trkpt><trkpt lat="44.67542266130216" lon="12.241790339739966"><ele>2.0</ele><time>2026-04-05T12:31:22.008Z</time></trkpt><trkpt lat="44.67545706898886" lon="12.241869789360043"><ele>1.9999999999999998</ele><time>2026-04-05T12:31:25.007Z</time></trkpt><trkpt lat="44.67558568684682" lon="12.241902314243713"><ele>2.0</ele><time>2026-04-05T12:31:30.004Z</time></trkpt><trkpt lat="44.67567732238172" lon="12.241896979238062"><ele>2.0</ele><time>2026-04-05T12:31:32.004Z</time></trkpt><trkpt lat="44.67575483680583" lon="12.241897242382407"><ele>2.0</ele><time>2026-04-05T12:31:34.003Z</time></trkpt><trkpt lat="44.675858495969166" lon="12.241884377108118"><ele>2.0</ele><time>2026-04-05T12:31:36.002Z</time></trkpt><trkpt lat="44.67596975712545" lon="12.241850526133293"><ele>2.0</ele><time>2026-04-05T12:31:38.002Z</time></trkpt><trkpt lat="44.67607130556794" lon="12.241828841955993"><ele>2.0</ele><time>2026-04-05T12:31:40.002Z</time></trkpt><trkpt lat="44.67615933758983" lon="12.24182402892818"><ele>2.1666666666666665</ele><time>2026-04-05T12:31:42.001Z</time></trkpt><trkpt lat="44.67624225043475" lon="12.241809742191904"><ele>2.333333333333333</ele><time>2026-04-05T12:31:44.001Z</time></trkpt><trkpt lat="44.676307585916945" lon="12.241794407652163"><ele>2.5</ele><time>2026-04-05T12:31:46Z</time></trkpt><trkpt lat="44.67640348986799" lon="12.241786874728255"><ele>2.6666666666666665</ele><time>2026-04-05T12:31:48Z</time></trkpt><trkpt lat="44.67652465509045" lon="12.241770464464286"><ele>2.8333333333333335</ele><time>2026-04-05T12:31:50Z</time></trkpt><trkpt lat="44.67659077815451" lon="12.241763796330938"><ele>3.0</ele><time>2026-04-05T12:31:51Z</time></trkpt><trkpt lat="44.676660028506646" lon="12.241754698893315"><ele>3.0</ele><time>2026-04-05T12:31:52Z</time></trkpt><trkpt lat="44.67673944387116" lon="12.241744493805323"><ele>3.0</ele><time>2026-04-05T12:31:53Z</time></trkpt><trkpt lat="44.6768072562713" lon="12.241740055646556"><ele>3.0</ele><time>2026-04-05T12:31:54Z</time></trkpt><trkpt lat="44.67687098334513" lon="12.241734000943993"><ele>3.0</ele><time>2026-04-05T12:31:54.999Z</time></trkpt><trkpt lat="44.67699428730348" lon="12.241719633374851"><ele>3.0</ele><time>2026-04-05T12:31:56.999Z</time></trkpt><trkpt lat="44.67710734710983" lon="12.241695913411638"><ele>3.0</ele><time>2026-04-05T12:31:58.999Z</time></trkpt><trkpt lat="44.67722181906132" lon="12.241686887950257"><ele>3.0</ele><time>2026-04-05T12:32:00.999Z</time></trkpt><trkpt lat="44.67730346698451" lon="12.241669531246723"><ele>3.0</ele><time>2026-04-05T12:32:02.999Z</time></trkpt><trkpt lat="44.6773942992899" lon="12.241654251012081"><ele>3.0</ele><time>2026-04-05T12:32:04.999Z</time></trkpt><trkpt lat="44.677518198917156" lon="12.241632383246916"><ele>3.0</ele><time>2026-04-05T12:32:06.999Z</time></trkpt><trkpt lat="44.67758398700065" lon="12.241619461299102"><ele>3.0</ele><time>2026-04-05T12:32:07.999Z</time></trkpt><trkpt lat="44.67765612847768" lon="12.241607328308946"><ele>3.0</ele><time>2026-04-05T12:32:08.999Z</time></trkpt><trkpt lat="44.67772713551102" lon="12.241601069652116"><ele>3.0</ele><time>2026-04-05T12:32:09.998Z</time></trkpt><trkpt lat="44.67779794980931" lon="12.241599057839226"><ele>3.0</ele><time>2026-04-05T12:32:10.998Z</time></trkpt><trkpt lat="44.67786072380783" lon="12.2415919781647"><ele>3.0</ele><time>2026-04-05T12:32:11.998Z</time></trkpt><trkpt lat="44.67799574053435" lon="12.24156625951"><ele>3.0</ele><time>2026-04-05T12:32:13.998Z</time></trkpt><trkpt lat="44.678094505787236" lon="12.241552415893194"><ele>3.0</ele><time>2026-04-05T12:32:15.998Z</time></trkpt><trkpt lat="44.678162295372076" lon="12.241538601237288"><ele>3.0</ele><time>2026-04-05T12:32:18.998Z</time></trkpt><trkpt lat="44.678230400656034" lon="12.241545735072474"><ele>3.0</ele><time>2026-04-05T12:32:26.998Z</time></trkpt><trkpt lat="44.678308725445746" lon="12.241534811437939"><ele>3.0</ele><time>2026-04-05T12:32:29.998Z</time></trkpt><trkpt lat="44.67840259581329" lon="12.241454879278335"><ele>3.0</ele><time>2026-04-05T12:32:31.998Z</time></trkpt><trkpt lat="44.67852908879604" lon="12.24143749136555"><ele>3.0</ele><time>2026-04-05T12:32:33.998Z</time></trkpt><trkpt lat="44.67860288966201" lon="12.24142732500377"><ele>3.0</ele><time>2026-04-05T12:32:34.998Z</time></trkpt><trkpt lat="44.678674079235606" lon="12.24141751836034"><ele>3.0</ele><time>2026-04-05T12:32:35.998Z</time></trkpt><trkpt lat="44.67876237447852" lon="12.241405355349604"><ele>3.0</ele><time>2026-04-05T12:32:36.998Z</time></trkpt><trkpt lat="44.67885333875885" lon="12.241392824664057"><ele>3.0</ele><time>2026-04-05T12:32:37.998Z</time></trkpt><trkpt lat="44.67894352799815" lon="12.241361628872939"><ele>3.0</ele><time>2026-04-05T12:32:38.998Z</time></trkpt><trkpt lat="44.679036448273465" lon="12.241371256533272"><ele>3.0</ele><time>2026-04-05T12:32:39.998Z</time></trkpt><trkpt lat="44.679120089240435" lon="12.241368657760933"><ele>3.0</ele><time>2026-04-05T12:32:40.998Z</time></trkpt><trkpt lat="44.679198751078246" lon="12.241363152601396"><ele>3.0</ele><time>2026-04-05T12:32:41.998Z</time></trkpt><trkpt lat="44.67927696654994" lon="12.241351368608075"><ele>3.0</ele><time>2026-04-05T12:32:42.998Z</time></trkpt><trkpt lat="44.67934949525497" lon="12.241343577663637"><ele>3.0</ele><time>2026-04-05T12:32:43.998Z</time></trkpt><trkpt lat="44.67941865140889" lon="12.24132828468789"><ele>3.0</ele><time>2026-04-05T12:32:44.998Z</time></trkpt><trkpt lat="44.67950998885309" lon="12.241312458592278"><ele>3.2</ele><time>2026-04-05T12:32:46.998Z</time></trkpt><trkpt lat="44.679590021442934" lon="12.241302482473301"><ele>3.4</ele><time>2026-04-05T12:32:49.997Z</time></trkpt><trkpt lat="44.67965823707378" lon="12.241341627228817"><ele>3.6000000000000005</ele><time>2026-04-05T12:32:51.997Z</time></trkpt><trkpt lat="44.679751154985006" lon="12.241285988070898"><ele>3.8000000000000003</ele><time>2026-04-05T12:32:53.997Z</time></trkpt><trkpt lat="44.679875480348215" lon="12.241230847944975"><ele>4.0</ele><time>2026-04-05T12:32:55.997Z</time></trkpt><trkpt lat="44.679946647462614" lon="12.241218791428013"><ele>3.9999999999999996</ele><time>2026-04-05T12:32:56.997Z</time></trkpt><trkpt lat="44.680011127873904" lon="12.241212238164334"><ele>4.0</ele><time>2026-04-05T12:32:57.997Z</time></trkpt><trkpt lat="44.68007724886454" lon="12.241213699631205"><ele>4.0</ele><time>2026-04-05T12:32:58.997Z</time></trkpt><trkpt lat="44.68020607475815" lon="12.241191043369893"><ele>4.0</ele><time>2026-04-05T12:33:00.997Z</time></trkpt><trkpt lat="44.68028295343488" lon="12.241180937920264"><ele>3.9999999999999996</ele><time>2026-04-05T12:33:01.997Z</time></trkpt><trkpt lat="44.68036136724272" lon="12.241172002200338"><ele>4.0</ele><time>2026-04-05T12:33:02.999Z</time></trkpt><trkpt lat="44.68044296691915" lon="12.24116124410549"><ele>3.9999999999999996</ele><time>2026-04-05T12:33:03.999Z</time></trkpt><trkpt lat="44.68052885884416" lon="12.241146254942292"><ele>4.0</ele><time>2026-04-05T12:33:04.999Z</time></trkpt><trkpt lat="44.68061216960443" lon="12.241132264185305"><ele>4.0</ele><time>2026-04-05T12:33:05.999Z</time></trkpt><trkpt lat="44.68069185573501" lon="12.241117303901"><ele>4.0</ele><time>2026-04-05T12:33:06.999Z</time></trkpt><trkpt lat="44.68076760658831" lon="12.24110684413892"><ele>3.9999999999999996</ele><time>2026-04-05T12:33:07.999Z</time></trkpt><trkpt lat="44.680840819361585" lon="12.241097112279288"><ele>4.0</ele><time>2026-04-05T12:33:08.999Z</time></trkpt><trkpt lat="44.680913089043464" lon="12.24108671249738"><ele>3.9999999999999996</ele><time>2026-04-05T12:33:09.999Z</time></trkpt><trkpt lat="44.68098528749936" lon="12.241071852370053"><ele>4.0</ele><time>2026-04-05T12:33:10.999Z</time></trkpt><trkpt lat="44.68106065833126" lon="12.241055757342632"><ele>4.0</ele><time>2026-04-05T12:33:11.999Z</time></trkpt><trkpt lat="44.68113826399482" lon="12.241039855821178"><ele>4.0</ele><time>2026-04-05T12:33:12.999Z</time></trkpt><trkpt lat="44.68121907509816" lon="12.24102993008585"><ele>3.9999999999999996</ele><time>2026-04-05T12:33:13.999Z</time></trkpt><trkpt lat="44.68130299178868" lon="12.241019898588805"><ele>4.0</ele><time>2026-04-05T12:33:15Z</time></trkpt><trkpt lat="44.68138551250417" lon="12.241011779913203"><ele>3.6666666666666665</ele><time>2026-04-05T12:33:16Z</time></trkpt><trkpt lat="44.6814609413128" lon="12.24099862014275"><ele>3.333333333333333</ele><time>2026-04-05T12:33:17Z</time></trkpt><trkpt lat="44.68153056231696" lon="12.240989407251679"><ele>3.0</ele><time>2026-04-05T12:33:18Z</time></trkpt><trkpt lat="44.681593432564775" lon="12.240982286652992"><ele>2.6666666666666665</ele><time>2026-04-05T12:33:19Z</time></trkpt><trkpt lat="44.68170719586622" lon="12.240964918365938"><ele>2.333333333333333</ele><time>2026-04-05T12:33:21Z</time></trkpt><trkpt lat="44.68178537584458" lon="12.240957096662088"><ele>2.0</ele><time>2026-04-05T12:33:23Z</time></trkpt><trkpt lat="44.68185783049365" lon="12.240944383699857"><ele>1.9999999999999998</ele><time>2026-04-05T12:33:25Z</time></trkpt><trkpt lat="44.68193102854204" lon="12.240961650625811"><ele>2.0</ele><time>2026-04-05T12:33:27Z</time></trkpt><trkpt lat="44.682004263149466" lon="12.240943560253065"><ele>2.0</ele><time>2026-04-05T12:33:29Z</time></trkpt><trkpt lat="44.682093204227655" lon="12.240925681038295"><ele>2.0</ele><time>2026-04-05T12:33:31Z</time></trkpt><trkpt lat="44.682189081915" lon="12.240913226024983"><ele>1.9999999999999998</ele><time>2026-04-05T12:33:33Z</time></trkpt><trkpt lat="44.68230122685738" lon="12.240897539613831"><ele>2.0</ele><time>2026-04-05T12:33:35Z</time></trkpt><trkpt lat="44.68237034010439" lon="12.240893566317853"><ele>2.0</ele><time>2026-04-05T12:33:36Z</time></trkpt><trkpt lat="44.68245040541732" lon="12.240882547287395"><ele>2.0</ele><time>2026-04-05T12:33:37Z</time></trkpt><trkpt lat="44.68253689207463" lon="12.240875316136806"><ele>2.0</ele><time>2026-04-05T12:33:38Z</time></trkpt><trkpt lat="44.68262785047876" lon="12.240864053538516"><ele>2.0</ele><time>2026-04-05T12:33:39Z</time></trkpt><trkpt lat="44.68272705004254" lon="12.240852385455964"><ele>2.0</ele><time>2026-04-05T12:33:40Z</time></trkpt><trkpt lat="44.682820635405214" lon="12.240839379901432"><ele>2.2857142857142856</ele><time>2026-04-05T12:33:41Z</time></trkpt><trkpt lat="44.682906574600885" lon="12.240826530787999"><ele>2.571428571428571</ele><time>2026-04-05T12:33:42Z</time></trkpt><trkpt lat="44.682987548317215" lon="12.240819055628052"><ele>2.8571428571428568</ele><time>2026-04-05T12:33:43Z</time></trkpt><trkpt lat="44.68306369218088" lon="12.2408084356822"><ele>3.142857142857143</ele><time>2026-04-05T12:33:44Z</time></trkpt><trkpt lat="44.68312978387637" lon="12.240800464803682"><ele>3.428571428571428</ele><time>2026-04-05T12:33:45Z</time></trkpt><trkpt lat="44.68319282817598" lon="12.240793210564627"><ele>3.714285714285714</ele><time>2026-04-05T12:33:46Z</time></trkpt><trkpt lat="44.68325933127309" lon="12.240784328959087"><ele>4.0</ele><time>2026-04-05T12:33:47Z</time></trkpt><trkpt lat="44.68332588613674" lon="12.240769298043492"><ele>3.9999999999999996</ele><time>2026-04-05T12:33:48Z</time></trkpt><trkpt lat="44.68340679472914" lon="12.240752093950896"><ele>4.0</ele><time>2026-04-05T12:33:49Z</time></trkpt><trkpt lat="44.68349127893846" lon="12.240740156030858"><ele>4.0</ele><time>2026-04-05T12:33:50Z</time></trkpt><trkpt lat="44.68357574715436" lon="12.240725939674027"><ele>4.0</ele><time>2026-04-05T12:33:51Z</time></trkpt><trkpt lat="44.683659803280655" lon="12.24071401664173"><ele>3.9999999999999996</ele><time>2026-04-05T12:33:52Z</time></trkpt><trkpt lat="44.6837354631233" lon="12.24070265913057"><ele>4.0</ele><time>2026-04-05T12:33:53Z</time></trkpt><trkpt lat="44.68380713117437" lon="12.240696236970999"><ele>3.833333333333333</ele><time>2026-04-05T12:33:54Z</time></trkpt><trkpt lat="44.683882974748464" lon="12.240686423602996"><ele>3.6666666666666665</ele><time>2026-04-05T12:33:55Z</time></trkpt><trkpt lat="44.68396583699456" lon="12.240674492260196"><ele>3.5</ele><time>2026-04-05T12:33:56Z</time></trkpt><trkpt lat="44.684048601700056" lon="12.240664030315989"><ele>3.333333333333333</ele><time>2026-04-05T12:33:57Z</time></trkpt><trkpt lat="44.68412064801924" lon="12.240654186510595"><ele>3.1666666666666665</ele><time>2026-04-05T12:33:58Z</time></trkpt><trkpt lat="44.68418911978566" lon="12.240644800700338"><ele>3.0</ele><time>2026-04-05T12:33:59Z</time></trkpt><trkpt lat="44.68431287793884" lon="12.240629020724187"><ele>2.9999999999999996</ele><time>2026-04-05T12:34:01Z</time></trkpt><trkpt lat="44.68438164283441" lon="12.240617542312409"><ele>3.0</ele><time>2026-04-05T12:34:02Z</time></trkpt><trkpt lat="44.6844509712285" lon="12.2406143716935"><ele>3.0</ele><time>2026-04-05T12:34:03Z</time></trkpt><trkpt lat="44.684525980268205" lon="12.240604520082455"><ele>3.0</ele><time>2026-04-05T12:34:04Z</time></trkpt><trkpt lat="44.684600988725904" lon="12.240592157595268"><ele>3.0</ele><time>2026-04-05T12:34:05Z</time></trkpt><trkpt lat="44.68467234824581" lon="12.240581044127813"><ele>2.9999999999999996</ele><time>2026-04-05T12:34:06Z</time></trkpt><trkpt lat="44.68473985373933" lon="12.240571701172259"><ele>3.0</ele><time>2026-04-05T12:34:07Z</time></trkpt><trkpt lat="44.68480579900519" lon="12.240563536790242"><ele>3.0</ele><time>2026-04-05T12:34:07.999Z</time></trkpt><trkpt lat="44.68491025041462" lon="12.24055338896096"><ele>3.0</ele><time>2026-04-05T12:34:09.999Z</time></trkpt><trkpt lat="44.68499889104722" lon="12.240541126239103"><ele>3.0</ele><time>2026-04-05T12:34:11.999Z</time></trkpt><trkpt lat="44.685098925255176" lon="12.240518976361052"><ele>3.0</ele><time>2026-04-05T12:34:13.999Z</time></trkpt><trkpt lat="44.68521374428752" lon="12.240499233782469"><ele>3.0</ele><time>2026-04-05T12:34:15.999Z</time></trkpt><trkpt lat="44.685322717977456" lon="12.24048732070846"><ele>3.0</ele><time>2026-04-05T12:34:17.999Z</time></trkpt><trkpt lat="44.68542378521253" lon="12.240468439614675"><ele>3.0</ele><time>2026-04-05T12:34:19.999Z</time></trkpt><trkpt lat="44.6855467187889" lon="12.240442097286486"><ele>3.0</ele><time>2026-04-05T12:34:21.999Z</time></trkpt><trkpt lat="44.685618449423764" lon="12.240413256331973"><ele>3.0</ele><time>2026-04-05T12:34:22.999Z</time></trkpt><trkpt lat="44.685689070925626" lon="12.240379672595072"><ele>3.0</ele><time>2026-04-05T12:34:23.999Z</time></trkpt><trkpt lat="44.685770637216244" lon="12.240322448433604"><ele>3.0</ele><time>2026-04-05T12:34:24.999Z</time></trkpt><trkpt lat="44.68586853154441" lon="12.240298671212274"><ele>3.0</ele><time>2026-04-05T12:34:25.999Z</time></trkpt><trkpt lat="44.68596727090678" lon="12.240323132364397"><ele>3.0</ele><time>2026-04-05T12:34:26.999Z</time></trkpt><trkpt lat="44.686047316608416" lon="12.240312573658128"><ele>3.0</ele><time>2026-04-05T12:34:27.999Z</time></trkpt><trkpt lat="44.68615091827869" lon="12.240298322108245"><ele>3.0</ele><time>2026-04-05T12:34:29.999Z</time></trkpt><trkpt lat="44.68623174130198" lon="12.240287219056155"><ele>3.0</ele><time>2026-04-05T12:34:32.999Z</time></trkpt><trkpt lat="44.68629995792231" lon="12.240254879991328"><ele>3.0</ele><time>2026-04-05T12:34:35.999Z</time></trkpt><trkpt lat="44.68638255857276" lon="12.24025828315456"><ele>3.0</ele><time>2026-04-05T12:34:38.999Z</time></trkpt><trkpt lat="44.68650543667089" lon="12.24025234546761"><ele>3.0</ele><time>2026-04-05T12:34:40.999Z</time></trkpt><trkpt lat="44.68658956097043" lon="12.24023642091595"><ele>3.0</ele><time>2026-04-05T12:34:41.999Z</time></trkpt><trkpt lat="44.68667602967322" lon="12.240222650711242"><ele>3.0</ele><time>2026-04-05T12:34:42.999Z</time></trkpt><trkpt lat="44.68676774825145" lon="12.240205838797529"><ele>3.0</ele><time>2026-04-05T12:34:43.999Z</time></trkpt><trkpt lat="44.68686131475702" lon="12.240198175212205"><ele>3.0</ele><time>2026-04-05T12:34:44.999Z</time></trkpt><trkpt lat="44.68694794505064" lon="12.240194375762174"><ele>3.0</ele><time>2026-04-05T12:34:45.999Z</time></trkpt><trkpt lat="44.687048372661515" lon="12.240182315587099"><ele>3.0</ele><time>2026-04-05T12:34:46.999Z</time></trkpt><trkpt lat="44.687152713198884" lon="12.240173827412276"><ele>3.0</ele><time>2026-04-05T12:34:47.999Z</time></trkpt><trkpt lat="44.687256265781706" lon="12.240164116569124"><ele>2.6</ele><time>2026-04-05T12:34:48.999Z</time></trkpt><trkpt lat="44.687358106027105" lon="12.240148855417123"><ele>2.1999999999999997</ele><time>2026-04-05T12:34:49.999Z</time></trkpt><trkpt lat="44.687459015330965" lon="12.240130297889621"><ele>1.8</ele><time>2026-04-05T12:34:50.999Z</time></trkpt><trkpt lat="44.68756194929293" lon="12.240107871451805"><ele>1.4</ele><time>2026-04-05T12:34:51.999Z</time></trkpt><trkpt lat="44.68765717090912" lon="12.240080703711412"><ele>1.0</ele><time>2026-04-05T12:34:52.999Z</time></trkpt><trkpt lat="44.687743691143346" lon="12.240043471418117"><ele>1.0</ele><time>2026-04-05T12:34:53.999Z</time></trkpt><trkpt lat="44.687826363232844" lon="12.239987975037494"><ele>1.0</ele><time>2026-04-05T12:34:54.999Z</time></trkpt><trkpt lat="44.687902068810125" lon="12.239925235605703"><ele>1.0</ele><time>2026-04-05T12:34:55.999Z</time></trkpt><trkpt lat="44.687982715823324" lon="12.23984394344752"><ele>1.0</ele><time>2026-04-05T12:34:56.999Z</time></trkpt><trkpt lat="44.68805600300573" lon="12.239760821516866"><ele>1.0</ele><time>2026-04-05T12:34:57.999Z</time></trkpt><trkpt lat="44.68812632097285" lon="12.239675918291729"><ele>0.9999999999999999</ele><time>2026-04-05T12:34:58.999Z</time></trkpt><trkpt lat="44.688188720221376" lon="12.239591327878944"><ele>1.0</ele><time>2026-04-05T12:34:59.999Z</time></trkpt><trkpt lat="44.68824254453215" lon="12.239511457132155"><ele>1.0</ele><time>2026-04-05T12:35:00.999Z</time></trkpt><trkpt lat="44.68829952068104" lon="12.239429499928509"><ele>1.0</ele><time>2026-04-05T12:35:01.999Z</time></trkpt><trkpt lat="44.6883471391873" lon="12.23935381343015"><ele>0.9999999999999999</ele><time>2026-04-05T12:35:02.999Z</time></trkpt><trkpt lat="44.68839587958979" lon="12.239271693186746"><ele>1.0</ele><time>2026-04-05T12:35:03.999Z</time></trkpt><trkpt lat="44.68844841834364" lon="12.23918741262142"><ele>1.0</ele><time>2026-04-05T12:35:04.999Z</time></trkpt><trkpt lat="44.68849645531194" lon="12.239074411011543"><ele>1.0</ele><time>2026-04-05T12:35:05.999Z</time></trkpt><trkpt lat="44.68853804313824" lon="12.238952028090718"><ele>1.0</ele><time>2026-04-05T12:35:06.999Z</time></trkpt><trkpt lat="44.688576068697444" lon="12.238791906208773"><ele>1.0</ele><time>2026-04-05T12:35:07.999Z</time></trkpt><trkpt lat="44.688654030432346" lon="12.238624218748324"><ele>1.0</ele><time>2026-04-05T12:35:09Z</time></trkpt><trkpt lat="44.688709716264334" lon="12.238404079486289"><ele>1.0</ele><time>2026-04-05T12:35:10Z</time></trkpt><trkpt lat="44.68876186001559" lon="12.238183027577898"><ele>1.0</ele><time>2026-04-05T12:35:11Z</time></trkpt><trkpt lat="44.68878743782718" lon="12.237954299717284"><ele>1.0</ele><time>2026-04-05T12:35:12Z</time></trkpt><trkpt lat="44.68879777309018" lon="12.23771664343251"><ele>1.0</ele><time>2026-04-05T12:35:13Z</time></trkpt><trkpt lat="44.6888026695925" lon="12.237473871609867"><ele>1.0</ele><time>2026-04-05T12:35:14Z</time></trkpt><trkpt lat="44.688796250119" lon="12.23721414228593"><ele>0.6666666666666666</ele><time>2026-04-05T12:35:15Z</time></trkpt><trkpt lat="44.68878827774566" lon="12.236961158754612"><ele>0.3333333333333333</ele><time>2026-04-05T12:35:16Z</time></trkpt><trkpt lat="44.6887826409089" lon="12.236702153424753"><ele>0.0</ele><time>2026-04-05T12:35:17Z</time></trkpt><trkpt lat="44.688782793370684" lon="12.236457655306085"><ele>0.0</ele><time>2026-04-05T12:35:18Z</time></trkpt><trkpt lat="44.68878994663551" lon="12.236223235402912"><ele>0.0</ele><time>2026-04-05T12:35:19Z</time></trkpt><trkpt lat="44.68878435911002" lon="12.235986615804315"><ele>0.0</ele><time>2026-04-05T12:35:20Z</time></trkpt><trkpt lat="44.68877979914666" lon="12.235745475123336"><ele>-0.3333333333333333</ele><time>2026-04-05T12:35:21Z</time></trkpt><trkpt lat="44.68878293701518" lon="12.235500522148822"><ele>-0.6666666666666666</ele><time>2026-04-05T12:35:22Z</time></trkpt><trkpt lat="44.68878866622673" lon="12.235264985789746"><ele>-1.0</ele><time>2026-04-05T12:35:23Z</time></trkpt><trkpt lat="44.68879024333162" lon="12.235035560856309"><ele>-1.0</ele><time>2026-04-05T12:35:24Z</time></trkpt><trkpt lat="44.68878621910215" lon="12.234807532492713"><ele>-1.0</ele><time>2026-04-05T12:35:25Z</time></trkpt><trkpt lat="44.688781423922386" lon="12.234565104763048"><ele>-1.0</ele><time>2026-04-05T12:35:26Z</time></trkpt><trkpt lat="44.68877732039822" lon="12.234318129509102"><ele>-1.0</ele><time>2026-04-05T12:35:27Z</time></trkpt><trkpt lat="44.68877339395426" lon="12.234066015057724"><ele>-1.0</ele><time>2026-04-05T12:35:28Z</time></trkpt><trkpt lat="44.688767777575336" lon="12.233804844560696"><ele>-1.0</ele><time>2026-04-05T12:35:29Z</time></trkpt><trkpt lat="44.68875736748571" lon="12.233531669007833"><ele>-1.0</ele><time>2026-04-05T12:35:30Z</time></trkpt><trkpt lat="44.688752159815195" lon="12.23324678655928"><ele>-1.0</ele><time>2026-04-05T12:35:31Z</time></trkpt><trkpt lat="44.688751142322374" lon="12.232952672213354"><ele>-1.0</ele><time>2026-04-05T12:35:32Z</time></trkpt><trkpt lat="44.688750613698836" lon="12.232650459986363"><ele>-1.0</ele><time>2026-04-05T12:35:33Z</time></trkpt><trkpt lat="44.68875260890823" lon="12.232357457353862"><ele>-1.0</ele><time>2026-04-05T12:35:34Z</time></trkpt><trkpt lat="44.68875743896225" lon="12.232061658802392"><ele>-1.0</ele><time>2026-04-05T12:35:35Z</time></trkpt><trkpt lat="44.68875160429425" lon="12.231782536414551"><ele>-1.0</ele><time>2026-04-05T12:35:36Z</time></trkpt><trkpt lat="44.68874833028568" lon="12.231510986283219"><ele>-1.0</ele><time>2026-04-05T12:35:37Z</time></trkpt><trkpt lat="44.68874731649177" lon="12.231235560549095"><ele>-1.0</ele><time>2026-04-05T12:35:38Z</time></trkpt><trkpt lat="44.68875173790985" lon="12.230997277614815"><ele>-1.0</ele><time>2026-04-05T12:35:39Z</time></trkpt><trkpt lat="44.688753826420125" lon="12.230762466379302"><ele>-1.0</ele><time>2026-04-05T12:35:40Z</time></trkpt><trkpt lat="44.68875328709815" lon="12.230554033862875"><ele>-1.0</ele><time>2026-04-05T12:35:41Z</time></trkpt><trkpt lat="44.68878485322493" lon="12.230367781806796"><ele>-0.4</ele><time>2026-04-05T12:35:42Z</time></trkpt><trkpt lat="44.68879210812398" lon="12.230192773497016"><ele>0.19999999999999996</ele><time>2026-04-05T12:35:43Z</time></trkpt><trkpt lat="44.68880755394435" lon="12.230055618971452"><ele>0.8000000000000002</ele><time>2026-04-05T12:35:44Z</time></trkpt><trkpt lat="44.688823886763295" lon="12.229949257658975"><ele>1.4000000000000001</ele><time>2026-04-05T12:35:45Z</time></trkpt><trkpt lat="44.688869749666736" lon="12.229835315987087"><ele>2.0</ele><time>2026-04-05T12:35:47Z</time></trkpt><trkpt lat="44.688829143394024" lon="12.229757498346478"><ele>2.25</ele><time>2026-04-05T12:36:06Z</time></trkpt><trkpt lat="44.68884421539495" lon="12.229640951782768"><ele>2.5</ele><time>2026-04-05T12:36:09Z</time></trkpt><trkpt lat="44.68904667703015" lon="12.229654751134094"><ele>2.75</ele><time>2026-04-05T12:36:10Z</time></trkpt><trkpt lat="44.68912762792189" lon="12.229659030276194"><ele>3.0</ele><time>2026-04-05T12:36:11Z</time></trkpt><trkpt lat="44.68921295941351" lon="12.229664530276317"><ele>3.0</ele><time>2026-04-05T12:36:12Z</time></trkpt><trkpt lat="44.689313496425555" lon="12.229670082291834"><ele>3.0</ele><time>2026-04-05T12:36:13Z</time></trkpt><trkpt lat="44.68943209998672" lon="12.229676632001443"><ele>3.0</ele><time>2026-04-05T12:36:14Z</time></trkpt><trkpt lat="44.68955741494143" lon="12.229683552340955"><ele>3.0</ele><time>2026-04-05T12:36:15Z</time></trkpt><trkpt lat="44.68968946134742" lon="12.229691177933864"><ele>3.0</ele><time>2026-04-05T12:36:16Z</time></trkpt><trkpt lat="44.6898304872465" lon="12.229699462883275"><ele>3.0</ele><time>2026-04-05T12:36:16.999Z</time></trkpt><trkpt lat="44.68997662991962" lon="12.229708048436551"><ele>3.0</ele><time>2026-04-05T12:36:17.999Z</time></trkpt><trkpt lat="44.6901338197547" lon="12.229693678920997"><ele>3.0</ele><time>2026-04-05T12:36:18.999Z</time></trkpt><trkpt lat="44.69029800502259" lon="12.22970282029889"><ele>2.6666666666666665</ele><time>2026-04-05T12:36:19.999Z</time></trkpt><trkpt lat="44.69046592473279" lon="12.229709618004934"><ele>2.333333333333333</ele><time>2026-04-05T12:36:20.999Z</time></trkpt><trkpt lat="44.69063338201496" lon="12.22972162244716"><ele>2.0</ele><time>2026-04-05T12:36:21.999Z</time></trkpt><trkpt lat="44.69080831206353" lon="12.229731964037734"><ele>2.0</ele><time>2026-04-05T12:36:22.999Z</time></trkpt><trkpt lat="44.69098732439697" lon="12.229742436034483"><ele>2.0</ele><time>2026-04-05T12:36:23.999Z</time></trkpt><trkpt lat="44.69116292114533" lon="12.229750932863185"><ele>2.0</ele><time>2026-04-05T12:36:24.999Z</time></trkpt><trkpt lat="44.691332611104826" lon="12.229765771555021"><ele>1.6666666666666665</ele><time>2026-04-05T12:36:25.999Z</time></trkpt><trkpt lat="44.69149919663006" lon="12.229776067826014"><ele>1.3333333333333333</ele><time>2026-04-05T12:36:26.999Z</time></trkpt><trkpt lat="44.691664918714004" lon="12.229776109067657"><ele>1.0</ele><time>2026-04-05T12:36:27.999Z</time></trkpt><trkpt lat="44.69183770249308" lon="12.229774275942514"><ele>1.0</ele><time>2026-04-05T12:36:28.999Z</time></trkpt><trkpt lat="44.69201578645336" lon="12.229791249495355"><ele>1.0</ele><time>2026-04-05T12:36:29.999Z</time></trkpt><trkpt lat="44.69220498874306" lon="12.22980933101309"><ele>1.0</ele><time>2026-04-05T12:36:30.999Z</time></trkpt><trkpt lat="44.692398238950496" lon="12.229819278662134"><ele>1.0</ele><time>2026-04-05T12:36:31.999Z</time></trkpt><trkpt lat="44.69259475223416" lon="12.229831933271168"><ele>1.0</ele><time>2026-04-05T12:36:32.999Z</time></trkpt><trkpt lat="44.69279694658181" lon="12.22983901467642"><ele>1.0</ele><time>2026-04-05T12:36:33.999Z</time></trkpt><trkpt lat="44.693001168445285" lon="12.229846424527315"><ele>0.6666666666666666</ele><time>2026-04-05T12:36:34.999Z</time></trkpt><trkpt lat="44.693205552996474" lon="12.229855644374478"><ele>0.3333333333333333</ele><time>2026-04-05T12:36:35.999Z</time></trkpt><trkpt lat="44.69341315327972" lon="12.229868106262357"><ele>0.0</ele><time>2026-04-05T12:36:36.999Z</time></trkpt><trkpt lat="44.693622725476416" lon="12.229879688298539"><ele>0.6666666666666666</ele><time>2026-04-05T12:36:37.999Z</time></trkpt><trkpt lat="44.69382888343233" lon="12.22992516273485"><ele>1.3333333333333333</ele><time>2026-04-05T12:36:38.999Z</time></trkpt><trkpt lat="44.69402636865326" lon="12.229950562695153"><ele>2.0</ele><time>2026-04-05T12:36:39.999Z</time></trkpt><trkpt lat="44.69421884262074" lon="12.229972823606236"><ele>2.0</ele><time>2026-04-05T12:36:40.999Z</time></trkpt><trkpt lat="44.69441805506337" lon="12.229994989472118"><ele>2.0</ele><time>2026-04-05T12:36:41.999Z</time></trkpt><trkpt lat="44.69460895111862" lon="12.229987008614485"><ele>2.0</ele><time>2026-04-05T12:36:42.999Z</time></trkpt><trkpt lat="44.694801716322445" lon="12.23000359097959"><ele>2.0</ele><time>2026-04-05T12:36:43.999Z</time></trkpt><trkpt lat="44.69499819417281" lon="12.230013618786735"><ele>2.0</ele><time>2026-04-05T12:36:44.999Z</time></trkpt><trkpt lat="44.695199301016714" lon="12.230020802350852"><ele>2.0</ele><time>2026-04-05T12:36:45.999Z</time></trkpt><trkpt lat="44.69540194175616" lon="12.230023519089952"><ele>2.0</ele><time>2026-04-05T12:36:46.999Z</time></trkpt><trkpt lat="44.69561090789965" lon="12.23002373293764"><ele>2.0</ele><time>2026-04-05T12:36:47.999Z</time></trkpt><trkpt lat="44.69582502432033" lon="12.230029889147525"><ele>2.0</ele><time>2026-04-05T12:36:48.999Z</time></trkpt><trkpt lat="44.69604587552892" lon="12.230031704322919"><ele>2.0</ele><time>2026-04-05T12:36:49.999Z</time></trkpt><trkpt lat="44.69626505856084" lon="12.230043990497332"><ele>2.0</ele><time>2026-04-05T12:36:50.999Z</time></trkpt><trkpt lat="44.69648117921559" lon="12.23005321499771"><ele>2.0</ele><time>2026-04-05T12:36:51.999Z</time></trkpt><trkpt lat="44.69668637800977" lon="12.230062260167257"><ele>2.0</ele><time>2026-04-05T12:36:52.999Z</time></trkpt><trkpt lat="44.696895497169116" lon="12.230073637987276"><ele>2.0</ele><time>2026-04-05T12:36:53.999Z</time></trkpt><trkpt lat="44.69710571912154" lon="12.2300885524746"><ele>2.0</ele><time>2026-04-05T12:36:54.999Z</time></trkpt><trkpt lat="44.6973120278423" lon="12.230140127299789"><ele>2.333333333333333</ele><time>2026-04-05T12:36:55.999Z</time></trkpt><trkpt lat="44.69752266028287" lon="12.230164093641495"><ele>2.6666666666666665</ele><time>2026-04-05T12:36:56.999Z</time></trkpt><trkpt lat="44.69773551625314" lon="12.230183944632968"><ele>3.0</ele><time>2026-04-05T12:36:57.999Z</time></trkpt><trkpt lat="44.697949994014685" lon="12.230205837425077"><ele>3.0</ele><time>2026-04-05T12:36:58.999Z</time></trkpt><trkpt lat="44.69817048569308" lon="12.230230366470112"><ele>3.0</ele><time>2026-04-05T12:36:59.999Z</time></trkpt><trkpt lat="44.69839881508638" lon="12.230249941933016"><ele>2.5</ele><time>2026-04-05T12:37:00.999Z</time></trkpt><trkpt lat="44.698633309946494" lon="12.2302672765623"><ele>2.0</ele><time>2026-04-05T12:37:01.999Z</time></trkpt><trkpt lat="44.69886255900785" lon="12.230287494934467"><ele>2.0</ele><time>2026-04-05T12:37:02.999Z</time></trkpt><trkpt lat="44.69909404625354" lon="12.230304203364565"><ele>2.0</ele><time>2026-04-05T12:37:03.999Z</time></trkpt><trkpt lat="44.69933076630373" lon="12.23031650215814"><ele>2.0</ele><time>2026-04-05T12:37:04.999Z</time></trkpt><trkpt lat="44.69957044357546" lon="12.230334716984874"><ele>2.0</ele><time>2026-04-05T12:37:05.999Z</time></trkpt><trkpt lat="44.69980746615543" lon="12.230365376056012"><ele>2.0</ele><time>2026-04-05T12:37:06.999Z</time></trkpt><trkpt lat="44.700045054889216" lon="12.230387256131865"><ele>2.0</ele><time>2026-04-05T12:37:07.999Z</time></trkpt><trkpt lat="44.700285759069345" lon="12.230411564249547"><ele>1.0</ele><time>2026-04-05T12:37:08.999Z</time></trkpt><trkpt lat="44.700526696948955" lon="12.230432093232189"><ele>0.0</ele><time>2026-04-05T12:37:09.999Z</time></trkpt><trkpt lat="44.70077522235735" lon="12.230448821807997"><ele>0.0</ele><time>2026-04-05T12:37:10.999Z</time></trkpt><trkpt lat="44.70102212050135" lon="12.230470725825185"><ele>0.0</ele><time>2026-04-05T12:37:11.999Z</time></trkpt><trkpt lat="44.701277897690574" lon="12.230499124882531"><ele>0.0</ele><time>2026-04-05T12:37:12.999Z</time></trkpt><trkpt lat="44.701535583926486" lon="12.23051368803865"><ele>0.0</ele><time>2026-04-05T12:37:13.999Z</time></trkpt><trkpt lat="44.70179313434425" lon="12.230530955754354"><ele>0.5</ele><time>2026-04-05T12:37:15Z</time></trkpt><trkpt lat="44.70204738215516" lon="12.230554554530368"><ele>1.0</ele><time>2026-04-05T12:37:16Z</time></trkpt><trkpt lat="44.702300162875005" lon="12.23058404849148"><ele>1.0</ele><time>2026-04-05T12:37:17Z</time></trkpt><trkpt lat="44.702553542467534" lon="12.230611232467298"><ele>1.0</ele><time>2026-04-05T12:37:18Z</time></trkpt><trkpt lat="44.70280038944047" lon="12.230638856817514"><ele>1.5</ele><time>2026-04-05T12:37:19Z</time></trkpt><trkpt lat="44.703056927284415" lon="12.230655864348954"><ele>2.0</ele><time>2026-04-05T12:37:20Z</time></trkpt><trkpt lat="44.703308727797605" lon="12.230675887072065"><ele>2.0</ele><time>2026-04-05T12:37:21Z</time></trkpt><trkpt lat="44.70356275269917" lon="12.230692673722336"><ele>2.0</ele><time>2026-04-05T12:37:22Z</time></trkpt><trkpt lat="44.70381701131238" lon="12.230707072962348"><ele>3.5</ele><time>2026-04-05T12:37:23Z</time></trkpt><trkpt lat="44.704065789026004" lon="12.230734501116107"><ele>5.0</ele><time>2026-04-05T12:37:24Z</time></trkpt><trkpt lat="44.70431994927641" lon="12.230754776276893"><ele>3.5</ele><time>2026-04-05T12:37:25Z</time></trkpt><trkpt lat="44.704569932145894" lon="12.230777092843619"><ele>2.0</ele><time>2026-04-05T12:37:26Z</time></trkpt><trkpt lat="44.70481057079619" lon="12.230802226504032"><ele>2.0</ele><time>2026-04-05T12:37:27Z</time></trkpt><trkpt lat="44.705047112313565" lon="12.230822577545693"><ele>2.0</ele><time>2026-04-05T12:37:28Z</time></trkpt><trkpt lat="44.70528072163875" lon="12.230859981159425"><ele>1.6666666666666665</ele><time>2026-04-05T12:37:29Z</time></trkpt><trkpt lat="44.70549712303925" lon="12.23089016462829"><ele>1.3333333333333333</ele><time>2026-04-05T12:37:30Z</time></trkpt><trkpt lat="44.7057022812157" lon="12.230905863842361"><ele>1.0</ele><time>2026-04-05T12:37:31Z</time></trkpt><trkpt lat="44.705890107177716" lon="12.230917836572125"><ele>1.0</ele><time>2026-04-05T12:37:32Z</time></trkpt><trkpt lat="44.706054218516776" lon="12.23093197160579"><ele>1.0</ele><time>2026-04-05T12:37:33Z</time></trkpt><trkpt lat="44.70619594484192" lon="12.230928917803988"><ele>1.0</ele><time>2026-04-05T12:37:34Z</time></trkpt><trkpt lat="44.70631430032392" lon="12.23092439798643"><ele>1.0</ele><time>2026-04-05T12:37:35Z</time></trkpt><trkpt lat="44.706410806888925" lon="12.230916094909718"><ele>0.9999999999999999</ele><time>2026-04-05T12:37:36Z</time></trkpt><trkpt lat="44.70650123227778" lon="12.23091341484672"><ele>1.0</ele><time>2026-04-05T12:37:37Z</time></trkpt><trkpt lat="44.7065719456533" lon="12.230904305773745"><ele>1.0</ele><time>2026-04-05T12:37:38Z</time></trkpt><trkpt lat="44.70667566940576" lon="12.23089299304237"><ele>1.0</ele><time>2026-04-05T12:37:40Z</time></trkpt><trkpt lat="44.706743096041876" lon="12.230890617966935"><ele>0.9999999999999999</ele><time>2026-04-05T12:37:42Z</time></trkpt><trkpt lat="44.70683607871037" lon="12.230847699134108"><ele>1.0</ele><time>2026-04-05T12:38:13Z</time></trkpt><trkpt lat="44.706908659295976" lon="12.230841062670892"><ele>1.2000000000000002</ele><time>2026-04-05T12:38:14Z</time></trkpt><trkpt lat="44.706999225479336" lon="12.230830427286808"><ele>1.4000000000000001</ele><time>2026-04-05T12:38:15Z</time></trkpt><trkpt lat="44.707103814599684" lon="12.230814972598656"><ele>1.6</ele><time>2026-04-05T12:38:16Z</time></trkpt><trkpt lat="44.707218932870106" lon="12.230810679961596"><ele>1.8</ele><time>2026-04-05T12:38:17Z</time></trkpt><trkpt lat="44.70735306839355" lon="12.230817963934353"><ele>2.0</ele><time>2026-04-05T12:38:18Z</time></trkpt><trkpt lat="44.70750566213692" lon="12.230846302902513"><ele>2.0</ele><time>2026-04-05T12:38:19Z</time></trkpt><trkpt lat="44.70766370653106" lon="12.230932818638966"><ele>2.0</ele><time>2026-04-05T12:38:20Z</time></trkpt><trkpt lat="44.70783563081802" lon="12.23101424762125"><ele>2.0</ele><time>2026-04-05T12:38:21Z</time></trkpt><trkpt lat="44.7080072938516" lon="12.23111258141641"><ele>2.0</ele><time>2026-04-05T12:38:22Z</time></trkpt><trkpt lat="44.70818722302774" lon="12.231192171088566"><ele>2.0</ele><time>2026-04-05T12:38:23Z</time></trkpt><trkpt lat="44.70838171249058" lon="12.23125553186608"><ele>2.0</ele><time>2026-04-05T12:38:24Z</time></trkpt><trkpt lat="44.70858644873535" lon="12.231295804956593"><ele>2.0</ele><time>2026-04-05T12:38:25Z</time></trkpt><trkpt lat="44.70880188753804" lon="12.231304819678014"><ele>2.0</ele><time>2026-04-05T12:38:26Z</time></trkpt><trkpt lat="44.70901650897929" lon="12.231340455854252"><ele>2.0</ele><time>2026-04-05T12:38:27Z</time></trkpt><trkpt lat="44.70924861389871" lon="12.231374429755828"><ele>1.0</ele><time>2026-04-05T12:38:28Z</time></trkpt><trkpt lat="44.709480111904895" lon="12.231406002453031"><ele>0.0</ele><time>2026-04-05T12:38:28.999Z</time></trkpt><trkpt lat="44.70971626360464" lon="12.231434995122193"><ele>0.5</ele><time>2026-04-05T12:38:29.999Z</time></trkpt><trkpt lat="44.70995785737939" lon="12.231486963826196"><ele>1.0</ele><time>2026-04-05T12:38:30.999Z</time></trkpt><trkpt lat="44.71019871809557" lon="12.231521554101073"><ele>1.0</ele><time>2026-04-05T12:38:31.999Z</time></trkpt><trkpt lat="44.71044655263908" lon="12.231557298307077"><ele>1.0</ele><time>2026-04-05T12:38:32.999Z</time></trkpt><trkpt lat="44.71068397909028" lon="12.231591605598092"><ele>1.0</ele><time>2026-04-05T12:38:33.999Z</time></trkpt><trkpt lat="44.710916909798264" lon="12.231627466720196"><ele>1.0</ele><time>2026-04-05T12:38:34.999Z</time></trkpt><trkpt lat="44.71114780102009" lon="12.231663189689767"><ele>1.0</ele><time>2026-04-05T12:38:35.999Z</time></trkpt><trkpt lat="44.711372819639756" lon="12.231694654981762"><ele>1.0</ele><time>2026-04-05T12:38:36.999Z</time></trkpt><trkpt lat="44.711598195293526" lon="12.231724792997781"><ele>1.0</ele><time>2026-04-05T12:38:37.999Z</time></trkpt><trkpt lat="44.71181619046571" lon="12.231737926444726"><ele>1.0</ele><time>2026-04-05T12:38:38.999Z</time></trkpt><trkpt lat="44.712012862110655" lon="12.231791927889374"><ele>1.0</ele><time>2026-04-05T12:38:39.999Z</time></trkpt><trkpt lat="44.71221101799021" lon="12.231788392730161"><ele>1.0</ele><time>2026-04-05T12:38:40.999Z</time></trkpt><trkpt lat="44.71240992162696" lon="12.231745261469062"><ele>1.0</ele><time>2026-04-05T12:38:41.999Z</time></trkpt><trkpt lat="44.71260342848081" lon="12.231677858982945"><ele>1.0</ele><time>2026-04-05T12:38:42.999Z</time></trkpt><trkpt lat="44.712795454731825" lon="12.231613241922089"><ele>2.0</ele><time>2026-04-05T12:38:43.999Z</time></trkpt><trkpt lat="44.713000583277385" lon="12.231574508917104"><ele>3.0</ele><time>2026-04-05T12:38:44.999Z</time></trkpt><trkpt lat="44.71321401850303" lon="12.231579960999232"><ele>4.0</ele><time>2026-04-05T12:38:45.999Z</time></trkpt><trkpt lat="44.71344131352799" lon="12.231610200804536"><ele>3.5</ele><time>2026-04-05T12:38:46.999Z</time></trkpt><trkpt lat="44.71367557836308" lon="12.231644278019512"><ele>3.0</ele><time>2026-04-05T12:38:47.999Z</time></trkpt><trkpt lat="44.71389949846851" lon="12.231681835062597"><ele>3.0</ele><time>2026-04-05T12:38:48.999Z</time></trkpt><trkpt lat="44.71410217406157" lon="12.231726685027663"><ele>3.0</ele><time>2026-04-05T12:38:49.999Z</time></trkpt><trkpt lat="44.714282510557275" lon="12.231809773185633"><ele>3.0</ele><time>2026-04-05T12:38:50.999Z</time></trkpt><trkpt lat="44.71444357996358" lon="12.231949300485525"><ele>3.0</ele><time>2026-04-05T12:38:51.999Z</time></trkpt><trkpt lat="44.714601024282565" lon="12.232104501892675"><ele>3.0</ele><time>2026-04-05T12:38:52.999Z</time></trkpt><trkpt lat="44.714756637659775" lon="12.232290692884417"><ele>3.0</ele><time>2026-04-05T12:38:53.999Z</time></trkpt><trkpt lat="44.71492390635116" lon="12.232493960371826"><ele>3.333333333333333</ele><time>2026-04-05T12:38:54.999Z</time></trkpt><trkpt lat="44.715093893736736" lon="12.232653142512413"><ele>3.6666666666666665</ele><time>2026-04-05T12:38:55.999Z</time></trkpt><trkpt lat="44.71528608619854" lon="12.232774387704826"><ele>4.0</ele><time>2026-04-05T12:38:56.999Z</time></trkpt><trkpt lat="44.715499664932686" lon="12.232829986065038"><ele>5.333333333333333</ele><time>2026-04-05T12:38:57.999Z</time></trkpt><trkpt lat="44.71571622856322" lon="12.232892091363274"><ele>6.666666666666666</ele><time>2026-04-05T12:38:58.999Z</time></trkpt><trkpt lat="44.7159405393681" lon="12.232946708875557"><ele>8.0</ele><time>2026-04-05T12:38:59.999Z</time></trkpt><trkpt lat="44.716173866634385" lon="12.233017736161292"><ele>4.0</ele><time>2026-04-05T12:39:00.999Z</time></trkpt><trkpt lat="44.71641720677362" lon="12.233075379790742"><ele>0.0</ele><time>2026-04-05T12:39:01.999Z</time></trkpt><trkpt lat="44.716667032018165" lon="12.233134842369333"><ele>2.5</ele><time>2026-04-05T12:39:02.999Z</time></trkpt><trkpt lat="44.71692409000436" lon="12.233196611999572"><ele>5.0</ele><time>2026-04-05T12:39:03.999Z</time></trkpt><trkpt lat="44.717190918502915" lon="12.233260688879097"><ele>5.0</ele><time>2026-04-05T12:39:04.999Z</time></trkpt><trkpt lat="44.71745294066772" lon="12.233322499194552"><ele>5.0</ele><time>2026-04-05T12:39:05.999Z</time></trkpt><trkpt lat="44.71772264529046" lon="12.23338611975515"><ele>3.5</ele><time>2026-04-05T12:39:06.999Z</time></trkpt><trkpt lat="44.717985026021765" lon="12.233446554291403"><ele>2.0</ele><time>2026-04-05T12:39:07.999Z</time></trkpt><trkpt lat="44.718237838837744" lon="12.233504354506808"><ele>2.0</ele><time>2026-04-05T12:39:08.999Z</time></trkpt><trkpt lat="44.71847158360706" lon="12.233557795223037"><ele>2.0</ele><time>2026-04-05T12:39:09.999Z</time></trkpt><trkpt lat="44.71867661689175" lon="12.233606411257554"><ele>2.0</ele><time>2026-04-05T12:39:10.999Z</time></trkpt><trkpt lat="44.71883911493073" lon="12.233646380650404"><ele>2.0</ele><time>2026-04-05T12:39:11.999Z</time></trkpt><trkpt lat="44.71896594170904" lon="12.23367888200117"><ele>2.0</ele><time>2026-04-05T12:39:12.999Z</time></trkpt><trkpt lat="44.719078952441" lon="12.233707842781204"><ele>2.0</ele><time>2026-04-05T12:39:13.999Z</time></trkpt><trkpt lat="44.719172368729375" lon="12.23373178225459"><ele>2.0</ele><time>2026-04-05T12:39:14.999Z</time></trkpt><trkpt lat="44.71924767202018" lon="12.233751079997086"><ele>2.0</ele><time>2026-04-05T12:39:15.999Z</time></trkpt><trkpt lat="44.71933056475659" lon="12.233767215821487"><ele>2.0</ele><time>2026-04-05T12:39:17.999Z</time></trkpt><trkpt lat="44.719393630643374" lon="12.233736344664758"><ele>2.0</ele><time>2026-04-05T12:40:05Z</time></trkpt><trkpt lat="44.71947723772426" lon="12.233753783641829"><ele>2.0</ele><time>2026-04-05T12:40:07Z</time></trkpt><trkpt lat="44.719568814088866" lon="12.233771732233423"><ele>2.0</ele><time>2026-04-05T12:40:08Z</time></trkpt><trkpt lat="44.719664361349345" lon="12.23379763640536"><ele>2.0</ele><time>2026-04-05T12:40:09Z</time></trkpt><trkpt lat="44.719775706400284" lon="12.233823719121979"><ele>2.0</ele><time>2026-04-05T12:40:10Z</time></trkpt><trkpt lat="44.71990382343064" lon="12.233852605490135"><ele>2.0</ele><time>2026-04-05T12:40:11Z</time></trkpt><trkpt lat="44.72003882730521" lon="12.233894752543218"><ele>2.0</ele><time>2026-04-05T12:40:12Z</time></trkpt><trkpt lat="44.72018539312576" lon="12.233945649437775"><ele>2.0</ele><time>2026-04-05T12:40:13Z</time></trkpt><trkpt lat="44.72034180482664" lon="12.233995041003787"><ele>2.0</ele><time>2026-04-05T12:40:14Z</time></trkpt><trkpt lat="44.72051040198679" lon="12.234047113539456"><ele>2.0</ele><time>2026-04-05T12:40:15Z</time></trkpt><trkpt lat="44.72068484069438" lon="12.234108078941741"><ele>2.0</ele><time>2026-04-05T12:40:16Z</time></trkpt><trkpt lat="44.72086368109276" lon="12.23416803485232"><ele>2.0</ele><time>2026-04-05T12:40:17Z</time></trkpt><trkpt lat="44.72104955367352" lon="12.234227241926503"><ele>2.0</ele><time>2026-04-05T12:40:18Z</time></trkpt><trkpt lat="44.72124040880228" lon="12.2342867435749"><ele>2.0</ele><time>2026-04-05T12:40:19Z</time></trkpt><trkpt lat="44.721435954829104" lon="12.234346446073994"><ele>1.6666666666666665</ele><time>2026-04-05T12:40:20Z</time></trkpt><trkpt lat="44.72162554741215" lon="12.234409052251825"><ele>1.3333333333333333</ele><time>2026-04-05T12:40:21Z</time></trkpt><trkpt lat="44.72180634619786" lon="12.234526824382577"><ele>1.0</ele><time>2026-04-05T12:40:22Z</time></trkpt><trkpt lat="44.72199750043177" lon="12.234586366906958"><ele>0.6666666666666666</ele><time>2026-04-05T12:40:23Z</time></trkpt><trkpt lat="44.7221885545536" lon="12.23464648681092"><ele>0.3333333333333333</ele><time>2026-04-05T12:40:24Z</time></trkpt><trkpt lat="44.72236826642122" lon="12.234703063757761"><ele>0.0</ele><time>2026-04-05T12:40:25Z</time></trkpt><trkpt lat="44.72254447194805" lon="12.234762481074121"><ele>1.0</ele><time>2026-04-05T12:40:26Z</time></trkpt><trkpt lat="44.7227236984227" lon="12.234815466500113"><ele>2.0</ele><time>2026-04-05T12:40:27Z</time></trkpt><trkpt lat="44.72290346649595" lon="12.234824458924395"><ele>3.0</ele><time>2026-04-05T12:40:28Z</time></trkpt><trkpt lat="44.72307972194791" lon="12.234829640263852"><ele>2.3333333333333335</ele><time>2026-04-05T12:40:29Z</time></trkpt><trkpt lat="44.723251371381984" lon="12.234800461146211"><ele>1.6666666666666665</ele><time>2026-04-05T12:40:30Z</time></trkpt><trkpt lat="44.72343650312002" lon="12.234720957102347"><ele>1.0</ele><time>2026-04-05T12:40:31Z</time></trkpt><trkpt lat="44.72360749379875" lon="12.23460008771366"><ele>2.3333333333333335</ele><time>2026-04-05T12:40:32Z</time></trkpt><trkpt lat="44.72377845094091" lon="12.23444951355606"><ele>3.666666666666667</ele><time>2026-04-05T12:40:33Z</time></trkpt><trkpt lat="44.72393557841169" lon="12.234259970550484"><ele>5.0</ele><time>2026-04-05T12:40:34Z</time></trkpt><trkpt lat="44.72406319537201" lon="12.234034904382339"><ele>5.0</ele><time>2026-04-05T12:40:35Z</time></trkpt><trkpt lat="44.72417264725648" lon="12.233767891275015"><ele>5.0</ele><time>2026-04-05T12:40:35.999Z</time></trkpt><trkpt lat="44.724252353149716" lon="12.23348288044406"><ele>5.0</ele><time>2026-04-05T12:40:36.999Z</time></trkpt><trkpt lat="44.724318857469044" lon="12.23317252413087"><ele>4.0</ele><time>2026-04-05T12:40:37.999Z</time></trkpt><trkpt lat="44.72437830215247" lon="12.232846395750975"><ele>3.0</ele><time>2026-04-05T12:40:38.999Z</time></trkpt><trkpt lat="44.724436459724345" lon="12.232503496462723"><ele>1.5</ele><time>2026-04-05T12:40:39.999Z</time></trkpt><trkpt lat="44.724497390807954" lon="12.232162377605704"><ele>0.0</ele><time>2026-04-05T12:40:40.999Z</time></trkpt><trkpt lat="44.72455083316719" lon="12.231808962374455"><ele>0.0</ele><time>2026-04-05T12:40:41.999Z</time></trkpt><trkpt lat="44.72460436219203" lon="12.231462460558445"><ele>0.0</ele><time>2026-04-05T12:40:42.999Z</time></trkpt><trkpt lat="44.72466431118049" lon="12.231101667752975"><ele>0.0</ele><time>2026-04-05T12:40:43.999Z</time></trkpt><trkpt lat="44.72473196410322" lon="12.230751078373364"><ele>0.0</ele><time>2026-04-05T12:40:44.999Z</time></trkpt><trkpt lat="44.72479900122097" lon="12.230402373414885"><ele>-0.5</ele><time>2026-04-05T12:40:45.999Z</time></trkpt><trkpt lat="44.7248660153669" lon="12.230039821344665"><ele>-1.0</ele><time>2026-04-05T12:40:46.999Z</time></trkpt><trkpt lat="44.724918989561694" lon="12.229682183736363"><ele>-1.5</ele><time>2026-04-05T12:40:47.999Z</time></trkpt><trkpt lat="44.724968223496916" lon="12.229339104017864"><ele>-2.0</ele><time>2026-04-05T12:40:48.999Z</time></trkpt><trkpt lat="44.72502728480827" lon="12.229017256308653"><ele>-2.0</ele><time>2026-04-05T12:40:49.999Z</time></trkpt><trkpt lat="44.72508310220134" lon="12.228694565072932"><ele>-2.0</ele><time>2026-04-05T12:40:50.999Z</time></trkpt><trkpt lat="44.7251305639126" lon="12.228384363640865"><ele>-2.333333333333333</ele><time>2026-04-05T12:40:51.999Z</time></trkpt><trkpt lat="44.72519969560859" lon="12.228087105651959"><ele>-2.6666666666666665</ele><time>2026-04-05T12:40:52.999Z</time></trkpt><trkpt lat="44.72523827080806" lon="12.227798282540121"><ele>-3.0</ele><time>2026-04-05T12:40:53.999Z</time></trkpt><trkpt lat="44.72529036234" lon="12.227509709489334"><ele>-2.0</ele><time>2026-04-05T12:40:54.999Z</time></trkpt><trkpt lat="44.7253398786675" lon="12.227232960109182"><ele>-1.0</ele><time>2026-04-05T12:40:55.999Z</time></trkpt><trkpt lat="44.725393897718625" lon="12.226971046927646"><ele>0.0</ele><time>2026-04-05T12:40:56.999Z</time></trkpt><trkpt lat="44.72545938461097" lon="12.226722679532351"><ele>0.0</ele><time>2026-04-05T12:40:57.999Z</time></trkpt><trkpt lat="44.72555812559213" lon="12.226493778878398"><ele>0.0</ele><time>2026-04-05T12:40:58.999Z</time></trkpt><trkpt lat="44.72567614426189" lon="12.226268712088432"><ele>0.0</ele><time>2026-04-05T12:40:59.999Z</time></trkpt><trkpt lat="44.725816967621" lon="12.226074544130684"><ele>0.0</ele><time>2026-04-05T12:41:00.999Z</time></trkpt><trkpt lat="44.725979897463176" lon="12.225916705633333"><ele>0.0</ele><time>2026-04-05T12:41:01.999Z</time></trkpt><trkpt lat="44.72615298484218" lon="12.225804574139053"><ele>0.0</ele><time>2026-04-05T12:41:02.999Z</time></trkpt><trkpt lat="44.72633500026889" lon="12.225727672105375"><ele>0.0</ele><time>2026-04-05T12:41:03.999Z</time></trkpt><trkpt lat="44.726512966085615" lon="12.225690447369548"><ele>0.0</ele><time>2026-04-05T12:41:04.999Z</time></trkpt><trkpt lat="44.72667879182152" lon="12.22566685516909"><ele>0.0</ele><time>2026-04-05T12:41:05.999Z</time></trkpt><trkpt lat="44.726854799895925" lon="12.22567337352023"><ele>0.0</ele><time>2026-04-05T12:41:06.999Z</time></trkpt><trkpt lat="44.72706677892108" lon="12.225702687515538"><ele>0.0</ele><time>2026-04-05T12:41:07.999Z</time></trkpt><trkpt lat="44.72729566685037" lon="12.225750711553346"><ele>0.0</ele><time>2026-04-05T12:41:08.999Z</time></trkpt><trkpt lat="44.72754973664785" lon="12.225830514596215"><ele>-0.5</ele><time>2026-04-05T12:41:09.999Z</time></trkpt><trkpt lat="44.727813618246934" lon="12.225930929186754"><ele>-1.0</ele><time>2026-04-05T12:41:10.999Z</time></trkpt><trkpt lat="44.72806891842226" lon="12.226096666389926"><ele>-1.0</ele><time>2026-04-05T12:41:11.999Z</time></trkpt><trkpt lat="44.72834032240328" lon="12.226170314283607"><ele>-1.0</ele><time>2026-04-05T12:41:12.999Z</time></trkpt><trkpt lat="44.72860038574894" lon="12.226240884788115"><ele>-0.5</ele><time>2026-04-05T12:41:13.999Z</time></trkpt><trkpt lat="44.72887365215375" lon="12.226315038048387"><ele>0.0</ele><time>2026-04-05T12:41:14.999Z</time></trkpt><trkpt lat="44.72914454529872" lon="12.22638854731903"><ele>0.0</ele><time>2026-04-05T12:41:15.999Z</time></trkpt><trkpt lat="44.72941928999185" lon="12.226463101456924"><ele>0.0</ele><time>2026-04-05T12:41:16.999Z</time></trkpt><trkpt lat="44.729686733954374" lon="12.226535818416451"><ele>0.0</ele><time>2026-04-05T12:41:17.999Z</time></trkpt><trkpt lat="44.72994906667153" lon="12.22660736716916"><ele>0.0</ele><time>2026-04-05T12:41:18.999Z</time></trkpt><trkpt lat="44.73021647110346" lon="12.22668033331033"><ele>1.0</ele><time>2026-04-05T12:41:19.999Z</time></trkpt><trkpt lat="44.73048430108484" lon="12.22671417983249"><ele>2.0</ele><time>2026-04-05T12:41:20.999Z</time></trkpt><trkpt lat="44.73074769825063" lon="12.226785911529943"><ele>2.0</ele><time>2026-04-05T12:41:21.999Z</time></trkpt><trkpt lat="44.73101176539677" lon="12.22686120822152"><ele>2.0</ele><time>2026-04-05T12:41:22.999Z</time></trkpt><trkpt lat="44.73127809880161" lon="12.226935112669592"><ele>1.5</ele><time>2026-04-05T12:41:23.999Z</time></trkpt><trkpt lat="44.731530868273275" lon="12.227012005987941"><ele>1.0</ele><time>2026-04-05T12:41:24.999Z</time></trkpt><trkpt lat="44.73178391019136" lon="12.227088570486861"><ele>0.5</ele><time>2026-04-05T12:41:25.999Z</time></trkpt><trkpt lat="44.73203444128675" lon="12.22718535875032"><ele>0.0</ele><time>2026-04-05T12:41:27Z</time></trkpt><trkpt lat="44.73228606497068" lon="12.227285740685874"><ele>0.5</ele><time>2026-04-05T12:41:28Z</time></trkpt><trkpt lat="44.732540178176144" lon="12.227390114030552"><ele>1.0</ele><time>2026-04-05T12:41:29Z</time></trkpt><trkpt lat="44.732777458037546" lon="12.227530847770359"><ele>1.5</ele><time>2026-04-05T12:41:30Z</time></trkpt><trkpt lat="44.73302344111333" lon="12.227637124776075"><ele>2.0</ele><time>2026-04-05T12:41:31Z</time></trkpt><trkpt lat="44.73326828444876" lon="12.227719187775834"><ele>2.0</ele><time>2026-04-05T12:41:32Z</time></trkpt><trkpt lat="44.733504149775115" lon="12.227824379581987"><ele>2.0</ele><time>2026-04-05T12:41:33Z</time></trkpt><trkpt lat="44.7337310453629" lon="12.227925463841187"><ele>1.0</ele><time>2026-04-05T12:41:34Z</time></trkpt><trkpt lat="44.7339542438207" lon="12.228020280349188"><ele>0.0</ele><time>2026-04-05T12:41:35Z</time></trkpt><trkpt lat="44.73416726034741" lon="12.228115630584112"><ele>0.5</ele><time>2026-04-05T12:41:36Z</time></trkpt><trkpt lat="44.73438597908748" lon="12.228211625287493"><ele>1.0</ele><time>2026-04-05T12:41:37Z</time></trkpt><trkpt lat="44.734598456248285" lon="12.228309001372756"><ele>1.0</ele><time>2026-04-05T12:41:38Z</time></trkpt><trkpt lat="44.73480884366932" lon="12.22839636778635"><ele>1.0</ele><time>2026-04-05T12:41:39Z</time></trkpt><trkpt lat="44.73501091870899" lon="12.228485514331384"><ele>1.0</ele><time>2026-04-05T12:41:40Z</time></trkpt><trkpt lat="44.73520198298373" lon="12.228568381793021"><ele>1.0</ele><time>2026-04-05T12:41:41Z</time></trkpt><trkpt lat="44.73539413812821" lon="12.228651253675187"><ele>1.0</ele><time>2026-04-05T12:41:42Z</time></trkpt><trkpt lat="44.73559198402485" lon="12.228732545941847"><ele>1.0</ele><time>2026-04-05T12:41:43Z</time></trkpt><trkpt lat="44.735787257346914" lon="12.228817321140902"><ele>1.0</ele><time>2026-04-05T12:41:44Z</time></trkpt><trkpt lat="44.735988625547066" lon="12.228900824380256"><ele>1.0</ele><time>2026-04-05T12:41:45Z</time></trkpt><trkpt lat="44.736185682966145" lon="12.229010547888858"><ele>1.0</ele><time>2026-04-05T12:41:46Z</time></trkpt><trkpt lat="44.73638609777986" lon="12.229098514310586"><ele>0.3333333333333333</ele><time>2026-04-05T12:41:47Z</time></trkpt><trkpt lat="44.736578406156966" lon="12.22918151589906"><ele>-0.3333333333333333</ele><time>2026-04-05T12:41:48Z</time></trkpt><trkpt lat="44.736758079571764" lon="12.22925906391351"><ele>-1.0</ele><time>2026-04-05T12:41:49Z</time></trkpt><trkpt lat="44.736929004967514" lon="12.229332836437766"><ele>-1.0</ele><time>2026-04-05T12:41:50Z</time></trkpt><trkpt lat="44.73709604850861" lon="12.229404933483078"><ele>-1.0</ele><time>2026-04-05T12:41:51Z</time></trkpt><trkpt lat="44.73724012803416" lon="12.22946712104952"><ele>-1.0</ele><time>2026-04-05T12:41:52Z</time></trkpt><trkpt lat="44.73739735181974" lon="12.229534979800667"><ele>-1.0</ele><time>2026-04-05T12:41:53Z</time></trkpt><trkpt lat="44.73757001466056" lon="12.229609502143003"><ele>-1.0</ele><time>2026-04-05T12:41:54Z</time></trkpt><trkpt lat="44.737738780784255" lon="12.229682342647681"><ele>-1.0</ele><time>2026-04-05T12:41:55Z</time></trkpt><trkpt lat="44.737913332534774" lon="12.229757680255982"><ele>-0.6666666666666666</ele><time>2026-04-05T12:41:56Z</time></trkpt><trkpt lat="44.738082278059615" lon="12.229830598192295"><ele>-0.3333333333333333</ele><time>2026-04-05T12:41:57Z</time></trkpt><trkpt lat="44.738248255307134" lon="12.229902234997098"><ele>0.0</ele><time>2026-04-05T12:41:58Z</time></trkpt><trkpt lat="44.73840646588552" lon="12.229970519660617"><ele>-0.3333333333333333</ele><time>2026-04-05T12:41:59Z</time></trkpt><trkpt lat="44.738559147692584" lon="12.230036418077084"><ele>-0.6666666666666666</ele><time>2026-04-05T12:42:00Z</time></trkpt><trkpt lat="44.738716382212004" lon="12.230104281461005"><ele>-1.0</ele><time>2026-04-05T12:42:01Z</time></trkpt><trkpt lat="44.73887208926305" lon="12.230171485587434"><ele>-1.0</ele><time>2026-04-05T12:42:02Z</time></trkpt><trkpt lat="44.73903388764732" lon="12.230240747205137"><ele>-1.0</ele><time>2026-04-05T12:42:03Z</time></trkpt><trkpt lat="44.73920157804829" lon="12.23031351421123"><ele>-1.0</ele><time>2026-04-05T12:42:04Z</time></trkpt><trkpt lat="44.73937177249669" lon="12.230387367819265"><ele>-1.0</ele><time>2026-04-05T12:42:05Z</time></trkpt><trkpt lat="44.73955036240238" lon="12.230466933049993"><ele>-1.0</ele><time>2026-04-05T12:42:06Z</time></trkpt><trkpt lat="44.7397283237202" lon="12.230550504916883"><ele>-1.0</ele><time>2026-04-05T12:42:07Z</time></trkpt><trkpt lat="44.739912573546505" lon="12.230643653836855"><ele>-1.3333333333333333</ele><time>2026-04-05T12:42:08Z</time></trkpt><trkpt lat="44.74009342518318" lon="12.230740003024277"><ele>-1.6666666666666665</ele><time>2026-04-05T12:42:09Z</time></trkpt><trkpt lat="44.74026294594874" lon="12.23084257695981"><ele>-2.0</ele><time>2026-04-05T12:42:10Z</time></trkpt><trkpt lat="44.74041949992788" lon="12.230944587324172"><ele>-2.0</ele><time>2026-04-05T12:42:11Z</time></trkpt><trkpt lat="44.74057906787584" lon="12.231054158759493"><ele>-2.0</ele><time>2026-04-05T12:42:12Z</time></trkpt><trkpt lat="44.74074672308317" lon="12.231169554586824"><ele>-2.0</ele><time>2026-04-05T12:42:13Z</time></trkpt><trkpt lat="44.74091605166507" lon="12.231285477681377"><ele>-2.0</ele><time>2026-04-05T12:42:14Z</time></trkpt><trkpt lat="44.7410889502208" lon="12.231403762464781"><ele>-2.0</ele><time>2026-04-05T12:42:15Z</time></trkpt><trkpt lat="44.74127579283988" lon="12.231531586767938"><ele>-2.0</ele><time>2026-04-05T12:42:16Z</time></trkpt><trkpt lat="44.74146667204284" lon="12.231664216975755"><ele>-2.0</ele><time>2026-04-05T12:42:17Z</time></trkpt><trkpt lat="44.741655569686735" lon="12.231795490270718"><ele>-2.0</ele><time>2026-04-05T12:42:18Z</time></trkpt><trkpt lat="44.74184002649201" lon="12.231923677435345"><ele>-2.0</ele><time>2026-04-05T12:42:19Z</time></trkpt><trkpt lat="44.74203310081176" lon="12.232057853287222"><ele>-2.0</ele><time>2026-04-05T12:42:20Z</time></trkpt><trkpt lat="44.74223732979428" lon="12.232199782802917"><ele>-2.0</ele><time>2026-04-05T12:42:21Z</time></trkpt><trkpt lat="44.742457148095305" lon="12.232352107545916"><ele>-2.0</ele><time>2026-04-05T12:42:22Z</time></trkpt><trkpt lat="44.742679974421954" lon="12.23250538980508"><ele>-2.0</ele><time>2026-04-05T12:42:23Z</time></trkpt><trkpt lat="44.74290065871402" lon="12.232657198684105"><ele>-2.0</ele><time>2026-04-05T12:42:24Z</time></trkpt><trkpt lat="44.7431115463014" lon="12.232802268446418"><ele>-2.0</ele><time>2026-04-05T12:42:25Z</time></trkpt><trkpt lat="44.74331232933173" lon="12.232940387143284"><ele>-2.0</ele><time>2026-04-05T12:42:26Z</time></trkpt><trkpt lat="44.74351098863754" lon="12.233077045059959"><ele>-2.0</ele><time>2026-04-05T12:42:27Z</time></trkpt><trkpt lat="44.74372235860114" lon="12.233222446604355"><ele>-1.5</ele><time>2026-04-05T12:42:28Z</time></trkpt><trkpt lat="44.743941874800775" lon="12.233373451969472"><ele>-1.0</ele><time>2026-04-05T12:42:29Z</time></trkpt><trkpt lat="44.744160981606875" lon="12.233524175646904"><ele>-1.5</ele><time>2026-04-05T12:42:30Z</time></trkpt><trkpt lat="44.74438912018972" lon="12.233681183838156"><ele>-2.0</ele><time>2026-04-05T12:42:31Z</time></trkpt><trkpt lat="44.74461618371384" lon="12.233837949045235"><ele>-2.0</ele><time>2026-04-05T12:42:32Z</time></trkpt><trkpt lat="44.74484196397354" lon="12.233993828283527"><ele>-2.0</ele><time>2026-04-05T12:42:33Z</time></trkpt><trkpt lat="44.74506487180428" lon="12.234147724336603"><ele>-2.0</ele><time>2026-04-05T12:42:34Z</time></trkpt><trkpt lat="44.74528262538171" lon="12.234298062030986"><ele>-2.0</ele><time>2026-04-05T12:42:35Z</time></trkpt><trkpt lat="44.74549795035128" lon="12.23444737253798"><ele>-2.0</ele><time>2026-04-05T12:42:36Z</time></trkpt><trkpt lat="44.7457057249716" lon="12.234592120669078"><ele>-2.0</ele><time>2026-04-05T12:42:37Z</time></trkpt><trkpt lat="44.745910997769116" lon="12.234735125881064"><ele>-2.0</ele><time>2026-04-05T12:42:38Z</time></trkpt><trkpt lat="44.74611578585697" lon="12.234877793448193"><ele>-2.0</ele><time>2026-04-05T12:42:39Z</time></trkpt><trkpt lat="44.74632127732034" lon="12.235019625362888"><ele>-2.0</ele><time>2026-04-05T12:42:40Z</time></trkpt><trkpt lat="44.74653178733478" lon="12.235163669349602"><ele>-2.0</ele><time>2026-04-05T12:42:41Z</time></trkpt><trkpt lat="44.74673562403534" lon="12.23530316345346"><ele>-2.0</ele><time>2026-04-05T12:42:41.999Z</time></trkpt><trkpt lat="44.74694357441236" lon="12.23542240912973"><ele>-2.0</ele><time>2026-04-05T12:42:42.999Z</time></trkpt><trkpt lat="44.7471367838476" lon="12.235557910033382"><ele>-2.0</ele><time>2026-04-05T12:42:43.999Z</time></trkpt><trkpt lat="44.74731330655757" lon="12.23568322174543"><ele>-2.0</ele><time>2026-04-05T12:42:44.999Z</time></trkpt><trkpt lat="44.74748739811172" lon="12.23580732724317"><ele>-2.0</ele><time>2026-04-05T12:42:45.999Z</time></trkpt><trkpt lat="44.747674951466095" lon="12.235931488168832"><ele>-2.0</ele><time>2026-04-05T12:42:46.999Z</time></trkpt><trkpt lat="44.74786839678762" lon="12.236069400292997"><ele>-2.0</ele><time>2026-04-05T12:42:47.999Z</time></trkpt><trkpt lat="44.74806736495409" lon="12.23620756572685"><ele>-2.0</ele><time>2026-04-05T12:42:48.999Z</time></trkpt><trkpt lat="44.748259576736125" lon="12.236341251449913"><ele>-2.0</ele><time>2026-04-05T12:42:49.999Z</time></trkpt><trkpt lat="44.74844143265046" lon="12.236473825677987"><ele>-1.3333333333333333</ele><time>2026-04-05T12:42:50.999Z</time></trkpt><trkpt lat="44.748623239233645" lon="12.23660125194192"><ele>-0.6666666666666666</ele><time>2026-04-05T12:42:51.999Z</time></trkpt><trkpt lat="44.74879223576959" lon="12.23672386031496"><ele>0.0</ele><time>2026-04-05T12:42:52.999Z</time></trkpt><trkpt lat="44.74895496077607" lon="12.236842779852006"><ele>0.0</ele><time>2026-04-05T12:42:53.999Z</time></trkpt><trkpt lat="44.74910879326026" lon="12.236949230262933"><ele>0.0</ele><time>2026-04-05T12:42:54.999Z</time></trkpt><trkpt lat="44.7492482102099" lon="12.237041065292127"><ele>0.0</ele><time>2026-04-05T12:42:55.999Z</time></trkpt><trkpt lat="44.749396207248374" lon="12.237123840489081"><ele>0.0</ele><time>2026-04-05T12:42:56.999Z</time></trkpt><trkpt lat="44.749556509477955" lon="12.237189021559342"><ele>0.0</ele><time>2026-04-05T12:42:57.999Z</time></trkpt><trkpt lat="44.74973286145031" lon="12.237216912709396"><ele>0.0</ele><time>2026-04-05T12:42:58.999Z</time></trkpt><trkpt lat="44.74990655088284" lon="12.237209988560172"><ele>0.0</ele><time>2026-04-05T12:42:59.999Z</time></trkpt><trkpt lat="44.750077611367885" lon="12.237172587639225"><ele>0.0</ele><time>2026-04-05T12:43:00.999Z</time></trkpt><trkpt lat="44.750247387196566" lon="12.237098077445202"><ele>0.0</ele><time>2026-04-05T12:43:01.999Z</time></trkpt><trkpt lat="44.750416531359996" lon="12.236996072033165"><ele>0.3333333333333333</ele><time>2026-04-05T12:43:02.999Z</time></trkpt><trkpt lat="44.75057742423644" lon="12.236866947748943"><ele>0.6666666666666666</ele><time>2026-04-05T12:43:03.999Z</time></trkpt><trkpt lat="44.750726060357586" lon="12.236705892304066"><ele>1.0</ele><time>2026-04-05T12:43:04.999Z</time></trkpt><trkpt lat="44.75085749687728" lon="12.236507733036964"><ele>1.0</ele><time>2026-04-05T12:43:05.999Z</time></trkpt><trkpt lat="44.750977773627845" lon="12.236282737492438"><ele>1.0</ele><time>2026-04-05T12:43:06.999Z</time></trkpt><trkpt lat="44.75109269693136" lon="12.236028511803513"><ele>1.0</ele><time>2026-04-05T12:43:07.999Z</time></trkpt><trkpt lat="44.751213689577426" lon="12.235752604011592"><ele>0.0</ele><time>2026-04-05T12:43:08.999Z</time></trkpt><trkpt lat="44.751342676837425" lon="12.235484104711697"><ele>-1.0</ele><time>2026-04-05T12:43:09.999Z</time></trkpt><trkpt lat="44.75147263956993" lon="12.2351940642969"><ele>-1.0</ele><time>2026-04-05T12:43:10.999Z</time></trkpt><trkpt lat="44.751617375469316" lon="12.234900919206888"><ele>-1.0</ele><time>2026-04-05T12:43:11.999Z</time></trkpt><trkpt lat="44.75175816175378" lon="12.23460103644965"><ele>0.5</ele><time>2026-04-05T12:43:12.999Z</time></trkpt><trkpt lat="44.75189645229543" lon="12.234306469553424"><ele>2.0</ele><time>2026-04-05T12:43:13.999Z</time></trkpt><trkpt lat="44.75203299826574" lon="12.23401372163077"><ele>1.0</ele><time>2026-04-05T12:43:14.999Z</time></trkpt><trkpt lat="44.752165363817646" lon="12.233739240676341"><ele>0.0</ele><time>2026-04-05T12:43:15.999Z</time></trkpt><trkpt lat="44.752291263839204" lon="12.233467512982486"><ele>0.0</ele><time>2026-04-05T12:43:16.999Z</time></trkpt><trkpt lat="44.75241424923437" lon="12.233190473899464"><ele>0.0</ele><time>2026-04-05T12:43:17.999Z</time></trkpt><trkpt lat="44.75252227474508" lon="12.232904043237959"><ele>0.0</ele><time>2026-04-05T12:43:18.999Z</time></trkpt><trkpt lat="44.7526214962288" lon="12.23262327416755"><ele>0.0</ele><time>2026-04-05T12:43:19.999Z</time></trkpt><trkpt lat="44.75271319987705" lon="12.23233747052989"><ele>0.0</ele><time>2026-04-05T12:43:20.999Z</time></trkpt><trkpt lat="44.752805618589306" lon="12.23204686545345"><ele>0.0</ele><time>2026-04-05T12:43:21.999Z</time></trkpt><trkpt lat="44.75290891146562" lon="12.231754163737824"><ele>0.0</ele><time>2026-04-05T12:43:22.999Z</time></trkpt><trkpt lat="44.753004805709686" lon="12.231462342190364"><ele>-0.5</ele><time>2026-04-05T12:43:23.999Z</time></trkpt><trkpt lat="44.753101860528595" lon="12.231166377132991"><ele>-1.0</ele><time>2026-04-05T12:43:24.999Z</time></trkpt><trkpt lat="44.753198892868824" lon="12.230868124675427"><ele>-1.3333333333333333</ele><time>2026-04-05T12:43:25.999Z</time></trkpt><trkpt lat="44.75328109587079" lon="12.230572107187713"><ele>-1.6666666666666665</ele><time>2026-04-05T12:43:26.999Z</time></trkpt><trkpt lat="44.75337449979258" lon="12.23029491281938"><ele>-2.0</ele><time>2026-04-05T12:43:27.999Z</time></trkpt><trkpt lat="44.75346374109735" lon="12.230024105111852"><ele>-1.0</ele><time>2026-04-05T12:43:28.999Z</time></trkpt><trkpt lat="44.753551494505395" lon="12.229756565468337"><ele>0.0</ele><time>2026-04-05T12:43:29.999Z</time></trkpt><trkpt lat="44.753649864907715" lon="12.229497221957192"><ele>1.0</ele><time>2026-04-05T12:43:30.999Z</time></trkpt><trkpt lat="44.75376347904516" lon="12.22926385886988"><ele>1.0</ele><time>2026-04-05T12:43:31.999Z</time></trkpt><trkpt lat="44.75390013874201" lon="12.229070671728959"><ele>1.0</ele><time>2026-04-05T12:43:33Z</time></trkpt><trkpt lat="44.754051959979726" lon="12.228914046939487"><ele>1.0</ele><time>2026-04-05T12:43:34Z</time></trkpt><trkpt lat="44.75422983546068" lon="12.228801253084805"><ele>1.3333333333333333</ele><time>2026-04-05T12:43:35Z</time></trkpt><trkpt lat="44.754418931460705" lon="12.2287109375626"><ele>1.6666666666666665</ele><time>2026-04-05T12:43:36Z</time></trkpt><trkpt lat="44.75461754564967" lon="12.22865857419539"><ele>2.0</ele><time>2026-04-05T12:43:37Z</time></trkpt><trkpt lat="44.754824625608364" lon="12.22868392534542"><ele>2.0</ele><time>2026-04-05T12:43:38Z</time></trkpt><trkpt lat="44.75502423729274" lon="12.228709028632336"><ele>2.0</ele><time>2026-04-05T12:43:39Z</time></trkpt><trkpt lat="44.75522479143812" lon="12.228782797815223"><ele>2.0</ele><time>2026-04-05T12:43:40Z</time></trkpt><trkpt lat="44.75543368594906" lon="12.228871557233347"><ele>2.0</ele><time>2026-04-05T12:43:41Z</time></trkpt><trkpt lat="44.75564071211772" lon="12.22897593117997"><ele>2.0</ele><time>2026-04-05T12:43:42Z</time></trkpt><trkpt lat="44.75584417442419" lon="12.229066675841628"><ele>2.0</ele><time>2026-04-05T12:43:43Z</time></trkpt><trkpt lat="44.756043644388384" lon="12.229149166134535"><ele>2.0</ele><time>2026-04-05T12:43:44Z</time></trkpt><trkpt lat="44.75623402394983" lon="12.22923246928323"><ele>2.0</ele><time>2026-04-05T12:43:45Z</time></trkpt><trkpt lat="44.7564118837257" lon="12.229313652048681"><ele>2.0</ele><time>2026-04-05T12:43:46Z</time></trkpt><trkpt lat="44.75658656320051" lon="12.229394286919716"><ele>2.0</ele><time>2026-04-05T12:43:47Z</time></trkpt><trkpt lat="44.75677236342155" lon="12.229469612430771"><ele>2.0</ele><time>2026-04-05T12:43:48Z</time></trkpt><trkpt lat="44.75694587127041" lon="12.22954861172103"><ele>2.0</ele><time>2026-04-05T12:43:49Z</time></trkpt><trkpt lat="44.75711665962931" lon="12.229625084742771"><ele>1.75</ele><time>2026-04-05T12:43:50Z</time></trkpt><trkpt lat="44.75727322745452" lon="12.229694460384184"><ele>1.5</ele><time>2026-04-05T12:43:51Z</time></trkpt><trkpt lat="44.75741446681464" lon="12.22975859419373"><ele>1.25</ele><time>2026-04-05T12:43:52Z</time></trkpt><trkpt lat="44.757545332840095" lon="12.229812155181683"><ele>1.0</ele><time>2026-04-05T12:43:53Z</time></trkpt><trkpt lat="44.757663717579895" lon="12.2298669782598"><ele>1.0</ele><time>2026-04-05T12:43:54Z</time></trkpt><trkpt lat="44.75778948271697" lon="12.229910027628726"><ele>1.0</ele><time>2026-04-05T12:43:55Z</time></trkpt><trkpt lat="44.757892644965125" lon="12.229956650851555"><ele>1.0</ele><time>2026-04-05T12:43:56Z</time></trkpt><trkpt lat="44.75799212621174" lon="12.229997155563959"><ele>1.0</ele><time>2026-04-05T12:43:57Z</time></trkpt><trkpt lat="44.758085242462556" lon="12.230033247610297"><ele>1.0</ele><time>2026-04-05T12:43:58Z</time></trkpt><trkpt lat="44.75816643991972" lon="12.230070012923752"><ele>0.9999999999999999</ele><time>2026-04-05T12:43:59Z</time></trkpt><trkpt lat="44.75822959228743" lon="12.230117693400704"><ele>1.0</ele><time>2026-04-05T12:44:00Z</time></trkpt><trkpt lat="44.75828295642114" lon="12.230183547843389"><ele>1.0</ele><time>2026-04-05T12:44:01Z</time></trkpt><trkpt lat="44.75832977229511" lon="12.230324015705717"><ele>1.0</ele><time>2026-04-05T12:44:03Z</time></trkpt><trkpt lat="44.758323792246046" lon="12.23042399923938"><ele>0.9999999999999999</ele><time>2026-04-05T12:44:04Z</time></trkpt><trkpt lat="44.75830260338253" lon="12.230524751501862"><ele>1.0</ele><time>2026-04-05T12:44:05Z</time></trkpt><trkpt lat="44.75822379760078" lon="12.230586648093869"><ele>1.0</ele><time>2026-04-05T12:44:06Z</time></trkpt><trkpt lat="44.75811834073357" lon="12.230645238451178"><ele>1.0</ele><time>2026-04-05T12:44:07Z</time></trkpt><trkpt lat="44.75801883656088" lon="12.230654237759545"><ele>1.0</ele><time>2026-04-05T12:44:08Z</time></trkpt><trkpt lat="44.7578835366534" lon="12.230639165939863"><ele>1.0</ele><time>2026-04-05T12:44:09Z</time></trkpt><trkpt lat="44.75774305089333" lon="12.230629522701433"><ele>1.0</ele><time>2026-04-05T12:44:10Z</time></trkpt><trkpt lat="44.757592326076335" lon="12.230602053273921"><ele>1.0</ele><time>2026-04-05T12:44:11Z</time></trkpt><trkpt lat="44.7574497305164" lon="12.23057524967713"><ele>1.0</ele><time>2026-04-05T12:44:12Z</time></trkpt><trkpt lat="44.75729590886401" lon="12.2305417636198"><ele>1.0</ele><time>2026-04-05T12:44:13Z</time></trkpt><trkpt lat="44.75716167301863" lon="12.230516916060978"><ele>1.0</ele><time>2026-04-05T12:44:14Z</time></trkpt><trkpt lat="44.75702529339794" lon="12.230497886935519"><ele>1.0</ele><time>2026-04-05T12:44:15Z</time></trkpt><trkpt lat="44.75688356640599" lon="12.230505571329381"><ele>1.0</ele><time>2026-04-05T12:44:16Z</time></trkpt><trkpt lat="44.7567571522171" lon="12.230523550781458"><ele>0.75</ele><time>2026-04-05T12:44:17Z</time></trkpt><trkpt lat="44.756633648499076" lon="12.230548382619189"><ele>0.5</ele><time>2026-04-05T12:44:18Z</time></trkpt><trkpt lat="44.756512338596444" lon="12.230588108370059"><ele>0.25</ele><time>2026-04-05T12:44:19Z</time></trkpt><trkpt lat="44.75639105178091" lon="12.230638877916595"><ele>0.0</ele><time>2026-04-05T12:44:20Z</time></trkpt><trkpt lat="44.756271557468224" lon="12.230715577694562"><ele>0.0</ele><time>2026-04-05T12:44:21Z</time></trkpt><trkpt lat="44.756177694024494" lon="12.230799716009265"><ele>0.0</ele><time>2026-04-05T12:44:22Z</time></trkpt><trkpt lat="44.756099042931616" lon="12.230882387261605"><ele>0.0</ele><time>2026-04-05T12:44:23Z</time></trkpt><trkpt lat="44.75602099113582" lon="12.230965686705538"><ele>0.0</ele><time>2026-04-05T12:44:24Z</time></trkpt><trkpt lat="44.75595727999151" lon="12.231052885400615"><ele>0.0</ele><time>2026-04-05T12:44:25Z</time></trkpt><trkpt lat="44.755896208678486" lon="12.2311450753776"><ele>0.16666666666666666</ele><time>2026-04-05T12:44:26Z</time></trkpt><trkpt lat="44.7558485151827" lon="12.231209960821076"><ele>0.3333333333333333</ele><time>2026-04-05T12:44:27Z</time></trkpt><trkpt lat="44.75581793552062" lon="12.23136651278188"><ele>0.5</ele><time>2026-04-05T12:44:29Z</time></trkpt><trkpt lat="44.755836096452974" lon="12.231478466647316"><ele>0.6666666666666666</ele><time>2026-04-05T12:44:31Z</time></trkpt><trkpt lat="44.755838769082025" lon="12.231577823908976"><ele>0.8333333333333333</ele><time>2026-04-05T12:44:33Z</time></trkpt><trkpt lat="44.75580948758553" lon="12.231685272262332"><ele>1.0</ele><time>2026-04-05T12:44:35Z</time></trkpt><trkpt lat="44.75576085914589" lon="12.231767833992604"><ele>0.9999999999999999</ele><time>2026-04-05T12:44:37Z</time></trkpt><trkpt lat="44.75572995994535" lon="12.231887034853997"><ele>1.0</ele><time>2026-04-05T12:44:40Z</time></trkpt><trkpt lat="44.75579320024376" lon="12.231936017499704"><ele>1.0</ele><time>2026-04-05T12:45:01.999Z</time></trkpt><trkpt lat="44.755802268701416" lon="12.232029548861139"><ele>1.0</ele><time>2026-04-05T12:45:39.999Z</time></trkpt><trkpt lat="44.75586087398924" lon="12.232076003819353"><ele>0.9999999999999999</ele><time>2026-04-05T12:45:46.999Z</time></trkpt><trkpt lat="44.75595371899479" lon="12.2320272843481"><ele>1.0</ele><time>2026-04-05T12:48:48.997Z</time></trkpt><trkpt lat="44.75589176064928" lon="12.231984055098229"><ele>0.9999999999999999</ele><time>2026-04-05T12:51:44.994Z</time></trkpt><trkpt lat="44.75582059406607" lon="12.231988155626192"><ele>1.0</ele><time>2026-04-05T12:51:51.994Z</time></trkpt><trkpt lat="44.75576384599464" lon="12.23192999070587"><ele>1.0</ele><time>2026-04-05T12:52:08.994Z</time></trkpt><trkpt lat="44.75574547702942" lon="12.232114489762694"><ele>1.0</ele><time>2026-04-05T12:53:36.993Z</time></trkpt><trkpt lat="44.75571088230551" lon="12.232200447023907"><ele>0.9999999999999999</ele><time>2026-04-05T12:53:37.993Z</time></trkpt><trkpt lat="44.755678491007984" lon="12.232285475286483"><ele>1.0</ele><time>2026-04-05T12:53:38.993Z</time></trkpt><trkpt lat="44.755611606532206" lon="12.232426340063073"><ele>0.6000000000000001</ele><time>2026-04-05T12:53:40.993Z</time></trkpt><trkpt lat="44.755544285083154" lon="12.232558458714532"><ele>0.20000000000000007</ele><time>2026-04-05T12:53:42.993Z</time></trkpt><trkpt lat="44.75549801121711" lon="12.232627674768054"><ele>-0.20000000000000007</ele><time>2026-04-05T12:53:43.993Z</time></trkpt><trkpt lat="44.7553415870476" lon="12.232678821127973"><ele>-0.6000000000000001</ele><time>2026-04-05T12:53:45.993Z</time></trkpt><trkpt lat="44.75529169372348" lon="12.23279433559582"><ele>-1.0</ele><time>2026-04-05T12:53:47.993Z</time></trkpt><trkpt lat="44.755250940106315" lon="12.232879081186008"><ele>-1.0</ele><time>2026-04-05T12:53:50.993Z</time></trkpt><trkpt lat="44.75517242403444" lon="12.232862450450835"><ele>-1.0</ele><time>2026-04-05T12:53:53.993Z</time></trkpt><trkpt lat="44.75520293459394" lon="12.232705080422427"><ele>-1.0</ele><time>2026-04-05T12:53:55.993Z</time></trkpt><trkpt lat="44.75525182938411" lon="12.232584190502156"><ele>-1.0</ele><time>2026-04-05T12:53:56.993Z</time></trkpt><trkpt lat="44.75530398838312" lon="12.23244903449699"><ele>-1.0</ele><time>2026-04-05T12:53:57.993Z</time></trkpt><trkpt lat="44.75536286993479" lon="12.232304614007163"><ele>-0.5</ele><time>2026-04-05T12:53:58.993Z</time></trkpt><trkpt lat="44.755426817130356" lon="12.232138074920716"><ele>0.0</ele><time>2026-04-05T12:53:59.993Z</time></trkpt><trkpt lat="44.75549590305241" lon="12.231971968900327"><ele>0.5</ele><time>2026-04-05T12:54:00.993Z</time></trkpt><trkpt lat="44.75556437616068" lon="12.231804708160121"><ele>1.0</ele><time>2026-04-05T12:54:01.993Z</time></trkpt><trkpt lat="44.755636573152906" lon="12.231628921257924"><ele>1.0</ele><time>2026-04-05T12:54:02.993Z</time></trkpt><trkpt lat="44.75571987738862" lon="12.231460118107146"><ele>1.0</ele><time>2026-04-05T12:54:03.993Z</time></trkpt><trkpt lat="44.755805787116046" lon="12.231311208887606"><ele>1.0</ele><time>2026-04-05T12:54:04.993Z</time></trkpt><trkpt lat="44.75590120479322" lon="12.2311669873092"><ele>1.0</ele><time>2026-04-05T12:54:05.993Z</time></trkpt><trkpt lat="44.75599910003692" lon="12.231035288409005"><ele>0.75</ele><time>2026-04-05T12:54:06.993Z</time></trkpt><trkpt lat="44.75611290315311" lon="12.230945541425358"><ele>0.5</ele><time>2026-04-05T12:54:07.993Z</time></trkpt><trkpt lat="44.75620836687947" lon="12.230832699567442"><ele>0.25</ele><time>2026-04-05T12:54:08.993Z</time></trkpt><trkpt lat="44.75632030243736" lon="12.230773110080854"><ele>0.0</ele><time>2026-04-05T12:54:09.993Z</time></trkpt><trkpt lat="44.75642602578274" lon="12.230707374748008"><ele>0.0</ele><time>2026-04-05T12:54:10.993Z</time></trkpt><trkpt lat="44.75653235162535" lon="12.230658215934962"><ele>0.0</ele><time>2026-04-05T12:54:11.993Z</time></trkpt><trkpt lat="44.75665175100733" lon="12.230616002523117"><ele>0.0</ele><time>2026-04-05T12:54:12.993Z</time></trkpt><trkpt lat="44.756777614493394" lon="12.230584430507204"><ele>0.0</ele><time>2026-04-05T12:54:13.993Z</time></trkpt><trkpt lat="44.75690261159967" lon="12.230565080912724"><ele>0.25</ele><time>2026-04-05T12:54:14.993Z</time></trkpt><trkpt lat="44.75703630155954" lon="12.230558864687685"><ele>0.5</ele><time>2026-04-05T12:54:15.993Z</time></trkpt><trkpt lat="44.75716529110138" lon="12.230569132322863"><ele>0.75</ele><time>2026-04-05T12:54:16.993Z</time></trkpt><trkpt lat="44.75729160594452" lon="12.230591625146095"><ele>1.0</ele><time>2026-04-05T12:54:17.993Z</time></trkpt><trkpt lat="44.757407472455846" lon="12.230618534978692"><ele>0.8</ele><time>2026-04-05T12:54:18.993Z</time></trkpt><trkpt lat="44.757525256532894" lon="12.230654182313538"><ele>0.6000000000000001</ele><time>2026-04-05T12:54:19.993Z</time></trkpt><trkpt lat="44.757638494486116" lon="12.230689540057602"><ele>0.4</ele><time>2026-04-05T12:54:20.993Z</time></trkpt><trkpt lat="44.75774780796353" lon="12.23070779560684"><ele>0.2</ele><time>2026-04-05T12:54:21.993Z</time></trkpt><trkpt lat="44.75784664861624" lon="12.230709064688902"><ele>0.0</ele><time>2026-04-05T12:54:22.993Z</time></trkpt><trkpt lat="44.757934267548386" lon="12.2306839268674"><ele>0.0</ele><time>2026-04-05T12:54:23.993Z</time></trkpt><trkpt lat="44.75800816913991" lon="12.230676316263121"><ele>0.0</ele><time>2026-04-05T12:54:24.993Z</time></trkpt><trkpt lat="44.75807536934271" lon="12.230655158653033"><ele>0.0</ele><time>2026-04-05T12:54:25.992Z</time></trkpt><trkpt lat="44.758192591743665" lon="12.230634431823868"><ele>0.0</ele><time>2026-04-05T12:54:27.992Z</time></trkpt><trkpt lat="44.758287654336506" lon="12.230599181229016"><ele>0.0</ele><time>2026-04-05T12:54:29.992Z</time></trkpt><trkpt lat="44.7584038726215" lon="12.230565077699302"><ele>0.16666666666666666</ele><time>2026-04-05T12:54:31.992Z</time></trkpt><trkpt lat="44.75847342079618" lon="12.230529387503417"><ele>0.3333333333333333</ele><time>2026-04-05T12:54:32.992Z</time></trkpt><trkpt lat="44.75854177418109" lon="12.230489884585824"><ele>0.5</ele><time>2026-04-05T12:54:33.992Z</time></trkpt><trkpt lat="44.75860457140638" lon="12.230448858398017"><ele>0.6666666666666666</ele><time>2026-04-05T12:54:34.992Z</time></trkpt><trkpt lat="44.758685540463595" lon="12.230455588233333"><ele>0.8333333333333333</ele><time>2026-04-05T12:54:35.992Z</time></trkpt><trkpt lat="44.758764748256695" lon="12.230426355957556"><ele>1.0</ele><time>2026-04-05T12:54:36.992Z</time></trkpt><trkpt lat="44.75885662307135" lon="12.230404471458463"><ele>1.0</ele><time>2026-04-05T12:54:37.992Z</time></trkpt><trkpt lat="44.75896773962394" lon="12.230414214685771"><ele>1.0</ele><time>2026-04-05T12:54:38.992Z</time></trkpt><trkpt lat="44.75908608143919" lon="12.230495294429083"><ele>1.0</ele><time>2026-04-05T12:54:39.992Z</time></trkpt><trkpt lat="44.75922096714323" lon="12.230552464648754"><ele>1.0</ele><time>2026-04-05T12:54:40.992Z</time></trkpt><trkpt lat="44.75935838761866" lon="12.230610709251811"><ele>0.3333333333333333</ele><time>2026-04-05T12:54:41.992Z</time></trkpt><trkpt lat="44.75950794918208" lon="12.230674099719796"><ele>-0.3333333333333333</ele><time>2026-04-05T12:54:42.992Z</time></trkpt><trkpt lat="44.75967021939339" lon="12.230719010570093"><ele>-1.0</ele><time>2026-04-05T12:54:43.992Z</time></trkpt><trkpt lat="44.75983076962886" lon="12.230788875075863"><ele>-1.0</ele><time>2026-04-05T12:54:44.992Z</time></trkpt><trkpt lat="44.75999089598656" lon="12.2308738743451"><ele>-1.0</ele><time>2026-04-05T12:54:45.992Z</time></trkpt><trkpt lat="44.76015952393635" lon="12.230932013507113"><ele>-1.0</ele><time>2026-04-05T12:54:46.992Z</time></trkpt><trkpt lat="44.7603358289824" lon="12.230963497836818"><ele>-0.6666666666666666</ele><time>2026-04-05T12:54:47.992Z</time></trkpt><trkpt lat="44.76051441404595" lon="12.230961541609505"><ele>-0.3333333333333333</ele><time>2026-04-05T12:54:48.992Z</time></trkpt><trkpt lat="44.76068593732213" lon="12.230930914209909"><ele>0.0</ele><time>2026-04-05T12:54:49.992Z</time></trkpt><trkpt lat="44.7608577212781" lon="12.230844920164484"><ele>0.0</ele><time>2026-04-05T12:54:50.992Z</time></trkpt><trkpt lat="44.761029088750654" lon="12.230746585155078"><ele>0.0</ele><time>2026-04-05T12:54:51.992Z</time></trkpt><trkpt lat="44.76119754119496" lon="12.230618934637272"><ele>0.0</ele><time>2026-04-05T12:54:52.992Z</time></trkpt><trkpt lat="44.761359844150824" lon="12.230469663937727"><ele>-0.3333333333333333</ele><time>2026-04-05T12:54:53.992Z</time></trkpt><trkpt lat="44.76152946122011" lon="12.230297901112637"><ele>-0.6666666666666666</ele><time>2026-04-05T12:54:54.992Z</time></trkpt><trkpt lat="44.76170775877148" lon="12.230120715031292"><ele>-1.0</ele><time>2026-04-05T12:54:55.992Z</time></trkpt><trkpt lat="44.76188177997488" lon="12.229924452739347"><ele>-1.3333333333333333</ele><time>2026-04-05T12:54:56.992Z</time></trkpt><trkpt lat="44.7620495936518" lon="12.229734445921965"><ele>-1.6666666666666665</ele><time>2026-04-05T12:54:57.992Z</time></trkpt><trkpt lat="44.76221979892109" lon="12.229547435033028"><ele>-2.0</ele><time>2026-04-05T12:54:58.992Z</time></trkpt><trkpt lat="44.76238452040629" lon="12.22937165351767"><ele>-2.0</ele><time>2026-04-05T12:54:59.992Z</time></trkpt><trkpt lat="44.76254166788913" lon="12.229203826657626"><ele>-2.0</ele><time>2026-04-05T12:55:00.992Z</time></trkpt><trkpt lat="44.76270304140274" lon="12.229060482885076"><ele>-2.0</ele><time>2026-04-05T12:55:01.992Z</time></trkpt><trkpt lat="44.762859133389284" lon="12.228930995318402"><ele>-1.3333333333333333</ele><time>2026-04-05T12:55:02.992Z</time></trkpt><trkpt lat="44.763021807717884" lon="12.22883025078624"><ele>-0.6666666666666666</ele><time>2026-04-05T12:55:03.992Z</time></trkpt><trkpt lat="44.763204836226905" lon="12.228773899200034"><ele>0.0</ele><time>2026-04-05T12:55:04.992Z</time></trkpt><trkpt lat="44.76338792100027" lon="12.228696333367871"><ele>-0.6666666666666666</ele><time>2026-04-05T12:55:05.992Z</time></trkpt><trkpt lat="44.76358218318203" lon="12.228690370917615"><ele>-1.3333333333333333</ele><time>2026-04-05T12:55:06.992Z</time></trkpt><trkpt lat="44.76377611304113" lon="12.228684793701042"><ele>-2.0</ele><time>2026-04-05T12:55:07.992Z</time></trkpt><trkpt lat="44.763969934770834" lon="12.228711857077561"><ele>-2.0</ele><time>2026-04-05T12:55:08.992Z</time></trkpt><trkpt lat="44.764167338508415" lon="12.228770591334836"><ele>-2.0</ele><time>2026-04-05T12:55:09.992Z</time></trkpt><trkpt lat="44.76436539847973" lon="12.228859397813226"><ele>-2.0</ele><time>2026-04-05T12:55:10.992Z</time></trkpt><trkpt lat="44.76456361234625" lon="12.2289862947222"><ele>-1.5</ele><time>2026-04-05T12:55:11.992Z</time></trkpt><trkpt lat="44.7647650532912" lon="12.229127503115482"><ele>-1.0</ele><time>2026-04-05T12:55:12.992Z</time></trkpt><trkpt lat="44.76497062080231" lon="12.229276327012073"><ele>-1.0</ele><time>2026-04-05T12:55:13.992Z</time></trkpt><trkpt lat="44.76518160982627" lon="12.229429075901473"><ele>-1.0</ele><time>2026-04-05T12:55:14.992Z</time></trkpt><trkpt lat="44.765393763397135" lon="12.229582667859251"><ele>-1.5</ele><time>2026-04-05T12:55:15.992Z</time></trkpt><trkpt lat="44.765606891139406" lon="12.229736965083514"><ele>-2.0</ele><time>2026-04-05T12:55:16.992Z</time></trkpt><trkpt lat="44.76582319744187" lon="12.229893563501662"><ele>-2.0</ele><time>2026-04-05T12:55:17.992Z</time></trkpt><trkpt lat="44.76603560333907" lon="12.230047338145289"><ele>-2.0</ele><time>2026-04-05T12:55:18.992Z</time></trkpt><trkpt lat="44.76624188961554" lon="12.230197946762308"><ele>-2.0</ele><time>2026-04-05T12:55:19.992Z</time></trkpt><trkpt lat="44.76644439699819" lon="12.230345812537433"><ele>-2.0</ele><time>2026-04-05T12:55:20.992Z</time></trkpt><trkpt lat="44.76664915205224" lon="12.230495601833134"><ele>-1.5</ele><time>2026-04-05T12:55:21.992Z</time></trkpt><trkpt lat="44.76685689779498" lon="12.230653288947083"><ele>-1.0</ele><time>2026-04-05T12:55:22.992Z</time></trkpt><trkpt lat="44.7670697967546" lon="12.230821402570934"><ele>-1.0</ele><time>2026-04-05T12:55:23.992Z</time></trkpt><trkpt lat="44.76727997095621" lon="12.230992700957565"><ele>-1.0</ele><time>2026-04-05T12:55:24.992Z</time></trkpt><trkpt lat="44.76750108034179" lon="12.231178679502584"><ele>-1.5</ele><time>2026-04-05T12:55:25.992Z</time></trkpt><trkpt lat="44.76772083476745" lon="12.231371780070928"><ele>-2.0</ele><time>2026-04-05T12:55:26.992Z</time></trkpt><trkpt lat="44.767938168549804" lon="12.231573823521469"><ele>-2.0</ele><time>2026-04-05T12:55:27.992Z</time></trkpt><trkpt lat="44.76815474226728" lon="12.231781096484651"><ele>-2.0</ele><time>2026-04-05T12:55:28.992Z</time></trkpt><trkpt lat="44.76836596941682" lon="12.231991084031728"><ele>-2.5</ele><time>2026-04-05T12:55:29.992Z</time></trkpt><trkpt lat="44.76857232045198" lon="12.232206604080073"><ele>-3.0</ele><time>2026-04-05T12:55:30.992Z</time></trkpt><trkpt lat="44.7687782928603" lon="12.232422616278207"><ele>-3.0</ele><time>2026-04-05T12:55:31.992Z</time></trkpt><trkpt lat="44.76898496131884" lon="12.232637383083356"><ele>-3.0</ele><time>2026-04-05T12:55:32.992Z</time></trkpt><trkpt lat="44.76918713864625" lon="12.23284748187618"><ele>-3.5</ele><time>2026-04-05T12:55:33.992Z</time></trkpt><trkpt lat="44.76940789609177" lon="12.23302251820075"><ele>-4.0</ele><time>2026-04-05T12:55:34.992Z</time></trkpt><trkpt lat="44.769607677906556" lon="12.23323365797709"><ele>-3.0</ele><time>2026-04-05T12:55:35.992Z</time></trkpt><trkpt lat="44.769809321560494" lon="12.233445230599104"><ele>-2.0</ele><time>2026-04-05T12:55:36.992Z</time></trkpt><trkpt lat="44.77001326529256" lon="12.233661290738128"><ele>-2.0</ele><time>2026-04-05T12:55:37.992Z</time></trkpt><trkpt lat="44.77021209494233" lon="12.233876277233858"><ele>-2.0</ele><time>2026-04-05T12:55:38.992Z</time></trkpt><trkpt lat="44.770411627468995" lon="12.234083030979226"><ele>-2.0</ele><time>2026-04-05T12:55:39.992Z</time></trkpt><trkpt lat="44.77062230464754" lon="12.234314594784522"><ele>-2.0</ele><time>2026-04-05T12:55:40.992Z</time></trkpt><trkpt lat="44.77081813575667" lon="12.234535240720469"><ele>-2.0</ele><time>2026-04-05T12:55:41.992Z</time></trkpt><trkpt lat="44.771023936116926" lon="12.234738120606059"><ele>-2.0</ele><time>2026-04-05T12:55:42.992Z</time></trkpt><trkpt lat="44.7712068562686" lon="12.23493731294707"><ele>-2.0</ele><time>2026-04-05T12:55:43.992Z</time></trkpt><trkpt lat="44.771380041753126" lon="12.235158163203387"><ele>-2.0</ele><time>2026-04-05T12:55:44.992Z</time></trkpt><trkpt lat="44.771565210558194" lon="12.235346182261255"><ele>-2.0</ele><time>2026-04-05T12:55:45.992Z</time></trkpt><trkpt lat="44.771731538758026" lon="12.235579056701267"><ele>-2.0</ele><time>2026-04-05T12:55:46.992Z</time></trkpt><trkpt lat="44.771879358919875" lon="12.235783870667317"><ele>-2.0</ele><time>2026-04-05T12:55:47.991Z</time></trkpt><trkpt lat="44.77201743438899" lon="12.236009261848753"><ele>-2.0</ele><time>2026-04-05T12:55:48.991Z</time></trkpt><trkpt lat="44.77213805173026" lon="12.236234856813608"><ele>-2.0</ele><time>2026-04-05T12:55:49.991Z</time></trkpt><trkpt lat="44.77224155924527" lon="12.236489442943792"><ele>-2.0</ele><time>2026-04-05T12:55:50.991Z</time></trkpt><trkpt lat="44.772342100682486" lon="12.236767659062036"><ele>-2.0</ele><time>2026-04-05T12:55:51.991Z</time></trkpt><trkpt lat="44.772435697255645" lon="12.237036319245629"><ele>-2.0</ele><time>2026-04-05T12:55:52.991Z</time></trkpt><trkpt lat="44.772523493527565" lon="12.237309327285157"><ele>-2.0</ele><time>2026-04-05T12:55:53.991Z</time></trkpt><trkpt lat="44.77259756475614" lon="12.237599085148428"><ele>-2.0</ele><time>2026-04-05T12:55:54.991Z</time></trkpt><trkpt lat="44.772667806470416" lon="12.237889229956123"><ele>-2.0</ele><time>2026-04-05T12:55:55.991Z</time></trkpt><trkpt lat="44.77273637286047" lon="12.238164144304443"><ele>-2.0</ele><time>2026-04-05T12:55:56.991Z</time></trkpt><trkpt lat="44.77280703627228" lon="12.238428842394084"><ele>-2.0</ele><time>2026-04-05T12:55:57.991Z</time></trkpt><trkpt lat="44.77288503860594" lon="12.238673491026757"><ele>-2.0</ele><time>2026-04-05T12:55:58.991Z</time></trkpt><trkpt lat="44.77297790499139" lon="12.238899802115297"><ele>-2.0</ele><time>2026-04-05T12:55:59.991Z</time></trkpt><trkpt lat="44.77309594516838" lon="12.239116863162694"><ele>-1.6666666666666665</ele><time>2026-04-05T12:56:00.991Z</time></trkpt><trkpt lat="44.773244869904346" lon="12.239313505971793"><ele>-1.3333333333333333</ele><time>2026-04-05T12:56:01.991Z</time></trkpt><trkpt lat="44.77342532099281" lon="12.239495845220967"><ele>-1.0</ele><time>2026-04-05T12:56:02.991Z</time></trkpt><trkpt lat="44.77361548719223" lon="12.23967597252527"><ele>-0.5</ele><time>2026-04-05T12:56:03.991Z</time></trkpt><trkpt lat="44.77381268803429" lon="12.239872929868453"><ele>0.0</ele><time>2026-04-05T12:56:04.991Z</time></trkpt><trkpt lat="44.77402186573849" lon="12.24005309231345"><ele>0.0</ele><time>2026-04-05T12:56:05.991Z</time></trkpt><trkpt lat="44.77422140757096" lon="12.24024205353776"><ele>0.0</ele><time>2026-04-05T12:56:06.991Z</time></trkpt><trkpt lat="44.774425303873834" lon="12.240441311255868"><ele>-1.0</ele><time>2026-04-05T12:56:07.991Z</time></trkpt><trkpt lat="44.77463190007399" lon="12.240637445717672"><ele>-2.0</ele><time>2026-04-05T12:56:08.991Z</time></trkpt><trkpt lat="44.77485102617946" lon="12.240835081194605"><ele>-2.0</ele><time>2026-04-05T12:56:09.991Z</time></trkpt><trkpt lat="44.775059527038835" lon="12.241031929691282"><ele>-2.0</ele><time>2026-04-05T12:56:10.991Z</time></trkpt><trkpt lat="44.77527185552666" lon="12.241240175242924"><ele>-2.5</ele><time>2026-04-05T12:56:11.991Z</time></trkpt><trkpt lat="44.775481636055936" lon="12.24144350799364"><ele>-3.0</ele><time>2026-04-05T12:56:12.991Z</time></trkpt><trkpt lat="44.77569970729308" lon="12.24164538734136"><ele>-2.5</ele><time>2026-04-05T12:56:13.991Z</time></trkpt><trkpt lat="44.77591821181503" lon="12.24185591544471"><ele>-2.0</ele><time>2026-04-05T12:56:14.991Z</time></trkpt><trkpt lat="44.77612600173267" lon="12.242053326019969"><ele>-2.0</ele><time>2026-04-05T12:56:15.991Z</time></trkpt><trkpt lat="44.776338589031866" lon="12.24225790528851"><ele>-2.0</ele><time>2026-04-05T12:56:16.991Z</time></trkpt><trkpt lat="44.77654742137571" lon="12.242471326972645"><ele>-1.5</ele><time>2026-04-05T12:56:17.991Z</time></trkpt><trkpt lat="44.776755937752014" lon="12.242689137803781"><ele>-1.0</ele><time>2026-04-05T12:56:18.991Z</time></trkpt><trkpt lat="44.776964319483305" lon="12.242908167420024"><ele>-1.0</ele><time>2026-04-05T12:56:19.991Z</time></trkpt><trkpt lat="44.77717523332841" lon="12.243122563732213"><ele>-1.0</ele><time>2026-04-05T12:56:20.991Z</time></trkpt><trkpt lat="44.77738394427703" lon="12.243336803883757"><ele>-1.0</ele><time>2026-04-05T12:56:21.991Z</time></trkpt><trkpt lat="44.77759738825496" lon="12.243553014692207"><ele>-1.0</ele><time>2026-04-05T12:56:22.991Z</time></trkpt><trkpt lat="44.77780603510659" lon="12.243773468580192"><ele>-1.0</ele><time>2026-04-05T12:56:23.991Z</time></trkpt><trkpt lat="44.778022306885696" lon="12.243989432798434"><ele>-1.0</ele><time>2026-04-05T12:56:24.991Z</time></trkpt><trkpt lat="44.77823392352724" lon="12.24420758309396"><ele>-1.0</ele><time>2026-04-05T12:56:25.991Z</time></trkpt><trkpt lat="44.77845404280686" lon="12.244421925269458"><ele>-1.0</ele><time>2026-04-05T12:56:26.991Z</time></trkpt><trkpt lat="44.77867038276879" lon="12.244641995153502"><ele>-1.5</ele><time>2026-04-05T12:56:27.991Z</time></trkpt><trkpt lat="44.77888787326531" lon="12.244862502196078"><ele>-2.0</ele><time>2026-04-05T12:56:28.991Z</time></trkpt><trkpt lat="44.779100572311684" lon="12.24507918796601"><ele>-2.0</ele><time>2026-04-05T12:56:29.991Z</time></trkpt><trkpt lat="44.779311164279875" lon="12.245294715004565"><ele>-2.0</ele><time>2026-04-05T12:56:30.991Z</time></trkpt><trkpt lat="44.77952099158764" lon="12.245509337761455"><ele>-1.5</ele><time>2026-04-05T12:56:31.991Z</time></trkpt><trkpt lat="44.77972663051098" lon="12.245712131742128"><ele>-1.0</ele><time>2026-04-05T12:56:32.991Z</time></trkpt><trkpt lat="44.77993288519219" lon="12.24592192957498"><ele>-1.0</ele><time>2026-04-05T12:56:33.991Z</time></trkpt><trkpt lat="44.78013838717654" lon="12.246127744137093"><ele>-1.0</ele><time>2026-04-05T12:56:34.991Z</time></trkpt><trkpt lat="44.78033945286243" lon="12.246333525391286"><ele>-1.0</ele><time>2026-04-05T12:56:35.991Z</time></trkpt><trkpt lat="44.78053801692177" lon="12.246537316535235"><ele>-1.0</ele><time>2026-04-05T12:56:36.991Z</time></trkpt><trkpt lat="44.78073505600698" lon="12.246737028432692"><ele>-1.0</ele><time>2026-04-05T12:56:37.991Z</time></trkpt><trkpt lat="44.78093120934208" lon="12.246938615306393"><ele>-1.0</ele><time>2026-04-05T12:56:38.991Z</time></trkpt><trkpt lat="44.78112437983255" lon="12.247135919343133"><ele>-1.5</ele><time>2026-04-05T12:56:39.991Z</time></trkpt><trkpt lat="44.78131254000034" lon="12.24732680569735"><ele>-2.0</ele><time>2026-04-05T12:56:40.991Z</time></trkpt><trkpt lat="44.78149582111434" lon="12.247509629390821"><ele>-2.0</ele><time>2026-04-05T12:56:41.991Z</time></trkpt><trkpt lat="44.78167086615591" lon="12.247688322630065"><ele>-2.0</ele><time>2026-04-05T12:56:42.991Z</time></trkpt><trkpt lat="44.78184012802259" lon="12.247861632969437"><ele>-2.0</ele><time>2026-04-05T12:56:43.991Z</time></trkpt><trkpt lat="44.78200220857676" lon="12.24803173011413"><ele>-1.3333333333333333</ele><time>2026-04-05T12:56:44.991Z</time></trkpt><trkpt lat="44.78217897164637" lon="12.248191659478373"><ele>-0.6666666666666666</ele><time>2026-04-05T12:56:45.991Z</time></trkpt><trkpt lat="44.782339674081975" lon="12.248365808331435"><ele>0.0</ele><time>2026-04-05T12:56:46.991Z</time></trkpt><trkpt lat="44.7824973808962" lon="12.24853653973426"><ele>0.0</ele><time>2026-04-05T12:56:47.991Z</time></trkpt><trkpt lat="44.78266479177234" lon="12.248715784192068"><ele>0.0</ele><time>2026-04-05T12:56:48.991Z</time></trkpt><trkpt lat="44.7828337527491" lon="12.2489029601166"><ele>0.0</ele><time>2026-04-05T12:56:49.991Z</time></trkpt><trkpt lat="44.78301179464041" lon="12.249114358940254"><ele>-1.0</ele><time>2026-04-05T12:56:50.991Z</time></trkpt><trkpt lat="44.783193324550844" lon="12.249330523379799"><ele>-2.0</ele><time>2026-04-05T12:56:51.991Z</time></trkpt><trkpt lat="44.78338678583318" lon="12.249549188862304"><ele>-2.0</ele><time>2026-04-05T12:56:52.991Z</time></trkpt><trkpt lat="44.78358456270453" lon="12.249786993668753"><ele>-2.0</ele><time>2026-04-05T12:56:53.991Z</time></trkpt><trkpt lat="44.783766091173625" lon="12.250083505490883"><ele>-1.5</ele><time>2026-04-05T12:56:54.991Z</time></trkpt><trkpt lat="44.78398457703936" lon="12.250349593103202"><ele>-1.0</ele><time>2026-04-05T12:56:55.991Z</time></trkpt><trkpt lat="44.78418546412845" lon="12.250594247671916"><ele>-2.0</ele><time>2026-04-05T12:56:56.991Z</time></trkpt><trkpt lat="44.7843931481102" lon="12.250847179989181"><ele>-3.0</ele><time>2026-04-05T12:56:57.991Z</time></trkpt><trkpt lat="44.784594427092635" lon="12.251092311834313"><ele>-3.0</ele><time>2026-04-05T12:56:58.991Z</time></trkpt><trkpt lat="44.78479460027087" lon="12.251336096946005"><ele>-3.0</ele><time>2026-04-05T12:56:59.991Z</time></trkpt><trkpt lat="44.784993724893354" lon="12.251578605054446"><ele>-3.0</ele><time>2026-04-05T12:57:00.991Z</time></trkpt><trkpt lat="44.785189416336664" lon="12.251816931996139"><ele>-3.0</ele><time>2026-04-05T12:57:01.991Z</time></trkpt><trkpt lat="44.78539020701406" lon="12.252061469155375"><ele>-2.0</ele><time>2026-04-05T12:57:02.991Z</time></trkpt><trkpt lat="44.785587722669035" lon="12.25230201775061"><ele>-1.0</ele><time>2026-04-05T12:57:03.991Z</time></trkpt><trkpt lat="44.78578394253612" lon="12.25254078527762"><ele>-1.0</ele><time>2026-04-05T12:57:04.991Z</time></trkpt><trkpt lat="44.78597349399998" lon="12.252771003228627"><ele>-1.0</ele><time>2026-04-05T12:57:05.991Z</time></trkpt><trkpt lat="44.786167037822324" lon="12.253006070049448"><ele>-1.5</ele><time>2026-04-05T12:57:06.991Z</time></trkpt><trkpt lat="44.78636904653383" lon="12.25324821735863"><ele>-2.0</ele><time>2026-04-05T12:57:07.991Z</time></trkpt><trkpt lat="44.78656733908862" lon="12.253479816002036"><ele>-2.0</ele><time>2026-04-05T12:57:08.99Z</time></trkpt><trkpt lat="44.78677200431548" lon="12.253713096405907"><ele>-2.0</ele><time>2026-04-05T12:57:09.99Z</time></trkpt><trkpt lat="44.786977561877826" lon="12.253942048249764"><ele>-2.0</ele><time>2026-04-05T12:57:10.99Z</time></trkpt><trkpt lat="44.787185246931195" lon="12.254165608600537"><ele>-2.0</ele><time>2026-04-05T12:57:11.99Z</time></trkpt><trkpt lat="44.787398218469505" lon="12.25439020021543"><ele>-2.0</ele><time>2026-04-05T12:57:12.99Z</time></trkpt><trkpt lat="44.78761226801939" lon="12.25460932419377"><ele>-2.0</ele><time>2026-04-05T12:57:13.99Z</time></trkpt><trkpt lat="44.78782799511088" lon="12.254824905831319"><ele>-1.5</ele><time>2026-04-05T12:57:14.99Z</time></trkpt><trkpt lat="44.78804586202515" lon="12.255036871452052"><ele>-1.0</ele><time>2026-04-05T12:57:15.99Z</time></trkpt><trkpt lat="44.78827752963523" lon="12.255226017871834"><ele>-1.0</ele><time>2026-04-05T12:57:16.99Z</time></trkpt><trkpt lat="44.78849859104919" lon="12.255425078002178"><ele>-1.0</ele><time>2026-04-05T12:57:17.99Z</time></trkpt><trkpt lat="44.78871327185273" lon="12.255642398892029"><ele>-0.5</ele><time>2026-04-05T12:57:18.99Z</time></trkpt><trkpt lat="44.7889358558492" lon="12.255836020630275"><ele>0.0</ele><time>2026-04-05T12:57:19.99Z</time></trkpt><trkpt lat="44.789162649204826" lon="12.256027982027948"><ele>-1.0</ele><time>2026-04-05T12:57:20.99Z</time></trkpt><trkpt lat="44.78939161832688" lon="12.256216289833223"><ele>-2.0</ele><time>2026-04-05T12:57:21.99Z</time></trkpt><trkpt lat="44.78961478208353" lon="12.256397635207753"><ele>-1.5</ele><time>2026-04-05T12:57:22.99Z</time></trkpt><trkpt lat="44.789826378097544" lon="12.256557973070663"><ele>-1.0</ele><time>2026-04-05T12:57:23.99Z</time></trkpt><trkpt lat="44.790033013865894" lon="12.2567240738309"><ele>-1.6666666666666665</ele><time>2026-04-05T12:57:24.99Z</time></trkpt><trkpt lat="44.790225501051886" lon="12.256878426819592"><ele>-2.3333333333333335</ele><time>2026-04-05T12:57:25.99Z</time></trkpt><trkpt lat="44.790410611968" lon="12.25702555422605"><ele>-3.0</ele><time>2026-04-05T12:57:26.99Z</time></trkpt><trkpt lat="44.79058625308374" lon="12.257171947398298"><ele>-2.6666666666666665</ele><time>2026-04-05T12:57:27.99Z</time></trkpt><trkpt lat="44.790760541802335" lon="12.257309345590988"><ele>-2.333333333333333</ele><time>2026-04-05T12:57:28.99Z</time></trkpt><trkpt lat="44.790930042490636" lon="12.257438970918809"><ele>-2.0</ele><time>2026-04-05T12:57:29.99Z</time></trkpt><trkpt lat="44.79109809070073" lon="12.2575554016231"><ele>-2.0</ele><time>2026-04-05T12:57:30.99Z</time></trkpt><trkpt lat="44.79127347343135" lon="12.257655834387773"><ele>-2.0</ele><time>2026-04-05T12:57:31.99Z</time></trkpt><trkpt lat="44.79145374038882" lon="12.257723705939075"><ele>-2.0</ele><time>2026-04-05T12:57:32.99Z</time></trkpt><trkpt lat="44.79163664486556" lon="12.257756305550384"><ele>-2.0</ele><time>2026-04-05T12:57:33.99Z</time></trkpt><trkpt lat="44.79182735792351" lon="12.257752499914405"><ele>-2.0</ele><time>2026-04-05T12:57:34.99Z</time></trkpt><trkpt lat="44.79203080496952" lon="12.257713140038712"><ele>-2.0</ele><time>2026-04-05T12:57:35.99Z</time></trkpt><trkpt lat="44.79224834817087" lon="12.257656055282956"><ele>-1.0</ele><time>2026-04-05T12:57:36.99Z</time></trkpt><trkpt lat="44.792483488884564" lon="12.257586533862213"><ele>0.0</ele><time>2026-04-05T12:57:37.99Z</time></trkpt><trkpt lat="44.79272593733739" lon="12.257517349631778"><ele>0.0</ele><time>2026-04-05T12:57:38.99Z</time></trkpt><trkpt lat="44.79297438354561" lon="12.257453169426501"><ele>0.0</ele><time>2026-04-05T12:57:39.99Z</time></trkpt><trkpt lat="44.79322167741101" lon="12.257382865590362"><ele>0.0</ele><time>2026-04-05T12:57:40.99Z</time></trkpt><trkpt lat="44.79345964353744" lon="12.257332603270438"><ele>0.0</ele><time>2026-04-05T12:57:41.99Z</time></trkpt><trkpt lat="44.79366918484867" lon="12.25727380568869"><ele>-1.0</ele><time>2026-04-05T12:57:42.99Z</time></trkpt><trkpt lat="44.79385613629716" lon="12.257222569111494"><ele>-2.0</ele><time>2026-04-05T12:57:43.99Z</time></trkpt><trkpt lat="44.79400981431325" lon="12.257178576116486"><ele>-3.0</ele><time>2026-04-05T12:57:44.99Z</time></trkpt><trkpt lat="44.79416103708675" lon="12.257137171109065"><ele>-3.0</ele><time>2026-04-05T12:57:45.99Z</time></trkpt><trkpt lat="44.794311401510924" lon="12.25712615723601"><ele>-3.0</ele><time>2026-04-05T12:57:46.99Z</time></trkpt><trkpt lat="44.79446237672443" lon="12.257138288963422"><ele>-3.0</ele><time>2026-04-05T12:57:47.99Z</time></trkpt><trkpt lat="44.794616916810135" lon="12.257182625911486"><ele>-3.333333333333333</ele><time>2026-04-05T12:57:48.99Z</time></trkpt><trkpt lat="44.79476974862245" lon="12.25722971032612"><ele>-3.6666666666666665</ele><time>2026-04-05T12:57:49.99Z</time></trkpt><trkpt lat="44.79491294327001" lon="12.257336055563918"><ele>-4.0</ele><time>2026-04-05T12:57:50.99Z</time></trkpt><trkpt lat="44.79505650967857" lon="12.257464539097102"><ele>-4.0</ele><time>2026-04-05T12:57:51.99Z</time></trkpt><trkpt lat="44.79519857092293" lon="12.25761517836262"><ele>-4.0</ele><time>2026-04-05T12:57:52.99Z</time></trkpt><trkpt lat="44.79534212883864" lon="12.257781619354468"><ele>-4.0</ele><time>2026-04-05T12:57:53.99Z</time></trkpt><trkpt lat="44.79548780983263" lon="12.257950139621908"><ele>-3.333333333333333</ele><time>2026-04-05T12:57:54.99Z</time></trkpt><trkpt lat="44.79563520276566" lon="12.258118563077765"><ele>-2.6666666666666665</ele><time>2026-04-05T12:57:55.99Z</time></trkpt><trkpt lat="44.795789520107434" lon="12.25829218807803"><ele>-2.0</ele><time>2026-04-05T12:57:56.99Z</time></trkpt><trkpt lat="44.79594617878889" lon="12.258460085748005"><ele>-2.6666666666666665</ele><time>2026-04-05T12:57:57.99Z</time></trkpt><trkpt lat="44.79610154908005" lon="12.258619702378985"><ele>-3.333333333333333</ele><time>2026-04-05T12:57:58.99Z</time></trkpt><trkpt lat="44.79625509727728" lon="12.258776508041404"><ele>-4.0</ele><time>2026-04-05T12:57:59.99Z</time></trkpt><trkpt lat="44.796403174991845" lon="12.258930130871201"><ele>-3.0</ele><time>2026-04-05T12:58:00.99Z</time></trkpt><trkpt lat="44.796550286937865" lon="12.259068024373557"><ele>-2.0</ele><time>2026-04-05T12:58:01.99Z</time></trkpt><trkpt lat="44.79670431993639" lon="12.25916290665671"><ele>-1.0</ele><time>2026-04-05T12:58:02.99Z</time></trkpt><trkpt lat="44.79686178970876" lon="12.25920966949387"><ele>-1.0</ele><time>2026-04-05T12:58:03.99Z</time></trkpt><trkpt lat="44.79702037670574" lon="12.259240551627437"><ele>-1.0</ele><time>2026-04-05T12:58:04.99Z</time></trkpt><trkpt lat="44.79718814888399" lon="12.259251212875027"><ele>-1.0</ele><time>2026-04-05T12:58:05.99Z</time></trkpt><trkpt lat="44.79736390097647" lon="12.259261561143859"><ele>-1.0</ele><time>2026-04-05T12:58:06.99Z</time></trkpt><trkpt lat="44.797555315367916" lon="12.259251459725256"><ele>-1.0</ele><time>2026-04-05T12:58:07.99Z</time></trkpt><trkpt lat="44.79775595781637" lon="12.2592530345205"><ele>-1.0</ele><time>2026-04-05T12:58:08.99Z</time></trkpt><trkpt lat="44.797959898248706" lon="12.259252382295204"><ele>-1.0</ele><time>2026-04-05T12:58:09.99Z</time></trkpt><trkpt lat="44.79816508796222" lon="12.259255773884183"><ele>-1.0</ele><time>2026-04-05T12:58:10.99Z</time></trkpt><trkpt lat="44.798373394607495" lon="12.259259080203197"><ele>-1.0</ele><time>2026-04-05T12:58:11.99Z</time></trkpt><trkpt lat="44.798567955796024" lon="12.259260243411543"><ele>-0.3333333333333333</ele><time>2026-04-05T12:58:12.99Z</time></trkpt><trkpt lat="44.79875512162997" lon="12.259263059979293"><ele>0.3333333333333333</ele><time>2026-04-05T12:58:13.99Z</time></trkpt><trkpt lat="44.79894090718352" lon="12.259253338806031"><ele>1.0</ele><time>2026-04-05T12:58:14.99Z</time></trkpt><trkpt lat="44.79913535914826" lon="12.25926447988017"><ele>1.0</ele><time>2026-04-05T12:58:15.99Z</time></trkpt><trkpt lat="44.799324187911196" lon="12.259261972962367"><ele>1.0</ele><time>2026-04-05T12:58:16.99Z</time></trkpt><trkpt lat="44.79951288315194" lon="12.259262934595212"><ele>1.0</ele><time>2026-04-05T12:58:17.99Z</time></trkpt><trkpt lat="44.79970310085996" lon="12.259269721018171"><ele>0.6666666666666666</ele><time>2026-04-05T12:58:18.99Z</time></trkpt><trkpt lat="44.799894280965056" lon="12.259274325707787"><ele>0.3333333333333333</ele><time>2026-04-05T12:58:19.99Z</time></trkpt><trkpt lat="44.800091960135816" lon="12.259278750775973"><ele>0.0</ele><time>2026-04-05T12:58:20.99Z</time></trkpt><trkpt lat="44.80029571842795" lon="12.259283437733224"><ele>-0.3333333333333333</ele><time>2026-04-05T12:58:21.99Z</time></trkpt><trkpt lat="44.800499499159706" lon="12.259291644226714"><ele>-0.6666666666666666</ele><time>2026-04-05T12:58:22.99Z</time></trkpt><trkpt lat="44.80071202357645" lon="12.25928728455593"><ele>-1.0</ele><time>2026-04-05T12:58:23.99Z</time></trkpt><trkpt lat="44.800924149502116" lon="12.259294486478085"><ele>-0.6666666666666666</ele><time>2026-04-05T12:58:24.99Z</time></trkpt><trkpt lat="44.80113136779877" lon="12.259295935969845"><ele>-0.3333333333333333</ele><time>2026-04-05T12:58:25.99Z</time></trkpt><trkpt lat="44.801326527489536" lon="12.25929884406755"><ele>0.0</ele><time>2026-04-05T12:58:26.99Z</time></trkpt><trkpt lat="44.80151280218875" lon="12.259300751035182"><ele>0.0</ele><time>2026-04-05T12:58:27.99Z</time></trkpt><trkpt lat="44.80168567445384" lon="12.259305477460636"><ele>0.0</ele><time>2026-04-05T12:58:28.99Z</time></trkpt><trkpt lat="44.8018359932769" lon="12.259306458342554"><ele>0.0</ele><time>2026-04-05T12:58:29.99Z</time></trkpt><trkpt lat="44.801966828598125" lon="12.259311022232772"><ele>0.0</ele><time>2026-04-05T12:58:30.989Z</time></trkpt><trkpt lat="44.80208353505141" lon="12.259312133741535"><ele>0.0</ele><time>2026-04-05T12:58:31.989Z</time></trkpt><trkpt lat="44.802186159089516" lon="12.25931525392493"><ele>0.0</ele><time>2026-04-05T12:58:32.989Z</time></trkpt><trkpt lat="44.80227165194366" lon="12.25932833566247"><ele>0.0</ele><time>2026-04-05T12:58:33.989Z</time></trkpt><trkpt lat="44.80234217158647" lon="12.259344246540044"><ele>0.0</ele><time>2026-04-05T12:58:34.989Z</time></trkpt><trkpt lat="44.80240467968418" lon="12.25936552354792"><ele>0.0</ele><time>2026-04-05T12:58:35.989Z</time></trkpt><trkpt lat="44.80246172380711" lon="12.25940332313"><ele>0.0</ele><time>2026-04-05T12:58:36.989Z</time></trkpt><trkpt lat="44.802522471691134" lon="12.259452716932344"><ele>0.0</ele><time>2026-04-05T12:58:37.989Z</time></trkpt><trkpt lat="44.80257888528354" lon="12.259521757674392"><ele>0.0</ele><time>2026-04-05T12:58:38.989Z</time></trkpt><trkpt lat="44.802634794875935" lon="12.259604662767082"><ele>0.0</ele><time>2026-04-05T12:58:39.989Z</time></trkpt><trkpt lat="44.802677016555" lon="12.259704299749389"><ele>0.0</ele><time>2026-04-05T12:58:40.989Z</time></trkpt><trkpt lat="44.802705770225614" lon="12.259806713428631"><ele>0.0</ele><time>2026-04-05T12:58:41.989Z</time></trkpt><trkpt lat="44.802734060075984" lon="12.259906232421127"><ele>0.0</ele><time>2026-04-05T12:58:42.989Z</time></trkpt><trkpt lat="44.80273642861118" lon="12.260016365643231"><ele>0.0</ele><time>2026-04-05T12:58:43.989Z</time></trkpt><trkpt lat="44.802733681097116" lon="12.260122024886247"><ele>0.0</ele><time>2026-04-05T12:58:44.989Z</time></trkpt><trkpt lat="44.80274431798349" lon="12.260252507740233"><ele>0.0</ele><time>2026-04-05T12:58:45.989Z</time></trkpt><trkpt lat="44.80274930976909" lon="12.260386600959803"><ele>0.0</ele><time>2026-04-05T12:58:46.989Z</time></trkpt><trkpt lat="44.802776159420375" lon="12.260512312244227"><ele>0.0</ele><time>2026-04-05T12:58:47.989Z</time></trkpt><trkpt lat="44.802799872571256" lon="12.2606531214171"><ele>0.0</ele><time>2026-04-05T12:58:48.989Z</time></trkpt><trkpt lat="44.80282529162376" lon="12.260781663281135"><ele>0.0</ele><time>2026-04-05T12:58:49.989Z</time></trkpt><trkpt lat="44.802842894937754" lon="12.260915770331422"><ele>0.0</ele><time>2026-04-05T12:58:50.989Z</time></trkpt><trkpt lat="44.80287300914235" lon="12.261055967752384"><ele>0.0</ele><time>2026-04-05T12:58:51.989Z</time></trkpt><trkpt lat="44.80289928581409" lon="12.261181417916935"><ele>0.0</ele><time>2026-04-05T12:58:52.989Z</time></trkpt><trkpt lat="44.80292890639045" lon="12.261282388126196"><ele>0.0</ele><time>2026-04-05T12:58:53.989Z</time></trkpt><trkpt lat="44.80295888816798" lon="12.26143478704374"><ele>0.0</ele><time>2026-04-05T12:58:55.989Z</time></trkpt><trkpt lat="44.8029768842813" lon="12.26158106442476"><ele>0.0</ele><time>2026-04-05T12:58:57.989Z</time></trkpt><trkpt lat="44.80299649923627" lon="12.261678336569261"><ele>0.0</ele><time>2026-04-05T12:58:58.989Z</time></trkpt><trkpt lat="44.803018232548546" lon="12.261807208353495"><ele>0.0</ele><time>2026-04-05T12:58:59.989Z</time></trkpt><trkpt lat="44.8030426318799" lon="12.261971112310233"><ele>0.0</ele><time>2026-04-05T12:59:00.989Z</time></trkpt><trkpt lat="44.803077757054254" lon="12.262149779042403"><ele>0.0</ele><time>2026-04-05T12:59:01.989Z</time></trkpt><trkpt lat="44.803129791729106" lon="12.262397119808112"><ele>0.0</ele><time>2026-04-05T12:59:02.989Z</time></trkpt><trkpt lat="44.80318193308272" lon="12.262655065096906"><ele>0.0</ele><time>2026-04-05T12:59:03.989Z</time></trkpt><trkpt lat="44.80322147311044" lon="12.262928053815898"><ele>0.0</ele><time>2026-04-05T12:59:04.989Z</time></trkpt><trkpt lat="44.8032614763831" lon="12.263195560726011"><ele>0.0</ele><time>2026-04-05T12:59:05.989Z</time></trkpt><trkpt lat="44.803309681668594" lon="12.2634368913438"><ele>0.0</ele><time>2026-04-05T12:59:06.989Z</time></trkpt><trkpt lat="44.80335660516476" lon="12.26366688027874"><ele>0.0</ele><time>2026-04-05T12:59:07.989Z</time></trkpt><trkpt lat="44.80340523958921" lon="12.263883507519187"><ele>0.0</ele><time>2026-04-05T12:59:08.989Z</time></trkpt><trkpt lat="44.8034457705008" lon="12.264098588542392"><ele>0.0</ele><time>2026-04-05T12:59:09.989Z</time></trkpt><trkpt lat="44.80348303274655" lon="12.26430286657374"><ele>0.0</ele><time>2026-04-05T12:59:10.989Z</time></trkpt><trkpt lat="44.80350412726992" lon="12.264504717609992"><ele>0.0</ele><time>2026-04-05T12:59:11.989Z</time></trkpt><trkpt lat="44.80350977672856" lon="12.264694560522274"><ele>0.0</ele><time>2026-04-05T12:59:12.989Z</time></trkpt><trkpt lat="44.803490971359835" lon="12.264890731172622"><ele>0.0</ele><time>2026-04-05T12:59:13.989Z</time></trkpt><trkpt lat="44.80346364248518" lon="12.265082667672809"><ele>0.0</ele><time>2026-04-05T12:59:14.989Z</time></trkpt><trkpt lat="44.803430056535625" lon="12.265266735301891"><ele>0.0</ele><time>2026-04-05T12:59:15.989Z</time></trkpt><trkpt lat="44.803389845992726" lon="12.265442890914631"><ele>0.0</ele><time>2026-04-05T12:59:16.989Z</time></trkpt><trkpt lat="44.80336146949359" lon="12.265610610859014"><ele>0.0</ele><time>2026-04-05T12:59:17.989Z</time></trkpt><trkpt lat="44.80333546822236" lon="12.265748506191166"><ele>0.0</ele><time>2026-04-05T12:59:18.989Z</time></trkpt><trkpt lat="44.80331599011767" lon="12.26587562735702"><ele>0.0</ele><time>2026-04-05T12:59:19.989Z</time></trkpt><trkpt lat="44.80328635972938" lon="12.266001591176936"><ele>0.0</ele><time>2026-04-05T12:59:20.989Z</time></trkpt><trkpt lat="44.80326581507428" lon="12.266143292432584"><ele>0.0</ele><time>2026-04-05T12:59:21.989Z</time></trkpt><trkpt lat="44.803245611400726" lon="12.26627695020684"><ele>0.0</ele><time>2026-04-05T12:59:22.989Z</time></trkpt><trkpt lat="44.80322181059909" lon="12.266396121778971"><ele>0.0</ele><time>2026-04-05T12:59:23.989Z</time></trkpt><trkpt lat="44.803180788560105" lon="12.2665095443704"><ele>0.0</ele><time>2026-04-05T12:59:24.989Z</time></trkpt><trkpt lat="44.80308769719462" lon="12.266611010735966"><ele>0.0</ele><time>2026-04-05T12:59:25.989Z</time></trkpt><trkpt lat="44.802984526813546" lon="12.26668033111754"><ele>0.0</ele><time>2026-04-05T12:59:26.989Z</time></trkpt><trkpt lat="44.802877834692815" lon="12.266746872660859"><ele>0.25</ele><time>2026-04-05T12:59:27.989Z</time></trkpt><trkpt lat="44.8027723257674" lon="12.266807953565369"><ele>0.5</ele><time>2026-04-05T12:59:28.989Z</time></trkpt><trkpt lat="44.80266325746113" lon="12.266894877413643"><ele>0.75</ele><time>2026-04-05T12:59:29.989Z</time></trkpt><trkpt lat="44.80255299637037" lon="12.266981028085793"><ele>1.0</ele><time>2026-04-05T12:59:30.989Z</time></trkpt><trkpt lat="44.802430520667905" lon="12.267072956363945"><ele>1.25</ele><time>2026-04-05T12:59:31.989Z</time></trkpt><trkpt lat="44.80230522556733" lon="12.267175680969112"><ele>1.5</ele><time>2026-04-05T12:59:32.989Z</time></trkpt><trkpt lat="44.802180447700046" lon="12.267277431630815"><ele>1.75</ele><time>2026-04-05T12:59:33.989Z</time></trkpt><trkpt lat="44.802051139461824" lon="12.267372097713414"><ele>2.0</ele><time>2026-04-05T12:59:34.989Z</time></trkpt><trkpt lat="44.80192782226218" lon="12.267466111733116"><ele>2.25</ele><time>2026-04-05T12:59:35.989Z</time></trkpt><trkpt lat="44.80180668099295" lon="12.267555936536661"><ele>2.5</ele><time>2026-04-05T12:59:36.989Z</time></trkpt><trkpt lat="44.801689702948956" lon="12.267654062934337"><ele>2.75</ele><time>2026-04-05T12:59:37.989Z</time></trkpt><trkpt lat="44.801583046946035" lon="12.267742176646312"><ele>3.0</ele><time>2026-04-05T12:59:38.989Z</time></trkpt><trkpt lat="44.80146888003389" lon="12.267822289392695"><ele>3.0</ele><time>2026-04-05T12:59:39.989Z</time></trkpt><trkpt lat="44.80136265901032" lon="12.267901474183908"><ele>3.0</ele><time>2026-04-05T12:59:40.989Z</time></trkpt><trkpt lat="44.80125844144863" lon="12.26798608879705"><ele>3.0</ele><time>2026-04-05T12:59:41.989Z</time></trkpt><trkpt lat="44.80117286716637" lon="12.268055048854773"><ele>3.0</ele><time>2026-04-05T12:59:42.989Z</time></trkpt><trkpt lat="44.801092269342504" lon="12.268124193209333"><ele>3.0</ele><time>2026-04-05T12:59:43.989Z</time></trkpt><trkpt lat="44.80101370905817" lon="12.268201154615491"><ele>3.1666666666666665</ele><time>2026-04-05T12:59:44.989Z</time></trkpt><trkpt lat="44.800932791634395" lon="12.268272427461875"><ele>3.333333333333333</ele><time>2026-04-05T12:59:45.989Z</time></trkpt><trkpt lat="44.80086312321246" lon="12.268319817094962"><ele>3.5</ele><time>2026-04-05T12:59:46.989Z</time></trkpt><trkpt lat="44.800790254967076" lon="12.268372628486564"><ele>3.6666666666666665</ele><time>2026-04-05T12:59:47.989Z</time></trkpt><trkpt lat="44.800705701097165" lon="12.268424975675764"><ele>3.833333333333333</ele><time>2026-04-05T12:59:48.989Z</time></trkpt><trkpt lat="44.80062837269863" lon="12.268481781440736"><ele>4.0</ele><time>2026-04-05T12:59:49.989Z</time></trkpt><trkpt lat="44.80052469333737" lon="12.26855515955113"><ele>3.9999999999999996</ele><time>2026-04-05T12:59:51.989Z</time></trkpt><trkpt lat="44.80040794248726" lon="12.268640803025866"><ele>4.0</ele><time>2026-04-05T12:59:53.988Z</time></trkpt><trkpt lat="44.80034260983843" lon="12.268692533886163"><ele>4.0</ele><time>2026-04-05T12:59:54.988Z</time></trkpt><trkpt lat="44.800281835653216" lon="12.26873938343127"><ele>4.0</ele><time>2026-04-05T12:59:55.988Z</time></trkpt><trkpt lat="44.80021301592599" lon="12.268791170432003"><ele>3.9999999999999996</ele><time>2026-04-05T12:59:56.988Z</time></trkpt><trkpt lat="44.800153358098335" lon="12.268830630560029"><ele>4.0</ele><time>2026-04-05T12:59:57.988Z</time></trkpt><trkpt lat="44.79995884757636" lon="12.269013831787982"><ele>4.0</ele><time>2026-04-05T13:00:09.988Z</time></trkpt><trkpt lat="44.79982643076905" lon="12.269032603308089"><ele>4.0</ele><time>2026-04-05T13:00:11.988Z</time></trkpt><trkpt lat="44.79974514322504" lon="12.268974272133145"><ele>4.0</ele><time>2026-04-05T13:00:12.988Z</time></trkpt><trkpt lat="44.79967729353467" lon="12.268900330001859"><ele>4.0</ele><time>2026-04-05T13:00:13.988Z</time></trkpt><trkpt lat="44.799618836635425" lon="12.268839491284277"><ele>4.0</ele><time>2026-04-05T13:00:14.988Z</time></trkpt><trkpt lat="44.79956079032149" lon="12.26879120554348"><ele>4.0</ele><time>2026-04-05T13:00:15.988Z</time></trkpt><trkpt lat="44.79949485165964" lon="12.26873110982168"><ele>3.9999999999999996</ele><time>2026-04-05T13:00:16.988Z</time></trkpt><trkpt lat="44.79941974882693" lon="12.268686694077411"><ele>4.0</ele><time>2026-04-05T13:00:17.988Z</time></trkpt><trkpt lat="44.79935802384823" lon="12.268631487257057"><ele>4.0</ele><time>2026-04-05T13:00:18.988Z</time></trkpt><trkpt lat="44.79929730763779" lon="12.268586080671954"><ele>3.9999999999999996</ele><time>2026-04-05T13:00:19.988Z</time></trkpt><trkpt lat="44.799240072417035" lon="12.268541641256574"><ele>4.0</ele><time>2026-04-05T13:00:20.988Z</time></trkpt><trkpt lat="44.799182587678274" lon="12.26849670139201"><ele>4.0</ele><time>2026-04-05T13:00:21.988Z</time></trkpt><trkpt lat="44.79913088432262" lon="12.268444463611456"><ele>4.166666666666666</ele><time>2026-04-05T13:00:22.988Z</time></trkpt><trkpt lat="44.79906334996346" lon="12.268395399640182"><ele>4.333333333333333</ele><time>2026-04-05T13:00:23.988Z</time></trkpt><trkpt lat="44.798989319389285" lon="12.268346552882074"><ele>4.5</ele><time>2026-04-05T13:00:24.988Z</time></trkpt><trkpt lat="44.798911555330086" lon="12.26828554078586"><ele>4.666666666666667</ele><time>2026-04-05T13:00:25.988Z</time></trkpt><trkpt lat="44.79884212502689" lon="12.268240337014374"><ele>4.833333333333334</ele><time>2026-04-05T13:00:26.988Z</time></trkpt><trkpt lat="44.79878571988346" lon="12.268193851388634"><ele>5.0</ele><time>2026-04-05T13:00:27.988Z</time></trkpt><trkpt lat="44.798682652692165" lon="12.26810828619612"><ele>5.333333333333334</ele><time>2026-04-05T13:00:29.988Z</time></trkpt><trkpt lat="44.79863045283827" lon="12.268036165108626"><ele>5.666666666666667</ele><time>2026-04-05T13:00:30.988Z</time></trkpt><trkpt lat="44.798566549565656" lon="12.268011679037052"><ele>6.0</ele><time>2026-04-05T13:00:31.988Z</time></trkpt><trkpt lat="44.79851382144635" lon="12.26796000351932"><ele>6.333333333333334</ele><time>2026-04-05T13:00:32.988Z</time></trkpt><trkpt lat="44.79845763032297" lon="12.267914704900752"><ele>6.666666666666667</ele><time>2026-04-05T13:00:33.988Z</time></trkpt><trkpt lat="44.79839993101333" lon="12.26786541294199"><ele>7.0</ele><time>2026-04-05T13:00:34.988Z</time></trkpt><trkpt lat="44.79828061743017" lon="12.267763683555229"><ele>7.000000000000001</ele><time>2026-04-05T13:00:36.988Z</time></trkpt><trkpt lat="44.79821614348451" lon="12.267709568343657"><ele>7.0</ele><time>2026-04-05T13:00:37.988Z</time></trkpt><trkpt lat="44.79816370717921" lon="12.267657334914468"><ele>7.0</ele><time>2026-04-05T13:00:38.988Z</time></trkpt><trkpt lat="44.798066145506155" lon="12.267592295976842"><ele>7.0</ele><time>2026-04-05T13:00:40.988Z</time></trkpt><trkpt lat="44.797990362624624" lon="12.267536479062956"><ele>7.000000000000001</ele><time>2026-04-05T13:00:42.988Z</time></trkpt><trkpt lat="44.797907966560814" lon="12.267470793622573"><ele>7.0</ele><time>2026-04-05T13:00:44.988Z</time></trkpt><trkpt lat="44.79780717855582" lon="12.267404168536764"><ele>7.0</ele><time>2026-04-05T13:00:46.988Z</time></trkpt><trkpt lat="44.79768940453836" lon="12.267310398278083"><ele>6.999999999999999</ele><time>2026-04-05T13:00:48.988Z</time></trkpt><trkpt lat="44.79763760321146" lon="12.267252889113632"><ele>6.999999999999999</ele><time>2026-04-05T13:00:49.988Z</time></trkpt><trkpt lat="44.79754249574595" lon="12.267170133611431"><ele>7.0</ele><time>2026-04-05T13:00:51.988Z</time></trkpt><trkpt lat="44.797479166896906" lon="12.267126659071884"><ele>7.0</ele><time>2026-04-05T13:00:53.988Z</time></trkpt><trkpt lat="44.79739519017042" lon="12.26706195615891"><ele>7.166666666666667</ele><time>2026-04-05T13:00:55.988Z</time></trkpt><trkpt lat="44.797331939370615" lon="12.267019431541305"><ele>7.333333333333334</ele><time>2026-04-05T13:00:57.988Z</time></trkpt><trkpt lat="44.797261090001584" lon="12.26696539777113"><ele>7.5</ele><time>2026-04-05T13:01:02.988Z</time></trkpt><trkpt lat="44.79718889778707" lon="12.266921956937429"><ele>7.666666666666666</ele><time>2026-04-05T13:01:05.988Z</time></trkpt><trkpt lat="44.797107010304956" lon="12.266867584932436"><ele>7.833333333333333</ele><time>2026-04-05T13:01:07.988Z</time></trkpt><trkpt lat="44.79705641963149" lon="12.266803345489182"><ele>8.0</ele><time>2026-04-05T13:01:08.988Z</time></trkpt><trkpt lat="44.79699338239165" lon="12.266751509010835"><ele>7.999999999999999</ele><time>2026-04-05T13:01:09.988Z</time></trkpt><trkpt lat="44.79693254706087" lon="12.266695484989139"><ele>8.0</ele><time>2026-04-05T13:01:10.988Z</time></trkpt><trkpt lat="44.79686641007366" lon="12.266642318851867"><ele>8.0</ele><time>2026-04-05T13:01:11.988Z</time></trkpt><trkpt lat="44.796791229080654" lon="12.26658905875169"><ele>8.0</ele><time>2026-04-05T13:01:12.988Z</time></trkpt><trkpt lat="44.79673115651484" lon="12.266536298910887"><ele>7.999999999999999</ele><time>2026-04-05T13:01:13.988Z</time></trkpt><trkpt lat="44.7966314405087" lon="12.266434177505344"><ele>8.0</ele><time>2026-04-05T13:01:15.987Z</time></trkpt><trkpt lat="44.79652701034085" lon="12.266338200371228"><ele>8.200000000000001</ele><time>2026-04-05T13:01:17.987Z</time></trkpt><trkpt lat="44.79646907226009" lon="12.266290451275704"><ele>8.4</ele><time>2026-04-05T13:01:18.987Z</time></trkpt><trkpt lat="44.79640024916817" lon="12.266223047131849"><ele>8.600000000000001</ele><time>2026-04-05T13:01:19.987Z</time></trkpt><trkpt lat="44.7963066800112" lon="12.266157953333439"><ele>8.8</ele><time>2026-04-05T13:01:20.987Z</time></trkpt><trkpt lat="44.79621155178353" lon="12.266101344360212"><ele>9.0</ele><time>2026-04-05T13:01:21.987Z</time></trkpt><trkpt lat="44.79610995510851" lon="12.266025782729525"><ele>9.0</ele><time>2026-04-05T13:01:22.987Z</time></trkpt><trkpt lat="44.79601240211777" lon="12.265945152257713"><ele>9.0</ele><time>2026-04-05T13:01:23.987Z</time></trkpt><trkpt lat="44.79590784713844" lon="12.265850169396908"><ele>9.0</ele><time>2026-04-05T13:01:24.987Z</time></trkpt><trkpt lat="44.79580814800144" lon="12.265762673736559"><ele>9.0</ele><time>2026-04-05T13:01:25.987Z</time></trkpt><trkpt lat="44.79571744276181" lon="12.265684403124915"><ele>8.8</ele><time>2026-04-05T13:01:26.987Z</time></trkpt><trkpt lat="44.795631476945374" lon="12.26560133014895"><ele>8.600000000000001</ele><time>2026-04-05T13:01:27.987Z</time></trkpt><trkpt lat="44.795555449474826" lon="12.265530844186419"><ele>8.4</ele><time>2026-04-05T13:01:28.987Z</time></trkpt><trkpt lat="44.7954737848381" lon="12.265466669941581"><ele>8.200000000000001</ele><time>2026-04-05T13:01:29.987Z</time></trkpt><trkpt lat="44.795392396760235" lon="12.265411612419937"><ele>8.0</ele><time>2026-04-05T13:01:30.987Z</time></trkpt><trkpt lat="44.79532032639856" lon="12.265345313204394"><ele>7.999999999999999</ele><time>2026-04-05T13:01:31.987Z</time></trkpt><trkpt lat="44.795242761795855" lon="12.265283619412134"><ele>8.0</ele><time>2026-04-05T13:01:32.987Z</time></trkpt><trkpt lat="44.7951668424677" lon="12.265222104268778"><ele>8.0</ele><time>2026-04-05T13:01:33.987Z</time></trkpt><trkpt lat="44.79509357572217" lon="12.26515810193284"><ele>8.0</ele><time>2026-04-05T13:01:34.987Z</time></trkpt><trkpt lat="44.79502301655642" lon="12.265088731159631"><ele>7.999999999999999</ele><time>2026-04-05T13:01:35.987Z</time></trkpt><trkpt lat="44.79494384744721" lon="12.26503021694859"><ele>8.0</ele><time>2026-04-05T13:01:36.987Z</time></trkpt><trkpt lat="44.79486347422253" lon="12.264974125266555"><ele>7.833333333333333</ele><time>2026-04-05T13:01:37.987Z</time></trkpt><trkpt lat="44.79478359499336" lon="12.264925554041037"><ele>7.666666666666666</ele><time>2026-04-05T13:01:38.987Z</time></trkpt><trkpt lat="44.79471064332649" lon="12.264883657299112"><ele>7.5</ele><time>2026-04-05T13:01:39.987Z</time></trkpt><trkpt lat="44.79462642288449" lon="12.264836070417022"><ele>7.333333333333334</ele><time>2026-04-05T13:01:40.987Z</time></trkpt><trkpt lat="44.79453776536693" lon="12.264787090993124"><ele>7.166666666666667</ele><time>2026-04-05T13:01:41.987Z</time></trkpt><trkpt lat="44.79445585203975" lon="12.264738121832364"><ele>7.0</ele><time>2026-04-05T13:01:42.987Z</time></trkpt><trkpt lat="44.79436835772742" lon="12.264697889977363"><ele>7.166666666666667</ele><time>2026-04-05T13:01:43.987Z</time></trkpt><trkpt lat="44.79429986924414" lon="12.264658001287053"><ele>7.333333333333334</ele><time>2026-04-05T13:01:44.987Z</time></trkpt><trkpt lat="44.794235897775465" lon="12.264615210525859"><ele>7.5</ele><time>2026-04-05T13:01:45.987Z</time></trkpt><trkpt lat="44.79417025062033" lon="12.264586940459871"><ele>7.666666666666666</ele><time>2026-04-05T13:01:46.987Z</time></trkpt><trkpt lat="44.7941126237272" lon="12.26454222460788"><ele>7.833333333333333</ele><time>2026-04-05T13:01:47.987Z</time></trkpt><trkpt lat="44.79399531536041" lon="12.264459017096929"><ele>8.0</ele><time>2026-04-05T13:01:49.987Z</time></trkpt><trkpt lat="44.79392263516947" lon="12.264424972845768"><ele>7.999999999999999</ele><time>2026-04-05T13:01:50.987Z</time></trkpt><trkpt lat="44.79385580582565" lon="12.264374990616536"><ele>8.0</ele><time>2026-04-05T13:01:51.987Z</time></trkpt><trkpt lat="44.793789721717694" lon="12.264333943128849"><ele>8.0</ele><time>2026-04-05T13:01:52.987Z</time></trkpt><trkpt lat="44.793721892285895" lon="12.264307620354344"><ele>8.0</ele><time>2026-04-05T13:01:53.987Z</time></trkpt><trkpt lat="44.79364405844479" lon="12.264262036515872"><ele>7.999999999999999</ele><time>2026-04-05T13:01:54.987Z</time></trkpt><trkpt lat="44.793610037277325" lon="12.264132756784884"><ele>8.0</ele><time>2026-04-05T13:01:55.987Z</time></trkpt><trkpt lat="44.79354644275279" lon="12.264089974465765"><ele>7.999999999999999</ele><time>2026-04-05T13:01:56.987Z</time></trkpt><trkpt lat="44.79344289292626" lon="12.264084384987072"><ele>8.0</ele><time>2026-04-05T13:01:58.987Z</time></trkpt><trkpt lat="44.79335275372384" lon="12.264023540224793"><ele>8.0</ele><time>2026-04-05T13:02:00.987Z</time></trkpt><trkpt lat="44.79327113897792" lon="12.263971573443714"><ele>8.0</ele><time>2026-04-05T13:02:02.987Z</time></trkpt><trkpt lat="44.79320493978262" lon="12.263934225401629"><ele>7.999999999999999</ele><time>2026-04-05T13:02:04.987Z</time></trkpt><trkpt lat="44.79313021255234" lon="12.263878220666184"><ele>8.0</ele><time>2026-04-05T13:02:06.987Z</time></trkpt><trkpt lat="44.79306970727055" lon="12.263837979631921"><ele>8.0</ele><time>2026-04-05T13:02:07.987Z</time></trkpt><trkpt lat="44.79299079626066" lon="12.263814254656824"><ele>8.0</ele><time>2026-04-05T13:02:08.987Z</time></trkpt><trkpt lat="44.79291829686515" lon="12.263780112047193"><ele>8.0</ele><time>2026-04-05T13:02:09.987Z</time></trkpt><trkpt lat="44.79289199160385" lon="12.263690723071493"><ele>8.0</ele><time>2026-04-05T13:02:10.987Z</time></trkpt><trkpt lat="44.79280928575366" lon="12.263636747956106"><ele>8.0</ele><time>2026-04-05T13:02:12.987Z</time></trkpt><trkpt lat="44.792675424571115" lon="12.263551209732189"><ele>8.200000000000001</ele><time>2026-04-05T13:02:14.987Z</time></trkpt><trkpt lat="44.79258054621728" lon="12.263491213615369"><ele>8.4</ele><time>2026-04-05T13:02:15.987Z</time></trkpt><trkpt lat="44.79249251156725" lon="12.263435522562341"><ele>8.600000000000001</ele><time>2026-04-05T13:02:16.987Z</time></trkpt><trkpt lat="44.79238594821519" lon="12.263369920438803"><ele>8.8</ele><time>2026-04-05T13:02:17.987Z</time></trkpt><trkpt lat="44.79228403502597" lon="12.263309044123863"><ele>9.0</ele><time>2026-04-05T13:02:18.987Z</time></trkpt><trkpt lat="44.792176827092774" lon="12.263247362796601"><ele>9.0</ele><time>2026-04-05T13:02:19.987Z</time></trkpt><trkpt lat="44.792067163057794" lon="12.263185839378162"><ele>9.0</ele><time>2026-04-05T13:02:20.987Z</time></trkpt><trkpt lat="44.79198170696221" lon="12.26313936447889"><ele>9.0</ele><time>2026-04-05T13:02:21.987Z</time></trkpt><trkpt lat="44.7918962315706" lon="12.263092926527893"><ele>9.0</ele><time>2026-04-05T13:02:22.987Z</time></trkpt><trkpt lat="44.7918191673009" lon="12.263051058180526"><ele>9.0</ele><time>2026-04-05T13:02:23.987Z</time></trkpt><trkpt lat="44.791754060884934" lon="12.263015686358324"><ele>8.833333333333334</ele><time>2026-04-05T13:02:24.987Z</time></trkpt><trkpt lat="44.791651248348295" lon="12.262960276735816"><ele>8.666666666666666</ele><time>2026-04-05T13:02:26.987Z</time></trkpt><trkpt lat="44.791592096409154" lon="12.262929607085896"><ele>8.5</ele><time>2026-04-05T13:02:27.987Z</time></trkpt><trkpt lat="44.79150411313283" lon="12.2629237585988"><ele>8.333333333333332</ele><time>2026-04-05T13:02:29.987Z</time></trkpt><trkpt lat="44.7914271129651" lon="12.262900342671177"><ele>8.166666666666666</ele><time>2026-04-05T13:02:31.987Z</time></trkpt><trkpt lat="44.79133923033829" lon="12.262842976254799"><ele>8.0</ele><time>2026-04-05T13:02:33.987Z</time></trkpt><trkpt lat="44.79126702534429" lon="12.26281619131105"><ele>8.0</ele><time>2026-04-05T13:02:35.987Z</time></trkpt><trkpt lat="44.79118480943409" lon="12.262806851500619"><ele>8.0</ele><time>2026-04-05T13:02:38.986Z</time></trkpt><trkpt lat="44.79111150635432" lon="12.262782978263308"><ele>8.0</ele><time>2026-04-05T13:02:41.986Z</time></trkpt><trkpt lat="44.79105910240197" lon="12.262656862832896"><ele>8.0</ele><time>2026-04-05T13:03:09.986Z</time></trkpt><trkpt lat="44.791266310257846" lon="12.262656579392237"><ele>7.999999999999999</ele><time>2026-04-05T13:03:17.986Z</time></trkpt><trkpt lat="44.79133857527688" lon="12.262672169004482"><ele>8.0</ele><time>2026-04-05T13:03:19.986Z</time></trkpt><trkpt lat="44.79141230544688" lon="12.262691192097126"><ele>8.0</ele><time>2026-04-05T13:03:22.986Z</time></trkpt><trkpt lat="44.791502854460525" lon="12.26271904449961"><ele>8.0</ele><time>2026-04-05T13:03:25.986Z</time></trkpt><trkpt lat="44.79159440820062" lon="12.262750958281051"><ele>7.999999999999999</ele><time>2026-04-05T13:03:28.986Z</time></trkpt><trkpt lat="44.79169584638944" lon="12.262802142013491"><ele>8.0</ele><time>2026-04-05T13:03:30.986Z</time></trkpt><trkpt lat="44.79178406040294" lon="12.262845220074354"><ele>8.200000000000001</ele><time>2026-04-05T13:03:31.986Z</time></trkpt><trkpt lat="44.79187322321498" lon="12.262894728284925"><ele>8.4</ele><time>2026-04-05T13:03:32.986Z</time></trkpt><trkpt lat="44.79197873393837" lon="12.262964728956455"><ele>8.600000000000001</ele><time>2026-04-05T13:03:33.986Z</time></trkpt><trkpt lat="44.79207339113774" lon="12.263010767795533"><ele>8.8</ele><time>2026-04-05T13:03:34.986Z</time></trkpt><trkpt lat="44.79216286947637" lon="12.263066081595968"><ele>9.0</ele><time>2026-04-05T13:03:35.986Z</time></trkpt><trkpt lat="44.7922504344697" lon="12.263129487103273"><ele>9.0</ele><time>2026-04-05T13:03:36.986Z</time></trkpt><trkpt lat="44.79233889374398" lon="12.263195100931272"><ele>9.0</ele><time>2026-04-05T13:03:37.986Z</time></trkpt><trkpt lat="44.79243187974058" lon="12.263253479714697"><ele>9.0</ele><time>2026-04-05T13:03:38.986Z</time></trkpt><trkpt lat="44.79252798869179" lon="12.263315314181952"><ele>9.0</ele><time>2026-04-05T13:03:39.986Z</time></trkpt><trkpt lat="44.792613969760765" lon="12.263394674380818"><ele>9.0</ele><time>2026-04-05T13:03:40.986Z</time></trkpt><trkpt lat="44.792720846338675" lon="12.263450944232101"><ele>8.75</ele><time>2026-04-05T13:03:41.986Z</time></trkpt><trkpt lat="44.79282567123709" lon="12.26351125997008"><ele>8.5</ele><time>2026-04-05T13:03:42.986Z</time></trkpt><trkpt lat="44.79293023028679" lon="12.263567712794039"><ele>8.25</ele><time>2026-04-05T13:03:43.986Z</time></trkpt><trkpt lat="44.79304343276786" lon="12.263657008785747"><ele>8.0</ele><time>2026-04-05T13:03:44.986Z</time></trkpt><trkpt lat="44.79315651803066" lon="12.26375367542573"><ele>8.0</ele><time>2026-04-05T13:03:45.999Z</time></trkpt><trkpt lat="44.7932693778264" lon="12.263845411489886"><ele>8.0</ele><time>2026-04-05T13:03:46.999Z</time></trkpt><trkpt lat="44.793382346128055" lon="12.263932869771205"><ele>8.0</ele><time>2026-04-05T13:03:47.999Z</time></trkpt><trkpt lat="44.793508061677514" lon="12.263996983842725"><ele>8.0</ele><time>2026-04-05T13:03:48.999Z</time></trkpt><trkpt lat="44.793617738126215" lon="12.26406278969396"><ele>8.0</ele><time>2026-04-05T13:03:49.999Z</time></trkpt><trkpt lat="44.793723041989985" lon="12.26414365175046"><ele>8.0</ele><time>2026-04-05T13:03:50.999Z</time></trkpt><trkpt lat="44.79384167791848" lon="12.26421863041899"><ele>8.0</ele><time>2026-04-05T13:03:51.999Z</time></trkpt><trkpt lat="44.793947120464175" lon="12.264281659174078"><ele>8.0</ele><time>2026-04-05T13:03:52.999Z</time></trkpt><trkpt lat="44.79405121949626" lon="12.264359889321067"><ele>8.0</ele><time>2026-04-05T13:03:53.999Z</time></trkpt><trkpt lat="44.79416049511203" lon="12.26444289951915"><ele>8.0</ele><time>2026-04-05T13:03:54.999Z</time></trkpt><trkpt lat="44.794269622947944" lon="12.264527436579296"><ele>8.0</ele><time>2026-04-05T13:03:55.999Z</time></trkpt><trkpt lat="44.794382476567996" lon="12.264608490283825"><ele>8.0</ele><time>2026-04-05T13:03:56.999Z</time></trkpt><trkpt lat="44.79449114306205" lon="12.26468087612455"><ele>8.25</ele><time>2026-04-05T13:03:57.999Z</time></trkpt><trkpt lat="44.794606732088305" lon="12.264745632013934"><ele>8.5</ele><time>2026-04-05T13:03:58.999Z</time></trkpt><trkpt lat="44.79472619070574" lon="12.26482039179329"><ele>8.75</ele><time>2026-04-05T13:03:59.999Z</time></trkpt><trkpt lat="44.79484997108342" lon="12.26490144632866"><ele>9.0</ele><time>2026-04-05T13:04:00.999Z</time></trkpt><trkpt lat="44.79493418330334" lon="12.26505597291156"><ele>8.75</ele><time>2026-04-05T13:04:01.999Z</time></trkpt><trkpt lat="44.79505827799999" lon="12.26515311869774"><ele>8.5</ele><time>2026-04-05T13:04:02.999Z</time></trkpt><trkpt lat="44.79518225773796" lon="12.265252615614614"><ele>8.25</ele><time>2026-04-05T13:04:03.999Z</time></trkpt><trkpt lat="44.79530797026778" lon="12.26535546174943"><ele>8.0</ele><time>2026-04-05T13:04:04.999Z</time></trkpt><trkpt lat="44.79542834110236" lon="12.265454340167278"><ele>8.0</ele><time>2026-04-05T13:04:05.999Z</time></trkpt><trkpt lat="44.79554555594788" lon="12.265550626063458"><ele>8.0</ele><time>2026-04-05T13:04:06.999Z</time></trkpt><trkpt lat="44.79566528440834" lon="12.265650586998547"><ele>8.0</ele><time>2026-04-05T13:04:07.999Z</time></trkpt><trkpt lat="44.79577976538643" lon="12.265746597455246"><ele>8.0</ele><time>2026-04-05T13:04:08.999Z</time></trkpt><trkpt lat="44.79589819663779" lon="12.265820305161556"><ele>8.25</ele><time>2026-04-05T13:04:09.999Z</time></trkpt><trkpt lat="44.79598881385385" lon="12.265935034944768"><ele>8.5</ele><time>2026-04-05T13:04:10.999Z</time></trkpt><trkpt lat="44.79609529510993" lon="12.26602039775065"><ele>8.75</ele><time>2026-04-05T13:04:11.999Z</time></trkpt><trkpt lat="44.79620229604618" lon="12.266099502002684"><ele>9.0</ele><time>2026-04-05T13:04:12.999Z</time></trkpt><trkpt lat="44.79630114656683" lon="12.266175611498484"><ele>9.0</ele><time>2026-04-05T13:04:13.999Z</time></trkpt><trkpt lat="44.79640116489685" lon="12.266263173144052"><ele>9.0</ele><time>2026-04-05T13:04:14.999Z</time></trkpt><trkpt lat="44.7965046883944" lon="12.266347902048977"><ele>9.0</ele><time>2026-04-05T13:04:15.999Z</time></trkpt><trkpt lat="44.79662131405969" lon="12.266443354305986"><ele>9.0</ele><time>2026-04-05T13:04:16.999Z</time></trkpt><trkpt lat="44.796738948373545" lon="12.266525521765452"><ele>8.75</ele><time>2026-04-05T13:04:17.999Z</time></trkpt><trkpt lat="44.79684963440387" lon="12.266621047627837"><ele>8.5</ele><time>2026-04-05T13:04:18.998Z</time></trkpt><trkpt lat="44.796957490332034" lon="12.266705906687099"><ele>8.25</ele><time>2026-04-05T13:04:19.998Z</time></trkpt><trkpt lat="44.79706871711194" lon="12.266791019867753"><ele>8.0</ele><time>2026-04-05T13:04:20.998Z</time></trkpt><trkpt lat="44.79717113386318" lon="12.26687256105827"><ele>8.0</ele><time>2026-04-05T13:04:21.998Z</time></trkpt><trkpt lat="44.79727736041921" lon="12.266966396353011"><ele>8.0</ele><time>2026-04-05T13:04:22.998Z</time></trkpt><trkpt lat="44.797380486089274" lon="12.267053461396525"><ele>8.0</ele><time>2026-04-05T13:04:23.998Z</time></trkpt><trkpt lat="44.79748399137889" lon="12.267138278307398"><ele>8.0</ele><time>2026-04-05T13:04:24.998Z</time></trkpt><trkpt lat="44.797587003043624" lon="12.267221532119903"><ele>7.75</ele><time>2026-04-05T13:04:25.998Z</time></trkpt><trkpt lat="44.79768514707647" lon="12.26730033341385"><ele>7.5</ele><time>2026-04-05T13:04:26.998Z</time></trkpt><trkpt lat="44.79778954489779" lon="12.267381459186304"><ele>7.25</ele><time>2026-04-05T13:04:27.998Z</time></trkpt><trkpt lat="44.797889679489664" lon="12.267455813937488"><ele>7.0</ele><time>2026-04-05T13:04:28.998Z</time></trkpt><trkpt lat="44.797977279091086" lon="12.26755519729195"><ele>7.0</ele><time>2026-04-05T13:04:29.998Z</time></trkpt><trkpt lat="44.798070170608064" lon="12.267630144897188"><ele>6.999999999999999</ele><time>2026-04-05T13:04:30.998Z</time></trkpt><trkpt lat="44.79816387258522" lon="12.26770127321145"><ele>6.999999999999999</ele><time>2026-04-05T13:04:31.998Z</time></trkpt><trkpt lat="44.798255454483076" lon="12.267771947198247"><ele>7.0</ele><time>2026-04-05T13:04:32.999Z</time></trkpt><trkpt lat="44.798349175985365" lon="12.267851867392965"><ele>7.0</ele><time>2026-04-05T13:04:34Z</time></trkpt><trkpt lat="44.79843550697459" lon="12.267922986833147"><ele>7.3999999999999995</ele><time>2026-04-05T13:04:35Z</time></trkpt><trkpt lat="44.79852098961421" lon="12.267990565673374"><ele>7.799999999999999</ele><time>2026-04-05T13:04:35.999Z</time></trkpt><trkpt lat="44.79860578645966" lon="12.268053546861713"><ele>8.2</ele><time>2026-04-05T13:04:36.999Z</time></trkpt><trkpt lat="44.79869018569149" lon="12.268121690329936"><ele>8.6</ele><time>2026-04-05T13:04:37.999Z</time></trkpt><trkpt lat="44.79877496190755" lon="12.268188247852112"><ele>9.0</ele><time>2026-04-05T13:04:38.999Z</time></trkpt><trkpt lat="44.798851088190155" lon="12.268276418864076"><ele>8.2</ele><time>2026-04-05T13:04:40Z</time></trkpt><trkpt lat="44.79893145260623" lon="12.26834000236313"><ele>7.4</ele><time>2026-04-05T13:04:41Z</time></trkpt><trkpt lat="44.79901299936" lon="12.268406914307485"><ele>6.6</ele><time>2026-04-05T13:04:41.999Z</time></trkpt><trkpt lat="44.79909988092597" lon="12.268473369552254"><ele>5.8</ele><time>2026-04-05T13:04:42.999Z</time></trkpt><trkpt lat="44.79917992153537" lon="12.268539582157619"><ele>5.0</ele><time>2026-04-05T13:04:43.999Z</time></trkpt><trkpt lat="44.799263143644104" lon="12.268600453563876"><ele>5.0</ele><time>2026-04-05T13:04:44.999Z</time></trkpt><trkpt lat="44.799331605967694" lon="12.268678007480762"><ele>5.0</ele><time>2026-04-05T13:04:45.999Z</time></trkpt><trkpt lat="44.79940917545563" lon="12.268746524154597"><ele>5.0</ele><time>2026-04-05T13:04:46.999Z</time></trkpt><trkpt lat="44.79947857564953" lon="12.268808544283736"><ele>5.0</ele><time>2026-04-05T13:04:47.999Z</time></trkpt><trkpt lat="44.79954495906866" lon="12.268866228068076"><ele>5.0</ele><time>2026-04-05T13:04:48.999Z</time></trkpt><trkpt lat="44.79960151228853" lon="12.268914126262796"><ele>5.0</ele><time>2026-04-05T13:04:49.999Z</time></trkpt><trkpt lat="44.79966854533489" lon="12.268940470595197"><ele>4.8</ele><time>2026-04-05T13:04:50.999Z</time></trkpt><trkpt lat="44.79972443495047" lon="12.269003786405452"><ele>4.6</ele><time>2026-04-05T13:04:51.999Z</time></trkpt><trkpt lat="44.79982033251142" lon="12.269082779369548"><ele>4.4</ele><time>2026-04-05T13:04:53.999Z</time></trkpt><trkpt lat="44.79995841808079" lon="12.268987102944257"><ele>4.2</ele><time>2026-04-05T13:04:55.999Z</time></trkpt><trkpt lat="44.8000127814267" lon="12.26893894411463"><ele>4.0</ele><time>2026-04-05T13:04:56.999Z</time></trkpt><trkpt lat="44.80010860022888" lon="12.268869755465937"><ele>4.0</ele><time>2026-04-05T13:04:58.999Z</time></trkpt><trkpt lat="44.80019671739773" lon="12.268802360614696"><ele>4.0</ele><time>2026-04-05T13:05:00.999Z</time></trkpt><trkpt lat="44.800286653381654" lon="12.2687335748593"><ele>4.0</ele><time>2026-04-05T13:05:02.999Z</time></trkpt><trkpt lat="44.800384860348856" lon="12.268658463086673"><ele>4.0</ele><time>2026-04-05T13:05:04.999Z</time></trkpt><trkpt lat="44.80048364409573" lon="12.268582910129567"><ele>4.0</ele><time>2026-04-05T13:05:06.999Z</time></trkpt><trkpt lat="44.80054129512815" lon="12.268538816955733"><ele>4.0</ele><time>2026-04-05T13:05:07.999Z</time></trkpt><trkpt lat="44.8006149926353" lon="12.26848245243529"><ele>4.0</ele><time>2026-04-05T13:05:08.999Z</time></trkpt><trkpt lat="44.80070232993874" lon="12.268415654198455"><ele>4.0</ele><time>2026-04-05T13:05:09.999Z</time></trkpt><trkpt lat="44.80081422617279" lon="12.268330072454246"><ele>4.0</ele><time>2026-04-05T13:05:10.999Z</time></trkpt><trkpt lat="44.80092476072583" lon="12.26822528517312"><ele>4.0</ele><time>2026-04-05T13:05:11.999Z</time></trkpt><trkpt lat="44.80104379885045" lon="12.268148631226033"><ele>3.75</ele><time>2026-04-05T13:05:12.999Z</time></trkpt><trkpt lat="44.80116553412893" lon="12.26806021994014"><ele>3.5</ele><time>2026-04-05T13:05:13.999Z</time></trkpt><trkpt lat="44.80129027708901" lon="12.267962672528549"><ele>3.25</ele><time>2026-04-05T13:05:14.999Z</time></trkpt><trkpt lat="44.80141702498084" lon="12.26786678152535"><ele>3.0</ele><time>2026-04-05T13:05:15.999Z</time></trkpt><trkpt lat="44.80154082830449" lon="12.267764060020227"><ele>3.0</ele><time>2026-04-05T13:05:16.999Z</time></trkpt><trkpt lat="44.80166935068248" lon="12.267668705373534"><ele>3.0</ele><time>2026-04-05T13:05:17.999Z</time></trkpt><trkpt lat="44.80179648076596" lon="12.267572312627173"><ele>3.0</ele><time>2026-04-05T13:05:18.999Z</time></trkpt><trkpt lat="44.80192816714995" lon="12.267477046735127"><ele>3.0</ele><time>2026-04-05T13:05:19.999Z</time></trkpt><trkpt lat="44.8020543524208" lon="12.267382048571033"><ele>3.25</ele><time>2026-04-05T13:05:20.999Z</time></trkpt><trkpt lat="44.80217523076091" lon="12.267283053390402"><ele>3.5</ele><time>2026-04-05T13:05:21.999Z</time></trkpt><trkpt lat="44.80229573012921" lon="12.267190036070291"><ele>3.75</ele><time>2026-04-05T13:05:22.999Z</time></trkpt><trkpt lat="44.802411095354486" lon="12.267095457454893"><ele>4.0</ele><time>2026-04-05T13:05:23.999Z</time></trkpt><trkpt lat="44.802527830450934" lon="12.267005701447953"><ele>3.5</ele><time>2026-04-05T13:05:24.999Z</time></trkpt><trkpt lat="44.80263957570888" lon="12.266915078104502"><ele>3.0</ele><time>2026-04-05T13:05:25.999Z</time></trkpt><trkpt lat="44.80274586689229" lon="12.266829291510597"><ele>2.5</ele><time>2026-04-05T13:05:26.999Z</time></trkpt><trkpt lat="44.80284998201024" lon="12.266774087093607"><ele>2.0</ele><time>2026-04-05T13:05:27.999Z</time></trkpt><trkpt lat="44.80294226203392" lon="12.266705669262162"><ele>1.8333333333333333</ele><time>2026-04-05T13:05:28.999Z</time></trkpt><trkpt lat="44.80302656502811" lon="12.266643165799138"><ele>1.6666666666666665</ele><time>2026-04-05T13:05:29.999Z</time></trkpt><trkpt lat="44.803083063976445" lon="12.266566627496935"><ele>1.5</ele><time>2026-04-05T13:05:30.999Z</time></trkpt><trkpt lat="44.803139500477194" lon="12.266513000707722"><ele>1.3333333333333333</ele><time>2026-04-05T13:05:31.999Z</time></trkpt><trkpt lat="44.80318457509391" lon="12.26644123494558"><ele>1.1666666666666665</ele><time>2026-04-05T13:05:32.999Z</time></trkpt><trkpt lat="44.8032247638364" lon="12.266333021902284"><ele>1.0</ele><time>2026-04-05T13:05:33.999Z</time></trkpt><trkpt lat="44.803248338122216" lon="12.266191310942318"><ele>0.75</ele><time>2026-04-05T13:05:34.999Z</time></trkpt><trkpt lat="44.803289969701886" lon="12.266033933110156"><ele>0.5</ele><time>2026-04-05T13:05:35.999Z</time></trkpt><trkpt lat="44.80331949275992" lon="12.265850228714077"><ele>0.25</ele><time>2026-04-05T13:05:36.999Z</time></trkpt><trkpt lat="44.80335170373041" lon="12.265656130740963"><ele>0.0</ele><time>2026-04-05T13:05:37.999Z</time></trkpt><trkpt lat="44.80338694543012" lon="12.265448232016396"><ele>0.0</ele><time>2026-04-05T13:05:38.999Z</time></trkpt><trkpt lat="44.803422310719974" lon="12.265239604079179"><ele>0.0</ele><time>2026-04-05T13:05:39.999Z</time></trkpt><trkpt lat="44.80345429324592" lon="12.265047847371102"><ele>0.0</ele><time>2026-04-05T13:05:40.999Z</time></trkpt><trkpt lat="44.80348346962948" lon="12.264850089551775"><ele>0.0</ele><time>2026-04-05T13:05:41.999Z</time></trkpt><trkpt lat="44.80350237350466" lon="12.2646457956823"><ele>0.0</ele><time>2026-04-05T13:05:42.999Z</time></trkpt><trkpt lat="44.8034967576937" lon="12.264456608792967"><ele>0.0</ele><time>2026-04-05T13:05:43.999Z</time></trkpt><trkpt lat="44.80345750420116" lon="12.264279667502157"><ele>0.0</ele><time>2026-04-05T13:05:44.999Z</time></trkpt><trkpt lat="44.80343460813583" lon="12.264098461336228"><ele>0.0</ele><time>2026-04-05T13:05:45.999Z</time></trkpt><trkpt lat="44.80339906601903" lon="12.263925937133108"><ele>0.25</ele><time>2026-04-05T13:05:46.999Z</time></trkpt><trkpt lat="44.80336355500848" lon="12.26376604720599"><ele>0.5</ele><time>2026-04-05T13:05:47.999Z</time></trkpt><trkpt lat="44.80333198096123" lon="12.263609473066085"><ele>0.75</ele><time>2026-04-05T13:05:48.999Z</time></trkpt><trkpt lat="44.803307775043926" lon="12.263452640056776"><ele>1.0</ele><time>2026-04-05T13:05:49.998Z</time></trkpt><trkpt lat="44.803266687957255" lon="12.263314091085826"><ele>1.0</ele><time>2026-04-05T13:05:50.998Z</time></trkpt><trkpt lat="44.8032495148339" lon="12.263151677971194"><ele>1.0</ele><time>2026-04-05T13:05:51.998Z</time></trkpt><trkpt lat="44.8032170923466" lon="12.262994074977838"><ele>1.0</ele><time>2026-04-05T13:05:52.998Z</time></trkpt><trkpt lat="44.8031849495249" lon="12.262840489640972"><ele>1.0</ele><time>2026-04-05T13:05:53.998Z</time></trkpt><trkpt lat="44.803153541249635" lon="12.262683478324695"><ele>0.75</ele><time>2026-04-05T13:05:54.998Z</time></trkpt><trkpt lat="44.80312204814115" lon="12.262522379864478"><ele>0.5</ele><time>2026-04-05T13:05:55.998Z</time></trkpt><trkpt lat="44.803089551298164" lon="12.262362571407612"><ele>0.25</ele><time>2026-04-05T13:05:56.998Z</time></trkpt><trkpt lat="44.80305637615421" lon="12.262208872739157"><ele>0.0</ele><time>2026-04-05T13:05:57.998Z</time></trkpt><trkpt lat="44.80303048894716" lon="12.262060008488639"><ele>0.0</ele><time>2026-04-05T13:05:58.998Z</time></trkpt><trkpt lat="44.80301045904285" lon="12.261916734143599"><ele>0.0</ele><time>2026-04-05T13:05:59.998Z</time></trkpt><trkpt lat="44.80298410298371" lon="12.261791134828226"><ele>0.0</ele><time>2026-04-05T13:06:00.998Z</time></trkpt><trkpt lat="44.80300034748258" lon="12.261672682191765"><ele>0.0</ele><time>2026-04-05T13:06:01.998Z</time></trkpt><trkpt lat="44.80292248956337" lon="12.26154740791522"><ele>0.0</ele><time>2026-04-05T13:06:02.998Z</time></trkpt><trkpt lat="44.80289498320735" lon="12.261407518174968"><ele>0.0</ele><time>2026-04-05T13:06:03.998Z</time></trkpt><trkpt lat="44.80285766444995" lon="12.26125827666948"><ele>0.0</ele><time>2026-04-05T13:06:04.998Z</time></trkpt><trkpt lat="44.80281496337551" lon="12.261092476144556"><ele>0.0</ele><time>2026-04-05T13:06:05.998Z</time></trkpt><trkpt lat="44.80279759410735" lon="12.260903183660739"><ele>0.0</ele><time>2026-04-05T13:06:06.998Z</time></trkpt><trkpt lat="44.80274494382391" lon="12.260719463409206"><ele>0.25</ele><time>2026-04-05T13:06:07.998Z</time></trkpt><trkpt lat="44.80273341151939" lon="12.260508467458198"><ele>0.5</ele><time>2026-04-05T13:06:08.998Z</time></trkpt><trkpt lat="44.80271027046581" lon="12.260321195847169"><ele>0.75</ele><time>2026-04-05T13:06:09.998Z</time></trkpt><trkpt lat="44.80269304249761" lon="12.26014958183108"><ele>1.0</ele><time>2026-04-05T13:06:10.998Z</time></trkpt><trkpt lat="44.802684663786295" lon="12.259999150996418"><ele>1.0</ele><time>2026-04-05T13:06:11.998Z</time></trkpt><trkpt lat="44.802694680385635" lon="12.259847590197372"><ele>1.0</ele><time>2026-04-05T13:06:12.998Z</time></trkpt><trkpt lat="44.80268134830471" lon="12.25971147874679"><ele>1.0</ele><time>2026-04-05T13:06:13.998Z</time></trkpt><trkpt lat="44.8026060022487" lon="12.259588100169227"><ele>1.0</ele><time>2026-04-05T13:06:14.998Z</time></trkpt><trkpt lat="44.802540588900236" lon="12.259483480257503"><ele>1.0</ele><time>2026-04-05T13:06:15.998Z</time></trkpt><trkpt lat="44.80245336212869" lon="12.25939574395589"><ele>0.75</ele><time>2026-04-05T13:06:16.998Z</time></trkpt><trkpt lat="44.80235046746316" lon="12.259331501611141"><ele>0.5</ele><time>2026-04-05T13:06:17.998Z</time></trkpt><trkpt lat="44.80223515019785" lon="12.259289439425215"><ele>0.25</ele><time>2026-04-05T13:06:18.998Z</time></trkpt><trkpt lat="44.80210083552709" lon="12.259277359033707"><ele>0.0</ele><time>2026-04-05T13:06:19.998Z</time></trkpt><trkpt lat="44.80194861929301" lon="12.259276590263731"><ele>0.0</ele><time>2026-04-05T13:06:20.998Z</time></trkpt><trkpt lat="44.80178001955737" lon="12.259278761359896"><ele>0.0</ele><time>2026-04-05T13:06:21.998Z</time></trkpt><trkpt lat="44.801594949198545" lon="12.25927072898635"><ele>0.0</ele><time>2026-04-05T13:06:22.998Z</time></trkpt><trkpt lat="44.80141408330213" lon="12.25926838957074"><ele>0.0</ele><time>2026-04-05T13:06:23.998Z</time></trkpt><trkpt lat="44.80122864285938" lon="12.25926541992086"><ele>0.0</ele><time>2026-04-05T13:06:24.998Z</time></trkpt><trkpt lat="44.801041352075025" lon="12.259262054270517"><ele>0.0</ele><time>2026-04-05T13:06:25.998Z</time></trkpt><trkpt lat="44.800849046355786" lon="12.259258254306246"><ele>-0.3333333333333333</ele><time>2026-04-05T13:06:26.998Z</time></trkpt><trkpt lat="44.80065359762838" lon="12.259256562247188"><ele>-0.6666666666666666</ele><time>2026-04-05T13:06:27.998Z</time></trkpt><trkpt lat="44.80045092751309" lon="12.259246501706963"><ele>-1.0</ele><time>2026-04-05T13:06:28.998Z</time></trkpt><trkpt lat="44.80024199375083" lon="12.259243148143277"><ele>-0.6666666666666666</ele><time>2026-04-05T13:06:29.998Z</time></trkpt><trkpt lat="44.80002714303929" lon="12.25923314622977"><ele>-0.3333333333333333</ele><time>2026-04-05T13:06:30.998Z</time></trkpt><trkpt lat="44.79981444063331" lon="12.259234929026341"><ele>0.0</ele><time>2026-04-05T13:06:31.998Z</time></trkpt><trkpt lat="44.79959872918616" lon="12.259228046594401"><ele>0.0</ele><time>2026-04-05T13:06:32.998Z</time></trkpt><trkpt lat="44.799397556576196" lon="12.259229703715995"><ele>0.0</ele><time>2026-04-05T13:06:33.998Z</time></trkpt><trkpt lat="44.79919037736553" lon="12.259235682476248"><ele>0.0</ele><time>2026-04-05T13:06:34.998Z</time></trkpt><trkpt lat="44.798991219403554" lon="12.259225423479934"><ele>0.3333333333333333</ele><time>2026-04-05T13:06:35.998Z</time></trkpt><trkpt lat="44.79879060328077" lon="12.259217604124089"><ele>0.6666666666666666</ele><time>2026-04-05T13:06:36.998Z</time></trkpt><trkpt lat="44.7985908963335" lon="12.259214981304972"><ele>1.0</ele><time>2026-04-05T13:06:37.998Z</time></trkpt><trkpt lat="44.79839049994362" lon="12.259211276282038"><ele>0.3333333333333333</ele><time>2026-04-05T13:06:38.999Z</time></trkpt><trkpt lat="44.798191823891514" lon="12.259214829636207"><ele>-0.3333333333333333</ele><time>2026-04-05T13:06:39.999Z</time></trkpt><trkpt lat="44.79799764927556" lon="12.259218270898927"><ele>-1.0</ele><time>2026-04-05T13:06:40.999Z</time></trkpt><trkpt lat="44.79779862683808" lon="12.259218978900305"><ele>-1.0</ele><time>2026-04-05T13:06:42Z</time></trkpt><trkpt lat="44.79760573426011" lon="12.259214306751659"><ele>-1.0</ele><time>2026-04-05T13:06:43Z</time></trkpt><trkpt lat="44.797420286717525" lon="12.259218468351945"><ele>-1.0</ele><time>2026-04-05T13:06:44Z</time></trkpt><trkpt lat="44.79724002414182" lon="12.2592175956731"><ele>-1.0</ele><time>2026-04-05T13:06:44.999Z</time></trkpt><trkpt lat="44.7970796495733" lon="12.259213517357265"><ele>-1.0</ele><time>2026-04-05T13:06:45.999Z</time></trkpt><trkpt lat="44.79692686908038" lon="12.259209836681181"><ele>-1.0</ele><time>2026-04-05T13:06:46.999Z</time></trkpt><trkpt lat="44.796781249413726" lon="12.259193092857647"><ele>-1.0</ele><time>2026-04-05T13:06:47.999Z</time></trkpt><trkpt lat="44.79663526407103" lon="12.259142761515616"><ele>-1.0</ele><time>2026-04-05T13:06:48.999Z</time></trkpt><trkpt lat="44.796474133048605" lon="12.25906368222401"><ele>-1.0</ele><time>2026-04-05T13:06:49.999Z</time></trkpt><trkpt lat="44.79631686428102" lon="12.258931918621386"><ele>-1.3333333333333333</ele><time>2026-04-05T13:06:50.999Z</time></trkpt><trkpt lat="44.79616016999627" lon="12.258761362255123"><ele>-1.6666666666666665</ele><time>2026-04-05T13:06:51.999Z</time></trkpt><trkpt lat="44.79600183722839" lon="12.258572175803781"><ele>-2.0</ele><time>2026-04-05T13:06:52.999Z</time></trkpt><trkpt lat="44.79584080380032" lon="12.258376769495243"><ele>-2.0</ele><time>2026-04-05T13:06:53.999Z</time></trkpt><trkpt lat="44.795675923710995" lon="12.258195371502557"><ele>-2.0</ele><time>2026-04-05T13:06:54.999Z</time></trkpt><trkpt lat="44.79551438998369" lon="12.258010736260667"><ele>-2.0</ele><time>2026-04-05T13:06:55.999Z</time></trkpt><trkpt lat="44.79535342616903" lon="12.257833013257345"><ele>-2.6666666666666665</ele><time>2026-04-05T13:06:56.999Z</time></trkpt><trkpt lat="44.795206408166614" lon="12.257668723689536"><ele>-3.333333333333333</ele><time>2026-04-05T13:06:57.999Z</time></trkpt><trkpt lat="44.79506965960575" lon="12.257519439420301"><ele>-4.0</ele><time>2026-04-05T13:06:58.999Z</time></trkpt><trkpt lat="44.794938171369225" lon="12.257387879388887"><ele>-4.0</ele><time>2026-04-05T13:06:59.999Z</time></trkpt><trkpt lat="44.79480803865216" lon="12.257271182338206"><ele>-4.0</ele><time>2026-04-05T13:07:00.999Z</time></trkpt><trkpt lat="44.79466241427668" lon="12.257185911065886"><ele>-4.0</ele><time>2026-04-05T13:07:01.999Z</time></trkpt><trkpt lat="44.794503561100356" lon="12.257130396901413"><ele>-3.6666666666666665</ele><time>2026-04-05T13:07:02.999Z</time></trkpt><trkpt lat="44.79433755455826" lon="12.257093843246496"><ele>-3.333333333333333</ele><time>2026-04-05T13:07:03.999Z</time></trkpt><trkpt lat="44.794157989369765" lon="12.257102924203638"><ele>-3.0</ele><time>2026-04-05T13:07:04.999Z</time></trkpt><trkpt lat="44.7939745839202" lon="12.257129997612521"><ele>-3.0</ele><time>2026-04-05T13:07:05.999Z</time></trkpt><trkpt lat="44.79379008999607" lon="12.257188915190174"><ele>-3.0</ele><time>2026-04-05T13:07:06.999Z</time></trkpt><trkpt lat="44.79360005730883" lon="12.25724786850742"><ele>-3.0</ele><time>2026-04-05T13:07:07.999Z</time></trkpt><trkpt lat="44.793404480723865" lon="12.257309027065947"><ele>-2.0</ele><time>2026-04-05T13:07:08.999Z</time></trkpt><trkpt lat="44.79321973584514" lon="12.257359346700255"><ele>-1.0</ele><time>2026-04-05T13:07:09.999Z</time></trkpt><trkpt lat="44.793038457827144" lon="12.257403415432846"><ele>0.0</ele><time>2026-04-05T13:07:10.999Z</time></trkpt><trkpt lat="44.79286864951061" lon="12.257449838352626"><ele>0.0</ele><time>2026-04-05T13:07:11.999Z</time></trkpt><trkpt lat="44.792705662836326" lon="12.257497975251187"><ele>0.0</ele><time>2026-04-05T13:07:12.999Z</time></trkpt><trkpt lat="44.79254037058362" lon="12.257540662140235"><ele>0.0</ele><time>2026-04-05T13:07:13.999Z</time></trkpt><trkpt lat="44.792384142654754" lon="12.257581952133334"><ele>0.0</ele><time>2026-04-05T13:07:14.999Z</time></trkpt><trkpt lat="44.79223743781549" lon="12.257621372450219"><ele>0.0</ele><time>2026-04-05T13:07:15.999Z</time></trkpt><trkpt lat="44.79209612174432" lon="12.257657754948529"><ele>0.0</ele><time>2026-04-05T13:07:16.999Z</time></trkpt><trkpt lat="44.79196291795614" lon="12.257683077206211"><ele>0.0</ele><time>2026-04-05T13:07:17.999Z</time></trkpt><trkpt lat="44.79182434885055" lon="12.257713240936923"><ele>-0.5</ele><time>2026-04-05T13:07:18.999Z</time></trkpt><trkpt lat="44.79168213598528" lon="12.257724419838405"><ele>-1.0</ele><time>2026-04-05T13:07:19.999Z</time></trkpt><trkpt lat="44.79153306064338" lon="12.257724168330638"><ele>-1.5</ele><time>2026-04-05T13:07:20.999Z</time></trkpt><trkpt lat="44.7913764063444" lon="12.25769903956182"><ele>-2.0</ele><time>2026-04-05T13:07:21.999Z</time></trkpt><trkpt lat="44.79122275881032" lon="12.257638899045526"><ele>-2.0</ele><time>2026-04-05T13:07:22.999Z</time></trkpt><trkpt lat="44.791072313682164" lon="12.257557391820175"><ele>-2.0</ele><time>2026-04-05T13:07:23.999Z</time></trkpt><trkpt lat="44.79091336192698" lon="12.257450228345114"><ele>-2.0</ele><time>2026-04-05T13:07:24.999Z</time></trkpt><trkpt lat="44.79074960737002" lon="12.25732677078355"><ele>-2.333333333333333</ele><time>2026-04-05T13:07:25.999Z</time></trkpt><trkpt lat="44.790567486481415" lon="12.257159257250514"><ele>-2.6666666666666665</ele><time>2026-04-05T13:07:26.999Z</time></trkpt><trkpt lat="44.79038361369265" lon="12.257001301159438"><ele>-3.0</ele><time>2026-04-05T13:07:27.999Z</time></trkpt><trkpt lat="44.79018624010455" lon="12.256831429204"><ele>-2.0</ele><time>2026-04-05T13:07:28.999Z</time></trkpt><trkpt lat="44.78997669787699" lon="12.256674308829265"><ele>-1.0</ele><time>2026-04-05T13:07:29.999Z</time></trkpt><trkpt lat="44.78976043832993" lon="12.256507314798888"><ele>-1.5</ele><time>2026-04-05T13:07:30.999Z</time></trkpt><trkpt lat="44.78953770128092" lon="12.256328938824964"><ele>-2.0</ele><time>2026-04-05T13:07:31.999Z</time></trkpt><trkpt lat="44.78931692150436" lon="12.256139350768418"><ele>-1.0</ele><time>2026-04-05T13:07:32.999Z</time></trkpt><trkpt lat="44.789092951347186" lon="12.255954543817673"><ele>0.0</ele><time>2026-04-05T13:07:33.999Z</time></trkpt><trkpt lat="44.788872829215364" lon="12.255762331757936"><ele>-0.5</ele><time>2026-04-05T13:07:34.999Z</time></trkpt><trkpt lat="44.788659372288215" lon="12.255576374608"><ele>-1.0</ele><time>2026-04-05T13:07:35.999Z</time></trkpt><trkpt lat="44.78845232179558" lon="12.25539117228938"><ele>-1.0</ele><time>2026-04-05T13:07:36.999Z</time></trkpt><trkpt lat="44.78824944986881" lon="12.25520962998157"><ele>-1.0</ele><time>2026-04-05T13:07:37.999Z</time></trkpt><trkpt lat="44.78805106068641" lon="12.255016931041851"><ele>-1.0</ele><time>2026-04-05T13:07:38.999Z</time></trkpt><trkpt lat="44.78785250568391" lon="12.254823376736562"><ele>-1.0</ele><time>2026-04-05T13:07:39.999Z</time></trkpt><trkpt lat="44.78765677399225" lon="12.254624656599312"><ele>-1.5</ele><time>2026-04-05T13:07:40.999Z</time></trkpt><trkpt lat="44.78746433101106" lon="12.254426230506775"><ele>-2.0</ele><time>2026-04-05T13:07:41.999Z</time></trkpt><trkpt lat="44.787274586554844" lon="12.254228946640467"><ele>-2.0</ele><time>2026-04-05T13:07:42.999Z</time></trkpt><trkpt lat="44.787090585505375" lon="12.254005585472232"><ele>-2.0</ele><time>2026-04-05T13:07:43.999Z</time></trkpt><trkpt lat="44.78689892124904" lon="12.253814069332897"><ele>-2.0</ele><time>2026-04-05T13:07:44.999Z</time></trkpt><trkpt lat="44.786718588694626" lon="12.253602708803564"><ele>-2.0</ele><time>2026-04-05T13:07:45.999Z</time></trkpt><trkpt lat="44.78654096207651" lon="12.253394727493813"><ele>-2.0</ele><time>2026-04-05T13:07:46.999Z</time></trkpt><trkpt lat="44.786362948006435" lon="12.25317998346024"><ele>-2.0</ele><time>2026-04-05T13:07:47.999Z</time></trkpt><trkpt lat="44.786183978797375" lon="12.252957083967985"><ele>-1.5</ele><time>2026-04-05T13:07:48.999Z</time></trkpt><trkpt lat="44.786004561662516" lon="12.252740771452295"><ele>-1.0</ele><time>2026-04-05T13:07:49.999Z</time></trkpt><trkpt lat="44.785828785185274" lon="12.252518644135526"><ele>-1.0</ele><time>2026-04-05T13:07:50.999Z</time></trkpt><trkpt lat="44.78564627229432" lon="12.252295495818109"><ele>-1.0</ele><time>2026-04-05T13:07:51.999Z</time></trkpt><trkpt lat="44.78546397522691" lon="12.252076167383494"><ele>-1.5</ele><time>2026-04-05T13:07:52.999Z</time></trkpt><trkpt lat="44.785277720071285" lon="12.251850985675022"><ele>-2.0</ele><time>2026-04-05T13:07:53.999Z</time></trkpt><trkpt lat="44.78509061481383" lon="12.251629886707303"><ele>-2.5</ele><time>2026-04-05T13:07:54.999Z</time></trkpt><trkpt lat="44.784906274947026" lon="12.251403309958327"><ele>-3.0</ele><time>2026-04-05T13:07:55.999Z</time></trkpt><trkpt lat="44.78472140605331" lon="12.251175638406279"><ele>-3.0</ele><time>2026-04-05T13:07:56.999Z</time></trkpt><trkpt lat="44.7845354347313" lon="12.250951248614657"><ele>-3.0</ele><time>2026-04-05T13:07:57.999Z</time></trkpt><trkpt lat="44.784350690066844" lon="12.250726834170019"><ele>-2.0</ele><time>2026-04-05T13:07:58.999Z</time></trkpt><trkpt lat="44.784173037124894" lon="12.25051452603111"><ele>-1.0</ele><time>2026-04-05T13:07:59.999Z</time></trkpt><trkpt lat="44.783997005312465" lon="12.250300808735375"><ele>-1.0</ele><time>2026-04-05T13:08:00.999Z</time></trkpt><trkpt lat="44.78382630995695" lon="12.250093761753073"><ele>-1.0</ele><time>2026-04-05T13:08:01.998Z</time></trkpt><trkpt lat="44.783652375369" lon="12.249882485071886"><ele>-1.5</ele><time>2026-04-05T13:08:02.998Z</time></trkpt><trkpt lat="44.78348113264552" lon="12.249674132283507"><ele>-2.0</ele><time>2026-04-05T13:08:03.998Z</time></trkpt><trkpt lat="44.78331231134435" lon="12.249467617726474"><ele>-2.0</ele><time>2026-04-05T13:08:04.998Z</time></trkpt><trkpt lat="44.78314634751878" lon="12.249268265151256"><ele>-2.0</ele><time>2026-04-05T13:08:05.998Z</time></trkpt><trkpt lat="44.78298677070279" lon="12.249077716986509"><ele>-2.0</ele><time>2026-04-05T13:08:06.998Z</time></trkpt><trkpt lat="44.78283222650666" lon="12.248895386199571"><ele>-2.0</ele><time>2026-04-05T13:08:07.998Z</time></trkpt><trkpt lat="44.78268133730386" lon="12.248726570399088"><ele>-2.0</ele><time>2026-04-05T13:08:08.998Z</time></trkpt><trkpt lat="44.782533259895445" lon="12.248565491590291"><ele>-2.0</ele><time>2026-04-05T13:08:09.998Z</time></trkpt><trkpt lat="44.78238930704098" lon="12.248418227473964"><ele>-2.0</ele><time>2026-04-05T13:08:10.998Z</time></trkpt><trkpt lat="44.782249520579505" lon="12.24826781649395"><ele>-2.0</ele><time>2026-04-05T13:08:11.998Z</time></trkpt><trkpt lat="44.782110544515746" lon="12.248127465269901"><ele>-2.0</ele><time>2026-04-05T13:08:12.998Z</time></trkpt><trkpt lat="44.78197184699894" lon="12.247992753414264"><ele>-2.0</ele><time>2026-04-05T13:08:13.998Z</time></trkpt><trkpt lat="44.78182813129416" lon="12.247855228574403"><ele>-2.0</ele><time>2026-04-05T13:08:14.998Z</time></trkpt><trkpt lat="44.781681101291944" lon="12.247707729163057"><ele>-2.0</ele><time>2026-04-05T13:08:15.998Z</time></trkpt><trkpt lat="44.781521686775164" lon="12.247537469434686"><ele>-2.0</ele><time>2026-04-05T13:08:16.998Z</time></trkpt><trkpt lat="44.781347259920935" lon="12.247360612701666"><ele>-2.0</ele><time>2026-04-05T13:08:17.998Z</time></trkpt><trkpt lat="44.78117171389814" lon="12.247176543627765"><ele>-2.0</ele><time>2026-04-05T13:08:18.998Z</time></trkpt><trkpt lat="44.78098934953492" lon="12.24698665954281"><ele>-1.5</ele><time>2026-04-05T13:08:19.998Z</time></trkpt><trkpt lat="44.780802006157515" lon="12.24679276080369"><ele>-1.0</ele><time>2026-04-05T13:08:20.998Z</time></trkpt><trkpt lat="44.7806100697774" lon="12.246596430691769"><ele>-2.0</ele><time>2026-04-05T13:08:21.998Z</time></trkpt><trkpt lat="44.78041593598517" lon="12.246401323573298"><ele>-3.0</ele><time>2026-04-05T13:08:22.998Z</time></trkpt><trkpt lat="44.78021860667892" lon="12.246210366868613"><ele>-2.0</ele><time>2026-04-05T13:08:23.998Z</time></trkpt><trkpt lat="44.78002420922063" lon="12.246014996814857"><ele>-1.0</ele><time>2026-04-05T13:08:24.998Z</time></trkpt><trkpt lat="44.77983570294827" lon="12.245823080135182"><ele>-1.0</ele><time>2026-04-05T13:08:25.998Z</time></trkpt><trkpt lat="44.77965248456935" lon="12.245636755426828"><ele>-1.0</ele><time>2026-04-05T13:08:26.998Z</time></trkpt><trkpt lat="44.77947574615885" lon="12.245457499540947"><ele>-1.0</ele><time>2026-04-05T13:08:27.998Z</time></trkpt><trkpt lat="44.779304987291" lon="12.245284449086855"><ele>-1.3333333333333333</ele><time>2026-04-05T13:08:28.998Z</time></trkpt><trkpt lat="44.77913282610978" lon="12.24511159176665"><ele>-1.6666666666666665</ele><time>2026-04-05T13:08:29.998Z</time></trkpt><trkpt lat="44.778958730659525" lon="12.24493498524133"><ele>-2.0</ele><time>2026-04-05T13:08:30.998Z</time></trkpt><trkpt lat="44.77878145670351" lon="12.244761420671034"><ele>-2.0</ele><time>2026-04-05T13:08:31.998Z</time></trkpt><trkpt lat="44.778606534964425" lon="12.244582948106011"><ele>-2.0</ele><time>2026-04-05T13:08:32.998Z</time></trkpt><trkpt lat="44.77843455980759" lon="12.244404067017147"><ele>-2.0</ele><time>2026-04-05T13:08:33.998Z</time></trkpt><trkpt lat="44.77826592049741" lon="12.244223583764597"><ele>-2.0</ele><time>2026-04-05T13:08:34.998Z</time></trkpt><trkpt lat="44.77809503585974" lon="12.244045777204425"><ele>-2.0</ele><time>2026-04-05T13:08:35.998Z</time></trkpt><trkpt lat="44.77792084446715" lon="12.243874365689573"><ele>-2.0</ele><time>2026-04-05T13:08:36.998Z</time></trkpt><trkpt lat="44.77774652349943" lon="12.243695710306863"><ele>-1.6666666666666665</ele><time>2026-04-05T13:08:37.998Z</time></trkpt><trkpt lat="44.7775731061894" lon="12.243517422927411"><ele>-1.3333333333333333</ele><time>2026-04-05T13:08:38.998Z</time></trkpt><trkpt lat="44.77740042873982" lon="12.243339348547215"><ele>-1.0</ele><time>2026-04-05T13:08:39.998Z</time></trkpt><trkpt lat="44.77722569574377" lon="12.24316094548225"><ele>-1.0</ele><time>2026-04-05T13:08:40.998Z</time></trkpt><trkpt lat="44.777050800563984" lon="12.24298016754475"><ele>-1.0</ele><time>2026-04-05T13:08:41.998Z</time></trkpt><trkpt lat="44.776875324384974" lon="12.242795845804288"><ele>-1.0</ele><time>2026-04-05T13:08:42.998Z</time></trkpt><trkpt lat="44.77670226800747" lon="12.242611307634949"><ele>-1.0</ele><time>2026-04-05T13:08:43.998Z</time></trkpt><trkpt lat="44.776525127490224" lon="12.24242589636975"><ele>-1.0</ele><time>2026-04-05T13:08:45Z</time></trkpt><trkpt lat="44.77634937542226" lon="12.242254678408257"><ele>-1.0</ele><time>2026-04-05T13:08:46Z</time></trkpt><trkpt lat="44.776167243002654" lon="12.242075905752879"><ele>-0.6666666666666666</ele><time>2026-04-05T13:08:47Z</time></trkpt><trkpt lat="44.775985527432766" lon="12.241897496414428"><ele>-0.3333333333333333</ele><time>2026-04-05T13:08:47.999Z</time></trkpt><trkpt lat="44.77580292575199" lon="12.241722039460772"><ele>0.0</ele><time>2026-04-05T13:08:49Z</time></trkpt><trkpt lat="44.77562874267379" lon="12.241550832644045"><ele>-0.6666666666666666</ele><time>2026-04-05T13:08:50Z</time></trkpt><trkpt lat="44.77545348331573" lon="12.241377792455454"><ele>-1.3333333333333333</ele><time>2026-04-05T13:08:51Z</time></trkpt><trkpt lat="44.77527982658388" lon="12.241209554445494"><ele>-2.0</ele><time>2026-04-05T13:08:51.999Z</time></trkpt><trkpt lat="44.775105055411274" lon="12.241044228797774"><ele>-2.0</ele><time>2026-04-05T13:08:52.999Z</time></trkpt><trkpt lat="44.774930660039665" lon="12.240876845578908"><ele>-2.0</ele><time>2026-04-05T13:08:53.999Z</time></trkpt><trkpt lat="44.77475410829747" lon="12.240706991262353"><ele>-2.0</ele><time>2026-04-05T13:08:55Z</time></trkpt><trkpt lat="44.77457780799782" lon="12.2405363239194"><ele>-2.0</ele><time>2026-04-05T13:08:56Z</time></trkpt><trkpt lat="44.77439859833088" lon="12.240368795417915"><ele>-2.0</ele><time>2026-04-05T13:08:56.999Z</time></trkpt><trkpt lat="44.774220237376916" lon="12.240197854515184"><ele>-2.0</ele><time>2026-04-05T13:08:57.999Z</time></trkpt><trkpt lat="44.77404632194621" lon="12.240028600537897"><ele>-1.6666666666666665</ele><time>2026-04-05T13:08:58.999Z</time></trkpt><trkpt lat="44.77387656117366" lon="12.239868056032172"><ele>-1.3333333333333333</ele><time>2026-04-05T13:08:59.999Z</time></trkpt><trkpt lat="44.77371286548239" lon="12.239714032536996"><ele>-1.0</ele><time>2026-04-05T13:09:00.999Z</time></trkpt><trkpt lat="44.77355764166834" lon="12.239566613873789"><ele>-1.0</ele><time>2026-04-05T13:09:01.999Z</time></trkpt><trkpt lat="44.77341177800092" lon="12.239419462711158"><ele>-1.0</ele><time>2026-04-05T13:09:02.999Z</time></trkpt><trkpt lat="44.77327480495641" lon="12.239278680774648"><ele>-1.0</ele><time>2026-04-05T13:09:03.999Z</time></trkpt><trkpt lat="44.773147830423596" lon="12.239138121677765"><ele>-1.0</ele><time>2026-04-05T13:09:04.999Z</time></trkpt><trkpt lat="44.7730298167942" lon="12.238975393916935"><ele>-1.0</ele><time>2026-04-05T13:09:05.999Z</time></trkpt><trkpt lat="44.772927695389846" lon="12.23878880128536"><ele>-1.0</ele><time>2026-04-05T13:09:06.999Z</time></trkpt><trkpt lat="44.772838542270556" lon="12.23858464943599"><ele>-1.3333333333333333</ele><time>2026-04-05T13:09:07.999Z</time></trkpt><trkpt lat="44.77276809370446" lon="12.238369376603321"><ele>-1.6666666666666665</ele><time>2026-04-05T13:09:08.999Z</time></trkpt><trkpt lat="44.77270408624142" lon="12.23814547674952"><ele>-2.0</ele><time>2026-04-05T13:09:09.999Z</time></trkpt><trkpt lat="44.77263980047661" lon="12.23791278209157"><ele>-2.0</ele><time>2026-04-05T13:09:10.999Z</time></trkpt><trkpt lat="44.77257459047557" lon="12.237667115374656"><ele>-2.0</ele><time>2026-04-05T13:09:11.999Z</time></trkpt><trkpt lat="44.7725090626794" lon="12.23742580657573"><ele>-2.0</ele><time>2026-04-05T13:09:12.999Z</time></trkpt><trkpt lat="44.772446081140444" lon="12.237187571486613"><ele>-2.0</ele><time>2026-04-05T13:09:13.999Z</time></trkpt><trkpt lat="44.77238297693412" lon="12.236956840472825"><ele>-2.0</ele><time>2026-04-05T13:09:14.999Z</time></trkpt><trkpt lat="44.772318834175614" lon="12.236729022102597"><ele>-2.0</ele><time>2026-04-05T13:09:15.999Z</time></trkpt><trkpt lat="44.77224303514171" lon="12.236507969134044"><ele>-2.0</ele><time>2026-04-05T13:09:16.999Z</time></trkpt><trkpt lat="44.772150110062796" lon="12.236290184452741"><ele>-2.0</ele><time>2026-04-05T13:09:17.999Z</time></trkpt><trkpt lat="44.772053443123" lon="12.236066106969751"><ele>-2.0</ele><time>2026-04-05T13:09:18.999Z</time></trkpt><trkpt lat="44.77194595957964" lon="12.235840355125516"><ele>-2.0</ele><time>2026-04-05T13:09:19.999Z</time></trkpt><trkpt lat="44.7718209949586" lon="12.235632524157559"><ele>-2.0</ele><time>2026-04-05T13:09:20.999Z</time></trkpt><trkpt lat="44.77168078427268" lon="12.23543859267256"><ele>-2.0</ele><time>2026-04-05T13:09:21.999Z</time></trkpt><trkpt lat="44.77153982334916" lon="12.235262711803518"><ele>-2.0</ele><time>2026-04-05T13:09:22.999Z</time></trkpt><trkpt lat="44.77140372265365" lon="12.23510089363002"><ele>-2.0</ele><time>2026-04-05T13:09:23.999Z</time></trkpt><trkpt lat="44.771267363654644" lon="12.234941192576027"><ele>-2.0</ele><time>2026-04-05T13:09:24.999Z</time></trkpt><trkpt lat="44.77112331110712" lon="12.23478320322486"><ele>-2.0</ele><time>2026-04-05T13:09:25.999Z</time></trkpt><trkpt lat="44.770974553923956" lon="12.234626577317048"><ele>-2.0</ele><time>2026-04-05T13:09:26.999Z</time></trkpt><trkpt lat="44.770824336705694" lon="12.234468729936362"><ele>-2.0</ele><time>2026-04-05T13:09:27.999Z</time></trkpt><trkpt lat="44.77067471523846" lon="12.234314893436089"><ele>-2.0</ele><time>2026-04-05T13:09:28.999Z</time></trkpt><trkpt lat="44.77052510014682" lon="12.234162721572863"><ele>-2.0</ele><time>2026-04-05T13:09:29.999Z</time></trkpt><trkpt lat="44.770375835608796" lon="12.23400787216129"><ele>-2.0</ele><time>2026-04-05T13:09:30.999Z</time></trkpt><trkpt lat="44.7702266113824" lon="12.233853077330219"><ele>-2.0</ele><time>2026-04-05T13:09:31.999Z</time></trkpt><trkpt lat="44.770076703701626" lon="12.233697730297276"><ele>-2.0</ele><time>2026-04-05T13:09:32.999Z</time></trkpt><trkpt lat="44.7699308899723" lon="12.233545810716542"><ele>-2.0</ele><time>2026-04-05T13:09:33.999Z</time></trkpt><trkpt lat="44.769779586935144" lon="12.233388379381916"><ele>-2.0</ele><time>2026-04-05T13:09:34.999Z</time></trkpt><trkpt lat="44.769630826038714" lon="12.233226226943547"><ele>-2.0</ele><time>2026-04-05T13:09:35.999Z</time></trkpt><trkpt lat="44.769479613705876" lon="12.233067926136409"><ele>-2.0</ele><time>2026-04-05T13:09:36.999Z</time></trkpt><trkpt lat="44.76932839437281" lon="12.232904103950487"><ele>-2.333333333333333</ele><time>2026-04-05T13:09:37.999Z</time></trkpt><trkpt lat="44.769176558016284" lon="12.232742056908814"><ele>-2.6666666666666665</ele><time>2026-04-05T13:09:38.999Z</time></trkpt><trkpt lat="44.769023244931994" lon="12.232585389171344"><ele>-3.0</ele><time>2026-04-05T13:09:39.999Z</time></trkpt><trkpt lat="44.76887055508905" lon="12.232425002396791"><ele>-3.333333333333333</ele><time>2026-04-05T13:09:40.999Z</time></trkpt><trkpt lat="44.768717399805226" lon="12.2322680207989"><ele>-3.6666666666666665</ele><time>2026-04-05T13:09:41.999Z</time></trkpt><trkpt lat="44.76856700221978" lon="12.232097525871298"><ele>-4.0</ele><time>2026-04-05T13:09:42.999Z</time></trkpt><trkpt lat="44.768406119776536" lon="12.231937417678326"><ele>-4.0</ele><time>2026-04-05T13:09:43.999Z</time></trkpt><trkpt lat="44.768244918527884" lon="12.23178268641905"><ele>-4.0</ele><time>2026-04-05T13:09:44.999Z</time></trkpt><trkpt lat="44.76808432343003" lon="12.231620802357345"><ele>-4.0</ele><time>2026-04-05T13:09:45.999Z</time></trkpt><trkpt lat="44.76791294233642" lon="12.231467143196904"><ele>-4.0</ele><time>2026-04-05T13:09:46.999Z</time></trkpt><trkpt lat="44.76773867734939" lon="12.23131734142981"><ele>-4.0</ele><time>2026-04-05T13:09:47.999Z</time></trkpt><trkpt lat="44.76756672691071" lon="12.231162119845171"><ele>-4.0</ele><time>2026-04-05T13:09:48.999Z</time></trkpt><trkpt lat="44.76739035596962" lon="12.231006263310434"><ele>-3.333333333333333</ele><time>2026-04-05T13:09:49.999Z</time></trkpt><trkpt lat="44.767203782803655" lon="12.230850757384053"><ele>-2.6666666666666665</ele><time>2026-04-05T13:09:50.999Z</time></trkpt><trkpt lat="44.767012631919286" lon="12.230699990464158"><ele>-2.0</ele><time>2026-04-05T13:09:51.999Z</time></trkpt><trkpt lat="44.766820744428095" lon="12.230555297316636"><ele>-2.0</ele><time>2026-04-05T13:09:52.999Z</time></trkpt><trkpt lat="44.76663123121642" lon="12.230414505589565"><ele>-2.0</ele><time>2026-04-05T13:09:53.999Z</time></trkpt><trkpt lat="44.76644116053549" lon="12.230271935862861"><ele>-2.0</ele><time>2026-04-05T13:09:54.999Z</time></trkpt><trkpt lat="44.76625419518413" lon="12.230128201748274"><ele>-2.0</ele><time>2026-04-05T13:09:55.999Z</time></trkpt><trkpt lat="44.76606428437172" lon="12.229990072141034"><ele>-2.0</ele><time>2026-04-05T13:09:56.999Z</time></trkpt><trkpt lat="44.76587859774357" lon="12.229848089564099"><ele>-2.0</ele><time>2026-04-05T13:09:57.999Z</time></trkpt><trkpt lat="44.76569113357403" lon="12.229712636198881"><ele>-2.0</ele><time>2026-04-05T13:09:58.999Z</time></trkpt><trkpt lat="44.76550633076253" lon="12.229584906413612"><ele>-2.0</ele><time>2026-04-05T13:09:59.999Z</time></trkpt><trkpt lat="44.765324195805725" lon="12.229455370057652"><ele>-2.0</ele><time>2026-04-05T13:10:00.999Z</time></trkpt><trkpt lat="44.765148706710896" lon="12.229326252790582"><ele>-1.6666666666666665</ele><time>2026-04-05T13:10:01.999Z</time></trkpt><trkpt lat="44.76497681076877" lon="12.229200547276944"><ele>-1.3333333333333333</ele><time>2026-04-05T13:10:02.999Z</time></trkpt><trkpt lat="44.764812521755545" lon="12.229081954482124"><ele>-1.0</ele><time>2026-04-05T13:10:03.999Z</time></trkpt><trkpt lat="44.76465339418641" lon="12.228971205918429"><ele>-1.3333333333333333</ele><time>2026-04-05T13:10:04.999Z</time></trkpt><trkpt lat="44.76449950479996" lon="12.22887013026283"><ele>-1.6666666666666665</ele><time>2026-04-05T13:10:05.999Z</time></trkpt><trkpt lat="44.76434312265539" lon="12.228787639104153"><ele>-2.0</ele><time>2026-04-05T13:10:06.999Z</time></trkpt><trkpt lat="44.764179064773415" lon="12.228722975945734"><ele>-2.0</ele><time>2026-04-05T13:10:07.999Z</time></trkpt><trkpt lat="44.76400740822794" lon="12.228672625811958"><ele>-2.0</ele><time>2026-04-05T13:10:08.999Z</time></trkpt><trkpt lat="44.76383320794539" lon="12.228639583979692"><ele>-2.0</ele><time>2026-04-05T13:10:09.999Z</time></trkpt><trkpt lat="44.7636567618511" lon="12.228635379813774"><ele>-1.3333333333333333</ele><time>2026-04-05T13:10:10.999Z</time></trkpt><trkpt lat="44.76347993214532" lon="12.228653217116486"><ele>-0.6666666666666666</ele><time>2026-04-05T13:10:11.999Z</time></trkpt><trkpt lat="44.76330260143363" lon="12.228684780246505"><ele>0.0</ele><time>2026-04-05T13:10:12.999Z</time></trkpt><trkpt lat="44.76313277630329" lon="12.228742648363696"><ele>0.0</ele><time>2026-04-05T13:10:13.999Z</time></trkpt><trkpt lat="44.76296933590829" lon="12.228823634030261"><ele>0.0</ele><time>2026-04-05T13:10:14.999Z</time></trkpt><trkpt lat="44.76281100637822" lon="12.22892607612774"><ele>0.0</ele><time>2026-04-05T13:10:15.999Z</time></trkpt><trkpt lat="44.76265870894906" lon="12.229047777533433"><ele>-0.6666666666666666</ele><time>2026-04-05T13:10:16.998Z</time></trkpt><trkpt lat="44.7625061448214" lon="12.229195559609996"><ele>-1.3333333333333333</ele><time>2026-04-05T13:10:17.998Z</time></trkpt><trkpt lat="44.76236110546862" lon="12.229356395827626"><ele>-2.0</ele><time>2026-04-05T13:10:18.998Z</time></trkpt><trkpt lat="44.762216845372244" lon="12.229510739087749"><ele>-2.0</ele><time>2026-04-05T13:10:19.998Z</time></trkpt><trkpt lat="44.7620778498354" lon="12.229655504470475"><ele>-2.0</ele><time>2026-04-05T13:10:20.998Z</time></trkpt><trkpt lat="44.76195216801956" lon="12.229796814103056"><ele>-2.0</ele><time>2026-04-05T13:10:21.998Z</time></trkpt><trkpt lat="44.761826592885505" lon="12.229936560758276"><ele>-1.6666666666666665</ele><time>2026-04-05T13:10:22.998Z</time></trkpt><trkpt lat="44.761696760773376" lon="12.230077682927385"><ele>-1.3333333333333333</ele><time>2026-04-05T13:10:23.998Z</time></trkpt><trkpt lat="44.761568344117315" lon="12.230214178228735"><ele>-1.0</ele><time>2026-04-05T13:10:24.998Z</time></trkpt><trkpt lat="44.761451956343286" lon="12.230344883052139"><ele>-1.0</ele><time>2026-04-05T13:10:25.998Z</time></trkpt><trkpt lat="44.761333217252584" lon="12.23046464469023"><ele>-1.0</ele><time>2026-04-05T13:10:26.998Z</time></trkpt><trkpt lat="44.76121788324952" lon="12.230575916592585"><ele>-1.0</ele><time>2026-04-05T13:10:27.998Z</time></trkpt><trkpt lat="44.76109657995659" lon="12.230678643960783"><ele>-1.0</ele><time>2026-04-05T13:10:28.998Z</time></trkpt><trkpt lat="44.76096474998162" lon="12.230766948113304"><ele>-0.6666666666666666</ele><time>2026-04-05T13:10:29.998Z</time></trkpt><trkpt lat="44.760821624109184" lon="12.230838636097463"><ele>-0.3333333333333333</ele><time>2026-04-05T13:10:30.998Z</time></trkpt><trkpt lat="44.76067041173435" lon="12.230890287823554"><ele>0.0</ele><time>2026-04-05T13:10:31.998Z</time></trkpt><trkpt lat="44.760519228064965" lon="12.230920525783166"><ele>0.0</ele><time>2026-04-05T13:10:32.998Z</time></trkpt><trkpt lat="44.76037284594378" lon="12.230927630501991"><ele>0.0</ele><time>2026-04-05T13:10:33.998Z</time></trkpt><trkpt lat="44.7602217599683" lon="12.230911616201942"><ele>0.0</ele><time>2026-04-05T13:10:34.998Z</time></trkpt><trkpt lat="44.76006211047216" lon="12.23087297741453"><ele>-0.3333333333333333</ele><time>2026-04-05T13:10:35.998Z</time></trkpt><trkpt lat="44.75990811151265" lon="12.230792121873726"><ele>-0.6666666666666666</ele><time>2026-04-05T13:10:36.998Z</time></trkpt><trkpt lat="44.7597570756885" lon="12.23074928369624"><ele>-1.0</ele><time>2026-04-05T13:10:37.998Z</time></trkpt><trkpt lat="44.759622875960844" lon="12.230687270229051"><ele>-0.5</ele><time>2026-04-05T13:10:38.998Z</time></trkpt><trkpt lat="44.759496440830226" lon="12.230628325861726"><ele>0.0</ele><time>2026-04-05T13:10:39.998Z</time></trkpt><trkpt lat="44.75937895052904" lon="12.230578291208273"><ele>0.5</ele><time>2026-04-05T13:10:40.998Z</time></trkpt><trkpt lat="44.75926639232013" lon="12.230525175061812"><ele>1.0</ele><time>2026-04-05T13:10:41.998Z</time></trkpt><trkpt lat="44.75916423402298" lon="12.23047780671618"><ele>0.9999999999999999</ele><time>2026-04-05T13:10:42.998Z</time></trkpt><trkpt lat="44.75906732387473" lon="12.230435895670295"><ele>1.0</ele><time>2026-04-05T13:10:43.998Z</time></trkpt><trkpt lat="44.75897010207515" lon="12.230394348150913"><ele>1.0</ele><time>2026-04-05T13:10:44.998Z</time></trkpt><trkpt lat="44.75888836589458" lon="12.230360146999441"><ele>1.0</ele><time>2026-04-05T13:10:45.998Z</time></trkpt><trkpt lat="44.758814353197955" lon="12.23031794881674"><ele>0.9999999999999999</ele><time>2026-04-05T13:10:46.998Z</time></trkpt><trkpt lat="44.75874837083813" lon="12.230257819136064"><ele>1.0</ele><time>2026-04-05T13:10:47.998Z</time></trkpt><trkpt lat="44.75867568772811" lon="12.230082759725352"><ele>1.0</ele><time>2026-04-05T13:10:49.998Z</time></trkpt><trkpt lat="44.75864939427786" lon="12.229988204280279"><ele>1.0</ele><time>2026-04-05T13:10:50.999Z</time></trkpt><trkpt lat="44.75869089159747" lon="12.229858873690857"><ele>1.0</ele><time>2026-04-05T13:10:51.999Z</time></trkpt><trkpt lat="44.758726972583624" lon="12.229733441899453"><ele>1.0</ele><time>2026-04-05T13:10:52.999Z</time></trkpt><trkpt lat="44.75874624512334" lon="12.229594712524165"><ele>1.0</ele><time>2026-04-05T13:10:53.999Z</time></trkpt><trkpt lat="44.75880570021036" lon="12.229448766841335"><ele>1.0</ele><time>2026-04-05T13:10:54.999Z</time></trkpt><trkpt lat="44.75885325370951" lon="12.229293371395807"><ele>1.0</ele><time>2026-04-05T13:10:55.999Z</time></trkpt><trkpt lat="44.75890233992736" lon="12.229134933724744"><ele>1.0</ele><time>2026-04-05T13:10:56.999Z</time></trkpt><trkpt lat="44.75895195190245" lon="12.22896786773282"><ele>1.0</ele><time>2026-04-05T13:10:57.999Z</time></trkpt><trkpt lat="44.75900463773981" lon="12.228792921034328"><ele>1.0</ele><time>2026-04-05T13:10:58.999Z</time></trkpt><trkpt lat="44.75906433661415" lon="12.228611047078212"><ele>1.0</ele><time>2026-04-05T13:10:59.999Z</time></trkpt><trkpt lat="44.75912809375141" lon="12.22842000641199"><ele>1.0</ele><time>2026-04-05T13:11:01Z</time></trkpt><trkpt lat="44.759190121855035" lon="12.22821800291208"><ele>1.0</ele><time>2026-04-05T13:11:02Z</time></trkpt><trkpt lat="44.75925201864021" lon="12.228016227040309"><ele>-0.33333333333333337</ele><time>2026-04-05T13:11:02.999Z</time></trkpt><trkpt lat="44.759309515972305" lon="12.227815009296378"><ele>-1.6666666666666667</ele><time>2026-04-05T13:11:03.999Z</time></trkpt><trkpt lat="44.75938682451137" lon="12.227618379390039"><ele>-3.0</ele><time>2026-04-05T13:11:04.999Z</time></trkpt><trkpt lat="44.75943862967453" lon="12.227401443010107"><ele>-3.5</ele><time>2026-04-05T13:11:05.999Z</time></trkpt><trkpt lat="44.759503456314235" lon="12.227199785699003"><ele>-4.0</ele><time>2026-04-05T13:11:06.999Z</time></trkpt><trkpt lat="44.75956057644172" lon="12.227006163988463"><ele>-4.5</ele><time>2026-04-05T13:11:07.999Z</time></trkpt><trkpt lat="44.75961511254066" lon="12.226820117500859"><ele>-5.0</ele><time>2026-04-05T13:11:08.999Z</time></trkpt><trkpt lat="44.75969355118394" lon="12.226640553504458"><ele>-5.0</ele><time>2026-04-05T13:11:09.999Z</time></trkpt><trkpt lat="44.75975152053669" lon="12.226448761370387"><ele>-5.0</ele><time>2026-04-05T13:11:10.999Z</time></trkpt><trkpt lat="44.759805828076885" lon="12.226252535342528"><ele>-5.0</ele><time>2026-04-05T13:11:11.999Z</time></trkpt><trkpt lat="44.75984485204386" lon="12.226050605990078"><ele>-5.0</ele><time>2026-04-05T13:11:12.999Z</time></trkpt><trkpt lat="44.75986155357825" lon="12.225827569191853"><ele>-4.0</ele><time>2026-04-05T13:11:13.999Z</time></trkpt><trkpt lat="44.75987155190468" lon="12.225590056076756"><ele>-3.0</ele><time>2026-04-05T13:11:14.999Z</time></trkpt><trkpt lat="44.75988186355712" lon="12.225366526165926"><ele>-2.0</ele><time>2026-04-05T13:11:15.999Z</time></trkpt><trkpt lat="44.75989478598962" lon="12.225140639410355"><ele>-2.0</ele><time>2026-04-05T13:11:16.999Z</time></trkpt><trkpt lat="44.759906742944786" lon="12.22490019153837"><ele>-2.0</ele><time>2026-04-05T13:11:17.999Z</time></trkpt><trkpt lat="44.75992546903515" lon="12.224653909343928"><ele>-2.0</ele><time>2026-04-05T13:11:18.999Z</time></trkpt><trkpt lat="44.75994355917406" lon="12.22439888887071"><ele>-2.0</ele><time>2026-04-05T13:11:19.999Z</time></trkpt><trkpt lat="44.75995627171652" lon="12.224133599114598"><ele>-2.0</ele><time>2026-04-05T13:11:20.999Z</time></trkpt><trkpt lat="44.75997334944295" lon="12.223862728510227"><ele>-2.0</ele><time>2026-04-05T13:11:21.999Z</time></trkpt><trkpt lat="44.75999009547887" lon="12.223581338820983"><ele>-2.0</ele><time>2026-04-05T13:11:22.999Z</time></trkpt><trkpt lat="44.760000927778435" lon="12.223265823018544"><ele>-2.0</ele><time>2026-04-05T13:11:23.999Z</time></trkpt><trkpt lat="44.760008878807774" lon="12.222920360912003"><ele>-2.0</ele><time>2026-04-05T13:11:24.999Z</time></trkpt><trkpt lat="44.76003281045595" lon="12.222554280915759"><ele>-2.0</ele><time>2026-04-05T13:11:25.999Z</time></trkpt><trkpt lat="44.76006444748871" lon="12.222179569161824"><ele>-2.0</ele><time>2026-04-05T13:11:26.999Z</time></trkpt><trkpt lat="44.76009288355252" lon="12.221802272051425"><ele>-2.0</ele><time>2026-04-05T13:11:27.999Z</time></trkpt><trkpt lat="44.76011730777189" lon="12.221435054902944"><ele>-1.5</ele><time>2026-04-05T13:11:28.999Z</time></trkpt><trkpt lat="44.760138845041965" lon="12.221084467242154"><ele>-1.0</ele><time>2026-04-05T13:11:29.999Z</time></trkpt><trkpt lat="44.760159077178194" lon="12.220746904724471"><ele>-1.5</ele><time>2026-04-05T13:11:30.999Z</time></trkpt><trkpt lat="44.7601788031807" lon="12.220419447507942"><ele>-2.0</ele><time>2026-04-05T13:11:31.999Z</time></trkpt><trkpt lat="44.76019472462887" lon="12.220102444424432"><ele>-2.6666666666666665</ele><time>2026-04-05T13:11:32.999Z</time></trkpt><trkpt lat="44.760211103449684" lon="12.21980022227534"><ele>-3.333333333333333</ele><time>2026-04-05T13:11:33.999Z</time></trkpt><trkpt lat="44.7602295588172" lon="12.219507923071575"><ele>-4.0</ele><time>2026-04-05T13:11:34.998Z</time></trkpt><trkpt lat="44.76024808612619" lon="12.219216226049886"><ele>-4.0</ele><time>2026-04-05T13:11:35.998Z</time></trkpt><trkpt lat="44.76026692727998" lon="12.218913103610518"><ele>-4.0</ele><time>2026-04-05T13:11:36.998Z</time></trkpt><trkpt lat="44.76028503185714" lon="12.218603521863086"><ele>-4.0</ele><time>2026-04-05T13:11:37.998Z</time></trkpt><trkpt lat="44.76030689099155" lon="12.218303086867015"><ele>-4.0</ele><time>2026-04-05T13:11:38.998Z</time></trkpt><trkpt lat="44.76032585390235" lon="12.218017358550185"><ele>-4.0</ele><time>2026-04-05T13:11:39.998Z</time></trkpt><trkpt lat="44.76034151863966" lon="12.217743795008438"><ele>-4.0</ele><time>2026-04-05T13:11:40.998Z</time></trkpt><trkpt lat="44.760359672685446" lon="12.217475668480644"><ele>-3.6666666666666665</ele><time>2026-04-05T13:11:41.998Z</time></trkpt><trkpt lat="44.76037600043837" lon="12.217205913662735"><ele>-3.333333333333333</ele><time>2026-04-05T13:11:42.998Z</time></trkpt><trkpt lat="44.760392400729955" lon="12.216939428210384"><ele>-3.0</ele><time>2026-04-05T13:11:43.998Z</time></trkpt><trkpt lat="44.76041439307824" lon="12.216661227044133"><ele>-3.0</ele><time>2026-04-05T13:11:44.998Z</time></trkpt><trkpt lat="44.76043509796822" lon="12.216388198041004"><ele>-3.0</ele><time>2026-04-05T13:11:45.998Z</time></trkpt><trkpt lat="44.76044843893772" lon="12.216112017619011"><ele>-3.0</ele><time>2026-04-05T13:11:46.998Z</time></trkpt><trkpt lat="44.760467005262875" lon="12.215833895788716"><ele>-3.333333333333333</ele><time>2026-04-05T13:11:47.998Z</time></trkpt><trkpt lat="44.76048909082146" lon="12.2155464645892"><ele>-3.6666666666666665</ele><time>2026-04-05T13:11:48.998Z</time></trkpt><trkpt lat="44.7605062957799" lon="12.215260278857157"><ele>-4.0</ele><time>2026-04-05T13:11:49.998Z</time></trkpt><trkpt lat="44.76052139254514" lon="12.214990495005294"><ele>-4.0</ele><time>2026-04-05T13:11:50.998Z</time></trkpt><trkpt lat="44.76053916994291" lon="12.214724047630678"><ele>-4.0</ele><time>2026-04-05T13:11:51.998Z</time></trkpt><trkpt lat="44.76055300056288" lon="12.21446303331647"><ele>-4.0</ele><time>2026-04-05T13:11:52.998Z</time></trkpt><trkpt lat="44.76056820992718" lon="12.214197055241947"><ele>-3.6666666666666665</ele><time>2026-04-05T13:11:53.998Z</time></trkpt><trkpt lat="44.760584225935325" lon="12.213921682028392"><ele>-3.333333333333333</ele><time>2026-04-05T13:11:54.998Z</time></trkpt><trkpt lat="44.76060610235784" lon="12.213640372295076"><ele>-3.0</ele><time>2026-04-05T13:11:55.998Z</time></trkpt><trkpt lat="44.76062116408992" lon="12.21335423156597"><ele>-2.6666666666666665</ele><time>2026-04-05T13:11:56.998Z</time></trkpt><trkpt lat="44.76064245119791" lon="12.213067113246241"><ele>-2.333333333333333</ele><time>2026-04-05T13:11:57.998Z</time></trkpt><trkpt lat="44.76066211522425" lon="12.21278533930618"><ele>-2.0</ele><time>2026-04-05T13:11:58.998Z</time></trkpt><trkpt lat="44.76068106867543" lon="12.212505687298941"><ele>-2.0</ele><time>2026-04-05T13:11:59.998Z</time></trkpt><trkpt lat="44.7606986520553" lon="12.212223989238323"><ele>-2.0</ele><time>2026-04-05T13:12:00.998Z</time></trkpt><trkpt lat="44.76071469811913" lon="12.211941306104904"><ele>-2.0</ele><time>2026-04-05T13:12:01.998Z</time></trkpt><trkpt lat="44.76073237924563" lon="12.211654385484827"><ele>-1.6666666666666665</ele><time>2026-04-05T13:12:02.998Z</time></trkpt><trkpt lat="44.76075211351172" lon="12.211363452289726"><ele>-1.3333333333333333</ele><time>2026-04-05T13:12:03.998Z</time></trkpt><trkpt lat="44.76077043539941" lon="12.211078508245746"><ele>-1.0</ele><time>2026-04-05T13:12:04.998Z</time></trkpt><trkpt lat="44.76078984036464" lon="12.210792762582502"><ele>-1.0</ele><time>2026-04-05T13:12:05.998Z</time></trkpt><trkpt lat="44.760808786412255" lon="12.210509827974455"><ele>-1.0</ele><time>2026-04-05T13:12:06.998Z</time></trkpt><trkpt lat="44.76082798561341" lon="12.210224114729849"><ele>-1.0</ele><time>2026-04-05T13:12:07.998Z</time></trkpt><trkpt lat="44.76084598340288" lon="12.209932222906929"><ele>-1.3333333333333333</ele><time>2026-04-05T13:12:08.998Z</time></trkpt><trkpt lat="44.760863358384164" lon="12.209641534812773"><ele>-1.6666666666666665</ele><time>2026-04-05T13:12:09.998Z</time></trkpt><trkpt lat="44.7608812065313" lon="12.209346179701454"><ele>-2.0</ele><time>2026-04-05T13:12:10.998Z</time></trkpt><trkpt lat="44.76089988616568" lon="12.209050422809545"><ele>-2.333333333333333</ele><time>2026-04-05T13:12:11.998Z</time></trkpt><trkpt lat="44.760917241979755" lon="12.208755515139373"><ele>-2.6666666666666665</ele><time>2026-04-05T13:12:12.998Z</time></trkpt><trkpt lat="44.760935031151426" lon="12.208459376263344"><ele>-3.0</ele><time>2026-04-05T13:12:13.998Z</time></trkpt><trkpt lat="44.76095393202615" lon="12.208172869314918"><ele>-3.0</ele><time>2026-04-05T13:12:14.998Z</time></trkpt><trkpt lat="44.76097085222092" lon="12.207889908762287"><ele>-3.0</ele><time>2026-04-05T13:12:15.998Z</time></trkpt><trkpt lat="44.760988184815716" lon="12.207609808176766"><ele>-3.0</ele><time>2026-04-05T13:12:16.998Z</time></trkpt><trkpt lat="44.7610069518028" lon="12.207320150722378"><ele>-3.0</ele><time>2026-04-05T13:12:17.998Z</time></trkpt><trkpt lat="44.76102280586388" lon="12.207024584866002"><ele>-3.0</ele><time>2026-04-05T13:12:18.998Z</time></trkpt><trkpt lat="44.7610415100822" lon="12.206723961046631"><ele>-3.0</ele><time>2026-04-05T13:12:19.998Z</time></trkpt><trkpt lat="44.76106078592336" lon="12.206426420569006"><ele>-3.0</ele><time>2026-04-05T13:12:20.998Z</time></trkpt><trkpt lat="44.76107707708085" lon="12.206129114745988"><ele>-3.0</ele><time>2026-04-05T13:12:21.998Z</time></trkpt><trkpt lat="44.761100387725506" lon="12.205829460509918"><ele>-3.0</ele><time>2026-04-05T13:12:22.998Z</time></trkpt><trkpt lat="44.76111770637541" lon="12.20553399337932"><ele>-3.0</ele><time>2026-04-05T13:12:23.998Z</time></trkpt><trkpt lat="44.76113526211406" lon="12.205239947266856"><ele>-3.0</ele><time>2026-04-05T13:12:24.998Z</time></trkpt><trkpt lat="44.761149891218786" lon="12.20495050373606"><ele>-3.0</ele><time>2026-04-05T13:12:25.998Z</time></trkpt><trkpt lat="44.761167023554336" lon="12.204668644058323"><ele>-3.0</ele><time>2026-04-05T13:12:26.998Z</time></trkpt><trkpt lat="44.76118006809514" lon="12.204390301282514"><ele>-3.0</ele><time>2026-04-05T13:12:27.998Z</time></trkpt><trkpt lat="44.76119156009742" lon="12.204103154133824"><ele>-3.0</ele><time>2026-04-05T13:12:28.998Z</time></trkpt><trkpt lat="44.761205699129064" lon="12.20381472826935"><ele>-3.0</ele><time>2026-04-05T13:12:29.998Z</time></trkpt><trkpt lat="44.76122618991268" lon="12.203518301749245"><ele>-3.0</ele><time>2026-04-05T13:12:30.998Z</time></trkpt><trkpt lat="44.76124601685543" lon="12.203216431975594"><ele>-3.0</ele><time>2026-04-05T13:12:31.998Z</time></trkpt><trkpt lat="44.76126619071444" lon="12.20290955706929"><ele>-3.0</ele><time>2026-04-05T13:12:32.998Z</time></trkpt><trkpt lat="44.761287457981126" lon="12.202595644536341"><ele>-3.0</ele><time>2026-04-05T13:12:33.998Z</time></trkpt><trkpt lat="44.76130921073791" lon="12.202286344282934"><ele>-3.0</ele><time>2026-04-05T13:12:34.998Z</time></trkpt><trkpt lat="44.76132898420819" lon="12.201985561599232"><ele>-3.0</ele><time>2026-04-05T13:12:35.998Z</time></trkpt><trkpt lat="44.76134803263297" lon="12.201691873912745"><ele>-3.0</ele><time>2026-04-05T13:12:36.998Z</time></trkpt><trkpt lat="44.76136472530435" lon="12.201402042216282"><ele>-3.0</ele><time>2026-04-05T13:12:37.998Z</time></trkpt><trkpt lat="44.76138732537052" lon="12.201110586691975"><ele>-3.0</ele><time>2026-04-05T13:12:38.998Z</time></trkpt><trkpt lat="44.761407073456354" lon="12.200815601536569"><ele>-3.0</ele><time>2026-04-05T13:12:39.998Z</time></trkpt><trkpt lat="44.76142454473546" lon="12.20052161275807"><ele>-3.0</ele><time>2026-04-05T13:12:40.998Z</time></trkpt><trkpt lat="44.76144130781707" lon="12.20023422885193"><ele>-2.6666666666666665</ele><time>2026-04-05T13:12:41.998Z</time></trkpt><trkpt lat="44.76145870291564" lon="12.199952772866524"><ele>-2.333333333333333</ele><time>2026-04-05T13:12:42.998Z</time></trkpt><trkpt lat="44.761476307212654" lon="12.19967713506176"><ele>-2.0</ele><time>2026-04-05T13:12:43.998Z</time></trkpt><trkpt lat="44.76149361128392" lon="12.19940103989152"><ele>-2.0</ele><time>2026-04-05T13:12:44.998Z</time></trkpt><trkpt lat="44.76151099333533" lon="12.19912068005642"><ele>-2.0</ele><time>2026-04-05T13:12:45.998Z</time></trkpt><trkpt lat="44.76152839829394" lon="12.19884178657974"><ele>-2.0</ele><time>2026-04-05T13:12:46.998Z</time></trkpt><trkpt lat="44.76154532761594" lon="12.198565720591128"><ele>-2.0</ele><time>2026-04-05T13:12:47.998Z</time></trkpt><trkpt lat="44.76156394491468" lon="12.198296735080387"><ele>-2.0</ele><time>2026-04-05T13:12:48.998Z</time></trkpt><trkpt lat="44.761581647248036" lon="12.19803699707351"><ele>-2.0</ele><time>2026-04-05T13:12:49.998Z</time></trkpt><trkpt lat="44.76159913287718" lon="12.197788524353602"><ele>-2.0</ele><time>2026-04-05T13:12:50.998Z</time></trkpt><trkpt lat="44.761613761912805" lon="12.19755526130158"><ele>-2.0</ele><time>2026-04-05T13:12:51.998Z</time></trkpt><trkpt lat="44.76162764923682" lon="12.19732620821154"><ele>-2.0</ele><time>2026-04-05T13:12:52.998Z</time></trkpt><trkpt lat="44.76164159557646" lon="12.197087459705605"><ele>-2.0</ele><time>2026-04-05T13:12:53.998Z</time></trkpt><trkpt lat="44.76165794404148" lon="12.196840557478666"><ele>-2.0</ele><time>2026-04-05T13:12:54.998Z</time></trkpt><trkpt lat="44.76167636656622" lon="12.196586629374467"><ele>-2.0</ele><time>2026-04-05T13:12:55.998Z</time></trkpt><trkpt lat="44.76169230377974" lon="12.1963305666159"><ele>-2.0</ele><time>2026-04-05T13:12:56.999Z</time></trkpt><trkpt lat="44.76170803608165" lon="12.19607795328752"><ele>-2.0</ele><time>2026-04-05T13:12:57.999Z</time></trkpt><trkpt lat="44.761723128254026" lon="12.195830689770961"><ele>-2.0</ele><time>2026-04-05T13:12:58.999Z</time></trkpt><trkpt lat="44.76174018980073" lon="12.195591592529752"><ele>-2.333333333333333</ele><time>2026-04-05T13:12:59.999Z</time></trkpt><trkpt lat="44.761754059859356" lon="12.195355551322791"><ele>-2.6666666666666665</ele><time>2026-04-05T13:13:01Z</time></trkpt><trkpt lat="44.76176825756226" lon="12.195122415278613"><ele>-3.0</ele><time>2026-04-05T13:13:02Z</time></trkpt><trkpt lat="44.761784151161265" lon="12.194886388910763"><ele>-2.6666666666666665</ele><time>2026-04-05T13:13:02.999Z</time></trkpt><trkpt lat="44.761796987442374" lon="12.19464561276073"><ele>-2.333333333333333</ele><time>2026-04-05T13:13:04Z</time></trkpt><trkpt lat="44.76181199505118" lon="12.19441260228696"><ele>-2.0</ele><time>2026-04-05T13:13:05Z</time></trkpt><trkpt lat="44.761820959276996" lon="12.194184450686453"><ele>-2.0</ele><time>2026-04-05T13:13:05.999Z</time></trkpt><trkpt lat="44.76183076468286" lon="12.193962692079253"><ele>-2.0</ele><time>2026-04-05T13:13:07Z</time></trkpt><trkpt lat="44.76184095371927" lon="12.193747471171775"><ele>-2.0</ele><time>2026-04-05T13:13:08Z</time></trkpt><trkpt lat="44.7618488583728" lon="12.193552770036463"><ele>-2.0</ele><time>2026-04-05T13:13:09Z</time></trkpt><trkpt lat="44.761861372663375" lon="12.193364605621136"><ele>-1.75</ele><time>2026-04-05T13:13:09.999Z</time></trkpt><trkpt lat="44.76187233921142" lon="12.1931867066409"><ele>-1.5</ele><time>2026-04-05T13:13:10.999Z</time></trkpt><trkpt lat="44.76188340831236" lon="12.193023337699834"><ele>-1.25</ele><time>2026-04-05T13:13:11.999Z</time></trkpt><trkpt lat="44.76190210045697" lon="12.192870034296968"><ele>-1.0</ele><time>2026-04-05T13:13:12.999Z</time></trkpt><trkpt lat="44.761910939764114" lon="12.192732123138688"><ele>-0.9999999999999999</ele><time>2026-04-05T13:13:13.999Z</time></trkpt><trkpt lat="44.761912672826156" lon="12.19262862400972"><ele>-1.0</ele><time>2026-04-05T13:13:14.999Z</time></trkpt><trkpt lat="44.761923708850695" lon="12.192481655287631"><ele>-1.0</ele><time>2026-04-05T13:13:16.999Z</time></trkpt><trkpt lat="44.76192910780701" lon="12.192382256875439"><ele>-1.0</ele><time>2026-04-05T13:13:18.999Z</time></trkpt><trkpt lat="44.76194825856785" lon="12.19225807916302"><ele>-0.9999999999999999</ele><time>2026-04-05T13:13:21.999Z</time></trkpt><trkpt lat="44.76199882916547" lon="12.192170764110404"><ele>-1.0</ele><time>2026-04-05T13:13:23.999Z</time></trkpt><trkpt lat="44.76205940128556" lon="12.192131448244254"><ele>-0.5</ele><time>2026-04-05T13:13:24.999Z</time></trkpt><trkpt lat="44.76214905172832" lon="12.1920783182342"><ele>0.0</ele><time>2026-04-05T13:13:25.999Z</time></trkpt><trkpt lat="44.76225914635331" lon="12.192016954382701"><ele>0.5</ele><time>2026-04-05T13:13:26.999Z</time></trkpt><trkpt lat="44.76237983533279" lon="12.191949403593494"><ele>1.0</ele><time>2026-04-05T13:13:27.999Z</time></trkpt><trkpt lat="44.7625151554168" lon="12.191886364458904"><ele>1.0</ele><time>2026-04-05T13:13:28.999Z</time></trkpt><trkpt lat="44.76266305382965" lon="12.191825306255064"><ele>1.0</ele><time>2026-04-05T13:13:29.999Z</time></trkpt><trkpt lat="44.76282547814901" lon="12.191787949012427"><ele>1.0</ele><time>2026-04-05T13:13:30.999Z</time></trkpt><trkpt lat="44.76298081125233" lon="12.191713282541192"><ele>0.3333333333333333</ele><time>2026-04-05T13:13:31.999Z</time></trkpt><trkpt lat="44.763137712559704" lon="12.191637863174996"><ele>-0.3333333333333333</ele><time>2026-04-05T13:13:32.999Z</time></trkpt><trkpt lat="44.7632925883479" lon="12.191563176262987"><ele>-1.0</ele><time>2026-04-05T13:13:33.999Z</time></trkpt><trkpt lat="44.76344398318881" lon="12.191490247640923"><ele>-1.0</ele><time>2026-04-05T13:13:34.999Z</time></trkpt><trkpt lat="44.76360456328769" lon="12.191412894342355"><ele>-1.0</ele><time>2026-04-05T13:13:35.999Z</time></trkpt><trkpt lat="44.76376219889554" lon="12.191336959451212"><ele>-1.0</ele><time>2026-04-05T13:13:36.999Z</time></trkpt><trkpt lat="44.76391610170108" lon="12.191262824613734"><ele>-1.0</ele><time>2026-04-05T13:13:37.999Z</time></trkpt><trkpt lat="44.76407154307041" lon="12.191187946663709"><ele>-1.0</ele><time>2026-04-05T13:13:38.999Z</time></trkpt><trkpt lat="44.76422107516557" lon="12.191115915317992"><ele>-1.0</ele><time>2026-04-05T13:13:39.999Z</time></trkpt><trkpt lat="44.76436864311176" lon="12.191044830145607"><ele>-1.3333333333333333</ele><time>2026-04-05T13:13:40.999Z</time></trkpt><trkpt lat="44.76451006727177" lon="12.190976704504934"><ele>-1.6666666666666665</ele><time>2026-04-05T13:13:41.999Z</time></trkpt><trkpt lat="44.76466096062371" lon="12.190904017403245"><ele>-2.0</ele><time>2026-04-05T13:13:42.999Z</time></trkpt><trkpt lat="44.76481680126715" lon="12.19082894707451"><ele>-2.0</ele><time>2026-04-05T13:13:43.999Z</time></trkpt><trkpt lat="44.764976222476626" lon="12.19075215210394"><ele>-2.0</ele><time>2026-04-05T13:13:44.999Z</time></trkpt><trkpt lat="44.76513690365856" lon="12.190674750072564"><ele>-2.0</ele><time>2026-04-05T13:13:45.999Z</time></trkpt><trkpt lat="44.765297819332986" lon="12.19059723517524"><ele>-2.0</ele><time>2026-04-05T13:13:46.999Z</time></trkpt><trkpt lat="44.76545160091734" lon="12.190499371947842"><ele>-2.0</ele><time>2026-04-05T13:13:47.999Z</time></trkpt><trkpt lat="44.765616511141964" lon="12.190438294391852"><ele>-2.0</ele><time>2026-04-05T13:13:48.999Z</time></trkpt><trkpt lat="44.76576840872234" lon="12.190364072175257"><ele>-2.0</ele><time>2026-04-05T13:13:49.999Z</time></trkpt><trkpt lat="44.76592602567897" lon="12.190290359299963"><ele>-2.0</ele><time>2026-04-05T13:13:50.999Z</time></trkpt><trkpt lat="44.766080653691695" lon="12.190209848927744"><ele>-2.0</ele><time>2026-04-05T13:13:51.999Z</time></trkpt><trkpt lat="44.76624981340707" lon="12.190143876888941"><ele>-1.6666666666666665</ele><time>2026-04-05T13:13:52.999Z</time></trkpt><trkpt lat="44.76641125711367" lon="12.190068527970316"><ele>-1.3333333333333333</ele><time>2026-04-05T13:13:53.999Z</time></trkpt><trkpt lat="44.76657099211758" lon="12.18999117228641"><ele>-1.0</ele><time>2026-04-05T13:13:54.999Z</time></trkpt><trkpt lat="44.766731054976766" lon="12.189917122797482"><ele>-1.0</ele><time>2026-04-05T13:13:55.999Z</time></trkpt><trkpt lat="44.76688322491519" lon="12.189846552776755"><ele>-1.0</ele><time>2026-04-05T13:13:56.999Z</time></trkpt><trkpt lat="44.767036242313296" lon="12.18976961827323"><ele>-1.0</ele><time>2026-04-05T13:13:57.999Z</time></trkpt><trkpt lat="44.76719960739636" lon="12.18969357948623"><ele>-1.0</ele><time>2026-04-05T13:13:58.999Z</time></trkpt><trkpt lat="44.76738300893274" lon="12.189597488830543"><ele>-1.0</ele><time>2026-04-05T13:13:59.999Z</time></trkpt><trkpt lat="44.767588595067764" lon="12.189484303308383"><ele>-1.0</ele><time>2026-04-05T13:14:00.999Z</time></trkpt><trkpt lat="44.767814954593625" lon="12.189369546203782"><ele>-0.5</ele><time>2026-04-05T13:14:01.998Z</time></trkpt><trkpt lat="44.768049960044465" lon="12.1892575622615"><ele>0.0</ele><time>2026-04-05T13:14:02.998Z</time></trkpt><trkpt lat="44.768285423624945" lon="12.189143666769343"><ele>0.0</ele><time>2026-04-05T13:14:03.998Z</time></trkpt><trkpt lat="44.76851970069239" lon="12.1890350776357"><ele>0.0</ele><time>2026-04-05T13:14:04.998Z</time></trkpt><trkpt lat="44.768753871888315" lon="12.18891623930706"><ele>1.0</ele><time>2026-04-05T13:14:05.998Z</time></trkpt><trkpt lat="44.76898483531329" lon="12.188792922452409"><ele>2.0</ele><time>2026-04-05T13:14:06.998Z</time></trkpt><trkpt lat="44.769221210972766" lon="12.188701557707923"><ele>1.0</ele><time>2026-04-05T13:14:07.998Z</time></trkpt><trkpt lat="44.769443056221135" lon="12.188593989749478"><ele>0.0</ele><time>2026-04-05T13:14:08.998Z</time></trkpt><trkpt lat="44.76966070840276" lon="12.18848763654827"><ele>0.0</ele><time>2026-04-05T13:14:09.998Z</time></trkpt><trkpt lat="44.76986775535364" lon="12.188387987952256"><ele>0.0</ele><time>2026-04-05T13:14:10.998Z</time></trkpt><trkpt lat="44.77007455413867" lon="12.188293623596858"><ele>0.0</ele><time>2026-04-05T13:14:11.998Z</time></trkpt><trkpt lat="44.77028217520451" lon="12.18820418893146"><ele>0.6666666666666666</ele><time>2026-04-05T13:14:12.998Z</time></trkpt><trkpt lat="44.77049223288859" lon="12.188115787789986"><ele>1.3333333333333333</ele><time>2026-04-05T13:14:13.998Z</time></trkpt><trkpt lat="44.77070301433329" lon="12.188025862644809"><ele>2.0</ele><time>2026-04-05T13:14:14.998Z</time></trkpt><trkpt lat="44.770913123122206" lon="12.187935446483422"><ele>1.0</ele><time>2026-04-05T13:14:15.998Z</time></trkpt><trkpt lat="44.771124336943956" lon="12.18784483045569"><ele>0.0</ele><time>2026-04-05T13:14:16.998Z</time></trkpt><trkpt lat="44.77133831464399" lon="12.187755694196973"><ele>-1.0</ele><time>2026-04-05T13:14:17.998Z</time></trkpt><trkpt lat="44.771555840587396" lon="12.187665185075078"><ele>-1.0</ele><time>2026-04-05T13:14:18.998Z</time></trkpt><trkpt lat="44.771767215661946" lon="12.187577328673227"><ele>-1.0</ele><time>2026-04-05T13:14:19.998Z</time></trkpt><trkpt lat="44.7719727961717" lon="12.187490972447234"><ele>-1.0</ele><time>2026-04-05T13:14:20.998Z</time></trkpt><trkpt lat="44.772177047770754" lon="12.187404579784785"><ele>-1.0</ele><time>2026-04-05T13:14:21.998Z</time></trkpt><trkpt lat="44.772386321549504" lon="12.187316062915926"><ele>-1.0</ele><time>2026-04-05T13:14:22.998Z</time></trkpt><trkpt lat="44.772595486370456" lon="12.187230613089334"><ele>-1.0</ele><time>2026-04-05T13:14:23.998Z</time></trkpt><trkpt lat="44.77280554863623" lon="12.187148166379192"><ele>-1.0</ele><time>2026-04-05T13:14:24.998Z</time></trkpt><trkpt lat="44.77301554970627" lon="12.18706838105703"><ele>-1.0</ele><time>2026-04-05T13:14:25.998Z</time></trkpt><trkpt lat="44.773220150170715" lon="12.186993734397678"><ele>-1.0</ele><time>2026-04-05T13:14:26.998Z</time></trkpt><trkpt lat="44.77343094401725" lon="12.186919346824943"><ele>-0.3333333333333333</ele><time>2026-04-05T13:14:27.998Z</time></trkpt><trkpt lat="44.77363922366599" lon="12.186845298981742"><ele>0.3333333333333333</ele><time>2026-04-05T13:14:28.998Z</time></trkpt><trkpt lat="44.77384528866569" lon="12.18677148892751"><ele>1.0</ele><time>2026-04-05T13:14:29.998Z</time></trkpt><trkpt lat="44.77405146698142" lon="12.18669769591613"><ele>1.0</ele><time>2026-04-05T13:14:30.998Z</time></trkpt><trkpt lat="44.774260161654425" lon="12.186624102909335"><ele>1.0</ele><time>2026-04-05T13:14:31.998Z</time></trkpt><trkpt lat="44.77447106506104" lon="12.186549731051182"><ele>1.0</ele><time>2026-04-05T13:14:32.998Z</time></trkpt><trkpt lat="44.77467396752962" lon="12.186478180609864"><ele>0.6666666666666666</ele><time>2026-04-05T13:14:33.998Z</time></trkpt><trkpt lat="44.774866207391014" lon="12.186370156637446"><ele>0.3333333333333333</ele><time>2026-04-05T13:14:34.998Z</time></trkpt><trkpt lat="44.775056650254825" lon="12.18630716339847"><ele>0.0</ele><time>2026-04-05T13:14:35.998Z</time></trkpt><trkpt lat="44.775257185528744" lon="12.186232368861473"><ele>0.0</ele><time>2026-04-05T13:14:36.998Z</time></trkpt><trkpt lat="44.77544155545221" lon="12.186159870944264"><ele>0.0</ele><time>2026-04-05T13:14:37.998Z</time></trkpt><trkpt lat="44.77562721260588" lon="12.186139398994776"><ele>0.0</ele><time>2026-04-05T13:14:38.998Z</time></trkpt><trkpt lat="44.77580690641093" lon="12.186075204415056"><ele>0.0</ele><time>2026-04-05T13:14:39.998Z</time></trkpt><trkpt lat="44.77598201824608" lon="12.186012646701334"><ele>0.0</ele><time>2026-04-05T13:14:40.998Z</time></trkpt><trkpt lat="44.7761562282317" lon="12.185950411172572"><ele>0.0</ele><time>2026-04-05T13:14:41.998Z</time></trkpt><trkpt lat="44.776331921927465" lon="12.18588764560006"><ele>0.0</ele><time>2026-04-05T13:14:42.998Z</time></trkpt><trkpt lat="44.77650614387394" lon="12.185825503964715"><ele>0.0</ele><time>2026-04-05T13:14:43.998Z</time></trkpt><trkpt lat="44.776679901698316" lon="12.18576454696383"><ele>0.0</ele><time>2026-04-05T13:14:44.998Z</time></trkpt><trkpt lat="44.77685515880344" lon="12.185703063990683"><ele>-0.3333333333333333</ele><time>2026-04-05T13:14:45.998Z</time></trkpt><trkpt lat="44.77704596022808" lon="12.185636127842223"><ele>-0.6666666666666666</ele><time>2026-04-05T13:14:46.998Z</time></trkpt><trkpt lat="44.777246732284894" lon="12.185565693817946"><ele>-1.0</ele><time>2026-04-05T13:14:47.998Z</time></trkpt><trkpt lat="44.7774614225704" lon="12.185490379638068"><ele>0.0</ele><time>2026-04-05T13:14:48.998Z</time></trkpt><trkpt lat="44.77768801959501" lon="12.1854108887511"><ele>1.0</ele><time>2026-04-05T13:14:49.998Z</time></trkpt><trkpt lat="44.77793668990613" lon="12.185321224065106"><ele>1.0</ele><time>2026-04-05T13:14:50.998Z</time></trkpt><trkpt lat="44.778198776226915" lon="12.18520446191542"><ele>1.0</ele><time>2026-04-05T13:14:51.998Z</time></trkpt><trkpt lat="44.77847164764669" lon="12.185118914134218"><ele>0.0</ele><time>2026-04-05T13:14:52.998Z</time></trkpt><trkpt lat="44.77874213629882" lon="12.185027556756287"><ele>-1.0</ele><time>2026-04-05T13:14:53.998Z</time></trkpt><trkpt lat="44.77901601407802" lon="12.18493187654421"><ele>-0.5</ele><time>2026-04-05T13:14:54.998Z</time></trkpt><trkpt lat="44.77929170323937" lon="12.184825230673383"><ele>0.0</ele><time>2026-04-05T13:14:55.998Z</time></trkpt><trkpt lat="44.77955903811745" lon="12.184728380434231"><ele>-1.5</ele><time>2026-04-05T13:14:56.998Z</time></trkpt><trkpt lat="44.77982881711867" lon="12.184640892010805"><ele>-3.0</ele><time>2026-04-05T13:14:57.998Z</time></trkpt><trkpt lat="44.7800982812952" lon="12.184550944298433"><ele>-2.5</ele><time>2026-04-05T13:14:58.998Z</time></trkpt><trkpt lat="44.78036382413877" lon="12.184450333835576"><ele>-2.0</ele><time>2026-04-05T13:14:59.998Z</time></trkpt><trkpt lat="44.78062532634582" lon="12.184363584819762"><ele>-2.0</ele><time>2026-04-05T13:15:00.998Z</time></trkpt><trkpt lat="44.78088354945108" lon="12.184263396882592"><ele>-2.0</ele><time>2026-04-05T13:15:01.998Z</time></trkpt><trkpt lat="44.781137069116575" lon="12.184156647787233"><ele>-1.5</ele><time>2026-04-05T13:15:02.999Z</time></trkpt><trkpt lat="44.78137794018864" lon="12.184049740362282"><ele>-1.0</ele><time>2026-04-05T13:15:03.999Z</time></trkpt><trkpt lat="44.78161533121112" lon="12.183946890825991"><ele>-1.0</ele><time>2026-04-05T13:15:04.999Z</time></trkpt><trkpt lat="44.78184671250067" lon="12.183847303983315"><ele>-1.0</ele><time>2026-04-05T13:15:05.999Z</time></trkpt><trkpt lat="44.782077816265286" lon="12.183740274877485"><ele>-1.0</ele><time>2026-04-05T13:15:06.999Z</time></trkpt><trkpt lat="44.78230713464912" lon="12.183632296458434"><ele>-1.0</ele><time>2026-04-05T13:15:07.999Z</time></trkpt><trkpt lat="44.78252974878871" lon="12.183518831316574"><ele>-1.5</ele><time>2026-04-05T13:15:09Z</time></trkpt><trkpt lat="44.78275611779532" lon="12.183392224492353"><ele>-2.0</ele><time>2026-04-05T13:15:09.999Z</time></trkpt><trkpt lat="44.78298438283557" lon="12.183274622335285"><ele>-0.5</ele><time>2026-04-05T13:15:10.999Z</time></trkpt><trkpt lat="44.78321938863521" lon="12.183151741531354"><ele>1.0</ele><time>2026-04-05T13:15:11.999Z</time></trkpt><trkpt lat="44.783456145178384" lon="12.183033601855064"><ele>0.0</ele><time>2026-04-05T13:15:12.999Z</time></trkpt><trkpt lat="44.78369587590039" lon="12.182917475978421"><ele>-1.0</ele><time>2026-04-05T13:15:13.999Z</time></trkpt><trkpt lat="44.78393526230431" lon="12.182807565813492"><ele>-1.0</ele><time>2026-04-05T13:15:14.999Z</time></trkpt><trkpt lat="44.78417305843377" lon="12.182707724980293"><ele>-1.0</ele><time>2026-04-05T13:15:16Z</time></trkpt><trkpt lat="44.78440839359754" lon="12.182611044573585"><ele>-0.5</ele><time>2026-04-05T13:15:17Z</time></trkpt><trkpt lat="44.78463339006209" lon="12.182517703648287"><ele>0.0</ele><time>2026-04-05T13:15:18Z</time></trkpt><trkpt lat="44.78485542449548" lon="12.18243718775717"><ele>0.0</ele><time>2026-04-05T13:15:19Z</time></trkpt><trkpt lat="44.785077763277855" lon="12.182367706762307"><ele>0.0</ele><time>2026-04-05T13:15:20Z</time></trkpt><trkpt lat="44.785295420594615" lon="12.182302433281817"><ele>0.3333333333333333</ele><time>2026-04-05T13:15:21Z</time></trkpt><trkpt lat="44.78550553406785" lon="12.182241697826285"><ele>0.6666666666666666</ele><time>2026-04-05T13:15:22Z</time></trkpt><trkpt lat="44.78569630952049" lon="12.182189207005486"><ele>1.0</ele><time>2026-04-05T13:15:23Z</time></trkpt><trkpt lat="44.78604680498172" lon="12.18209307737264"><ele>1.0</ele><time>2026-04-05T13:15:25Z</time></trkpt><trkpt lat="44.78620973837603" lon="12.182045081377556"><ele>1.0</ele><time>2026-04-05T13:15:26Z</time></trkpt><trkpt lat="44.78637740767851" lon="12.181998875363744"><ele>1.0</ele><time>2026-04-05T13:15:26.999Z</time></trkpt><trkpt lat="44.78654420804789" lon="12.181945461090384"><ele>1.0</ele><time>2026-04-05T13:15:27.999Z</time></trkpt><trkpt lat="44.78671269800225" lon="12.181891623891513"><ele>1.0</ele><time>2026-04-05T13:15:28.999Z</time></trkpt><trkpt lat="44.786876159330845" lon="12.181839144874948"><ele>1.0</ele><time>2026-04-05T13:15:29.999Z</time></trkpt><trkpt lat="44.78703828685987" lon="12.181798135187684"><ele>1.0</ele><time>2026-04-05T13:15:30.999Z</time></trkpt><trkpt lat="44.78719377256181" lon="12.1817591569778"><ele>1.0</ele><time>2026-04-05T13:15:31.999Z</time></trkpt><trkpt lat="44.787346167569225" lon="12.181721189771686"><ele>1.0</ele><time>2026-04-05T13:15:32.999Z</time></trkpt><trkpt lat="44.78751034380775" lon="12.181682628971409"><ele>0.0</ele><time>2026-04-05T13:15:33.999Z</time></trkpt><trkpt lat="44.78768189327745" lon="12.181642216622043"><ele>-1.0</ele><time>2026-04-05T13:15:34.999Z</time></trkpt><trkpt lat="44.7878639376891" lon="12.181602033229959"><ele>-2.0</ele><time>2026-04-05T13:15:35.999Z</time></trkpt><trkpt lat="44.78805866144005" lon="12.181557759922248"><ele>-2.0</ele><time>2026-04-05T13:15:36.999Z</time></trkpt><trkpt lat="44.78825872700165" lon="12.181498563622911"><ele>-2.0</ele><time>2026-04-05T13:15:37.999Z</time></trkpt><trkpt lat="44.78846445446115" lon="12.181447917243508"><ele>-2.0</ele><time>2026-04-05T13:15:38.999Z</time></trkpt><trkpt lat="44.78867190410042" lon="12.18139007341822"><ele>-1.3333333333333333</ele><time>2026-04-05T13:15:39.999Z</time></trkpt><trkpt lat="44.78886165493297" lon="12.181338561249811"><ele>-0.6666666666666666</ele><time>2026-04-05T13:15:40.999Z</time></trkpt><trkpt lat="44.78903834409444" lon="12.181289368088885"><ele>0.0</ele><time>2026-04-05T13:15:41.999Z</time></trkpt><trkpt lat="44.7892036150892" lon="12.181243723020083"><ele>-0.3333333333333333</ele><time>2026-04-05T13:15:42.999Z</time></trkpt><trkpt lat="44.78935559469451" lon="12.18119749562011"><ele>-0.6666666666666666</ele><time>2026-04-05T13:15:43.999Z</time></trkpt><trkpt lat="44.7895192436895" lon="12.181139032983518"><ele>-1.0</ele><time>2026-04-05T13:15:44.999Z</time></trkpt><trkpt lat="44.789680701116694" lon="12.181081428892567"><ele>-1.0</ele><time>2026-04-05T13:15:45.999Z</time></trkpt><trkpt lat="44.78983968220867" lon="12.181023963532377"><ele>-1.0</ele><time>2026-04-05T13:15:46.999Z</time></trkpt><trkpt lat="44.78999880303681" lon="12.180967150255718"><ele>-1.0</ele><time>2026-04-05T13:15:47.999Z</time></trkpt><trkpt lat="44.79016335192464" lon="12.180904397777432"><ele>-0.6666666666666666</ele><time>2026-04-05T13:15:48.999Z</time></trkpt><trkpt lat="44.79032437585809" lon="12.18084498507142"><ele>-0.3333333333333333</ele><time>2026-04-05T13:15:49.999Z</time></trkpt><trkpt lat="44.790484483326864" lon="12.180779433735623"><ele>0.0</ele><time>2026-04-05T13:15:50.999Z</time></trkpt><trkpt lat="44.790645102907106" lon="12.180724433710633"><ele>0.0</ele><time>2026-04-05T13:15:51.999Z</time></trkpt><trkpt lat="44.79080901549983" lon="12.180664701222353"><ele>0.0</ele><time>2026-04-05T13:15:52.999Z</time></trkpt><trkpt lat="44.79097411798281" lon="12.180595757734093"><ele>0.0</ele><time>2026-04-05T13:15:53.999Z</time></trkpt><trkpt lat="44.79113930411569" lon="12.180525808033556"><ele>0.0</ele><time>2026-04-05T13:15:54.999Z</time></trkpt><trkpt lat="44.79130417040585" lon="12.18046881139433"><ele>0.0</ele><time>2026-04-05T13:15:55.999Z</time></trkpt><trkpt lat="44.791471623006615" lon="12.18045141998612"><ele>0.0</ele><time>2026-04-05T13:15:56.999Z</time></trkpt><trkpt lat="44.7916313022794" lon="12.180401902478765"><ele>0.0</ele><time>2026-04-05T13:15:57.999Z</time></trkpt><trkpt lat="44.79179903082906" lon="12.180353790664507"><ele>0.0</ele><time>2026-04-05T13:15:58.999Z</time></trkpt><trkpt lat="44.79196417406375" lon="12.18031075308662"><ele>0.0</ele><time>2026-04-05T13:15:59.999Z</time></trkpt><trkpt lat="44.79212995433886" lon="12.180269465013579"><ele>0.3333333333333333</ele><time>2026-04-05T13:16:00.999Z</time></trkpt><trkpt lat="44.79230044889363" lon="12.180229781590842"><ele>0.6666666666666666</ele><time>2026-04-05T13:16:01.999Z</time></trkpt><trkpt lat="44.79246839963193" lon="12.180195505887497"><ele>1.0</ele><time>2026-04-05T13:16:02.999Z</time></trkpt><trkpt lat="44.79263759504986" lon="12.180163175613018"><ele>0.3333333333333333</ele><time>2026-04-05T13:16:03.999Z</time></trkpt><trkpt lat="44.792797683326135" lon="12.180132963291683"><ele>-0.3333333333333333</ele><time>2026-04-05T13:16:04.999Z</time></trkpt><trkpt lat="44.792953727583324" lon="12.180103514168461"><ele>-1.0</ele><time>2026-04-05T13:16:05.999Z</time></trkpt><trkpt lat="44.79310553073603" lon="12.180074865440178"><ele>-1.0</ele><time>2026-04-05T13:16:06.999Z</time></trkpt><trkpt lat="44.79326321160994" lon="12.1800451074494"><ele>-1.0</ele><time>2026-04-05T13:16:07.999Z</time></trkpt><trkpt lat="44.793427824218284" lon="12.180014041281725"><ele>-1.0</ele><time>2026-04-05T13:16:08.999Z</time></trkpt><trkpt lat="44.79358341995081" lon="12.179984435965823"><ele>-1.3333333333333333</ele><time>2026-04-05T13:16:09.999Z</time></trkpt><trkpt lat="44.79374012688466" lon="12.179954111083703"><ele>-1.6666666666666665</ele><time>2026-04-05T13:16:10.999Z</time></trkpt><trkpt lat="44.79390414303656" lon="12.179922371768273"><ele>-2.0</ele><time>2026-04-05T13:16:11.999Z</time></trkpt><trkpt lat="44.794074322653316" lon="12.17988943974304"><ele>-2.0</ele><time>2026-04-05T13:16:12.999Z</time></trkpt><trkpt lat="44.79424242374214" lon="12.179856362591105"><ele>-2.0</ele><time>2026-04-05T13:16:13.999Z</time></trkpt><trkpt lat="44.79440892271111" lon="12.17982273650494"><ele>-2.0</ele><time>2026-04-05T13:16:14.999Z</time></trkpt><trkpt lat="44.79457309000752" lon="12.179789581325345"><ele>-2.0</ele><time>2026-04-05T13:16:15.999Z</time></trkpt><trkpt lat="44.79474001036963" lon="12.179755961039177"><ele>-2.0</ele><time>2026-04-05T13:16:16.999Z</time></trkpt><trkpt lat="44.79490328450307" lon="12.179724301235703"><ele>-2.0</ele><time>2026-04-05T13:16:17.999Z</time></trkpt><trkpt lat="44.795062809229336" lon="12.179693368462459"><ele>-2.333333333333333</ele><time>2026-04-05T13:16:18.999Z</time></trkpt><trkpt lat="44.795225704962036" lon="12.179661782033303"><ele>-2.6666666666666665</ele><time>2026-04-05T13:16:19.999Z</time></trkpt><trkpt lat="44.79539287099054" lon="12.179629151327275"><ele>-3.0</ele><time>2026-04-05T13:16:20.999Z</time></trkpt><trkpt lat="44.79556009633867" lon="12.179596495592898"><ele>-3.0</ele><time>2026-04-05T13:16:21.999Z</time></trkpt><trkpt lat="44.79572889565272" lon="12.17956353248315"><ele>-3.0</ele><time>2026-04-05T13:16:22.999Z</time></trkpt><trkpt lat="44.79589698169951" lon="12.179530708679945"><ele>-3.0</ele><time>2026-04-05T13:16:23.999Z</time></trkpt><trkpt lat="44.796060640128886" lon="12.179498264427718"><ele>-3.0</ele><time>2026-04-05T13:16:24.999Z</time></trkpt><trkpt lat="44.7962231565617" lon="12.17946560101521"><ele>-3.0</ele><time>2026-04-05T13:16:25.999Z</time></trkpt><trkpt lat="44.79638574748258" lon="12.179432922606313"><ele>-3.0</ele><time>2026-04-05T13:16:26.999Z</time></trkpt><trkpt lat="44.79654967759899" lon="12.17939997507655"><ele>-3.0</ele><time>2026-04-05T13:16:27.999Z</time></trkpt><trkpt lat="44.79671565088631" lon="12.179366616883048"><ele>-3.0</ele><time>2026-04-05T13:16:28.999Z</time></trkpt><trkpt lat="44.796881178993516" lon="12.179333348162283"><ele>-3.0</ele><time>2026-04-05T13:16:29.999Z</time></trkpt><trkpt lat="44.79704489144398" lon="12.179300617608646"><ele>-2.6666666666666665</ele><time>2026-04-05T13:16:30.999Z</time></trkpt><trkpt lat="44.797206637020224" lon="12.179268484509823"><ele>-2.333333333333333</ele><time>2026-04-05T13:16:31.999Z</time></trkpt><trkpt lat="44.79736972023663" lon="12.179236085686494"><ele>-2.0</ele><time>2026-04-05T13:16:32.999Z</time></trkpt><trkpt lat="44.797535849805726" lon="12.179203081643454"><ele>-1.3333333333333333</ele><time>2026-04-05T13:16:33.999Z</time></trkpt><trkpt lat="44.797699627111676" lon="12.179170544918039"><ele>-0.6666666666666666</ele><time>2026-04-05T13:16:34.999Z</time></trkpt><trkpt lat="44.79785616673074" lon="12.179139446051872"><ele>0.0</ele><time>2026-04-05T13:16:35.999Z</time></trkpt><trkpt lat="44.79800918853149" lon="12.1791091431317"><ele>0.0</ele><time>2026-04-05T13:16:36.999Z</time></trkpt><trkpt lat="44.798161870016266" lon="12.179078994700443"><ele>0.0</ele><time>2026-04-05T13:16:37.999Z</time></trkpt><trkpt lat="44.79831354460902" lon="12.179049045221932"><ele>0.0</ele><time>2026-04-05T13:16:38.999Z</time></trkpt><trkpt lat="44.79846561785634" lon="12.179018649844616"><ele>0.3333333333333333</ele><time>2026-04-05T13:16:39.999Z</time></trkpt><trkpt lat="44.7986197865941" lon="12.178986038922096"><ele>0.6666666666666666</ele><time>2026-04-05T13:16:40.999Z</time></trkpt><trkpt lat="44.79876706807718" lon="12.178958365888581"><ele>1.0</ele><time>2026-04-05T13:16:41.999Z</time></trkpt><trkpt lat="44.79892560551519" lon="12.178932975986083"><ele>1.0</ele><time>2026-04-05T13:16:42.999Z</time></trkpt><trkpt lat="44.799073547123676" lon="12.178914478337854"><ele>1.0</ele><time>2026-04-05T13:16:43.999Z</time></trkpt><trkpt lat="44.79921689475985" lon="12.178897618476144"><ele>1.0</ele><time>2026-04-05T13:16:44.999Z</time></trkpt><trkpt lat="44.79936095368512" lon="12.178884721470776"><ele>1.0</ele><time>2026-04-05T13:16:45.999Z</time></trkpt><trkpt lat="44.79950871376338" lon="12.17887343911147"><ele>0.6666666666666666</ele><time>2026-04-05T13:16:46.999Z</time></trkpt><trkpt lat="44.79966173969487" lon="12.178862640181903"><ele>0.3333333333333333</ele><time>2026-04-05T13:16:47.999Z</time></trkpt><trkpt lat="44.799814674642576" lon="12.178855321452351"><ele>0.0</ele><time>2026-04-05T13:16:48.998Z</time></trkpt><trkpt lat="44.79996597686482" lon="12.17884699025353"><ele>0.0</ele><time>2026-04-05T13:16:49.998Z</time></trkpt><trkpt lat="44.80010788251708" lon="12.178839176462871"><ele>0.0</ele><time>2026-04-05T13:16:50.998Z</time></trkpt><trkpt lat="44.80022991520461" lon="12.178832456943947"><ele>0.0</ele><time>2026-04-05T13:16:51.998Z</time></trkpt><trkpt lat="44.80033282508371" lon="12.178825708504995"><ele>0.0</ele><time>2026-04-05T13:16:52.998Z</time></trkpt><trkpt lat="44.80041900369398" lon="12.178819818625255"><ele>0.0</ele><time>2026-04-05T13:16:53.998Z</time></trkpt><trkpt lat="44.80049765232535" lon="12.178812282466327"><ele>0.0</ele><time>2026-04-05T13:16:54.998Z</time></trkpt><trkpt lat="44.80056341206761" lon="12.178805274540313"><ele>0.0</ele><time>2026-04-05T13:16:55.998Z</time></trkpt><trkpt lat="44.8006293184163" lon="12.178798120704645"><ele>0.0</ele><time>2026-04-05T13:16:56.998Z</time></trkpt><trkpt lat="44.80076122565118" lon="12.178781045312128"><ele>0.0</ele><time>2026-04-05T13:16:58.998Z</time></trkpt><trkpt lat="44.80082655092223" lon="12.17877032200307"><ele>0.0</ele><time>2026-04-05T13:16:59.998Z</time></trkpt><trkpt lat="44.80088606484603" lon="12.178729334046961"><ele>0.0</ele><time>2026-04-05T13:17:01.998Z</time></trkpt><trkpt lat="44.800857354004044" lon="12.178330053848631"><ele>0.0</ele><time>2026-04-05T13:17:02.998Z</time></trkpt><trkpt lat="44.80083569630227" lon="12.178170910179677"><ele>0.0</ele><time>2026-04-05T13:17:03.998Z</time></trkpt><trkpt lat="44.80082754190138" lon="12.17797316654413"><ele>0.0</ele><time>2026-04-05T13:17:04.998Z</time></trkpt><trkpt lat="44.800830213187226" lon="12.177771808005653"><ele>0.0</ele><time>2026-04-05T13:17:05.998Z</time></trkpt><trkpt lat="44.80084497746355" lon="12.177556455681486"><ele>0.0</ele><time>2026-04-05T13:17:06.998Z</time></trkpt><trkpt lat="44.80086813115021" lon="12.17730953191014"><ele>0.0</ele><time>2026-04-05T13:17:07.998Z</time></trkpt><trkpt lat="44.80091799919473" lon="12.177057938175766"><ele>0.0</ele><time>2026-04-05T13:17:08.999Z</time></trkpt><trkpt lat="44.8009382793372" lon="12.176787299079722"><ele>0.0</ele><time>2026-04-05T13:17:09.999Z</time></trkpt><trkpt lat="44.80096173679013" lon="12.176507220541902"><ele>-0.6666666666666666</ele><time>2026-04-05T13:17:10.999Z</time></trkpt><trkpt lat="44.8009901478007" lon="12.176205512459969"><ele>-1.3333333333333333</ele><time>2026-04-05T13:17:11.999Z</time></trkpt><trkpt lat="44.801007907362475" lon="12.175904891949719"><ele>-2.0</ele><time>2026-04-05T13:17:12.999Z</time></trkpt><trkpt lat="44.80103645510592" lon="12.175596597437796"><ele>-2.0</ele><time>2026-04-05T13:17:13.999Z</time></trkpt><trkpt lat="44.80107059788195" lon="12.175291698263422"><ele>-2.0</ele><time>2026-04-05T13:17:14.999Z</time></trkpt><trkpt lat="44.80109787581771" lon="12.174984834270152"><ele>-2.0</ele><time>2026-04-05T13:17:15.999Z</time></trkpt><trkpt lat="44.80112726998313" lon="12.174676807952503"><ele>-2.333333333333333</ele><time>2026-04-05T13:17:16.999Z</time></trkpt><trkpt lat="44.801155574855265" lon="12.174362985523375"><ele>-2.6666666666666665</ele><time>2026-04-05T13:17:18Z</time></trkpt><trkpt lat="44.80118652888727" lon="12.17405084524851"><ele>-3.0</ele><time>2026-04-05T13:17:18.999Z</time></trkpt><trkpt lat="44.80120838638129" lon="12.173735182311448"><ele>-3.0</ele><time>2026-04-05T13:17:19.999Z</time></trkpt><trkpt lat="44.80123127233088" lon="12.173423058098118"><ele>-3.0</ele><time>2026-04-05T13:17:20.999Z</time></trkpt><trkpt lat="44.801270136318706" lon="12.173115069848944"><ele>-3.0</ele><time>2026-04-05T13:17:22Z</time></trkpt><trkpt lat="44.801292644431896" lon="12.172803699437733"><ele>-3.5</ele><time>2026-04-05T13:17:23Z</time></trkpt><trkpt lat="44.8013166605058" lon="12.172473954960745"><ele>-4.0</ele><time>2026-04-05T13:17:24Z</time></trkpt><trkpt lat="44.80134186853936" lon="12.172148474146638"><ele>-4.0</ele><time>2026-04-05T13:17:24.999Z</time></trkpt><trkpt lat="44.80137014917309" lon="12.17181347047826"><ele>-4.0</ele><time>2026-04-05T13:17:25.999Z</time></trkpt><trkpt lat="44.8014010655692" lon="12.171477669985672"><ele>-4.0</ele><time>2026-04-05T13:17:26.999Z</time></trkpt><trkpt lat="44.80142677456875" lon="12.171143571903466"><ele>-4.0</ele><time>2026-04-05T13:17:27.999Z</time></trkpt><trkpt lat="44.80145883075969" lon="12.170807069680869"><ele>-3.5</ele><time>2026-04-05T13:17:28.999Z</time></trkpt><trkpt lat="44.801492563232124" lon="12.170476940495565"><ele>-3.0</ele><time>2026-04-05T13:17:29.999Z</time></trkpt><trkpt lat="44.80152111120993" lon="12.170138552100383"><ele>-2.5</ele><time>2026-04-05T13:17:30.999Z</time></trkpt><trkpt lat="44.80155105743873" lon="12.169795664906916"><ele>-2.0</ele><time>2026-04-05T13:17:31.999Z</time></trkpt><trkpt lat="44.801576061771684" lon="12.169468766770711"><ele>-2.0</ele><time>2026-04-05T13:17:32.999Z</time></trkpt><trkpt lat="44.801606203102644" lon="12.169157819389138"><ele>-2.0</ele><time>2026-04-05T13:17:33.999Z</time></trkpt><trkpt lat="44.80163432754993" lon="12.16885677285513"><ele>-2.0</ele><time>2026-04-05T13:17:34.999Z</time></trkpt><trkpt lat="44.80165487524589" lon="12.168574314021267"><ele>-2.0</ele><time>2026-04-05T13:17:35.999Z</time></trkpt><trkpt lat="44.80166715528908" lon="12.168299673984974"><ele>-2.0</ele><time>2026-04-05T13:17:36.999Z</time></trkpt><trkpt lat="44.80169244861227" lon="12.168035408478767"><ele>-2.0</ele><time>2026-04-05T13:17:37.999Z</time></trkpt><trkpt lat="44.80171142780069" lon="12.167776128721748"><ele>-2.0</ele><time>2026-04-05T13:17:38.999Z</time></trkpt><trkpt lat="44.80173473554848" lon="12.167515124420449"><ele>-2.0</ele><time>2026-04-05T13:17:39.999Z</time></trkpt><trkpt lat="44.801743438391135" lon="12.16727428955669"><ele>-2.0</ele><time>2026-04-05T13:17:40.999Z</time></trkpt><trkpt lat="44.80175556094152" lon="12.167035650939878"><ele>-1.6666666666666665</ele><time>2026-04-05T13:17:41.999Z</time></trkpt><trkpt lat="44.80174592357989" lon="12.166817984545181"><ele>-1.3333333333333333</ele><time>2026-04-05T13:17:42.999Z</time></trkpt><trkpt lat="44.8016872846893" lon="12.166622753308266"><ele>-1.0</ele><time>2026-04-05T13:17:43.999Z</time></trkpt><trkpt lat="44.80160388099175" lon="12.166433701863571"><ele>-2.0</ele><time>2026-04-05T13:17:44.999Z</time></trkpt><trkpt lat="44.80149668271898" lon="12.166269776233506"><ele>-3.0</ele><time>2026-04-05T13:17:45.999Z</time></trkpt><trkpt lat="44.801380582758995" lon="12.16610975622947"><ele>-4.0</ele><time>2026-04-05T13:17:46.999Z</time></trkpt><trkpt lat="44.80123598816867" lon="12.165988526584162"><ele>-4.0</ele><time>2026-04-05T13:17:47.999Z</time></trkpt><trkpt lat="44.801063032113305" lon="12.165916930369916"><ele>-4.0</ele><time>2026-04-05T13:17:48.999Z</time></trkpt><trkpt lat="44.80086502395086" lon="12.165882567632611"><ele>-4.0</ele><time>2026-04-05T13:17:49.999Z</time></trkpt><trkpt lat="44.80065553235981" lon="12.165874054633296"><ele>-3.6666666666666665</ele><time>2026-04-05T13:17:50.999Z</time></trkpt><trkpt lat="44.800439182063656" lon="12.165845822795987"><ele>-3.333333333333333</ele><time>2026-04-05T13:17:51.999Z</time></trkpt><trkpt lat="44.80023260927764" lon="12.165812857393165"><ele>-3.0</ele><time>2026-04-05T13:17:52.999Z</time></trkpt><trkpt lat="44.80003277683794" lon="12.165797660237947"><ele>-3.0</ele><time>2026-04-05T13:17:53.999Z</time></trkpt><trkpt lat="44.799817318301976" lon="12.165788353618638"><ele>-3.0</ele><time>2026-04-05T13:17:54.999Z</time></trkpt><trkpt lat="44.79963503242217" lon="12.165797393367562"><ele>-3.0</ele><time>2026-04-05T13:17:55.999Z</time></trkpt><trkpt lat="44.7994501610112" lon="12.165819556924923"><ele>-3.0</ele><time>2026-04-05T13:17:56.999Z</time></trkpt><trkpt lat="44.7992670930851" lon="12.16585437944352"><ele>-3.0</ele><time>2026-04-05T13:17:57.999Z</time></trkpt><trkpt lat="44.79907735805471" lon="12.1658897736144"><ele>-3.0</ele><time>2026-04-05T13:17:58.999Z</time></trkpt><trkpt lat="44.79892051918719" lon="12.165934809278118"><ele>-3.0</ele><time>2026-04-05T13:17:59.999Z</time></trkpt><trkpt lat="44.79874201373187" lon="12.165976606692805"><ele>-3.0</ele><time>2026-04-05T13:18:00.999Z</time></trkpt><trkpt lat="44.798566987892585" lon="12.166009356545551"><ele>-3.0</ele><time>2026-04-05T13:18:01.999Z</time></trkpt><trkpt lat="44.798424148379354" lon="12.166055021054158"><ele>-2.6666666666666665</ele><time>2026-04-05T13:18:02.999Z</time></trkpt><trkpt lat="44.79826269850243" lon="12.166086736424226"><ele>-2.333333333333333</ele><time>2026-04-05T13:18:03.999Z</time></trkpt><trkpt lat="44.79808505186754" lon="12.166110850101845"><ele>-2.0</ele><time>2026-04-05T13:18:04.999Z</time></trkpt><trkpt lat="44.797907472000894" lon="12.166119290443921"><ele>-2.0</ele><time>2026-04-05T13:18:05.999Z</time></trkpt><trkpt lat="44.79772191170461" lon="12.166124299196051"><ele>-2.0</ele><time>2026-04-05T13:18:06.999Z</time></trkpt><trkpt lat="44.79751879198723" lon="12.166092127785461"><ele>-2.0</ele><time>2026-04-05T13:18:07.999Z</time></trkpt><trkpt lat="44.797304832861485" lon="12.166044478332013"><ele>-1.5</ele><time>2026-04-05T13:18:08.999Z</time></trkpt><trkpt lat="44.797076774495466" lon="12.165993550968714"><ele>-1.0</ele><time>2026-04-05T13:18:09.999Z</time></trkpt><trkpt lat="44.79684794808579" lon="12.165944815177"><ele>-1.5</ele><time>2026-04-05T13:18:10.999Z</time></trkpt><trkpt lat="44.79661985206167" lon="12.165885410253692"><ele>-2.0</ele><time>2026-04-05T13:18:11.999Z</time></trkpt><trkpt lat="44.796402966389806" lon="12.165833945124366"><ele>-2.0</ele><time>2026-04-05T13:18:12.999Z</time></trkpt><trkpt lat="44.79619250382875" lon="12.165791518008481"><ele>-2.0</ele><time>2026-04-05T13:18:13.999Z</time></trkpt><trkpt lat="44.79599147727637" lon="12.165740882846235"><ele>-2.0</ele><time>2026-04-05T13:18:14.999Z</time></trkpt><trkpt lat="44.79579573675218" lon="12.165706773718595"><ele>-2.333333333333333</ele><time>2026-04-05T13:18:15.999Z</time></trkpt><trkpt lat="44.795604045998275" lon="12.165670129843798"><ele>-2.6666666666666665</ele><time>2026-04-05T13:18:16.999Z</time></trkpt><trkpt lat="44.79540457128143" lon="12.165647474839034"><ele>-3.0</ele><time>2026-04-05T13:18:17.999Z</time></trkpt><trkpt lat="44.79520853717097" lon="12.165625194079729"><ele>-2.6666666666666665</ele><time>2026-04-05T13:18:18.999Z</time></trkpt><trkpt lat="44.79501274528609" lon="12.165602457967545"><ele>-2.333333333333333</ele><time>2026-04-05T13:18:19.999Z</time></trkpt><trkpt lat="44.79482836058629" lon="12.16557791022462"><ele>-2.0</ele><time>2026-04-05T13:18:20.999Z</time></trkpt><trkpt lat="44.79464042207233" lon="12.165552071412359"><ele>-2.0</ele><time>2026-04-05T13:18:21.999Z</time></trkpt><trkpt lat="44.794444824703795" lon="12.165538737551442"><ele>-2.0</ele><time>2026-04-05T13:18:22.999Z</time></trkpt><trkpt lat="44.79425314032957" lon="12.165521608078205"><ele>-2.0</ele><time>2026-04-05T13:18:23.999Z</time></trkpt><trkpt lat="44.79406832272472" lon="12.165492824840806"><ele>-2.0</ele><time>2026-04-05T13:18:24.999Z</time></trkpt><trkpt lat="44.793883168600594" lon="12.165453075532891"><ele>-2.0</ele><time>2026-04-05T13:18:25.999Z</time></trkpt><trkpt lat="44.79367660593658" lon="12.165400064491028"><ele>-2.0</ele><time>2026-04-05T13:18:26.999Z</time></trkpt><trkpt lat="44.793476927549634" lon="12.16532675605411"><ele>-2.0</ele><time>2026-04-05T13:18:27.999Z</time></trkpt><trkpt lat="44.793281035810246" lon="12.165248390133495"><ele>-2.0</ele><time>2026-04-05T13:18:28.999Z</time></trkpt><trkpt lat="44.793083136943395" lon="12.165169052851521"><ele>-2.0</ele><time>2026-04-05T13:18:29.999Z</time></trkpt><trkpt lat="44.792887135102774" lon="12.165087053519862"><ele>-2.0</ele><time>2026-04-05T13:18:30.999Z</time></trkpt><trkpt lat="44.792685322773764" lon="12.165009962680461"><ele>-2.0</ele><time>2026-04-05T13:18:31.999Z</time></trkpt><trkpt lat="44.792474463800616" lon="12.164932814714406"><ele>-2.0</ele><time>2026-04-05T13:18:32.999Z</time></trkpt><trkpt lat="44.79226481495792" lon="12.164847546660242"><ele>-2.333333333333333</ele><time>2026-04-05T13:18:33.999Z</time></trkpt><trkpt lat="44.792051300084076" lon="12.164767609891362"><ele>-2.6666666666666665</ele><time>2026-04-05T13:18:34.999Z</time></trkpt><trkpt lat="44.79183387220663" lon="12.164690164317674"><ele>-3.0</ele><time>2026-04-05T13:18:35.999Z</time></trkpt><trkpt lat="44.79162033926594" lon="12.164600779502399"><ele>-3.333333333333333</ele><time>2026-04-05T13:18:36.999Z</time></trkpt><trkpt lat="44.791413039371925" lon="12.16452046620285"><ele>-3.6666666666666665</ele><time>2026-04-05T13:18:37.999Z</time></trkpt><trkpt lat="44.791202886687344" lon="12.164462790358229"><ele>-4.0</ele><time>2026-04-05T13:18:38.999Z</time></trkpt><trkpt lat="44.7909799153727" lon="12.164428858921228"><ele>-4.0</ele><time>2026-04-05T13:18:39.999Z</time></trkpt><trkpt lat="44.790745641100045" lon="12.164411869882901"><ele>-4.0</ele><time>2026-04-05T13:18:40.999Z</time></trkpt><trkpt lat="44.790520836984065" lon="12.16440701336995"><ele>-4.0</ele><time>2026-04-05T13:18:41.999Z</time></trkpt><trkpt lat="44.790279406619966" lon="12.164396172487267"><ele>-4.0</ele><time>2026-04-05T13:18:42.999Z</time></trkpt><trkpt lat="44.79003538029072" lon="12.164386546923286"><ele>-3.0</ele><time>2026-04-05T13:18:43.999Z</time></trkpt><trkpt lat="44.78978466363164" lon="12.164379239818091"><ele>-2.0</ele><time>2026-04-05T13:18:44.999Z</time></trkpt><trkpt lat="44.789537583663105" lon="12.164372793096211"><ele>-2.5</ele><time>2026-04-05T13:18:45.999Z</time></trkpt><trkpt lat="44.789292213512596" lon="12.164335949198685"><ele>-3.0</ele><time>2026-04-05T13:18:46.998Z</time></trkpt><trkpt lat="44.789045162416386" lon="12.164303430709511"><ele>-3.0</ele><time>2026-04-05T13:18:47.998Z</time></trkpt><trkpt lat="44.788803557511315" lon="12.164265829013988"><ele>-3.0</ele><time>2026-04-05T13:18:48.998Z</time></trkpt><trkpt lat="44.78855986940735" lon="12.164227615398602"><ele>-3.0</ele><time>2026-04-05T13:18:49.998Z</time></trkpt><trkpt lat="44.78831695207886" lon="12.16418997432386"><ele>-3.0</ele><time>2026-04-05T13:18:50.998Z</time></trkpt><trkpt lat="44.788070675321265" lon="12.16415246304446"><ele>-3.0</ele><time>2026-04-05T13:18:51.998Z</time></trkpt><trkpt lat="44.78781599562146" lon="12.164113725939494"><ele>-3.0</ele><time>2026-04-05T13:18:52.998Z</time></trkpt><trkpt lat="44.78756828738563" lon="12.164073745115806"><ele>-3.0</ele><time>2026-04-05T13:18:53.998Z</time></trkpt><trkpt lat="44.78731310016517" lon="12.164091835536627"><ele>-3.0</ele><time>2026-04-05T13:18:54.998Z</time></trkpt><trkpt lat="44.78707072960865" lon="12.164063437116985"><ele>-4.0</ele><time>2026-04-05T13:18:55.998Z</time></trkpt><trkpt lat="44.786830883080114" lon="12.164025133551634"><ele>-5.0</ele><time>2026-04-05T13:18:56.998Z</time></trkpt><trkpt lat="44.786602075275454" lon="12.164001153774008"><ele>-5.0</ele><time>2026-04-05T13:18:57.998Z</time></trkpt><trkpt lat="44.786375617921564" lon="12.163983460110046"><ele>-5.0</ele><time>2026-04-05T13:18:58.998Z</time></trkpt><trkpt lat="44.78614617137905" lon="12.163971784130169"><ele>-5.0</ele><time>2026-04-05T13:18:59.998Z</time></trkpt><trkpt lat="44.78591285738807" lon="12.163991167493359"><ele>-5.0</ele><time>2026-04-05T13:19:00.998Z</time></trkpt><trkpt lat="44.78568623756272" lon="12.163982977500913"><ele>-5.0</ele><time>2026-04-05T13:19:01.998Z</time></trkpt><trkpt lat="44.78545469746157" lon="12.163972358990906"><ele>-5.0</ele><time>2026-04-05T13:19:02.998Z</time></trkpt><trkpt lat="44.7852217313619" lon="12.163947490771388"><ele>-4.5</ele><time>2026-04-05T13:19:03.998Z</time></trkpt><trkpt lat="44.78499723600304" lon="12.163926296694656"><ele>-4.0</ele><time>2026-04-05T13:19:04.998Z</time></trkpt><trkpt lat="44.78476654007749" lon="12.16390998526819"><ele>-4.0</ele><time>2026-04-05T13:19:05.998Z</time></trkpt><trkpt lat="44.784539080514286" lon="12.163887069115866"><ele>-4.0</ele><time>2026-04-05T13:19:06.998Z</time></trkpt><trkpt lat="44.78431684875113" lon="12.163862405054704"><ele>-4.0</ele><time>2026-04-05T13:19:07.998Z</time></trkpt><trkpt lat="44.784096299232644" lon="12.163832577838205"><ele>-4.0</ele><time>2026-04-05T13:19:08.998Z</time></trkpt><trkpt lat="44.78388488645455" lon="12.163804801846487"><ele>-4.0</ele><time>2026-04-05T13:19:09.998Z</time></trkpt><trkpt lat="44.7836759385658" lon="12.163784596234244"><ele>-3.6666666666666665</ele><time>2026-04-05T13:19:10.998Z</time></trkpt><trkpt lat="44.78345025443788" lon="12.163764054734699"><ele>-3.333333333333333</ele><time>2026-04-05T13:19:11.998Z</time></trkpt><trkpt lat="44.783228628268915" lon="12.163742726334844"><ele>-3.0</ele><time>2026-04-05T13:19:12.998Z</time></trkpt><trkpt lat="44.78300976801473" lon="12.163706039444007"><ele>-3.0</ele><time>2026-04-05T13:19:13.998Z</time></trkpt><trkpt lat="44.78278781595855" lon="12.163671467352506"><ele>-3.0</ele><time>2026-04-05T13:19:14.999Z</time></trkpt><trkpt lat="44.78256250663234" lon="12.163628220016827"><ele>-3.0</ele><time>2026-04-05T13:19:16Z</time></trkpt><trkpt lat="44.782329369299966" lon="12.163591301043704"><ele>-3.0</ele><time>2026-04-05T13:19:17Z</time></trkpt><trkpt lat="44.78210348563051" lon="12.1635481122438"><ele>-3.0</ele><time>2026-04-05T13:19:18Z</time></trkpt><trkpt lat="44.781885031753426" lon="12.163485755626237"><ele>-3.0</ele><time>2026-04-05T13:19:18.999Z</time></trkpt><trkpt lat="44.781664046563264" lon="12.163416007893463"><ele>-3.0</ele><time>2026-04-05T13:19:19.999Z</time></trkpt><trkpt lat="44.781439150408396" lon="12.163334355467034"><ele>-3.0</ele><time>2026-04-05T13:19:20.999Z</time></trkpt><trkpt lat="44.78121581648642" lon="12.163238276813436"><ele>-3.0</ele><time>2026-04-05T13:19:21.999Z</time></trkpt><trkpt lat="44.78099278336557" lon="12.163122430546972"><ele>-3.0</ele><time>2026-04-05T13:19:22.999Z</time></trkpt><trkpt lat="44.78077215645779" lon="12.163013792738843"><ele>-3.0</ele><time>2026-04-05T13:19:24Z</time></trkpt><trkpt lat="44.78055241130636" lon="12.162918846148088"><ele>-3.0</ele><time>2026-04-05T13:19:25Z</time></trkpt><trkpt lat="44.78033295129134" lon="12.162818469314807"><ele>-3.0</ele><time>2026-04-05T13:19:26Z</time></trkpt><trkpt lat="44.780118897389514" lon="12.162707596555439"><ele>-2.0</ele><time>2026-04-05T13:19:26.999Z</time></trkpt><trkpt lat="44.77990471776958" lon="12.162577002194782"><ele>-1.0</ele><time>2026-04-05T13:19:27.999Z</time></trkpt><trkpt lat="44.7796813766868" lon="12.16243492132171"><ele>-1.5</ele><time>2026-04-05T13:19:28.999Z</time></trkpt><trkpt lat="44.779455694562614" lon="12.16228767994138"><ele>-2.0</ele><time>2026-04-05T13:19:29.999Z</time></trkpt><trkpt lat="44.77922600582009" lon="12.162146162905987"><ele>-2.0</ele><time>2026-04-05T13:19:30.999Z</time></trkpt><trkpt lat="44.77899417651111" lon="12.162001206515676"><ele>-2.0</ele><time>2026-04-05T13:19:31.999Z</time></trkpt><trkpt lat="44.77876035287871" lon="12.161859169842957"><ele>-2.0</ele><time>2026-04-05T13:19:32.999Z</time></trkpt><trkpt lat="44.77852592325981" lon="12.161717503321732"><ele>-2.0</ele><time>2026-04-05T13:19:33.999Z</time></trkpt><trkpt lat="44.77829902328843" lon="12.16157781472204"><ele>-2.5</ele><time>2026-04-05T13:19:34.999Z</time></trkpt><trkpt lat="44.778075430469606" lon="12.161435416611067"><ele>-3.0</ele><time>2026-04-05T13:19:35.999Z</time></trkpt><trkpt lat="44.77785432206055" lon="12.161293398768109"><ele>-2.0</ele><time>2026-04-05T13:19:36.999Z</time></trkpt><trkpt lat="44.7776349961759" lon="12.161155508105974"><ele>-1.0</ele><time>2026-04-05T13:19:37.999Z</time></trkpt><trkpt lat="44.7774131773117" lon="12.161018760596367"><ele>-1.0</ele><time>2026-04-05T13:19:38.999Z</time></trkpt><trkpt lat="44.777190876858874" lon="12.160884955930648"><ele>-1.0</ele><time>2026-04-05T13:19:39.999Z</time></trkpt><trkpt lat="44.77696690407028" lon="12.160749662793199"><ele>-1.5</ele><time>2026-04-05T13:19:40.999Z</time></trkpt><trkpt lat="44.77674206283685" lon="12.160614796151778"><ele>-2.0</ele><time>2026-04-05T13:19:41.999Z</time></trkpt><trkpt lat="44.7765206319346" lon="12.160476458413111"><ele>-2.0</ele><time>2026-04-05T13:19:42.999Z</time></trkpt><trkpt lat="44.776300903623394" lon="12.160335762692876"><ele>-2.0</ele><time>2026-04-05T13:19:43.999Z</time></trkpt><trkpt lat="44.776077343959926" lon="12.1601966996101"><ele>-2.5</ele><time>2026-04-05T13:19:44.999Z</time></trkpt><trkpt lat="44.775854387577496" lon="12.160063064680543"><ele>-3.0</ele><time>2026-04-05T13:19:45.999Z</time></trkpt><trkpt lat="44.77563095522793" lon="12.159936756809008"><ele>-3.5</ele><time>2026-04-05T13:19:46.999Z</time></trkpt><trkpt lat="44.77539725772762" lon="12.159825283932612"><ele>-4.0</ele><time>2026-04-05T13:19:47.999Z</time></trkpt><trkpt lat="44.77516323380179" lon="12.159713891647488"><ele>-3.0</ele><time>2026-04-05T13:19:48.999Z</time></trkpt><trkpt lat="44.77492443679029" lon="12.15960616657623"><ele>-2.0</ele><time>2026-04-05T13:19:49.999Z</time></trkpt><trkpt lat="44.77468057462697" lon="12.15950942727551"><ele>-2.0</ele><time>2026-04-05T13:19:50.999Z</time></trkpt><trkpt lat="44.774436449753885" lon="12.159395195228774"><ele>-2.0</ele><time>2026-04-05T13:19:51.999Z</time></trkpt><trkpt lat="44.77419560634989" lon="12.159280873543253"><ele>-2.0</ele><time>2026-04-05T13:19:52.999Z</time></trkpt><trkpt lat="44.77395174291266" lon="12.159160454228212"><ele>-2.0</ele><time>2026-04-05T13:19:53.999Z</time></trkpt><trkpt lat="44.77371022187075" lon="12.159047769538313"><ele>-2.5</ele><time>2026-04-05T13:19:54.999Z</time></trkpt><trkpt lat="44.77347099688893" lon="12.158938944482776"><ele>-3.0</ele><time>2026-04-05T13:19:55.999Z</time></trkpt><trkpt lat="44.773220666265665" lon="12.158818587071675"><ele>-3.0</ele><time>2026-04-05T13:19:56.999Z</time></trkpt><trkpt lat="44.77297875193764" lon="12.158707416215547"><ele>-3.0</ele><time>2026-04-05T13:19:57.999Z</time></trkpt><trkpt lat="44.772744767245555" lon="12.158604447880853"><ele>-2.0</ele><time>2026-04-05T13:19:58.998Z</time></trkpt><trkpt lat="44.77250757625446" lon="12.15850230362733"><ele>-1.0</ele><time>2026-04-05T13:19:59.998Z</time></trkpt><trkpt lat="44.77226526699051" lon="12.158402339035232"><ele>-1.0</ele><time>2026-04-05T13:20:00.998Z</time></trkpt><trkpt lat="44.77202308385886" lon="12.158310411756485"><ele>-1.0</ele><time>2026-04-05T13:20:01.998Z</time></trkpt><trkpt lat="44.77177118961005" lon="12.158236412829348"><ele>-3.0</ele><time>2026-04-05T13:20:02.998Z</time></trkpt><trkpt lat="44.77150757311595" lon="12.158152689537994"><ele>-5.0</ele><time>2026-04-05T13:20:03.998Z</time></trkpt><trkpt lat="44.771266089532475" lon="12.158084441833312"><ele>-4.0</ele><time>2026-04-05T13:20:04.998Z</time></trkpt><trkpt lat="44.771019606596894" lon="12.158003169787273"><ele>-3.0</ele><time>2026-04-05T13:20:05.998Z</time></trkpt><trkpt lat="44.77077090044114" lon="12.15793177333568"><ele>-3.0</ele><time>2026-04-05T13:20:06.998Z</time></trkpt><trkpt lat="44.770524180423884" lon="12.157849731964177"><ele>-3.0</ele><time>2026-04-05T13:20:07.998Z</time></trkpt><trkpt lat="44.770278478314054" lon="12.15776573290478"><ele>-2.0</ele><time>2026-04-05T13:20:08.998Z</time></trkpt><trkpt lat="44.770051844413906" lon="12.157680252720874"><ele>-1.0</ele><time>2026-04-05T13:20:09.998Z</time></trkpt><trkpt lat="44.769824747362996" lon="12.15761468901955"><ele>-1.0</ele><time>2026-04-05T13:20:10.998Z</time></trkpt><trkpt lat="44.76961210155385" lon="12.157546320883181"><ele>-1.0</ele><time>2026-04-05T13:20:11.998Z</time></trkpt><trkpt lat="44.769414196224375" lon="12.157476503974205"><ele>-1.0</ele><time>2026-04-05T13:20:12.998Z</time></trkpt><trkpt lat="44.76923473146743" lon="12.157384208769146"><ele>-1.3333333333333333</ele><time>2026-04-05T13:20:13.998Z</time></trkpt><trkpt lat="44.76906927489193" lon="12.157254977984241"><ele>-1.6666666666666665</ele><time>2026-04-05T13:20:14.998Z</time></trkpt><trkpt lat="44.76891057969053" lon="12.157085380111205"><ele>-2.0</ele><time>2026-04-05T13:20:15.998Z</time></trkpt><trkpt lat="44.76877009442244" lon="12.156887303611864"><ele>-2.0</ele><time>2026-04-05T13:20:16.998Z</time></trkpt><trkpt lat="44.768670785093654" lon="12.156636675383876"><ele>-2.0</ele><time>2026-04-05T13:20:17.998Z</time></trkpt><trkpt lat="44.76857470316342" lon="12.156372553135334"><ele>-2.0</ele><time>2026-04-05T13:20:18.998Z</time></trkpt><trkpt lat="44.76850805961535" lon="12.156095767919183"><ele>-2.0</ele><time>2026-04-05T13:20:19.998Z</time></trkpt><trkpt lat="44.76846839331172" lon="12.155783173165636"><ele>-2.0</ele><time>2026-04-05T13:20:20.998Z</time></trkpt><trkpt lat="44.76843833618742" lon="12.155440160162177"><ele>-2.5</ele><time>2026-04-05T13:20:21.998Z</time></trkpt><trkpt lat="44.76843362270686" lon="12.155105130956507"><ele>-3.0</ele><time>2026-04-05T13:20:22.998Z</time></trkpt><trkpt lat="44.768424449076605" lon="12.154763560370037"><ele>-3.5</ele><time>2026-04-05T13:20:23.998Z</time></trkpt><trkpt lat="44.76841383401244" lon="12.154428276124783"><ele>-4.0</ele><time>2026-04-05T13:20:24.998Z</time></trkpt><trkpt lat="44.76840360140773" lon="12.154084260583863"><ele>-3.5</ele><time>2026-04-05T13:20:25.998Z</time></trkpt><trkpt lat="44.768399608590656" lon="12.153749229779947"><ele>-3.0</ele><time>2026-04-05T13:20:26.998Z</time></trkpt><trkpt lat="44.768389833348195" lon="12.153415700041354"><ele>-3.333333333333333</ele><time>2026-04-05T13:20:27.998Z</time></trkpt><trkpt lat="44.76838325778998" lon="12.153097162330175"><ele>-3.6666666666666665</ele><time>2026-04-05T13:20:28.998Z</time></trkpt><trkpt lat="44.768376897817404" lon="12.152808235450356"><ele>-4.0</ele><time>2026-04-05T13:20:29.998Z</time></trkpt><trkpt lat="44.768370999302086" lon="12.152533354202534"><ele>-2.6666666666666665</ele><time>2026-04-05T13:20:30.998Z</time></trkpt><trkpt lat="44.768359150841796" lon="12.152266547469496"><ele>-1.3333333333333333</ele><time>2026-04-05T13:20:31.998Z</time></trkpt><trkpt lat="44.768350213421336" lon="12.152021712460623"><ele>0.0</ele><time>2026-04-05T13:20:32.998Z</time></trkpt><trkpt lat="44.7683414667707" lon="12.151786888077927"><ele>0.0</ele><time>2026-04-05T13:20:33.998Z</time></trkpt><trkpt lat="44.768339094597366" lon="12.151584333303814"><ele>0.0</ele><time>2026-04-05T13:20:34.998Z</time></trkpt><trkpt lat="44.76833582118792" lon="12.151395069480987"><ele>0.0</ele><time>2026-04-05T13:20:35.998Z</time></trkpt><trkpt lat="44.768338550635136" lon="12.15123016007957"><ele>0.0</ele><time>2026-04-05T13:20:36.998Z</time></trkpt><trkpt lat="44.768348256630254" lon="12.151098922199612"><ele>0.16666666666666666</ele><time>2026-04-05T13:20:37.998Z</time></trkpt><trkpt lat="44.76835306779052" lon="12.150989059821958"><ele>0.3333333333333333</ele><time>2026-04-05T13:20:38.998Z</time></trkpt><trkpt lat="44.768372717383826" lon="12.15089694358385"><ele>0.5</ele><time>2026-04-05T13:20:39.998Z</time></trkpt><trkpt lat="44.768398199312344" lon="12.15081073515758"><ele>0.6666666666666666</ele><time>2026-04-05T13:20:40.998Z</time></trkpt><trkpt lat="44.768446507690385" lon="12.1507144539844"><ele>0.8333333333333333</ele><time>2026-04-05T13:20:41.998Z</time></trkpt><trkpt lat="44.76850948225602" lon="12.150599656070579"><ele>1.0</ele><time>2026-04-05T13:20:42.998Z</time></trkpt><trkpt lat="44.768592698346474" lon="12.15048046113114"><ele>1.0</ele><time>2026-04-05T13:20:43.998Z</time></trkpt><trkpt lat="44.76869752071228" lon="12.150393671019067"><ele>1.0</ele><time>2026-04-05T13:20:44.998Z</time></trkpt><trkpt lat="44.76882402525262" lon="12.150337222047657"><ele>1.0</ele><time>2026-04-05T13:20:45.998Z</time></trkpt><trkpt lat="44.76897956646515" lon="12.150327548290242"><ele>1.0</ele><time>2026-04-05T13:20:46.998Z</time></trkpt><trkpt lat="44.769146027409434" lon="12.150343771677054"><ele>1.0</ele><time>2026-04-05T13:20:47.998Z</time></trkpt><trkpt lat="44.76932312560479" lon="12.150312428545796"><ele>1.0</ele><time>2026-04-05T13:20:48.998Z</time></trkpt><trkpt lat="44.769513684211184" lon="12.15027544777792"><ele>1.0</ele><time>2026-04-05T13:20:49.998Z</time></trkpt><trkpt lat="44.769715231050235" lon="12.150230238356738"><ele>-0.33333333333333337</ele><time>2026-04-05T13:20:50.998Z</time></trkpt><trkpt lat="44.76992025423104" lon="12.15016157966759"><ele>-1.6666666666666667</ele><time>2026-04-05T13:20:51.998Z</time></trkpt><trkpt lat="44.770117989492135" lon="12.15007380538098"><ele>-3.0</ele><time>2026-04-05T13:20:52.998Z</time></trkpt><trkpt lat="44.770313148351285" lon="12.149958252937152"><ele>-3.0</ele><time>2026-04-05T13:20:53.998Z</time></trkpt><trkpt lat="44.77051291464017" lon="12.149808386501173"><ele>-3.0</ele><time>2026-04-05T13:20:54.998Z</time></trkpt><trkpt lat="44.77068562402043" lon="12.149617045204268"><ele>-3.0</ele><time>2026-04-05T13:20:55.998Z</time></trkpt><trkpt lat="44.7708588332254" lon="12.14941383295698"><ele>-3.0</ele><time>2026-04-05T13:20:56.998Z</time></trkpt><trkpt lat="44.77102586325098" lon="12.14918554053758"><ele>-3.0</ele><time>2026-04-05T13:20:57.998Z</time></trkpt><trkpt lat="44.771183740662" lon="12.148929173704945"><ele>-3.0</ele><time>2026-04-05T13:20:58.998Z</time></trkpt><trkpt lat="44.77133539491548" lon="12.14865046582343"><ele>-3.0</ele><time>2026-04-05T13:20:59.998Z</time></trkpt><trkpt lat="44.77148068118672" lon="12.148360417058031"><ele>-2.5</ele><time>2026-04-05T13:21:00.998Z</time></trkpt><trkpt lat="44.77162332373032" lon="12.148051080794373"><ele>-2.0</ele><time>2026-04-05T13:21:01.998Z</time></trkpt><trkpt lat="44.77176177868891" lon="12.147743900908678"><ele>-2.5</ele><time>2026-04-05T13:21:02.998Z</time></trkpt><trkpt lat="44.77189905308509" lon="12.147436577001917"><ele>-3.0</ele><time>2026-04-05T13:21:03.998Z</time></trkpt><trkpt lat="44.77204129702105" lon="12.147126914793532"><ele>-3.0</ele><time>2026-04-05T13:21:04.998Z</time></trkpt><trkpt lat="44.77217901728518" lon="12.146829254468521"><ele>-3.0</ele><time>2026-04-05T13:21:05.998Z</time></trkpt><trkpt lat="44.772311354810626" lon="12.146527994210352"><ele>-2.5</ele><time>2026-04-05T13:21:06.998Z</time></trkpt><trkpt lat="44.77244668218373" lon="12.146226084663047"><ele>-2.0</ele><time>2026-04-05T13:21:07.998Z</time></trkpt><trkpt lat="44.77258013549973" lon="12.14593014527852"><ele>-2.5</ele><time>2026-04-05T13:21:08.998Z</time></trkpt><trkpt lat="44.77271276305859" lon="12.145637957834534"><ele>-3.0</ele><time>2026-04-05T13:21:09.998Z</time></trkpt><trkpt lat="44.77283695418165" lon="12.14535737442371"><ele>-3.0</ele><time>2026-04-05T13:21:10.998Z</time></trkpt><trkpt lat="44.772960883887535" lon="12.14507571465883"><ele>-3.0</ele><time>2026-04-05T13:21:11.998Z</time></trkpt><trkpt lat="44.77308476488416" lon="12.144799348919715"><ele>-3.0</ele><time>2026-04-05T13:21:12.998Z</time></trkpt><trkpt lat="44.77320673774472" lon="12.144535859634752"><ele>-3.0</ele><time>2026-04-05T13:21:13.998Z</time></trkpt><trkpt lat="44.773318329480716" lon="12.144269889133364"><ele>-3.0</ele><time>2026-04-05T13:21:14.998Z</time></trkpt><trkpt lat="44.773424102573195" lon="12.144000852837927"><ele>-3.0</ele><time>2026-04-05T13:21:15.998Z</time></trkpt><trkpt lat="44.773514751945434" lon="12.143734742992597"><ele>-3.0</ele><time>2026-04-05T13:21:16.998Z</time></trkpt><trkpt lat="44.773596597464326" lon="12.143447913914502"><ele>-3.0</ele><time>2026-04-05T13:21:17.998Z</time></trkpt><trkpt lat="44.77366151732245" lon="12.143156401285221"><ele>-3.0</ele><time>2026-04-05T13:21:18.998Z</time></trkpt><trkpt lat="44.77371257426478" lon="12.142849489862527"><ele>-3.0</ele><time>2026-04-05T13:21:19.998Z</time></trkpt><trkpt lat="44.77375285843183" lon="12.142532174308027"><ele>-2.5</ele><time>2026-04-05T13:21:20.999Z</time></trkpt><trkpt lat="44.77376570801412" lon="12.142202375488328"><ele>-2.0</ele><time>2026-04-05T13:21:22Z</time></trkpt><trkpt lat="44.77375527470514" lon="12.141855560232372"><ele>-2.0</ele><time>2026-04-05T13:21:23Z</time></trkpt><trkpt lat="44.773738158060844" lon="12.141496619743307"><ele>-2.0</ele><time>2026-04-05T13:21:23.999Z</time></trkpt><trkpt lat="44.77371518877941" lon="12.141131394295819"><ele>-2.0</ele><time>2026-04-05T13:21:24.999Z</time></trkpt><trkpt lat="44.77368779966971" lon="12.14076877521528"><ele>-2.0</ele><time>2026-04-05T13:21:25.999Z</time></trkpt><trkpt lat="44.77365830198142" lon="12.140403888554294"><ele>-2.0</ele><time>2026-04-05T13:21:26.999Z</time></trkpt><trkpt lat="44.77363007560565" lon="12.14004114517928"><ele>-2.0</ele><time>2026-04-05T13:21:27.999Z</time></trkpt><trkpt lat="44.77359855950612" lon="12.139678146706279"><ele>-2.0</ele><time>2026-04-05T13:21:28.999Z</time></trkpt><trkpt lat="44.77357011517991" lon="12.139320020219104"><ele>-2.0</ele><time>2026-04-05T13:21:29.999Z</time></trkpt><trkpt lat="44.773543131560835" lon="12.138957875748678"><ele>-2.5</ele><time>2026-04-05T13:21:30.999Z</time></trkpt><trkpt lat="44.773515010795904" lon="12.138594895651345"><ele>-3.0</ele><time>2026-04-05T13:21:31.999Z</time></trkpt><trkpt lat="44.773487359265225" lon="12.138230450292127"><ele>-2.5</ele><time>2026-04-05T13:21:32.999Z</time></trkpt><trkpt lat="44.77345704048878" lon="12.137864671818681"><ele>-2.0</ele><time>2026-04-05T13:21:33.999Z</time></trkpt><trkpt lat="44.77343239422932" lon="12.137497392319128"><ele>-2.0</ele><time>2026-04-05T13:21:34.999Z</time></trkpt><trkpt lat="44.77340664434274" lon="12.137134225286543"><ele>-2.0</ele><time>2026-04-05T13:21:35.999Z</time></trkpt><trkpt lat="44.77338472136903" lon="12.136768397879024"><ele>-3.0</ele><time>2026-04-05T13:21:36.999Z</time></trkpt><trkpt lat="44.77335937925424" lon="12.136405250533143"><ele>-4.0</ele><time>2026-04-05T13:21:37.999Z</time></trkpt><trkpt lat="44.773332437183136" lon="12.136045531764736"><ele>-3.0</ele><time>2026-04-05T13:21:38.999Z</time></trkpt><trkpt lat="44.77330789754096" lon="12.135683042216952"><ele>-2.0</ele><time>2026-04-05T13:21:39.999Z</time></trkpt><trkpt lat="44.77328087225067" lon="12.13532229985283"><ele>-2.0</ele><time>2026-04-05T13:21:40.999Z</time></trkpt><trkpt lat="44.773255490100354" lon="12.134958036875862"><ele>-2.0</ele><time>2026-04-05T13:21:41.999Z</time></trkpt><trkpt lat="44.77322965810823" lon="12.134595531867726"><ele>-2.0</ele><time>2026-04-05T13:21:42.999Z</time></trkpt><trkpt lat="44.77320316589598" lon="12.134232270926615"><ele>-2.0</ele><time>2026-04-05T13:21:43.999Z</time></trkpt><trkpt lat="44.773177153442845" lon="12.133872667624415"><ele>-3.0</ele><time>2026-04-05T13:21:44.999Z</time></trkpt><trkpt lat="44.773153230809015" lon="12.133519935640996"><ele>-4.0</ele><time>2026-04-05T13:21:45.999Z</time></trkpt><trkpt lat="44.77313296983255" lon="12.133174325563186"><ele>-4.0</ele><time>2026-04-05T13:21:46.999Z</time></trkpt><trkpt lat="44.77311089846406" lon="12.132847202565058"><ele>-4.0</ele><time>2026-04-05T13:21:47.999Z</time></trkpt><trkpt lat="44.77309189674032" lon="12.132541760476645"><ele>-4.0</ele><time>2026-04-05T13:21:48.999Z</time></trkpt><trkpt lat="44.77307097741228" lon="12.132253415271913"><ele>-4.0</ele><time>2026-04-05T13:21:49.999Z</time></trkpt><trkpt lat="44.773053182391855" lon="12.13199980502009"><ele>-4.0</ele><time>2026-04-05T13:21:50.999Z</time></trkpt><trkpt lat="44.773032118468656" lon="12.131761466029168"><ele>-3.75</ele><time>2026-04-05T13:21:51.999Z</time></trkpt><trkpt lat="44.77302258102579" lon="12.131545381221839"><ele>-3.5</ele><time>2026-04-05T13:21:52.999Z</time></trkpt><trkpt lat="44.77302161179321" lon="12.131351955127808"><ele>-3.25</ele><time>2026-04-05T13:21:53.999Z</time></trkpt><trkpt lat="44.77303318768057" lon="12.13119482654095"><ele>-3.0</ele><time>2026-04-05T13:21:54.999Z</time></trkpt><trkpt lat="44.77304592256739" lon="12.13104926284251"><ele>-3.0</ele><time>2026-04-05T13:21:55.999Z</time></trkpt><trkpt lat="44.77308096336444" lon="12.130917823609689"><ele>-3.0</ele><time>2026-04-05T13:21:56.999Z</time></trkpt><trkpt lat="44.77314964080781" lon="12.13078029393105"><ele>-3.0</ele><time>2026-04-05T13:21:57.999Z</time></trkpt><trkpt lat="44.77324262577474" lon="12.130644065830518"><ele>-3.0</ele><time>2026-04-05T13:21:58.999Z</time></trkpt><trkpt lat="44.773348893587446" lon="12.130521124095498"><ele>-3.0</ele><time>2026-04-05T13:21:59.999Z</time></trkpt><trkpt lat="44.77347542662554" lon="12.130412685725346"><ele>-3.0</ele><time>2026-04-05T13:22:00.999Z</time></trkpt><trkpt lat="44.77361819547898" lon="12.130323734785087"><ele>-3.0</ele><time>2026-04-05T13:22:01.999Z</time></trkpt><trkpt lat="44.77377962558715" lon="12.130248588505728"><ele>-2.6666666666666665</ele><time>2026-04-05T13:22:02.999Z</time></trkpt><trkpt lat="44.77394380868814" lon="12.130157524765"><ele>-2.333333333333333</ele><time>2026-04-05T13:22:03.999Z</time></trkpt><trkpt lat="44.77409798308884" lon="12.130045132206702"><ele>-2.0</ele><time>2026-04-05T13:22:04.999Z</time></trkpt><trkpt lat="44.77426081606618" lon="12.129909530779779"><ele>-2.0</ele><time>2026-04-05T13:22:05.999Z</time></trkpt><trkpt lat="44.7744297368388" lon="12.12979252546185"><ele>-2.0</ele><time>2026-04-05T13:22:06.999Z</time></trkpt><trkpt lat="44.77461571511956" lon="12.129698667821776"><ele>-2.0</ele><time>2026-04-05T13:22:07.999Z</time></trkpt><trkpt lat="44.77480258688489" lon="12.12961561894134"><ele>-2.0</ele><time>2026-04-05T13:22:08.999Z</time></trkpt><trkpt lat="44.77498334335424" lon="12.129512830841374"><ele>-2.0</ele><time>2026-04-05T13:22:09.999Z</time></trkpt><trkpt lat="44.77516816179825" lon="12.129392246144143"><ele>-2.0</ele><time>2026-04-05T13:22:10.999Z</time></trkpt><trkpt lat="44.77535519547086" lon="12.129251125196527"><ele>-1.6666666666666665</ele><time>2026-04-05T13:22:11.999Z</time></trkpt><trkpt lat="44.77554723750019" lon="12.129103119269722"><ele>-1.3333333333333333</ele><time>2026-04-05T13:22:12.999Z</time></trkpt><trkpt lat="44.775741707009665" lon="12.12895394374665"><ele>-1.0</ele><time>2026-04-05T13:22:13.999Z</time></trkpt><trkpt lat="44.775933090528206" lon="12.12879378537127"><ele>0.0</ele><time>2026-04-05T13:22:14.999Z</time></trkpt><trkpt lat="44.77611642738564" lon="12.128620846845463"><ele>1.0</ele><time>2026-04-05T13:22:15.999Z</time></trkpt><trkpt lat="44.77629102513735" lon="12.128444167078976"><ele>2.0</ele><time>2026-04-05T13:22:16.999Z</time></trkpt><trkpt lat="44.77645568244674" lon="12.128264492388523"><ele>0.6666666666666666</ele><time>2026-04-05T13:22:17.999Z</time></trkpt><trkpt lat="44.77661092250826" lon="12.128098180867266"><ele>-0.6666666666666666</ele><time>2026-04-05T13:22:18.999Z</time></trkpt><trkpt lat="44.77674432192255" lon="12.12794012011371"><ele>-2.0</ele><time>2026-04-05T13:22:19.999Z</time></trkpt><trkpt lat="44.776861223701864" lon="12.127804456212164"><ele>-2.0</ele><time>2026-04-05T13:22:20.999Z</time></trkpt><trkpt lat="44.77697094544626" lon="12.127673864136131"><ele>-2.0</ele><time>2026-04-05T13:22:21.999Z</time></trkpt><trkpt lat="44.77708980147441" lon="12.12757470373912"><ele>-2.0</ele><time>2026-04-05T13:22:22.999Z</time></trkpt><trkpt lat="44.77722646295144" lon="12.127512562221355"><ele>-2.0</ele><time>2026-04-05T13:22:23.999Z</time></trkpt><trkpt lat="44.77738035347427" lon="12.127488519363546"><ele>-2.0</ele><time>2026-04-05T13:22:24.999Z</time></trkpt><trkpt lat="44.77755064233961" lon="12.127494128518686"><ele>-2.0</ele><time>2026-04-05T13:22:25.999Z</time></trkpt><trkpt lat="44.777734044558734" lon="12.127522660845171"><ele>-2.0</ele><time>2026-04-05T13:22:26.999Z</time></trkpt><trkpt lat="44.77792988538812" lon="12.127561931012542"><ele>-2.0</ele><time>2026-04-05T13:22:27.999Z</time></trkpt><trkpt lat="44.77812068195256" lon="12.127610445115122"><ele>-2.0</ele><time>2026-04-05T13:22:28.999Z</time></trkpt><trkpt lat="44.77830649585422" lon="12.127660422437485"><ele>-2.0</ele><time>2026-04-05T13:22:29.998Z</time></trkpt><trkpt lat="44.77848390601136" lon="12.127706986762231"><ele>-2.0</ele><time>2026-04-05T13:22:30.998Z</time></trkpt><trkpt lat="44.77865487662119" lon="12.127734156726431"><ele>-2.0</ele><time>2026-04-05T13:22:31.998Z</time></trkpt><trkpt lat="44.77882549934545" lon="12.127735455340726"><ele>-2.0</ele><time>2026-04-05T13:22:32.998Z</time></trkpt><trkpt lat="44.77899336965121" lon="12.127721803190836"><ele>-2.0</ele><time>2026-04-05T13:22:33.998Z</time></trkpt><trkpt lat="44.77916329085583" lon="12.127741147428427"><ele>-2.0</ele><time>2026-04-05T13:22:34.998Z</time></trkpt><trkpt lat="44.779325083232" lon="12.12772659515316"><ele>-2.0</ele><time>2026-04-05T13:22:35.998Z</time></trkpt><trkpt lat="44.779481694561994" lon="12.127722277443205"><ele>-2.0</ele><time>2026-04-05T13:22:36.998Z</time></trkpt><trkpt lat="44.77963520327853" lon="12.127744986803847"><ele>-2.0</ele><time>2026-04-05T13:22:37.998Z</time></trkpt><trkpt lat="44.77979361000179" lon="12.127784779656555"><ele>-2.0</ele><time>2026-04-05T13:22:38.998Z</time></trkpt><trkpt lat="44.77995680551874" lon="12.127825021406393"><ele>-2.0</ele><time>2026-04-05T13:22:39.998Z</time></trkpt><trkpt lat="44.78011895310285" lon="12.12786855775011"><ele>-2.0</ele><time>2026-04-05T13:22:40.998Z</time></trkpt><trkpt lat="44.78028749384959" lon="12.127912164310638"><ele>-2.0</ele><time>2026-04-05T13:22:41.998Z</time></trkpt><trkpt lat="44.780446889158796" lon="12.127949123873012"><ele>-1.75</ele><time>2026-04-05T13:22:42.998Z</time></trkpt><trkpt lat="44.780598491330636" lon="12.127981775385331"><ele>-1.5</ele><time>2026-04-05T13:22:43.998Z</time></trkpt><trkpt lat="44.780747259623226" lon="12.128000717579285"><ele>-1.25</ele><time>2026-04-05T13:22:44.998Z</time></trkpt><trkpt lat="44.7808860223404" lon="12.127983418580657"><ele>-1.0</ele><time>2026-04-05T13:22:45.998Z</time></trkpt><trkpt lat="44.78103008208013" lon="12.127949638139564"><ele>-0.75</ele><time>2026-04-05T13:22:46.998Z</time></trkpt><trkpt lat="44.781169595142856" lon="12.127893768456467"><ele>-0.5</ele><time>2026-04-05T13:22:47.998Z</time></trkpt><trkpt lat="44.781298892189945" lon="12.127823646691544"><ele>-0.25</ele><time>2026-04-05T13:22:48.998Z</time></trkpt><trkpt lat="44.781415957914874" lon="12.127725301226997"><ele>0.0</ele><time>2026-04-05T13:22:49.998Z</time></trkpt><trkpt lat="44.78150904918017" lon="12.127607151624458"><ele>0.0</ele><time>2026-04-05T13:22:50.998Z</time></trkpt><trkpt lat="44.781578976402066" lon="12.127459916885819"><ele>0.0</ele><time>2026-04-05T13:22:51.998Z</time></trkpt><trkpt lat="44.78163339420081" lon="12.127282115540513"><ele>0.0</ele><time>2026-04-05T13:22:52.998Z</time></trkpt><trkpt lat="44.781658607002285" lon="12.127086907106287"><ele>0.0</ele><time>2026-04-05T13:22:53.998Z</time></trkpt><trkpt lat="44.78170069116419" lon="12.126887063628475"><ele>-0.3333333333333333</ele><time>2026-04-05T13:22:54.998Z</time></trkpt><trkpt lat="44.78175198902474" lon="12.126674480229847"><ele>-0.6666666666666666</ele><time>2026-04-05T13:22:55.998Z</time></trkpt><trkpt lat="44.781798726794506" lon="12.126463810018302"><ele>-1.0</ele><time>2026-04-05T13:22:56.998Z</time></trkpt><trkpt lat="44.78185052794055" lon="12.12626085993151"><ele>-1.0</ele><time>2026-04-05T13:22:57.998Z</time></trkpt><trkpt lat="44.78190195090523" lon="12.12608378761231"><ele>-1.0</ele><time>2026-04-05T13:22:58.998Z</time></trkpt><trkpt lat="44.7819653480796" lon="12.125896954591331"><ele>-1.0</ele><time>2026-04-05T13:22:59.998Z</time></trkpt><trkpt lat="44.78203118647778" lon="12.12572370913692"><ele>-1.0</ele><time>2026-04-05T13:23:00.998Z</time></trkpt><trkpt lat="44.78209987473996" lon="12.125553972785932"><ele>-0.75</ele><time>2026-04-05T13:23:01.998Z</time></trkpt><trkpt lat="44.78216862034129" lon="12.125392193343634"><ele>-0.5</ele><time>2026-04-05T13:23:02.998Z</time></trkpt><trkpt lat="44.782238809904406" lon="12.12523192478084"><ele>-0.25</ele><time>2026-04-05T13:23:03.998Z</time></trkpt><trkpt lat="44.782301370520685" lon="12.125069184441891"><ele>0.0</ele><time>2026-04-05T13:23:04.998Z</time></trkpt><trkpt lat="44.782375696816004" lon="12.12491546216556"><ele>-0.25</ele><time>2026-04-05T13:23:05.998Z</time></trkpt><trkpt lat="44.78244792851992" lon="12.124753498013062"><ele>-0.5</ele><time>2026-04-05T13:23:06.998Z</time></trkpt><trkpt lat="44.78252133837733" lon="12.124583263760973"><ele>-0.75</ele><time>2026-04-05T13:23:07.998Z</time></trkpt><trkpt lat="44.78259257983197" lon="12.124389150515704"><ele>-1.0</ele><time>2026-04-05T13:23:08.998Z</time></trkpt><trkpt lat="44.78266554919523" lon="12.124177174641723"><ele>-1.0</ele><time>2026-04-05T13:23:09.998Z</time></trkpt><trkpt lat="44.782738942136646" lon="12.12395855994617"><ele>-1.0</ele><time>2026-04-05T13:23:10.998Z</time></trkpt><trkpt lat="44.78280973451261" lon="12.123727659110287"><ele>-1.0</ele><time>2026-04-05T13:23:11.998Z</time></trkpt><trkpt lat="44.78289105411986" lon="12.12349372276868"><ele>-1.0</ele><time>2026-04-05T13:23:12.998Z</time></trkpt><trkpt lat="44.78298492010359" lon="12.123277990623368"><ele>-1.0</ele><time>2026-04-05T13:23:13.998Z</time></trkpt><trkpt lat="44.78307662935702" lon="12.123078597039568"><ele>-1.0</ele><time>2026-04-05T13:23:14.998Z</time></trkpt><trkpt lat="44.78317397773398" lon="12.122895714693758"><ele>-1.0</ele><time>2026-04-05T13:23:15.998Z</time></trkpt><trkpt lat="44.78328236179617" lon="12.122720791214205"><ele>-1.0</ele><time>2026-04-05T13:23:16.998Z</time></trkpt><trkpt lat="44.78339960310183" lon="12.122550365835908"><ele>-1.0</ele><time>2026-04-05T13:23:17.998Z</time></trkpt><trkpt lat="44.7835190411479" lon="12.122391290536715"><ele>-1.3333333333333333</ele><time>2026-04-05T13:23:18.998Z</time></trkpt><trkpt lat="44.78364400253046" lon="12.122240294922172"><ele>-1.6666666666666665</ele><time>2026-04-05T13:23:19.998Z</time></trkpt><trkpt lat="44.78376124165574" lon="12.122094912995642"><ele>-2.0</ele><time>2026-04-05T13:23:20.998Z</time></trkpt><trkpt lat="44.783873351009724" lon="12.121939311991307"><ele>-2.0</ele><time>2026-04-05T13:23:21.998Z</time></trkpt><trkpt lat="44.783965332861946" lon="12.121766513110243"><ele>-2.0</ele><time>2026-04-05T13:23:22.998Z</time></trkpt><trkpt lat="44.78403238724028" lon="12.121587428860371"><ele>-2.0</ele><time>2026-04-05T13:23:23.998Z</time></trkpt><trkpt lat="44.78407851986769" lon="12.121400616699715"><ele>-2.0</ele><time>2026-04-05T13:23:24.998Z</time></trkpt><trkpt lat="44.78413071686708" lon="12.121233418083804"><ele>-2.0</ele><time>2026-04-05T13:23:25.998Z</time></trkpt><trkpt lat="44.78418449671606" lon="12.121079514565647"><ele>-2.0</ele><time>2026-04-05T13:23:26.999Z</time></trkpt><trkpt lat="44.78424170582066" lon="12.120945434849633"><ele>-2.0</ele><time>2026-04-05T13:23:28Z</time></trkpt><trkpt lat="44.78429882890719" lon="12.120833503634811"><ele>-2.0</ele><time>2026-04-05T13:23:29Z</time></trkpt><trkpt lat="44.78435383110096" lon="12.120746427311609"><ele>-2.0</ele><time>2026-04-05T13:23:29.999Z</time></trkpt><trkpt lat="44.78440664440429" lon="12.120668090392117"><ele>-2.0</ele><time>2026-04-05T13:23:30.999Z</time></trkpt><trkpt lat="44.78446830346077" lon="12.120596991807975"><ele>-2.0</ele><time>2026-04-05T13:23:31.999Z</time></trkpt><trkpt lat="44.78453986945638" lon="12.120527330582801"><ele>-2.0</ele><time>2026-04-05T13:23:32.999Z</time></trkpt><trkpt lat="44.78463143956142" lon="12.120457390931762"><ele>-2.0</ele><time>2026-04-05T13:23:33.999Z</time></trkpt><trkpt lat="44.78475255971159" lon="12.120372353457897"><ele>-2.0</ele><time>2026-04-05T13:23:34.999Z</time></trkpt><trkpt lat="44.78488800685728" lon="12.120279849384966"><ele>-2.0</ele><time>2026-04-05T13:23:36Z</time></trkpt><trkpt lat="44.78503076595631" lon="12.120184138291826"><ele>-2.0</ele><time>2026-04-05T13:23:36.999Z</time></trkpt><trkpt lat="44.78518550270349" lon="12.120127716283834"><ele>-2.0</ele><time>2026-04-05T13:23:37.999Z</time></trkpt><trkpt lat="44.78533136748147" lon="12.120033578643609"><ele>-1.75</ele><time>2026-04-05T13:23:38.999Z</time></trkpt><trkpt lat="44.785465390998574" lon="12.1199529446052"><ele>-1.5</ele><time>2026-04-05T13:23:39.999Z</time></trkpt><trkpt lat="44.78558865595111" lon="12.119840871757399"><ele>-1.25</ele><time>2026-04-05T13:23:40.999Z</time></trkpt><trkpt lat="44.7857141040161" lon="12.119768178729162"><ele>-1.0</ele><time>2026-04-05T13:23:41.999Z</time></trkpt><trkpt lat="44.78582879261016" lon="12.11969369141493"><ele>-1.0</ele><time>2026-04-05T13:23:42.999Z</time></trkpt><trkpt lat="44.78593806544867" lon="12.119620269684395"><ele>-1.0</ele><time>2026-04-05T13:23:43.999Z</time></trkpt><trkpt lat="44.786068783326186" lon="12.119607821783836"><ele>-1.0</ele><time>2026-04-05T13:23:44.999Z</time></trkpt><trkpt lat="44.7861885797275" lon="12.119540344587975"><ele>-1.0</ele><time>2026-04-05T13:23:45.999Z</time></trkpt><trkpt lat="44.78630911717177" lon="12.119470479932716"><ele>-1.0</ele><time>2026-04-05T13:23:46.999Z</time></trkpt><trkpt lat="44.78643002552309" lon="12.11940047517926"><ele>-1.0</ele><time>2026-04-05T13:23:47.999Z</time></trkpt><trkpt lat="44.78654884947419" lon="12.119332019152024"><ele>-1.0</ele><time>2026-04-05T13:23:48.999Z</time></trkpt><trkpt lat="44.78666580283588" lon="12.119265319463487"><ele>-1.0</ele><time>2026-04-05T13:23:49.999Z</time></trkpt><trkpt lat="44.78680111295161" lon="12.119189283436464"><ele>-1.3333333333333333</ele><time>2026-04-05T13:23:50.999Z</time></trkpt><trkpt lat="44.786962163075394" lon="12.119098715625217"><ele>-1.6666666666666665</ele><time>2026-04-05T13:23:51.999Z</time></trkpt><trkpt lat="44.787150779988615" lon="12.118991470169929"><ele>-2.0</ele><time>2026-04-05T13:23:52.999Z</time></trkpt><trkpt lat="44.787346710355756" lon="12.118880066369796"><ele>-2.5</ele><time>2026-04-05T13:23:53.999Z</time></trkpt><trkpt lat="44.78756071229991" lon="12.118758387276674"><ele>-3.0</ele><time>2026-04-05T13:23:54.999Z</time></trkpt><trkpt lat="44.78777207803591" lon="12.118639033335"><ele>-3.0</ele><time>2026-04-05T13:23:55.999Z</time></trkpt><trkpt lat="44.78798240167834" lon="12.11852231828373"><ele>-3.0</ele><time>2026-04-05T13:23:56.999Z</time></trkpt><trkpt lat="44.78819690095906" lon="12.118403286048608"><ele>-3.0</ele><time>2026-04-05T13:23:57.999Z</time></trkpt><trkpt lat="44.78841239593375" lon="12.118287380521938"><ele>-3.0</ele><time>2026-04-05T13:23:58.999Z</time></trkpt><trkpt lat="44.78861697654904" lon="12.118175340989689"><ele>-3.333333333333333</ele><time>2026-04-05T13:23:59.999Z</time></trkpt><trkpt lat="44.788811271870955" lon="12.118083281291527"><ele>-3.6666666666666665</ele><time>2026-04-05T13:24:00.999Z</time></trkpt><trkpt lat="44.78899508723908" lon="12.117999836086277"><ele>-4.0</ele><time>2026-04-05T13:24:01.999Z</time></trkpt><trkpt lat="44.78918040813364" lon="12.117922117917292"><ele>-3.6666666666666665</ele><time>2026-04-05T13:24:02.999Z</time></trkpt><trkpt lat="44.789374282103346" lon="12.117841821663678"><ele>-3.333333333333333</ele><time>2026-04-05T13:24:03.999Z</time></trkpt><trkpt lat="44.78956993923332" lon="12.117765063885676"><ele>-3.0</ele><time>2026-04-05T13:24:04.999Z</time></trkpt><trkpt lat="44.78977471461794" lon="12.117686498132665"><ele>-3.0</ele><time>2026-04-05T13:24:05.998Z</time></trkpt><trkpt lat="44.78999372708019" lon="12.11762899970412"><ele>-3.0</ele><time>2026-04-05T13:24:06.998Z</time></trkpt><trkpt lat="44.79020762215892" lon="12.117548077496469"><ele>-3.0</ele><time>2026-04-05T13:24:07.998Z</time></trkpt><trkpt lat="44.79043335763201" lon="12.117469850933766"><ele>-3.5</ele><time>2026-04-05T13:24:08.998Z</time></trkpt><trkpt lat="44.79065902829312" lon="12.117396232028623"><ele>-4.0</ele><time>2026-04-05T13:24:09.998Z</time></trkpt><trkpt lat="44.790886878954176" lon="12.117324571993748"><ele>-3.0</ele><time>2026-04-05T13:24:10.998Z</time></trkpt><trkpt lat="44.791116571102314" lon="12.117260248351569"><ele>-2.0</ele><time>2026-04-05T13:24:11.998Z</time></trkpt><trkpt lat="44.791341702223654" lon="12.117215599228308"><ele>-2.0</ele><time>2026-04-05T13:24:12.998Z</time></trkpt><trkpt lat="44.79156065243764" lon="12.117192164529511"><ele>-2.0</ele><time>2026-04-05T13:24:13.998Z</time></trkpt><trkpt lat="44.79177229365254" lon="12.117173217859362"><ele>-2.0</ele><time>2026-04-05T13:24:14.998Z</time></trkpt><trkpt lat="44.791989893979434" lon="12.117184115035748"><ele>-2.0</ele><time>2026-04-05T13:24:15.998Z</time></trkpt><trkpt lat="44.79221352494278" lon="12.117159860519852"><ele>-2.0</ele><time>2026-04-05T13:24:16.998Z</time></trkpt><trkpt lat="44.79242442246432" lon="12.117084531201476"><ele>-2.0</ele><time>2026-04-05T13:24:17.998Z</time></trkpt><trkpt lat="44.79263644049986" lon="12.116998636332076"><ele>-2.333333333333333</ele><time>2026-04-05T13:24:18.998Z</time></trkpt><trkpt lat="44.79284296657589" lon="12.116911410103802"><ele>-2.6666666666666665</ele><time>2026-04-05T13:24:19.998Z</time></trkpt><trkpt lat="44.79305500058494" lon="12.116830600782224"><ele>-3.0</ele><time>2026-04-05T13:24:20.998Z</time></trkpt><trkpt lat="44.7932588486283" lon="12.116756093816564"><ele>-3.0</ele><time>2026-04-05T13:24:21.998Z</time></trkpt><trkpt lat="44.79345135915809" lon="12.116688961430327"><ele>-3.0</ele><time>2026-04-05T13:24:22.998Z</time></trkpt><trkpt lat="44.793647794226665" lon="12.11662777865848"><ele>-3.0</ele><time>2026-04-05T13:24:23.998Z</time></trkpt><trkpt lat="44.79383819972781" lon="12.116574861032333"><ele>-3.0</ele><time>2026-04-05T13:24:24.998Z</time></trkpt><trkpt lat="44.79403935062248" lon="12.116522755605246"><ele>-3.0</ele><time>2026-04-05T13:24:25.998Z</time></trkpt><trkpt lat="44.794236416547776" lon="12.116468456771688"><ele>-3.0</ele><time>2026-04-05T13:24:26.998Z</time></trkpt><trkpt lat="44.794425966060444" lon="12.116416229150744"><ele>-3.0</ele><time>2026-04-05T13:24:27.998Z</time></trkpt><trkpt lat="44.794606942223915" lon="12.11636636380235"><ele>-3.0</ele><time>2026-04-05T13:24:28.998Z</time></trkpt><trkpt lat="44.79478235469499" lon="12.116318347663762"><ele>-3.0</ele><time>2026-04-05T13:24:29.998Z</time></trkpt><trkpt lat="44.79496376583153" lon="12.116269489864454"><ele>-3.0</ele><time>2026-04-05T13:24:30.998Z</time></trkpt><trkpt lat="44.7951387127331" lon="12.116225138313755"><ele>-3.0</ele><time>2026-04-05T13:24:31.998Z</time></trkpt><trkpt lat="44.795305765713636" lon="12.116186027972311"><ele>-3.0</ele><time>2026-04-05T13:24:32.998Z</time></trkpt><trkpt lat="44.79546111656669" lon="12.116152194483623"><ele>-2.6666666666666665</ele><time>2026-04-05T13:24:33.998Z</time></trkpt><trkpt lat="44.79561636579331" lon="12.116119702099608"><ele>-2.333333333333333</ele><time>2026-04-05T13:24:34.998Z</time></trkpt><trkpt lat="44.795773965601875" lon="12.116088326122735"><ele>-2.0</ele><time>2026-04-05T13:24:35.998Z</time></trkpt><trkpt lat="44.795931207647754" lon="12.116054464423625"><ele>-2.0</ele><time>2026-04-05T13:24:36.998Z</time></trkpt><trkpt lat="44.79609683683437" lon="12.116019467636567"><ele>-2.0</ele><time>2026-04-05T13:24:37.998Z</time></trkpt><trkpt lat="44.79626941274904" lon="12.115988136040011"><ele>-2.0</ele><time>2026-04-05T13:24:38.998Z</time></trkpt><trkpt lat="44.79644894666252" lon="12.115956247350752"><ele>-2.0</ele><time>2026-04-05T13:24:39.998Z</time></trkpt><trkpt lat="44.79663717671779" lon="12.115915712985142"><ele>-2.0</ele><time>2026-04-05T13:24:40.998Z</time></trkpt><trkpt lat="44.79683055226041" lon="12.115870983155647"><ele>-2.0</ele><time>2026-04-05T13:24:41.998Z</time></trkpt><trkpt lat="44.797039522671135" lon="12.115813123082859"><ele>-2.0</ele><time>2026-04-05T13:24:42.998Z</time></trkpt><trkpt lat="44.79725531531759" lon="12.115750501287739"><ele>-2.0</ele><time>2026-04-05T13:24:43.998Z</time></trkpt><trkpt lat="44.79747111866621" lon="12.115678589101506"><ele>-2.0</ele><time>2026-04-05T13:24:44.998Z</time></trkpt><trkpt lat="44.797684332498044" lon="12.115607999903457"><ele>-1.6666666666666665</ele><time>2026-04-05T13:24:45.998Z</time></trkpt><trkpt lat="44.79789526338054" lon="12.115533423271089"><ele>-1.3333333333333333</ele><time>2026-04-05T13:24:46.998Z</time></trkpt><trkpt lat="44.79810587601131" lon="12.1154607866239"><ele>-1.0</ele><time>2026-04-05T13:24:47.998Z</time></trkpt><trkpt lat="44.79831581327456" lon="12.115380965853745"><ele>-1.3333333333333333</ele><time>2026-04-05T13:24:48.998Z</time></trkpt><trkpt lat="44.79851819063031" lon="12.115301434879461"><ele>-1.6666666666666665</ele><time>2026-04-05T13:24:49.998Z</time></trkpt><trkpt lat="44.79870463925385" lon="12.115222874474025"><ele>-2.0</ele><time>2026-04-05T13:24:50.998Z</time></trkpt><trkpt lat="44.79888189664886" lon="12.115141980749858"><ele>-2.0</ele><time>2026-04-05T13:24:51.998Z</time></trkpt><trkpt lat="44.79905970651945" lon="12.115049726347511"><ele>-2.0</ele><time>2026-04-05T13:24:52.998Z</time></trkpt><trkpt lat="44.799234011850864" lon="12.114950130794771"><ele>-2.0</ele><time>2026-04-05T13:24:53.998Z</time></trkpt><trkpt lat="44.79939636027999" lon="12.114849463389605"><ele>-1.6666666666666665</ele><time>2026-04-05T13:24:54.998Z</time></trkpt><trkpt lat="44.79956548141239" lon="12.114743121443713"><ele>-1.3333333333333333</ele><time>2026-04-05T13:24:55.998Z</time></trkpt><trkpt lat="44.799730560217064" lon="12.114644033389338"><ele>-1.0</ele><time>2026-04-05T13:24:56.998Z</time></trkpt><trkpt lat="44.79990295055446" lon="12.1145613966522"><ele>-1.0</ele><time>2026-04-05T13:24:57.998Z</time></trkpt><trkpt lat="44.800063734025194" lon="12.114426442161703"><ele>-1.0</ele><time>2026-04-05T13:24:58.998Z</time></trkpt><trkpt lat="44.80023934845824" lon="12.114287003001971"><ele>-1.0</ele><time>2026-04-05T13:24:59.998Z</time></trkpt><trkpt lat="44.80040904740943" lon="12.114104676349958"><ele>-2.0</ele><time>2026-04-05T13:25:00.998Z</time></trkpt><trkpt lat="44.800598932713534" lon="12.113905945400154"><ele>-3.0</ele><time>2026-04-05T13:25:01.998Z</time></trkpt><trkpt lat="44.80079998192884" lon="12.113677339630389"><ele>-2.0</ele><time>2026-04-05T13:25:02.998Z</time></trkpt><trkpt lat="44.80101284029077" lon="12.113427294945593"><ele>-1.0</ele><time>2026-04-05T13:25:03.998Z</time></trkpt><trkpt lat="44.80122683768925" lon="12.113173470270079"><ele>-1.0</ele><time>2026-04-05T13:25:04.998Z</time></trkpt><trkpt lat="44.80142947998659" lon="12.11290925101093"><ele>-1.0</ele><time>2026-04-05T13:25:05.998Z</time></trkpt><trkpt lat="44.8016415300545" lon="12.112667828150721"><ele>-1.0</ele><time>2026-04-05T13:25:06.997Z</time></trkpt><trkpt lat="44.80185132467708" lon="12.11243255752424"><ele>-1.0</ele><time>2026-04-05T13:25:07.997Z</time></trkpt><trkpt lat="44.80205108456751" lon="12.112197741550537"><ele>-1.0</ele><time>2026-04-05T13:25:08.996Z</time></trkpt><trkpt lat="44.80226574076089" lon="12.111991931036055"><ele>-1.0</ele><time>2026-04-05T13:25:09.996Z</time></trkpt><trkpt lat="44.8024761909174" lon="12.111778741316849"><ele>-1.0</ele><time>2026-04-05T13:25:10.995Z</time></trkpt><trkpt lat="44.80268982764845" lon="12.11158009400574"><ele>-1.0</ele><time>2026-04-05T13:25:11.995Z</time></trkpt><trkpt lat="44.802907613699354" lon="12.111379320087506"><ele>-1.0</ele><time>2026-04-05T13:25:12.994Z</time></trkpt><trkpt lat="44.80312314710336" lon="12.111174149975449"><ele>-1.0</ele><time>2026-04-05T13:25:13.994Z</time></trkpt><trkpt lat="44.803317240968056" lon="12.110941550796282"><ele>-1.5</ele><time>2026-04-05T13:25:14.994Z</time></trkpt><trkpt lat="44.80353281473416" lon="12.110734630336886"><ele>-2.0</ele><time>2026-04-05T13:25:15.993Z</time></trkpt><trkpt lat="44.80372496634793" lon="12.110516560520232"><ele>-2.0</ele><time>2026-04-05T13:25:16.993Z</time></trkpt><trkpt lat="44.803916051092266" lon="12.110307853861928"><ele>-2.0</ele><time>2026-04-05T13:25:17.993Z</time></trkpt><trkpt lat="44.804095692431524" lon="12.110099375285817"><ele>-2.0</ele><time>2026-04-05T13:25:18.993Z</time></trkpt><trkpt lat="44.804275222939076" lon="12.109906267525847"><ele>-2.0</ele><time>2026-04-05T13:25:19.992Z</time></trkpt><trkpt lat="44.80445468823056" lon="12.10971472727963"><ele>-1.5</ele><time>2026-04-05T13:25:20.992Z</time></trkpt><trkpt lat="44.80465255684674" lon="12.109544248168154"><ele>-1.0</ele><time>2026-04-05T13:25:21.992Z</time></trkpt><trkpt lat="44.804846623422776" lon="12.109373632572451"><ele>-1.0</ele><time>2026-04-05T13:25:22.992Z</time></trkpt><trkpt lat="44.80504863052488" lon="12.109208710190622"><ele>-1.0</ele><time>2026-04-05T13:25:23.991Z</time></trkpt><trkpt lat="44.80524821667949" lon="12.109051849125057"><ele>-2.0</ele><time>2026-04-05T13:25:24.991Z</time></trkpt><trkpt lat="44.80545092047607" lon="12.108888019888214"><ele>-3.0</ele><time>2026-04-05T13:25:25.991Z</time></trkpt><trkpt lat="44.805656030978035" lon="12.108729018333145"><ele>-3.0</ele><time>2026-04-05T13:25:26.991Z</time></trkpt><trkpt lat="44.805854546908414" lon="12.108575984876573"><ele>-3.0</ele><time>2026-04-05T13:25:27.991Z</time></trkpt><trkpt lat="44.80604627464557" lon="12.108432910280426"><ele>-3.0</ele><time>2026-04-05T13:25:28.991Z</time></trkpt><trkpt lat="44.80625383725098" lon="12.108319336826703"><ele>-3.0</ele><time>2026-04-05T13:25:29.99Z</time></trkpt><trkpt lat="44.80647371193136" lon="12.108241447230935"><ele>-3.0</ele><time>2026-04-05T13:25:30.99Z</time></trkpt><trkpt lat="44.80670140664637" lon="12.108198763295485"><ele>-3.0</ele><time>2026-04-05T13:25:31.99Z</time></trkpt><trkpt lat="44.806939014395475" lon="12.108167950461114"><ele>-3.0</ele><time>2026-04-05T13:25:32.992Z</time></trkpt><trkpt lat="44.807181750564354" lon="12.108147462801513"><ele>-3.0</ele><time>2026-04-05T13:25:33.992Z</time></trkpt><trkpt lat="44.807422677808745" lon="12.108148722882731"><ele>-3.0</ele><time>2026-04-05T13:25:34.991Z</time></trkpt><trkpt lat="44.80767354009239" lon="12.108168355372507"><ele>-3.0</ele><time>2026-04-05T13:25:35.991Z</time></trkpt><trkpt lat="44.80792365673304" lon="12.108198574369723"><ele>-3.0</ele><time>2026-04-05T13:25:36.992Z</time></trkpt><trkpt lat="44.808172482967066" lon="12.10824373924864"><ele>-3.0</ele><time>2026-04-05T13:25:37.992Z</time></trkpt><trkpt lat="44.8084193599883" lon="12.108305636137132"><ele>-3.0</ele><time>2026-04-05T13:25:38.991Z</time></trkpt><trkpt lat="44.80865874364063" lon="12.108381897986563"><ele>-3.0</ele><time>2026-04-05T13:25:39.991Z</time></trkpt><trkpt lat="44.80889194490073" lon="12.108478273515772"><ele>-3.0</ele><time>2026-04-05T13:25:40.991Z</time></trkpt><trkpt lat="44.809118463651664" lon="12.10858343371341"><ele>-3.333333333333333</ele><time>2026-04-05T13:25:41.991Z</time></trkpt><trkpt lat="44.80933262899942" lon="12.108704290552545"><ele>-3.6666666666666665</ele><time>2026-04-05T13:25:42.991Z</time></trkpt><trkpt lat="44.80952979646936" lon="12.108834780314051"><ele>-4.0</ele><time>2026-04-05T13:25:43.991Z</time></trkpt><trkpt lat="44.80970946940096" lon="12.1089808517598"><ele>-3.333333333333333</ele><time>2026-04-05T13:25:44.991Z</time></trkpt><trkpt lat="44.809864887432994" lon="12.109163406666237"><ele>-2.6666666666666665</ele><time>2026-04-05T13:25:45.991Z</time></trkpt><trkpt lat="44.81000296245488" lon="12.10938216323025"><ele>-2.0</ele><time>2026-04-05T13:25:46.991Z</time></trkpt><trkpt lat="44.810128027936614" lon="12.109632247491833"><ele>-2.0</ele><time>2026-04-05T13:25:47.991Z</time></trkpt><trkpt lat="44.810249230041265" lon="12.109899360773337"><ele>-2.0</ele><time>2026-04-05T13:25:48.991Z</time></trkpt><trkpt lat="44.8103671297432" lon="12.110171915048053"><ele>-2.0</ele><time>2026-04-05T13:25:49.991Z</time></trkpt><trkpt lat="44.810488011049884" lon="12.110434048760187"><ele>-2.0</ele><time>2026-04-05T13:25:50.991Z</time></trkpt><trkpt lat="44.81060964056965" lon="12.110679585800577"><ele>-2.0</ele><time>2026-04-05T13:25:51.991Z</time></trkpt><trkpt lat="44.81073146972126" lon="12.110909062307748"><ele>-2.0</ele><time>2026-04-05T13:25:52.991Z</time></trkpt><trkpt lat="44.81084663976963" lon="12.111137575898875"><ele>-2.0</ele><time>2026-04-05T13:25:53.991Z</time></trkpt><trkpt lat="44.81096233611249" lon="12.111360861501174"><ele>-2.0</ele><time>2026-04-05T13:25:54.991Z</time></trkpt><trkpt lat="44.811076919365895" lon="12.111577130821253"><ele>-1.6666666666666665</ele><time>2026-04-05T13:25:55.991Z</time></trkpt><trkpt lat="44.8111913315022" lon="12.11178975468655"><ele>-1.3333333333333333</ele><time>2026-04-05T13:25:56.991Z</time></trkpt><trkpt lat="44.81130371798046" lon="12.111999592443881"><ele>-1.0</ele><time>2026-04-05T13:25:57.991Z</time></trkpt><trkpt lat="44.81141122560629" lon="12.112207324810916"><ele>-1.0</ele><time>2026-04-05T13:25:58.991Z</time></trkpt><trkpt lat="44.811521972892876" lon="12.112414553856153"><ele>-1.0</ele><time>2026-04-05T13:25:59.991Z</time></trkpt><trkpt lat="44.81163246994682" lon="12.112619883961287"><ele>-1.0</ele><time>2026-04-05T13:26:00.991Z</time></trkpt><trkpt lat="44.81174503365266" lon="12.11282436329799"><ele>-1.3333333333333333</ele><time>2026-04-05T13:26:01.991Z</time></trkpt><trkpt lat="44.81185908617501" lon="12.113030892411306"><ele>-1.6666666666666665</ele><time>2026-04-05T13:26:02.991Z</time></trkpt><trkpt lat="44.81197455044494" lon="12.113237346870733"><ele>-2.0</ele><time>2026-04-05T13:26:03.991Z</time></trkpt><trkpt lat="44.81208659718009" lon="12.11344441041789"><ele>-2.0</ele><time>2026-04-05T13:26:04.991Z</time></trkpt><trkpt lat="44.812200235184314" lon="12.113647611977408"><ele>-2.0</ele><time>2026-04-05T13:26:05.991Z</time></trkpt><trkpt lat="44.812314314283455" lon="12.113848456132379"><ele>-2.0</ele><time>2026-04-05T13:26:06.991Z</time></trkpt><trkpt lat="44.812428563837514" lon="12.114043683302437"><ele>-1.6666666666666665</ele><time>2026-04-05T13:26:07.99Z</time></trkpt><trkpt lat="44.81253819486195" lon="12.11423932527082"><ele>-1.3333333333333333</ele><time>2026-04-05T13:26:08.99Z</time></trkpt><trkpt lat="44.812642546229405" lon="12.11442916287006"><ele>-1.0</ele><time>2026-04-05T13:26:09.99Z</time></trkpt><trkpt lat="44.81274516376702" lon="12.114612720495504"><ele>-1.0</ele><time>2026-04-05T13:26:10.99Z</time></trkpt><trkpt lat="44.812850165084825" lon="12.114787377294912"><ele>-1.0</ele><time>2026-04-05T13:26:11.99Z</time></trkpt><trkpt lat="44.812965880325294" lon="12.114935979422132"><ele>-1.0</ele><time>2026-04-05T13:26:12.99Z</time></trkpt><trkpt lat="44.81310054135834" lon="12.115055544849946"><ele>-0.6666666666666666</ele><time>2026-04-05T13:26:13.99Z</time></trkpt><trkpt lat="44.81326054768286" lon="12.115156927033947"><ele>-0.3333333333333333</ele><time>2026-04-05T13:26:14.99Z</time></trkpt><trkpt lat="44.81343248062079" lon="12.115245004545882"><ele>0.0</ele><time>2026-04-05T13:26:15.99Z</time></trkpt><trkpt lat="44.81361068408844" lon="12.115335384554486"><ele>0.0</ele><time>2026-04-05T13:26:16.99Z</time></trkpt><trkpt lat="44.813794560259" lon="12.115434708235938"><ele>0.0</ele><time>2026-04-05T13:26:17.99Z</time></trkpt><trkpt lat="44.813979258472045" lon="12.115528548022006"><ele>0.0</ele><time>2026-04-05T13:26:18.99Z</time></trkpt><trkpt lat="44.81415963914904" lon="12.115614229522507"><ele>-0.3333333333333333</ele><time>2026-04-05T13:26:19.99Z</time></trkpt><trkpt lat="44.81434094365838" lon="12.115676363357831"><ele>-0.6666666666666666</ele><time>2026-04-05T13:26:20.99Z</time></trkpt><trkpt lat="44.81451903836436" lon="12.115723131052894"><ele>-1.0</ele><time>2026-04-05T13:26:21.99Z</time></trkpt><trkpt lat="44.81469666652355" lon="12.115754319987253"><ele>-1.0</ele><time>2026-04-05T13:26:22.99Z</time></trkpt><trkpt lat="44.81486980299212" lon="12.115775161708314"><ele>-1.0</ele><time>2026-04-05T13:26:23.99Z</time></trkpt><trkpt lat="44.81503929127098" lon="12.115801247166148"><ele>-1.0</ele><time>2026-04-05T13:26:24.99Z</time></trkpt><trkpt lat="44.81521100758442" lon="12.115821037701203"><ele>-0.6666666666666666</ele><time>2026-04-05T13:26:25.99Z</time></trkpt><trkpt lat="44.81538240399013" lon="12.11581470599987"><ele>-0.3333333333333333</ele><time>2026-04-05T13:26:26.99Z</time></trkpt><trkpt lat="44.815542067553444" lon="12.115786420785271"><ele>0.0</ele><time>2026-04-05T13:26:27.99Z</time></trkpt><trkpt lat="44.81569081117145" lon="12.115745247885572"><ele>-0.6666666666666666</ele><time>2026-04-05T13:26:28.99Z</time></trkpt><trkpt lat="44.81584227214566" lon="12.115698805696468"><ele>-1.3333333333333333</ele><time>2026-04-05T13:26:29.99Z</time></trkpt><trkpt lat="44.81599905400945" lon="12.115658895453288"><ele>-2.0</ele><time>2026-04-05T13:26:30.99Z</time></trkpt><trkpt lat="44.81616392610158" lon="12.115634695890924"><ele>-2.0</ele><time>2026-04-05T13:26:31.99Z</time></trkpt><trkpt lat="44.81633549392834" lon="12.11561762632606"><ele>-2.0</ele><time>2026-04-05T13:26:32.99Z</time></trkpt><trkpt lat="44.8165023375327" lon="12.115592358124982"><ele>-2.0</ele><time>2026-04-05T13:26:33.99Z</time></trkpt><trkpt lat="44.81666321899028" lon="12.115548232791415"><ele>-2.0</ele><time>2026-04-05T13:26:34.99Z</time></trkpt><trkpt lat="44.81681907074077" lon="12.115494793211887"><ele>-2.0</ele><time>2026-04-05T13:26:35.99Z</time></trkpt><trkpt lat="44.81697136266843" lon="12.115434770560507"><ele>-2.0</ele><time>2026-04-05T13:26:36.99Z</time></trkpt><trkpt lat="44.81712445012013" lon="12.115364652132657"><ele>-1.6666666666666665</ele><time>2026-04-05T13:26:37.99Z</time></trkpt><trkpt lat="44.81728515357076" lon="12.11529129234553"><ele>-1.3333333333333333</ele><time>2026-04-05T13:26:38.99Z</time></trkpt><trkpt lat="44.81744906027033" lon="12.115210524708992"><ele>-1.0</ele><time>2026-04-05T13:26:39.99Z</time></trkpt><trkpt lat="44.817607838164605" lon="12.115121685213724"><ele>-1.0</ele><time>2026-04-05T13:26:40.99Z</time></trkpt><trkpt lat="44.81775518820528" lon="12.1150252771164"><ele>-1.0</ele><time>2026-04-05T13:26:41.99Z</time></trkpt><trkpt lat="44.81790890837755" lon="12.114922783523964"><ele>-1.0</ele><time>2026-04-05T13:26:42.99Z</time></trkpt><trkpt lat="44.818052655177496" lon="12.114823106639857"><ele>-1.0</ele><time>2026-04-05T13:26:43.99Z</time></trkpt><trkpt lat="44.81819347264935" lon="12.114714738930134"><ele>-1.0</ele><time>2026-04-05T13:26:44.99Z</time></trkpt><trkpt lat="44.81833433336631" lon="12.114605059781834"><ele>-1.0</ele><time>2026-04-05T13:26:45.99Z</time></trkpt><trkpt lat="44.81848661719757" lon="12.11451745710262"><ele>-1.0</ele><time>2026-04-05T13:26:46.99Z</time></trkpt><trkpt lat="44.81864777870328" lon="12.11441833471435"><ele>-1.0</ele><time>2026-04-05T13:26:47.99Z</time></trkpt><trkpt lat="44.81879306678876" lon="12.114311816107941"><ele>-1.0</ele><time>2026-04-05T13:26:48.99Z</time></trkpt><trkpt lat="44.81893330170792" lon="12.114211758302012"><ele>-1.0</ele><time>2026-04-05T13:26:49.99Z</time></trkpt><trkpt lat="44.81906101667389" lon="12.11411180816101"><ele>-1.0</ele><time>2026-04-05T13:26:50.99Z</time></trkpt><trkpt lat="44.81919619069403" lon="12.114009018980639"><ele>-1.0</ele><time>2026-04-05T13:26:51.99Z</time></trkpt><trkpt lat="44.81932331933907" lon="12.113882451759295"><ele>-1.0</ele><time>2026-04-05T13:26:52.99Z</time></trkpt><trkpt lat="44.81943453612777" lon="12.113742529709631"><ele>-1.0</ele><time>2026-04-05T13:26:53.99Z</time></trkpt><trkpt lat="44.819539757487746" lon="12.113590793975327"><ele>-1.0</ele><time>2026-04-05T13:26:54.99Z</time></trkpt><trkpt lat="44.81965215842657" lon="12.113429735570032"><ele>-1.0</ele><time>2026-04-05T13:26:55.99Z</time></trkpt><trkpt lat="44.8197672063028" lon="12.113264865853711"><ele>-1.0</ele><time>2026-04-05T13:26:56.99Z</time></trkpt><trkpt lat="44.81988359756025" lon="12.11310542189193"><ele>-1.0</ele><time>2026-04-05T13:26:57.989Z</time></trkpt><trkpt lat="44.81999395243125" lon="12.112954513813474"><ele>-1.0</ele><time>2026-04-05T13:26:58.989Z</time></trkpt><trkpt lat="44.820100321741194" lon="12.112807248384128"><ele>-1.0</ele><time>2026-04-05T13:26:59.989Z</time></trkpt><trkpt lat="44.820209143350425" lon="12.11266134981045"><ele>-1.0</ele><time>2026-04-05T13:27:00.989Z</time></trkpt><trkpt lat="44.82032497851126" lon="12.112516794028798"><ele>-0.6666666666666666</ele><time>2026-04-05T13:27:01.989Z</time></trkpt><trkpt lat="44.820443658203985" lon="12.11237427935251"><ele>-0.3333333333333333</ele><time>2026-04-05T13:27:02.989Z</time></trkpt><trkpt lat="44.82056576588244" lon="12.11223002181767"><ele>0.0</ele><time>2026-04-05T13:27:03.989Z</time></trkpt><trkpt lat="44.820689951224786" lon="12.112093268142889"><ele>0.0</ele><time>2026-04-05T13:27:04.989Z</time></trkpt><trkpt lat="44.82081074031046" lon="12.111964352513702"><ele>0.0</ele><time>2026-04-05T13:27:05.989Z</time></trkpt><trkpt lat="44.82092728382557" lon="12.111843911798942"><ele>0.0</ele><time>2026-04-05T13:27:06.989Z</time></trkpt><trkpt lat="44.82103876289537" lon="12.111715018759552"><ele>0.0</ele><time>2026-04-05T13:27:07.989Z</time></trkpt><trkpt lat="44.82115293046424" lon="12.111596277249776"><ele>0.0</ele><time>2026-04-05T13:27:08.989Z</time></trkpt><trkpt lat="44.82126462115469" lon="12.111475656878522"><ele>0.0</ele><time>2026-04-05T13:27:09.989Z</time></trkpt><trkpt lat="44.821375202017705" lon="12.111349498223229"><ele>0.0</ele><time>2026-04-05T13:27:10.989Z</time></trkpt><trkpt lat="44.82148083050984" lon="12.111218233071833"><ele>0.0</ele><time>2026-04-05T13:27:11.989Z</time></trkpt><trkpt lat="44.8215815413077" lon="12.111082121903301"><ele>0.0</ele><time>2026-04-05T13:27:12.989Z</time></trkpt><trkpt lat="44.821675491683614" lon="12.110942914815153"><ele>0.0</ele><time>2026-04-05T13:27:13.989Z</time></trkpt><trkpt lat="44.821772879195336" lon="12.110812369475969"><ele>0.0</ele><time>2026-04-05T13:27:14.989Z</time></trkpt><trkpt lat="44.821879459826896" lon="12.110716677591741"><ele>0.0</ele><time>2026-04-05T13:27:15.989Z</time></trkpt><trkpt lat="44.82198412604436" lon="12.110615271217895"><ele>-0.5</ele><time>2026-04-05T13:27:16.989Z</time></trkpt><trkpt lat="44.82210688963054" lon="12.110520433426382"><ele>-1.0</ele><time>2026-04-05T13:27:17.989Z</time></trkpt><trkpt lat="44.822235066007664" lon="12.110445843950814"><ele>-1.5</ele><time>2026-04-05T13:27:18.989Z</time></trkpt><trkpt lat="44.82237298197701" lon="12.110382867708074"><ele>-2.0</ele><time>2026-04-05T13:27:19.989Z</time></trkpt><trkpt lat="44.822527416996635" lon="12.110320028305749"><ele>-1.6666666666666665</ele><time>2026-04-05T13:27:20.989Z</time></trkpt><trkpt lat="44.82270324217432" lon="12.110263771936332"><ele>-1.3333333333333333</ele><time>2026-04-05T13:27:21.989Z</time></trkpt><trkpt lat="44.82290401389189" lon="12.110190786219118"><ele>-1.0</ele><time>2026-04-05T13:27:22.989Z</time></trkpt><trkpt lat="44.82310408935823" lon="12.110077343987246"><ele>-1.0</ele><time>2026-04-05T13:27:23.989Z</time></trkpt><trkpt lat="44.823290466337156" lon="12.109943521165222"><ele>-1.0</ele><time>2026-04-05T13:27:24.989Z</time></trkpt><trkpt lat="44.82347997984005" lon="12.109811523723604"><ele>-1.0</ele><time>2026-04-05T13:27:25.989Z</time></trkpt><trkpt lat="44.82366893212379" lon="12.10966230839938"><ele>-1.3333333333333333</ele><time>2026-04-05T13:27:26.989Z</time></trkpt><trkpt lat="44.82387251353383" lon="12.109549843497868"><ele>-1.6666666666666665</ele><time>2026-04-05T13:27:27.989Z</time></trkpt><trkpt lat="44.824071435587435" lon="12.109426358073572"><ele>-2.0</ele><time>2026-04-05T13:27:28.989Z</time></trkpt><trkpt lat="44.82427077809778" lon="12.109298300551396"><ele>-1.3333333333333333</ele><time>2026-04-05T13:27:29.989Z</time></trkpt><trkpt lat="44.82446584925317" lon="12.109170740356065"><ele>-0.6666666666666666</ele><time>2026-04-05T13:27:30.989Z</time></trkpt><trkpt lat="44.82465911449136" lon="12.109048700760496"><ele>0.0</ele><time>2026-04-05T13:27:31.989Z</time></trkpt><trkpt lat="44.824848058674895" lon="12.108937087787432"><ele>-0.6666666666666666</ele><time>2026-04-05T13:27:32.989Z</time></trkpt><trkpt lat="44.82503117774869" lon="12.108828153149856"><ele>-1.3333333333333333</ele><time>2026-04-05T13:27:33.989Z</time></trkpt><trkpt lat="44.82520715042786" lon="12.108718334124454"><ele>-2.0</ele><time>2026-04-05T13:27:34.989Z</time></trkpt><trkpt lat="44.82537843024175" lon="12.108605980534884"><ele>-2.0</ele><time>2026-04-05T13:27:35.989Z</time></trkpt><trkpt lat="44.82554962874623" lon="12.108498512328289"><ele>-2.0</ele><time>2026-04-05T13:27:36.989Z</time></trkpt><trkpt lat="44.82572259893913" lon="12.108395022691491"><ele>-2.0</ele><time>2026-04-05T13:27:37.989Z</time></trkpt><trkpt lat="44.82589452846649" lon="12.10828609873145"><ele>-2.0</ele><time>2026-04-05T13:27:38.99Z</time></trkpt><trkpt lat="44.82606371931981" lon="12.108180058783464"><ele>-2.0</ele><time>2026-04-05T13:27:39.99Z</time></trkpt><trkpt lat="44.82624040981202" lon="12.108106991083014"><ele>-2.0</ele><time>2026-04-05T13:27:40.99Z</time></trkpt><trkpt lat="44.82639537640766" lon="12.108007282508074"><ele>-2.0</ele><time>2026-04-05T13:27:41.989Z</time></trkpt><trkpt lat="44.826544359328025" lon="12.107912003888616"><ele>-2.0</ele><time>2026-04-05T13:27:42.99Z</time></trkpt><trkpt lat="44.826692984204726" lon="12.107820106538071"><ele>-2.0</ele><time>2026-04-05T13:27:43.99Z</time></trkpt><trkpt lat="44.826840415495305" lon="12.107729008053822"><ele>-2.0</ele><time>2026-04-05T13:27:44.989Z</time></trkpt><trkpt lat="44.82697876291079" lon="12.107641517569974"><ele>-2.0</ele><time>2026-04-05T13:27:45.99Z</time></trkpt><trkpt lat="44.827120258470416" lon="12.107554368941155"><ele>-2.0</ele><time>2026-04-05T13:27:46.99Z</time></trkpt><trkpt lat="44.827247237013815" lon="12.107473392793063"><ele>-2.0</ele><time>2026-04-05T13:27:47.99Z</time></trkpt><trkpt lat="44.82737658566106" lon="12.107391455507699"><ele>-2.0</ele><time>2026-04-05T13:27:48.99Z</time></trkpt><trkpt lat="44.82750295001068" lon="12.107301231038951"><ele>-2.0</ele><time>2026-04-05T13:27:49.99Z</time></trkpt><trkpt lat="44.827633260967986" lon="12.107201458413467"><ele>-2.0</ele><time>2026-04-05T13:27:50.99Z</time></trkpt><trkpt lat="44.82774891386183" lon="12.107091028658571"><ele>-2.0</ele><time>2026-04-05T13:27:51.99Z</time></trkpt><trkpt lat="44.82785552687276" lon="12.106981327167555"><ele>-1.5</ele><time>2026-04-05T13:27:52.99Z</time></trkpt><trkpt lat="44.82796406829803" lon="12.106867359956857"><ele>-1.0</ele><time>2026-04-05T13:27:53.99Z</time></trkpt><trkpt lat="44.82808003244534" lon="12.106745042880325"><ele>-0.5</ele><time>2026-04-05T13:27:54.99Z</time></trkpt><trkpt lat="44.82819299969958" lon="12.1066109699604"><ele>0.0</ele><time>2026-04-05T13:27:55.99Z</time></trkpt><trkpt lat="44.82829985113234" lon="12.1064644547599"><ele>0.0</ele><time>2026-04-05T13:27:56.99Z</time></trkpt><trkpt lat="44.828397014573795" lon="12.106322181244964"><ele>0.0</ele><time>2026-04-05T13:27:57.99Z</time></trkpt><trkpt lat="44.82848858013936" lon="12.106180792779814"><ele>0.0</ele><time>2026-04-05T13:27:58.99Z</time></trkpt><trkpt lat="44.82857095148248" lon="12.106048980727397"><ele>0.0</ele><time>2026-04-05T13:27:59.99Z</time></trkpt><trkpt lat="44.82865225575808" lon="12.105931157408456"><ele>0.2</ele><time>2026-04-05T13:28:00.99Z</time></trkpt><trkpt lat="44.82871986892724" lon="12.105834276701273"><ele>0.4</ele><time>2026-04-05T13:28:01.99Z</time></trkpt><trkpt lat="44.82878326614592" lon="12.105746563496481"><ele>0.6000000000000001</ele><time>2026-04-05T13:28:02.99Z</time></trkpt><trkpt lat="44.82883604762843" lon="12.1056587356522"><ele>0.8</ele><time>2026-04-05T13:28:03.99Z</time></trkpt><trkpt lat="44.82889550413119" lon="12.105553985801798"><ele>1.0</ele><time>2026-04-05T13:28:04.99Z</time></trkpt><trkpt lat="44.8289557454294" lon="12.105437080637616"><ele>1.0</ele><time>2026-04-05T13:28:05.99Z</time></trkpt><trkpt lat="44.8290329785496" lon="12.10530220127602"><ele>1.0</ele><time>2026-04-05T13:28:06.99Z</time></trkpt><trkpt lat="44.82908942047583" lon="12.105129150226507"><ele>1.0</ele><time>2026-04-05T13:28:07.99Z</time></trkpt><trkpt lat="44.829151927310356" lon="12.104941448307422"><ele>1.0</ele><time>2026-04-05T13:28:08.99Z</time></trkpt><trkpt lat="44.8292069528951" lon="12.10473541557893"><ele>1.0</ele><time>2026-04-05T13:28:09.99Z</time></trkpt><trkpt lat="44.82926598232801" lon="12.104509928871414"><ele>1.0</ele><time>2026-04-05T13:28:10.99Z</time></trkpt><trkpt lat="44.829328836473934" lon="12.1042714766045"><ele>1.0</ele><time>2026-04-05T13:28:11.99Z</time></trkpt><trkpt lat="44.82938899773005" lon="12.104043240467368"><ele>1.0</ele><time>2026-04-05T13:28:12.99Z</time></trkpt><trkpt lat="44.829445186510604" lon="12.103835487124769"><ele>1.0</ele><time>2026-04-05T13:28:13.99Z</time></trkpt><trkpt lat="44.8294961531363" lon="12.103649620637185"><ele>1.0</ele><time>2026-04-05T13:28:14.99Z</time></trkpt><trkpt lat="44.829532590048714" lon="12.10348518148316"><ele>1.0</ele><time>2026-04-05T13:28:15.99Z</time></trkpt><trkpt lat="44.82956842848818" lon="12.103342907926704"><ele>1.0</ele><time>2026-04-05T13:28:16.99Z</time></trkpt><trkpt lat="44.8296078279345" lon="12.103189317064277"><ele>1.0</ele><time>2026-04-05T13:28:17.99Z</time></trkpt><trkpt lat="44.82965407231593" lon="12.103026673516878"><ele>1.0</ele><time>2026-04-05T13:28:18.99Z</time></trkpt><trkpt lat="44.82970640654028" lon="12.102844225056812"><ele>1.0</ele><time>2026-04-05T13:28:19.99Z</time></trkpt><trkpt lat="44.82976203024422" lon="12.102643193234217"><ele>1.0</ele><time>2026-04-05T13:28:20.99Z</time></trkpt><trkpt lat="44.82981888595103" lon="12.102435926057153"><ele>1.0</ele><time>2026-04-05T13:28:21.99Z</time></trkpt><trkpt lat="44.82987839067822" lon="12.102221555711637"><ele>1.0</ele><time>2026-04-05T13:28:22.99Z</time></trkpt><trkpt lat="44.82994021957765" lon="12.102002759182179"><ele>1.0</ele><time>2026-04-05T13:28:23.99Z</time></trkpt><trkpt lat="44.83000097973578" lon="12.101779560982164"><ele>1.0</ele><time>2026-04-05T13:28:24.99Z</time></trkpt><trkpt lat="44.83006321377842" lon="12.101552945114188"><ele>1.0</ele><time>2026-04-05T13:28:25.99Z</time></trkpt><trkpt lat="44.83012385595792" lon="12.10132085899599"><ele>1.0</ele><time>2026-04-05T13:28:26.99Z</time></trkpt><trkpt lat="44.83018652331841" lon="12.101079760331695"><ele>1.0</ele><time>2026-04-05T13:28:27.99Z</time></trkpt><trkpt lat="44.83025013071202" lon="12.100832477834697"><ele>1.0</ele><time>2026-04-05T13:28:28.99Z</time></trkpt><trkpt lat="44.83032199913673" lon="12.10058215047385"><ele>1.0</ele><time>2026-04-05T13:28:29.99Z</time></trkpt><trkpt lat="44.83039812436633" lon="12.100317631879165"><ele>1.0</ele><time>2026-04-05T13:28:30.989Z</time></trkpt><trkpt lat="44.830476981406086" lon="12.100038949050367"><ele>1.0</ele><time>2026-04-05T13:28:31.989Z</time></trkpt><trkpt lat="44.830552430417605" lon="12.099751188011622"><ele>0.0</ele><time>2026-04-05T13:28:32.989Z</time></trkpt><trkpt lat="44.83063662869374" lon="12.099455508533367"><ele>-1.0</ele><time>2026-04-05T13:28:33.989Z</time></trkpt><trkpt lat="44.83072355993894" lon="12.099156453939205"><ele>-0.6666666666666666</ele><time>2026-04-05T13:28:34.989Z</time></trkpt><trkpt lat="44.830808155600415" lon="12.098865464411936"><ele>-0.3333333333333333</ele><time>2026-04-05T13:28:35.989Z</time></trkpt><trkpt lat="44.83089639424764" lon="12.098581307470791"><ele>0.0</ele><time>2026-04-05T13:28:36.989Z</time></trkpt><trkpt lat="44.83096935639801" lon="12.098311103687896"><ele>0.0</ele><time>2026-04-05T13:28:37.989Z</time></trkpt><trkpt lat="44.831026398836" lon="12.098068028954572"><ele>0.0</ele><time>2026-04-05T13:28:38.989Z</time></trkpt><trkpt lat="44.83107193923847" lon="12.09786153154229"><ele>0.0</ele><time>2026-04-05T13:28:39.989Z</time></trkpt><trkpt lat="44.831075276666624" lon="12.097679427133942"><ele>0.0</ele><time>2026-04-05T13:28:40.989Z</time></trkpt><trkpt lat="44.831022949122925" lon="12.097525540287517"><ele>0.0</ele><time>2026-04-05T13:28:41.989Z</time></trkpt><trkpt lat="44.83100877687457" lon="12.09737088439982"><ele>0.0</ele><time>2026-04-05T13:28:42.989Z</time></trkpt><trkpt lat="44.83101401109564" lon="12.097215774361"><ele>0.0</ele><time>2026-04-05T13:28:43.989Z</time></trkpt><trkpt lat="44.83105170674199" lon="12.097048830908081"><ele>0.0</ele><time>2026-04-05T13:28:44.989Z</time></trkpt><trkpt lat="44.83109774478084" lon="12.096874607796545"><ele>0.0</ele><time>2026-04-05T13:28:45.989Z</time></trkpt><trkpt lat="44.83113657733025" lon="12.09670457406895"><ele>0.0</ele><time>2026-04-05T13:28:46.989Z</time></trkpt><trkpt lat="44.831167284401594" lon="12.096549223019286"><ele>0.0</ele><time>2026-04-05T13:28:47.989Z</time></trkpt><trkpt lat="44.83119348077493" lon="12.096397282328372"><ele>-0.2</ele><time>2026-04-05T13:28:48.989Z</time></trkpt><trkpt lat="44.8312146104498" lon="12.096261692773382"><ele>-0.4</ele><time>2026-04-05T13:28:49.989Z</time></trkpt><trkpt lat="44.8311982846108" lon="12.096137920304802"><ele>-0.6000000000000001</ele><time>2026-04-05T13:28:50.989Z</time></trkpt><trkpt lat="44.831155436450324" lon="12.096022175484958"><ele>-0.8</ele><time>2026-04-05T13:28:51.989Z</time></trkpt><trkpt lat="44.83106130643681" lon="12.095912327006529"><ele>-1.0</ele><time>2026-04-05T13:28:52.989Z</time></trkpt><trkpt lat="44.8309342956726" lon="12.09582647298481"><ele>-1.6666666666666665</ele><time>2026-04-05T13:28:53.989Z</time></trkpt><trkpt lat="44.830777798537575" lon="12.095731130331739"><ele>-2.3333333333333335</ele><time>2026-04-05T13:28:54.989Z</time></trkpt><trkpt lat="44.830603904011795" lon="12.095617257605182"><ele>-3.0</ele><time>2026-04-05T13:28:55.989Z</time></trkpt><trkpt lat="44.83042865066227" lon="12.095501579580407"><ele>-3.0</ele><time>2026-04-05T13:28:56.989Z</time></trkpt><trkpt lat="44.83024280184184" lon="12.095385547088323"><ele>-3.0</ele><time>2026-04-05T13:28:57.989Z</time></trkpt><trkpt lat="44.830064116134494" lon="12.095259401516946"><ele>-3.0</ele><time>2026-04-05T13:28:58.989Z</time></trkpt><trkpt lat="44.82989207270733" lon="12.095141113693002"><ele>-3.0</ele><time>2026-04-05T13:28:59.989Z</time></trkpt><trkpt lat="44.82972777262539" lon="12.095027440559317"><ele>-3.0</ele><time>2026-04-05T13:29:00.989Z</time></trkpt><trkpt lat="44.82957715048615" lon="12.094919722545352"><ele>-3.0</ele><time>2026-04-05T13:29:01.989Z</time></trkpt><trkpt lat="44.82943724470681" lon="12.0948297865204"><ele>-3.25</ele><time>2026-04-05T13:29:02.989Z</time></trkpt><trkpt lat="44.829304434101694" lon="12.094739508241815"><ele>-3.5</ele><time>2026-04-05T13:29:03.989Z</time></trkpt><trkpt lat="44.8291666657075" lon="12.094666166599039"><ele>-3.75</ele><time>2026-04-05T13:29:04.989Z</time></trkpt><trkpt lat="44.829021392076434" lon="12.094612346931491"><ele>-4.0</ele><time>2026-04-05T13:29:05.989Z</time></trkpt><trkpt lat="44.828865659522656" lon="12.09459188734519"><ele>-4.0</ele><time>2026-04-05T13:29:06.989Z</time></trkpt><trkpt lat="44.82870189726309" lon="12.094601222190256"><ele>-4.0</ele><time>2026-04-05T13:29:07.989Z</time></trkpt><trkpt lat="44.82853706250001" lon="12.094646356219375"><ele>-4.0</ele><time>2026-04-05T13:29:08.989Z</time></trkpt><trkpt lat="44.828373347485574" lon="12.094710399926834"><ele>-4.333333333333333</ele><time>2026-04-05T13:29:09.989Z</time></trkpt><trkpt lat="44.82821690555103" lon="12.094833202389587"><ele>-4.666666666666667</ele><time>2026-04-05T13:29:10.989Z</time></trkpt><trkpt lat="44.82807491718996" lon="12.094998247918946"><ele>-5.0</ele><time>2026-04-05T13:29:11.989Z</time></trkpt><trkpt lat="44.827948659010424" lon="12.095170194723828"><ele>-5.0</ele><time>2026-04-05T13:29:12.989Z</time></trkpt><trkpt lat="44.82783313920569" lon="12.095328210161961"><ele>-5.0</ele><time>2026-04-05T13:29:13.989Z</time></trkpt><trkpt lat="44.82771793151041" lon="12.095455278940392"><ele>-5.0</ele><time>2026-04-05T13:29:14.989Z</time></trkpt><trkpt lat="44.82758546290044" lon="12.09556557477061"><ele>-4.666666666666667</ele><time>2026-04-05T13:29:15.989Z</time></trkpt><trkpt lat="44.827418479621436" lon="12.095610635406908"><ele>-4.333333333333333</ele><time>2026-04-05T13:29:16.989Z</time></trkpt><trkpt lat="44.82723671055234" lon="12.095640842278032"><ele>-4.0</ele><time>2026-04-05T13:29:17.989Z</time></trkpt><trkpt lat="44.82703084629772" lon="12.095658762955093"><ele>-4.5</ele><time>2026-04-05T13:29:18.989Z</time></trkpt><trkpt lat="44.82680854682539" lon="12.095673025766256"><ele>-5.0</ele><time>2026-04-05T13:29:19.989Z</time></trkpt><trkpt lat="44.82657100234973" lon="12.095694407215463"><ele>-5.0</ele><time>2026-04-05T13:29:20.989Z</time></trkpt><trkpt lat="44.82631801995479" lon="12.095690817630052"><ele>-5.0</ele><time>2026-04-05T13:29:21.989Z</time></trkpt><trkpt lat="44.82605380447665" lon="12.095710641188559"><ele>-6.0</ele><time>2026-04-05T13:29:22.989Z</time></trkpt><trkpt lat="44.82578087043476" lon="12.095731118884066"><ele>-7.0</ele><time>2026-04-05T13:29:23.989Z</time></trkpt><trkpt lat="44.8255081200186" lon="12.095751245762571"><ele>-6.5</ele><time>2026-04-05T13:29:24.989Z</time></trkpt><trkpt lat="44.82523199768199" lon="12.095771024639939"><ele>-6.0</ele><time>2026-04-05T13:29:25.989Z</time></trkpt><trkpt lat="44.82495624662939" lon="12.09579122405063"><ele>-5.5</ele><time>2026-04-05T13:29:26.989Z</time></trkpt><trkpt lat="44.82467493041513" lon="12.09581425737597"><ele>-5.0</ele><time>2026-04-05T13:29:27.989Z</time></trkpt><trkpt lat="44.82439598777707" lon="12.095836029788424"><ele>-5.5</ele><time>2026-04-05T13:29:28.989Z</time></trkpt><trkpt lat="44.82411664744386" lon="12.095858402830915"><ele>-6.0</ele><time>2026-04-05T13:29:29.988Z</time></trkpt><trkpt lat="44.82384178942189" lon="12.095879669887902"><ele>-6.0</ele><time>2026-04-05T13:29:30.988Z</time></trkpt><trkpt lat="44.82356170371084" lon="12.095901246506084"><ele>-6.0</ele><time>2026-04-05T13:29:31.988Z</time></trkpt><trkpt lat="44.82328231524355" lon="12.095922769412612"><ele>-5.5</ele><time>2026-04-05T13:29:32.988Z</time></trkpt><trkpt lat="44.82300064191385" lon="12.095944932579826"><ele>-5.0</ele><time>2026-04-05T13:29:33.988Z</time></trkpt><trkpt lat="44.822715230899576" lon="12.095967416718645"><ele>-3.5</ele><time>2026-04-05T13:29:34.988Z</time></trkpt><trkpt lat="44.822433721443296" lon="12.09598959350615"><ele>-2.0</ele><time>2026-04-05T13:29:35.988Z</time></trkpt><trkpt lat="44.82215169359532" lon="12.09601181113323"><ele>-2.0</ele><time>2026-04-05T13:29:36.988Z</time></trkpt><trkpt lat="44.82187103903632" lon="12.096033922522421"><ele>-2.0</ele><time>2026-04-05T13:29:37.988Z</time></trkpt><trkpt lat="44.821591553004986" lon="12.096055939910054"><ele>-3.5</ele><time>2026-04-05T13:29:38.988Z</time></trkpt><trkpt lat="44.82131188459094" lon="12.096077626834644"><ele>-5.0</ele><time>2026-04-05T13:29:39.988Z</time></trkpt><trkpt lat="44.82103424905259" lon="12.096098866081865"><ele>-5.5</ele><time>2026-04-05T13:29:40.988Z</time></trkpt><trkpt lat="44.820757510701284" lon="12.096120036695291"><ele>-6.0</ele><time>2026-04-05T13:29:41.988Z</time></trkpt><trkpt lat="44.82048323512705" lon="12.096141023087185"><ele>-6.0</ele><time>2026-04-05T13:29:42.988Z</time></trkpt><trkpt lat="44.820208990832235" lon="12.096162077574656"><ele>-6.0</ele><time>2026-04-05T13:29:43.988Z</time></trkpt><trkpt lat="44.819932898983396" lon="12.096183273909476"><ele>-6.5</ele><time>2026-04-05T13:29:44.989Z</time></trkpt><trkpt lat="44.819658986671755" lon="12.096203896961482"><ele>-7.0</ele><time>2026-04-05T13:29:45.989Z</time></trkpt><trkpt lat="44.81938651622948" lon="12.096223917628985"><ele>-7.0</ele><time>2026-04-05T13:29:46.989Z</time></trkpt><trkpt lat="44.819114843241785" lon="12.096246042314515"><ele>-7.0</ele><time>2026-04-05T13:29:47.989Z</time></trkpt><trkpt lat="44.818837781072624" lon="12.096291172918642"><ele>-7.0</ele><time>2026-04-05T13:29:48.989Z</time></trkpt><trkpt lat="44.818558705763" lon="12.096310844875749"><ele>-7.0</ele><time>2026-04-05T13:29:49.989Z</time></trkpt><trkpt lat="44.81827576894326" lon="12.096333284857002"><ele>-5.5</ele><time>2026-04-05T13:29:50.99Z</time></trkpt><trkpt lat="44.81799140275916" lon="12.09635868016191"><ele>-4.0</ele><time>2026-04-05T13:29:51.989Z</time></trkpt><trkpt lat="44.81770668538036" lon="12.096379976008585"><ele>-4.5</ele><time>2026-04-05T13:29:52.989Z</time></trkpt><trkpt lat="44.817421089889834" lon="12.096401196508909"><ele>-5.0</ele><time>2026-04-05T13:29:53.989Z</time></trkpt><trkpt lat="44.81714779236285" lon="12.096421521663888"><ele>-5.0</ele><time>2026-04-05T13:29:54.989Z</time></trkpt><trkpt lat="44.81689198520864" lon="12.096418516831433"><ele>-5.0</ele><time>2026-04-05T13:29:55.989Z</time></trkpt><trkpt lat="44.81667182503134" lon="12.096438072099783"><ele>-4.666666666666667</ele><time>2026-04-05T13:29:56.989Z</time></trkpt><trkpt lat="44.816461085361645" lon="12.096458536449703"><ele>-4.333333333333333</ele><time>2026-04-05T13:29:57.989Z</time></trkpt><trkpt lat="44.81628014473461" lon="12.096474926806271"><ele>-4.0</ele><time>2026-04-05T13:29:58.989Z</time></trkpt><trkpt lat="44.8161081141056" lon="12.096491752818816"><ele>-3.75</ele><time>2026-04-05T13:29:59.989Z</time></trkpt><trkpt lat="44.81595693722135" lon="12.09650754748981"><ele>-3.5</ele><time>2026-04-05T13:30:00.989Z</time></trkpt><trkpt lat="44.815810834872096" lon="12.096510596781656"><ele>-3.25</ele><time>2026-04-05T13:30:01.989Z</time></trkpt><trkpt lat="44.815675435874574" lon="12.096499295351178"><ele>-3.0</ele><time>2026-04-05T13:30:02.989Z</time></trkpt><trkpt lat="44.81555732486654" lon="12.09643808431153"><ele>-3.0</ele><time>2026-04-05T13:30:03.989Z</time></trkpt><trkpt lat="44.81543903149915" lon="12.096338420201254"><ele>-3.0</ele><time>2026-04-05T13:30:04.989Z</time></trkpt><trkpt lat="44.81533823295491" lon="12.096194730441654"><ele>-3.0</ele><time>2026-04-05T13:30:05.989Z</time></trkpt><trkpt lat="44.81526623077774" lon="12.096011076887871"><ele>-3.0</ele><time>2026-04-05T13:30:06.989Z</time></trkpt><trkpt lat="44.815222063879894" lon="12.095821803548231"><ele>-4.0</ele><time>2026-04-05T13:30:07.989Z</time></trkpt><trkpt lat="44.815216632534714" lon="12.09559278506146"><ele>-5.0</ele><time>2026-04-05T13:30:08.989Z</time></trkpt><trkpt lat="44.815216918546625" lon="12.095341388665123"><ele>-6.0</ele><time>2026-04-05T13:30:09.989Z</time></trkpt><trkpt lat="44.815205182897" lon="12.095070764506204"><ele>-6.0</ele><time>2026-04-05T13:30:10.989Z</time></trkpt><trkpt lat="44.81519187424446" lon="12.094773340257818"><ele>-6.0</ele><time>2026-04-05T13:30:11.989Z</time></trkpt><trkpt lat="44.81517425104443" lon="12.094447562574317"><ele>-6.0</ele><time>2026-04-05T13:30:12.989Z</time></trkpt><trkpt lat="44.8151542301207" lon="12.094091792779375"><ele>-5.0</ele><time>2026-04-05T13:30:13.989Z</time></trkpt><trkpt lat="44.8151354694833" lon="12.093722096692948"><ele>-4.0</ele><time>2026-04-05T13:30:14.989Z</time></trkpt><trkpt lat="44.81511599211122" lon="12.09335245332254"><ele>-4.0</ele><time>2026-04-05T13:30:15.989Z</time></trkpt><trkpt lat="44.81509382199672" lon="12.092981535383188"><ele>-4.0</ele><time>2026-04-05T13:30:16.989Z</time></trkpt><trkpt lat="44.815073167732024" lon="12.092596004773212"><ele>-3.5</ele><time>2026-04-05T13:30:17.989Z</time></trkpt><trkpt lat="44.81505046266148" lon="12.092199535785227"><ele>-3.0</ele><time>2026-04-05T13:30:18.989Z</time></trkpt><trkpt lat="44.81502641325197" lon="12.091798051474331"><ele>-4.0</ele><time>2026-04-05T13:30:19.989Z</time></trkpt><trkpt lat="44.81500384541806" lon="12.091385495274693"><ele>-5.0</ele><time>2026-04-05T13:30:20.989Z</time></trkpt><trkpt lat="44.81498056555723" lon="12.090971316212995"><ele>-4.5</ele><time>2026-04-05T13:30:21.989Z</time></trkpt><trkpt lat="44.81495427862749" lon="12.0905502638507"><ele>-4.0</ele><time>2026-04-05T13:30:22.989Z</time></trkpt><trkpt lat="44.81492964828631" lon="12.090125633165338"><ele>-4.5</ele><time>2026-04-05T13:30:23.989Z</time></trkpt><trkpt lat="44.81490238400858" lon="12.089697218337022"><ele>-5.0</ele><time>2026-04-05T13:30:24.989Z</time></trkpt><trkpt lat="44.81487500910317" lon="12.08926317710001"><ele>-5.5</ele><time>2026-04-05T13:30:25.989Z</time></trkpt><trkpt lat="44.81484867896844" lon="12.088827643918373"><ele>-6.0</ele><time>2026-04-05T13:30:26.989Z</time></trkpt><trkpt lat="44.814824491932825" lon="12.088389859766073"><ele>-7.0</ele><time>2026-04-05T13:30:27.989Z</time></trkpt><trkpt lat="44.814800306400876" lon="12.087950777318408"><ele>-8.0</ele><time>2026-04-05T13:30:28.989Z</time></trkpt><trkpt lat="44.8147771136983" lon="12.087515478097062"><ele>-7.5</ele><time>2026-04-05T13:30:29.989Z</time></trkpt><trkpt lat="44.81475076718862" lon="12.087082297611232"><ele>-7.0</ele><time>2026-04-05T13:30:30.989Z</time></trkpt><trkpt lat="44.814725708829926" lon="12.086642468658749"><ele>-4.0</ele><time>2026-04-05T13:30:31.989Z</time></trkpt><trkpt lat="44.81467468630938" lon="12.085760217916151"><ele>-4.0</ele><time>2026-04-05T13:30:33.989Z</time></trkpt><trkpt lat="44.814650644111204" lon="12.085320809087245"><ele>-4.0</ele><time>2026-04-05T13:30:34.989Z</time></trkpt><trkpt lat="44.8146271763171" lon="12.08487850937393"><ele>-4.0</ele><time>2026-04-05T13:30:35.989Z</time></trkpt><trkpt lat="44.814603284076405" lon="12.084438051958244"><ele>-4.0</ele><time>2026-04-05T13:30:36.989Z</time></trkpt><trkpt lat="44.814577493656735" lon="12.083994477247964"><ele>-4.0</ele><time>2026-04-05T13:30:37.989Z</time></trkpt><trkpt lat="44.814553356061985" lon="12.083555828408441"><ele>-4.0</ele><time>2026-04-05T13:30:38.989Z</time></trkpt><trkpt lat="44.81452633532149" lon="12.083121856721796"><ele>-4.0</ele><time>2026-04-05T13:30:39.989Z</time></trkpt><trkpt lat="44.8145030170423" lon="12.082684294711209"><ele>-4.0</ele><time>2026-04-05T13:30:40.989Z</time></trkpt><trkpt lat="44.81447954887376" lon="12.082247164839247"><ele>-4.5</ele><time>2026-04-05T13:30:41.989Z</time></trkpt><trkpt lat="44.81445417951697" lon="12.081805309653893"><ele>-5.0</ele><time>2026-04-05T13:30:42.989Z</time></trkpt><trkpt lat="44.81442651082631" lon="12.081362188731669"><ele>-5.0</ele><time>2026-04-05T13:30:43.989Z</time></trkpt><trkpt lat="44.81439704304321" lon="12.080914815783249"><ele>-5.0</ele><time>2026-04-05T13:30:44.989Z</time></trkpt><trkpt lat="44.8143713992254" lon="12.08045906478958"><ele>-5.0</ele><time>2026-04-05T13:30:45.989Z</time></trkpt><trkpt lat="44.8143454945874" lon="12.080003382791832"><ele>-5.0</ele><time>2026-04-05T13:30:46.988Z</time></trkpt><trkpt lat="44.81432076772807" lon="12.07954594385423"><ele>-5.0</ele><time>2026-04-05T13:30:47.988Z</time></trkpt><trkpt lat="44.814295022275665" lon="12.079084655461987"><ele>-5.0</ele><time>2026-04-05T13:30:48.988Z</time></trkpt><trkpt lat="44.81426937655795" lon="12.078628883950895"><ele>-5.0</ele><time>2026-04-05T13:30:49.988Z</time></trkpt><trkpt lat="44.814246117198934" lon="12.078161396428024"><ele>-5.0</ele><time>2026-04-05T13:30:50.988Z</time></trkpt><trkpt lat="44.81422029809777" lon="12.077689670752557"><ele>-5.5</ele><time>2026-04-05T13:30:51.988Z</time></trkpt><trkpt lat="44.81418765833158" lon="12.07722189135701"><ele>-6.0</ele><time>2026-04-05T13:30:52.988Z</time></trkpt><trkpt lat="44.814158207921466" lon="12.076745749174865"><ele>-5.5</ele><time>2026-04-05T13:30:53.988Z</time></trkpt><trkpt lat="44.814132998799565" lon="12.076271014890567"><ele>-5.0</ele><time>2026-04-05T13:30:54.988Z</time></trkpt><trkpt lat="44.81410689982546" lon="12.075802407592056"><ele>-5.0</ele><time>2026-04-05T13:30:55.988Z</time></trkpt><trkpt lat="44.8140815413469" lon="12.075337657699436"><ele>-5.0</ele><time>2026-04-05T13:30:56.988Z</time></trkpt><trkpt lat="44.814062812583714" lon="12.074876756873405"><ele>-5.0</ele><time>2026-04-05T13:30:57.988Z</time></trkpt><trkpt lat="44.8140377403379" lon="12.074442779354388"><ele>-5.0</ele><time>2026-04-05T13:30:58.988Z</time></trkpt><trkpt lat="44.81401191417123" lon="12.074029987128219"><ele>-4.5</ele><time>2026-04-05T13:30:59.988Z</time></trkpt><trkpt lat="44.81398650920887" lon="12.073647126326572"><ele>-4.0</ele><time>2026-04-05T13:31:00.988Z</time></trkpt><trkpt lat="44.81396305753243" lon="12.073273477041134"><ele>-4.5</ele><time>2026-04-05T13:31:01.988Z</time></trkpt><trkpt lat="44.81393751928617" lon="12.07290981941465"><ele>-5.0</ele><time>2026-04-05T13:31:02.988Z</time></trkpt><trkpt lat="44.81391980749907" lon="12.072546359316819"><ele>-5.0</ele><time>2026-04-05T13:31:03.988Z</time></trkpt><trkpt lat="44.81389602361214" lon="12.072181169147074"><ele>-5.0</ele><time>2026-04-05T13:31:04.988Z</time></trkpt><trkpt lat="44.81387096721426" lon="12.071819056594602"><ele>-5.5</ele><time>2026-04-05T13:31:05.988Z</time></trkpt><trkpt lat="44.81385598744139" lon="12.071449711068835"><ele>-6.0</ele><time>2026-04-05T13:31:06.988Z</time></trkpt><trkpt lat="44.81383909601128" lon="12.071075757299017"><ele>-5.5</ele><time>2026-04-05T13:31:07.988Z</time></trkpt><trkpt lat="44.81381633818188" lon="12.070696598540804"><ele>-5.0</ele><time>2026-04-05T13:31:08.988Z</time></trkpt><trkpt lat="44.81378942374239" lon="12.070293853903046"><ele>-5.0</ele><time>2026-04-05T13:31:09.988Z</time></trkpt><trkpt lat="44.81376206194354" lon="12.069874366633929"><ele>-5.0</ele><time>2026-04-05T13:31:10.988Z</time></trkpt><trkpt lat="44.81373636838887" lon="12.069435058238085"><ele>-4.5</ele><time>2026-04-05T13:31:11.988Z</time></trkpt><trkpt lat="44.8137105109047" lon="12.068987885391644"><ele>-4.0</ele><time>2026-04-05T13:31:12.988Z</time></trkpt><trkpt lat="44.81368706024348" lon="12.068528199627872"><ele>-4.0</ele><time>2026-04-05T13:31:13.988Z</time></trkpt><trkpt lat="44.81366285035311" lon="12.068065966352671"><ele>-4.0</ele><time>2026-04-05T13:31:14.988Z</time></trkpt><trkpt lat="44.813637344824926" lon="12.067601296282502"><ele>-4.0</ele><time>2026-04-05T13:31:15.988Z</time></trkpt><trkpt lat="44.81361058768736" lon="12.067139944942491"><ele>-4.0</ele><time>2026-04-05T13:31:16.988Z</time></trkpt><trkpt lat="44.813583307153216" lon="12.06668502467028"><ele>-4.5</ele><time>2026-04-05T13:31:17.988Z</time></trkpt><trkpt lat="44.813565022084724" lon="12.066232414119185"><ele>-5.0</ele><time>2026-04-05T13:31:18.988Z</time></trkpt><trkpt lat="44.813547482712224" lon="12.065790302205292"><ele>-5.0</ele><time>2026-04-05T13:31:19.988Z</time></trkpt><trkpt lat="44.8135161185113" lon="12.065363247941518"><ele>-5.0</ele><time>2026-04-05T13:31:20.988Z</time></trkpt><trkpt lat="44.81349016910088" lon="12.064934515624207"><ele>-5.5</ele><time>2026-04-05T13:31:21.988Z</time></trkpt><trkpt lat="44.813464795879796" lon="12.06451048280668"><ele>-6.0</ele><time>2026-04-05T13:31:22.988Z</time></trkpt><trkpt lat="44.81344674658654" lon="12.064079520577005"><ele>-6.0</ele><time>2026-04-05T13:31:23.988Z</time></trkpt><trkpt lat="44.81342279854032" lon="12.06364916817129"><ele>-6.0</ele><time>2026-04-05T13:31:24.988Z</time></trkpt><trkpt lat="44.81338103646429" lon="12.063218210878096"><ele>-5.5</ele><time>2026-04-05T13:31:25.988Z</time></trkpt><trkpt lat="44.81335590214329" lon="12.062778899772502"><ele>-5.0</ele><time>2026-04-05T13:31:26.988Z</time></trkpt><trkpt lat="44.81333080323243" lon="12.062355539337215"><ele>-5.0</ele><time>2026-04-05T13:31:27.988Z</time></trkpt><trkpt lat="44.813306888185664" lon="12.061929013145848"><ele>-5.0</ele><time>2026-04-05T13:31:28.988Z</time></trkpt><trkpt lat="44.813281698854865" lon="12.061494399587303"><ele>-5.0</ele><time>2026-04-05T13:31:29.988Z</time></trkpt><trkpt lat="44.813254978642505" lon="12.06105087036325"><ele>-5.0</ele><time>2026-04-05T13:31:30.988Z</time></trkpt><trkpt lat="44.81322959961475" lon="12.060603976026345"><ele>-4.5</ele><time>2026-04-05T13:31:31.988Z</time></trkpt><trkpt lat="44.81320512504299" lon="12.060155295696106"><ele>-4.0</ele><time>2026-04-05T13:31:32.988Z</time></trkpt><trkpt lat="44.8131785466748" lon="12.059692702766919"><ele>-4.0</ele><time>2026-04-05T13:31:33.988Z</time></trkpt><trkpt lat="44.813152358906024" lon="12.059238292321302"><ele>-4.0</ele><time>2026-04-05T13:31:34.988Z</time></trkpt><trkpt lat="44.81312702547158" lon="12.05879870668768"><ele>-4.0</ele><time>2026-04-05T13:31:35.988Z</time></trkpt><trkpt lat="44.81310365270545" lon="12.058368360518026"><ele>-4.0</ele><time>2026-04-05T13:31:36.988Z</time></trkpt><trkpt lat="44.81308120024871" lon="12.057958801127809"><ele>-4.0</ele><time>2026-04-05T13:31:37.988Z</time></trkpt><trkpt lat="44.813058835919605" lon="12.05757164749308"><ele>-4.0</ele><time>2026-04-05T13:31:38.988Z</time></trkpt><trkpt lat="44.81303796813021" lon="12.057192201121229"><ele>-4.0</ele><time>2026-04-05T13:31:39.988Z</time></trkpt><trkpt lat="44.813021304591615" lon="12.056832929065793"><ele>-4.0</ele><time>2026-04-05T13:31:40.988Z</time></trkpt><trkpt lat="44.813020217095534" lon="12.056472031533518"><ele>-4.0</ele><time>2026-04-05T13:31:41.988Z</time></trkpt><trkpt lat="44.81298975387001" lon="12.056121239056028"><ele>-4.0</ele><time>2026-04-05T13:31:42.988Z</time></trkpt><trkpt lat="44.812966137491905" lon="12.055765265713918"><ele>-4.5</ele><time>2026-04-05T13:31:43.988Z</time></trkpt><trkpt lat="44.812944246948085" lon="12.055404925111578"><ele>-5.0</ele><time>2026-04-05T13:31:44.987Z</time></trkpt><trkpt lat="44.812919098395" lon="12.055050854446737"><ele>-5.5</ele><time>2026-04-05T13:31:45.987Z</time></trkpt><trkpt lat="44.81288876483877" lon="12.054697765066791"><ele>-6.0</ele><time>2026-04-05T13:31:46.987Z</time></trkpt><trkpt lat="44.81284309837711" lon="12.054340487819438"><ele>-6.0</ele><time>2026-04-05T13:31:47.987Z</time></trkpt><trkpt lat="44.81274064516166" lon="12.054013060954878"><ele>-6.0</ele><time>2026-04-05T13:31:48.987Z</time></trkpt><trkpt lat="44.81264278116144" lon="12.053696481721586"><ele>-6.0</ele><time>2026-04-05T13:31:49.987Z</time></trkpt><trkpt lat="44.8125410533979" lon="12.053371996432876"><ele>-6.0</ele><time>2026-04-05T13:31:50.989Z</time></trkpt><trkpt lat="44.81244095456442" lon="12.053049423650236"><ele>-6.0</ele><time>2026-04-05T13:31:51.988Z</time></trkpt><trkpt lat="44.812342343391755" lon="12.052726729659812"><ele>-6.0</ele><time>2026-04-05T13:31:52.988Z</time></trkpt><trkpt lat="44.812244669163505" lon="12.052406184203837"><ele>-5.5</ele><time>2026-04-05T13:31:53.988Z</time></trkpt><trkpt lat="44.81214638590861" lon="12.052083640798852"><ele>-5.0</ele><time>2026-04-05T13:31:54.988Z</time></trkpt><trkpt lat="44.81205669134907" lon="12.051751879410986"><ele>-5.5</ele><time>2026-04-05T13:31:55.988Z</time></trkpt><trkpt lat="44.8119662316212" lon="12.051416768814834"><ele>-6.0</ele><time>2026-04-05T13:31:56.989Z</time></trkpt><trkpt lat="44.8118809351205" lon="12.051079999775151"><ele>-5.0</ele><time>2026-04-05T13:31:57.988Z</time></trkpt><trkpt lat="44.811943767275714" lon="12.050664829499828"><ele>-4.0</ele><time>2026-04-05T13:31:58.988Z</time></trkpt><trkpt lat="44.81191951098783" lon="12.050299304467234"><ele>-3.5</ele><time>2026-04-05T13:31:59.989Z</time></trkpt><trkpt lat="44.81189218972116" lon="12.04992477893796"><ele>-3.0</ele><time>2026-04-05T13:32:00.988Z</time></trkpt><trkpt lat="44.81186895715598" lon="12.049544568684894"><ele>-3.0</ele><time>2026-04-05T13:32:01.988Z</time></trkpt><trkpt lat="44.81184320887377" lon="12.049174001906312"><ele>-3.0</ele><time>2026-04-05T13:32:02.989Z</time></trkpt><trkpt lat="44.811820046974454" lon="12.048823827694985"><ele>-3.0</ele><time>2026-04-05T13:32:03.988Z</time></trkpt><trkpt lat="44.81179856691181" lon="12.048501880298636"><ele>-3.0</ele><time>2026-04-05T13:32:04.988Z</time></trkpt><trkpt lat="44.811780466749006" lon="12.048203409953011"><ele>-3.0</ele><time>2026-04-05T13:32:05.988Z</time></trkpt><trkpt lat="44.811762197386145" lon="12.047927698016375"><ele>-3.0</ele><time>2026-04-05T13:32:06.988Z</time></trkpt><trkpt lat="44.81174563717605" lon="12.047669040345331"><ele>-3.0</ele><time>2026-04-05T13:32:07.988Z</time></trkpt><trkpt lat="44.81172533451638" lon="12.047408318073643"><ele>-3.0</ele><time>2026-04-05T13:32:08.988Z</time></trkpt><trkpt lat="44.81170082607717" lon="12.047141312396626"><ele>-3.0</ele><time>2026-04-05T13:32:09.988Z</time></trkpt><trkpt lat="44.8116875970508" lon="12.046864190028318"><ele>-3.0</ele><time>2026-04-05T13:32:10.988Z</time></trkpt><trkpt lat="44.811668663345" lon="12.046583226759385"><ele>-3.0</ele><time>2026-04-05T13:32:11.988Z</time></trkpt><trkpt lat="44.81164900965091" lon="12.046296859233472"><ele>-3.0</ele><time>2026-04-05T13:32:12.988Z</time></trkpt><trkpt lat="44.81163210024532" lon="12.046011538214916"><ele>-3.0</ele><time>2026-04-05T13:32:13.988Z</time></trkpt><trkpt lat="44.81161323476879" lon="12.045735398425592"><ele>-3.0</ele><time>2026-04-05T13:32:14.988Z</time></trkpt><trkpt lat="44.81159137290595" lon="12.045461816316731"><ele>-3.0</ele><time>2026-04-05T13:32:15.988Z</time></trkpt><trkpt lat="44.81157011618825" lon="12.045184725370088"><ele>-3.0</ele><time>2026-04-05T13:32:16.988Z</time></trkpt><trkpt lat="44.811550526932486" lon="12.044904634386706"><ele>-3.0</ele><time>2026-04-05T13:32:17.988Z</time></trkpt><trkpt lat="44.81153614095993" lon="12.044616415275694"><ele>-3.0</ele><time>2026-04-05T13:32:18.988Z</time></trkpt><trkpt lat="44.8115307365294" lon="12.044322382437818"><ele>-3.0</ele><time>2026-04-05T13:32:19.988Z</time></trkpt><trkpt lat="44.81152693378469" lon="12.044024763950555"><ele>-3.0</ele><time>2026-04-05T13:32:20.988Z</time></trkpt><trkpt lat="44.81151933592963" lon="12.043727677679193"><ele>-3.0</ele><time>2026-04-05T13:32:21.988Z</time></trkpt><trkpt lat="44.81151226513957" lon="12.043429222160276"><ele>-3.0</ele><time>2026-04-05T13:32:22.988Z</time></trkpt><trkpt lat="44.811507726433476" lon="12.043134069750904"><ele>-3.0</ele><time>2026-04-05T13:32:23.988Z</time></trkpt><trkpt lat="44.81150070917527" lon="12.042850443991572"><ele>-3.0</ele><time>2026-04-05T13:32:24.988Z</time></trkpt><trkpt lat="44.811498408947344" lon="12.04256929012039"><ele>-3.0</ele><time>2026-04-05T13:32:25.988Z</time></trkpt><trkpt lat="44.81149429171086" lon="12.042300279002914"><ele>-3.0</ele><time>2026-04-05T13:32:26.988Z</time></trkpt><trkpt lat="44.811491402816415" lon="12.042044201607835"><ele>-3.0</ele><time>2026-04-05T13:32:27.988Z</time></trkpt><trkpt lat="44.811488199700776" lon="12.041797283111498"><ele>-3.0</ele><time>2026-04-05T13:32:28.988Z</time></trkpt><trkpt lat="44.81148303777235" lon="12.041566614144294"><ele>-3.0</ele><time>2026-04-05T13:32:29.988Z</time></trkpt><trkpt lat="44.81147753823564" lon="12.041334810890264"><ele>-3.333333333333333</ele><time>2026-04-05T13:32:30.988Z</time></trkpt><trkpt lat="44.811468823951365" lon="12.041112540702738"><ele>-3.6666666666666665</ele><time>2026-04-05T13:32:31.988Z</time></trkpt><trkpt lat="44.811448926479564" lon="12.040891082453884"><ele>-4.0</ele><time>2026-04-05T13:32:32.988Z</time></trkpt><trkpt lat="44.8114191245242" lon="12.040666634560823"><ele>-4.0</ele><time>2026-04-05T13:32:33.988Z</time></trkpt><trkpt lat="44.81138268705694" lon="12.040438228325742"><ele>-4.0</ele><time>2026-04-05T13:32:34.987Z</time></trkpt><trkpt lat="44.81132333359922" lon="12.040203482143427"><ele>-4.0</ele><time>2026-04-05T13:32:35.987Z</time></trkpt><trkpt lat="44.81124794572122" lon="12.039962717231424"><ele>-4.0</ele><time>2026-04-05T13:32:36.987Z</time></trkpt><trkpt lat="44.81116428108514" lon="12.039704923611014"><ele>-4.0</ele><time>2026-04-05T13:32:37.987Z</time></trkpt><trkpt lat="44.81108110806419" lon="12.0394372525971"><ele>-4.0</ele><time>2026-04-05T13:32:38.987Z</time></trkpt><trkpt lat="44.811001770843546" lon="12.039166484109145"><ele>-3.6666666666666665</ele><time>2026-04-05T13:32:39.987Z</time></trkpt><trkpt lat="44.81092317848584" lon="12.038887509376186"><ele>-3.333333333333333</ele><time>2026-04-05T13:32:40.987Z</time></trkpt><trkpt lat="44.81084815661881" lon="12.038601795510267"><ele>-3.0</ele><time>2026-04-05T13:32:41.987Z</time></trkpt><trkpt lat="44.81077703492856" lon="12.03831496812817"><ele>-2.6666666666666665</ele><time>2026-04-05T13:32:42.987Z</time></trkpt><trkpt lat="44.81071358647673" lon="12.038027616463967"><ele>-2.333333333333333</ele><time>2026-04-05T13:32:43.987Z</time></trkpt><trkpt lat="44.810666800786656" lon="12.037740604643139"><ele>-2.0</ele><time>2026-04-05T13:32:44.987Z</time></trkpt><trkpt lat="44.810632819366695" lon="12.037452952316379"><ele>-2.0</ele><time>2026-04-05T13:32:45.987Z</time></trkpt><trkpt lat="44.81061699761779" lon="12.037144220651607"><ele>-2.0</ele><time>2026-04-05T13:32:46.987Z</time></trkpt><trkpt lat="44.810606970394474" lon="12.036822416359854"><ele>-2.0</ele><time>2026-04-05T13:32:47.987Z</time></trkpt><trkpt lat="44.81059681079971" lon="12.036488747246668"><ele>-2.0</ele><time>2026-04-05T13:32:48.987Z</time></trkpt><trkpt lat="44.810575623795216" lon="12.036149445948222"><ele>-2.0</ele><time>2026-04-05T13:32:49.987Z</time></trkpt><trkpt lat="44.8105563555176" lon="12.035803420600818"><ele>-2.0</ele><time>2026-04-05T13:32:50.987Z</time></trkpt><trkpt lat="44.810541218940564" lon="12.035446398861808"><ele>-2.0</ele><time>2026-04-05T13:32:51.987Z</time></trkpt><trkpt lat="44.81052384860151" lon="12.035085983786274"><ele>-2.0</ele><time>2026-04-05T13:32:52.987Z</time></trkpt><trkpt lat="44.81050682886172" lon="12.034719068728794"><ele>-2.0</ele><time>2026-04-05T13:32:53.987Z</time></trkpt><trkpt lat="44.810493929539405" lon="12.034356139291502"><ele>-3.0</ele><time>2026-04-05T13:32:54.987Z</time></trkpt><trkpt lat="44.81047639914066" lon="12.034003344917847"><ele>-4.0</ele><time>2026-04-05T13:32:55.987Z</time></trkpt><trkpt lat="44.8104626788293" lon="12.03363473949379"><ele>-3.5</ele><time>2026-04-05T13:32:56.987Z</time></trkpt><trkpt lat="44.81044582924912" lon="12.033264953134742"><ele>-3.0</ele><time>2026-04-05T13:32:57.987Z</time></trkpt><trkpt lat="44.81042606365772" lon="12.032900681296688"><ele>-3.0</ele><time>2026-04-05T13:32:58.987Z</time></trkpt><trkpt lat="44.81040875274617" lon="12.032544765353078"><ele>-3.0</ele><time>2026-04-05T13:32:59.987Z</time></trkpt><trkpt lat="44.81039453587759" lon="12.032195071027541"><ele>-3.0</ele><time>2026-04-05T13:33:00.987Z</time></trkpt><trkpt lat="44.810383294271595" lon="12.031868306059328"><ele>-3.0</ele><time>2026-04-05T13:33:01.987Z</time></trkpt><trkpt lat="44.81036936362963" lon="12.031563000597002"><ele>-3.0</ele><time>2026-04-05T13:33:02.987Z</time></trkpt><trkpt lat="44.810356006274056" lon="12.031275142713175"><ele>-3.0</ele><time>2026-04-05T13:33:03.987Z</time></trkpt><trkpt lat="44.81034034265015" lon="12.031010391858805"><ele>-3.0</ele><time>2026-04-05T13:33:04.987Z</time></trkpt><trkpt lat="44.81032785005585" lon="12.030752879665972"><ele>-3.0</ele><time>2026-04-05T13:33:05.987Z</time></trkpt><trkpt lat="44.810315498542934" lon="12.030500002566516"><ele>-2.6666666666666665</ele><time>2026-04-05T13:33:06.987Z</time></trkpt><trkpt lat="44.81030920112134" lon="12.030238376197104"><ele>-2.333333333333333</ele><time>2026-04-05T13:33:07.987Z</time></trkpt><trkpt lat="44.81028789273052" lon="12.029978203705268"><ele>-2.0</ele><time>2026-04-05T13:33:08.987Z</time></trkpt><trkpt lat="44.81028029013512" lon="12.029703436213996"><ele>-2.0</ele><time>2026-04-05T13:33:09.987Z</time></trkpt><trkpt lat="44.810271947583665" lon="12.029418262416932"><ele>-2.0</ele><time>2026-04-05T13:33:10.987Z</time></trkpt><trkpt lat="44.81026190252563" lon="12.029117585945915"><ele>-2.0</ele><time>2026-04-05T13:33:11.987Z</time></trkpt><trkpt lat="44.8102483606359" lon="12.028801434536957"><ele>-2.0</ele><time>2026-04-05T13:33:12.987Z</time></trkpt><trkpt lat="44.81023729897779" lon="12.028477025377732"><ele>-2.0</ele><time>2026-04-05T13:33:13.987Z</time></trkpt><trkpt lat="44.81022310732658" lon="12.028151380259454"><ele>-2.0</ele><time>2026-04-05T13:33:14.987Z</time></trkpt><trkpt lat="44.81020487522497" lon="12.027815892713289"><ele>-2.0</ele><time>2026-04-05T13:33:15.987Z</time></trkpt><trkpt lat="44.81019069886343" lon="12.027475181436854"><ele>-2.0</ele><time>2026-04-05T13:33:16.987Z</time></trkpt><trkpt lat="44.8101759751553" lon="12.027131124789431"><ele>-2.0</ele><time>2026-04-05T13:33:17.987Z</time></trkpt><trkpt lat="44.81016155900557" lon="12.02678641783144"><ele>-2.5</ele><time>2026-04-05T13:33:18.987Z</time></trkpt><trkpt lat="44.81014474665414" lon="12.0264405815303"><ele>-3.0</ele><time>2026-04-05T13:33:19.987Z</time></trkpt><trkpt lat="44.81012883114899" lon="12.026092911493233"><ele>-2.0</ele><time>2026-04-05T13:33:20.987Z</time></trkpt><trkpt lat="44.81011050589392" lon="12.025737709266846"><ele>-1.0</ele><time>2026-04-05T13:33:21.987Z</time></trkpt><trkpt lat="44.8100914004394" lon="12.025386604847435"><ele>-1.0</ele><time>2026-04-05T13:33:22.987Z</time></trkpt><trkpt lat="44.81007432778276" lon="12.025050888046861"><ele>-1.0</ele><time>2026-04-05T13:33:23.987Z</time></trkpt><trkpt lat="44.81006204440182" lon="12.024725628664358"><ele>-1.0</ele><time>2026-04-05T13:33:24.987Z</time></trkpt><trkpt lat="44.81004668283744" lon="12.02440658749727"><ele>-1.0</ele><time>2026-04-05T13:33:25.987Z</time></trkpt><trkpt lat="44.81003345378305" lon="12.024089998606422"><ele>-1.6666666666666665</ele><time>2026-04-05T13:33:26.987Z</time></trkpt><trkpt lat="44.81002015912106" lon="12.023780206893537"><ele>-2.3333333333333335</ele><time>2026-04-05T13:33:27.987Z</time></trkpt><trkpt lat="44.81001213097573" lon="12.023479281420606"><ele>-3.0</ele><time>2026-04-05T13:33:28.987Z</time></trkpt><trkpt lat="44.809999278492235" lon="12.023214845529743"><ele>-3.333333333333333</ele><time>2026-04-05T13:33:29.987Z</time></trkpt><trkpt lat="44.80999196423415" lon="12.02296942508523"><ele>-3.6666666666666665</ele><time>2026-04-05T13:33:30.987Z</time></trkpt><trkpt lat="44.809982469450325" lon="12.022750303470056"><ele>-4.0</ele><time>2026-04-05T13:33:31.987Z</time></trkpt><trkpt lat="44.80997701472696" lon="12.022535117668006"><ele>-4.0</ele><time>2026-04-05T13:33:32.987Z</time></trkpt><trkpt lat="44.80997258971159" lon="12.0223715858567"><ele>-4.0</ele><time>2026-04-05T13:33:33.986Z</time></trkpt><trkpt lat="44.80996679403557" lon="12.02221325013512"><ele>-4.0</ele><time>2026-04-05T13:33:34.986Z</time></trkpt><trkpt lat="44.80993805707001" lon="12.02205807442251"><ele>-4.0</ele><time>2026-04-05T13:33:35.986Z</time></trkpt><trkpt lat="44.80993194917262" lon="12.021916830045548"><ele>-4.0</ele><time>2026-04-05T13:33:36.986Z</time></trkpt><trkpt lat="44.80992042871223" lon="12.021797686318621"><ele>-4.0</ele><time>2026-04-05T13:33:37.986Z</time></trkpt><trkpt lat="44.80991541902375" lon="12.021634347972137"><ele>-4.0</ele><time>2026-04-05T13:33:38.986Z</time></trkpt><trkpt lat="44.80991195052022" lon="12.02145421912853"><ele>-4.0</ele><time>2026-04-05T13:33:39.986Z</time></trkpt><trkpt lat="44.80989546157167" lon="12.021251332165367"><ele>-4.0</ele><time>2026-04-05T13:33:40.986Z</time></trkpt><trkpt lat="44.809879270991125" lon="12.021021280655898"><ele>-3.333333333333333</ele><time>2026-04-05T13:33:41.986Z</time></trkpt><trkpt lat="44.809872223552155" lon="12.02079135676354"><ele>-2.6666666666666665</ele><time>2026-04-05T13:33:42.986Z</time></trkpt><trkpt lat="44.80986137654221" lon="12.02057486709483"><ele>-2.0</ele><time>2026-04-05T13:33:43.986Z</time></trkpt><trkpt lat="44.8098540628026" lon="12.020346976337406"><ele>-2.0</ele><time>2026-04-05T13:33:44.986Z</time></trkpt><trkpt lat="44.809844861712534" lon="12.020118407844349"><ele>-2.0</ele><time>2026-04-05T13:33:45.986Z</time></trkpt><trkpt lat="44.8098327465725" lon="12.019890127350083"><ele>-2.0</ele><time>2026-04-05T13:33:46.986Z</time></trkpt><trkpt lat="44.80982365737536" lon="12.019662746553617"><ele>-2.0</ele><time>2026-04-05T13:33:47.986Z</time></trkpt><trkpt lat="44.809813336730585" lon="12.019436959599389"><ele>-2.0</ele><time>2026-04-05T13:33:48.986Z</time></trkpt><trkpt lat="44.809806029754306" lon="12.019214598854996"><ele>-2.0</ele><time>2026-04-05T13:33:49.986Z</time></trkpt><trkpt lat="44.80979348628656" lon="12.019002991042488"><ele>-2.0</ele><time>2026-04-05T13:33:50.986Z</time></trkpt><trkpt lat="44.809782616013386" lon="12.018798193611092"><ele>-2.0</ele><time>2026-04-05T13:33:51.986Z</time></trkpt><trkpt lat="44.809771765301505" lon="12.01860834156042"><ele>-2.0</ele><time>2026-04-05T13:33:52.986Z</time></trkpt><trkpt lat="44.809763779136524" lon="12.01842398199396"><ele>-2.0</ele><time>2026-04-05T13:33:53.986Z</time></trkpt><trkpt lat="44.809758461959426" lon="12.018266434733594"><ele>-1.6666666666666665</ele><time>2026-04-05T13:33:54.986Z</time></trkpt><trkpt lat="44.80975925044878" lon="12.018138932117342"><ele>-1.3333333333333333</ele><time>2026-04-05T13:33:55.986Z</time></trkpt><trkpt lat="44.80975668504838" lon="12.01804567596572"><ele>-1.0</ele><time>2026-04-05T13:33:56.988Z</time></trkpt><trkpt lat="44.809750613897286" lon="12.017920308090025"><ele>-0.6666666666666666</ele><time>2026-04-05T13:33:58.988Z</time></trkpt><trkpt lat="44.80975057718449" lon="12.017800178701808"><ele>-0.3333333333333333</ele><time>2026-04-05T13:34:00.988Z</time></trkpt><trkpt lat="44.80975518082015" lon="12.01767535073741"><ele>0.0</ele><time>2026-04-05T13:34:02.988Z</time></trkpt><trkpt lat="44.80987855751412" lon="12.017589241497086"><ele>0.0</ele><time>2026-04-05T13:34:03.988Z</time></trkpt><trkpt lat="44.80995604960949" lon="12.017498549527781"><ele>0.0</ele><time>2026-04-05T13:34:04.988Z</time></trkpt><trkpt lat="44.810043152426616" lon="12.017387961191735"><ele>0.0</ele><time>2026-04-05T13:34:05.988Z</time></trkpt><trkpt lat="44.81013224160708" lon="12.017282748412256"><ele>0.0</ele><time>2026-04-05T13:34:06.988Z</time></trkpt><trkpt lat="44.81024163306157" lon="12.017184701436822"><ele>0.0</ele><time>2026-04-05T13:34:07.988Z</time></trkpt><trkpt lat="44.81035629361112" lon="12.017066637194095"><ele>0.0</ele><time>2026-04-05T13:34:08.988Z</time></trkpt><trkpt lat="44.81046386152975" lon="12.01692797921942"><ele>0.0</ele><time>2026-04-05T13:34:09.988Z</time></trkpt><trkpt lat="44.8105724956244" lon="12.016789529274766"><ele>0.0</ele><time>2026-04-05T13:34:10.988Z</time></trkpt><trkpt lat="44.81067428538847" lon="12.016652757606128"><ele>0.0</ele><time>2026-04-05T13:34:11.988Z</time></trkpt><trkpt lat="44.81076684023105" lon="12.016524615591901"><ele>0.0</ele><time>2026-04-05T13:34:12.988Z</time></trkpt><trkpt lat="44.81087330767111" lon="12.01642980898453"><ele>0.0</ele><time>2026-04-05T13:34:13.988Z</time></trkpt><trkpt lat="44.810958527621736" lon="12.016322701550981"><ele>0.0</ele><time>2026-04-05T13:34:14.988Z</time></trkpt><trkpt lat="44.811042076449155" lon="12.016218853146821"><ele>0.0</ele><time>2026-04-05T13:34:15.988Z</time></trkpt><trkpt lat="44.81112376873732" lon="12.016106727155512"><ele>0.0</ele><time>2026-04-05T13:34:16.988Z</time></trkpt><trkpt lat="44.81120098602329" lon="12.01600305035179"><ele>0.0</ele><time>2026-04-05T13:34:17.988Z</time></trkpt><trkpt lat="44.81127624204426" lon="12.015903803356943"><ele>0.0</ele><time>2026-04-05T13:34:18.988Z</time></trkpt><trkpt lat="44.811349803149604" lon="12.015811643333576"><ele>0.0</ele><time>2026-04-05T13:34:19.988Z</time></trkpt><trkpt lat="44.81142679069835" lon="12.015717138623536"><ele>0.25</ele><time>2026-04-05T13:34:20.988Z</time></trkpt><trkpt lat="44.81151124095815" lon="12.015615164183842"><ele>0.5</ele><time>2026-04-05T13:34:21.988Z</time></trkpt><trkpt lat="44.81159713509294" lon="12.01550938857131"><ele>0.75</ele><time>2026-04-05T13:34:22.988Z</time></trkpt><trkpt lat="44.8117046747996" lon="12.01544322341571"><ele>1.0</ele><time>2026-04-05T13:34:23.988Z</time></trkpt><trkpt lat="44.81181919965471" lon="12.015392149554586"><ele>1.25</ele><time>2026-04-05T13:34:24.988Z</time></trkpt><trkpt lat="44.811940458764084" lon="12.015377793516853"><ele>1.5</ele><time>2026-04-05T13:34:25.988Z</time></trkpt><trkpt lat="44.812071672315724" lon="12.01539489338763"><ele>1.75</ele><time>2026-04-05T13:34:26.988Z</time></trkpt><trkpt lat="44.81219793920682" lon="12.015447642498732"><ele>2.0</ele><time>2026-04-05T13:34:27.988Z</time></trkpt><trkpt lat="44.81232017133008" lon="12.015543467568268"><ele>2.0</ele><time>2026-04-05T13:34:28.988Z</time></trkpt><trkpt lat="44.81242414668181" lon="12.015682995908582"><ele>2.0</ele><time>2026-04-05T13:34:29.988Z</time></trkpt><trkpt lat="44.81253011012092" lon="12.015870773938216"><ele>2.0</ele><time>2026-04-05T13:34:30.988Z</time></trkpt><trkpt lat="44.81264941070392" lon="12.016091009599053"><ele>2.0</ele><time>2026-04-05T13:34:31.988Z</time></trkpt><trkpt lat="44.81277207470366" lon="12.0163159032822"><ele>2.0</ele><time>2026-04-05T13:34:32.988Z</time></trkpt><trkpt lat="44.81293385439305" lon="12.016524500224202"><ele>2.0</ele><time>2026-04-05T13:34:33.988Z</time></trkpt><trkpt lat="44.81307236123117" lon="12.016769756143095"><ele>1.5</ele><time>2026-04-05T13:34:34.988Z</time></trkpt><trkpt lat="44.81320518805521" lon="12.017039871282838"><ele>1.0</ele><time>2026-04-05T13:34:35.988Z</time></trkpt><trkpt lat="44.813336767989156" lon="12.017329187277046"><ele>1.0</ele><time>2026-04-05T13:34:36.988Z</time></trkpt><trkpt lat="44.813467340546026" lon="12.01762797381618"><ele>1.0</ele><time>2026-04-05T13:34:37.988Z</time></trkpt><trkpt lat="44.813600631145306" lon="12.017928746007282"><ele>0.5</ele><time>2026-04-05T13:34:38.988Z</time></trkpt><trkpt lat="44.81373678564658" lon="12.018233663848491"><ele>0.0</ele><time>2026-04-05T13:34:39.988Z</time></trkpt><trkpt lat="44.813877177937215" lon="12.01853805735172"><ele>0.0</ele><time>2026-04-05T13:34:40.988Z</time></trkpt><trkpt lat="44.81398231724436" lon="12.018881695572977"><ele>0.0</ele><time>2026-04-05T13:34:41.988Z</time></trkpt><trkpt lat="44.81411824568499" lon="12.01919960952476"><ele>0.0</ele><time>2026-04-05T13:34:42.988Z</time></trkpt><trkpt lat="44.814249184453374" lon="12.019510562023815"><ele>0.0</ele><time>2026-04-05T13:34:43.988Z</time></trkpt><trkpt lat="44.81437762302942" lon="12.019820331406292"><ele>0.0</ele><time>2026-04-05T13:34:44.988Z</time></trkpt><trkpt lat="44.81450435754503" lon="12.020125991995403"><ele>0.0</ele><time>2026-04-05T13:34:45.988Z</time></trkpt><trkpt lat="44.814626707482496" lon="12.020421076715287"><ele>0.0</ele><time>2026-04-05T13:34:46.988Z</time></trkpt><trkpt lat="44.81474531123636" lon="12.020707126409649"><ele>0.0</ele><time>2026-04-05T13:34:47.988Z</time></trkpt><trkpt lat="44.814859841701136" lon="12.020988887589631"><ele>-0.5</ele><time>2026-04-05T13:34:48.988Z</time></trkpt><trkpt lat="44.814970340678116" lon="12.021270317890353"><ele>-1.0</ele><time>2026-04-05T13:34:49.988Z</time></trkpt><trkpt lat="44.81507376998003" lon="12.021556063479649"><ele>-1.0</ele><time>2026-04-05T13:34:50.987Z</time></trkpt><trkpt lat="44.81517040251433" lon="12.021852061845852"><ele>-1.0</ele><time>2026-04-05T13:34:51.987Z</time></trkpt><trkpt lat="44.81524424364138" lon="12.022162389536101"><ele>-1.0</ele><time>2026-04-05T13:34:52.987Z</time></trkpt><trkpt lat="44.815304905173186" lon="12.022488433515417"><ele>-1.0</ele><time>2026-04-05T13:34:53.987Z</time></trkpt><trkpt lat="44.81535362629114" lon="12.02282872785028"><ele>-1.0</ele><time>2026-04-05T13:34:54.987Z</time></trkpt><trkpt lat="44.815394635924" lon="12.023180328007465"><ele>-1.0</ele><time>2026-04-05T13:34:55.987Z</time></trkpt><trkpt lat="44.815429403074134" lon="12.02354738339634"><ele>-1.0</ele><time>2026-04-05T13:34:56.987Z</time></trkpt><trkpt lat="44.81546141838789" lon="12.023920146366278"><ele>-1.0</ele><time>2026-04-05T13:34:57.987Z</time></trkpt><trkpt lat="44.815490887401076" lon="12.024298140508906"><ele>-0.5</ele><time>2026-04-05T13:34:58.987Z</time></trkpt><trkpt lat="44.81551490453102" lon="12.024680595859442"><ele>0.0</ele><time>2026-04-05T13:34:59.987Z</time></trkpt><trkpt lat="44.81553624815795" lon="12.025067211799215"><ele>0.0</ele><time>2026-04-05T13:35:00.987Z</time></trkpt><trkpt lat="44.815557461922445" lon="12.025460300732137"><ele>0.0</ele><time>2026-04-05T13:35:01.987Z</time></trkpt><trkpt lat="44.81557742855707" lon="12.025846774664188"><ele>-0.5</ele><time>2026-04-05T13:35:02.987Z</time></trkpt><trkpt lat="44.81559704097987" lon="12.02624377478167"><ele>-1.0</ele><time>2026-04-05T13:35:03.987Z</time></trkpt><trkpt lat="44.81561677913878" lon="12.026643319939469"><ele>-1.0</ele><time>2026-04-05T13:35:04.987Z</time></trkpt><trkpt lat="44.81565217895222" lon="12.027044106898735"><ele>-1.0</ele><time>2026-04-05T13:35:05.987Z</time></trkpt><trkpt lat="44.81566910129362" lon="12.027451466211515"><ele>-0.5</ele><time>2026-04-05T13:35:06.987Z</time></trkpt><trkpt lat="44.81569153360562" lon="12.027849046776186"><ele>0.0</ele><time>2026-04-05T13:35:07.987Z</time></trkpt><trkpt lat="44.81571004042838" lon="12.02824076057707"><ele>-0.5</ele><time>2026-04-05T13:35:08.987Z</time></trkpt><trkpt lat="44.81572727460587" lon="12.028626746134654"><ele>-1.0</ele><time>2026-04-05T13:35:09.987Z</time></trkpt><trkpt lat="44.81574541515892" lon="12.028989049180572"><ele>-1.0</ele><time>2026-04-05T13:35:10.987Z</time></trkpt><trkpt lat="44.81575960815207" lon="12.029328739817851"><ele>-1.0</ele><time>2026-04-05T13:35:11.987Z</time></trkpt><trkpt lat="44.815778456399904" lon="12.029640722158438"><ele>-1.0</ele><time>2026-04-05T13:35:12.987Z</time></trkpt><trkpt lat="44.81576896304146" lon="12.029948248628925"><ele>-1.0</ele><time>2026-04-05T13:35:13.987Z</time></trkpt><trkpt lat="44.81580604013269" lon="12.03022815000657"><ele>-1.0</ele><time>2026-04-05T13:35:14.987Z</time></trkpt><trkpt lat="44.81586360785464" lon="12.030498981987153"><ele>-1.0</ele><time>2026-04-05T13:35:15.987Z</time></trkpt><trkpt lat="44.81588617219946" lon="12.030784774117652"><ele>-1.0</ele><time>2026-04-05T13:35:16.987Z</time></trkpt><trkpt lat="44.81601735661051" lon="12.031053254723812"><ele>-1.0</ele><time>2026-04-05T13:35:17.987Z</time></trkpt><trkpt lat="44.816153883462675" lon="12.031321372707195"><ele>-1.0</ele><time>2026-04-05T13:35:18.987Z</time></trkpt><trkpt lat="44.816288945840604" lon="12.031605328405139"><ele>-1.0</ele><time>2026-04-05T13:35:19.987Z</time></trkpt><trkpt lat="44.81642969357293" lon="12.031889777639842"><ele>-1.0</ele><time>2026-04-05T13:35:20.987Z</time></trkpt><trkpt lat="44.81656775811047" lon="12.032174446135494"><ele>-1.0</ele><time>2026-04-05T13:35:21.987Z</time></trkpt><trkpt lat="44.816702280673724" lon="12.032449124891754"><ele>-1.0</ele><time>2026-04-05T13:35:22.987Z</time></trkpt><trkpt lat="44.81682667918218" lon="12.03271223347113"><ele>-1.0</ele><time>2026-04-05T13:35:23.987Z</time></trkpt><trkpt lat="44.816947059353275" lon="12.032958764254639"><ele>-1.0</ele><time>2026-04-05T13:35:24.987Z</time></trkpt><trkpt lat="44.817066579683086" lon="12.033188547246862"><ele>-1.0</ele><time>2026-04-05T13:35:25.987Z</time></trkpt><trkpt lat="44.81720027041761" lon="12.033404584790501"><ele>-1.0</ele><time>2026-04-05T13:35:26.987Z</time></trkpt><trkpt lat="44.81736008052781" lon="12.033605259660979"><ele>-1.0</ele><time>2026-04-05T13:35:27.987Z</time></trkpt><trkpt lat="44.81753996376082" lon="12.033793786257544"><ele>-1.0</ele><time>2026-04-05T13:35:28.987Z</time></trkpt><trkpt lat="44.817739795924496" lon="12.033976388232066"><ele>-1.0</ele><time>2026-04-05T13:35:29.987Z</time></trkpt><trkpt lat="44.817943087964586" lon="12.034148011925357"><ele>-1.0</ele><time>2026-04-05T13:35:30.987Z</time></trkpt><trkpt lat="44.81814624127462" lon="12.034314704406425"><ele>-1.0</ele><time>2026-04-05T13:35:31.987Z</time></trkpt><trkpt lat="44.81835392793675" lon="12.03447773142287"><ele>-2.0</ele><time>2026-04-05T13:35:32.987Z</time></trkpt><trkpt lat="44.81856199319393" lon="12.034633097266324"><ele>-3.0</ele><time>2026-04-05T13:35:33.987Z</time></trkpt><trkpt lat="44.818772967448304" lon="12.034779379965501"><ele>-3.0</ele><time>2026-04-05T13:35:34.987Z</time></trkpt><trkpt lat="44.81899427401032" lon="12.034935835316288"><ele>-3.0</ele><time>2026-04-05T13:35:35.987Z</time></trkpt><trkpt lat="44.81921822377287" lon="12.035076608425461"><ele>-3.0</ele><time>2026-04-05T13:35:36.987Z</time></trkpt><trkpt lat="44.81944771068925" lon="12.035209721313024"><ele>-3.0</ele><time>2026-04-05T13:35:37.987Z</time></trkpt><trkpt lat="44.81968403780105" lon="12.035314383337731"><ele>-3.0</ele><time>2026-04-05T13:35:38.987Z</time></trkpt><trkpt lat="44.81992587686808" lon="12.03540250286127"><ele>-3.0</ele><time>2026-04-05T13:35:39.987Z</time></trkpt><trkpt lat="44.820172307573635" lon="12.035477040818082"><ele>-2.5</ele><time>2026-04-05T13:35:40.987Z</time></trkpt><trkpt lat="44.82042078125549" lon="12.035539855056808"><ele>-2.0</ele><time>2026-04-05T13:35:41.987Z</time></trkpt><trkpt lat="44.82067290412932" lon="12.035586430720903"><ele>-2.0</ele><time>2026-04-05T13:35:42.987Z</time></trkpt><trkpt lat="44.820922370718066" lon="12.035620817855644"><ele>-2.0</ele><time>2026-04-05T13:35:43.987Z</time></trkpt><trkpt lat="44.82116000109136" lon="12.035646781658539"><ele>-2.0</ele><time>2026-04-05T13:35:44.987Z</time></trkpt><trkpt lat="44.82138719065251" lon="12.035639414803848"><ele>-2.0</ele><time>2026-04-05T13:35:45.987Z</time></trkpt><trkpt lat="44.821604291042846" lon="12.03562982076511"><ele>-2.0</ele><time>2026-04-05T13:35:46.987Z</time></trkpt><trkpt lat="44.82180179175156" lon="12.035590501573898"><ele>-1.0</ele><time>2026-04-05T13:35:47.987Z</time></trkpt><trkpt lat="44.82197635612589" lon="12.0355347004888"><ele>0.0</ele><time>2026-04-05T13:35:48.987Z</time></trkpt><trkpt lat="44.82213634949278" lon="12.035433050891356"><ele>1.0</ele><time>2026-04-05T13:35:49.986Z</time></trkpt><trkpt lat="44.82228410653582" lon="12.035294629123223"><ele>1.0</ele><time>2026-04-05T13:35:50.986Z</time></trkpt><trkpt lat="44.82240808774632" lon="12.035113785537774"><ele>1.0</ele><time>2026-04-05T13:35:51.986Z</time></trkpt><trkpt lat="44.82250929828897" lon="12.034896744176597"><ele>1.0</ele><time>2026-04-05T13:35:52.986Z</time></trkpt><trkpt lat="44.822621213745414" lon="12.034675132126205"><ele>0.0</ele><time>2026-04-05T13:35:53.986Z</time></trkpt><trkpt lat="44.822742695083015" lon="12.034472137483762"><ele>-1.0</ele><time>2026-04-05T13:35:54.986Z</time></trkpt><trkpt lat="44.82288722624818" lon="12.034293589007058"><ele>-2.0</ele><time>2026-04-05T13:35:55.986Z</time></trkpt><trkpt lat="44.823027769375535" lon="12.034134958305927"><ele>-2.0</ele><time>2026-04-05T13:35:56.986Z</time></trkpt><trkpt lat="44.82320100423182" lon="12.034017940944652"><ele>-2.0</ele><time>2026-04-05T13:35:57.986Z</time></trkpt><trkpt lat="44.82339157599116" lon="12.033928978967245"><ele>-2.0</ele><time>2026-04-05T13:35:58.986Z</time></trkpt><trkpt lat="44.82358881062252" lon="12.033856333355654"><ele>-2.0</ele><time>2026-04-05T13:35:59.986Z</time></trkpt><trkpt lat="44.82379546181416" lon="12.033790139557041"><ele>-2.0</ele><time>2026-04-05T13:36:00.986Z</time></trkpt><trkpt lat="44.82400536585263" lon="12.033744556219787"><ele>-2.0</ele><time>2026-04-05T13:36:01.986Z</time></trkpt><trkpt lat="44.82422331287239" lon="12.033731556867968"><ele>-2.333333333333333</ele><time>2026-04-05T13:36:02.987Z</time></trkpt><trkpt lat="44.82444524162207" lon="12.033737982342469"><ele>-2.6666666666666665</ele><time>2026-04-05T13:36:03.988Z</time></trkpt><trkpt lat="44.824667059368146" lon="12.033747437670478"><ele>-3.0</ele><time>2026-04-05T13:36:04.988Z</time></trkpt><trkpt lat="44.82489412665356" lon="12.03376485296538"><ele>-3.0</ele><time>2026-04-05T13:36:05.987Z</time></trkpt><trkpt lat="44.82513021007068" lon="12.033806001075504"><ele>-3.0</ele><time>2026-04-05T13:36:06.987Z</time></trkpt><trkpt lat="44.825368204156085" lon="12.033865983481821"><ele>-3.5</ele><time>2026-04-05T13:36:07.987Z</time></trkpt><trkpt lat="44.82560618112466" lon="12.033938337481507"><ele>-4.0</ele><time>2026-04-05T13:36:08.987Z</time></trkpt><trkpt lat="44.82583854510547" lon="12.034015850776957"><ele>-3.5</ele><time>2026-04-05T13:36:09.987Z</time></trkpt><trkpt lat="44.82607030770992" lon="12.034112780181282"><ele>-3.0</ele><time>2026-04-05T13:36:10.987Z</time></trkpt><trkpt lat="44.826295137109604" lon="12.034229633856372"><ele>-2.5</ele><time>2026-04-05T13:36:11.987Z</time></trkpt><trkpt lat="44.826511470161776" lon="12.034355745305174"><ele>-2.0</ele><time>2026-04-05T13:36:12.987Z</time></trkpt><trkpt lat="44.82672307742428" lon="12.034513912610507"><ele>-3.0</ele><time>2026-04-05T13:36:13.987Z</time></trkpt><trkpt lat="44.82692606749235" lon="12.03470441988478"><ele>-4.0</ele><time>2026-04-05T13:36:14.988Z</time></trkpt><trkpt lat="44.82713008819826" lon="12.034912337926164"><ele>-3.5</ele><time>2026-04-05T13:36:15.987Z</time></trkpt><trkpt lat="44.827330253565925" lon="12.035121163868133"><ele>-3.0</ele><time>2026-04-05T13:36:16.987Z</time></trkpt><trkpt lat="44.82752579504883" lon="12.035325777513226"><ele>-2.5</ele><time>2026-04-05T13:36:17.987Z</time></trkpt><trkpt lat="44.8277097611234" lon="12.035546793646162"><ele>-2.0</ele><time>2026-04-05T13:36:18.987Z</time></trkpt><trkpt lat="44.82787903858087" lon="12.035783540907056"><ele>-1.5</ele><time>2026-04-05T13:36:19.987Z</time></trkpt><trkpt lat="44.82803952832102" lon="12.036037643497346"><ele>-1.0</ele><time>2026-04-05T13:36:20.987Z</time></trkpt><trkpt lat="44.82819015023558" lon="12.036317396499259"><ele>-0.5</ele><time>2026-04-05T13:36:21.987Z</time></trkpt><trkpt lat="44.82828724058951" lon="12.03665748665862"><ele>0.0</ele><time>2026-04-05T13:36:22.987Z</time></trkpt><trkpt lat="44.82842696018144" lon="12.036959465770702"><ele>-1.0</ele><time>2026-04-05T13:36:23.987Z</time></trkpt><trkpt lat="44.82856919399158" lon="12.037268819386986"><ele>-2.0</ele><time>2026-04-05T13:36:24.987Z</time></trkpt><trkpt lat="44.82871436407829" lon="12.037581862724165"><ele>-2.0</ele><time>2026-04-05T13:36:25.987Z</time></trkpt><trkpt lat="44.82886107364663" lon="12.037895994277335"><ele>-2.0</ele><time>2026-04-05T13:36:26.987Z</time></trkpt><trkpt lat="44.829002367368716" lon="12.038199064160466"><ele>-1.5</ele><time>2026-04-05T13:36:27.987Z</time></trkpt><trkpt lat="44.82913002881433" lon="12.038494359422495"><ele>-1.0</ele><time>2026-04-05T13:36:28.987Z</time></trkpt><trkpt lat="44.82924333938449" lon="12.038795645650659"><ele>-1.0</ele><time>2026-04-05T13:36:29.987Z</time></trkpt><trkpt lat="44.82933960066966" lon="12.03910894478043"><ele>-1.0</ele><time>2026-04-05T13:36:30.987Z</time></trkpt><trkpt lat="44.82942740614401" lon="12.039430802914321"><ele>-1.5</ele><time>2026-04-05T13:36:31.987Z</time></trkpt><trkpt lat="44.8295115716863" lon="12.039759117567838"><ele>-2.0</ele><time>2026-04-05T13:36:32.987Z</time></trkpt><trkpt lat="44.82959984226443" lon="12.040089901478524"><ele>-2.5</ele><time>2026-04-05T13:36:33.987Z</time></trkpt><trkpt lat="44.82970109395177" lon="12.040419633743701"><ele>-3.0</ele><time>2026-04-05T13:36:34.987Z</time></trkpt><trkpt lat="44.829823119455604" lon="12.040735404169139"><ele>-2.0</ele><time>2026-04-05T13:36:35.987Z</time></trkpt><trkpt lat="44.82996202453866" lon="12.04103127747261"><ele>-1.0</ele><time>2026-04-05T13:36:36.987Z</time></trkpt><trkpt lat="44.83014124055202" lon="12.041303920668742"><ele>-1.0</ele><time>2026-04-05T13:36:37.987Z</time></trkpt><trkpt lat="44.83032028731289" lon="12.0415953298665"><ele>-1.0</ele><time>2026-04-05T13:36:38.987Z</time></trkpt><trkpt lat="44.83050984143395" lon="12.041881068010454"><ele>-1.0</ele><time>2026-04-05T13:36:39.987Z</time></trkpt><trkpt lat="44.83070076339305" lon="12.042167883438335"><ele>-1.0</ele><time>2026-04-05T13:36:40.987Z</time></trkpt><trkpt lat="44.830873837417776" lon="12.042464087047973"><ele>-2.0</ele><time>2026-04-05T13:36:41.987Z</time></trkpt><trkpt lat="44.83106196820066" lon="12.042723152905666"><ele>-3.0</ele><time>2026-04-05T13:36:42.987Z</time></trkpt><trkpt lat="44.83123120686192" lon="12.042986404586456"><ele>-3.0</ele><time>2026-04-05T13:36:43.987Z</time></trkpt><trkpt lat="44.83139664083357" lon="12.04324014740957"><ele>-3.0</ele><time>2026-04-05T13:36:44.987Z</time></trkpt><trkpt lat="44.831560792680094" lon="12.043491194298452"><ele>-3.0</ele><time>2026-04-05T13:36:45.987Z</time></trkpt><trkpt lat="44.831729432517065" lon="12.043744756709136"><ele>-3.0</ele><time>2026-04-05T13:36:46.987Z</time></trkpt><trkpt lat="44.83189317619284" lon="12.04400648540636"><ele>-2.5</ele><time>2026-04-05T13:36:47.987Z</time></trkpt><trkpt lat="44.832059274557594" lon="12.04426567518905"><ele>-2.0</ele><time>2026-04-05T13:36:48.987Z</time></trkpt><trkpt lat="44.832229865182605" lon="12.044535876513828"><ele>-2.0</ele><time>2026-04-05T13:36:49.987Z</time></trkpt><trkpt lat="44.832400301853816" lon="12.044803764059866"><ele>-2.0</ele><time>2026-04-05T13:36:50.987Z</time></trkpt><trkpt lat="44.832566475588" lon="12.045081462452053"><ele>-1.5</ele><time>2026-04-05T13:36:51.987Z</time></trkpt><trkpt lat="44.8327283648481" lon="12.045354659497589"><ele>-1.0</ele><time>2026-04-05T13:36:52.987Z</time></trkpt><trkpt lat="44.83288337711043" lon="12.045633753668218"><ele>-1.0</ele><time>2026-04-05T13:36:53.987Z</time></trkpt><trkpt lat="44.833018975834584" lon="12.04592205339624"><ele>-1.0</ele><time>2026-04-05T13:36:54.987Z</time></trkpt><trkpt lat="44.83315657280658" lon="12.046202769511492"><ele>-1.0</ele><time>2026-04-05T13:36:55.987Z</time></trkpt><trkpt lat="44.83328877030987" lon="12.046486122279829"><ele>-1.0</ele><time>2026-04-05T13:36:56.987Z</time></trkpt><trkpt lat="44.83341133912114" lon="12.046764956119963"><ele>-1.3333333333333333</ele><time>2026-04-05T13:36:57.986Z</time></trkpt><trkpt lat="44.83352608882627" lon="12.047043620442132"><ele>-1.6666666666666665</ele><time>2026-04-05T13:36:58.986Z</time></trkpt><trkpt lat="44.83364044951828" lon="12.04730770274013"><ele>-2.0</ele><time>2026-04-05T13:36:59.986Z</time></trkpt><trkpt lat="44.8337545797585" lon="12.047565504533733"><ele>-2.0</ele><time>2026-04-05T13:37:00.986Z</time></trkpt><trkpt lat="44.833885385324656" lon="12.04784972191633"><ele>-2.0</ele><time>2026-04-05T13:37:01.986Z</time></trkpt><trkpt lat="44.83403422503405" lon="12.048159530642447"><ele>-1.5</ele><time>2026-04-05T13:37:02.986Z</time></trkpt><trkpt lat="44.83419552499812" lon="12.048488023068238"><ele>-1.0</ele><time>2026-04-05T13:37:03.986Z</time></trkpt><trkpt lat="44.83436127254553" lon="12.048824231592777"><ele>-1.0</ele><time>2026-04-05T13:37:04.986Z</time></trkpt><trkpt lat="44.83452838174594" lon="12.04916100084135"><ele>-1.0</ele><time>2026-04-05T13:37:05.986Z</time></trkpt><trkpt lat="44.834700886197886" lon="12.049487590116833"><ele>-1.0</ele><time>2026-04-05T13:37:06.986Z</time></trkpt><trkpt lat="44.834848453556795" lon="12.049829112206364"><ele>-1.0</ele><time>2026-04-05T13:37:07.986Z</time></trkpt><trkpt lat="44.83496359147613" lon="12.050193109957135"><ele>-0.5</ele><time>2026-04-05T13:37:08.986Z</time></trkpt><trkpt lat="44.83508261114345" lon="12.050553250344235"><ele>0.0</ele><time>2026-04-05T13:37:09.986Z</time></trkpt><trkpt lat="44.83519862157088" lon="12.050902329518712"><ele>-1.0</ele><time>2026-04-05T13:37:10.986Z</time></trkpt><trkpt lat="44.83529631509044" lon="12.051233348893435"><ele>-2.0</ele><time>2026-04-05T13:37:11.986Z</time></trkpt><trkpt lat="44.83538972367279" lon="12.051522288355867"><ele>-2.0</ele><time>2026-04-05T13:37:12.986Z</time></trkpt><trkpt lat="44.83546262374746" lon="12.051799181714266"><ele>-2.0</ele><time>2026-04-05T13:37:13.986Z</time></trkpt><trkpt lat="44.835525551989264" lon="12.05206849047669"><ele>-2.0</ele><time>2026-04-05T13:37:14.986Z</time></trkpt><trkpt lat="44.83557260789066" lon="12.052336028845453"><ele>-2.0</ele><time>2026-04-05T13:37:15.986Z</time></trkpt><trkpt lat="44.83561525661291" lon="12.0525976922612"><ele>-2.0</ele><time>2026-04-05T13:37:16.986Z</time></trkpt><trkpt lat="44.83564987609227" lon="12.052852850894261"><ele>-2.0</ele><time>2026-04-05T13:37:17.986Z</time></trkpt><trkpt lat="44.835684876341546" lon="12.053092604703213"><ele>-2.0</ele><time>2026-04-05T13:37:18.986Z</time></trkpt><trkpt lat="44.8357147312087" lon="12.053328339081078"><ele>-2.0</ele><time>2026-04-05T13:37:19.986Z</time></trkpt><trkpt lat="44.835744786701945" lon="12.05357135533338"><ele>-2.0</ele><time>2026-04-05T13:37:20.986Z</time></trkpt><trkpt lat="44.835779324794885" lon="12.053799749209727"><ele>-2.0</ele><time>2026-04-05T13:37:21.986Z</time></trkpt><trkpt lat="44.835808857166825" lon="12.05401137208531"><ele>-2.0</ele><time>2026-04-05T13:37:22.986Z</time></trkpt><trkpt lat="44.835840424658045" lon="12.054228779911343"><ele>-2.0</ele><time>2026-04-05T13:37:23.986Z</time></trkpt><trkpt lat="44.83586769375484" lon="12.0544598747659"><ele>-2.0</ele><time>2026-04-05T13:37:24.986Z</time></trkpt><trkpt lat="44.835880325478826" lon="12.054700910586739"><ele>-2.0</ele><time>2026-04-05T13:37:25.986Z</time></trkpt><trkpt lat="44.835880210776736" lon="12.05495295614553"><ele>-2.0</ele><time>2026-04-05T13:37:26.986Z</time></trkpt><trkpt lat="44.83586857340515" lon="12.055208292466963"><ele>-2.0</ele><time>2026-04-05T13:37:27.986Z</time></trkpt><trkpt lat="44.83584923743438" lon="12.055461799532114"><ele>-2.0</ele><time>2026-04-05T13:37:28.986Z</time></trkpt><trkpt lat="44.83582885316588" lon="12.055708544546672"><ele>-2.0</ele><time>2026-04-05T13:37:29.986Z</time></trkpt><trkpt lat="44.8358078899899" lon="12.055959072270003"><ele>-2.0</ele><time>2026-04-05T13:37:30.986Z</time></trkpt><trkpt lat="44.83578944794901" lon="12.056218880045877"><ele>-2.0</ele><time>2026-04-05T13:37:31.986Z</time></trkpt><trkpt lat="44.83576625766661" lon="12.05648178626685"><ele>-2.0</ele><time>2026-04-05T13:37:32.986Z</time></trkpt><trkpt lat="44.83574301130418" lon="12.056745030688349"><ele>-2.0</ele><time>2026-04-05T13:37:33.986Z</time></trkpt><trkpt lat="44.835720839745946" lon="12.056994375292945"><ele>-2.0</ele><time>2026-04-05T13:37:34.986Z</time></trkpt><trkpt lat="44.835701937033406" lon="12.057251339164843"><ele>-2.0</ele><time>2026-04-05T13:37:35.986Z</time></trkpt><trkpt lat="44.83568078431939" lon="12.057512800353255"><ele>-2.0</ele><time>2026-04-05T13:37:36.986Z</time></trkpt><trkpt lat="44.83566190672174" lon="12.057784572892734"><ele>-2.0</ele><time>2026-04-05T13:37:37.986Z</time></trkpt><trkpt lat="44.83564691036358" lon="12.058082189213652"><ele>-2.0</ele><time>2026-04-05T13:37:38.986Z</time></trkpt><trkpt lat="44.83564189666545" lon="12.058411558528194"><ele>-2.0</ele><time>2026-04-05T13:37:39.986Z</time></trkpt><trkpt lat="44.83562823893873" lon="12.058775152439098"><ele>-2.0</ele><time>2026-04-05T13:37:40.986Z</time></trkpt><trkpt lat="44.83560824802323" lon="12.059151947343636"><ele>-1.5</ele><time>2026-04-05T13:37:41.986Z</time></trkpt><trkpt lat="44.83558805851739" lon="12.05952854762686"><ele>-1.0</ele><time>2026-04-05T13:37:42.986Z</time></trkpt><trkpt lat="44.83556838853057" lon="12.0599089676128"><ele>-1.5</ele><time>2026-04-05T13:37:43.986Z</time></trkpt><trkpt lat="44.835550375680945" lon="12.060284763357902"><ele>-2.0</ele><time>2026-04-05T13:37:44.986Z</time></trkpt><trkpt lat="44.8355329298606" lon="12.06065073795104"><ele>-2.5</ele><time>2026-04-05T13:37:45.986Z</time></trkpt><trkpt lat="44.83551679736448" lon="12.061005889492712"><ele>-3.0</ele><time>2026-04-05T13:37:46.986Z</time></trkpt><trkpt lat="44.83549796022751" lon="12.061337973829936"><ele>-2.6666666666666665</ele><time>2026-04-05T13:37:47.986Z</time></trkpt><trkpt lat="44.83547508105714" lon="12.061643581378043"><ele>-2.333333333333333</ele><time>2026-04-05T13:37:48.986Z</time></trkpt><trkpt lat="44.83544859186654" lon="12.06192138138706"><ele>-2.0</ele><time>2026-04-05T13:37:49.986Z</time></trkpt><trkpt lat="44.835426763421644" lon="12.06218189430416"><ele>-2.0</ele><time>2026-04-05T13:37:50.986Z</time></trkpt><trkpt lat="44.83542227921338" lon="12.062443156849614"><ele>-2.0</ele><time>2026-04-05T13:37:51.986Z</time></trkpt><trkpt lat="44.8354485078271" lon="12.062726790117662"><ele>-2.0</ele><time>2026-04-05T13:37:52.986Z</time></trkpt><trkpt lat="44.83550479286894" lon="12.063040649460383"><ele>-2.0</ele><time>2026-04-05T13:37:53.986Z</time></trkpt><trkpt lat="44.83557622975193" lon="12.06338460676457"><ele>-2.0</ele><time>2026-04-05T13:37:54.986Z</time></trkpt><trkpt lat="44.83565640410197" lon="12.063739911420026"><ele>-2.0</ele><time>2026-04-05T13:37:55.985Z</time></trkpt><trkpt lat="44.83573805983385" lon="12.064102099385664"><ele>-2.0</ele><time>2026-04-05T13:37:56.985Z</time></trkpt><trkpt lat="44.835819106101894" lon="12.064461735437119"><ele>-1.5</ele><time>2026-04-05T13:37:57.985Z</time></trkpt><trkpt lat="44.83589660738763" lon="12.064817494042511"><ele>-1.0</ele><time>2026-04-05T13:37:58.985Z</time></trkpt><trkpt lat="44.83596658213615" lon="12.06515568358581"><ele>-1.6666666666666665</ele><time>2026-04-05T13:37:59.985Z</time></trkpt><trkpt lat="44.836034363001566" lon="12.065471064890152"><ele>-2.3333333333333335</ele><time>2026-04-05T13:38:00.985Z</time></trkpt><trkpt lat="44.836098344452125" lon="12.065757694395732"><ele>-3.0</ele><time>2026-04-05T13:38:01.985Z</time></trkpt><trkpt lat="44.83614974426603" lon="12.066022486575886"><ele>-3.0</ele><time>2026-04-05T13:38:02.985Z</time></trkpt><trkpt lat="44.83618372643655" lon="12.066266774434569"><ele>-3.0</ele><time>2026-04-05T13:38:03.985Z</time></trkpt><trkpt lat="44.83618709705288" lon="12.066500986433494"><ele>-3.0</ele><time>2026-04-05T13:38:04.985Z</time></trkpt><trkpt lat="44.836157502200045" lon="12.06674078791835"><ele>-3.0</ele><time>2026-04-05T13:38:05.985Z</time></trkpt><trkpt lat="44.83609168722741" lon="12.066991425143865"><ele>-3.0</ele><time>2026-04-05T13:38:06.985Z</time></trkpt><trkpt lat="44.8360004262468" lon="12.067260725066285"><ele>-3.0</ele><time>2026-04-05T13:38:07.985Z</time></trkpt><trkpt lat="44.83590376836798" lon="12.067542401045527"><ele>-2.0</ele><time>2026-04-05T13:38:08.986Z</time></trkpt><trkpt lat="44.83580513139175" lon="12.067838445601632"><ele>-1.0</ele><time>2026-04-05T13:38:09.987Z</time></trkpt><trkpt lat="44.83570437242498" lon="12.06813217514538"><ele>-1.5</ele><time>2026-04-05T13:38:10.987Z</time></trkpt><trkpt lat="44.83560576033095" lon="12.068435683504228"><ele>-2.0</ele><time>2026-04-05T13:38:11.987Z</time></trkpt><trkpt lat="44.83550840727642" lon="12.068729251335096"><ele>-2.0</ele><time>2026-04-05T13:38:12.986Z</time></trkpt><trkpt lat="44.83541205439557" lon="12.069016965963286"><ele>-2.0</ele><time>2026-04-05T13:38:13.986Z</time></trkpt><trkpt lat="44.83531850340377" lon="12.069296857023849"><ele>-2.0</ele><time>2026-04-05T13:38:14.986Z</time></trkpt><trkpt lat="44.83523749142909" lon="12.069567684946652"><ele>-1.6666666666666665</ele><time>2026-04-05T13:38:15.987Z</time></trkpt><trkpt lat="44.83515716598237" lon="12.069830179009543"><ele>-1.3333333333333333</ele><time>2026-04-05T13:38:16.987Z</time></trkpt><trkpt lat="44.83508646346263" lon="12.070081250353638"><ele>-1.0</ele><time>2026-04-05T13:38:17.987Z</time></trkpt><trkpt lat="44.83504841519196" lon="12.070345037527524"><ele>-0.6666666666666666</ele><time>2026-04-05T13:38:18.986Z</time></trkpt><trkpt lat="44.835058119094974" lon="12.070634599281762"><ele>-0.3333333333333333</ele><time>2026-04-05T13:38:19.986Z</time></trkpt><trkpt lat="44.83509158002937" lon="12.070953287538302"><ele>0.0</ele><time>2026-04-05T13:38:20.987Z</time></trkpt><trkpt lat="44.835129101980655" lon="12.071293814918372"><ele>-0.5</ele><time>2026-04-05T13:38:21.986Z</time></trkpt><trkpt lat="44.83514612682242" lon="12.071661532602867"><ele>-1.0</ele><time>2026-04-05T13:38:22.986Z</time></trkpt><trkpt lat="44.835180514728954" lon="12.072031148595958"><ele>-1.0</ele><time>2026-04-05T13:38:23.986Z</time></trkpt><trkpt lat="44.83521358380057" lon="12.072417643031589"><ele>-1.0</ele><time>2026-04-05T13:38:24.986Z</time></trkpt><trkpt lat="44.83524575530105" lon="12.072796254877026"><ele>0.5</ele><time>2026-04-05T13:38:25.986Z</time></trkpt><trkpt lat="44.83527478587162" lon="12.073180564753983"><ele>2.0</ele><time>2026-04-05T13:38:26.986Z</time></trkpt><trkpt lat="44.83531818492553" lon="12.073556735867118"><ele>1.5</ele><time>2026-04-05T13:38:27.986Z</time></trkpt><trkpt lat="44.83533528423205" lon="12.073936481540679"><ele>1.0</ele><time>2026-04-05T13:38:28.986Z</time></trkpt><trkpt lat="44.83534639647288" lon="12.074320890664872"><ele>1.0</ele><time>2026-04-05T13:38:29.986Z</time></trkpt><trkpt lat="44.835349437534646" lon="12.07470319634874"><ele>1.0</ele><time>2026-04-05T13:38:30.986Z</time></trkpt><trkpt lat="44.83535085806065" lon="12.075081738731754"><ele>0.0</ele><time>2026-04-05T13:38:31.986Z</time></trkpt><trkpt lat="44.83534629151119" lon="12.075455307561263"><ele>-1.0</ele><time>2026-04-05T13:38:32.986Z</time></trkpt><trkpt lat="44.8353423228177" lon="12.075823906246963"><ele>-1.0</ele><time>2026-04-05T13:38:33.986Z</time></trkpt><trkpt lat="44.83534212659945" lon="12.07619095223793"><ele>-1.0</ele><time>2026-04-05T13:38:34.986Z</time></trkpt><trkpt lat="44.835339482053506" lon="12.07655676494359"><ele>-0.5</ele><time>2026-04-05T13:38:35.986Z</time></trkpt><trkpt lat="44.835330690971986" lon="12.076920374705853"><ele>0.0</ele><time>2026-04-05T13:38:36.986Z</time></trkpt><trkpt lat="44.835320007979874" lon="12.07729011857124"><ele>-0.5</ele><time>2026-04-05T13:38:37.986Z</time></trkpt><trkpt lat="44.83531406976907" lon="12.077661426317636"><ele>-1.0</ele><time>2026-04-05T13:38:38.986Z</time></trkpt><trkpt lat="44.83530235636566" lon="12.078028767632736"><ele>-2.0</ele><time>2026-04-05T13:38:39.986Z</time></trkpt><trkpt lat="44.8352912392941" lon="12.078389454192171"><ele>-3.0</ele><time>2026-04-05T13:38:40.986Z</time></trkpt><trkpt lat="44.835285370962886" lon="12.078752731824991"><ele>-3.0</ele><time>2026-04-05T13:38:41.986Z</time></trkpt><trkpt lat="44.83527821141968" lon="12.079115714391099"><ele>-3.0</ele><time>2026-04-05T13:38:42.986Z</time></trkpt><trkpt lat="44.835267832755726" lon="12.079478499854886"><ele>-3.0</ele><time>2026-04-05T13:38:43.986Z</time></trkpt><trkpt lat="44.83524652934535" lon="12.079841748527182"><ele>-3.0</ele><time>2026-04-05T13:38:44.986Z</time></trkpt><trkpt lat="44.83523493180373" lon="12.080202868441855"><ele>-3.0</ele><time>2026-04-05T13:38:45.986Z</time></trkpt><trkpt lat="44.83522900704494" lon="12.080556058818654"><ele>-3.0</ele><time>2026-04-05T13:38:46.986Z</time></trkpt><trkpt lat="44.83521973133651" lon="12.080899814655998"><ele>-2.5</ele><time>2026-04-05T13:38:47.986Z</time></trkpt><trkpt lat="44.83520765699167" lon="12.081231372095333"><ele>-2.0</ele><time>2026-04-05T13:38:48.986Z</time></trkpt><trkpt lat="44.83520284038696" lon="12.0815637905338"><ele>-2.0</ele><time>2026-04-05T13:38:49.986Z</time></trkpt><trkpt lat="44.835191730083594" lon="12.081890985181381"><ele>-2.0</ele><time>2026-04-05T13:38:50.986Z</time></trkpt><trkpt lat="44.835182525568115" lon="12.08222272084132"><ele>-2.0</ele><time>2026-04-05T13:38:51.986Z</time></trkpt><trkpt lat="44.83517089070178" lon="12.082559376882763"><ele>-2.0</ele><time>2026-04-05T13:38:52.986Z</time></trkpt><trkpt lat="44.835159820765675" lon="12.082904961091057"><ele>-2.0</ele><time>2026-04-05T13:38:53.986Z</time></trkpt><trkpt lat="44.835148588843595" lon="12.083257302943467"><ele>-2.0</ele><time>2026-04-05T13:38:54.986Z</time></trkpt><trkpt lat="44.83513888307529" lon="12.083614281687172"><ele>-2.0</ele><time>2026-04-05T13:38:55.986Z</time></trkpt><trkpt lat="44.835128338915716" lon="12.083971812650162"><ele>-2.0</ele><time>2026-04-05T13:38:56.986Z</time></trkpt><trkpt lat="44.835113638390254" lon="12.084328340388852"><ele>-2.0</ele><time>2026-04-05T13:38:57.986Z</time></trkpt><trkpt lat="44.83509714943645" lon="12.084688554624574"><ele>-2.0</ele><time>2026-04-05T13:38:58.986Z</time></trkpt><trkpt lat="44.83508562750873" lon="12.08504902017325"><ele>-2.0</ele><time>2026-04-05T13:38:59.986Z</time></trkpt><trkpt lat="44.835073480279874" lon="12.085406826425935"><ele>-2.0</ele><time>2026-04-05T13:39:00.986Z</time></trkpt><trkpt lat="44.83506196005733" lon="12.085757684976668"><ele>-2.0</ele><time>2026-04-05T13:39:01.986Z</time></trkpt><trkpt lat="44.83505538915386" lon="12.086104303110192"><ele>-2.0</ele><time>2026-04-05T13:39:02.986Z</time></trkpt><trkpt lat="44.835047437329344" lon="12.086446732704497"><ele>-2.0</ele><time>2026-04-05T13:39:03.986Z</time></trkpt><trkpt lat="44.83504109201798" lon="12.086780591864013"><ele>-2.0</ele><time>2026-04-05T13:39:04.986Z</time></trkpt><trkpt lat="44.83503040933307" lon="12.087102921983435"><ele>-2.0</ele><time>2026-04-05T13:39:05.986Z</time></trkpt><trkpt lat="44.83500839285978" lon="12.087424600754092"><ele>-2.0</ele><time>2026-04-05T13:39:06.986Z</time></trkpt><trkpt lat="44.83497323654861" lon="12.087740589177958"><ele>-2.0</ele><time>2026-04-05T13:39:07.986Z</time></trkpt><trkpt lat="44.834932075938355" lon="12.088041352984165"><ele>-2.0</ele><time>2026-04-05T13:39:08.986Z</time></trkpt><trkpt lat="44.834870167047995" lon="12.088347433689417"><ele>-2.0</ele><time>2026-04-05T13:39:09.986Z</time></trkpt><trkpt lat="44.83480258283165" lon="12.088666882107093"><ele>-2.0</ele><time>2026-04-05T13:39:10.986Z</time></trkpt><trkpt lat="44.83473828845216" lon="12.088987845202015"><ele>-2.0</ele><time>2026-04-05T13:39:11.985Z</time></trkpt><trkpt lat="44.83466994441445" lon="12.089303702773012"><ele>-0.5</ele><time>2026-04-05T13:39:12.985Z</time></trkpt><trkpt lat="44.834605431693255" lon="12.08961685526467"><ele>1.0</ele><time>2026-04-05T13:39:13.985Z</time></trkpt><trkpt lat="44.83454273039942" lon="12.089920761623961"><ele>1.0</ele><time>2026-04-05T13:39:14.985Z</time></trkpt><trkpt lat="44.83448365920105" lon="12.090212747604328"><ele>1.0</ele><time>2026-04-05T13:39:15.985Z</time></trkpt><trkpt lat="44.834428214386804" lon="12.090498197378823"><ele>1.0</ele><time>2026-04-05T13:39:16.985Z</time></trkpt><trkpt lat="44.834377202217134" lon="12.090781903740433"><ele>1.0</ele><time>2026-04-05T13:39:17.985Z</time></trkpt><trkpt lat="44.83433160300987" lon="12.091057672077415"><ele>1.0</ele><time>2026-04-05T13:39:18.985Z</time></trkpt><trkpt lat="44.83428992700127" lon="12.09133587339865"><ele>1.0</ele><time>2026-04-05T13:39:19.985Z</time></trkpt><trkpt lat="44.834245616096965" lon="12.091619159781157"><ele>0.6666666666666666</ele><time>2026-04-05T13:39:20.985Z</time></trkpt><trkpt lat="44.83419905791248" lon="12.091896052104797"><ele>0.3333333333333333</ele><time>2026-04-05T13:39:21.985Z</time></trkpt><trkpt lat="44.83415474296307" lon="12.092167822117068"><ele>0.0</ele><time>2026-04-05T13:39:22.985Z</time></trkpt><trkpt lat="44.83411487739968" lon="12.092429082872501"><ele>0.6666666666666666</ele><time>2026-04-05T13:39:23.985Z</time></trkpt><trkpt lat="44.834077148115234" lon="12.092677657128517"><ele>1.3333333333333333</ele><time>2026-04-05T13:39:24.985Z</time></trkpt><trkpt lat="44.834039864410315" lon="12.092918449652945"><ele>2.0</ele><time>2026-04-05T13:39:25.985Z</time></trkpt><trkpt lat="44.83398748988494" lon="12.093149758119562"><ele>2.0</ele><time>2026-04-05T13:39:26.985Z</time></trkpt><trkpt lat="44.833952221014364" lon="12.093368206867046"><ele>2.0</ele><time>2026-04-05T13:39:27.985Z</time></trkpt><trkpt lat="44.83391860228444" lon="12.093578874765655"><ele>2.0</ele><time>2026-04-05T13:39:28.985Z</time></trkpt><trkpt lat="44.83388673539117" lon="12.093779729610404"><ele>2.0</ele><time>2026-04-05T13:39:29.985Z</time></trkpt><trkpt lat="44.83385470964641" lon="12.093981981954185"><ele>2.0</ele><time>2026-04-05T13:39:30.985Z</time></trkpt><trkpt lat="44.83382122946015" lon="12.09419058599903"><ele>2.0</ele><time>2026-04-05T13:39:31.985Z</time></trkpt><trkpt lat="44.833786840615616" lon="12.094402765142538"><ele>1.3333333333333333</ele><time>2026-04-05T13:39:32.985Z</time></trkpt><trkpt lat="44.8337510721372" lon="12.094620135684835"><ele>0.6666666666666666</ele><time>2026-04-05T13:39:33.985Z</time></trkpt><trkpt lat="44.83371442008683" lon="12.094842875869805"><ele>0.0</ele><time>2026-04-05T13:39:34.985Z</time></trkpt><trkpt lat="44.83367926247465" lon="12.095056534125833"><ele>0.0</ele><time>2026-04-05T13:39:35.985Z</time></trkpt><trkpt lat="44.8336440018475" lon="12.095268397950026"><ele>0.0</ele><time>2026-04-05T13:39:36.985Z</time></trkpt><trkpt lat="44.83360668723838" lon="12.095488931586965"><ele>0.0</ele><time>2026-04-05T13:39:37.985Z</time></trkpt><trkpt lat="44.8335679420319" lon="12.095717920020308"><ele>0.0</ele><time>2026-04-05T13:39:38.985Z</time></trkpt><trkpt lat="44.83352879161134" lon="12.095949607412349"><ele>0.0</ele><time>2026-04-05T13:39:39.985Z</time></trkpt><trkpt lat="44.83348782642242" lon="12.096190541258999"><ele>0.0</ele><time>2026-04-05T13:39:40.985Z</time></trkpt><trkpt lat="44.83344368628484" lon="12.096436605183031"><ele>0.0</ele><time>2026-04-05T13:39:41.985Z</time></trkpt><trkpt lat="44.833395010145765" lon="12.096683034166498"><ele>0.0</ele><time>2026-04-05T13:39:42.985Z</time></trkpt><trkpt lat="44.83334250839534" lon="12.09693560700168"><ele>0.0</ele><time>2026-04-05T13:39:43.985Z</time></trkpt><trkpt lat="44.833289376087436" lon="12.09718738844248"><ele>0.6666666666666666</ele><time>2026-04-05T13:39:44.985Z</time></trkpt><trkpt lat="44.83323899998293" lon="12.097423994241192"><ele>1.3333333333333333</ele><time>2026-04-05T13:39:45.985Z</time></trkpt><trkpt lat="44.83319045833449" lon="12.097651983865722"><ele>2.0</ele><time>2026-04-05T13:39:46.985Z</time></trkpt><trkpt lat="44.83314468663976" lon="12.09786696344769"><ele>2.0</ele><time>2026-04-05T13:39:47.985Z</time></trkpt><trkpt lat="44.83310180924809" lon="12.0980651992212"><ele>2.0</ele><time>2026-04-05T13:39:48.985Z</time></trkpt><trkpt lat="44.83306129030729" lon="12.098250454722217"><ele>2.0</ele><time>2026-04-05T13:39:49.985Z</time></trkpt><trkpt lat="44.83302361302974" lon="12.098424612817121"><ele>2.0</ele><time>2026-04-05T13:39:50.985Z</time></trkpt><trkpt lat="44.832989847885564" lon="12.098581312266507"><ele>1.6</ele><time>2026-04-05T13:39:51.985Z</time></trkpt><trkpt lat="44.83296088376546" lon="12.098720519173614"><ele>1.2000000000000002</ele><time>2026-04-05T13:39:52.985Z</time></trkpt><trkpt lat="44.832936160167854" lon="12.098853219257116"><ele>0.8</ele><time>2026-04-05T13:39:53.985Z</time></trkpt><trkpt lat="44.8329379030348" lon="12.098979627605248"><ele>0.4</ele><time>2026-04-05T13:39:54.985Z</time></trkpt><trkpt lat="44.83296916665439" lon="12.099077811982166"><ele>0.0</ele><time>2026-04-05T13:39:55.985Z</time></trkpt><trkpt lat="44.833115042395384" lon="12.099144975265084"><ele>0.0</ele><time>2026-04-05T13:39:57.985Z</time></trkpt><trkpt lat="44.83321995595289" lon="12.099156981181604"><ele>0.0</ele><time>2026-04-05T13:39:58.985Z</time></trkpt><trkpt lat="44.83336411803895" lon="12.099139973015992"><ele>0.0</ele><time>2026-04-05T13:39:59.985Z</time></trkpt><trkpt lat="44.83350881485909" lon="12.099178275124535"><ele>0.0</ele><time>2026-04-05T13:40:00.985Z</time></trkpt><trkpt lat="44.83367257238458" lon="12.099197017510201"><ele>0.0</ele><time>2026-04-05T13:40:01.985Z</time></trkpt><trkpt lat="44.83384180803055" lon="12.099221146355749"><ele>0.0</ele><time>2026-04-05T13:40:02.985Z</time></trkpt><trkpt lat="44.83400433149822" lon="12.099256506254543"><ele>0.0</ele><time>2026-04-05T13:40:03.985Z</time></trkpt><trkpt lat="44.83416040224969" lon="12.099309957351094"><ele>-1.6666666666666667</ele><time>2026-04-05T13:40:04.985Z</time></trkpt><trkpt lat="44.834320493471445" lon="12.099371033580356"><ele>-3.3333333333333335</ele><time>2026-04-05T13:40:05.985Z</time></trkpt><trkpt lat="44.83447892028194" lon="12.099440832702957"><ele>-5.0</ele><time>2026-04-05T13:40:06.985Z</time></trkpt><trkpt lat="44.834630267959724" lon="12.099502106820504"><ele>-5.0</ele><time>2026-04-05T13:40:07.985Z</time></trkpt><trkpt lat="44.834779954130745" lon="12.099551937032645"><ele>-5.0</ele><time>2026-04-05T13:40:08.985Z</time></trkpt><trkpt lat="44.83491536046918" lon="12.099623248411989"><ele>-5.0</ele><time>2026-04-05T13:40:09.985Z</time></trkpt><trkpt lat="44.83505927868189" lon="12.099678894127267"><ele>-5.0</ele><time>2026-04-05T13:40:10.984Z</time></trkpt><trkpt lat="44.83519094649898" lon="12.099705475577906"><ele>-5.2</ele><time>2026-04-05T13:40:11.984Z</time></trkpt><trkpt lat="44.83530301403764" lon="12.099771278021015"><ele>-5.4</ele><time>2026-04-05T13:40:12.984Z</time></trkpt><trkpt lat="44.8353768377404" lon="12.099872897028222"><ele>-5.6</ele><time>2026-04-05T13:40:13.984Z</time></trkpt><trkpt lat="44.835424124117516" lon="12.099976032218139"><ele>-5.8</ele><time>2026-04-05T13:40:14.986Z</time></trkpt><trkpt lat="44.83546281016305" lon="12.100094186721424"><ele>-6.0</ele><time>2026-04-05T13:40:15.987Z</time></trkpt><trkpt lat="44.835455206563324" lon="12.100248461501499"><ele>-5.5</ele><time>2026-04-05T13:40:16.987Z</time></trkpt><trkpt lat="44.83543732548507" lon="12.100425469489176"><ele>-5.0</ele><time>2026-04-05T13:40:17.986Z</time></trkpt><trkpt lat="44.83541643765696" lon="12.100608910994655"><ele>-4.5</ele><time>2026-04-05T13:40:18.987Z</time></trkpt><trkpt lat="44.83539377027072" lon="12.100788850764859"><ele>-4.0</ele><time>2026-04-05T13:40:19.987Z</time></trkpt><trkpt lat="44.83537779714402" lon="12.100962871139696"><ele>-3.8000000000000003</ele><time>2026-04-05T13:40:20.986Z</time></trkpt><trkpt lat="44.83536020024659" lon="12.101120639816688"><ele>-3.6000000000000005</ele><time>2026-04-05T13:40:21.986Z</time></trkpt><trkpt lat="44.83535419644451" lon="12.101266601158324"><ele>-3.4</ele><time>2026-04-05T13:40:22.986Z</time></trkpt><trkpt lat="44.835335578743546" lon="12.101406006700904"><ele>-3.2</ele><time>2026-04-05T13:40:23.986Z</time></trkpt><trkpt lat="44.83529140827369" lon="12.101538300022995"><ele>-3.0</ele><time>2026-04-05T13:40:24.986Z</time></trkpt><trkpt lat="44.835274495093" lon="12.101682215713227"><ele>-3.0</ele><time>2026-04-05T13:40:25.986Z</time></trkpt><trkpt lat="44.835254896664686" lon="12.101835975527788"><ele>-3.0</ele><time>2026-04-05T13:40:26.986Z</time></trkpt><trkpt lat="44.8352357561169" lon="12.101986011230096"><ele>-3.0</ele><time>2026-04-05T13:40:27.986Z</time></trkpt><trkpt lat="44.835216543031756" lon="12.102128185626752"><ele>-3.0</ele><time>2026-04-05T13:40:28.986Z</time></trkpt><trkpt lat="44.83519742245318" lon="12.102268520594102"><ele>-3.0</ele><time>2026-04-05T13:40:29.986Z</time></trkpt><trkpt lat="44.83517798629306" lon="12.102407928701206"><ele>-2.5</ele><time>2026-04-05T13:40:30.986Z</time></trkpt><trkpt lat="44.835158083320735" lon="12.102547509932377"><ele>-2.0</ele><time>2026-04-05T13:40:31.986Z</time></trkpt><trkpt lat="44.8351322868075" lon="12.102689843743365"><ele>-1.5</ele><time>2026-04-05T13:40:32.986Z</time></trkpt><trkpt lat="44.83510273085224" lon="12.102854305619692"><ele>-1.0</ele><time>2026-04-05T13:40:33.986Z</time></trkpt><trkpt lat="44.835061050243254" lon="12.103026353462653"><ele>-1.0</ele><time>2026-04-05T13:40:34.986Z</time></trkpt><trkpt lat="44.83500784495187" lon="12.103207504700613"><ele>-1.0</ele><time>2026-04-05T13:40:35.986Z</time></trkpt><trkpt lat="44.83494795161872" lon="12.103399778915907"><ele>-1.0</ele><time>2026-04-05T13:40:36.986Z</time></trkpt><trkpt lat="44.834883262085" lon="12.103603877828379"><ele>-1.0</ele><time>2026-04-05T13:40:37.986Z</time></trkpt><trkpt lat="44.834812453554804" lon="12.103807779124352"><ele>-1.0</ele><time>2026-04-05T13:40:38.986Z</time></trkpt><trkpt lat="44.83474825813138" lon="12.104011689907487"><ele>-1.0</ele><time>2026-04-05T13:40:39.986Z</time></trkpt><trkpt lat="44.83466827406517" lon="12.10419319984821"><ele>-1.0</ele><time>2026-04-05T13:40:40.986Z</time></trkpt><trkpt lat="44.83460808636537" lon="12.104376043414097"><ele>-1.0</ele><time>2026-04-05T13:40:41.986Z</time></trkpt><trkpt lat="44.83455005292984" lon="12.104550185371243"><ele>-1.0</ele><time>2026-04-05T13:40:42.986Z</time></trkpt><trkpt lat="44.83449371638995" lon="12.104715218796745"><ele>-1.0</ele><time>2026-04-05T13:40:43.986Z</time></trkpt><trkpt lat="44.83443963805975" lon="12.104873637048504"><ele>-1.0</ele><time>2026-04-05T13:40:44.986Z</time></trkpt><trkpt lat="44.83438607354791" lon="12.105030549906136"><ele>-0.75</ele><time>2026-04-05T13:40:45.986Z</time></trkpt><trkpt lat="44.83433299171189" lon="12.105186048979267"><ele>-0.5</ele><time>2026-04-05T13:40:46.986Z</time></trkpt><trkpt lat="44.83428086988532" lon="12.105340158345117"><ele>-0.25</ele><time>2026-04-05T13:40:47.986Z</time></trkpt><trkpt lat="44.83424488778276" lon="12.105500880947078"><ele>0.0</ele><time>2026-04-05T13:40:48.986Z</time></trkpt><trkpt lat="44.83418270558312" lon="12.105645632084835"><ele>0.2</ele><time>2026-04-05T13:40:49.986Z</time></trkpt><trkpt lat="44.8341303229531" lon="12.105795248059977"><ele>0.4</ele><time>2026-04-05T13:40:50.986Z</time></trkpt><trkpt lat="44.83407804123378" lon="12.105938203622033"><ele>0.6000000000000001</ele><time>2026-04-05T13:40:51.986Z</time></trkpt><trkpt lat="44.83403377040797" lon="12.10607045403997"><ele>0.8</ele><time>2026-04-05T13:40:52.986Z</time></trkpt><trkpt lat="44.833998746748165" lon="12.1061910674695"><ele>1.0</ele><time>2026-04-05T13:40:53.986Z</time></trkpt><trkpt lat="44.83394903324471" lon="12.106285242363757"><ele>1.0</ele><time>2026-04-05T13:40:54.986Z</time></trkpt><trkpt lat="44.833923013278635" lon="12.10636937876978"><ele>1.0</ele><time>2026-04-05T13:40:55.986Z</time></trkpt><trkpt lat="44.83389650302172" lon="12.106471493422609"><ele>1.0</ele><time>2026-04-05T13:40:57.986Z</time></trkpt><trkpt lat="44.833853380297704" lon="12.106583130259406"><ele>1.0</ele><time>2026-04-05T13:41:09.986Z</time></trkpt><trkpt lat="44.83381472169878" lon="12.106695656028645"><ele>1.0</ele><time>2026-04-05T13:41:11.985Z</time></trkpt><trkpt lat="44.83399711652095" lon="12.10683205783744"><ele>0.8</ele><time>2026-04-05T13:41:13.985Z</time></trkpt><trkpt lat="44.834089257861564" lon="12.10687212538469"><ele>0.6000000000000001</ele><time>2026-04-05T13:41:14.985Z</time></trkpt><trkpt lat="44.834189300741365" lon="12.10689793723727"><ele>0.4</ele><time>2026-04-05T13:41:15.985Z</time></trkpt><trkpt lat="44.83430366602493" lon="12.106928526007179"><ele>0.2</ele><time>2026-04-05T13:41:16.985Z</time></trkpt><trkpt lat="44.83443315224229" lon="12.10696337553027"><ele>0.0</ele><time>2026-04-05T13:41:17.985Z</time></trkpt><trkpt lat="44.83455371478494" lon="12.106993397599277"><ele>0.0</ele><time>2026-04-05T13:41:18.985Z</time></trkpt><trkpt lat="44.83468877092576" lon="12.10702817950349"><ele>0.0</ele><time>2026-04-05T13:41:19.985Z</time></trkpt><trkpt lat="44.83482394626206" lon="12.107063324001903"><ele>0.0</ele><time>2026-04-05T13:41:20.985Z</time></trkpt><trkpt lat="44.83496343116107" lon="12.107073890540658"><ele>0.0</ele><time>2026-04-05T13:41:21.985Z</time></trkpt><trkpt lat="44.83509476588444" lon="12.107111142760756"><ele>-0.25</ele><time>2026-04-05T13:41:22.985Z</time></trkpt><trkpt lat="44.835232151991846" lon="12.107168746993128"><ele>-0.5</ele><time>2026-04-05T13:41:23.985Z</time></trkpt><trkpt lat="44.83536113664541" lon="12.10720521787254"><ele>-0.75</ele><time>2026-04-05T13:41:24.985Z</time></trkpt><trkpt lat="44.83548885473041" lon="12.107227922051345"><ele>-1.0</ele><time>2026-04-05T13:41:25.985Z</time></trkpt><trkpt lat="44.83561898918931" lon="12.10726531895775"><ele>-1.0</ele><time>2026-04-05T13:41:26.985Z</time></trkpt><trkpt lat="44.83574588773101" lon="12.107292220887768"><ele>-1.0</ele><time>2026-04-05T13:41:27.985Z</time></trkpt><trkpt lat="44.83587769393296" lon="12.107316227020272"><ele>-1.0</ele><time>2026-04-05T13:41:28.985Z</time></trkpt><trkpt lat="44.83601208370776" lon="12.107325157030827"><ele>-1.0</ele><time>2026-04-05T13:41:29.985Z</time></trkpt><trkpt lat="44.83614859917174" lon="12.107326581804484"><ele>-0.75</ele><time>2026-04-05T13:41:30.985Z</time></trkpt><trkpt lat="44.83628409478558" lon="12.107350762476976"><ele>-0.5</ele><time>2026-04-05T13:41:31.985Z</time></trkpt><trkpt lat="44.836422313798174" lon="12.107324556851914"><ele>-0.25</ele><time>2026-04-05T13:41:32.985Z</time></trkpt><trkpt lat="44.83655399906677" lon="12.107345442837966"><ele>0.0</ele><time>2026-04-05T13:41:33.985Z</time></trkpt><trkpt lat="44.836678438349566" lon="12.10734372005284"><ele>0.0</ele><time>2026-04-05T13:41:34.985Z</time></trkpt><trkpt lat="44.836806821039644" lon="12.107341942672553"><ele>0.0</ele><time>2026-04-05T13:41:35.985Z</time></trkpt><trkpt lat="44.836935176041706" lon="12.107340165676787"><ele>0.0</ele><time>2026-04-05T13:41:36.985Z</time></trkpt><trkpt lat="44.83706760115304" lon="12.107338332329999"><ele>0.0</ele><time>2026-04-05T13:41:37.985Z</time></trkpt><trkpt lat="44.83721535532948" lon="12.107336286760747"><ele>0.0</ele><time>2026-04-05T13:41:38.985Z</time></trkpt><trkpt lat="44.837372018637865" lon="12.107334117852847"><ele>0.0</ele><time>2026-04-05T13:41:39.985Z</time></trkpt><trkpt lat="44.83752668466383" lon="12.107333896848905"><ele>0.0</ele><time>2026-04-05T13:41:40.985Z</time></trkpt><trkpt lat="44.83768530736691" lon="12.107338802482516"><ele>0.0</ele><time>2026-04-05T13:41:41.985Z</time></trkpt><trkpt lat="44.83783619839391" lon="12.10735154362385"><ele>0.0</ele><time>2026-04-05T13:41:42.985Z</time></trkpt><trkpt lat="44.837990729312565" lon="12.107379198543988"><ele>0.0</ele><time>2026-04-05T13:41:43.985Z</time></trkpt><trkpt lat="44.83814840614141" lon="12.10741829524091"><ele>0.0</ele><time>2026-04-05T13:41:44.985Z</time></trkpt><trkpt lat="44.838294315973414" lon="12.107462365332688"><ele>0.0</ele><time>2026-04-05T13:41:45.985Z</time></trkpt><trkpt lat="44.838447584079475" lon="12.107509202377145"><ele>0.0</ele><time>2026-04-05T13:41:46.985Z</time></trkpt><trkpt lat="44.8386043340492" lon="12.107552793858646"><ele>0.0</ele><time>2026-04-05T13:41:47.985Z</time></trkpt><trkpt lat="44.83876901910111" lon="12.107587976934557"><ele>0.0</ele><time>2026-04-05T13:41:48.985Z</time></trkpt><trkpt lat="44.83894125067234" lon="12.107607828685502"><ele>0.0</ele><time>2026-04-05T13:41:49.985Z</time></trkpt><trkpt lat="44.839113455419685" lon="12.107588565489083"><ele>0.0</ele><time>2026-04-05T13:41:50.985Z</time></trkpt><trkpt lat="44.83928529432554" lon="12.107599390688911"><ele>0.0</ele><time>2026-04-05T13:41:51.985Z</time></trkpt><trkpt lat="44.839467700686264" lon="12.107614576449107"><ele>0.0</ele><time>2026-04-05T13:41:52.985Z</time></trkpt><trkpt lat="44.839651464998006" lon="12.10761613994021"><ele>0.0</ele><time>2026-04-05T13:41:53.985Z</time></trkpt><trkpt lat="44.83983622960717" lon="12.107621186488112"><ele>0.0</ele><time>2026-04-05T13:41:54.985Z</time></trkpt><trkpt lat="44.84001658731759" lon="12.107618667995022"><ele>0.0</ele><time>2026-04-05T13:41:55.985Z</time></trkpt><trkpt lat="44.84019533790879" lon="12.107624092590836"><ele>0.0</ele><time>2026-04-05T13:41:56.985Z</time></trkpt><trkpt lat="44.840373381054185" lon="12.10762766818212"><ele>0.0</ele><time>2026-04-05T13:41:57.985Z</time></trkpt><trkpt lat="44.84054596188529" lon="12.107635733392096"><ele>0.0</ele><time>2026-04-05T13:41:58.985Z</time></trkpt><trkpt lat="44.840721284772535" lon="12.107641175475267"><ele>0.0</ele><time>2026-04-05T13:41:59.985Z</time></trkpt><trkpt lat="44.840898955620276" lon="12.107650581433548"><ele>0.0</ele><time>2026-04-05T13:42:00.985Z</time></trkpt><trkpt lat="44.84108358391989" lon="12.107655481441935"><ele>0.0</ele><time>2026-04-05T13:42:01.985Z</time></trkpt><trkpt lat="44.84127736117471" lon="12.107654842671996"><ele>0.0</ele><time>2026-04-05T13:42:02.985Z</time></trkpt><trkpt lat="44.84148491885569" lon="12.107661252555335"><ele>0.0</ele><time>2026-04-05T13:42:03.985Z</time></trkpt><trkpt lat="44.84169947418963" lon="12.10769184889483"><ele>0.0</ele><time>2026-04-05T13:42:04.985Z</time></trkpt><trkpt lat="44.84191767799548" lon="12.107726354625681"><ele>0.3333333333333333</ele><time>2026-04-05T13:42:05.985Z</time></trkpt><trkpt lat="44.84213503046388" lon="12.107790425350275"><ele>0.6666666666666666</ele><time>2026-04-05T13:42:06.985Z</time></trkpt><trkpt lat="44.84235448822222" lon="12.107841299062596"><ele>1.0</ele><time>2026-04-05T13:42:07.985Z</time></trkpt><trkpt lat="44.84257431648547" lon="12.107896195916222"><ele>0.6666666666666666</ele><time>2026-04-05T13:42:08.985Z</time></trkpt><trkpt lat="44.84279468000831" lon="12.107953847463003"><ele>0.3333333333333333</ele><time>2026-04-05T13:42:09.984Z</time></trkpt><trkpt lat="44.84300950259329" lon="12.10801485417908"><ele>0.0</ele><time>2026-04-05T13:42:10.984Z</time></trkpt><trkpt lat="44.84321764648697" lon="12.108090791818087"><ele>0.0</ele><time>2026-04-05T13:42:11.984Z</time></trkpt><trkpt lat="44.84341860956292" lon="12.108181107250774"><ele>0.0</ele><time>2026-04-05T13:42:12.984Z</time></trkpt><trkpt lat="44.84362185862688" lon="12.108259805545268"><ele>0.0</ele><time>2026-04-05T13:42:13.984Z</time></trkpt><trkpt lat="44.84381895467741" lon="12.108348246252103"><ele>-0.3333333333333333</ele><time>2026-04-05T13:42:14.984Z</time></trkpt><trkpt lat="44.844012743503384" lon="12.108438938576967"><ele>-0.6666666666666666</ele><time>2026-04-05T13:42:15.984Z</time></trkpt><trkpt lat="44.84420287917345" lon="12.108531189068744"><ele>-1.0</ele><time>2026-04-05T13:42:16.984Z</time></trkpt><trkpt lat="44.84439581759762" lon="12.108612869104045"><ele>-1.0</ele><time>2026-04-05T13:42:17.984Z</time></trkpt><trkpt lat="44.84458424279715" lon="12.108687103155983"><ele>-1.0</ele><time>2026-04-05T13:42:18.984Z</time></trkpt><trkpt lat="44.844771423955756" lon="12.108757574673106"><ele>-1.0</ele><time>2026-04-05T13:42:19.984Z</time></trkpt><trkpt lat="44.84496451411992" lon="12.10882575303407"><ele>-1.0</ele><time>2026-04-05T13:42:20.985Z</time></trkpt><trkpt lat="44.84515370360028" lon="12.108912292377388"><ele>-1.0</ele><time>2026-04-05T13:42:21.986Z</time></trkpt><trkpt lat="44.84534576986094" lon="12.1089663490857"><ele>-1.0</ele><time>2026-04-05T13:42:22.986Z</time></trkpt><trkpt lat="44.84553432327879" lon="12.109006960224123"><ele>-1.0</ele><time>2026-04-05T13:42:23.986Z</time></trkpt><trkpt lat="44.84571826461398" lon="12.10902788032351"><ele>-1.0</ele><time>2026-04-05T13:42:24.986Z</time></trkpt><trkpt lat="44.84588683781299" lon="12.109010433810399"><ele>-1.0</ele><time>2026-04-05T13:42:25.986Z</time></trkpt><trkpt lat="44.84604256866608" lon="12.109028565077782"><ele>-0.5</ele><time>2026-04-05T13:42:26.985Z</time></trkpt><trkpt lat="44.84618579056781" lon="12.109018821819154"><ele>0.0</ele><time>2026-04-05T13:42:27.986Z</time></trkpt><trkpt lat="44.846320481859244" lon="12.108999079424906"><ele>0.5</ele><time>2026-04-05T13:42:28.986Z</time></trkpt><trkpt lat="44.84646009989083" lon="12.108971990645168"><ele>1.0</ele><time>2026-04-05T13:42:29.985Z</time></trkpt><trkpt lat="44.84661140137713" lon="12.108931820406989"><ele>1.0</ele><time>2026-04-05T13:42:30.985Z</time></trkpt><trkpt lat="44.84677167985789" lon="12.108872518182475"><ele>1.0</ele><time>2026-04-05T13:42:31.985Z</time></trkpt><trkpt lat="44.84694665627722" lon="12.108787466878255"><ele>1.0</ele><time>2026-04-05T13:42:32.985Z</time></trkpt><trkpt lat="44.84712550750025" lon="12.108687370254462"><ele>0.6666666666666666</ele><time>2026-04-05T13:42:33.986Z</time></trkpt><trkpt lat="44.84730733829562" lon="12.108559581256998"><ele>0.3333333333333333</ele><time>2026-04-05T13:42:34.986Z</time></trkpt><trkpt lat="44.84749377324758" lon="12.10840993130526"><ele>0.0</ele><time>2026-04-05T13:42:35.986Z</time></trkpt><trkpt lat="44.84767773460029" lon="12.108235860376052"><ele>0.0</ele><time>2026-04-05T13:42:36.986Z</time></trkpt><trkpt lat="44.84784939817381" lon="12.108048374490313"><ele>0.0</ele><time>2026-04-05T13:42:37.986Z</time></trkpt><trkpt lat="44.84801243254955" lon="12.107854040719454"><ele>0.0</ele><time>2026-04-05T13:42:38.986Z</time></trkpt><trkpt lat="44.848156678584196" lon="12.10766671844445"><ele>0.0</ele><time>2026-04-05T13:42:39.986Z</time></trkpt><trkpt lat="44.8482806939231" lon="12.107487338315005"><ele>0.0</ele><time>2026-04-05T13:42:40.986Z</time></trkpt><trkpt lat="44.84837284980292" lon="12.107304026264341"><ele>0.0</ele><time>2026-04-05T13:42:41.986Z</time></trkpt><trkpt lat="44.84843190040852" lon="12.107117353617896"><ele>-1.0</ele><time>2026-04-05T13:42:42.986Z</time></trkpt><trkpt lat="44.84848922384532" lon="12.106909486398681"><ele>-2.0</ele><time>2026-04-05T13:42:43.986Z</time></trkpt><trkpt lat="44.84848580377553" lon="12.106645974433379"><ele>-3.0</ele><time>2026-04-05T13:42:44.986Z</time></trkpt><trkpt lat="44.84848879405195" lon="12.10635121918024"><ele>-3.0</ele><time>2026-04-05T13:42:45.986Z</time></trkpt><trkpt lat="44.84848784778935" lon="12.106055909067297"><ele>-3.0</ele><time>2026-04-05T13:42:46.986Z</time></trkpt><trkpt lat="44.84847899421817" lon="12.105766425088255"><ele>-3.0</ele><time>2026-04-05T13:42:47.986Z</time></trkpt><trkpt lat="44.84845536008294" lon="12.105481436208992"><ele>-3.0</ele><time>2026-04-05T13:42:48.986Z</time></trkpt><trkpt lat="44.848402784674384" lon="12.105194958366253"><ele>-3.0</ele><time>2026-04-05T13:42:49.986Z</time></trkpt><trkpt lat="44.848346369471386" lon="12.104903279567152"><ele>-3.0</ele><time>2026-04-05T13:42:50.986Z</time></trkpt><trkpt lat="44.848281648246626" lon="12.104623280723535"><ele>-3.0</ele><time>2026-04-05T13:42:51.986Z</time></trkpt><trkpt lat="44.84819681074361" lon="12.104327858259445"><ele>-3.0</ele><time>2026-04-05T13:42:52.986Z</time></trkpt><trkpt lat="44.84811117397783" lon="12.104031092172956"><ele>-2.0</ele><time>2026-04-05T13:42:53.986Z</time></trkpt><trkpt lat="44.848009430161646" lon="12.103741516849196"><ele>-1.0</ele><time>2026-04-05T13:42:54.986Z</time></trkpt><trkpt lat="44.847898410573265" lon="12.103463674090712"><ele>-1.3333333333333333</ele><time>2026-04-05T13:42:55.985Z</time></trkpt><trkpt lat="44.847788773212315" lon="12.103191597481334"><ele>-1.6666666666666665</ele><time>2026-04-05T13:42:56.985Z</time></trkpt><trkpt lat="44.84768875083665" lon="12.102926194359126"><ele>-2.0</ele><time>2026-04-05T13:42:57.985Z</time></trkpt><trkpt lat="44.84759685986894" lon="12.102640904452898"><ele>-2.0</ele><time>2026-04-05T13:42:58.985Z</time></trkpt><trkpt lat="44.84751134852158" lon="12.102359617177909"><ele>-2.0</ele><time>2026-04-05T13:42:59.985Z</time></trkpt><trkpt lat="44.84743168686981" lon="12.102092329180785"><ele>-2.0</ele><time>2026-04-05T13:43:00.985Z</time></trkpt><trkpt lat="44.847364904976025" lon="12.101823314040407"><ele>-2.0</ele><time>2026-04-05T13:43:01.985Z</time></trkpt><trkpt lat="44.84731182770718" lon="12.101550303280732"><ele>-2.0</ele><time>2026-04-05T13:43:02.985Z</time></trkpt><trkpt lat="44.847274086579695" lon="12.101271363921628"><ele>-2.0</ele><time>2026-04-05T13:43:03.985Z</time></trkpt><trkpt lat="44.84726273303603" lon="12.100986351803526"><ele>-1.6666666666666665</ele><time>2026-04-05T13:43:04.985Z</time></trkpt><trkpt lat="44.84727768728685" lon="12.100702350624985"><ele>-1.3333333333333333</ele><time>2026-04-05T13:43:05.985Z</time></trkpt><trkpt lat="44.847330029532955" lon="12.100422968715549"><ele>-1.0</ele><time>2026-04-05T13:43:06.985Z</time></trkpt><trkpt lat="44.84741279056857" lon="12.100143439615522"><ele>-1.0</ele><time>2026-04-05T13:43:07.985Z</time></trkpt><trkpt lat="44.847535699920726" lon="12.099891586995195"><ele>-1.0</ele><time>2026-04-05T13:43:08.985Z</time></trkpt><trkpt lat="44.84765976866626" lon="12.099636049147612"><ele>-1.0</ele><time>2026-04-05T13:43:09.985Z</time></trkpt><trkpt lat="44.847799549828615" lon="12.099381239813807"><ele>-1.0</ele><time>2026-04-05T13:43:10.985Z</time></trkpt><trkpt lat="44.847952025707755" lon="12.099137006026115"><ele>-1.0</ele><time>2026-04-05T13:43:11.985Z</time></trkpt><trkpt lat="44.848109486777666" lon="12.098902089854308"><ele>-1.0</ele><time>2026-04-05T13:43:12.985Z</time></trkpt><trkpt lat="44.84828004513749" lon="12.098670289071702"><ele>-1.0</ele><time>2026-04-05T13:43:13.985Z</time></trkpt><trkpt lat="44.84845847000062" lon="12.098450471815966"><ele>-1.0</ele><time>2026-04-05T13:43:14.985Z</time></trkpt><trkpt lat="44.84865002491301" lon="12.098232021087409"><ele>-1.0</ele><time>2026-04-05T13:43:15.985Z</time></trkpt><trkpt lat="44.84885036070269" lon="12.098033500027"><ele>-1.0</ele><time>2026-04-05T13:43:16.985Z</time></trkpt><trkpt lat="44.8490516455073" lon="12.097849647189214"><ele>-1.0</ele><time>2026-04-05T13:43:17.985Z</time></trkpt><trkpt lat="44.84925445031214" lon="12.097676874719701"><ele>-0.5</ele><time>2026-04-05T13:43:18.985Z</time></trkpt><trkpt lat="44.849461438647914" lon="12.097514204270915"><ele>0.0</ele><time>2026-04-05T13:43:19.985Z</time></trkpt><trkpt lat="44.84966903000355" lon="12.097358669783251"><ele>0.0</ele><time>2026-04-05T13:43:20.985Z</time></trkpt><trkpt lat="44.84987489313483" lon="12.097200130107728"><ele>0.0</ele><time>2026-04-05T13:43:21.985Z</time></trkpt><trkpt lat="44.85008439999061" lon="12.097042172392493"><ele>0.0</ele><time>2026-04-05T13:43:22.985Z</time></trkpt><trkpt lat="44.85029505675677" lon="12.096881031875158"><ele>0.0</ele><time>2026-04-05T13:43:23.985Z</time></trkpt><trkpt lat="44.85050116706685" lon="12.096716874074882"><ele>0.0</ele><time>2026-04-05T13:43:24.985Z</time></trkpt><trkpt lat="44.85070356460595" lon="12.096553714729781"><ele>0.0</ele><time>2026-04-05T13:43:25.985Z</time></trkpt><trkpt lat="44.85089857022002" lon="12.096380047240022"><ele>-0.5</ele><time>2026-04-05T13:43:26.985Z</time></trkpt><trkpt lat="44.851088031485894" lon="12.096181577063096"><ele>-1.0</ele><time>2026-04-05T13:43:27.985Z</time></trkpt><trkpt lat="44.851272719357894" lon="12.095960232562149"><ele>0.0</ele><time>2026-04-05T13:43:28.985Z</time></trkpt><trkpt lat="44.851452414813345" lon="12.0957126551216"><ele>1.0</ele><time>2026-04-05T13:43:29.985Z</time></trkpt><trkpt lat="44.85163321494793" lon="12.09545425740118"><ele>0.0</ele><time>2026-04-05T13:43:30.985Z</time></trkpt><trkpt lat="44.851817337122036" lon="12.09518202000133"><ele>-1.0</ele><time>2026-04-05T13:43:31.985Z</time></trkpt><trkpt lat="44.85200382793522" lon="12.094905081614327"><ele>-1.0</ele><time>2026-04-05T13:43:32.985Z</time></trkpt><trkpt lat="44.852192360502634" lon="12.094628488347542"><ele>-1.0</ele><time>2026-04-05T13:43:33.985Z</time></trkpt><trkpt lat="44.852378388715735" lon="12.094345704686182"><ele>-1.0</ele><time>2026-04-05T13:43:34.985Z</time></trkpt><trkpt lat="44.85256831808201" lon="12.094070775469783"><ele>-1.0</ele><time>2026-04-05T13:43:35.985Z</time></trkpt><trkpt lat="44.85275361031989" lon="12.09380092986105"><ele>-1.5</ele><time>2026-04-05T13:43:36.985Z</time></trkpt><trkpt lat="44.852932297349525" lon="12.093539101859825"><ele>-2.0</ele><time>2026-04-05T13:43:37.985Z</time></trkpt><trkpt lat="44.853103181570276" lon="12.093285810840193"><ele>-2.0</ele><time>2026-04-05T13:43:38.985Z</time></trkpt><trkpt lat="44.853277834691085" lon="12.093044136490557"><ele>-2.0</ele><time>2026-04-05T13:43:39.985Z</time></trkpt><trkpt lat="44.853439380075756" lon="12.09277814729296"><ele>-2.5</ele><time>2026-04-05T13:43:40.985Z</time></trkpt><trkpt lat="44.85357763054373" lon="12.09247140414722"><ele>-3.0</ele><time>2026-04-05T13:43:41.985Z</time></trkpt><trkpt lat="44.85372120086327" lon="12.092151394882407"><ele>-3.0</ele><time>2026-04-05T13:43:42.985Z</time></trkpt><trkpt lat="44.85385922898962" lon="12.091816707374754"><ele>-3.0</ele><time>2026-04-05T13:43:43.985Z</time></trkpt><trkpt lat="44.853997893885015" lon="12.09146830527454"><ele>-2.0</ele><time>2026-04-05T13:43:44.985Z</time></trkpt><trkpt lat="44.854129142125885" lon="12.09111200189936"><ele>-1.0</ele><time>2026-04-05T13:43:45.985Z</time></trkpt><trkpt lat="44.85425624317444" lon="12.09076576371364"><ele>-0.5</ele><time>2026-04-05T13:43:46.985Z</time></trkpt><trkpt lat="44.854390056961265" lon="12.090443301710227"><ele>0.0</ele><time>2026-04-05T13:43:47.985Z</time></trkpt><trkpt lat="44.85448927350321" lon="12.090132533820444"><ele>-1.0</ele><time>2026-04-05T13:43:48.985Z</time></trkpt><trkpt lat="44.85457957036798" lon="12.089835795868192"><ele>-2.0</ele><time>2026-04-05T13:43:49.985Z</time></trkpt><trkpt lat="44.85466867309152" lon="12.089529402026017"><ele>-2.0</ele><time>2026-04-05T13:43:50.985Z</time></trkpt><trkpt lat="44.854759505429996" lon="12.0892213592113"><ele>-2.0</ele><time>2026-04-05T13:43:51.985Z</time></trkpt><trkpt lat="44.85485238560827" lon="12.088915841776597"><ele>-1.5</ele><time>2026-04-05T13:43:52.985Z</time></trkpt><trkpt lat="44.85496564647921" lon="12.088623314036926"><ele>-1.0</ele><time>2026-04-05T13:43:53.985Z</time></trkpt><trkpt lat="44.8550950426673" lon="12.088340111328597"><ele>-1.0</ele><time>2026-04-05T13:43:54.984Z</time></trkpt><trkpt lat="44.8552409565408" lon="12.088072562213812"><ele>-1.0</ele><time>2026-04-05T13:43:55.984Z</time></trkpt><trkpt lat="44.85539771001591" lon="12.08783481990244"><ele>-1.0</ele><time>2026-04-05T13:43:56.984Z</time></trkpt><trkpt lat="44.85556006819959" lon="12.087605908704768"><ele>-1.0</ele><time>2026-04-05T13:43:57.984Z</time></trkpt><trkpt lat="44.855728730313906" lon="12.087384722623108"><ele>-1.0</ele><time>2026-04-05T13:43:58.984Z</time></trkpt><trkpt lat="44.85590829521822" lon="12.087158796270279"><ele>-1.0</ele><time>2026-04-05T13:43:59.984Z</time></trkpt><trkpt lat="44.85608417270976" lon="12.086935516077299"><ele>-1.0</ele><time>2026-04-05T13:44:00.984Z</time></trkpt><trkpt lat="44.85626594309916" lon="12.086715134499393"><ele>-1.0</ele><time>2026-04-05T13:44:01.984Z</time></trkpt><trkpt lat="44.8564499603055" lon="12.086515810599817"><ele>-1.0</ele><time>2026-04-05T13:44:02.984Z</time></trkpt><trkpt lat="44.85665244322276" lon="12.086336583029425"><ele>-1.0</ele><time>2026-04-05T13:44:03.984Z</time></trkpt><trkpt lat="44.85686504001144" lon="12.086188202963228"><ele>-1.0</ele><time>2026-04-05T13:44:04.984Z</time></trkpt><trkpt lat="44.85708714894985" lon="12.086060489964904"><ele>-1.0</ele><time>2026-04-05T13:44:05.984Z</time></trkpt><trkpt lat="44.8573136730009" lon="12.085948988675772"><ele>-1.0</ele><time>2026-04-05T13:44:06.984Z</time></trkpt><trkpt lat="44.85753562719786" lon="12.085841501254228"><ele>-1.0</ele><time>2026-04-05T13:44:07.984Z</time></trkpt><trkpt lat="44.85775633755228" lon="12.085736794897473"><ele>-2.0</ele><time>2026-04-05T13:44:08.984Z</time></trkpt><trkpt lat="44.857978921571515" lon="12.085638521495452"><ele>-3.0</ele><time>2026-04-05T13:44:09.984Z</time></trkpt><trkpt lat="44.85821048649271" lon="12.085547469334568"><ele>-3.0</ele><time>2026-04-05T13:44:10.984Z</time></trkpt><trkpt lat="44.8584501845028" lon="12.085475393276475"><ele>-3.0</ele><time>2026-04-05T13:44:11.984Z</time></trkpt><trkpt lat="44.8586947411026" lon="12.085418968787438"><ele>-2.5</ele><time>2026-04-05T13:44:12.984Z</time></trkpt><trkpt lat="44.85894574716999" lon="12.085350390603502"><ele>-2.0</ele><time>2026-04-05T13:44:13.984Z</time></trkpt><trkpt lat="44.85920028043577" lon="12.085278079158227"><ele>-1.5</ele><time>2026-04-05T13:44:14.984Z</time></trkpt><trkpt lat="44.85946298762016" lon="12.085206755187686"><ele>-1.0</ele><time>2026-04-05T13:44:15.984Z</time></trkpt><trkpt lat="44.859731949892875" lon="12.085134337376472"><ele>-1.0</ele><time>2026-04-05T13:44:16.984Z</time></trkpt><trkpt lat="44.860000984559804" lon="12.085056147968325"><ele>-1.0</ele><time>2026-04-05T13:44:17.984Z</time></trkpt><trkpt lat="44.86025821888546" lon="12.084974223387917"><ele>-1.5</ele><time>2026-04-05T13:44:18.984Z</time></trkpt><trkpt lat="44.86052291354359" lon="12.08489115986734"><ele>-2.0</ele><time>2026-04-05T13:44:19.984Z</time></trkpt><trkpt lat="44.86077961746548" lon="12.084783200612039"><ele>-1.0</ele><time>2026-04-05T13:44:20.984Z</time></trkpt><trkpt lat="44.86103432798617" lon="12.084663031118975"><ele>0.0</ele><time>2026-04-05T13:44:21.984Z</time></trkpt><trkpt lat="44.86129699118705" lon="12.084526522576548"><ele>0.0</ele><time>2026-04-05T13:44:22.984Z</time></trkpt><trkpt lat="44.861551130783816" lon="12.084395779641332"><ele>0.0</ele><time>2026-04-05T13:44:23.984Z</time></trkpt><trkpt lat="44.86181147598647" lon="12.084251885154039"><ele>0.0</ele><time>2026-04-05T13:44:24.984Z</time></trkpt><trkpt lat="44.862070699831754" lon="12.084107404193363"><ele>0.0</ele><time>2026-04-05T13:44:25.984Z</time></trkpt><trkpt lat="44.862331493046305" lon="12.083965191727618"><ele>0.0</ele><time>2026-04-05T13:44:26.985Z</time></trkpt><trkpt lat="44.862586835868356" lon="12.083829026569104"><ele>0.0</ele><time>2026-04-05T13:44:27.985Z</time></trkpt><trkpt lat="44.86283838990787" lon="12.083695581296896"><ele>-0.5</ele><time>2026-04-05T13:44:28.985Z</time></trkpt><trkpt lat="44.86307190460778" lon="12.083570479839743"><ele>-1.0</ele><time>2026-04-05T13:44:29.985Z</time></trkpt><trkpt lat="44.8632947829778" lon="12.08345470414629"><ele>-0.6666666666666666</ele><time>2026-04-05T13:44:30.985Z</time></trkpt><trkpt lat="44.86350167637573" lon="12.083345540120233"><ele>-0.3333333333333333</ele><time>2026-04-05T13:44:31.985Z</time></trkpt><trkpt lat="44.86369533646983" lon="12.083244860138235"><ele>0.0</ele><time>2026-04-05T13:44:32.985Z</time></trkpt><trkpt lat="44.86388354524774" lon="12.083152900615014"><ele>0.0</ele><time>2026-04-05T13:44:33.985Z</time></trkpt><trkpt lat="44.8640851809129" lon="12.083078644747456"><ele>0.0</ele><time>2026-04-05T13:44:34.985Z</time></trkpt><trkpt lat="44.86430001365002" lon="12.083030282941506"><ele>0.0</ele><time>2026-04-05T13:44:35.984Z</time></trkpt><trkpt lat="44.86452351775066" lon="12.083016455428256"><ele>0.0</ele><time>2026-04-05T13:44:36.985Z</time></trkpt><trkpt lat="44.86475564704556" lon="12.083031913800038"><ele>0.0</ele><time>2026-04-05T13:44:37.985Z</time></trkpt><trkpt lat="44.86499686084019" lon="12.08307529080053"><ele>-1.0</ele><time>2026-04-05T13:44:38.985Z</time></trkpt><trkpt lat="44.86524802041319" lon="12.083120388176772"><ele>-2.0</ele><time>2026-04-05T13:44:39.985Z</time></trkpt><trkpt lat="44.86550702573187" lon="12.08316779439066"><ele>-2.0</ele><time>2026-04-05T13:44:40.985Z</time></trkpt><trkpt lat="44.8657668134184" lon="12.083219203420583"><ele>-2.0</ele><time>2026-04-05T13:44:41.985Z</time></trkpt><trkpt lat="44.86602859080356" lon="12.083262611797426"><ele>-1.5</ele><time>2026-04-05T13:44:42.985Z</time></trkpt><trkpt lat="44.866282208129704" lon="12.083296233328849"><ele>-1.0</ele><time>2026-04-05T13:44:43.985Z</time></trkpt><trkpt lat="44.86652878517314" lon="12.083344000536203"><ele>-1.0</ele><time>2026-04-05T13:44:44.985Z</time></trkpt><trkpt lat="44.86676682952853" lon="12.083395174823798"><ele>-1.0</ele><time>2026-04-05T13:44:45.985Z</time></trkpt><trkpt lat="44.86700129797595" lon="12.083458527382076"><ele>-2.0</ele><time>2026-04-05T13:44:46.985Z</time></trkpt><trkpt lat="44.86724288794158" lon="12.0835495563827"><ele>-3.0</ele><time>2026-04-05T13:44:47.985Z</time></trkpt><trkpt lat="44.86748612989606" lon="12.083667116728712"><ele>-3.5</ele><time>2026-04-05T13:44:48.985Z</time></trkpt><trkpt lat="44.86772857199959" lon="12.083791335316633"><ele>-4.0</ele><time>2026-04-05T13:44:49.984Z</time></trkpt><trkpt lat="44.867970187808545" lon="12.083928901787583"><ele>-4.0</ele><time>2026-04-05T13:44:50.984Z</time></trkpt><trkpt lat="44.86820820788224" lon="12.084061517920404"><ele>-4.0</ele><time>2026-04-05T13:44:51.984Z</time></trkpt><trkpt lat="44.868439124413456" lon="12.084193845622176"><ele>-2.5</ele><time>2026-04-05T13:44:52.984Z</time></trkpt><trkpt lat="44.86866679312987" lon="12.084314736897738"><ele>-1.0</ele><time>2026-04-05T13:44:53.984Z</time></trkpt><trkpt lat="44.86888932172906" lon="12.084439636927716"><ele>-1.0</ele><time>2026-04-05T13:44:54.984Z</time></trkpt><trkpt lat="44.869098186182846" lon="12.084599671996793"><ele>-1.0</ele><time>2026-04-05T13:44:55.984Z</time></trkpt><trkpt lat="44.869319231389746" lon="12.084720904949808"><ele>-0.5</ele><time>2026-04-05T13:44:56.984Z</time></trkpt><trkpt lat="44.86953948907559" lon="12.08484170598179"><ele>0.0</ele><time>2026-04-05T13:44:57.984Z</time></trkpt><trkpt lat="44.869760581274925" lon="12.084961891558002"><ele>0.0</ele><time>2026-04-05T13:44:58.984Z</time></trkpt><trkpt lat="44.869984080278236" lon="12.085083986097171"><ele>0.0</ele><time>2026-04-05T13:44:59.984Z</time></trkpt><trkpt lat="44.87020261153486" lon="12.085202893385336"><ele>-0.3333333333333333</ele><time>2026-04-05T13:45:00.984Z</time></trkpt><trkpt lat="44.87041274098425" lon="12.085315649479842"><ele>-0.6666666666666666</ele><time>2026-04-05T13:45:01.984Z</time></trkpt><trkpt lat="44.870607339163826" lon="12.085415910853989"><ele>-1.0</ele><time>2026-04-05T13:45:02.984Z</time></trkpt><trkpt lat="44.870797108483195" lon="12.085502910559159"><ele>-1.3333333333333333</ele><time>2026-04-05T13:45:03.984Z</time></trkpt><trkpt lat="44.87100125690227" lon="12.08557616406027"><ele>-1.6666666666666665</ele><time>2026-04-05T13:45:04.984Z</time></trkpt><trkpt lat="44.871212616028174" lon="12.085624053843087"><ele>-2.0</ele><time>2026-04-05T13:45:05.984Z</time></trkpt><trkpt lat="44.871439905583756" lon="12.085662699033758"><ele>-2.0</ele><time>2026-04-05T13:45:06.984Z</time></trkpt><trkpt lat="44.871678523893095" lon="12.08569080838757"><ele>-2.0</ele><time>2026-04-05T13:45:07.984Z</time></trkpt><trkpt lat="44.871930043550954" lon="12.085710814079155"><ele>-2.5</ele><time>2026-04-05T13:45:08.984Z</time></trkpt><trkpt lat="44.87218805823975" lon="12.085694570209965"><ele>-3.0</ele><time>2026-04-05T13:45:09.984Z</time></trkpt><trkpt lat="44.87245209689938" lon="12.085667853888124"><ele>-2.5</ele><time>2026-04-05T13:45:10.984Z</time></trkpt><trkpt lat="44.87271892503175" lon="12.085621597158966"><ele>-2.0</ele><time>2026-04-05T13:45:11.984Z</time></trkpt><trkpt lat="44.87299082949177" lon="12.085549853475033"><ele>-2.0</ele><time>2026-04-05T13:45:12.984Z</time></trkpt><trkpt lat="44.87326147212537" lon="12.085440395185781"><ele>-2.0</ele><time>2026-04-05T13:45:13.984Z</time></trkpt><trkpt lat="44.873535251564206" lon="12.085337783704764"><ele>-2.0</ele><time>2026-04-05T13:45:14.984Z</time></trkpt><trkpt lat="44.87381093863013" lon="12.085226527062115"><ele>-2.0</ele><time>2026-04-05T13:45:15.984Z</time></trkpt><trkpt lat="44.87408057319498" lon="12.085120762410655"><ele>-2.0</ele><time>2026-04-05T13:45:16.984Z</time></trkpt><trkpt lat="44.87434315330051" lon="12.085038514274514"><ele>-2.0</ele><time>2026-04-05T13:45:17.984Z</time></trkpt><trkpt lat="44.87459609941998" lon="12.084937084871163"><ele>-2.0</ele><time>2026-04-05T13:45:18.984Z</time></trkpt><trkpt lat="44.87484753259355" lon="12.084838246640507"><ele>-2.0</ele><time>2026-04-05T13:45:19.984Z</time></trkpt><trkpt lat="44.875096919122434" lon="12.084742289193803"><ele>-2.0</ele><time>2026-04-05T13:45:20.984Z</time></trkpt><trkpt lat="44.875340680131096" lon="12.084648496296325"><ele>-2.0</ele><time>2026-04-05T13:45:21.984Z</time></trkpt><trkpt lat="44.875587579584376" lon="12.08455949083137"><ele>-2.0</ele><time>2026-04-05T13:45:22.984Z</time></trkpt><trkpt lat="44.87608349225947" lon="12.084402590479488"><ele>-2.0</ele><time>2026-04-05T13:45:24.984Z</time></trkpt><trkpt lat="44.876333677294305" lon="12.084347483662633"><ele>-2.0</ele><time>2026-04-05T13:45:25.984Z</time></trkpt><trkpt lat="44.87658495579231" lon="12.084309035476732"><ele>-1.5</ele><time>2026-04-05T13:45:26.984Z</time></trkpt><trkpt lat="44.87684252944374" lon="12.084288834460196"><ele>-1.0</ele><time>2026-04-05T13:45:27.984Z</time></trkpt><trkpt lat="44.877084916200204" lon="12.084297389049267"><ele>-1.0</ele><time>2026-04-05T13:45:28.984Z</time></trkpt><trkpt lat="44.877330623132444" lon="12.08431634073329"><ele>-1.0</ele><time>2026-04-05T13:45:29.984Z</time></trkpt><trkpt lat="44.8775720597713" lon="12.084334963045572"><ele>-1.5</ele><time>2026-04-05T13:45:30.984Z</time></trkpt><trkpt lat="44.87780602618598" lon="12.084357945391925"><ele>-2.0</ele><time>2026-04-05T13:45:31.984Z</time></trkpt><trkpt lat="44.878030654834724" lon="12.084402140882453"><ele>-2.0</ele><time>2026-04-05T13:45:32.984Z</time></trkpt><trkpt lat="44.87825445200886" lon="12.084465736981691"><ele>-2.0</ele><time>2026-04-05T13:45:33.984Z</time></trkpt><trkpt lat="44.878475338412855" lon="12.084558160881423"><ele>-2.0</ele><time>2026-04-05T13:45:34.984Z</time></trkpt><trkpt lat="44.8786999487204" lon="12.084673216545642"><ele>-2.0</ele><time>2026-04-05T13:45:35.984Z</time></trkpt><trkpt lat="44.878925902974935" lon="12.084799432515304"><ele>-2.0</ele><time>2026-04-05T13:45:36.984Z</time></trkpt><trkpt lat="44.879142652488916" lon="12.08493843676248"><ele>-2.0</ele><time>2026-04-05T13:45:37.984Z</time></trkpt><trkpt lat="44.87934538126502" lon="12.085099059678226"><ele>-3.0</ele><time>2026-04-05T13:45:38.984Z</time></trkpt><trkpt lat="44.879533739376015" lon="12.08527726588088"><ele>-4.0</ele><time>2026-04-05T13:45:39.984Z</time></trkpt><trkpt lat="44.8797208329125" lon="12.085482815410064"><ele>-4.0</ele><time>2026-04-05T13:45:40.984Z</time></trkpt><trkpt lat="44.87989825183739" lon="12.085706797311138"><ele>-4.0</ele><time>2026-04-05T13:45:41.984Z</time></trkpt><trkpt lat="44.880071273741514" lon="12.085943039074076"><ele>-4.0</ele><time>2026-04-05T13:45:42.984Z</time></trkpt><trkpt lat="44.880226229072946" lon="12.086194939246273"><ele>-4.0</ele><time>2026-04-05T13:45:43.984Z</time></trkpt><trkpt lat="44.88037567632383" lon="12.086468778333712"><ele>-4.0</ele><time>2026-04-05T13:45:44.984Z</time></trkpt><trkpt lat="44.88051568994087" lon="12.086745452426761"><ele>-4.0</ele><time>2026-04-05T13:45:45.984Z</time></trkpt><trkpt lat="44.88063547262132" lon="12.087030471921366"><ele>-4.0</ele><time>2026-04-05T13:45:46.984Z</time></trkpt><trkpt lat="44.88072813533577" lon="12.087317347701925"><ele>-4.0</ele><time>2026-04-05T13:45:47.984Z</time></trkpt><trkpt lat="44.88079015487338" lon="12.087625576009074"><ele>-4.0</ele><time>2026-04-05T13:45:48.983Z</time></trkpt><trkpt lat="44.880840028547844" lon="12.087955410620417"><ele>-4.0</ele><time>2026-04-05T13:45:49.983Z</time></trkpt><trkpt lat="44.88089076779426" lon="12.088306170332755"><ele>-4.5</ele><time>2026-04-05T13:45:50.983Z</time></trkpt><trkpt lat="44.88094096270157" lon="12.088661465269022"><ele>-5.0</ele><time>2026-04-05T13:45:51.983Z</time></trkpt><trkpt lat="44.88099168866559" lon="12.089020518935719"><ele>-5.0</ele><time>2026-04-05T13:45:52.983Z</time></trkpt><trkpt lat="44.88104376878477" lon="12.089383672440647"><ele>-5.0</ele><time>2026-04-05T13:45:53.983Z</time></trkpt><trkpt lat="44.88109634459343" lon="12.089747506086928"><ele>-4.5</ele><time>2026-04-05T13:45:54.983Z</time></trkpt><trkpt lat="44.881148741100986" lon="12.090110702087436"><ele>-4.0</ele><time>2026-04-05T13:45:55.983Z</time></trkpt><trkpt lat="44.88119718804831" lon="12.090461592805871"><ele>-3.5</ele><time>2026-04-05T13:45:56.983Z</time></trkpt><trkpt lat="44.88124392117697" lon="12.090805793121579"><ele>-3.0</ele><time>2026-04-05T13:45:57.983Z</time></trkpt><trkpt lat="44.88128857753706" lon="12.091142319750041"><ele>-3.0</ele><time>2026-04-05T13:45:58.983Z</time></trkpt><trkpt lat="44.88132924826571" lon="12.091463738986786"><ele>-3.0</ele><time>2026-04-05T13:45:59.983Z</time></trkpt><trkpt lat="44.88137694138067" lon="12.091790079023427"><ele>-3.0</ele><time>2026-04-05T13:46:00.983Z</time></trkpt><trkpt lat="44.88143498421766" lon="12.092112250396047"><ele>-3.0</ele><time>2026-04-05T13:46:01.983Z</time></trkpt><trkpt lat="44.881508266435674" lon="12.092421443895056"><ele>-3.5</ele><time>2026-04-05T13:46:02.983Z</time></trkpt><trkpt lat="44.88161717980545" lon="12.092709334778801"><ele>-4.0</ele><time>2026-04-05T13:46:03.983Z</time></trkpt><trkpt lat="44.881715582473205" lon="12.092984440555885"><ele>-4.0</ele><time>2026-04-05T13:46:04.983Z</time></trkpt><trkpt lat="44.881837253620965" lon="12.093240552153162"><ele>-4.0</ele><time>2026-04-05T13:46:05.983Z</time></trkpt><trkpt lat="44.88198059218794" lon="12.093476534168984"><ele>-4.0</ele><time>2026-04-05T13:46:06.983Z</time></trkpt><trkpt lat="44.882141094758005" lon="12.09370793466633"><ele>-4.333333333333333</ele><time>2026-04-05T13:46:07.983Z</time></trkpt><trkpt lat="44.88230527021033" lon="12.093919927921212"><ele>-4.666666666666667</ele><time>2026-04-05T13:46:08.983Z</time></trkpt><trkpt lat="44.882478746775604" lon="12.094113892879335"><ele>-5.0</ele><time>2026-04-05T13:46:09.983Z</time></trkpt><trkpt lat="44.88265536612993" lon="12.094281736502946"><ele>-4.0</ele><time>2026-04-05T13:46:10.983Z</time></trkpt><trkpt lat="44.88284946442285" lon="12.094418792015158"><ele>-3.0</ele><time>2026-04-05T13:46:11.983Z</time></trkpt><trkpt lat="44.88305546044577" lon="12.094515852358962"><ele>-2.0</ele><time>2026-04-05T13:46:12.983Z</time></trkpt><trkpt lat="44.88327165922826" lon="12.09458478164369"><ele>-2.0</ele><time>2026-04-05T13:46:13.983Z</time></trkpt><trkpt lat="44.88348894363136" lon="12.094621376583344"><ele>-2.0</ele><time>2026-04-05T13:46:14.983Z</time></trkpt><trkpt lat="44.88370485669395" lon="12.094628792000734"><ele>-2.0</ele><time>2026-04-05T13:46:15.983Z</time></trkpt><trkpt lat="44.8839149039362" lon="12.094663781400978"><ele>-2.0</ele><time>2026-04-05T13:46:16.983Z</time></trkpt><trkpt lat="44.884116309926675" lon="12.094678365097009"><ele>-2.0</ele><time>2026-04-05T13:46:17.983Z</time></trkpt><trkpt lat="44.88432722900046" lon="12.094461492510312"><ele>-1.5</ele><time>2026-04-05T13:46:18.983Z</time></trkpt><trkpt lat="44.884530940585165" lon="12.094288716249686"><ele>-1.0</ele><time>2026-04-05T13:46:19.983Z</time></trkpt><trkpt lat="44.88473523724396" lon="12.094123505245221"><ele>-1.5</ele><time>2026-04-05T13:46:20.983Z</time></trkpt><trkpt lat="44.88492882517866" lon="12.093934657896453"><ele>-2.0</ele><time>2026-04-05T13:46:21.983Z</time></trkpt><trkpt lat="44.88511858851551" lon="12.093737342414663"><ele>-2.5</ele><time>2026-04-05T13:46:22.983Z</time></trkpt><trkpt lat="44.88531154755535" lon="12.093548381771498"><ele>-3.0</ele><time>2026-04-05T13:46:23.983Z</time></trkpt><trkpt lat="44.885511634007436" lon="12.093370365897576"><ele>-3.0</ele><time>2026-04-05T13:46:24.983Z</time></trkpt><trkpt lat="44.885716582429694" lon="12.093216435558297"><ele>-3.0</ele><time>2026-04-05T13:46:25.983Z</time></trkpt><trkpt lat="44.885910600636585" lon="12.093069782349914"><ele>-2.3333333333333335</ele><time>2026-04-05T13:46:26.983Z</time></trkpt><trkpt lat="44.88609510471242" lon="12.09293528438418"><ele>-1.6666666666666665</ele><time>2026-04-05T13:46:27.983Z</time></trkpt><trkpt lat="44.88626453738083" lon="12.092802125232746"><ele>-1.0</ele><time>2026-04-05T13:46:28.983Z</time></trkpt><trkpt lat="44.88642434339928" lon="12.092690974540595"><ele>-1.0</ele><time>2026-04-05T13:46:29.983Z</time></trkpt><trkpt lat="44.88657442649414" lon="12.092589623471184"><ele>-1.0</ele><time>2026-04-05T13:46:30.983Z</time></trkpt><trkpt lat="44.88671448800626" lon="12.092505439204997"><ele>-1.0</ele><time>2026-04-05T13:46:31.983Z</time></trkpt><trkpt lat="44.88686183418927" lon="12.09243621647643"><ele>-0.6666666666666666</ele><time>2026-04-05T13:46:32.984Z</time></trkpt><trkpt lat="44.887015016789846" lon="12.092374686741447"><ele>-0.3333333333333333</ele><time>2026-04-05T13:46:33.984Z</time></trkpt><trkpt lat="44.88717185209559" lon="12.092329808956041"><ele>0.0</ele><time>2026-04-05T13:46:34.984Z</time></trkpt><trkpt lat="44.88732282367054" lon="12.092289371355445"><ele>0.0</ele><time>2026-04-05T13:46:35.984Z</time></trkpt><trkpt lat="44.88747046545925" lon="12.09226739384475"><ele>0.0</ele><time>2026-04-05T13:46:36.984Z</time></trkpt><trkpt lat="44.887614996939675" lon="12.092262592471588"><ele>0.0</ele><time>2026-04-05T13:46:37.984Z</time></trkpt><trkpt lat="44.887746992148074" lon="12.092263357555442"><ele>0.0</ele><time>2026-04-05T13:46:38.984Z</time></trkpt><trkpt lat="44.887872185331645" lon="12.092270792015738"><ele>-0.4</ele><time>2026-04-05T13:46:39.984Z</time></trkpt><trkpt lat="44.887975561009604" lon="12.092273839443472"><ele>-0.8</ele><time>2026-04-05T13:46:40.984Z</time></trkpt><trkpt lat="44.888070795442985" lon="12.092278997486734"><ele>-1.2000000000000002</ele><time>2026-04-05T13:46:41.985Z</time></trkpt><trkpt lat="44.888144199565104" lon="12.092263956765073"><ele>-1.6</ele><time>2026-04-05T13:46:42.984Z</time></trkpt><trkpt lat="44.88824761464001" lon="12.092236117788213"><ele>-2.0</ele><time>2026-04-05T13:46:44.984Z</time></trkpt><trkpt lat="44.888336387589646" lon="12.092236324922663"><ele>-2.0</ele><time>2026-04-05T13:46:46.984Z</time></trkpt><trkpt lat="44.88844955682215" lon="12.092337708256359"><ele>-2.0</ele><time>2026-04-05T13:46:48.984Z</time></trkpt><trkpt lat="44.888527078418015" lon="12.092383320036415"><ele>-2.0</ele><time>2026-04-05T13:46:49.984Z</time></trkpt><trkpt lat="44.88861606454342" lon="12.09241282134992"><ele>-2.0</ele><time>2026-04-05T13:46:50.984Z</time></trkpt><trkpt lat="44.88871917677285" lon="12.092442697039633"><ele>-2.0</ele><time>2026-04-05T13:46:51.984Z</time></trkpt><trkpt lat="44.888820739873715" lon="12.092502094019299"><ele>-1.75</ele><time>2026-04-05T13:46:52.984Z</time></trkpt><trkpt lat="44.88893005864347" lon="12.09258320334717"><ele>-1.5</ele><time>2026-04-05T13:46:53.984Z</time></trkpt><trkpt lat="44.88903443445758" lon="12.092679333570613"><ele>-1.25</ele><time>2026-04-05T13:46:54.984Z</time></trkpt><trkpt lat="44.889145716514" lon="12.092780556347236"><ele>-1.0</ele><time>2026-04-05T13:46:55.984Z</time></trkpt><trkpt lat="44.88925662463176" lon="12.092900020453339"><ele>-1.0</ele><time>2026-04-05T13:46:56.984Z</time></trkpt><trkpt lat="44.88936489525144" lon="12.09302537702686"><ele>-1.0</ele><time>2026-04-05T13:46:57.984Z</time></trkpt><trkpt lat="44.88947081752564" lon="12.093145086839485"><ele>-1.0</ele><time>2026-04-05T13:46:58.984Z</time></trkpt><trkpt lat="44.88958481662694" lon="12.093299061732502"><ele>-1.0</ele><time>2026-04-05T13:46:59.984Z</time></trkpt><trkpt lat="44.8897035809135" lon="12.093494505654586"><ele>-1.0</ele><time>2026-04-05T13:47:00.984Z</time></trkpt><trkpt lat="44.88984068276934" lon="12.09368840056043"><ele>-1.0</ele><time>2026-04-05T13:47:01.984Z</time></trkpt><trkpt lat="44.89000632497874" lon="12.093925462463076"><ele>-1.0</ele><time>2026-04-05T13:47:02.984Z</time></trkpt><trkpt lat="44.89016728856856" lon="12.094208230475225"><ele>-1.5</ele><time>2026-04-05T13:47:03.984Z</time></trkpt><trkpt lat="44.890339146639796" lon="12.094501307594621"><ele>-2.0</ele><time>2026-04-05T13:47:04.984Z</time></trkpt><trkpt lat="44.89050316872965" lon="12.094806476965013"><ele>-1.5</ele><time>2026-04-05T13:47:05.984Z</time></trkpt><trkpt lat="44.890672833125976" lon="12.09510449824069"><ele>-1.0</ele><time>2026-04-05T13:47:06.984Z</time></trkpt><trkpt lat="44.89084279428521" lon="12.095394413188503"><ele>-1.5</ele><time>2026-04-05T13:47:07.984Z</time></trkpt><trkpt lat="44.89100928021878" lon="12.095679915790889"><ele>-2.0</ele><time>2026-04-05T13:47:08.984Z</time></trkpt><trkpt lat="44.8911826894118" lon="12.09596013450523"><ele>-2.0</ele><time>2026-04-05T13:47:09.984Z</time></trkpt><trkpt lat="44.89137026178096" lon="12.096225854397815"><ele>-2.0</ele><time>2026-04-05T13:47:10.984Z</time></trkpt><trkpt lat="44.89155549566021" lon="12.096489463131373"><ele>-1.5</ele><time>2026-04-05T13:47:11.984Z</time></trkpt><trkpt lat="44.89173806177581" lon="12.096724233426954"><ele>-1.0</ele><time>2026-04-05T13:47:12.984Z</time></trkpt><trkpt lat="44.89191508725816" lon="12.096944490683343"><ele>-1.0</ele><time>2026-04-05T13:47:13.984Z</time></trkpt><trkpt lat="44.892092147051116" lon="12.09713797402847"><ele>-1.0</ele><time>2026-04-05T13:47:14.984Z</time></trkpt><trkpt lat="44.892273145881575" lon="12.097311801257828"><ele>-1.0</ele><time>2026-04-05T13:47:15.984Z</time></trkpt><trkpt lat="44.892453646289" lon="12.097482285044702"><ele>-1.0</ele><time>2026-04-05T13:47:16.984Z</time></trkpt><trkpt lat="44.89263930891408" lon="12.097648856933974"><ele>-1.0</ele><time>2026-04-05T13:47:17.984Z</time></trkpt><trkpt lat="44.89283028662101" lon="12.097807133585027"><ele>-1.0</ele><time>2026-04-05T13:47:18.984Z</time></trkpt><trkpt lat="44.89302331670771" lon="12.0979494894911"><ele>-1.0</ele><time>2026-04-05T13:47:19.984Z</time></trkpt><trkpt lat="44.89322334824569" lon="12.098082835450802"><ele>-1.0</ele><time>2026-04-05T13:47:20.984Z</time></trkpt><trkpt lat="44.893422906702355" lon="12.098199258455626"><ele>-1.0</ele><time>2026-04-05T13:47:21.984Z</time></trkpt><trkpt lat="44.893628744306916" lon="12.0983079111034"><ele>-1.0</ele><time>2026-04-05T13:47:22.984Z</time></trkpt><trkpt lat="44.8938336677993" lon="12.098400297428991"><ele>-1.0</ele><time>2026-04-05T13:47:23.984Z</time></trkpt><trkpt lat="44.89403649395753" lon="12.098487261469774"><ele>-1.0</ele><time>2026-04-05T13:47:24.984Z</time></trkpt><trkpt lat="44.89423854338973" lon="12.09856260043895"><ele>-0.6666666666666666</ele><time>2026-04-05T13:47:25.984Z</time></trkpt><trkpt lat="44.89442774342588" lon="12.098630709630827"><ele>-0.3333333333333333</ele><time>2026-04-05T13:47:26.984Z</time></trkpt><trkpt lat="44.894623755418785" lon="12.098688070690924"><ele>0.0</ele><time>2026-04-05T13:47:27.984Z</time></trkpt><trkpt lat="44.89481354116903" lon="12.098740733008984"><ele>0.0</ele><time>2026-04-05T13:47:28.984Z</time></trkpt><trkpt lat="44.89499373995082" lon="12.098810247954985"><ele>0.0</ele><time>2026-04-05T13:47:29.983Z</time></trkpt><trkpt lat="44.895175016321176" lon="12.09885318767059"><ele>0.0</ele><time>2026-04-05T13:47:30.983Z</time></trkpt><trkpt lat="44.89534954544607" lon="12.09888911402221"><ele>0.0</ele><time>2026-04-05T13:47:31.983Z</time></trkpt><trkpt lat="44.89551037854548" lon="12.098916167677688"><ele>0.0</ele><time>2026-04-05T13:47:32.983Z</time></trkpt><trkpt lat="44.89565581437637" lon="12.098940247007684"><ele>0.0</ele><time>2026-04-05T13:47:33.983Z</time></trkpt><trkpt lat="44.895787958093074" lon="12.098964029076596"><ele>0.0</ele><time>2026-04-05T13:47:34.983Z</time></trkpt><trkpt lat="44.895903737313844" lon="12.098969664095597"><ele>-0.2</ele><time>2026-04-05T13:47:35.983Z</time></trkpt><trkpt lat="44.89599874562702" lon="12.099000285580539"><ele>-0.4</ele><time>2026-04-05T13:47:36.983Z</time></trkpt><trkpt lat="44.89608120535926" lon="12.099047498394986"><ele>-0.6000000000000001</ele><time>2026-04-05T13:47:37.983Z</time></trkpt><trkpt lat="44.89613774097766" lon="12.099143342674651"><ele>-0.8</ele><time>2026-04-05T13:47:38.983Z</time></trkpt><trkpt lat="44.89616001632342" lon="12.09926706101318"><ele>-1.0</ele><time>2026-04-05T13:47:39.983Z</time></trkpt><trkpt lat="44.89615848555561" lon="12.09943031833299"><ele>-1.3333333333333333</ele><time>2026-04-05T13:47:40.983Z</time></trkpt><trkpt lat="44.89615051852746" lon="12.099627357550178"><ele>-1.6666666666666665</ele><time>2026-04-05T13:47:41.983Z</time></trkpt><trkpt lat="44.896106086853564" lon="12.099863495360255"><ele>-2.0</ele><time>2026-04-05T13:47:42.983Z</time></trkpt><trkpt lat="44.89608558364749" lon="12.100116152232605"><ele>-2.0</ele><time>2026-04-05T13:47:43.983Z</time></trkpt><trkpt lat="44.89607177958011" lon="12.100369922602475"><ele>-2.0</ele><time>2026-04-05T13:47:44.983Z</time></trkpt><trkpt lat="44.89605512167646" lon="12.100628246093807"><ele>-2.0</ele><time>2026-04-05T13:47:45.983Z</time></trkpt><trkpt lat="44.89603996857764" lon="12.100874026052537"><ele>-2.0</ele><time>2026-04-05T13:47:46.983Z</time></trkpt><trkpt lat="44.89602618169134" lon="12.101085798741485"><ele>-2.0</ele><time>2026-04-05T13:47:47.983Z</time></trkpt><trkpt lat="44.89602473883604" lon="12.101267759950447"><ele>-2.0</ele><time>2026-04-05T13:47:48.983Z</time></trkpt><trkpt lat="44.89604760165686" lon="12.101448695669857"><ele>-2.0</ele><time>2026-04-05T13:47:49.983Z</time></trkpt><trkpt lat="44.89610615706934" lon="12.101625482524769"><ele>-2.0</ele><time>2026-04-05T13:47:50.983Z</time></trkpt><trkpt lat="44.896196810236304" lon="12.101776002676624"><ele>-2.0</ele><time>2026-04-05T13:47:51.983Z</time></trkpt><trkpt lat="44.896302169764795" lon="12.101911767796048"><ele>-2.0</ele><time>2026-04-05T13:47:52.983Z</time></trkpt><trkpt lat="44.89645460618018" lon="12.101995748131415"><ele>-2.0</ele><time>2026-04-05T13:47:53.983Z</time></trkpt><trkpt lat="44.8966326042938" lon="12.102065986291148"><ele>-2.0</ele><time>2026-04-05T13:47:54.983Z</time></trkpt><trkpt lat="44.896833252728044" lon="12.102135799468707"><ele>-2.0</ele><time>2026-04-05T13:47:55.983Z</time></trkpt><trkpt lat="44.89704123711697" lon="12.10220816510531"><ele>-2.0</ele><time>2026-04-05T13:47:56.983Z</time></trkpt><trkpt lat="44.897255913891414" lon="12.102282859276038"><ele>-2.0</ele><time>2026-04-05T13:47:57.983Z</time></trkpt><trkpt lat="44.89747853117126" lon="12.102360620968147"><ele>-2.0</ele><time>2026-04-05T13:47:58.983Z</time></trkpt><trkpt lat="44.89769241696999" lon="12.102435830426884"><ele>-2.0</ele><time>2026-04-05T13:47:59.983Z</time></trkpt><trkpt lat="44.897903773533876" lon="12.102510150525871"><ele>-2.0</ele><time>2026-04-05T13:48:00.983Z</time></trkpt><trkpt lat="44.898109968360224" lon="12.102582743767805"><ele>-2.0</ele><time>2026-04-05T13:48:01.983Z</time></trkpt><trkpt lat="44.89831483396015" lon="12.102654877772135"><ele>-2.333333333333333</ele><time>2026-04-05T13:48:02.983Z</time></trkpt><trkpt lat="44.89851837136042" lon="12.102726544112286"><ele>-2.6666666666666665</ele><time>2026-04-05T13:48:03.983Z</time></trkpt><trkpt lat="44.89871359880915" lon="12.102795284486156"><ele>-3.0</ele><time>2026-04-05T13:48:04.983Z</time></trkpt><trkpt lat="44.89891249024764" lon="12.102829116518015"><ele>-3.0</ele><time>2026-04-05T13:48:05.983Z</time></trkpt><trkpt lat="44.89910149915389" lon="12.102889249932728"><ele>-3.0</ele><time>2026-04-05T13:48:06.983Z</time></trkpt><trkpt lat="44.89928587116952" lon="12.102935699218284"><ele>-3.0</ele><time>2026-04-05T13:48:07.983Z</time></trkpt><trkpt lat="44.89946492825304" lon="12.10300741672378"><ele>-3.0</ele><time>2026-04-05T13:48:08.983Z</time></trkpt><trkpt lat="44.89962029072513" lon="12.103113333154289"><ele>-3.0</ele><time>2026-04-05T13:48:09.983Z</time></trkpt><trkpt lat="44.899774438944334" lon="12.103167861733832"><ele>-3.0</ele><time>2026-04-05T13:48:10.983Z</time></trkpt><trkpt lat="44.899916613761384" lon="12.103218289602173"><ele>-3.0</ele><time>2026-04-05T13:48:11.983Z</time></trkpt><trkpt lat="44.900060349554046" lon="12.103268093160686"><ele>-3.0</ele><time>2026-04-05T13:48:12.983Z</time></trkpt><trkpt lat="44.900205680778605" lon="12.103314010572765"><ele>-3.0</ele><time>2026-04-05T13:48:13.983Z</time></trkpt><trkpt lat="44.90036774362137" lon="12.103323920053473"><ele>-3.0</ele><time>2026-04-05T13:48:14.983Z</time></trkpt><trkpt lat="44.900525870292576" lon="12.103300921340956"><ele>-3.0</ele><time>2026-04-05T13:48:15.983Z</time></trkpt><trkpt lat="44.900681570648544" lon="12.10326828017912"><ele>-3.0</ele><time>2026-04-05T13:48:16.983Z</time></trkpt><trkpt lat="44.90083168796916" lon="12.10323261138871"><ele>-3.0</ele><time>2026-04-05T13:48:17.983Z</time></trkpt><trkpt lat="44.90098164385932" lon="12.103196980963297"><ele>-3.0</ele><time>2026-04-05T13:48:18.983Z</time></trkpt><trkpt lat="44.9011283585579" lon="12.103162120658283"><ele>-3.0</ele><time>2026-04-05T13:48:19.983Z</time></trkpt><trkpt lat="44.90126940629554" lon="12.103128606855325"><ele>-3.0</ele><time>2026-04-05T13:48:20.983Z</time></trkpt><trkpt lat="44.90141337363497" lon="12.10309489157788"><ele>-3.0</ele><time>2026-04-05T13:48:21.983Z</time></trkpt><trkpt lat="44.901563175134015" lon="12.103059876072262"><ele>-3.0</ele><time>2026-04-05T13:48:22.983Z</time></trkpt><trkpt lat="44.901714654651265" lon="12.103025740818248"><ele>-3.0</ele><time>2026-04-05T13:48:23.983Z</time></trkpt><trkpt lat="44.90186786762411" lon="12.102998982866607"><ele>-3.0</ele><time>2026-04-05T13:48:24.983Z</time></trkpt><trkpt lat="44.90202831873565" lon="12.102985798783042"><ele>-3.0</ele><time>2026-04-05T13:48:25.983Z</time></trkpt><trkpt lat="44.90219055535517" lon="12.102974712161537"><ele>-3.0</ele><time>2026-04-05T13:48:26.983Z</time></trkpt><trkpt lat="44.902345575369885" lon="12.102964118691927"><ele>-3.0</ele><time>2026-04-05T13:48:27.983Z</time></trkpt><trkpt lat="44.90249401499426" lon="12.102954543496256"><ele>-3.0</ele><time>2026-04-05T13:48:28.982Z</time></trkpt><trkpt lat="44.90264718877636" lon="12.102944181702918"><ele>-3.0</ele><time>2026-04-05T13:48:29.982Z</time></trkpt><trkpt lat="44.90280533944578" lon="12.102934067445823"><ele>-3.0</ele><time>2026-04-05T13:48:30.982Z</time></trkpt><trkpt lat="44.90296735080906" lon="12.102923408802111"><ele>-3.0</ele><time>2026-04-05T13:48:31.982Z</time></trkpt><trkpt lat="44.903131469713635" lon="12.102912885712652"><ele>-3.0</ele><time>2026-04-05T13:48:32.982Z</time></trkpt><trkpt lat="44.903294137816026" lon="12.102902529658847"><ele>-2.75</ele><time>2026-04-05T13:48:33.982Z</time></trkpt><trkpt lat="44.90345183809604" lon="12.10289237898806"><ele>-2.5</ele><time>2026-04-05T13:48:34.982Z</time></trkpt><trkpt lat="44.90359259099784" lon="12.102883346717443"><ele>-2.25</ele><time>2026-04-05T13:48:35.982Z</time></trkpt><trkpt lat="44.90372596143678" lon="12.10287478818526"><ele>-2.0</ele><time>2026-04-05T13:48:36.982Z</time></trkpt><trkpt lat="44.903853471720346" lon="12.102866605710238"><ele>-2.0</ele><time>2026-04-05T13:48:37.982Z</time></trkpt><trkpt lat="44.903977899654954" lon="12.102858621067224"><ele>-2.0</ele><time>2026-04-05T13:48:38.984Z</time></trkpt><trkpt lat="44.90409986624722" lon="12.102850507270322"><ele>-2.0</ele><time>2026-04-05T13:48:39.983Z</time></trkpt><trkpt lat="44.90421588451804" lon="12.102842848639405"><ele>-2.0</ele><time>2026-04-05T13:48:40.983Z</time></trkpt><trkpt lat="44.90432524366224" lon="12.1028356295947"><ele>-1.9999999999999998</ele><time>2026-04-05T13:48:41.984Z</time></trkpt><trkpt lat="44.904417491841876" lon="12.102829213361504"><ele>-2.0</ele><time>2026-04-05T13:48:42.984Z</time></trkpt><trkpt lat="44.90450114666577" lon="12.102802382549596"><ele>-2.0</ele><time>2026-04-05T13:48:43.984Z</time></trkpt><trkpt lat="44.90457432995875" lon="12.102805979340229"><ele>-2.0</ele><time>2026-04-05T13:48:44.984Z</time></trkpt><trkpt lat="44.90465682316436" lon="12.102794427089362"><ele>-1.9999999999999998</ele><time>2026-04-05T13:48:45.984Z</time></trkpt><trkpt lat="44.9047585320945" lon="12.102782292504578"><ele>-2.0</ele><time>2026-04-05T13:48:46.984Z</time></trkpt><trkpt lat="44.90488770683313" lon="12.102735215062287"><ele>-2.0</ele><time>2026-04-05T13:48:47.984Z</time></trkpt><trkpt lat="44.90503622905223" lon="12.10267108120403"><ele>-2.0</ele><time>2026-04-05T13:48:48.984Z</time></trkpt><trkpt lat="44.905202760952626" lon="12.102606454804617"><ele>-2.0</ele><time>2026-04-05T13:48:49.984Z</time></trkpt><trkpt lat="44.90537647746161" lon="12.102500020169623"><ele>-2.333333333333333</ele><time>2026-04-05T13:48:50.984Z</time></trkpt><trkpt lat="44.90556113285813" lon="12.102358047586034"><ele>-2.6666666666666665</ele><time>2026-04-05T13:48:51.983Z</time></trkpt><trkpt lat="44.90576942877941" lon="12.102245154801256"><ele>-3.0</ele><time>2026-04-05T13:48:52.983Z</time></trkpt><trkpt lat="44.905987204543564" lon="12.102103535583284"><ele>-3.0</ele><time>2026-04-05T13:48:53.983Z</time></trkpt><trkpt lat="44.90621794339931" lon="12.101952992757925"><ele>-3.0</ele><time>2026-04-05T13:48:54.983Z</time></trkpt><trkpt lat="44.90645871567777" lon="12.101795739367644"><ele>-3.0</ele><time>2026-04-05T13:48:55.983Z</time></trkpt><trkpt lat="44.906707567716786" lon="12.101633210895045"><ele>-3.0</ele><time>2026-04-05T13:48:56.983Z</time></trkpt><trkpt lat="44.90695914937603" lon="12.101468897507552"><ele>-3.0</ele><time>2026-04-05T13:48:57.983Z</time></trkpt><trkpt lat="44.90721468019782" lon="12.101302005176949"><ele>-3.0</ele><time>2026-04-05T13:48:58.983Z</time></trkpt><trkpt lat="44.90746100465913" lon="12.101115411913057"><ele>-3.5</ele><time>2026-04-05T13:48:59.983Z</time></trkpt><trkpt lat="44.907719366836275" lon="12.100949960229427"><ele>-4.0</ele><time>2026-04-05T13:49:00.983Z</time></trkpt><trkpt lat="44.90797650834445" lon="12.100785374322491"><ele>-4.0</ele><time>2026-04-05T13:49:01.983Z</time></trkpt><trkpt lat="44.908233164504544" lon="12.100617580957842"><ele>-4.0</ele><time>2026-04-05T13:49:02.983Z</time></trkpt><trkpt lat="44.9084936284443" lon="12.100447991629876"><ele>-4.0</ele><time>2026-04-05T13:49:03.983Z</time></trkpt><trkpt lat="44.9087555578934" lon="12.100278680329339"><ele>-4.0</ele><time>2026-04-05T13:49:04.983Z</time></trkpt><trkpt lat="44.909020764781125" lon="12.10010854914621"><ele>-4.0</ele><time>2026-04-05T13:49:05.983Z</time></trkpt><trkpt lat="44.909281806778885" lon="12.09993887954408"><ele>-4.0</ele><time>2026-04-05T13:49:06.983Z</time></trkpt><trkpt lat="44.909532150645745" lon="12.099774962573528"><ele>-3.5</ele><time>2026-04-05T13:49:07.983Z</time></trkpt><trkpt lat="44.909768974842734" lon="12.099621719530566"><ele>-3.0</ele><time>2026-04-05T13:49:08.983Z</time></trkpt><trkpt lat="44.90998878491007" lon="12.099479881662313"><ele>-3.0</ele><time>2026-04-05T13:49:09.983Z</time></trkpt><trkpt lat="44.91019485254057" lon="12.099346773364879"><ele>-3.0</ele><time>2026-04-05T13:49:10.983Z</time></trkpt><trkpt lat="44.910386698418556" lon="12.099225066195947"><ele>-3.0</ele><time>2026-04-05T13:49:11.983Z</time></trkpt><trkpt lat="44.91056901509093" lon="12.099107402563769"><ele>-3.0</ele><time>2026-04-05T13:49:12.983Z</time></trkpt><trkpt lat="44.91074179165017" lon="12.098994724068728"><ele>-3.0</ele><time>2026-04-05T13:49:13.983Z</time></trkpt><trkpt lat="44.910915363899456" lon="12.09888031816024"><ele>-3.0</ele><time>2026-04-05T13:49:14.983Z</time></trkpt><trkpt lat="44.911087805620774" lon="12.098768375919152"><ele>-3.0</ele><time>2026-04-05T13:49:15.983Z</time></trkpt><trkpt lat="44.91125624600891" lon="12.098657647309745"><ele>-3.0</ele><time>2026-04-05T13:49:16.983Z</time></trkpt><trkpt lat="44.911409740541174" lon="12.098555966107803"><ele>-3.0</ele><time>2026-04-05T13:49:17.983Z</time></trkpt><trkpt lat="44.911548720025834" lon="12.098460577035194"><ele>-3.0</ele><time>2026-04-05T13:49:18.983Z</time></trkpt><trkpt lat="44.91166370247288" lon="12.098384910783215"><ele>-3.0</ele><time>2026-04-05T13:49:19.983Z</time></trkpt><trkpt lat="44.91176937974365" lon="12.098313682025827"><ele>-3.0</ele><time>2026-04-05T13:49:20.983Z</time></trkpt><trkpt lat="44.911877764855575" lon="12.098255932666772"><ele>-3.0</ele><time>2026-04-05T13:49:21.983Z</time></trkpt><trkpt lat="44.91199650993727" lon="12.098233585712782"><ele>-3.0</ele><time>2026-04-05T13:49:22.983Z</time></trkpt><trkpt lat="44.912115266544916" lon="12.09829879428364"><ele>-3.0</ele><time>2026-04-05T13:49:23.983Z</time></trkpt><trkpt lat="44.91224041851512" lon="12.098412884860538"><ele>-3.0</ele><time>2026-04-05T13:49:24.983Z</time></trkpt><trkpt lat="44.912387795890766" lon="12.098538071174925"><ele>-3.0</ele><time>2026-04-05T13:49:25.983Z</time></trkpt><trkpt lat="44.91253989250182" lon="12.098687371289637"><ele>-3.0</ele><time>2026-04-05T13:49:26.983Z</time></trkpt><trkpt lat="44.91269682090001" lon="12.098846303052387"><ele>-3.0</ele><time>2026-04-05T13:49:27.983Z</time></trkpt><trkpt lat="44.912862696198886" lon="12.099008312728168"><ele>-3.0</ele><time>2026-04-05T13:49:28.983Z</time></trkpt><trkpt lat="44.913038532665006" lon="12.09919536338113"><ele>-2.5</ele><time>2026-04-05T13:49:29.983Z</time></trkpt><trkpt lat="44.91323120681394" lon="12.099362262729631"><ele>-2.0</ele><time>2026-04-05T13:49:30.983Z</time></trkpt><trkpt lat="44.91342912494403" lon="12.09952053695275"><ele>-2.0</ele><time>2026-04-05T13:49:31.983Z</time></trkpt><trkpt lat="44.913638269737014" lon="12.099678123591364"><ele>-2.0</ele><time>2026-04-05T13:49:32.983Z</time></trkpt><trkpt lat="44.91385743309436" lon="12.099838796650866"><ele>-2.0</ele><time>2026-04-05T13:49:33.982Z</time></trkpt><trkpt lat="44.91408184446128" lon="12.100000379151092"><ele>-2.0</ele><time>2026-04-05T13:49:34.982Z</time></trkpt><trkpt lat="44.914309464437316" lon="12.10015619388837"><ele>-2.0</ele><time>2026-04-05T13:49:35.982Z</time></trkpt><trkpt lat="44.91454752892205" lon="12.100289762581415"><ele>-2.0</ele><time>2026-04-05T13:49:36.982Z</time></trkpt><trkpt lat="44.914775236836014" lon="12.100460972971854"><ele>-2.0</ele><time>2026-04-05T13:49:37.982Z</time></trkpt><trkpt lat="44.915012830143226" lon="12.100582522454152"><ele>-2.0</ele><time>2026-04-05T13:49:38.982Z</time></trkpt><trkpt lat="44.91524277765911" lon="12.100717253670748"><ele>-3.0</ele><time>2026-04-05T13:49:39.982Z</time></trkpt><trkpt lat="44.915477947680294" lon="12.100837811365565"><ele>-4.0</ele><time>2026-04-05T13:49:40.982Z</time></trkpt><trkpt lat="44.91571204381511" lon="12.100949422379456"><ele>-3.5</ele><time>2026-04-05T13:49:41.982Z</time></trkpt><trkpt lat="44.91594709008602" lon="12.101080047754362"><ele>-3.0</ele><time>2026-04-05T13:49:42.982Z</time></trkpt><trkpt lat="44.916189776673676" lon="12.1011746108947"><ele>-3.0</ele><time>2026-04-05T13:49:43.982Z</time></trkpt><trkpt lat="44.91643663804078" lon="12.101234245222651"><ele>-3.0</ele><time>2026-04-05T13:49:44.982Z</time></trkpt><trkpt lat="44.91668104741194" lon="12.101326937238989"><ele>-2.0</ele><time>2026-04-05T13:49:45.982Z</time></trkpt><trkpt lat="44.91692871070121" lon="12.101396467781544"><ele>-1.0</ele><time>2026-04-05T13:49:46.982Z</time></trkpt><trkpt lat="44.91717984645305" lon="12.101458260615896"><ele>-1.0</ele><time>2026-04-05T13:49:47.982Z</time></trkpt><trkpt lat="44.91743283987986" lon="12.101493979478446"><ele>-1.0</ele><time>2026-04-05T13:49:48.982Z</time></trkpt><trkpt lat="44.91768357538839" lon="12.101553263860522"><ele>-2.0</ele><time>2026-04-05T13:49:49.982Z</time></trkpt><trkpt lat="44.91793983208233" lon="12.101576679911995"><ele>-3.0</ele><time>2026-04-05T13:49:50.982Z</time></trkpt><trkpt lat="44.918199055869586" lon="12.101591367197322"><ele>-3.5</ele><time>2026-04-05T13:49:51.982Z</time></trkpt><trkpt lat="44.918456996735316" lon="12.101592942695845"><ele>-4.0</ele><time>2026-04-05T13:49:52.982Z</time></trkpt><trkpt lat="44.91871130975846" lon="12.101586598882378"><ele>-3.0</ele><time>2026-04-05T13:49:53.982Z</time></trkpt><trkpt lat="44.91895104591901" lon="12.101570649863405"><ele>-2.0</ele><time>2026-04-05T13:49:54.982Z</time></trkpt><trkpt lat="44.91918514184998" lon="12.101539273517691"><ele>-2.0</ele><time>2026-04-05T13:49:55.982Z</time></trkpt><trkpt lat="44.9194063269181" lon="12.101504937971281"><ele>-2.0</ele><time>2026-04-05T13:49:56.982Z</time></trkpt><trkpt lat="44.91961740444953" lon="12.101459190494564"><ele>-2.0</ele><time>2026-04-05T13:49:57.982Z</time></trkpt><trkpt lat="44.919810312906506" lon="12.101422451636227"><ele>-2.0</ele><time>2026-04-05T13:49:58.982Z</time></trkpt><trkpt lat="44.92000264126295" lon="12.101407821734508"><ele>-2.0</ele><time>2026-04-05T13:49:59.982Z</time></trkpt><trkpt lat="44.92019996552487" lon="12.101430751467383"><ele>-2.0</ele><time>2026-04-05T13:50:00.982Z</time></trkpt><trkpt lat="44.92038127159248" lon="12.101529806192529"><ele>-2.333333333333333</ele><time>2026-04-05T13:50:01.982Z</time></trkpt><trkpt lat="44.92054991652328" lon="12.101668565994823"><ele>-2.6666666666666665</ele><time>2026-04-05T13:50:02.982Z</time></trkpt><trkpt lat="44.92070695960663" lon="12.10186019744339"><ele>-3.0</ele><time>2026-04-05T13:50:03.982Z</time></trkpt><trkpt lat="44.920861249194985" lon="12.102088183888533"><ele>-2.5</ele><time>2026-04-05T13:50:04.982Z</time></trkpt><trkpt lat="44.92102012374254" lon="12.102338162406"><ele>-2.0</ele><time>2026-04-05T13:50:05.982Z</time></trkpt><trkpt lat="44.92118835243186" lon="12.102595764423192"><ele>-2.0</ele><time>2026-04-05T13:50:06.982Z</time></trkpt><trkpt lat="44.92136230288349" lon="12.102867087326942"><ele>-2.0</ele><time>2026-04-05T13:50:07.982Z</time></trkpt><trkpt lat="44.92154001660727" lon="12.103144277568358"><ele>-2.0</ele><time>2026-04-05T13:50:08.982Z</time></trkpt><trkpt lat="44.9217261777183" lon="12.103434642612328"><ele>-2.0</ele><time>2026-04-05T13:50:09.982Z</time></trkpt><trkpt lat="44.921907345387694" lon="12.103714980179403"><ele>-1.5</ele><time>2026-04-05T13:50:10.982Z</time></trkpt><trkpt lat="44.92211138949205" lon="12.10398975386658"><ele>-1.0</ele><time>2026-04-05T13:50:11.982Z</time></trkpt><trkpt lat="44.92230194300064" lon="12.104290001327442"><ele>-1.0</ele><time>2026-04-05T13:50:12.982Z</time></trkpt><trkpt lat="44.922494903117205" lon="12.104586038776501"><ele>-1.0</ele><time>2026-04-05T13:50:13.982Z</time></trkpt><trkpt lat="44.922692072758856" lon="12.104887705732565"><ele>-1.5</ele><time>2026-04-05T13:50:14.982Z</time></trkpt><trkpt lat="44.92289057966285" lon="12.105189796834342"><ele>-2.0</ele><time>2026-04-05T13:50:15.982Z</time></trkpt><trkpt lat="44.92309026016414" lon="12.105496889038132"><ele>-2.5</ele><time>2026-04-05T13:50:16.982Z</time></trkpt><trkpt lat="44.923293446979805" lon="12.10580558328281"><ele>-3.0</ele><time>2026-04-05T13:50:17.982Z</time></trkpt><trkpt lat="44.92349592286304" lon="12.106114039947524"><ele>-3.0</ele><time>2026-04-05T13:50:18.982Z</time></trkpt><trkpt lat="44.923699448610975" lon="12.106422554309482"><ele>-3.0</ele><time>2026-04-05T13:50:19.982Z</time></trkpt><trkpt lat="44.92389795772264" lon="12.106724931161205"><ele>-3.0</ele><time>2026-04-05T13:50:20.982Z</time></trkpt><trkpt lat="44.92409466123725" lon="12.107023961662222"><ele>-3.0</ele><time>2026-04-05T13:50:21.982Z</time></trkpt><trkpt lat="44.92429211453219" lon="12.107323019365255"><ele>-1.5</ele><time>2026-04-05T13:50:22.982Z</time></trkpt><trkpt lat="44.924484650464315" lon="12.107624440813769"><ele>0.0</ele><time>2026-04-05T13:50:23.982Z</time></trkpt><trkpt lat="44.92467833834994" lon="12.107921393725032"><ele>0.0</ele><time>2026-04-05T13:50:24.982Z</time></trkpt><trkpt lat="44.92487036213186" lon="12.108216553237838"><ele>0.0</ele><time>2026-04-05T13:50:25.982Z</time></trkpt><trkpt lat="44.92506520183083" lon="12.108507170581218"><ele>-1.0</ele><time>2026-04-05T13:50:26.982Z</time></trkpt><trkpt lat="44.92525492010535" lon="12.1087951221865"><ele>-2.0</ele><time>2026-04-05T13:50:27.982Z</time></trkpt><trkpt lat="44.92544037220987" lon="12.109082645154754"><ele>-2.0</ele><time>2026-04-05T13:50:28.982Z</time></trkpt><trkpt lat="44.92562752400836" lon="12.109362407746001"><ele>-2.0</ele><time>2026-04-05T13:50:29.982Z</time></trkpt><trkpt lat="44.925812425647045" lon="12.109640569708503"><ele>-2.5</ele><time>2026-04-05T13:50:30.982Z</time></trkpt><trkpt lat="44.925994362404786" lon="12.109923411209893"><ele>-3.0</ele><time>2026-04-05T13:50:31.982Z</time></trkpt><trkpt lat="44.92617762976574" lon="12.110206600425997"><ele>-3.0</ele><time>2026-04-05T13:50:32.981Z</time></trkpt><trkpt lat="44.92636015757921" lon="12.110488857023693"><ele>-3.0</ele><time>2026-04-05T13:50:33.981Z</time></trkpt><trkpt lat="44.92654454207877" lon="12.110775118931132"><ele>-3.5</ele><time>2026-04-05T13:50:34.981Z</time></trkpt><trkpt lat="44.92672428519276" lon="12.1110588423212"><ele>-4.0</ele><time>2026-04-05T13:50:35.981Z</time></trkpt><trkpt lat="44.92690812788364" lon="12.111341369567038"><ele>-2.5</ele><time>2026-04-05T13:50:36.981Z</time></trkpt><trkpt lat="44.927087256458584" lon="12.11162178261569"><ele>-1.0</ele><time>2026-04-05T13:50:37.981Z</time></trkpt><trkpt lat="44.92726245733752" lon="12.111898856612664"><ele>-1.0</ele><time>2026-04-05T13:50:38.981Z</time></trkpt><trkpt lat="44.92743612020291" lon="12.112169458668403"><ele>-1.0</ele><time>2026-04-05T13:50:39.981Z</time></trkpt><trkpt lat="44.92760590335784" lon="12.112433397789461"><ele>-1.0</ele><time>2026-04-05T13:50:40.981Z</time></trkpt><trkpt lat="44.9277720103724" lon="12.112676014639892"><ele>-1.0</ele><time>2026-04-05T13:50:41.981Z</time></trkpt><trkpt lat="44.9279395881992" lon="12.112906717163892"><ele>-1.0</ele><time>2026-04-05T13:50:42.981Z</time></trkpt><trkpt lat="44.92811896581291" lon="12.113129071225424"><ele>-1.0</ele><time>2026-04-05T13:50:43.981Z</time></trkpt><trkpt lat="44.9283088119866" lon="12.113337266659316"><ele>-1.0</ele><time>2026-04-05T13:50:44.983Z</time></trkpt><trkpt lat="44.92851935503187" lon="12.113527206814164"><ele>-1.0</ele><time>2026-04-05T13:50:45.983Z</time></trkpt><trkpt lat="44.92874751594255" lon="12.113712193427151"><ele>-1.0</ele><time>2026-04-05T13:50:46.983Z</time></trkpt><trkpt lat="44.92898694420363" lon="12.113889783225673"><ele>-1.0</ele><time>2026-04-05T13:50:47.983Z</time></trkpt><trkpt lat="44.92922753527499" lon="12.114048576591703"><ele>-2.5</ele><time>2026-04-05T13:50:48.983Z</time></trkpt><trkpt lat="44.92947286717318" lon="12.114206828049301"><ele>-4.0</ele><time>2026-04-05T13:50:49.983Z</time></trkpt><trkpt lat="44.929720467995615" lon="12.11438414520258"><ele>-4.0</ele><time>2026-04-05T13:50:50.983Z</time></trkpt><trkpt lat="44.92996479564285" lon="12.11455889862463"><ele>-4.0</ele><time>2026-04-05T13:50:51.983Z</time></trkpt><trkpt lat="44.93020824018579" lon="12.114736920322326"><ele>-4.0</ele><time>2026-04-05T13:50:52.983Z</time></trkpt><trkpt lat="44.93045617479572" lon="12.114917911984115"><ele>-4.0</ele><time>2026-04-05T13:50:53.983Z</time></trkpt><trkpt lat="44.930698214388464" lon="12.115100006708117"><ele>-4.0</ele><time>2026-04-05T13:50:54.983Z</time></trkpt><trkpt lat="44.930946521072606" lon="12.115273597879224"><ele>-4.0</ele><time>2026-04-05T13:50:55.983Z</time></trkpt><trkpt lat="44.931205240989314" lon="12.115457462350513"><ele>-4.0</ele><time>2026-04-05T13:50:56.983Z</time></trkpt><trkpt lat="44.931459264808595" lon="12.115637448485918"><ele>-4.0</ele><time>2026-04-05T13:50:57.983Z</time></trkpt><trkpt lat="44.93171335354661" lon="12.115813552336327"><ele>-3.5</ele><time>2026-04-05T13:50:58.983Z</time></trkpt><trkpt lat="44.93196573917403" lon="12.1159966917766"><ele>-3.0</ele><time>2026-04-05T13:50:59.983Z</time></trkpt><trkpt lat="44.93222133440389" lon="12.11618036219132"><ele>-3.0</ele><time>2026-04-05T13:51:00.983Z</time></trkpt><trkpt lat="44.93247798950683" lon="12.116360625308944"><ele>-3.0</ele><time>2026-04-05T13:51:01.983Z</time></trkpt><trkpt lat="44.93273592327687" lon="12.116540892909361"><ele>-3.5</ele><time>2026-04-05T13:51:02.983Z</time></trkpt><trkpt lat="44.9329921241366" lon="12.116718933576967"><ele>-4.0</ele><time>2026-04-05T13:51:03.983Z</time></trkpt><trkpt lat="44.933240860808276" lon="12.116893240312313"><ele>-3.0</ele><time>2026-04-05T13:51:04.983Z</time></trkpt><trkpt lat="44.933482134100736" lon="12.117065633559106"><ele>-2.0</ele><time>2026-04-05T13:51:05.983Z</time></trkpt><trkpt lat="44.93371273204904" lon="12.117231211200462"><ele>-2.0</ele><time>2026-04-05T13:51:06.983Z</time></trkpt><trkpt lat="44.93393483127984" lon="12.117392445707996"><ele>-2.0</ele><time>2026-04-05T13:51:07.983Z</time></trkpt><trkpt lat="44.93415072437627" lon="12.11754467460256"><ele>-3.0</ele><time>2026-04-05T13:51:08.983Z</time></trkpt><trkpt lat="44.93436060343802" lon="12.117695671653307"><ele>-4.0</ele><time>2026-04-05T13:51:09.983Z</time></trkpt><trkpt lat="44.934564814659836" lon="12.117841205247831"><ele>-4.0</ele><time>2026-04-05T13:51:10.983Z</time></trkpt><trkpt lat="44.93476799273304" lon="12.117984847697581"><ele>-4.0</ele><time>2026-04-05T13:51:11.983Z</time></trkpt><trkpt lat="44.934966426015706" lon="12.118123730187499"><ele>-4.0</ele><time>2026-04-05T13:51:12.983Z</time></trkpt><trkpt lat="44.93516516920084" lon="12.118265002005742"><ele>-4.333333333333333</ele><time>2026-04-05T13:51:13.983Z</time></trkpt><trkpt lat="44.93536012366096" lon="12.118403168700244"><ele>-4.666666666666667</ele><time>2026-04-05T13:51:14.983Z</time></trkpt><trkpt lat="44.935534229216444" lon="12.118533883593871"><ele>-5.0</ele><time>2026-04-05T13:51:15.983Z</time></trkpt><trkpt lat="44.93570631461473" lon="12.118656456228095"><ele>-5.0</ele><time>2026-04-05T13:51:16.983Z</time></trkpt><trkpt lat="44.93586514985673" lon="12.118767612790398"><ele>-5.0</ele><time>2026-04-05T13:51:17.983Z</time></trkpt><trkpt lat="44.9360130321182" lon="12.118874322028912"><ele>-5.0</ele><time>2026-04-05T13:51:18.983Z</time></trkpt><trkpt lat="44.93615056780803" lon="12.118980540424149"><ele>-4.25</ele><time>2026-04-05T13:51:19.982Z</time></trkpt><trkpt lat="44.936282822633615" lon="12.119077566613145"><ele>-3.5</ele><time>2026-04-05T13:51:20.982Z</time></trkpt><trkpt lat="44.93640656004975" lon="12.119169351797064"><ele>-2.75</ele><time>2026-04-05T13:51:21.982Z</time></trkpt><trkpt lat="44.93652261855127" lon="12.119253240874357"><ele>-2.0</ele><time>2026-04-05T13:51:22.982Z</time></trkpt><trkpt lat="44.93662628586344" lon="12.119328730303188"><ele>-2.2</ele><time>2026-04-05T13:51:23.982Z</time></trkpt><trkpt lat="44.93672690346086" lon="12.11939271186377"><ele>-2.4000000000000004</ele><time>2026-04-05T13:51:24.982Z</time></trkpt><trkpt lat="44.936815353808534" lon="12.11946039276553"><ele>-2.5999999999999996</ele><time>2026-04-05T13:51:25.982Z</time></trkpt><trkpt lat="44.936891099908195" lon="12.119541527873922"><ele>-2.8</ele><time>2026-04-05T13:51:26.982Z</time></trkpt><trkpt lat="44.93695132952411" lon="12.119636927710522"><ele>-3.0</ele><time>2026-04-05T13:51:27.982Z</time></trkpt><trkpt lat="44.936996351817335" lon="12.119757661351727"><ele>-3.0</ele><time>2026-04-05T13:51:28.982Z</time></trkpt><trkpt lat="44.937020023269746" lon="12.119897366053465"><ele>-3.0</ele><time>2026-04-05T13:51:29.982Z</time></trkpt><trkpt lat="44.93701250939547" lon="12.120048228718902"><ele>-3.0</ele><time>2026-04-05T13:51:30.982Z</time></trkpt><trkpt lat="44.93702188153571" lon="12.120204681012044"><ele>-3.0</ele><time>2026-04-05T13:51:31.982Z</time></trkpt><trkpt lat="44.936971652895174" lon="12.120364508306672"><ele>-3.0</ele><time>2026-04-05T13:51:32.982Z</time></trkpt><trkpt lat="44.9369956464938" lon="12.120530188888333"><ele>-3.0</ele><time>2026-04-05T13:51:33.982Z</time></trkpt><trkpt lat="44.93704933429965" lon="12.120695901086465"><ele>-3.0</ele><time>2026-04-05T13:51:34.982Z</time></trkpt><trkpt lat="44.93714862076164" lon="12.120820993593593"><ele>-3.0</ele><time>2026-04-05T13:51:35.982Z</time></trkpt><trkpt lat="44.93726891805388" lon="12.120876991643902"><ele>-3.0</ele><time>2026-04-05T13:51:36.982Z</time></trkpt><trkpt lat="44.9373946307778" lon="12.120932580202789"><ele>-3.0</ele><time>2026-04-05T13:51:37.982Z</time></trkpt><trkpt lat="44.937536928060595" lon="12.120962127174797"><ele>-3.0</ele><time>2026-04-05T13:51:38.982Z</time></trkpt><trkpt lat="44.93769109937395" lon="12.120973859837056"><ele>-3.0</ele><time>2026-04-05T13:51:39.982Z</time></trkpt><trkpt lat="44.937848875756366" lon="12.121018890367939"><ele>-3.0</ele><time>2026-04-05T13:51:40.982Z</time></trkpt><trkpt lat="44.938009724245774" lon="12.121048694444665"><ele>-3.0</ele><time>2026-04-05T13:51:41.982Z</time></trkpt><trkpt lat="44.93817406859664" lon="12.12105973133005"><ele>-3.0</ele><time>2026-04-05T13:51:42.982Z</time></trkpt><trkpt lat="44.93832807780508" lon="12.12113049637986"><ele>-2.6666666666666665</ele><time>2026-04-05T13:51:43.982Z</time></trkpt><trkpt lat="44.93848009202911" lon="12.121199394948317"><ele>-2.333333333333333</ele><time>2026-04-05T13:51:44.982Z</time></trkpt><trkpt lat="44.93862529756243" lon="12.12129600504093"><ele>-2.0</ele><time>2026-04-05T13:51:45.982Z</time></trkpt><trkpt lat="44.93876414928976" lon="12.121413322174757"><ele>-2.0</ele><time>2026-04-05T13:51:46.982Z</time></trkpt><trkpt lat="44.93889853552445" lon="12.121553193765505"><ele>-2.0</ele><time>2026-04-05T13:51:47.982Z</time></trkpt><trkpt lat="44.939022489489844" lon="12.12172043165031"><ele>-2.0</ele><time>2026-04-05T13:51:48.982Z</time></trkpt><trkpt lat="44.93913385450355" lon="12.121907891016988"><ele>-2.0</ele><time>2026-04-05T13:51:49.982Z</time></trkpt><trkpt lat="44.93923247564153" lon="12.122096579324314"><ele>-2.0</ele><time>2026-04-05T13:51:50.982Z</time></trkpt><trkpt lat="44.93932945780795" lon="12.122290180626642"><ele>-2.0</ele><time>2026-04-05T13:51:51.982Z</time></trkpt><trkpt lat="44.93942615772491" lon="12.122482851828433"><ele>-1.0</ele><time>2026-04-05T13:51:52.982Z</time></trkpt><trkpt lat="44.93952595928202" lon="12.122677547730152"><ele>0.0</ele><time>2026-04-05T13:51:53.982Z</time></trkpt><trkpt lat="44.93962321942276" lon="12.122869637130872"><ele>1.0</ele><time>2026-04-05T13:51:54.982Z</time></trkpt><trkpt lat="44.939714690556265" lon="12.123049264393082"><ele>1.0</ele><time>2026-04-05T13:51:55.982Z</time></trkpt><trkpt lat="44.939798235790995" lon="12.123213485071778"><ele>1.0</ele><time>2026-04-05T13:51:56.982Z</time></trkpt><trkpt lat="44.93986972261354" lon="12.123354566598756"><ele>1.0</ele><time>2026-04-05T13:51:57.982Z</time></trkpt><trkpt lat="44.93993726535776" lon="12.123490925366545"><ele>1.0</ele><time>2026-04-05T13:51:58.982Z</time></trkpt><trkpt lat="44.93999796289991" lon="12.12361066576847"><ele>1.0</ele><time>2026-04-05T13:51:59.982Z</time></trkpt><trkpt lat="44.94004003666596" lon="12.123717537462847"><ele>1.0</ele><time>2026-04-05T13:52:00.982Z</time></trkpt><trkpt lat="44.940066945721114" lon="12.123817687722886"><ele>1.0</ele><time>2026-04-05T13:52:01.982Z</time></trkpt><trkpt lat="44.94012748637753" lon="12.12395367494998"><ele>1.0</ele><time>2026-04-05T13:52:03.982Z</time></trkpt><trkpt lat="44.94018298481819" lon="12.12405458369618"><ele>1.0</ele><time>2026-04-05T13:52:05.982Z</time></trkpt><trkpt lat="44.9402919299938" lon="12.124017728974339"><ele>1.0</ele><time>2026-04-05T13:52:06.982Z</time></trkpt><trkpt lat="44.94037983858772" lon="12.123950668915043"><ele>1.0</ele><time>2026-04-05T13:52:07.982Z</time></trkpt><trkpt lat="44.94048632497293" lon="12.123847794746641"><ele>1.0</ele><time>2026-04-05T13:52:08.982Z</time></trkpt><trkpt lat="44.940603089537184" lon="12.123734745814067"><ele>1.0</ele><time>2026-04-05T13:52:09.982Z</time></trkpt><trkpt lat="44.94073134520298" lon="12.123628970061494"><ele>1.0</ele><time>2026-04-05T13:52:10.982Z</time></trkpt><trkpt lat="44.94087097142153" lon="12.123512372752268"><ele>1.0</ele><time>2026-04-05T13:52:11.982Z</time></trkpt><trkpt lat="44.94101774440542" lon="12.123383896825608"><ele>1.0</ele><time>2026-04-05T13:52:12.982Z</time></trkpt><trkpt lat="44.94116728791929" lon="12.123253035821389"><ele>0.3333333333333333</ele><time>2026-04-05T13:52:13.982Z</time></trkpt><trkpt lat="44.94132945269568" lon="12.123128572566587"><ele>-0.3333333333333333</ele><time>2026-04-05T13:52:14.982Z</time></trkpt><trkpt lat="44.941485422590794" lon="12.1230015520544"><ele>-1.0</ele><time>2026-04-05T13:52:15.982Z</time></trkpt><trkpt lat="44.9416350130537" lon="12.122881215314806"><ele>-0.3333333333333333</ele><time>2026-04-05T13:52:16.982Z</time></trkpt><trkpt lat="44.94178307657686" lon="12.122763186140489"><ele>0.3333333333333333</ele><time>2026-04-05T13:52:17.982Z</time></trkpt><trkpt lat="44.94192922860978" lon="12.12264532983819"><ele>1.0</ele><time>2026-04-05T13:52:18.981Z</time></trkpt><trkpt lat="44.94206458017318" lon="12.122538280566362"><ele>1.0</ele><time>2026-04-05T13:52:19.981Z</time></trkpt><trkpt lat="44.94218845343569" lon="12.12242414745645"><ele>1.0</ele><time>2026-04-05T13:52:20.981Z</time></trkpt><trkpt lat="44.942293121977535" lon="12.12231634411638"><ele>1.0</ele><time>2026-04-05T13:52:21.981Z</time></trkpt><trkpt lat="44.94238522463314" lon="12.122208617845505"><ele>1.0</ele><time>2026-04-05T13:52:22.981Z</time></trkpt><trkpt lat="44.9424601256412" lon="12.12210522636028"><ele>1.2000000000000002</ele><time>2026-04-05T13:52:23.981Z</time></trkpt><trkpt lat="44.94251207729384" lon="12.122018068020116"><ele>1.4000000000000001</ele><time>2026-04-05T13:52:24.981Z</time></trkpt><trkpt lat="44.94255573553244" lon="12.121947753417865"><ele>1.6</ele><time>2026-04-05T13:52:25.981Z</time></trkpt><trkpt lat="44.94260861458006" lon="12.121831579580569"><ele>1.8</ele><time>2026-04-05T13:52:27.981Z</time></trkpt><trkpt lat="44.94265985707701" lon="12.121678852299139"><ele>2.0</ele><time>2026-04-05T13:52:29.981Z</time></trkpt><trkpt lat="44.94270137545507" lon="12.121568036857184"><ele>2.25</ele><time>2026-04-05T13:52:30.981Z</time></trkpt><trkpt lat="44.942756379305834" lon="12.121431043977688"><ele>2.5</ele><time>2026-04-05T13:52:31.981Z</time></trkpt><trkpt lat="44.942818375349574" lon="12.121279905028398"><ele>2.75</ele><time>2026-04-05T13:52:32.981Z</time></trkpt><trkpt lat="44.942883116291455" lon="12.121115296183097"><ele>3.0</ele><time>2026-04-05T13:52:33.981Z</time></trkpt><trkpt lat="44.942953507041885" lon="12.120933884362483"><ele>3.0</ele><time>2026-04-05T13:52:34.981Z</time></trkpt><trkpt lat="44.94302656322522" lon="12.120746307261804"><ele>3.0</ele><time>2026-04-05T13:52:35.981Z</time></trkpt><trkpt lat="44.94309701417329" lon="12.120553719495264"><ele>3.0</ele><time>2026-04-05T13:52:36.981Z</time></trkpt><trkpt lat="44.94315622722487" lon="12.120374219074499"><ele>3.0</ele><time>2026-04-05T13:52:37.981Z</time></trkpt><trkpt lat="44.94319739766286" lon="12.120198422415864"><ele>2.25</ele><time>2026-04-05T13:52:38.981Z</time></trkpt><trkpt lat="44.943212936068214" lon="12.120026586092788"><ele>1.5</ele><time>2026-04-05T13:52:39.981Z</time></trkpt><trkpt lat="44.94321558782807" lon="12.1198646943929"><ele>0.75</ele><time>2026-04-05T13:52:40.981Z</time></trkpt><trkpt lat="44.94319243238258" lon="12.119706548008333"><ele>0.0</ele><time>2026-04-05T13:52:41.981Z</time></trkpt><trkpt lat="44.943158787354875" lon="12.11955641730726"><ele>0.0</ele><time>2026-04-05T13:52:42.981Z</time></trkpt><trkpt lat="44.94312048348307" lon="12.119410798493652"><ele>0.0</ele><time>2026-04-05T13:52:43.981Z</time></trkpt><trkpt lat="44.9430864775094" lon="12.119284165790404"><ele>0.0</ele><time>2026-04-05T13:52:44.981Z</time></trkpt><trkpt lat="44.94303685188913" lon="12.1191662863215"><ele>0.0</ele><time>2026-04-05T13:52:45.981Z</time></trkpt><trkpt lat="44.94298691718019" lon="12.11905027724673"><ele>0.0</ele><time>2026-04-05T13:52:46.981Z</time></trkpt><trkpt lat="44.94293208344997" lon="12.118951822224236"><ele>0.2</ele><time>2026-04-05T13:52:47.981Z</time></trkpt><trkpt lat="44.94288234304945" lon="12.118871449042192"><ele>0.4</ele><time>2026-04-05T13:52:48.981Z</time></trkpt><trkpt lat="44.94282819235065" lon="12.118806164118128"><ele>0.6000000000000001</ele><time>2026-04-05T13:52:49.981Z</time></trkpt><trkpt lat="44.94278918063542" lon="12.118735618585601"><ele>0.8</ele><time>2026-04-05T13:52:50.983Z</time></trkpt><trkpt lat="44.94271531498941" lon="12.118653128330477"><ele>1.0</ele><time>2026-04-05T13:52:52.983Z</time></trkpt><trkpt lat="44.942810299647796" lon="12.11842552980281"><ele>1.0</ele><time>2026-04-05T13:52:55.982Z</time></trkpt><trkpt lat="44.94287921253683" lon="12.118306935613104"><ele>1.0</ele><time>2026-04-05T13:52:56.983Z</time></trkpt><trkpt lat="44.94295522917869" lon="12.118169161848868"><ele>1.0</ele><time>2026-04-05T13:52:57.983Z</time></trkpt><trkpt lat="44.94302716245662" lon="12.118034019866673"><ele>1.0</ele><time>2026-04-05T13:52:58.983Z</time></trkpt><trkpt lat="44.943109169816886" lon="12.117876762104366"><ele>0.5</ele><time>2026-04-05T13:52:59.982Z</time></trkpt><trkpt lat="44.943201353677885" lon="12.117724512889577"><ele>0.0</ele><time>2026-04-05T13:53:00.982Z</time></trkpt><trkpt lat="44.94329836098335" lon="12.117563912345577"><ele>-0.5</ele><time>2026-04-05T13:53:01.982Z</time></trkpt><trkpt lat="44.943417998419584" lon="12.117443043475475"><ele>-1.0</ele><time>2026-04-05T13:53:02.983Z</time></trkpt><trkpt lat="44.94352886173231" lon="12.11727790719358"><ele>-1.75</ele><time>2026-04-05T13:53:03.982Z</time></trkpt><trkpt lat="44.94361242213186" lon="12.117120209309656"><ele>-2.5</ele><time>2026-04-05T13:53:04.982Z</time></trkpt><trkpt lat="44.94369208322223" lon="12.116973349706589"><ele>-3.25</ele><time>2026-04-05T13:53:05.982Z</time></trkpt><trkpt lat="44.94376689471485" lon="12.116836581095189"><ele>-4.0</ele><time>2026-04-05T13:53:06.982Z</time></trkpt><trkpt lat="44.94382073111829" lon="12.116703630732326"><ele>-4.0</ele><time>2026-04-05T13:53:07.982Z</time></trkpt><trkpt lat="44.94390564137551" lon="12.116588240889682"><ele>-4.0</ele><time>2026-04-05T13:53:08.982Z</time></trkpt><trkpt lat="44.943985029259366" lon="12.11646020014586"><ele>-4.0</ele><time>2026-04-05T13:53:09.982Z</time></trkpt><trkpt lat="44.94408378746486" lon="12.116322689901976"><ele>-4.0</ele><time>2026-04-05T13:53:10.982Z</time></trkpt><trkpt lat="44.94420148272249" lon="12.116180248704609"><ele>-3.6666666666666665</ele><time>2026-04-05T13:53:11.982Z</time></trkpt><trkpt lat="44.94435954822578" lon="12.11609684982737"><ele>-3.333333333333333</ele><time>2026-04-05T13:53:12.982Z</time></trkpt><trkpt lat="44.94453276382507" lon="12.115999539315137"><ele>-3.0</ele><time>2026-04-05T13:53:13.982Z</time></trkpt><trkpt lat="44.94470972210448" lon="12.115886888544265"><ele>-3.0</ele><time>2026-04-05T13:53:14.982Z</time></trkpt><trkpt lat="44.94490538803125" lon="12.11579579673722"><ele>-3.0</ele><time>2026-04-05T13:53:15.982Z</time></trkpt><trkpt lat="44.94510617748747" lon="12.115694407776267"><ele>-3.0</ele><time>2026-04-05T13:53:16.982Z</time></trkpt><trkpt lat="44.94531262589362" lon="12.115596406446372"><ele>-3.0</ele><time>2026-04-05T13:53:17.982Z</time></trkpt><trkpt lat="44.94552332697889" lon="12.115496510461307"><ele>-3.0</ele><time>2026-04-05T13:53:18.982Z</time></trkpt><trkpt lat="44.945732639006565" lon="12.115389421585258"><ele>-3.0</ele><time>2026-04-05T13:53:19.982Z</time></trkpt><trkpt lat="44.945934855101235" lon="12.11527200935871"><ele>-2.5</ele><time>2026-04-05T13:53:20.982Z</time></trkpt><trkpt lat="44.94613643082176" lon="12.115123875075644"><ele>-2.0</ele><time>2026-04-05T13:53:21.982Z</time></trkpt><trkpt lat="44.946343748187125" lon="12.114977841436366"><ele>-2.0</ele><time>2026-04-05T13:53:22.982Z</time></trkpt><trkpt lat="44.94654693968759" lon="12.114804861638381"><ele>-2.0</ele><time>2026-04-05T13:53:23.982Z</time></trkpt><trkpt lat="44.94675432252112" lon="12.114627602042171"><ele>-2.0</ele><time>2026-04-05T13:53:24.982Z</time></trkpt><trkpt lat="44.94696999006306" lon="12.114443261125773"><ele>-2.0</ele><time>2026-04-05T13:53:25.982Z</time></trkpt><trkpt lat="44.94718369674804" lon="12.114260596243017"><ele>-2.0</ele><time>2026-04-05T13:53:26.982Z</time></trkpt><trkpt lat="44.94739084951504" lon="12.114083533294702"><ele>-2.0</ele><time>2026-04-05T13:53:27.982Z</time></trkpt><trkpt lat="44.94758081349688" lon="12.113896471503596"><ele>-2.5</ele><time>2026-04-05T13:53:28.982Z</time></trkpt><trkpt lat="44.947796360255765" lon="12.113769290569104"><ele>-3.0</ele><time>2026-04-05T13:53:29.982Z</time></trkpt><trkpt lat="44.94800795440784" lon="12.113665012867328"><ele>-3.0</ele><time>2026-04-05T13:53:30.982Z</time></trkpt><trkpt lat="44.94822789296017" lon="12.113584642225822"><ele>-3.0</ele><time>2026-04-05T13:53:31.982Z</time></trkpt><trkpt lat="44.9484573066299" lon="12.11349795867168"><ele>-2.5</ele><time>2026-04-05T13:53:32.982Z</time></trkpt><trkpt lat="44.948699399617055" lon="12.113445803228785"><ele>-2.0</ele><time>2026-04-05T13:53:33.982Z</time></trkpt><trkpt lat="44.948943816042885" lon="12.113407230055289"><ele>-2.0</ele><time>2026-04-05T13:53:34.982Z</time></trkpt><trkpt lat="44.94919098513169" lon="12.113376750619462"><ele>-2.0</ele><time>2026-04-05T13:53:35.982Z</time></trkpt><trkpt lat="44.94944084603682" lon="12.113337681862037"><ele>-1.5</ele><time>2026-04-05T13:53:36.981Z</time></trkpt><trkpt lat="44.949690690277706" lon="12.113281895466907"><ele>-1.0</ele><time>2026-04-05T13:53:37.981Z</time></trkpt><trkpt lat="44.949938038984776" lon="12.113207737752305"><ele>-3.0</ele><time>2026-04-05T13:53:38.981Z</time></trkpt><trkpt lat="44.95018537540616" lon="12.113113097816356"><ele>-5.0</ele><time>2026-04-05T13:53:39.981Z</time></trkpt><trkpt lat="44.950433131974115" lon="12.112994052716585"><ele>-5.0</ele><time>2026-04-05T13:53:40.981Z</time></trkpt><trkpt lat="44.95067979168759" lon="12.112855735668676"><ele>-5.0</ele><time>2026-04-05T13:53:41.981Z</time></trkpt><trkpt lat="44.950920392973394" lon="12.112709694003916"><ele>-5.0</ele><time>2026-04-05T13:53:42.981Z</time></trkpt><trkpt lat="44.951164126209896" lon="12.112545231905123"><ele>-5.0</ele><time>2026-04-05T13:53:43.981Z</time></trkpt><trkpt lat="44.95139712544457" lon="12.112366778667532"><ele>-5.0</ele><time>2026-04-05T13:53:44.981Z</time></trkpt><trkpt lat="44.95162544574642" lon="12.112163853866303"><ele>-5.0</ele><time>2026-04-05T13:53:45.981Z</time></trkpt><trkpt lat="44.95185031251502" lon="12.111943171592182"><ele>-4.5</ele><time>2026-04-05T13:53:46.981Z</time></trkpt><trkpt lat="44.95207024656945" lon="12.111719612706132"><ele>-4.0</ele><time>2026-04-05T13:53:47.981Z</time></trkpt><trkpt lat="44.952290952920116" lon="12.111490413502521"><ele>-4.0</ele><time>2026-04-05T13:53:48.981Z</time></trkpt><trkpt lat="44.95250703629214" lon="12.111273977464544"><ele>-4.0</ele><time>2026-04-05T13:53:49.981Z</time></trkpt><trkpt lat="44.952712313065675" lon="12.11107003305601"><ele>-3.5</ele><time>2026-04-05T13:53:50.981Z</time></trkpt><trkpt lat="44.95290338925171" lon="12.110875150987372"><ele>-3.0</ele><time>2026-04-05T13:53:51.981Z</time></trkpt><trkpt lat="44.95307984498093" lon="12.110650975943956"><ele>-4.0</ele><time>2026-04-05T13:53:52.981Z</time></trkpt><trkpt lat="44.95325393901733" lon="12.110398110474861"><ele>-5.0</ele><time>2026-04-05T13:53:53.981Z</time></trkpt><trkpt lat="44.95342532367549" lon="12.110119385099578"><ele>-5.5</ele><time>2026-04-05T13:53:54.981Z</time></trkpt><trkpt lat="44.953590951259436" lon="12.10982672931604"><ele>-6.0</ele><time>2026-04-05T13:53:55.981Z</time></trkpt><trkpt lat="44.95376007501971" lon="12.109528494038358"><ele>-6.0</ele><time>2026-04-05T13:53:56.981Z</time></trkpt><trkpt lat="44.95392962981696" lon="12.109223383013877"><ele>-6.0</ele><time>2026-04-05T13:53:57.981Z</time></trkpt><trkpt lat="44.954099235894255" lon="12.108913726784996"><ele>-4.5</ele><time>2026-04-05T13:53:58.981Z</time></trkpt><trkpt lat="44.954269995645454" lon="12.108612437303114"><ele>-3.0</ele><time>2026-04-05T13:53:59.981Z</time></trkpt><trkpt lat="44.9544343509377" lon="12.10831769648167"><ele>-3.0</ele><time>2026-04-05T13:54:00.981Z</time></trkpt><trkpt lat="44.954594718289485" lon="12.108034920603375"><ele>-3.0</ele><time>2026-04-05T13:54:01.981Z</time></trkpt><trkpt lat="44.954749182509076" lon="12.107738021461401"><ele>-3.0</ele><time>2026-04-05T13:54:02.981Z</time></trkpt><trkpt lat="44.95488192524819" lon="12.107430817595949"><ele>-3.0</ele><time>2026-04-05T13:54:03.981Z</time></trkpt><trkpt lat="44.95500982434976" lon="12.107107983099723"><ele>-3.0</ele><time>2026-04-05T13:54:04.981Z</time></trkpt><trkpt lat="44.9551369127833" lon="12.106782336554827"><ele>-3.0</ele><time>2026-04-05T13:54:05.981Z</time></trkpt><trkpt lat="44.955274003721854" lon="12.106459805347681"><ele>-3.0</ele><time>2026-04-05T13:54:06.981Z</time></trkpt><trkpt lat="44.95542513933714" lon="12.10614258348653"><ele>-3.0</ele><time>2026-04-05T13:54:07.981Z</time></trkpt><trkpt lat="44.955581734592045" lon="12.105836336190656"><ele>-2.5</ele><time>2026-04-05T13:54:08.981Z</time></trkpt><trkpt lat="44.9557341475138" lon="12.105541539331256"><ele>-2.0</ele><time>2026-04-05T13:54:09.981Z</time></trkpt><trkpt lat="44.95589116061571" lon="12.105235393453405"><ele>-2.0</ele><time>2026-04-05T13:54:10.981Z</time></trkpt><trkpt lat="44.95604287946232" lon="12.104921473268595"><ele>-2.0</ele><time>2026-04-05T13:54:11.981Z</time></trkpt><trkpt lat="44.9561920077156" lon="12.104595620165274"><ele>-2.0</ele><time>2026-04-05T13:54:12.981Z</time></trkpt><trkpt lat="44.95633296815366" lon="12.104265520307722"><ele>-2.0</ele><time>2026-04-05T13:54:13.981Z</time></trkpt><trkpt lat="44.95647539973379" lon="12.103921720875483"><ele>-2.5</ele><time>2026-04-05T13:54:14.981Z</time></trkpt><trkpt lat="44.95661395424462" lon="12.103587821903053"><ele>-3.0</ele><time>2026-04-05T13:54:15.981Z</time></trkpt><trkpt lat="44.95676496262009" lon="12.103255776446867"><ele>-1.5</ele><time>2026-04-05T13:54:16.981Z</time></trkpt><trkpt lat="44.956922261988844" lon="12.10293353162016"><ele>0.0</ele><time>2026-04-05T13:54:17.981Z</time></trkpt><trkpt lat="44.95708626019322" lon="12.102614910144966"><ele>-1.5</ele><time>2026-04-05T13:54:18.981Z</time></trkpt><trkpt lat="44.957250003276584" lon="12.102294622511435"><ele>-3.0</ele><time>2026-04-05T13:54:19.981Z</time></trkpt><trkpt lat="44.95740979980337" lon="12.101972496033499"><ele>-2.5</ele><time>2026-04-05T13:54:20.981Z</time></trkpt><trkpt lat="44.9575722895381" lon="12.101640013455413"><ele>-2.0</ele><time>2026-04-05T13:54:21.981Z</time></trkpt><trkpt lat="44.95772739862183" lon="12.101310955855709"><ele>-2.5</ele><time>2026-04-05T13:54:22.981Z</time></trkpt><trkpt lat="44.95787282841452" lon="12.100990690559277"><ele>-3.0</ele><time>2026-04-05T13:54:23.981Z</time></trkpt><trkpt lat="44.958011061077734" lon="12.100669686631441"><ele>-3.0</ele><time>2026-04-05T13:54:24.981Z</time></trkpt><trkpt lat="44.95814573057015" lon="12.100352750914826"><ele>-3.0</ele><time>2026-04-05T13:54:25.981Z</time></trkpt><trkpt lat="44.95826357207552" lon="12.100026742496452"><ele>-4.0</ele><time>2026-04-05T13:54:26.981Z</time></trkpt><trkpt lat="44.95837821445525" lon="12.099700395313185"><ele>-5.0</ele><time>2026-04-05T13:54:27.981Z</time></trkpt><trkpt lat="44.95849132127612" lon="12.09936339952061"><ele>-4.0</ele><time>2026-04-05T13:54:28.981Z</time></trkpt><trkpt lat="44.958612209458735" lon="12.09902988200177"><ele>-3.0</ele><time>2026-04-05T13:54:29.981Z</time></trkpt><trkpt lat="44.9587374548993" lon="12.098692359975244"><ele>-3.0</ele><time>2026-04-05T13:54:30.981Z</time></trkpt><trkpt lat="44.95886470708093" lon="12.098353967135203"><ele>-3.0</ele><time>2026-04-05T13:54:31.981Z</time></trkpt><trkpt lat="44.95899495400081" lon="12.098019265562966"><ele>-3.0</ele><time>2026-04-05T13:54:32.981Z</time></trkpt><trkpt lat="44.95912911689033" lon="12.097701424373339"><ele>-3.0</ele><time>2026-04-05T13:54:33.981Z</time></trkpt><trkpt lat="44.95929407287173" lon="12.097392836472526"><ele>-3.5</ele><time>2026-04-05T13:54:34.981Z</time></trkpt><trkpt lat="44.95946827724273" lon="12.097093926781497"><ele>-4.0</ele><time>2026-04-05T13:54:35.98Z</time></trkpt><trkpt lat="44.95963365770698" lon="12.096796354982843"><ele>-4.0</ele><time>2026-04-05T13:54:36.98Z</time></trkpt><trkpt lat="44.95980590796516" lon="12.096490025346904"><ele>-4.0</ele><time>2026-04-05T13:54:37.98Z</time></trkpt><trkpt lat="44.95996855274133" lon="12.096165533467307"><ele>-4.0</ele><time>2026-04-05T13:54:38.98Z</time></trkpt><trkpt lat="44.96012420133742" lon="12.09582799953153"><ele>-4.0</ele><time>2026-04-05T13:54:39.98Z</time></trkpt><trkpt lat="44.960272621998" lon="12.095494929895578"><ele>-4.0</ele><time>2026-04-05T13:54:40.98Z</time></trkpt><trkpt lat="44.960422235508474" lon="12.09516310626649"><ele>-4.0</ele><time>2026-04-05T13:54:41.98Z</time></trkpt><trkpt lat="44.96057271394474" lon="12.09483205213916"><ele>-4.0</ele><time>2026-04-05T13:54:42.98Z</time></trkpt><trkpt lat="44.96071951627215" lon="12.094508128877584"><ele>-4.0</ele><time>2026-04-05T13:54:43.98Z</time></trkpt><trkpt lat="44.96086731451195" lon="12.094186503950064"><ele>-4.0</ele><time>2026-04-05T13:54:44.98Z</time></trkpt><trkpt lat="44.96101122233232" lon="12.093870100535042"><ele>-4.0</ele><time>2026-04-05T13:54:45.98Z</time></trkpt><trkpt lat="44.96116033879168" lon="12.093564775186435"><ele>-4.0</ele><time>2026-04-05T13:54:46.98Z</time></trkpt><trkpt lat="44.96131697429242" lon="12.093268564145026"><ele>-4.0</ele><time>2026-04-05T13:54:47.98Z</time></trkpt><trkpt lat="44.96148268447462" lon="12.092968999604699"><ele>-4.0</ele><time>2026-04-05T13:54:48.98Z</time></trkpt><trkpt lat="44.96165074484505" lon="12.09267091999483"><ele>-4.0</ele><time>2026-04-05T13:54:49.98Z</time></trkpt><trkpt lat="44.961823232771266" lon="12.092373810825094"><ele>-4.0</ele><time>2026-04-05T13:54:50.98Z</time></trkpt><trkpt lat="44.962005841988734" lon="12.092082134212369"><ele>-4.0</ele><time>2026-04-05T13:54:51.98Z</time></trkpt><trkpt lat="44.96219670931105" lon="12.091795259206425"><ele>-4.0</ele><time>2026-04-05T13:54:52.98Z</time></trkpt><trkpt lat="44.96239663729575" lon="12.091518459130706"><ele>-4.0</ele><time>2026-04-05T13:54:53.98Z</time></trkpt><trkpt lat="44.96259184376139" lon="12.091246697234952"><ele>-3.5</ele><time>2026-04-05T13:54:54.98Z</time></trkpt><trkpt lat="44.9627867929587" lon="12.09098453995351"><ele>-3.0</ele><time>2026-04-05T13:54:55.98Z</time></trkpt><trkpt lat="44.96297949896902" lon="12.090727027548127"><ele>-2.5</ele><time>2026-04-05T13:54:56.982Z</time></trkpt><trkpt lat="44.96316703444626" lon="12.09047380125246"><ele>-2.0</ele><time>2026-04-05T13:54:57.982Z</time></trkpt><trkpt lat="44.963342341887206" lon="12.0902513520576"><ele>-3.0</ele><time>2026-04-05T13:54:58.982Z</time></trkpt><trkpt lat="44.96351012361811" lon="12.090029410521367"><ele>-4.0</ele><time>2026-04-05T13:54:59.982Z</time></trkpt><trkpt lat="44.96367513059038" lon="12.089814433119201"><ele>-4.0</ele><time>2026-04-05T13:55:00.982Z</time></trkpt><trkpt lat="44.963825195713866" lon="12.089598320980363"><ele>-4.0</ele><time>2026-04-05T13:55:01.982Z</time></trkpt><trkpt lat="44.9639523961957" lon="12.08936641411366"><ele>-4.0</ele><time>2026-04-05T13:55:02.982Z</time></trkpt><trkpt lat="44.96404050183562" lon="12.089106100127445"><ele>-3.6666666666666665</ele><time>2026-04-05T13:55:03.982Z</time></trkpt><trkpt lat="44.964094305930686" lon="12.088812400169479"><ele>-3.333333333333333</ele><time>2026-04-05T13:55:04.982Z</time></trkpt><trkpt lat="44.964122168212036" lon="12.088488080457136"><ele>-3.0</ele><time>2026-04-05T13:55:05.982Z</time></trkpt><trkpt lat="44.96413627512314" lon="12.088138154451798"><ele>-3.0</ele><time>2026-04-05T13:55:06.981Z</time></trkpt><trkpt lat="44.96414362360476" lon="12.087779203786816"><ele>-3.0</ele><time>2026-04-05T13:55:07.981Z</time></trkpt><trkpt lat="44.964147081926505" lon="12.087410565393107"><ele>-2.5</ele><time>2026-04-05T13:55:08.982Z</time></trkpt><trkpt lat="44.964149096503604" lon="12.08703893945639"><ele>-2.0</ele><time>2026-04-05T13:55:09.981Z</time></trkpt><trkpt lat="44.96415273406561" lon="12.086664422807077"><ele>-2.5</ele><time>2026-04-05T13:55:10.981Z</time></trkpt><trkpt lat="44.964156721126976" lon="12.086292829270468"><ele>-3.0</ele><time>2026-04-05T13:55:11.981Z</time></trkpt><trkpt lat="44.964164246046764" lon="12.085928337219094"><ele>-2.5</ele><time>2026-04-05T13:55:12.981Z</time></trkpt><trkpt lat="44.9641683522076" lon="12.085572539847044"><ele>-2.0</ele><time>2026-04-05T13:55:13.981Z</time></trkpt><trkpt lat="44.96417654739981" lon="12.085223493167037"><ele>-1.5</ele><time>2026-04-05T13:55:14.981Z</time></trkpt><trkpt lat="44.96417881413435" lon="12.084881972650406"><ele>-1.0</ele><time>2026-04-05T13:55:15.981Z</time></trkpt><trkpt lat="44.96417620065017" lon="12.084547717046034"><ele>-1.0</ele><time>2026-04-05T13:55:16.981Z</time></trkpt><trkpt lat="44.96418014065321" lon="12.084211652100503"><ele>-1.0</ele><time>2026-04-05T13:55:17.981Z</time></trkpt><trkpt lat="44.96418557197188" lon="12.083869046180434"><ele>-0.5</ele><time>2026-04-05T13:55:18.981Z</time></trkpt><trkpt lat="44.96419005995552" lon="12.083523192254153"><ele>0.0</ele><time>2026-04-05T13:55:19.981Z</time></trkpt><trkpt lat="44.96419530295325" lon="12.083169832448464"><ele>2.5</ele><time>2026-04-05T13:55:20.981Z</time></trkpt><trkpt lat="44.964198189626664" lon="12.082820977296668"><ele>5.0</ele><time>2026-04-05T13:55:21.981Z</time></trkpt><trkpt lat="44.964200625025526" lon="12.082457100579742"><ele>5.0</ele><time>2026-04-05T13:55:22.981Z</time></trkpt><trkpt lat="44.964198411276584" lon="12.082087417512579"><ele>5.0</ele><time>2026-04-05T13:55:23.981Z</time></trkpt><trkpt lat="44.96419615950903" lon="12.081712380948831"><ele>4.5</ele><time>2026-04-05T13:55:24.981Z</time></trkpt><trkpt lat="44.964199671648984" lon="12.081337084146764"><ele>4.0</ele><time>2026-04-05T13:55:25.981Z</time></trkpt><trkpt lat="44.96420167648647" lon="12.080958193786937"><ele>3.0</ele><time>2026-04-05T13:55:26.981Z</time></trkpt><trkpt lat="44.96420023558202" lon="12.080579085020142"><ele>2.0</ele><time>2026-04-05T13:55:27.981Z</time></trkpt><trkpt lat="44.9641973972038" lon="12.080195502594457"><ele>0.5</ele><time>2026-04-05T13:55:28.981Z</time></trkpt><trkpt lat="44.964192598854225" lon="12.079817171653554"><ele>-1.0</ele><time>2026-04-05T13:55:29.981Z</time></trkpt><trkpt lat="44.96418701455208" lon="12.079441804940199"><ele>-0.5</ele><time>2026-04-05T13:55:30.981Z</time></trkpt><trkpt lat="44.96418523678437" lon="12.079067054560857"><ele>0.0</ele><time>2026-04-05T13:55:31.98Z</time></trkpt><trkpt lat="44.96418012966516" lon="12.078679491336544"><ele>0.0</ele><time>2026-04-05T13:55:32.98Z</time></trkpt><trkpt lat="44.96417856985124" lon="12.07829377994134"><ele>0.0</ele><time>2026-04-05T13:55:33.98Z</time></trkpt><trkpt lat="44.96417010857291" lon="12.077902503191254"><ele>-1.0</ele><time>2026-04-05T13:55:34.98Z</time></trkpt><trkpt lat="44.96416217899523" lon="12.077518804505438"><ele>-2.0</ele><time>2026-04-05T13:55:35.98Z</time></trkpt><trkpt lat="44.96415846474345" lon="12.077145433813172"><ele>-2.5</ele><time>2026-04-05T13:55:36.98Z</time></trkpt><trkpt lat="44.964152323550096" lon="12.07677357261533"><ele>-3.0</ele><time>2026-04-05T13:55:37.979Z</time></trkpt><trkpt lat="44.96414859116317" lon="12.076399425068479"><ele>-3.0</ele><time>2026-04-05T13:55:38.979Z</time></trkpt><trkpt lat="44.964141813248474" lon="12.076028615903834"><ele>-3.0</ele><time>2026-04-05T13:55:39.979Z</time></trkpt><trkpt lat="44.964136076591195" lon="12.075659780023567"><ele>-3.5</ele><time>2026-04-05T13:55:40.979Z</time></trkpt><trkpt lat="44.9641275954419" lon="12.075292456666832"><ele>-4.0</ele><time>2026-04-05T13:55:41.979Z</time></trkpt><trkpt lat="44.96412155781107" lon="12.074928782484676"><ele>-2.5</ele><time>2026-04-05T13:55:42.979Z</time></trkpt><trkpt lat="44.96411537891908" lon="12.074574877296715"><ele>-1.0</ele><time>2026-04-05T13:55:43.979Z</time></trkpt><trkpt lat="44.964108734964306" lon="12.07422934516971"><ele>-1.0</ele><time>2026-04-05T13:55:44.979Z</time></trkpt><trkpt lat="44.96410405985353" lon="12.073898055370444"><ele>-1.0</ele><time>2026-04-05T13:55:45.979Z</time></trkpt><trkpt lat="44.96410298696361" lon="12.073573469939886"><ele>-0.6666666666666666</ele><time>2026-04-05T13:55:46.979Z</time></trkpt><trkpt lat="44.96410536520542" lon="12.073261035544936"><ele>-0.3333333333333333</ele><time>2026-04-05T13:55:47.978Z</time></trkpt><trkpt lat="44.96411657808182" lon="12.072955961763844"><ele>0.0</ele><time>2026-04-05T13:55:48.978Z</time></trkpt><trkpt lat="44.964134278902584" lon="12.072649313103858"><ele>0.3333333333333333</ele><time>2026-04-05T13:55:49.978Z</time></trkpt><trkpt lat="44.96415117702017" lon="12.072338143517731"><ele>0.6666666666666666</ele><time>2026-04-05T13:55:50.978Z</time></trkpt><trkpt lat="44.964163559218676" lon="12.072026779325888"><ele>1.0</ele><time>2026-04-05T13:55:51.978Z</time></trkpt><trkpt lat="44.964163735380986" lon="12.071710571682537"><ele>0.5</ele><time>2026-04-05T13:55:52.978Z</time></trkpt><trkpt lat="44.96414549922827" lon="12.07138979670154"><ele>0.0</ele><time>2026-04-05T13:55:53.978Z</time></trkpt><trkpt lat="44.964102069273515" lon="12.071063869410585"><ele>0.0</ele><time>2026-04-05T13:55:54.978Z</time></trkpt><trkpt lat="44.96403894952703" lon="12.07073550699095"><ele>0.0</ele><time>2026-04-05T13:55:55.978Z</time></trkpt><trkpt lat="44.96397377628788" lon="12.070401430239267"><ele>0.0</ele><time>2026-04-05T13:55:56.978Z</time></trkpt><trkpt lat="44.96390681345607" lon="12.070066362492293"><ele>0.0</ele><time>2026-04-05T13:55:57.978Z</time></trkpt><trkpt lat="44.96383311633922" lon="12.069734681144466"><ele>-1.0</ele><time>2026-04-05T13:55:58.978Z</time></trkpt><trkpt lat="44.96375096546493" lon="12.069409101122886"><ele>-2.0</ele><time>2026-04-05T13:55:59.978Z</time></trkpt><trkpt lat="44.9636659919109" lon="12.069082635016818"><ele>-2.5</ele><time>2026-04-05T13:56:00.978Z</time></trkpt><trkpt lat="44.96358398142344" lon="12.068755663025597"><ele>-3.0</ele><time>2026-04-05T13:56:01.978Z</time></trkpt><trkpt lat="44.963501357896156" lon="12.068425282998344"><ele>-3.5</ele><time>2026-04-05T13:56:02.978Z</time></trkpt><trkpt lat="44.96343322148658" lon="12.068080766339564"><ele>-4.0</ele><time>2026-04-05T13:56:03.978Z</time></trkpt><trkpt lat="44.96337608190337" lon="12.06772563734697"><ele>-4.0</ele><time>2026-04-05T13:56:04.977Z</time></trkpt><trkpt lat="44.96333479428027" lon="12.06736144931308"><ele>-4.0</ele><time>2026-04-05T13:56:05.977Z</time></trkpt><trkpt lat="44.963304608699794" lon="12.066986299392168"><ele>-4.0</ele><time>2026-04-05T13:56:06.977Z</time></trkpt><trkpt lat="44.963280906763664" lon="12.066603259313807"><ele>-4.0</ele><time>2026-04-05T13:56:07.977Z</time></trkpt><trkpt lat="44.963255164101454" lon="12.066214487675074"><ele>-4.0</ele><time>2026-04-05T13:56:08.977Z</time></trkpt><trkpt lat="44.96322750959512" lon="12.0658283044302"><ele>-4.0</ele><time>2026-04-05T13:56:09.977Z</time></trkpt><trkpt lat="44.96320189272037" lon="12.065442672434086"><ele>-3.5</ele><time>2026-04-05T13:56:10.977Z</time></trkpt><trkpt lat="44.96317364597444" lon="12.065063674183886"><ele>-3.0</ele><time>2026-04-05T13:56:11.977Z</time></trkpt><trkpt lat="44.963145417771784" lon="12.06468723013019"><ele>-3.0</ele><time>2026-04-05T13:56:12.977Z</time></trkpt><trkpt lat="44.96311768828103" lon="12.064319798369814"><ele>-3.0</ele><time>2026-04-05T13:56:13.977Z</time></trkpt><trkpt lat="44.963092164988446" lon="12.063958921472395"><ele>-3.0</ele><time>2026-04-05T13:56:14.977Z</time></trkpt><trkpt lat="44.96306623993421" lon="12.063611048731019"><ele>-3.0</ele><time>2026-04-05T13:56:15.977Z</time></trkpt><trkpt lat="44.96304530928241" lon="12.063275659242052"><ele>-3.0</ele><time>2026-04-05T13:56:16.977Z</time></trkpt><trkpt lat="44.963024305082584" lon="12.062953614215422"><ele>-3.0</ele><time>2026-04-05T13:56:17.977Z</time></trkpt><trkpt lat="44.9630021953863" lon="12.062644106095808"><ele>-3.0</ele><time>2026-04-05T13:56:18.977Z</time></trkpt><trkpt lat="44.9629821311886" lon="12.062341071120494"><ele>-3.0</ele><time>2026-04-05T13:56:19.977Z</time></trkpt><trkpt lat="44.96296652388769" lon="12.062057700766136"><ele>-3.0</ele><time>2026-04-05T13:56:20.977Z</time></trkpt><trkpt lat="44.962960823725794" lon="12.061790900802645"><ele>-3.0</ele><time>2026-04-05T13:56:21.977Z</time></trkpt><trkpt lat="44.962990141436485" lon="12.061546118605962"><ele>-2.6666666666666665</ele><time>2026-04-05T13:56:22.977Z</time></trkpt><trkpt lat="44.963042837180836" lon="12.061304296592926"><ele>-2.333333333333333</ele><time>2026-04-05T13:56:23.977Z</time></trkpt><trkpt lat="44.963116671860064" lon="12.061062595563092"><ele>-2.0</ele><time>2026-04-05T13:56:24.977Z</time></trkpt><trkpt lat="44.963203999425886" lon="12.060797073604162"><ele>-2.0</ele><time>2026-04-05T13:56:25.977Z</time></trkpt><trkpt lat="44.963292651642234" lon="12.060515203689016"><ele>-2.0</ele><time>2026-04-05T13:56:26.977Z</time></trkpt><trkpt lat="44.96336899322611" lon="12.06021128292311"><ele>-2.0</ele><time>2026-04-05T13:56:27.977Z</time></trkpt><trkpt lat="44.9634580068097" lon="12.059914534537125"><ele>-2.0</ele><time>2026-04-05T13:56:28.977Z</time></trkpt><trkpt lat="44.96354607775011" lon="12.059608600102079"><ele>-2.0</ele><time>2026-04-05T13:56:29.977Z</time></trkpt><trkpt lat="44.96363585534811" lon="12.059309837625554"><ele>-2.5</ele><time>2026-04-05T13:56:30.977Z</time></trkpt><trkpt lat="44.9637175530922" lon="12.059002057573103"><ele>-3.0</ele><time>2026-04-05T13:56:31.977Z</time></trkpt><trkpt lat="44.96379737886039" lon="12.058705622885379"><ele>-3.0</ele><time>2026-04-05T13:56:32.977Z</time></trkpt><trkpt lat="44.96387611649212" lon="12.05842139730681"><ele>-3.0</ele><time>2026-04-05T13:56:33.977Z</time></trkpt><trkpt lat="44.96394965163301" lon="12.058146268761918"><ele>-3.0</ele><time>2026-04-05T13:56:34.977Z</time></trkpt><trkpt lat="44.96401688050808" lon="12.057876928264779"><ele>-2.6666666666666665</ele><time>2026-04-05T13:56:35.977Z</time></trkpt><trkpt lat="44.96406786098139" lon="12.057609148873397"><ele>-2.333333333333333</ele><time>2026-04-05T13:56:36.977Z</time></trkpt><trkpt lat="44.964094720636204" lon="12.05733561662409"><ele>-2.0</ele><time>2026-04-05T13:56:37.977Z</time></trkpt><trkpt lat="44.96410843738908" lon="12.057065175603146"><ele>-2.0</ele><time>2026-04-05T13:56:38.977Z</time></trkpt><trkpt lat="44.96410084515802" lon="12.05678720224299"><ele>-2.0</ele><time>2026-04-05T13:56:39.977Z</time></trkpt><trkpt lat="44.96408220498631" lon="12.056494899941736"><ele>-2.0</ele><time>2026-04-05T13:56:40.977Z</time></trkpt><trkpt lat="44.964045692083126" lon="12.056185301302174"><ele>-2.5</ele><time>2026-04-05T13:56:41.977Z</time></trkpt><trkpt lat="44.9639963808558" lon="12.055882018182992"><ele>-3.0</ele><time>2026-04-05T13:56:42.977Z</time></trkpt><trkpt lat="44.96393430519109" lon="12.055559104711946"><ele>-3.0</ele><time>2026-04-05T13:56:43.976Z</time></trkpt><trkpt lat="44.963868232086114" lon="12.055236266216557"><ele>-3.0</ele><time>2026-04-05T13:56:44.976Z</time></trkpt><trkpt lat="44.96379906330667" lon="12.054910910137634"><ele>-3.0</ele><time>2026-04-05T13:56:45.976Z</time></trkpt><trkpt lat="44.96373286428841" lon="12.054588229966138"><ele>-3.0</ele><time>2026-04-05T13:56:46.976Z</time></trkpt><trkpt lat="44.96367189405589" lon="12.054252228429222"><ele>-2.5</ele><time>2026-04-05T13:56:47.976Z</time></trkpt><trkpt lat="44.96360925100194" lon="12.053918160683224"><ele>-2.0</ele><time>2026-04-05T13:56:48.976Z</time></trkpt><trkpt lat="44.96354401040466" lon="12.053584264734653"><ele>-2.0</ele><time>2026-04-05T13:56:49.976Z</time></trkpt><trkpt lat="44.96348416505092" lon="12.053247225100547"><ele>-2.0</ele><time>2026-04-05T13:56:50.976Z</time></trkpt><trkpt lat="44.96342417986315" lon="12.052911591002836"><ele>-3.0</ele><time>2026-04-05T13:56:51.976Z</time></trkpt><trkpt lat="44.963361975233944" lon="12.052577815649991"><ele>-4.0</ele><time>2026-04-05T13:56:52.976Z</time></trkpt><trkpt lat="44.963300299256126" lon="12.052252217314171"><ele>-4.0</ele><time>2026-04-05T13:56:53.976Z</time></trkpt><trkpt lat="44.96323880355292" lon="12.051931612503857"><ele>-4.0</ele><time>2026-04-05T13:56:54.976Z</time></trkpt><trkpt lat="44.96317795118577" lon="12.051611255358923"><ele>-3.5</ele><time>2026-04-05T13:56:55.976Z</time></trkpt><trkpt lat="44.9631170898701" lon="12.051298612328093"><ele>-3.0</ele><time>2026-04-05T13:56:56.976Z</time></trkpt><trkpt lat="44.96305671672584" lon="12.050987695842345"><ele>-2.6666666666666665</ele><time>2026-04-05T13:56:57.976Z</time></trkpt><trkpt lat="44.96300027615251" lon="12.050687211387208"><ele>-2.333333333333333</ele><time>2026-04-05T13:56:58.976Z</time></trkpt><trkpt lat="44.962947275182955" lon="12.050398331930035"><ele>-2.0</ele><time>2026-04-05T13:56:59.976Z</time></trkpt><trkpt lat="44.962895080979386" lon="12.050122572971603"><ele>-1.3333333333333333</ele><time>2026-04-05T13:57:00.976Z</time></trkpt><trkpt lat="44.962842810941" lon="12.049859635188602"><ele>-0.6666666666666666</ele><time>2026-04-05T13:57:01.976Z</time></trkpt><trkpt lat="44.962791955152" lon="12.049598279309151"><ele>0.0</ele><time>2026-04-05T13:57:02.978Z</time></trkpt><trkpt lat="44.96274218012199" lon="12.049334402362192"><ele>-0.3333333333333333</ele><time>2026-04-05T13:57:03.978Z</time></trkpt><trkpt lat="44.96269140744534" lon="12.049073513441838"><ele>-0.6666666666666666</ele><time>2026-04-05T13:57:04.978Z</time></trkpt><trkpt lat="44.96264084060033" lon="12.048812174174305"><ele>-1.0</ele><time>2026-04-05T13:57:05.978Z</time></trkpt><trkpt lat="44.96258996644236" lon="12.048549256523089"><ele>-1.0</ele><time>2026-04-05T13:57:06.978Z</time></trkpt><trkpt lat="44.962543928300725" lon="12.048299627274682"><ele>-1.0</ele><time>2026-04-05T13:57:07.978Z</time></trkpt><trkpt lat="44.9625007607149" lon="12.048065687529375"><ele>-1.0</ele><time>2026-04-05T13:57:08.978Z</time></trkpt><trkpt lat="44.96246217351618" lon="12.047849619740484"><ele>-1.0</ele><time>2026-04-05T13:57:09.978Z</time></trkpt><trkpt lat="44.962425769950684" lon="12.047656868851094"><ele>-1.0</ele><time>2026-04-05T13:57:10.977Z</time></trkpt><trkpt lat="44.96239739243318" lon="12.04749039751927"><ele>-1.0</ele><time>2026-04-05T13:57:11.977Z</time></trkpt><trkpt lat="44.96236927461463" lon="12.047351827388118"><ele>-1.0</ele><time>2026-04-05T13:57:12.978Z</time></trkpt><trkpt lat="44.96235183562438" lon="12.04723700429443"><ele>-1.0</ele><time>2026-04-05T13:57:13.978Z</time></trkpt><trkpt lat="44.96233647642089" lon="12.04714778194108"><ele>-0.8</ele><time>2026-04-05T13:57:14.978Z</time></trkpt><trkpt lat="44.96227219847234" lon="12.047065070106026"><ele>-0.6000000000000001</ele><time>2026-04-05T13:57:16.978Z</time></trkpt><trkpt lat="44.9622058801589" lon="12.047068503261887"><ele>-0.4</ele><time>2026-04-05T13:57:17.978Z</time></trkpt><trkpt lat="44.96211585839797" lon="12.047099512056414"><ele>-0.2</ele><time>2026-04-05T13:57:18.978Z</time></trkpt><trkpt lat="44.961993523386525" lon="12.047144227008696"><ele>0.0</ele><time>2026-04-05T13:57:19.978Z</time></trkpt><trkpt lat="44.96184401819784" lon="12.047192025233704"><ele>-0.6666666666666666</ele><time>2026-04-05T13:57:20.978Z</time></trkpt><trkpt lat="44.961688512518265" lon="12.04724085135368"><ele>-1.3333333333333333</ele><time>2026-04-05T13:57:21.978Z</time></trkpt><trkpt lat="44.961517807878636" lon="12.047291692928734"><ele>-2.0</ele><time>2026-04-05T13:57:22.978Z</time></trkpt><trkpt lat="44.96133314450759" lon="12.04734807030063"><ele>-2.0</ele><time>2026-04-05T13:57:23.978Z</time></trkpt><trkpt lat="44.961138635503055" lon="12.047410710676836"><ele>-2.0</ele><time>2026-04-05T13:57:24.978Z</time></trkpt><trkpt lat="44.960938209819666" lon="12.047471739835178"><ele>-2.0</ele><time>2026-04-05T13:57:25.977Z</time></trkpt><trkpt lat="44.96073055517601" lon="12.047530850465254"><ele>-2.333333333333333</ele><time>2026-04-05T13:57:26.977Z</time></trkpt><trkpt lat="44.9605176710662" lon="12.047591427658652"><ele>-2.6666666666666665</ele><time>2026-04-05T13:57:27.977Z</time></trkpt><trkpt lat="44.960297997856294" lon="12.047654498979323"><ele>-3.0</ele><time>2026-04-05T13:57:28.977Z</time></trkpt><trkpt lat="44.9600766866935" lon="12.047719330592859"><ele>-3.5</ele><time>2026-04-05T13:57:29.977Z</time></trkpt><trkpt lat="44.95985169689027" lon="12.04778476744123"><ele>-4.0</ele><time>2026-04-05T13:57:30.977Z</time></trkpt><trkpt lat="44.95962356876738" lon="12.047849965271388"><ele>-4.0</ele><time>2026-04-05T13:57:31.977Z</time></trkpt><trkpt lat="44.959395699511546" lon="12.047915361126037"><ele>-4.0</ele><time>2026-04-05T13:57:32.977Z</time></trkpt><trkpt lat="44.95916455615124" lon="12.047981074947636"><ele>-4.0</ele><time>2026-04-05T13:57:33.977Z</time></trkpt><trkpt lat="44.95893033882864" lon="12.048049310236298"><ele>-4.0</ele><time>2026-04-05T13:57:34.977Z</time></trkpt><trkpt lat="44.958695891363554" lon="12.0481173916483"><ele>-4.0</ele><time>2026-04-05T13:57:35.977Z</time></trkpt><trkpt lat="44.95846080813086" lon="12.048185206178271"><ele>-4.0</ele><time>2026-04-05T13:57:36.977Z</time></trkpt><trkpt lat="44.95822781682908" lon="12.0482554344244"><ele>-4.5</ele><time>2026-04-05T13:57:37.977Z</time></trkpt><trkpt lat="44.95799410830159" lon="12.048325172261228"><ele>-5.0</ele><time>2026-04-05T13:57:38.977Z</time></trkpt><trkpt lat="44.95776109029753" lon="12.048394664657637"><ele>-5.0</ele><time>2026-04-05T13:57:39.977Z</time></trkpt><trkpt lat="44.95752711551096" lon="12.048465835753747"><ele>-5.0</ele><time>2026-04-05T13:57:40.977Z</time></trkpt><trkpt lat="44.95729341157475" lon="12.04853449460664"><ele>-5.0</ele><time>2026-04-05T13:57:41.977Z</time></trkpt><trkpt lat="44.957058064532646" lon="12.048602025462527"><ele>-5.0</ele><time>2026-04-05T13:57:42.977Z</time></trkpt><trkpt lat="44.95682443748074" lon="12.0486690686744"><ele>-4.5</ele><time>2026-04-05T13:57:43.977Z</time></trkpt><trkpt lat="44.95659355150102" lon="12.048736487802953"><ele>-4.0</ele><time>2026-04-05T13:57:44.977Z</time></trkpt><trkpt lat="44.95636239977945" lon="12.048803244794353"><ele>-4.0</ele><time>2026-04-05T13:57:45.977Z</time></trkpt><trkpt lat="44.95613956957004" lon="12.048871837086695"><ele>-4.0</ele><time>2026-04-05T13:57:46.977Z</time></trkpt><trkpt lat="44.95591668383492" lon="12.048940202164864"><ele>-4.5</ele><time>2026-04-05T13:57:47.977Z</time></trkpt><trkpt lat="44.955687073465256" lon="12.04900874561371"><ele>-5.0</ele><time>2026-04-05T13:57:48.977Z</time></trkpt><trkpt lat="44.95545443210387" lon="12.049074677762645"><ele>-4.5</ele><time>2026-04-05T13:57:49.977Z</time></trkpt><trkpt lat="44.95521680946345" lon="12.04913908301399"><ele>-4.0</ele><time>2026-04-05T13:57:50.977Z</time></trkpt><trkpt lat="44.95497689723892" lon="12.049204105347854"><ele>-5.0</ele><time>2026-04-05T13:57:51.977Z</time></trkpt><trkpt lat="44.954734542715464" lon="12.049267998826146"><ele>-6.0</ele><time>2026-04-05T13:57:52.977Z</time></trkpt><trkpt lat="44.95449239527278" lon="12.049332803878865"><ele>-6.0</ele><time>2026-04-05T13:57:53.977Z</time></trkpt><trkpt lat="44.95425318531387" lon="12.049398457197873"><ele>-6.0</ele><time>2026-04-05T13:57:54.977Z</time></trkpt><trkpt lat="44.9540263772759" lon="12.049463533002845"><ele>-4.5</ele><time>2026-04-05T13:57:55.977Z</time></trkpt><trkpt lat="44.95380293875724" lon="12.049521187088976"><ele>-3.0</ele><time>2026-04-05T13:57:56.977Z</time></trkpt><trkpt lat="44.95358219565233" lon="12.049561483187075"><ele>-3.666666666666667</ele><time>2026-04-05T13:57:57.977Z</time></trkpt><trkpt lat="44.95335837769638" lon="12.049573695779666"><ele>-4.333333333333334</ele><time>2026-04-05T13:57:58.977Z</time></trkpt><trkpt lat="44.953134234242256" lon="12.049565394900098"><ele>-5.0</ele><time>2026-04-05T13:57:59.977Z</time></trkpt><trkpt lat="44.952909116833894" lon="12.049549407399674"><ele>-5.0</ele><time>2026-04-05T13:58:00.977Z</time></trkpt><trkpt lat="44.95267713282059" lon="12.049544403736343"><ele>-5.0</ele><time>2026-04-05T13:58:01.977Z</time></trkpt><trkpt lat="44.95243970225046" lon="12.049541430231876"><ele>-4.5</ele><time>2026-04-05T13:58:02.977Z</time></trkpt><trkpt lat="44.95219993865607" lon="12.049539702980466"><ele>-4.0</ele><time>2026-04-05T13:58:03.977Z</time></trkpt><trkpt lat="44.9519583923891" lon="12.049535702958387"><ele>-4.0</ele><time>2026-04-05T13:58:04.977Z</time></trkpt><trkpt lat="44.951714859603584" lon="12.049529806322449"><ele>-4.0</ele><time>2026-04-05T13:58:05.977Z</time></trkpt><trkpt lat="44.95147321003306" lon="12.049528792000057"><ele>-4.5</ele><time>2026-04-05T13:58:06.977Z</time></trkpt><trkpt lat="44.95123490622916" lon="12.049531232124677"><ele>-5.0</ele><time>2026-04-05T13:58:07.977Z</time></trkpt><trkpt lat="44.95099835467594" lon="12.049527677433304"><ele>-4.333333333333334</ele><time>2026-04-05T13:58:08.977Z</time></trkpt><trkpt lat="44.95077883231372" lon="12.049518234408593"><ele>-3.666666666666667</ele><time>2026-04-05T13:58:09.977Z</time></trkpt><trkpt lat="44.95057476454358" lon="12.049510164495729"><ele>-3.0</ele><time>2026-04-05T13:58:10.977Z</time></trkpt><trkpt lat="44.95038991630379" lon="12.049505032806605"><ele>-3.0</ele><time>2026-04-05T13:58:11.977Z</time></trkpt><trkpt lat="44.95021906176385" lon="12.049506377923036"><ele>-3.0</ele><time>2026-04-05T13:58:12.977Z</time></trkpt><trkpt lat="44.9500465165709" lon="12.049535566059683"><ele>-3.0</ele><time>2026-04-05T13:58:13.977Z</time></trkpt><trkpt lat="44.94987820590085" lon="12.04961004219173"><ele>-3.666666666666667</ele><time>2026-04-05T13:58:14.977Z</time></trkpt><trkpt lat="44.94971875336032" lon="12.0497264752233"><ele>-4.333333333333334</ele><time>2026-04-05T13:58:15.977Z</time></trkpt><trkpt lat="44.94957058023873" lon="12.04988501776387"><ele>-5.0</ele><time>2026-04-05T13:58:16.977Z</time></trkpt><trkpt lat="44.949432533286576" lon="12.050081060400235"><ele>-5.0</ele><time>2026-04-05T13:58:17.977Z</time></trkpt><trkpt lat="44.94928432794115" lon="12.050307300717678"><ele>-5.0</ele><time>2026-04-05T13:58:18.977Z</time></trkpt><trkpt lat="44.94911141781817" lon="12.050526616231455"><ele>-4.5</ele><time>2026-04-05T13:58:19.977Z</time></trkpt><trkpt lat="44.94894015722394" lon="12.050768935450012"><ele>-4.0</ele><time>2026-04-05T13:58:20.976Z</time></trkpt><trkpt lat="44.94877155946884" lon="12.051013006324425"><ele>-4.0</ele><time>2026-04-05T13:58:21.976Z</time></trkpt><trkpt lat="44.94860809436414" lon="12.051257803330692"><ele>-4.0</ele><time>2026-04-05T13:58:22.976Z</time></trkpt><trkpt lat="44.948457539523304" lon="12.051480691268075"><ele>-4.333333333333333</ele><time>2026-04-05T13:58:23.976Z</time></trkpt><trkpt lat="44.94832048858016" lon="12.051687577821282"><ele>-4.666666666666667</ele><time>2026-04-05T13:58:24.976Z</time></trkpt><trkpt lat="44.94819128830017" lon="12.051878852787327"><ele>-5.0</ele><time>2026-04-05T13:58:25.976Z</time></trkpt><trkpt lat="44.94806985467231" lon="12.05205569837871"><ele>-5.0</ele><time>2026-04-05T13:58:26.976Z</time></trkpt><trkpt lat="44.947951619551354" lon="12.052213345952818"><ele>-5.0</ele><time>2026-04-05T13:58:27.976Z</time></trkpt><trkpt lat="44.94782393787297" lon="12.052360536789482"><ele>-5.0</ele><time>2026-04-05T13:58:28.976Z</time></trkpt><trkpt lat="44.94766181986135" lon="12.052470359868133"><ele>-5.0</ele><time>2026-04-05T13:58:29.976Z</time></trkpt><trkpt lat="44.94747709605019" lon="12.052542974635857"><ele>-5.0</ele><time>2026-04-05T13:58:30.976Z</time></trkpt><trkpt lat="44.9472687255417" lon="12.05257618296481"><ele>-5.0</ele><time>2026-04-05T13:58:31.976Z</time></trkpt><trkpt lat="44.9470437975196" lon="12.052616015808512"><ele>-5.0</ele><time>2026-04-05T13:58:32.976Z</time></trkpt><trkpt lat="44.946818693788515" lon="12.052656880349458"><ele>-5.0</ele><time>2026-04-05T13:58:33.976Z</time></trkpt><trkpt lat="44.9465986813457" lon="12.052703447441372"><ele>-5.0</ele><time>2026-04-05T13:58:34.976Z</time></trkpt><trkpt lat="44.94639438910514" lon="12.05275343229634"><ele>-5.0</ele><time>2026-04-05T13:58:35.976Z</time></trkpt><trkpt lat="44.94619656099322" lon="12.052802563146823"><ele>-5.0</ele><time>2026-04-05T13:58:36.976Z</time></trkpt><trkpt lat="44.946004396622754" lon="12.052846893482375"><ele>-5.0</ele><time>2026-04-05T13:58:37.976Z</time></trkpt><trkpt lat="44.9458304153222" lon="12.052888259625245"><ele>-5.0</ele><time>2026-04-05T13:58:38.976Z</time></trkpt><trkpt lat="44.945661174736486" lon="12.052900423708802"><ele>-5.0</ele><time>2026-04-05T13:58:39.976Z</time></trkpt><trkpt lat="44.94549017102228" lon="12.052872647534995"><ele>-5.0</ele><time>2026-04-05T13:58:40.976Z</time></trkpt><trkpt lat="44.945294724471715" lon="12.05280443234363"><ele>-5.0</ele><time>2026-04-05T13:58:41.976Z</time></trkpt><trkpt lat="44.94509022489988" lon="12.052730039824503"><ele>-5.0</ele><time>2026-04-05T13:58:42.976Z</time></trkpt><trkpt lat="44.94487921729948" lon="12.052659994871753"><ele>-5.0</ele><time>2026-04-05T13:58:43.976Z</time></trkpt><trkpt lat="44.94465652437135" lon="12.052583574668695"><ele>-5.0</ele><time>2026-04-05T13:58:44.976Z</time></trkpt><trkpt lat="44.94442598314856" lon="12.05250891811685"><ele>-5.0</ele><time>2026-04-05T13:58:45.976Z</time></trkpt><trkpt lat="44.94418239776349" lon="12.052426898225608"><ele>-5.0</ele><time>2026-04-05T13:58:46.976Z</time></trkpt><trkpt lat="44.94392684054999" lon="12.052338989517107"><ele>-5.0</ele><time>2026-04-05T13:58:47.976Z</time></trkpt><trkpt lat="44.94366344146621" lon="12.052253498382582"><ele>-5.0</ele><time>2026-04-05T13:58:48.976Z</time></trkpt><trkpt lat="44.94339367092262" lon="12.052160898286436"><ele>-5.0</ele><time>2026-04-05T13:58:49.976Z</time></trkpt><trkpt lat="44.94312232099199" lon="12.052069953626765"><ele>-5.5</ele><time>2026-04-05T13:58:50.976Z</time></trkpt><trkpt lat="44.9428495469532" lon="12.051971574109903"><ele>-6.0</ele><time>2026-04-05T13:58:51.976Z</time></trkpt><trkpt lat="44.9425783814834" lon="12.051890118856758"><ele>-6.5</ele><time>2026-04-05T13:58:52.976Z</time></trkpt><trkpt lat="44.942332054862604" lon="12.051814300649824"><ele>-7.0</ele><time>2026-04-05T13:58:53.976Z</time></trkpt><trkpt lat="44.9420976753523" lon="12.051740366731586"><ele>-7.0</ele><time>2026-04-05T13:58:54.976Z</time></trkpt><trkpt lat="44.94188549424161" lon="12.051658212980202"><ele>-7.0</ele><time>2026-04-05T13:58:55.976Z</time></trkpt><trkpt lat="44.94167487423417" lon="12.051591962840932"><ele>-7.0</ele><time>2026-04-05T13:58:56.976Z</time></trkpt><trkpt lat="44.94148660667807" lon="12.051526512412423"><ele>-6.333333333333334</ele><time>2026-04-05T13:58:57.976Z</time></trkpt><trkpt lat="44.94131690667573" lon="12.051457931075973"><ele>-5.666666666666667</ele><time>2026-04-05T13:58:58.976Z</time></trkpt><trkpt lat="44.9411709831552" lon="12.051373274414379"><ele>-5.0</ele><time>2026-04-05T13:58:59.976Z</time></trkpt><trkpt lat="44.94103174484982" lon="12.051270056622178"><ele>-5.0</ele><time>2026-04-05T13:59:00.976Z</time></trkpt><trkpt lat="44.94090815627226" lon="12.051116200595617"><ele>-5.0</ele><time>2026-04-05T13:59:01.976Z</time></trkpt><trkpt lat="44.94080108104084" lon="12.050909566785961"><ele>-5.0</ele><time>2026-04-05T13:59:02.976Z</time></trkpt><trkpt lat="44.94071046457112" lon="12.050662072269118"><ele>-6.0</ele><time>2026-04-05T13:59:03.976Z</time></trkpt><trkpt lat="44.94060949780537" lon="12.050377413707784"><ele>-7.0</ele><time>2026-04-05T13:59:04.976Z</time></trkpt><trkpt lat="44.940504536486856" lon="12.050079839709506"><ele>-7.0</ele><time>2026-04-05T13:59:05.976Z</time></trkpt><trkpt lat="44.94039838139206" lon="12.049777339366807"><ele>-7.0</ele><time>2026-04-05T13:59:06.976Z</time></trkpt><trkpt lat="44.94028673750959" lon="12.049465139362102"><ele>-7.0</ele><time>2026-04-05T13:59:07.976Z</time></trkpt><trkpt lat="44.94017067473623" lon="12.049147265518737"><ele>-7.0</ele><time>2026-04-05T13:59:08.978Z</time></trkpt><trkpt lat="44.94005514126933" lon="12.048828088842734"><ele>-6.5</ele><time>2026-04-05T13:59:09.977Z</time></trkpt><trkpt lat="44.93994592605756" lon="12.048503419303787"><ele>-6.0</ele><time>2026-04-05T13:59:10.977Z</time></trkpt><trkpt lat="44.939839769478255" lon="12.048180051876546"><ele>-6.0</ele><time>2026-04-05T13:59:11.977Z</time></trkpt><trkpt lat="44.939735664340695" lon="12.047858533329945"><ele>-6.0</ele><time>2026-04-05T13:59:12.977Z</time></trkpt><trkpt lat="44.93963346516407" lon="12.047565519743987"><ele>-6.333333333333334</ele><time>2026-04-05T13:59:13.977Z</time></trkpt><trkpt lat="44.93954265786716" lon="12.04728903674676"><ele>-6.666666666666667</ele><time>2026-04-05T13:59:14.977Z</time></trkpt><trkpt lat="44.93945222102531" lon="12.047034285261532"><ele>-7.0</ele><time>2026-04-05T13:59:15.977Z</time></trkpt><trkpt lat="44.939371966228244" lon="12.046805583271203"><ele>-7.0</ele><time>2026-04-05T13:59:16.977Z</time></trkpt><trkpt lat="44.939308013626096" lon="12.046592172127484"><ele>-7.0</ele><time>2026-04-05T13:59:17.977Z</time></trkpt><trkpt lat="44.939245627151244" lon="12.0464120874028"><ele>-7.0</ele><time>2026-04-05T13:59:18.977Z</time></trkpt><trkpt lat="44.93917046927484" lon="12.046253326408873"><ele>-7.0</ele><time>2026-04-05T13:59:19.977Z</time></trkpt><trkpt lat="44.939074559879344" lon="12.046127792525208"><ele>-7.0</ele><time>2026-04-05T13:59:20.977Z</time></trkpt><trkpt lat="44.938951541761746" lon="12.046042625114115"><ele>-7.0</ele><time>2026-04-05T13:59:21.977Z</time></trkpt><trkpt lat="44.938801561724866" lon="12.046014271139237"><ele>-7.0</ele><time>2026-04-05T13:59:22.977Z</time></trkpt><trkpt lat="44.93861383510964" lon="12.046021645154529"><ele>-7.0</ele><time>2026-04-05T13:59:23.977Z</time></trkpt><trkpt lat="44.93839059262812" lon="12.046052964130533"><ele>-7.0</ele><time>2026-04-05T13:59:24.977Z</time></trkpt><trkpt lat="44.938157390391424" lon="12.0460895999629"><ele>-6.5</ele><time>2026-04-05T13:59:25.977Z</time></trkpt><trkpt lat="44.937920053890764" lon="12.04610632660854"><ele>-6.0</ele><time>2026-04-05T13:59:26.977Z</time></trkpt><trkpt lat="44.93767463582791" lon="12.046120117622149"><ele>-5.0</ele><time>2026-04-05T13:59:27.977Z</time></trkpt><trkpt lat="44.93742100139354" lon="12.04612552539738"><ele>-4.0</ele><time>2026-04-05T13:59:28.977Z</time></trkpt><trkpt lat="44.937165792666136" lon="12.04613030964021"><ele>-4.0</ele><time>2026-04-05T13:59:29.977Z</time></trkpt><trkpt lat="44.936907892856496" lon="12.046127467411806"><ele>-4.0</ele><time>2026-04-05T13:59:30.977Z</time></trkpt><trkpt lat="44.93664783266809" lon="12.046145042968833"><ele>-4.5</ele><time>2026-04-05T13:59:31.977Z</time></trkpt><trkpt lat="44.93639236340946" lon="12.046146918575056"><ele>-5.0</ele><time>2026-04-05T13:59:32.977Z</time></trkpt><trkpt lat="44.936149095408155" lon="12.046148452617526"><ele>-5.0</ele><time>2026-04-05T13:59:33.976Z</time></trkpt><trkpt lat="44.93592975936046" lon="12.046147987965593"><ele>-5.0</ele><time>2026-04-05T13:59:34.976Z</time></trkpt><trkpt lat="44.935723887282364" lon="12.046141784598241"><ele>-5.0</ele><time>2026-04-05T13:59:35.976Z</time></trkpt><trkpt lat="44.93551652413253" lon="12.04614670010815"><ele>-5.0</ele><time>2026-04-05T13:59:36.976Z</time></trkpt><trkpt lat="44.93532108674104" lon="12.04615457420635"><ele>-5.0</ele><time>2026-04-05T13:59:37.976Z</time></trkpt><trkpt lat="44.935135044992315" lon="12.04619842252202"><ele>-5.0</ele><time>2026-04-05T13:59:38.976Z</time></trkpt><trkpt lat="44.934947343072075" lon="12.046281375870207"><ele>-5.333333333333334</ele><time>2026-04-05T13:59:39.976Z</time></trkpt><trkpt lat="44.93476105884717" lon="12.046420447566334"><ele>-5.666666666666667</ele><time>2026-04-05T13:59:40.976Z</time></trkpt><trkpt lat="44.93457734902916" lon="12.046632377704281"><ele>-6.0</ele><time>2026-04-05T13:59:41.976Z</time></trkpt><trkpt lat="44.934418568997444" lon="12.046866703337368"><ele>-6.0</ele><time>2026-04-05T13:59:42.976Z</time></trkpt><trkpt lat="44.934239182122234" lon="12.047092700008195"><ele>-6.0</ele><time>2026-04-05T13:59:43.976Z</time></trkpt><trkpt lat="44.93404547125272" lon="12.047303936928719"><ele>-6.0</ele><time>2026-04-05T13:59:44.976Z</time></trkpt><trkpt lat="44.93386712302064" lon="12.047500187061393"><ele>-6.0</ele><time>2026-04-05T13:59:45.976Z</time></trkpt><trkpt lat="44.933687767907344" lon="12.04770018420958"><ele>-6.0</ele><time>2026-04-05T13:59:46.976Z</time></trkpt><trkpt lat="44.93351704478545" lon="12.047882437088882"><ele>-6.0</ele><time>2026-04-05T13:59:47.976Z</time></trkpt><trkpt lat="44.93335683821918" lon="12.048066683420343"><ele>-6.0</ele><time>2026-04-05T13:59:48.976Z</time></trkpt><trkpt lat="44.93319619488265" lon="12.048247713132941"><ele>-6.0</ele><time>2026-04-05T13:59:49.976Z</time></trkpt><trkpt lat="44.933047756842534" lon="12.048392975687504"><ele>-6.0</ele><time>2026-04-05T13:59:50.976Z</time></trkpt><trkpt lat="44.93287491248803" lon="12.048527468183686"><ele>-6.0</ele><time>2026-04-05T13:59:51.976Z</time></trkpt><trkpt lat="44.9326944815062" lon="12.048631618855268"><ele>-5.666666666666667</ele><time>2026-04-05T13:59:52.976Z</time></trkpt><trkpt lat="44.932511491458506" lon="12.048687856587222"><ele>-5.333333333333334</ele><time>2026-04-05T13:59:53.976Z</time></trkpt><trkpt lat="44.93230322023492" lon="12.048716230354236"><ele>-5.0</ele><time>2026-04-05T13:59:54.976Z</time></trkpt><trkpt lat="44.93208812312252" lon="12.048709647043603"><ele>-5.0</ele><time>2026-04-05T13:59:55.976Z</time></trkpt><trkpt lat="44.93186038438636" lon="12.048663049630605"><ele>-5.0</ele><time>2026-04-05T13:59:56.976Z</time></trkpt><trkpt lat="44.931626624822016" lon="12.04858277431277"><ele>-5.5</ele><time>2026-04-05T13:59:57.976Z</time></trkpt><trkpt lat="44.931392986025145" lon="12.048445878898324"><ele>-6.0</ele><time>2026-04-05T13:59:58.976Z</time></trkpt><trkpt lat="44.93115531874941" lon="12.048281482635256"><ele>-6.0</ele><time>2026-04-05T13:59:59.976Z</time></trkpt><trkpt lat="44.93092466812016" lon="12.04816236318415"><ele>-6.0</ele><time>2026-04-05T14:00:00.976Z</time></trkpt><trkpt lat="44.930714946628086" lon="12.04803077143685"><ele>-6.0</ele><time>2026-04-05T14:00:01.976Z</time></trkpt><trkpt lat="44.93050289796318" lon="12.047920433538335"><ele>-6.0</ele><time>2026-04-05T14:00:02.976Z</time></trkpt><trkpt lat="44.93030636868487" lon="12.047772332664465"><ele>-6.0</ele><time>2026-04-05T14:00:03.976Z</time></trkpt><trkpt lat="44.93010340724894" lon="12.047678360728389"><ele>-6.333333333333334</ele><time>2026-04-05T14:00:04.976Z</time></trkpt><trkpt lat="44.92989722800603" lon="12.04762329061278"><ele>-6.666666666666667</ele><time>2026-04-05T14:00:05.976Z</time></trkpt><trkpt lat="44.92970512326384" lon="12.04761372408908"><ele>-7.0</ele><time>2026-04-05T14:00:06.976Z</time></trkpt><trkpt lat="44.92951256054812" lon="12.047602333299292"><ele>-7.0</ele><time>2026-04-05T14:00:07.976Z</time></trkpt><trkpt lat="44.9293210778748" lon="12.047602754802092"><ele>-7.0</ele><time>2026-04-05T14:00:08.976Z</time></trkpt><trkpt lat="44.92910647453086" lon="12.047588147749737"><ele>-7.0</ele><time>2026-04-05T14:00:09.976Z</time></trkpt><trkpt lat="44.928905800818086" lon="12.047589431308113"><ele>-6.333333333333334</ele><time>2026-04-05T14:00:10.976Z</time></trkpt><trkpt lat="44.92872155863446" lon="12.047608549352802"><ele>-5.666666666666667</ele><time>2026-04-05T14:00:11.976Z</time></trkpt><trkpt lat="44.928556814414534" lon="12.047605480050963"><ele>-5.0</ele><time>2026-04-05T14:00:12.976Z</time></trkpt><trkpt lat="44.92841169586791" lon="12.047589886969051"><ele>-4.8</ele><time>2026-04-05T14:00:13.976Z</time></trkpt><trkpt lat="44.92827521388213" lon="12.047590593718686"><ele>-4.6</ele><time>2026-04-05T14:00:14.976Z</time></trkpt><trkpt lat="44.92815795354737" lon="12.047591200933526"><ele>-4.4</ele><time>2026-04-05T14:00:15.976Z</time></trkpt><trkpt lat="44.92805606494663" lon="12.047591728548822"><ele>-4.2</ele><time>2026-04-05T14:00:16.976Z</time></trkpt><trkpt lat="44.92798324241932" lon="12.047593835222289"><ele>-4.0</ele><time>2026-04-05T14:00:17.976Z</time></trkpt><trkpt lat="44.927877471816906" lon="12.047567592787747"><ele>-4.5</ele><time>2026-04-05T14:00:19.976Z</time></trkpt><trkpt lat="44.92791217182615" lon="12.047439808977181"><ele>-5.0</ele><time>2026-04-05T14:00:21.976Z</time></trkpt><trkpt lat="44.92791252811421" lon="12.047316651013467"><ele>-5.5</ele><time>2026-04-05T14:00:22.976Z</time></trkpt><trkpt lat="44.9279129873971" lon="12.047157890933475"><ele>-6.0</ele><time>2026-04-05T14:00:23.976Z</time></trkpt><trkpt lat="44.92791119994953" lon="12.046940079284589"><ele>-6.0</ele><time>2026-04-05T14:00:24.976Z</time></trkpt><trkpt lat="44.92789263953524" lon="12.046690910927506"><ele>-6.0</ele><time>2026-04-05T14:00:25.976Z</time></trkpt><trkpt lat="44.92789698948468" lon="12.046419318778117"><ele>-6.0</ele><time>2026-04-05T14:00:26.976Z</time></trkpt><trkpt lat="44.92789251008108" lon="12.046121474064396"><ele>-6.0</ele><time>2026-04-05T14:00:27.976Z</time></trkpt><trkpt lat="44.927885772689436" lon="12.045789719359458"><ele>-6.0</ele><time>2026-04-05T14:00:28.976Z</time></trkpt><trkpt lat="44.92789564944574" lon="12.045436626259523"><ele>-6.0</ele><time>2026-04-05T14:00:29.975Z</time></trkpt><trkpt lat="44.92787710328689" lon="12.045075079761975"><ele>-6.0</ele><time>2026-04-05T14:00:30.975Z</time></trkpt><trkpt lat="44.92787152245021" lon="12.044706222829806"><ele>-6.0</ele><time>2026-04-05T14:00:31.975Z</time></trkpt><trkpt lat="44.92786788467851" lon="12.044312993347132"><ele>-6.0</ele><time>2026-04-05T14:00:32.975Z</time></trkpt><trkpt lat="44.92786139843964" lon="12.043927945122592"><ele>-6.5</ele><time>2026-04-05T14:00:33.975Z</time></trkpt><trkpt lat="44.927872498874244" lon="12.04354457734109"><ele>-7.0</ele><time>2026-04-05T14:00:34.975Z</time></trkpt><trkpt lat="44.927867703571735" lon="12.043157638997187"><ele>-7.0</ele><time>2026-04-05T14:00:35.975Z</time></trkpt><trkpt lat="44.92786282671994" lon="12.042764119871494"><ele>-7.0</ele><time>2026-04-05T14:00:36.975Z</time></trkpt><trkpt lat="44.92785841433183" lon="12.042360404870552"><ele>-7.0</ele><time>2026-04-05T14:00:37.975Z</time></trkpt><trkpt lat="44.92785399435754" lon="12.041955093212707"><ele>-7.0</ele><time>2026-04-05T14:00:38.975Z</time></trkpt><trkpt lat="44.927849661968914" lon="12.041557813145664"><ele>-6.5</ele><time>2026-04-05T14:00:39.975Z</time></trkpt><trkpt lat="44.92784561188204" lon="12.041186419921544"><ele>-6.0</ele><time>2026-04-05T14:00:40.975Z</time></trkpt><trkpt lat="44.92784155065757" lon="12.040858740501426"><ele>-6.0</ele><time>2026-04-05T14:00:41.975Z</time></trkpt><trkpt lat="44.92783730088629" lon="12.040555689707203"><ele>-6.0</ele><time>2026-04-05T14:00:42.975Z</time></trkpt><trkpt lat="44.92783337590266" lon="12.040275799460236"><ele>-6.0</ele><time>2026-04-05T14:00:43.975Z</time></trkpt><trkpt lat="44.92782006045779" lon="12.040019896759611"><ele>-6.333333333333334</ele><time>2026-04-05T14:00:44.975Z</time></trkpt><trkpt lat="44.927818707017465" lon="12.039777534028948"><ele>-6.666666666666667</ele><time>2026-04-05T14:00:45.975Z</time></trkpt><trkpt lat="44.92782099362325" lon="12.039557075382952"><ele>-7.0</ele><time>2026-04-05T14:00:46.975Z</time></trkpt><trkpt lat="44.9278389768673" lon="12.039327672312526"><ele>-7.0</ele><time>2026-04-05T14:00:47.975Z</time></trkpt><trkpt lat="44.92788345057661" lon="12.039092802014567"><ele>-7.0</ele><time>2026-04-05T14:00:48.975Z</time></trkpt><trkpt lat="44.92794997713777" lon="12.038861400671339"><ele>-7.0</ele><time>2026-04-05T14:00:49.975Z</time></trkpt><trkpt lat="44.928050981985336" lon="12.038642909836234"><ele>-7.0</ele><time>2026-04-05T14:00:50.975Z</time></trkpt><trkpt lat="44.92818469977317" lon="12.038445329461393"><ele>-7.0</ele><time>2026-04-05T14:00:51.975Z</time></trkpt><trkpt lat="44.928337819009364" lon="12.038282763779936"><ele>-7.0</ele><time>2026-04-05T14:00:52.975Z</time></trkpt><trkpt lat="44.928511041921944" lon="12.038156916446082"><ele>-6.666666666666667</ele><time>2026-04-05T14:00:53.975Z</time></trkpt><trkpt lat="44.928712827053936" lon="12.038106643368172"><ele>-6.333333333333334</ele><time>2026-04-05T14:00:54.975Z</time></trkpt><trkpt lat="44.92893797116804" lon="12.038063442777542"><ele>-6.0</ele><time>2026-04-05T14:00:55.975Z</time></trkpt><trkpt lat="44.929180587965114" lon="12.038026283014776"><ele>-6.0</ele><time>2026-04-05T14:00:56.975Z</time></trkpt><trkpt lat="44.929424986421154" lon="12.037991293833802"><ele>-6.0</ele><time>2026-04-05T14:00:57.975Z</time></trkpt><trkpt lat="44.929674459159045" lon="12.037955578214648"><ele>-6.0</ele><time>2026-04-05T14:00:58.975Z</time></trkpt><trkpt lat="44.92992252997681" lon="12.03792006329285"><ele>-6.0</ele><time>2026-04-05T14:00:59.975Z</time></trkpt><trkpt lat="44.930165245036974" lon="12.037885315116327"><ele>-6.5</ele><time>2026-04-05T14:01:00.975Z</time></trkpt><trkpt lat="44.93040604122171" lon="12.037851993442217"><ele>-7.0</ele><time>2026-04-05T14:01:01.975Z</time></trkpt><trkpt lat="44.93063908961083" lon="12.037819935199847"><ele>-7.0</ele><time>2026-04-05T14:01:02.975Z</time></trkpt><trkpt lat="44.93086339012553" lon="12.037789080390283"><ele>-7.0</ele><time>2026-04-05T14:01:03.975Z</time></trkpt><trkpt lat="44.93108027220047" lon="12.037759245966651"><ele>-7.0</ele><time>2026-04-05T14:01:04.975Z</time></trkpt><trkpt lat="44.93128955075052" lon="12.037730913165158"><ele>-7.0</ele><time>2026-04-05T14:01:05.975Z</time></trkpt><trkpt lat="44.93148776795931" lon="12.037704855793413"><ele>-7.0</ele><time>2026-04-05T14:01:06.975Z</time></trkpt><trkpt lat="44.93167463084176" lon="12.037677582907294"><ele>-7.0</ele><time>2026-04-05T14:01:07.975Z</time></trkpt><trkpt lat="44.93184851318399" lon="12.037650192401072"><ele>-7.0</ele><time>2026-04-05T14:01:08.975Z</time></trkpt><trkpt lat="44.93201851299549" lon="12.037607611426049"><ele>-7.0</ele><time>2026-04-05T14:01:09.975Z</time></trkpt><trkpt lat="44.9321769048047" lon="12.037537160474466"><ele>-7.0</ele><time>2026-04-05T14:01:10.975Z</time></trkpt><trkpt lat="44.93231957190754" lon="12.037421990419011"><ele>-6.666666666666667</ele><time>2026-04-05T14:01:11.975Z</time></trkpt><trkpt lat="44.93246081351859" lon="12.03730770373157"><ele>-6.333333333333334</ele><time>2026-04-05T14:01:12.975Z</time></trkpt><trkpt lat="44.93259740833713" lon="12.037157308763337"><ele>-6.0</ele><time>2026-04-05T14:01:13.975Z</time></trkpt><trkpt lat="44.9327243428285" lon="12.036970105274944"><ele>-6.0</ele><time>2026-04-05T14:01:14.976Z</time></trkpt><trkpt lat="44.93283945162811" lon="12.036730348983676"><ele>-6.0</ele><time>2026-04-05T14:01:15.977Z</time></trkpt><trkpt lat="44.93295403792814" lon="12.036458433602737"><ele>-6.0</ele><time>2026-04-05T14:01:16.977Z</time></trkpt><trkpt lat="44.93308318929699" lon="12.036168692763116"><ele>-6.0</ele><time>2026-04-05T14:01:17.976Z</time></trkpt><trkpt lat="44.93321811990806" lon="12.035886740070898"><ele>-6.0</ele><time>2026-04-05T14:01:18.976Z</time></trkpt><trkpt lat="44.93335522258569" lon="12.035615488083744"><ele>-5.5</ele><time>2026-04-05T14:01:19.976Z</time></trkpt><trkpt lat="44.93349719594199" lon="12.035344356152796"><ele>-5.0</ele><time>2026-04-05T14:01:20.976Z</time></trkpt><trkpt lat="44.93362710291908" lon="12.035100815028626"><ele>-4.333333333333334</ele><time>2026-04-05T14:01:21.976Z</time></trkpt><trkpt lat="44.93374609900801" lon="12.034854655865805"><ele>-3.666666666666667</ele><time>2026-04-05T14:01:22.976Z</time></trkpt><trkpt lat="44.93385668717887" lon="12.03462189076324"><ele>-3.0</ele><time>2026-04-05T14:01:23.976Z</time></trkpt><trkpt lat="44.93396553025916" lon="12.034394603819194"><ele>-3.0</ele><time>2026-04-05T14:01:24.976Z</time></trkpt><trkpt lat="44.93406333823539" lon="12.03415858491022"><ele>-3.0</ele><time>2026-04-05T14:01:25.976Z</time></trkpt><trkpt lat="44.93412076790172" lon="12.033911590647646"><ele>-3.0</ele><time>2026-04-05T14:01:26.976Z</time></trkpt><trkpt lat="44.93415029808246" lon="12.033641043464822"><ele>-3.333333333333333</ele><time>2026-04-05T14:01:27.976Z</time></trkpt><trkpt lat="44.93414925238239" lon="12.033345094418218"><ele>-3.6666666666666665</ele><time>2026-04-05T14:01:28.976Z</time></trkpt><trkpt lat="44.93413123892044" lon="12.033023751211541"><ele>-4.0</ele><time>2026-04-05T14:01:29.976Z</time></trkpt><trkpt lat="44.93411652359386" lon="12.032730359932142"><ele>-4.333333333333333</ele><time>2026-04-05T14:01:30.976Z</time></trkpt><trkpt lat="44.9341141383371" lon="12.032438819915184"><ele>-4.666666666666667</ele><time>2026-04-05T14:01:31.976Z</time></trkpt><trkpt lat="44.93411752256153" lon="12.032147906152922"><ele>-5.0</ele><time>2026-04-05T14:01:32.976Z</time></trkpt><trkpt lat="44.934115125719224" lon="12.031873439518515"><ele>-5.333333333333334</ele><time>2026-04-05T14:01:33.976Z</time></trkpt><trkpt lat="44.93411344462718" lon="12.03160115336809"><ele>-5.666666666666667</ele><time>2026-04-05T14:01:34.976Z</time></trkpt><trkpt lat="44.93411546415114" lon="12.031340145153155"><ele>-6.0</ele><time>2026-04-05T14:01:35.976Z</time></trkpt><trkpt lat="44.93413538779904" lon="12.031103799094616"><ele>-6.0</ele><time>2026-04-05T14:01:36.976Z</time></trkpt><trkpt lat="44.934179721564234" lon="12.030859689057175"><ele>-6.0</ele><time>2026-04-05T14:01:37.976Z</time></trkpt><trkpt lat="44.934251404382245" lon="12.030622577664717"><ele>-6.0</ele><time>2026-04-05T14:01:38.976Z</time></trkpt><trkpt lat="44.93435790796563" lon="12.030414884996722"><ele>-6.333333333333334</ele><time>2026-04-05T14:01:39.976Z</time></trkpt><trkpt lat="44.93448217410679" lon="12.030202481893506"><ele>-6.666666666666667</ele><time>2026-04-05T14:01:40.976Z</time></trkpt><trkpt lat="44.934617043778346" lon="12.03000456028972"><ele>-7.0</ele><time>2026-04-05T14:01:41.976Z</time></trkpt><trkpt lat="44.934759614466756" lon="12.029800434501343"><ele>-7.0</ele><time>2026-04-05T14:01:42.976Z</time></trkpt><trkpt lat="44.93490049311698" lon="12.029592664832677"><ele>-7.0</ele><time>2026-04-05T14:01:43.976Z</time></trkpt><trkpt lat="44.93503955197131" lon="12.02938856710081"><ele>-7.0</ele><time>2026-04-05T14:01:44.976Z</time></trkpt><trkpt lat="44.93515790602856" lon="12.029195250083623"><ele>-7.0</ele><time>2026-04-05T14:01:45.976Z</time></trkpt><trkpt lat="44.93526357983424" lon="12.02901837743318"><ele>-7.0</ele><time>2026-04-05T14:01:46.976Z</time></trkpt><trkpt lat="44.93535771221952" lon="12.028824550007768"><ele>-7.0</ele><time>2026-04-05T14:01:47.976Z</time></trkpt><trkpt lat="44.93544069472541" lon="12.028585736483025"><ele>-7.0</ele><time>2026-04-05T14:01:48.976Z</time></trkpt><trkpt lat="44.9354848067709" lon="12.028330777928623"><ele>-7.0</ele><time>2026-04-05T14:01:49.976Z</time></trkpt><trkpt lat="44.9355139215849" lon="12.028047746955998"><ele>-7.0</ele><time>2026-04-05T14:01:50.976Z</time></trkpt><trkpt lat="44.93551840706753" lon="12.027749212656447"><ele>-5.333333333333334</ele><time>2026-04-05T14:01:51.976Z</time></trkpt><trkpt lat="44.93550937184716" lon="12.027437985624568"><ele>-3.666666666666667</ele><time>2026-04-05T14:01:52.976Z</time></trkpt><trkpt lat="44.93548703785901" lon="12.027129388056572"><ele>-2.0</ele><time>2026-04-05T14:01:53.976Z</time></trkpt><trkpt lat="44.93547615731098" lon="12.026835933110043"><ele>-2.6666666666666665</ele><time>2026-04-05T14:01:54.976Z</time></trkpt><trkpt lat="44.93546824042688" lon="12.026566197481324"><ele>-3.333333333333333</ele><time>2026-04-05T14:01:55.976Z</time></trkpt><trkpt lat="44.935461014079685" lon="12.026340371612527"><ele>-4.0</ele><time>2026-04-05T14:01:56.976Z</time></trkpt><trkpt lat="44.93545937228696" lon="12.026110685016205"><ele>-4.0</ele><time>2026-04-05T14:01:57.976Z</time></trkpt><trkpt lat="44.93547994190324" lon="12.02589211347165"><ele>-4.0</ele><time>2026-04-05T14:01:58.976Z</time></trkpt><trkpt lat="44.93554141950379" lon="12.025681383143782"><ele>-4.0</ele><time>2026-04-05T14:01:59.976Z</time></trkpt><trkpt lat="44.93564435432009" lon="12.025487403863343"><ele>-4.333333333333333</ele><time>2026-04-05T14:02:00.976Z</time></trkpt><trkpt lat="44.93578774771014" lon="12.025309588763447"><ele>-4.666666666666667</ele><time>2026-04-05T14:02:01.976Z</time></trkpt><trkpt lat="44.93595242634845" lon="12.025143203618278"><ele>-5.0</ele><time>2026-04-05T14:02:02.976Z</time></trkpt><trkpt lat="44.93611755906211" lon="12.024961021134798"><ele>-5.333333333333334</ele><time>2026-04-05T14:02:03.976Z</time></trkpt><trkpt lat="44.93626461600474" lon="12.024779600554588"><ele>-5.666666666666667</ele><time>2026-04-05T14:02:04.975Z</time></trkpt><trkpt lat="44.936419639600246" lon="12.024628781125227"><ele>-6.0</ele><time>2026-04-05T14:02:05.975Z</time></trkpt><trkpt lat="44.93659608512313" lon="12.024522453260824"><ele>-5.5</ele><time>2026-04-05T14:02:06.975Z</time></trkpt><trkpt lat="44.93680754219329" lon="12.024448916579466"><ele>-5.0</ele><time>2026-04-05T14:02:07.975Z</time></trkpt><trkpt lat="44.93704645736565" lon="12.024397751298064"><ele>-5.0</ele><time>2026-04-05T14:02:08.975Z</time></trkpt><trkpt lat="44.93728104890861" lon="12.024378060780252"><ele>-5.0</ele><time>2026-04-05T14:02:09.975Z</time></trkpt><trkpt lat="44.93752496239561" lon="12.024350529648125"><ele>-5.5</ele><time>2026-04-05T14:02:10.975Z</time></trkpt><trkpt lat="44.93777065582833" lon="12.024316766917003"><ele>-6.0</ele><time>2026-04-05T14:02:11.975Z</time></trkpt><trkpt lat="44.93801424142268" lon="12.024274841626301"><ele>-6.0</ele><time>2026-04-05T14:02:12.975Z</time></trkpt><trkpt lat="44.93826229879562" lon="12.024228875793497"><ele>-6.0</ele><time>2026-04-05T14:02:13.975Z</time></trkpt><trkpt lat="44.93851302553997" lon="12.024179684887264"><ele>-5.5</ele><time>2026-04-05T14:02:14.975Z</time></trkpt><trkpt lat="44.93876732326739" lon="12.024133591709782"><ele>-5.0</ele><time>2026-04-05T14:02:15.975Z</time></trkpt><trkpt lat="44.93902224510059" lon="12.02408509180349"><ele>-5.0</ele><time>2026-04-05T14:02:16.975Z</time></trkpt><trkpt lat="44.93927639125826" lon="12.024038695291372"><ele>-5.0</ele><time>2026-04-05T14:02:17.975Z</time></trkpt><trkpt lat="44.93953508430721" lon="12.023994048259054"><ele>-5.0</ele><time>2026-04-05T14:02:18.975Z</time></trkpt><trkpt lat="44.93978135136023" lon="12.023943422192884"><ele>-5.0</ele><time>2026-04-05T14:02:19.975Z</time></trkpt><trkpt lat="44.940024279093805" lon="12.023899861224667"><ele>-5.0</ele><time>2026-04-05T14:02:20.975Z</time></trkpt><trkpt lat="44.94025484924687" lon="12.023861877571361"><ele>-5.0</ele><time>2026-04-05T14:02:21.975Z</time></trkpt><trkpt lat="44.94046054156276" lon="12.023827502411708"><ele>-5.0</ele><time>2026-04-05T14:02:22.975Z</time></trkpt><trkpt lat="44.940651373869876" lon="12.02379393491701"><ele>-5.0</ele><time>2026-04-05T14:02:23.975Z</time></trkpt><trkpt lat="44.94082142660569" lon="12.02376708724424"><ele>-5.0</ele><time>2026-04-05T14:02:24.975Z</time></trkpt><trkpt lat="44.94097880420225" lon="12.023741359747335"><ele>-5.0</ele><time>2026-04-05T14:02:25.975Z</time></trkpt><trkpt lat="44.941128229843514" lon="12.023699257669028"><ele>-5.25</ele><time>2026-04-05T14:02:26.975Z</time></trkpt><trkpt lat="44.94124466765499" lon="12.023614264628726"><ele>-5.5</ele><time>2026-04-05T14:02:27.975Z</time></trkpt><trkpt lat="44.941339603346584" lon="12.023489601436538"><ele>-5.75</ele><time>2026-04-05T14:02:28.975Z</time></trkpt><trkpt lat="44.94141915416139" lon="12.023311113771047"><ele>-6.0</ele><time>2026-04-05T14:02:29.975Z</time></trkpt><trkpt lat="44.941486928446736" lon="12.023068774158457"><ele>-6.0</ele><time>2026-04-05T14:02:30.975Z</time></trkpt><trkpt lat="44.941539158442694" lon="12.022783358409532"><ele>-6.0</ele><time>2026-04-05T14:02:31.975Z</time></trkpt><trkpt lat="44.94158843628472" lon="12.02248564343271"><ele>-6.0</ele><time>2026-04-05T14:02:32.975Z</time></trkpt><trkpt lat="44.94163476489217" lon="12.02218106121625"><ele>-6.5</ele><time>2026-04-05T14:02:33.975Z</time></trkpt><trkpt lat="44.941692945589274" lon="12.021863821755106"><ele>-7.0</ele><time>2026-04-05T14:02:34.975Z</time></trkpt><trkpt lat="44.94175558261788" lon="12.021551253747008"><ele>-7.0</ele><time>2026-04-05T14:02:35.975Z</time></trkpt><trkpt lat="44.94181096083388" lon="12.021253909190147"><ele>-7.0</ele><time>2026-04-05T14:02:36.975Z</time></trkpt><trkpt lat="44.941861260038365" lon="12.02097133460006"><ele>-7.0</ele><time>2026-04-05T14:02:37.975Z</time></trkpt><trkpt lat="44.94191270308678" lon="12.020696353076797"><ele>-7.0</ele><time>2026-04-05T14:02:38.975Z</time></trkpt><trkpt lat="44.941963561427784" lon="12.020432140870538"><ele>-7.0</ele><time>2026-04-05T14:02:39.975Z</time></trkpt><trkpt lat="44.94201215433729" lon="12.02018013235071"><ele>-7.0</ele><time>2026-04-05T14:02:40.975Z</time></trkpt><trkpt lat="44.942057902344374" lon="12.019951821388217"><ele>-6.75</ele><time>2026-04-05T14:02:41.975Z</time></trkpt><trkpt lat="44.9421193551382" lon="12.019758764167856"><ele>-6.5</ele><time>2026-04-05T14:02:42.975Z</time></trkpt><trkpt lat="44.94221484782175" lon="12.019627166234903"><ele>-6.25</ele><time>2026-04-05T14:02:43.975Z</time></trkpt><trkpt lat="44.9423369884972" lon="12.019508021649692"><ele>-6.0</ele><time>2026-04-05T14:02:44.975Z</time></trkpt><trkpt lat="44.942487885809115" lon="12.0193995764163"><ele>-5.666666666666667</ele><time>2026-04-05T14:02:45.975Z</time></trkpt><trkpt lat="44.94265958972686" lon="12.019301098485345"><ele>-5.333333333333334</ele><time>2026-04-05T14:02:46.975Z</time></trkpt><trkpt lat="44.942834523214756" lon="12.019195753859282"><ele>-5.0</ele><time>2026-04-05T14:02:47.975Z</time></trkpt><trkpt lat="44.94301188326918" lon="12.019090184138538"><ele>-4.666666666666667</ele><time>2026-04-05T14:02:48.975Z</time></trkpt><trkpt lat="44.94318486744386" lon="12.018980456516442"><ele>-4.333333333333333</ele><time>2026-04-05T14:02:49.975Z</time></trkpt><trkpt lat="44.94335031339606" lon="12.018865493142464"><ele>-4.0</ele><time>2026-04-05T14:02:50.975Z</time></trkpt><trkpt lat="44.94351019711195" lon="12.018742858736532"><ele>-4.0</ele><time>2026-04-05T14:02:51.975Z</time></trkpt><trkpt lat="44.94365692360298" lon="12.018605998523405"><ele>-4.0</ele><time>2026-04-05T14:02:52.975Z</time></trkpt><trkpt lat="44.943795271875864" lon="12.01844903208335"><ele>-4.0</ele><time>2026-04-05T14:02:53.975Z</time></trkpt><trkpt lat="44.94391996760773" lon="12.018241904174651"><ele>-4.333333333333333</ele><time>2026-04-05T14:02:54.975Z</time></trkpt><trkpt lat="44.944029088786245" lon="12.018023653283983"><ele>-4.666666666666667</ele><time>2026-04-05T14:02:55.975Z</time></trkpt><trkpt lat="44.94414538879182" lon="12.017803738472965"><ele>-5.0</ele><time>2026-04-05T14:02:56.975Z</time></trkpt><trkpt lat="44.94426717586898" lon="12.017592030312034"><ele>-4.666666666666667</ele><time>2026-04-05T14:02:57.975Z</time></trkpt><trkpt lat="44.94438455893036" lon="12.017368403623497"><ele>-4.333333333333333</ele><time>2026-04-05T14:02:58.975Z</time></trkpt><trkpt lat="44.944490344986484" lon="12.017149199831"><ele>-4.0</ele><time>2026-04-05T14:02:59.974Z</time></trkpt><trkpt lat="44.94461110362517" lon="12.016934709608378"><ele>-4.0</ele><time>2026-04-05T14:03:00.974Z</time></trkpt><trkpt lat="44.944728362888" lon="12.016721108042736"><ele>-4.0</ele><time>2026-04-05T14:03:01.974Z</time></trkpt><trkpt lat="44.94484475202411" lon="12.016517137489496"><ele>-4.0</ele><time>2026-04-05T14:03:02.974Z</time></trkpt><trkpt lat="44.944942181574326" lon="12.016319870304125"><ele>-4.0</ele><time>2026-04-05T14:03:03.974Z</time></trkpt><trkpt lat="44.94503352495972" lon="12.016146351497364"><ele>-4.0</ele><time>2026-04-05T14:03:04.974Z</time></trkpt><trkpt lat="44.94514502714603" lon="12.01599197641341"><ele>-4.0</ele><time>2026-04-05T14:03:05.974Z</time></trkpt><trkpt lat="44.94526998503001" lon="12.015861129483193"><ele>-4.0</ele><time>2026-04-05T14:03:06.974Z</time></trkpt><trkpt lat="44.94540935562876" lon="12.01578224650407"><ele>-4.0</ele><time>2026-04-05T14:03:07.974Z</time></trkpt><trkpt lat="44.945563520479574" lon="12.015751953082026"><ele>-4.0</ele><time>2026-04-05T14:03:08.974Z</time></trkpt><trkpt lat="44.94575814765608" lon="12.015743204830283"><ele>-4.0</ele><time>2026-04-05T14:03:09.974Z</time></trkpt><trkpt lat="44.94599052796613" lon="12.015752556953103"><ele>-4.0</ele><time>2026-04-05T14:03:10.974Z</time></trkpt><trkpt lat="44.94623448791403" lon="12.015744868380336"><ele>-4.0</ele><time>2026-04-05T14:03:11.974Z</time></trkpt><trkpt lat="44.9464918169127" lon="12.01573689641293"><ele>-4.0</ele><time>2026-04-05T14:03:12.974Z</time></trkpt><trkpt lat="44.94676550780228" lon="12.015726480186334"><ele>-4.5</ele><time>2026-04-05T14:03:13.974Z</time></trkpt><trkpt lat="44.9470443424823" lon="12.015717451827514"><ele>-5.0</ele><time>2026-04-05T14:03:14.974Z</time></trkpt><trkpt lat="44.947314467941105" lon="12.015712216485698"><ele>-5.5</ele><time>2026-04-05T14:03:15.974Z</time></trkpt><trkpt lat="44.94756768017439" lon="12.015702784196764"><ele>-6.0</ele><time>2026-04-05T14:03:16.974Z</time></trkpt><trkpt lat="44.94780259644447" lon="12.015708616718538"><ele>-6.0</ele><time>2026-04-05T14:03:17.974Z</time></trkpt><trkpt lat="44.948028095636495" lon="12.0157061442314"><ele>-6.0</ele><time>2026-04-05T14:03:18.974Z</time></trkpt><trkpt lat="44.94826384567873" lon="12.015694261117934"><ele>-5.5</ele><time>2026-04-05T14:03:19.974Z</time></trkpt><trkpt lat="44.9485103153443" lon="12.015693981229589"><ele>-5.0</ele><time>2026-04-05T14:03:20.976Z</time></trkpt><trkpt lat="44.94875829588498" lon="12.015680572821653"><ele>-5.0</ele><time>2026-04-05T14:03:21.976Z</time></trkpt><trkpt lat="44.949006650122506" lon="12.01567186967011"><ele>-5.0</ele><time>2026-04-05T14:03:22.976Z</time></trkpt><trkpt lat="44.949239448158835" lon="12.01567433466039"><ele>-4.666666666666667</ele><time>2026-04-05T14:03:23.976Z</time></trkpt><trkpt lat="44.94945053744453" lon="12.015675288655043"><ele>-4.333333333333333</ele><time>2026-04-05T14:03:24.975Z</time></trkpt><trkpt lat="44.94966164729899" lon="12.015668595539536"><ele>-4.0</ele><time>2026-04-05T14:03:25.975Z</time></trkpt><trkpt lat="44.94989085033255" lon="12.015656258429782"><ele>-4.5</ele><time>2026-04-05T14:03:26.976Z</time></trkpt><trkpt lat="44.95012908007862" lon="12.015644646507608"><ele>-5.0</ele><time>2026-04-05T14:03:27.975Z</time></trkpt><trkpt lat="44.950382909637135" lon="12.015636267562254"><ele>-5.0</ele><time>2026-04-05T14:03:28.975Z</time></trkpt><trkpt lat="44.95064267933783" lon="12.015628780409582"><ele>-5.0</ele><time>2026-04-05T14:03:29.976Z</time></trkpt><trkpt lat="44.95091044659549" lon="12.015615416219468"><ele>-5.5</ele><time>2026-04-05T14:03:30.975Z</time></trkpt><trkpt lat="44.95118405671638" lon="12.015608451702208"><ele>-6.0</ele><time>2026-04-05T14:03:31.975Z</time></trkpt><trkpt lat="44.95146108649372" lon="12.015596147558092"><ele>-5.5</ele><time>2026-04-05T14:03:32.976Z</time></trkpt><trkpt lat="44.95173780453026" lon="12.015585303127876"><ele>-5.0</ele><time>2026-04-05T14:03:33.975Z</time></trkpt><trkpt lat="44.95200832634427" lon="12.015572796703701"><ele>-5.0</ele><time>2026-04-05T14:03:34.975Z</time></trkpt><trkpt lat="44.95250544853183" lon="12.01555179691829"><ele>-4.5</ele><time>2026-04-05T14:03:36.975Z</time></trkpt><trkpt lat="44.95274340733719" lon="12.015568901099613"><ele>-4.0</ele><time>2026-04-05T14:03:37.975Z</time></trkpt><trkpt lat="44.95298648547873" lon="12.015560866076317"><ele>-4.0</ele><time>2026-04-05T14:03:38.975Z</time></trkpt><trkpt lat="44.95323151658826" lon="12.015552353522919"><ele>-4.0</ele><time>2026-04-05T14:03:39.975Z</time></trkpt><trkpt lat="44.95347892370952" lon="12.015543229388205"><ele>-4.0</ele><time>2026-04-05T14:03:40.975Z</time></trkpt><trkpt lat="44.95373413658316" lon="12.015533817383139"><ele>-4.0</ele><time>2026-04-05T14:03:41.975Z</time></trkpt><trkpt lat="44.953991835217636" lon="12.01552431371106"><ele>-4.0</ele><time>2026-04-05T14:03:42.975Z</time></trkpt><trkpt lat="44.95425061769519" lon="12.015514770067893"><ele>-4.0</ele><time>2026-04-05T14:03:43.975Z</time></trkpt><trkpt lat="44.95451333916836" lon="12.015505118683635"><ele>-4.0</ele><time>2026-04-05T14:03:44.975Z</time></trkpt><trkpt lat="44.95477501731727" lon="12.015496884052009"><ele>-4.0</ele><time>2026-04-05T14:03:45.975Z</time></trkpt><trkpt lat="44.95504238188304" lon="12.015488470483687"><ele>-5.0</ele><time>2026-04-05T14:03:46.975Z</time></trkpt><trkpt lat="44.955300718835915" lon="12.01545810860292"><ele>-6.0</ele><time>2026-04-05T14:03:47.975Z</time></trkpt><trkpt lat="44.955557711175615" lon="12.015440297348167"><ele>-6.0</ele><time>2026-04-05T14:03:48.975Z</time></trkpt><trkpt lat="44.955820538388" lon="12.01543333874777"><ele>-6.0</ele><time>2026-04-05T14:03:49.975Z</time></trkpt><trkpt lat="44.95608241733986" lon="12.015431064279309"><ele>-5.5</ele><time>2026-04-05T14:03:50.975Z</time></trkpt><trkpt lat="44.956340365571045" lon="12.015430786430052"><ele>-5.0</ele><time>2026-04-05T14:03:51.975Z</time></trkpt><trkpt lat="44.95659617671329" lon="12.015426896259742"><ele>-4.0</ele><time>2026-04-05T14:03:52.975Z</time></trkpt><trkpt lat="44.95685401218523" lon="12.015414152136849"><ele>-3.0</ele><time>2026-04-05T14:03:53.975Z</time></trkpt><trkpt lat="44.95709084699392" lon="12.015402104564194"><ele>-3.0</ele><time>2026-04-05T14:03:54.975Z</time></trkpt><trkpt lat="44.95732864698624" lon="12.015391706726447"><ele>-3.0</ele><time>2026-04-05T14:03:55.975Z</time></trkpt><trkpt lat="44.9575540864679" lon="12.015404442175644"><ele>-3.0</ele><time>2026-04-05T14:03:56.975Z</time></trkpt><trkpt lat="44.9577830553593" lon="12.0153967389326"><ele>-3.0</ele><time>2026-04-05T14:03:57.975Z</time></trkpt><trkpt lat="44.95800940588377" lon="12.01536808866641"><ele>-3.0</ele><time>2026-04-05T14:03:58.975Z</time></trkpt><trkpt lat="44.958233448667436" lon="12.015363503266638"><ele>-3.0</ele><time>2026-04-05T14:03:59.975Z</time></trkpt><trkpt lat="44.958452146336654" lon="12.015354872608262"><ele>-3.0</ele><time>2026-04-05T14:04:00.975Z</time></trkpt><trkpt lat="44.958672651421374" lon="12.015344283435795"><ele>-3.0</ele><time>2026-04-05T14:04:01.975Z</time></trkpt><trkpt lat="44.95889550574103" lon="12.01534774512136"><ele>-3.0</ele><time>2026-04-05T14:04:02.975Z</time></trkpt><trkpt lat="44.9591132106172" lon="12.01533794537252"><ele>-3.0</ele><time>2026-04-05T14:04:03.975Z</time></trkpt><trkpt lat="44.95932791187705" lon="12.015337129496222"><ele>-3.333333333333333</ele><time>2026-04-05T14:04:04.975Z</time></trkpt><trkpt lat="44.95955301020549" lon="12.01533842114316"><ele>-3.6666666666666665</ele><time>2026-04-05T14:04:05.975Z</time></trkpt><trkpt lat="44.95976438823596" lon="12.015326329228298"><ele>-4.0</ele><time>2026-04-05T14:04:06.975Z</time></trkpt><trkpt lat="44.95998500476933" lon="12.015323205087318"><ele>-4.0</ele><time>2026-04-05T14:04:07.975Z</time></trkpt><trkpt lat="44.960209151458976" lon="12.015317495095923"><ele>-4.0</ele><time>2026-04-05T14:04:08.975Z</time></trkpt><trkpt lat="44.96043673635698" lon="12.015303761132339"><ele>-4.0</ele><time>2026-04-05T14:04:09.975Z</time></trkpt><trkpt lat="44.96067514093731" lon="12.015297338393026"><ele>-4.0</ele><time>2026-04-05T14:04:10.975Z</time></trkpt><trkpt lat="44.96091871668282" lon="12.015286774900257"><ele>-4.0</ele><time>2026-04-05T14:04:11.974Z</time></trkpt><trkpt lat="44.96116300643497" lon="12.015279925502945"><ele>-4.0</ele><time>2026-04-05T14:04:12.974Z</time></trkpt><trkpt lat="44.96140479853182" lon="12.015268977510024"><ele>-4.0</ele><time>2026-04-05T14:04:13.974Z</time></trkpt><trkpt lat="44.96164754247224" lon="12.01526283783288"><ele>-4.0</ele><time>2026-04-05T14:04:14.974Z</time></trkpt><trkpt lat="44.961887077043514" lon="12.015251222469608"><ele>-4.0</ele><time>2026-04-05T14:04:15.974Z</time></trkpt><trkpt lat="44.96212245309059" lon="12.015234280257488"><ele>-4.0</ele><time>2026-04-05T14:04:16.974Z</time></trkpt><trkpt lat="44.96235433341807" lon="12.015217855129773"><ele>-4.0</ele><time>2026-04-05T14:04:17.974Z</time></trkpt><trkpt lat="44.96258728034049" lon="12.015184766027666"><ele>-4.0</ele><time>2026-04-05T14:04:18.974Z</time></trkpt><trkpt lat="44.962820368316756" lon="12.015132812637454"><ele>-4.0</ele><time>2026-04-05T14:04:19.974Z</time></trkpt><trkpt lat="44.96305773081874" lon="12.015079628373064"><ele>-4.0</ele><time>2026-04-05T14:04:20.974Z</time></trkpt><trkpt lat="44.963299020840495" lon="12.015029896711162"><ele>-2.5</ele><time>2026-04-05T14:04:21.974Z</time></trkpt><trkpt lat="44.96353177418988" lon="12.014982369802482"><ele>-1.0</ele><time>2026-04-05T14:04:22.974Z</time></trkpt><trkpt lat="44.963753955673184" lon="12.014931543826073"><ele>-1.0</ele><time>2026-04-05T14:04:23.974Z</time></trkpt><trkpt lat="44.963966839081756" lon="12.01487697628254"><ele>-1.0</ele><time>2026-04-05T14:04:24.974Z</time></trkpt><trkpt lat="44.964176190832234" lon="12.01482828102574"><ele>-1.0</ele><time>2026-04-05T14:04:25.974Z</time></trkpt><trkpt lat="44.96437953946601" lon="12.01478324309254"><ele>-1.0</ele><time>2026-04-05T14:04:26.974Z</time></trkpt><trkpt lat="44.96457604833789" lon="12.014742937369817"><ele>-1.0</ele><time>2026-04-05T14:04:27.974Z</time></trkpt><trkpt lat="44.96475952820581" lon="12.014705852461958"><ele>-1.0</ele><time>2026-04-05T14:04:28.974Z</time></trkpt><trkpt lat="44.964936578581195" lon="12.014673319217968"><ele>-1.0</ele><time>2026-04-05T14:04:29.974Z</time></trkpt><trkpt lat="44.965107646877236" lon="12.014630704105326"><ele>-1.0</ele><time>2026-04-05T14:04:30.974Z</time></trkpt><trkpt lat="44.965267009496976" lon="12.014597898504945"><ele>-1.0</ele><time>2026-04-05T14:04:31.974Z</time></trkpt><trkpt lat="44.965417520769115" lon="12.014564891238342"><ele>-1.0</ele><time>2026-04-05T14:04:32.974Z</time></trkpt><trkpt lat="44.965558980474206" lon="12.014537675154042"><ele>-1.0</ele><time>2026-04-05T14:04:33.974Z</time></trkpt><trkpt lat="44.96568882133551" lon="12.014508906548022"><ele>-1.0</ele><time>2026-04-05T14:04:34.974Z</time></trkpt><trkpt lat="44.96581919170678" lon="12.014465516651775"><ele>-1.0</ele><time>2026-04-05T14:04:35.974Z</time></trkpt><trkpt lat="44.965941529503326" lon="12.014428869827867"><ele>-1.25</ele><time>2026-04-05T14:04:36.974Z</time></trkpt><trkpt lat="44.96606134393298" lon="12.014382303282712"><ele>-1.5</ele><time>2026-04-05T14:04:37.974Z</time></trkpt><trkpt lat="44.96617004421366" lon="12.014331092627094"><ele>-1.75</ele><time>2026-04-05T14:04:38.974Z</time></trkpt><trkpt lat="44.96627653956306" lon="12.014288994989117"><ele>-2.0</ele><time>2026-04-05T14:04:39.974Z</time></trkpt><trkpt lat="44.966382647125215" lon="12.014258907230756"><ele>-2.0</ele><time>2026-04-05T14:04:40.974Z</time></trkpt><trkpt lat="44.96648163911516" lon="12.014247319275922"><ele>-2.0</ele><time>2026-04-05T14:04:41.974Z</time></trkpt><trkpt lat="44.96657002031796" lon="12.0142547080537"><ele>-2.0</ele><time>2026-04-05T14:04:42.974Z</time></trkpt><trkpt lat="44.96664234986897" lon="12.014263027155108"><ele>-2.0</ele><time>2026-04-05T14:04:43.974Z</time></trkpt><trkpt lat="44.96674639480841" lon="12.014259685439473"><ele>-2.0</ele><time>2026-04-05T14:04:45.974Z</time></trkpt><trkpt lat="44.96681715820566" lon="12.014117810602363"><ele>-2.25</ele><time>2026-04-05T14:04:52.974Z</time></trkpt><trkpt lat="44.96683713683768" lon="12.013969417952593"><ele>-2.5</ele><time>2026-04-05T14:04:53.974Z</time></trkpt><trkpt lat="44.9668528410409" lon="12.013806184467812"><ele>-2.75</ele><time>2026-04-05T14:04:54.974Z</time></trkpt><trkpt lat="44.966891734504294" lon="12.013624898566535"><ele>-3.0</ele><time>2026-04-05T14:04:55.974Z</time></trkpt><trkpt lat="44.96690705139114" lon="12.013407086589712"><ele>-3.0</ele><time>2026-04-05T14:04:56.974Z</time></trkpt><trkpt lat="44.96695199750806" lon="12.013187066031636"><ele>-3.0</ele><time>2026-04-05T14:04:57.974Z</time></trkpt><trkpt lat="44.966987620919134" lon="12.012953065892301"><ele>-3.0</ele><time>2026-04-05T14:04:58.974Z</time></trkpt><trkpt lat="44.96702314152447" lon="12.01269792364108"><ele>-2.6666666666666665</ele><time>2026-04-05T14:04:59.974Z</time></trkpt><trkpt lat="44.967062018659625" lon="12.01242601511259"><ele>-2.333333333333333</ele><time>2026-04-05T14:05:00.974Z</time></trkpt><trkpt lat="44.96710141538817" lon="12.012138650852739"><ele>-2.0</ele><time>2026-04-05T14:05:01.974Z</time></trkpt><trkpt lat="44.96714913390045" lon="12.011837138314439"><ele>-2.5</ele><time>2026-04-05T14:05:02.974Z</time></trkpt><trkpt lat="44.96719612018978" lon="12.01152067062724"><ele>-3.0</ele><time>2026-04-05T14:05:03.974Z</time></trkpt><trkpt lat="44.96724840132827" lon="12.011190694227755"><ele>-3.0</ele><time>2026-04-05T14:05:04.974Z</time></trkpt><trkpt lat="44.96729337487972" lon="12.010855040219612"><ele>-3.0</ele><time>2026-04-05T14:05:05.974Z</time></trkpt><trkpt lat="44.96734804951518" lon="12.010503638095857"><ele>-3.0</ele><time>2026-04-05T14:05:06.974Z</time></trkpt><trkpt lat="44.96740068875006" lon="12.010152392666427"><ele>-3.0</ele><time>2026-04-05T14:05:07.973Z</time></trkpt><trkpt lat="44.96745043299677" lon="12.00979138386915"><ele>-3.5</ele><time>2026-04-05T14:05:08.973Z</time></trkpt><trkpt lat="44.967500500055024" lon="12.009432841288787"><ele>-4.0</ele><time>2026-04-05T14:05:09.973Z</time></trkpt><trkpt lat="44.96755678342616" lon="12.009067157900276"><ele>-3.0</ele><time>2026-04-05T14:05:10.973Z</time></trkpt><trkpt lat="44.96761302387244" lon="12.008700185767418"><ele>-2.0</ele><time>2026-04-05T14:05:11.973Z</time></trkpt><trkpt lat="44.967667289651516" lon="12.00834017397123"><ele>-2.0</ele><time>2026-04-05T14:05:12.973Z</time></trkpt><trkpt lat="44.96772035911294" lon="12.007979419977683"><ele>-2.0</ele><time>2026-04-05T14:05:13.973Z</time></trkpt><trkpt lat="44.96776952770923" lon="12.007628462291105"><ele>-2.5</ele><time>2026-04-05T14:05:14.973Z</time></trkpt><trkpt lat="44.96782513683053" lon="12.007270110702862"><ele>-3.0</ele><time>2026-04-05T14:05:15.973Z</time></trkpt><trkpt lat="44.96787898100754" lon="12.006916954448288"><ele>-2.5</ele><time>2026-04-05T14:05:16.973Z</time></trkpt><trkpt lat="44.967935102245" lon="12.006557575466953"><ele>-2.0</ele><time>2026-04-05T14:05:17.973Z</time></trkpt><trkpt lat="44.967991935803184" lon="12.006204231352392"><ele>-2.0</ele><time>2026-04-05T14:05:18.973Z</time></trkpt><trkpt lat="44.96804323341041" lon="12.005852480403327"><ele>-2.0</ele><time>2026-04-05T14:05:19.973Z</time></trkpt><trkpt lat="44.96809840834158" lon="12.005503050729711"><ele>-1.0</ele><time>2026-04-05T14:05:20.973Z</time></trkpt><trkpt lat="44.968155027985" lon="12.005152837060447"><ele>0.0</ele><time>2026-04-05T14:05:21.973Z</time></trkpt><trkpt lat="44.968207349607304" lon="12.004804314660406"><ele>0.0</ele><time>2026-04-05T14:05:22.973Z</time></trkpt><trkpt lat="44.968257844162906" lon="12.004460661748816"><ele>0.0</ele><time>2026-04-05T14:05:23.973Z</time></trkpt><trkpt lat="44.96830520244215" lon="12.004121495168175"><ele>0.5</ele><time>2026-04-05T14:05:24.973Z</time></trkpt><trkpt lat="44.96835491698683" lon="12.003790382959288"><ele>1.0</ele><time>2026-04-05T14:05:25.973Z</time></trkpt><trkpt lat="44.96840025342874" lon="12.003470743493557"><ele>0.6666666666666666</ele><time>2026-04-05T14:05:26.975Z</time></trkpt><trkpt lat="44.96845307022346" lon="12.003162623825098"><ele>0.3333333333333333</ele><time>2026-04-05T14:05:27.975Z</time></trkpt><trkpt lat="44.96849671287434" lon="12.002859655951056"><ele>0.0</ele><time>2026-04-05T14:05:28.975Z</time></trkpt><trkpt lat="44.96853669330229" lon="12.00257344145515"><ele>-0.3333333333333333</ele><time>2026-04-05T14:05:29.974Z</time></trkpt><trkpt lat="44.96858417033341" lon="12.002304218982978"><ele>-0.6666666666666666</ele><time>2026-04-05T14:05:30.975Z</time></trkpt><trkpt lat="44.968647316048724" lon="12.002041265794206"><ele>-1.0</ele><time>2026-04-05T14:05:31.975Z</time></trkpt><trkpt lat="44.96871834031148" lon="12.00177494711037"><ele>-1.0</ele><time>2026-04-05T14:05:32.975Z</time></trkpt><trkpt lat="44.96879611790656" lon="12.00152376394376"><ele>-1.0</ele><time>2026-04-05T14:05:33.974Z</time></trkpt><trkpt lat="44.96889034649113" lon="12.001287630091209"><ele>-1.0</ele><time>2026-04-05T14:05:34.974Z</time></trkpt><trkpt lat="44.96901613655278" lon="12.001087289095114"><ele>-1.0</ele><time>2026-04-05T14:05:35.975Z</time></trkpt><trkpt lat="44.96916936122585" lon="12.000896572587537"><ele>-1.0</ele><time>2026-04-05T14:05:36.975Z</time></trkpt><trkpt lat="44.96933816474448" lon="12.000706369748846"><ele>-1.0</ele><time>2026-04-05T14:05:37.975Z</time></trkpt><trkpt lat="44.96950405471937" lon="12.000544560019524"><ele>-0.6666666666666666</ele><time>2026-04-05T14:05:38.975Z</time></trkpt><trkpt lat="44.96967496242747" lon="12.000420356829132"><ele>-0.3333333333333333</ele><time>2026-04-05T14:05:39.975Z</time></trkpt><trkpt lat="44.969853886711014" lon="12.000313088862887"><ele>0.0</ele><time>2026-04-05T14:05:40.975Z</time></trkpt><trkpt lat="44.97002299227339" lon="12.000198409476859"><ele>-0.3333333333333333</ele><time>2026-04-05T14:05:41.975Z</time></trkpt><trkpt lat="44.9702039974971" lon="12.000104051770297"><ele>-0.6666666666666666</ele><time>2026-04-05T14:05:42.975Z</time></trkpt><trkpt lat="44.9703702069761" lon="11.99997534870093"><ele>-1.0</ele><time>2026-04-05T14:05:43.975Z</time></trkpt><trkpt lat="44.97051550691079" lon="11.999811020763888"><ele>-1.0</ele><time>2026-04-05T14:05:44.975Z</time></trkpt><trkpt lat="44.97064690841565" lon="11.999612939727912"><ele>-1.0</ele><time>2026-04-05T14:05:45.975Z</time></trkpt><trkpt lat="44.97078265952927" lon="11.999375730094053"><ele>-1.0</ele><time>2026-04-05T14:05:46.975Z</time></trkpt><trkpt lat="44.97091659350063" lon="11.999121656303029"><ele>0.0</ele><time>2026-04-05T14:05:47.975Z</time></trkpt><trkpt lat="44.97105386865255" lon="11.998862119691635"><ele>1.0</ele><time>2026-04-05T14:05:48.975Z</time></trkpt><trkpt lat="44.971194784955564" lon="11.998594099650726"><ele>0.0</ele><time>2026-04-05T14:05:49.975Z</time></trkpt><trkpt lat="44.97133502929701" lon="11.998327217974957"><ele>-1.0</ele><time>2026-04-05T14:05:50.975Z</time></trkpt><trkpt lat="44.97147195930021" lon="11.99805875124413"><ele>-1.0</ele><time>2026-04-05T14:05:51.975Z</time></trkpt><trkpt lat="44.971605810891774" lon="11.997784420952414"><ele>-1.0</ele><time>2026-04-05T14:05:52.975Z</time></trkpt><trkpt lat="44.97174061089112" lon="11.997508794579188"><ele>-0.5</ele><time>2026-04-05T14:05:53.975Z</time></trkpt><trkpt lat="44.97187287427028" lon="11.997234098335433"><ele>0.0</ele><time>2026-04-05T14:05:54.975Z</time></trkpt><trkpt lat="44.97200226613391" lon="11.996966420187817"><ele>0.0</ele><time>2026-04-05T14:05:55.975Z</time></trkpt><trkpt lat="44.972133771506975" lon="11.996710634266176"><ele>0.0</ele><time>2026-04-05T14:05:56.975Z</time></trkpt><trkpt lat="44.97226580713366" lon="11.996463650346868"><ele>0.0</ele><time>2026-04-05T14:05:57.975Z</time></trkpt><trkpt lat="44.97240276115102" lon="11.996223252907976"><ele>0.0</ele><time>2026-04-05T14:05:58.975Z</time></trkpt><trkpt lat="44.97254653782742" lon="11.995981453695517"><ele>0.0</ele><time>2026-04-05T14:05:59.975Z</time></trkpt><trkpt lat="44.972692206437934" lon="11.995733912977087"><ele>0.0</ele><time>2026-04-05T14:06:00.974Z</time></trkpt><trkpt lat="44.97283876702155" lon="11.99548057180154"><ele>0.0</ele><time>2026-04-05T14:06:01.974Z</time></trkpt><trkpt lat="44.972988305669894" lon="11.99522303192746"><ele>-0.5</ele><time>2026-04-05T14:06:02.974Z</time></trkpt><trkpt lat="44.97314431308466" lon="11.994969220100309"><ele>-1.0</ele><time>2026-04-05T14:06:03.974Z</time></trkpt><trkpt lat="44.9732986384695" lon="11.994715204174984"><ele>-1.0</ele><time>2026-04-05T14:06:04.974Z</time></trkpt><trkpt lat="44.97344849134636" lon="11.994448685561819"><ele>-1.0</ele><time>2026-04-05T14:06:05.974Z</time></trkpt><trkpt lat="44.97360000494566" lon="11.994180350507618"><ele>-1.0</ele><time>2026-04-05T14:06:06.974Z</time></trkpt><trkpt lat="44.97375435875269" lon="11.993909061885569"><ele>-1.0</ele><time>2026-04-05T14:06:07.974Z</time></trkpt><trkpt lat="44.973909973249754" lon="11.993639969343127"><ele>-1.0</ele><time>2026-04-05T14:06:08.974Z</time></trkpt><trkpt lat="44.97406451028402" lon="11.99336923429478"><ele>-1.0</ele><time>2026-04-05T14:06:09.974Z</time></trkpt><trkpt lat="44.974223955895084" lon="11.993096094378705"><ele>-0.5</ele><time>2026-04-05T14:06:10.974Z</time></trkpt><trkpt lat="44.97438344566889" lon="11.992819148175949"><ele>0.0</ele><time>2026-04-05T14:06:11.974Z</time></trkpt><trkpt lat="44.974543430426515" lon="11.992535505961866"><ele>0.0</ele><time>2026-04-05T14:06:12.974Z</time></trkpt><trkpt lat="44.974701281213875" lon="11.992257369598864"><ele>0.0</ele><time>2026-04-05T14:06:13.974Z</time></trkpt><trkpt lat="44.97486207696804" lon="11.991989473551039"><ele>0.0</ele><time>2026-04-05T14:06:14.974Z</time></trkpt><trkpt lat="44.975017196683545" lon="11.99173902324661"><ele>0.0</ele><time>2026-04-05T14:06:15.974Z</time></trkpt><trkpt lat="44.97515564957942" lon="11.991504990069995"><ele>0.0</ele><time>2026-04-05T14:06:16.974Z</time></trkpt><trkpt lat="44.975288916273136" lon="11.991281207097446"><ele>0.0</ele><time>2026-04-05T14:06:17.974Z</time></trkpt><trkpt lat="44.97541793376187" lon="11.991061641185077"><ele>0.0</ele><time>2026-04-05T14:06:18.974Z</time></trkpt><trkpt lat="44.97554802194616" lon="11.990848797546242"><ele>0.3333333333333333</ele><time>2026-04-05T14:06:19.974Z</time></trkpt><trkpt lat="44.97566560471728" lon="11.990646021557296"><ele>0.6666666666666666</ele><time>2026-04-05T14:06:20.974Z</time></trkpt><trkpt lat="44.975782903714936" lon="11.990451068243665"><ele>1.0</ele><time>2026-04-05T14:06:21.974Z</time></trkpt><trkpt lat="44.975895184492686" lon="11.99024920804172"><ele>1.3333333333333333</ele><time>2026-04-05T14:06:22.974Z</time></trkpt><trkpt lat="44.97600886671217" lon="11.990041041668036"><ele>1.6666666666666665</ele><time>2026-04-05T14:06:23.974Z</time></trkpt><trkpt lat="44.97612435902029" lon="11.989829969556151"><ele>2.0</ele><time>2026-04-05T14:06:24.974Z</time></trkpt><trkpt lat="44.976241225594414" lon="11.989622235378029"><ele>2.0</ele><time>2026-04-05T14:06:25.974Z</time></trkpt><trkpt lat="44.97635194520756" lon="11.98941572906705"><ele>2.0</ele><time>2026-04-05T14:06:26.974Z</time></trkpt><trkpt lat="44.97645497485439" lon="11.989210084788105"><ele>2.0</ele><time>2026-04-05T14:06:27.974Z</time></trkpt><trkpt lat="44.97654152750485" lon="11.989006833229665"><ele>1.6666666666666665</ele><time>2026-04-05T14:06:28.974Z</time></trkpt><trkpt lat="44.976619703644005" lon="11.988804808655576"><ele>1.3333333333333333</ele><time>2026-04-05T14:06:29.974Z</time></trkpt><trkpt lat="44.97668775592084" lon="11.988587712130716"><ele>1.0</ele><time>2026-04-05T14:06:30.974Z</time></trkpt><trkpt lat="44.97674461802986" lon="11.98836010918702"><ele>0.3333333333333333</ele><time>2026-04-05T14:06:31.974Z</time></trkpt><trkpt lat="44.976796870265694" lon="11.988121825410493"><ele>-0.3333333333333333</ele><time>2026-04-05T14:06:32.974Z</time></trkpt><trkpt lat="44.976842592862724" lon="11.987873675061813"><ele>-1.0</ele><time>2026-04-05T14:06:33.974Z</time></trkpt><trkpt lat="44.97688357532129" lon="11.987614904284253"><ele>-0.6666666666666666</ele><time>2026-04-05T14:06:34.974Z</time></trkpt><trkpt lat="44.976922723893" lon="11.987356144628388"><ele>-0.3333333333333333</ele><time>2026-04-05T14:06:35.974Z</time></trkpt><trkpt lat="44.97696263960487" lon="11.987086133176685"><ele>0.0</ele><time>2026-04-05T14:06:36.974Z</time></trkpt><trkpt lat="44.97700107202708" lon="11.98681867621071"><ele>0.0</ele><time>2026-04-05T14:06:37.974Z</time></trkpt><trkpt lat="44.977045495626896" lon="11.98654913796159"><ele>0.0</ele><time>2026-04-05T14:06:38.974Z</time></trkpt><trkpt lat="44.977090876215875" lon="11.986283234415087"><ele>0.0</ele><time>2026-04-05T14:06:39.974Z</time></trkpt><trkpt lat="44.97713503209253" lon="11.986013853509068"><ele>0.3333333333333333</ele><time>2026-04-05T14:06:40.974Z</time></trkpt><trkpt lat="44.977177853683806" lon="11.985748407921163"><ele>0.6666666666666666</ele><time>2026-04-05T14:06:41.974Z</time></trkpt><trkpt lat="44.97722119011009" lon="11.985484325833552"><ele>1.0</ele><time>2026-04-05T14:06:42.974Z</time></trkpt><trkpt lat="44.97726592547121" lon="11.985233088252464"><ele>1.0</ele><time>2026-04-05T14:06:43.974Z</time></trkpt><trkpt lat="44.977302796333234" lon="11.984992626396446"><ele>1.0</ele><time>2026-04-05T14:06:44.974Z</time></trkpt><trkpt lat="44.97734595652411" lon="11.984757701987412"><ele>1.0</ele><time>2026-04-05T14:06:45.974Z</time></trkpt><trkpt lat="44.97738599422423" lon="11.984531660702938"><ele>1.0</ele><time>2026-04-05T14:06:46.974Z</time></trkpt><trkpt lat="44.97742244609762" lon="11.984317740538305"><ele>1.0</ele><time>2026-04-05T14:06:47.974Z</time></trkpt><trkpt lat="44.977450280052814" lon="11.984116421444062"><ele>1.0</ele><time>2026-04-05T14:06:48.974Z</time></trkpt><trkpt lat="44.97748620902077" lon="11.983929056434471"><ele>1.0</ele><time>2026-04-05T14:06:49.974Z</time></trkpt><trkpt lat="44.97751704354227" lon="11.983754288632843"><ele>1.0</ele><time>2026-04-05T14:06:50.974Z</time></trkpt><trkpt lat="44.977541034344384" lon="11.983588192420072"><ele>1.0</ele><time>2026-04-05T14:06:51.974Z</time></trkpt><trkpt lat="44.97756547559109" lon="11.983433254753372"><ele>1.0</ele><time>2026-04-05T14:06:52.974Z</time></trkpt><trkpt lat="44.97758100188916" lon="11.983270330134369"><ele>1.0</ele><time>2026-04-05T14:06:53.974Z</time></trkpt><trkpt lat="44.97758504448949" lon="11.98309803961944"><ele>1.0</ele><time>2026-04-05T14:06:54.974Z</time></trkpt><trkpt lat="44.97756721911495" lon="11.982915384866429"><ele>1.0</ele><time>2026-04-05T14:06:55.973Z</time></trkpt><trkpt lat="44.977525176933725" lon="11.982723705286793"><ele>1.0</ele><time>2026-04-05T14:06:56.973Z</time></trkpt><trkpt lat="44.9774582521836" lon="11.982528723294891"><ele>1.0</ele><time>2026-04-05T14:06:57.973Z</time></trkpt><trkpt lat="44.97738888051533" lon="11.982343130733705"><ele>1.0</ele><time>2026-04-05T14:06:58.973Z</time></trkpt><trkpt lat="44.977321291290814" lon="11.982148143487784"><ele>1.0</ele><time>2026-04-05T14:06:59.973Z</time></trkpt><trkpt lat="44.97724095645095" lon="11.981946412369556"><ele>1.0</ele><time>2026-04-05T14:07:00.973Z</time></trkpt><trkpt lat="44.977160952462356" lon="11.981746025625462"><ele>0.6666666666666666</ele><time>2026-04-05T14:07:01.973Z</time></trkpt><trkpt lat="44.97708833780629" lon="11.98153317651571"><ele>0.3333333333333333</ele><time>2026-04-05T14:07:02.973Z</time></trkpt><trkpt lat="44.97700560256099" lon="11.981314432026183"><ele>0.0</ele><time>2026-04-05T14:07:03.973Z</time></trkpt><trkpt lat="44.97691972291765" lon="11.981098809525191"><ele>0.0</ele><time>2026-04-05T14:07:04.973Z</time></trkpt><trkpt lat="44.976839282735966" lon="11.98087813488508"><ele>0.0</ele><time>2026-04-05T14:07:05.973Z</time></trkpt><trkpt lat="44.97675458952704" lon="11.980664044503985"><ele>0.0</ele><time>2026-04-05T14:07:06.973Z</time></trkpt><trkpt lat="44.97666829717097" lon="11.980457136366793"><ele>0.0</ele><time>2026-04-05T14:07:07.973Z</time></trkpt><trkpt lat="44.976576430774315" lon="11.980254926716325"><ele>0.0</ele><time>2026-04-05T14:07:08.973Z</time></trkpt><trkpt lat="44.97649040935289" lon="11.980052058658796"><ele>0.0</ele><time>2026-04-05T14:07:09.973Z</time></trkpt><trkpt lat="44.976373887029524" lon="11.979876520400623"><ele>0.0</ele><time>2026-04-05T14:07:10.973Z</time></trkpt><trkpt lat="44.97623155525038" lon="11.979720804325481"><ele>0.0</ele><time>2026-04-05T14:07:11.973Z</time></trkpt><trkpt lat="44.97609666344572" lon="11.979551511242974"><ele>0.0</ele><time>2026-04-05T14:07:12.973Z</time></trkpt><trkpt lat="44.97596005640797" lon="11.97938096479843"><ele>0.3333333333333333</ele><time>2026-04-05T14:07:13.973Z</time></trkpt><trkpt lat="44.97582043060134" lon="11.97920491527378"><ele>0.6666666666666666</ele><time>2026-04-05T14:07:14.973Z</time></trkpt><trkpt lat="44.97567421189438" lon="11.979028926190331"><ele>1.0</ele><time>2026-04-05T14:07:15.973Z</time></trkpt><trkpt lat="44.97553526712673" lon="11.978847878443146"><ele>1.0</ele><time>2026-04-05T14:07:16.973Z</time></trkpt><trkpt lat="44.975385470595505" lon="11.97867174636085"><ele>1.0</ele><time>2026-04-05T14:07:17.973Z</time></trkpt><trkpt lat="44.97524657329208" lon="11.978464455311556"><ele>1.0</ele><time>2026-04-05T14:07:18.973Z</time></trkpt><trkpt lat="44.9751001090003" lon="11.978288757900097"><ele>0.3333333333333333</ele><time>2026-04-05T14:07:19.973Z</time></trkpt><trkpt lat="44.974946365717415" lon="11.978101235596919"><ele>-0.3333333333333333</ele><time>2026-04-05T14:07:20.973Z</time></trkpt><trkpt lat="44.97479126126177" lon="11.977922545928617"><ele>-1.0</ele><time>2026-04-05T14:07:21.973Z</time></trkpt><trkpt lat="44.97464036810372" lon="11.977740823965815"><ele>-1.0</ele><time>2026-04-05T14:07:22.973Z</time></trkpt><trkpt lat="44.974484652402225" lon="11.977560584813315"><ele>-1.0</ele><time>2026-04-05T14:07:23.973Z</time></trkpt><trkpt lat="44.97433064313085" lon="11.977380479823251"><ele>-1.0</ele><time>2026-04-05T14:07:24.973Z</time></trkpt><trkpt lat="44.97417749297932" lon="11.977191811769822"><ele>-1.0</ele><time>2026-04-05T14:07:25.973Z</time></trkpt><trkpt lat="44.97402210424938" lon="11.977018820223819"><ele>-1.0</ele><time>2026-04-05T14:07:26.973Z</time></trkpt><trkpt lat="44.97387882756135" lon="11.976850819745943"><ele>-1.0</ele><time>2026-04-05T14:07:27.973Z</time></trkpt><trkpt lat="44.973747198159934" lon="11.976688370578387"><ele>-1.0</ele><time>2026-04-05T14:07:28.973Z</time></trkpt><trkpt lat="44.97363022225672" lon="11.976519577901492"><ele>-1.0</ele><time>2026-04-05T14:07:29.973Z</time></trkpt><trkpt lat="44.97352542807708" lon="11.9763393789459"><ele>-1.0</ele><time>2026-04-05T14:07:30.973Z</time></trkpt><trkpt lat="44.973434484033746" lon="11.976156094956268"><ele>-1.0</ele><time>2026-04-05T14:07:31.973Z</time></trkpt><trkpt lat="44.97334110937352" lon="11.975969874356247"><ele>-1.0</ele><time>2026-04-05T14:07:32.974Z</time></trkpt><trkpt lat="44.97327285757471" lon="11.975764640949656"><ele>-1.0</ele><time>2026-04-05T14:07:33.974Z</time></trkpt><trkpt lat="44.97318293593133" lon="11.975560960249796"><ele>-1.0</ele><time>2026-04-05T14:07:34.974Z</time></trkpt><trkpt lat="44.97310248973689" lon="11.975365328068525"><ele>-1.0</ele><time>2026-04-05T14:07:35.974Z</time></trkpt><trkpt lat="44.97301684909333" lon="11.975155601518358"><ele>-1.0</ele><time>2026-04-05T14:07:36.974Z</time></trkpt><trkpt lat="44.97293425761518" lon="11.974952788829116"><ele>-0.3333333333333333</ele><time>2026-04-05T14:07:37.974Z</time></trkpt><trkpt lat="44.97285476126136" lon="11.974752700710562"><ele>0.3333333333333333</ele><time>2026-04-05T14:07:38.974Z</time></trkpt><trkpt lat="44.972777199942364" lon="11.974554932785184"><ele>1.0</ele><time>2026-04-05T14:07:39.974Z</time></trkpt><trkpt lat="44.97269835276027" lon="11.974346961229491"><ele>1.0</ele><time>2026-04-05T14:07:40.974Z</time></trkpt><trkpt lat="44.972611903461846" lon="11.974152751592683"><ele>1.0</ele><time>2026-04-05T14:07:41.974Z</time></trkpt><trkpt lat="44.9725552746862" lon="11.973927846197855"><ele>1.0</ele><time>2026-04-05T14:07:42.974Z</time></trkpt><trkpt lat="44.9724894600869" lon="11.973707240497344"><ele>1.0</ele><time>2026-04-05T14:07:43.974Z</time></trkpt><trkpt lat="44.97241178162773" lon="11.973490963488551"><ele>1.0</ele><time>2026-04-05T14:07:44.974Z</time></trkpt><trkpt lat="44.97236763767265" lon="11.973243576178035"><ele>1.0</ele><time>2026-04-05T14:07:45.974Z</time></trkpt><trkpt lat="44.97230936584464" lon="11.973015531610418"><ele>1.0</ele><time>2026-04-05T14:07:46.974Z</time></trkpt><trkpt lat="44.97225174808265" lon="11.97278495269406"><ele>1.0</ele><time>2026-04-05T14:07:47.974Z</time></trkpt><trkpt lat="44.9721943836843" lon="11.972542978800348"><ele>1.0</ele><time>2026-04-05T14:07:48.974Z</time></trkpt><trkpt lat="44.97213792767851" lon="11.972300291167263"><ele>1.0</ele><time>2026-04-05T14:07:49.974Z</time></trkpt><trkpt lat="44.97208075494842" lon="11.972047067820005"><ele>1.0</ele><time>2026-04-05T14:07:50.974Z</time></trkpt><trkpt lat="44.97201801198134" lon="11.97178291906986"><ele>1.0</ele><time>2026-04-05T14:07:51.974Z</time></trkpt><trkpt lat="44.97194887784971" lon="11.971514471231043"><ele>1.0</ele><time>2026-04-05T14:07:52.974Z</time></trkpt><trkpt lat="44.97187806877157" lon="11.971241479153749"><ele>1.0</ele><time>2026-04-05T14:07:53.974Z</time></trkpt><trkpt lat="44.9718280285695" lon="11.970964210027612"><ele>1.0</ele><time>2026-04-05T14:07:54.974Z</time></trkpt><trkpt lat="44.97176470183407" lon="11.970693550067288"><ele>1.0</ele><time>2026-04-05T14:07:55.974Z</time></trkpt><trkpt lat="44.97168054774907" lon="11.97043382030139"><ele>1.0</ele><time>2026-04-05T14:07:56.974Z</time></trkpt><trkpt lat="44.97161547256415" lon="11.970166868323114"><ele>1.0</ele><time>2026-04-05T14:07:57.974Z</time></trkpt><trkpt lat="44.97155611611792" lon="11.969908761370274"><ele>1.0</ele><time>2026-04-05T14:07:58.974Z</time></trkpt><trkpt lat="44.97149960178033" lon="11.969650679695462"><ele>1.0</ele><time>2026-04-05T14:07:59.974Z</time></trkpt><trkpt lat="44.971463138415665" lon="11.96938539260449"><ele>1.0</ele><time>2026-04-05T14:08:00.974Z</time></trkpt><trkpt lat="44.97141226173223" lon="11.969124344327637"><ele>0.6666666666666666</ele><time>2026-04-05T14:08:01.974Z</time></trkpt><trkpt lat="44.97136909984504" lon="11.96884694341712"><ele>0.3333333333333333</ele><time>2026-04-05T14:08:02.974Z</time></trkpt><trkpt lat="44.971341892160815" lon="11.968554995728242"><ele>0.0</ele><time>2026-04-05T14:08:03.974Z</time></trkpt><trkpt lat="44.971325646415984" lon="11.968260598973494"><ele>0.0</ele><time>2026-04-05T14:08:04.974Z</time></trkpt><trkpt lat="44.97130902071674" lon="11.967950545034611"><ele>0.0</ele><time>2026-04-05T14:08:05.974Z</time></trkpt><trkpt lat="44.97129040917891" lon="11.967656994966617"><ele>0.0</ele><time>2026-04-05T14:08:06.974Z</time></trkpt><trkpt lat="44.971254192964096" lon="11.96736163128656"><ele>0.3333333333333333</ele><time>2026-04-05T14:08:07.974Z</time></trkpt><trkpt lat="44.97122609947899" lon="11.9670672021717"><ele>0.6666666666666666</ele><time>2026-04-05T14:08:08.974Z</time></trkpt><trkpt lat="44.97116243218166" lon="11.966772890676436"><ele>1.0</ele><time>2026-04-05T14:08:09.974Z</time></trkpt><trkpt lat="44.97107918119424" lon="11.966497441376323"><ele>1.0</ele><time>2026-04-05T14:08:10.974Z</time></trkpt><trkpt lat="44.970987663660985" lon="11.966206602775001"><ele>1.0</ele><time>2026-04-05T14:08:11.974Z</time></trkpt><trkpt lat="44.97088519171239" lon="11.965927881875329"><ele>1.0</ele><time>2026-04-05T14:08:12.974Z</time></trkpt><trkpt lat="44.97076308838298" lon="11.965656583470812"><ele>1.0</ele><time>2026-04-05T14:08:13.974Z</time></trkpt><trkpt lat="44.97061752223251" lon="11.965405238362004"><ele>1.0</ele><time>2026-04-05T14:08:14.973Z</time></trkpt><trkpt lat="44.97047501378444" lon="11.965184943581473"><ele>1.0</ele><time>2026-04-05T14:08:15.973Z</time></trkpt><trkpt lat="44.970319605460496" lon="11.964994534327564"><ele>1.0</ele><time>2026-04-05T14:08:16.973Z</time></trkpt><trkpt lat="44.970185934767755" lon="11.964809022835706"><ele>1.0</ele><time>2026-04-05T14:08:17.973Z</time></trkpt><trkpt lat="44.97007485623966" lon="11.964606452101899"><ele>1.0</ele><time>2026-04-05T14:08:18.973Z</time></trkpt><trkpt lat="44.96998355898561" lon="11.96436305172326"><ele>1.0</ele><time>2026-04-05T14:08:19.973Z</time></trkpt><trkpt lat="44.96991803099826" lon="11.964089368642801"><ele>1.0</ele><time>2026-04-05T14:08:20.973Z</time></trkpt><trkpt lat="44.969872481785" lon="11.963794513418476"><ele>1.0</ele><time>2026-04-05T14:08:21.973Z</time></trkpt><trkpt lat="44.969826098470875" lon="11.963496886992889"><ele>1.0</ele><time>2026-04-05T14:08:22.973Z</time></trkpt><trkpt lat="44.96975453842974" lon="11.96320889133526"><ele>1.0</ele><time>2026-04-05T14:08:23.973Z</time></trkpt><trkpt lat="44.96966366379632" lon="11.962934467412293"><ele>1.0</ele><time>2026-04-05T14:08:24.973Z</time></trkpt><trkpt lat="44.96954823987257" lon="11.962688155321743"><ele>0.6666666666666666</ele><time>2026-04-05T14:08:25.973Z</time></trkpt><trkpt lat="44.96944441518103" lon="11.962462888835615"><ele>0.3333333333333333</ele><time>2026-04-05T14:08:26.973Z</time></trkpt><trkpt lat="44.96934801618328" lon="11.962254935654776"><ele>0.0</ele><time>2026-04-05T14:08:27.973Z</time></trkpt><trkpt lat="44.96927526048509" lon="11.962051075173568"><ele>0.0</ele><time>2026-04-05T14:08:28.973Z</time></trkpt><trkpt lat="44.969202500088905" lon="11.961870170072284"><ele>0.0</ele><time>2026-04-05T14:08:29.973Z</time></trkpt><trkpt lat="44.96913277226404" lon="11.96172579339651"><ele>0.0</ele><time>2026-04-05T14:08:30.973Z</time></trkpt><trkpt lat="44.96908330601931" lon="11.961599028884624"><ele>0.0</ele><time>2026-04-05T14:08:31.973Z</time></trkpt><trkpt lat="44.96905398755171" lon="11.961484388349493"><ele>0.0</ele><time>2026-04-05T14:08:32.973Z</time></trkpt><trkpt lat="44.969043253754364" lon="11.961381468237422"><ele>0.0</ele><time>2026-04-05T14:08:33.973Z</time></trkpt><trkpt lat="44.96903558965254" lon="11.96119507862783"><ele>0.0</ele><time>2026-04-05T14:08:35.973Z</time></trkpt><trkpt lat="44.969008491726356" lon="11.961082146905888"><ele>0.0</ele><time>2026-04-05T14:08:37.973Z</time></trkpt><trkpt lat="44.968950633578075" lon="11.961015968294365"><ele>0.0</ele><time>2026-04-05T14:12:19.972Z</time></trkpt><trkpt lat="44.968874175712166" lon="11.960966201805151"><ele>0.0</ele><time>2026-04-05T14:12:22.972Z</time></trkpt><trkpt lat="44.96877346451499" lon="11.96093924836577"><ele>0.0</ele><time>2026-04-05T14:12:25.972Z</time></trkpt><trkpt lat="44.968716483443956" lon="11.960879054666142"><ele>0.0</ele><time>2026-04-05T14:12:26.972Z</time></trkpt><trkpt lat="44.96866797362695" lon="11.960784497506243"><ele>0.0</ele><time>2026-04-05T14:12:27.972Z</time></trkpt><trkpt lat="44.968645125045335" lon="11.960642414549516"><ele>0.0</ele><time>2026-04-05T14:12:28.972Z</time></trkpt><trkpt lat="44.96858132174917" lon="11.96050043075935"><ele>0.0</ele><time>2026-04-05T14:12:29.972Z</time></trkpt><trkpt lat="44.96851930985712" lon="11.960362433445315"><ele>-0.25</ele><time>2026-04-05T14:12:30.972Z</time></trkpt><trkpt lat="44.96845122235238" lon="11.960210915840488"><ele>-0.5</ele><time>2026-04-05T14:12:31.972Z</time></trkpt><trkpt lat="44.968367805710756" lon="11.960025285756274"><ele>-0.75</ele><time>2026-04-05T14:12:32.972Z</time></trkpt><trkpt lat="44.968272137576946" lon="11.959834976441039"><ele>-1.0</ele><time>2026-04-05T14:12:33.972Z</time></trkpt><trkpt lat="44.96818177881945" lon="11.959643065040531"><ele>-1.0</ele><time>2026-04-05T14:12:34.972Z</time></trkpt><trkpt lat="44.968085265220594" lon="11.959438161620911"><ele>-1.0</ele><time>2026-04-05T14:12:35.972Z</time></trkpt><trkpt lat="44.96799772878676" lon="11.959198563211226"><ele>-1.0</ele><time>2026-04-05T14:12:36.972Z</time></trkpt><trkpt lat="44.967886095951556" lon="11.95894868276441"><ele>-1.0</ele><time>2026-04-05T14:12:37.972Z</time></trkpt><trkpt lat="44.9677552218692" lon="11.958690964179677"><ele>-1.0</ele><time>2026-04-05T14:12:38.972Z</time></trkpt><trkpt lat="44.967638144375556" lon="11.958437504033881"><ele>-1.0</ele><time>2026-04-05T14:12:39.972Z</time></trkpt><trkpt lat="44.96752899262695" lon="11.958149339253362"><ele>-1.0</ele><time>2026-04-05T14:12:40.972Z</time></trkpt><trkpt lat="44.96740415246381" lon="11.957869896176897"><ele>-1.0</ele><time>2026-04-05T14:12:41.972Z</time></trkpt><trkpt lat="44.967264682035086" lon="11.957592352534931"><ele>0.0</ele><time>2026-04-05T14:12:42.972Z</time></trkpt><trkpt lat="44.96714312579573" lon="11.957305003306757"><ele>1.0</ele><time>2026-04-05T14:12:43.972Z</time></trkpt><trkpt lat="44.96701834680813" lon="11.957017183419342"><ele>1.0</ele><time>2026-04-05T14:12:44.972Z</time></trkpt><trkpt lat="44.96689475127111" lon="11.956709424089004"><ele>1.0</ele><time>2026-04-05T14:12:45.972Z</time></trkpt><trkpt lat="44.96676938567249" lon="11.95641889999971"><ele>1.0</ele><time>2026-04-05T14:12:46.972Z</time></trkpt><trkpt lat="44.96664351446092" lon="11.956140047353768"><ele>1.0</ele><time>2026-04-05T14:12:47.972Z</time></trkpt><trkpt lat="44.96652821967347" lon="11.95585309933093"><ele>1.0</ele><time>2026-04-05T14:12:48.972Z</time></trkpt><trkpt lat="44.9664111884133" lon="11.9555633748957"><ele>1.0</ele><time>2026-04-05T14:12:49.972Z</time></trkpt><trkpt lat="44.96629590520564" lon="11.955278189801056"><ele>0.5</ele><time>2026-04-05T14:12:50.972Z</time></trkpt><trkpt lat="44.96618419939899" lon="11.95498875597097"><ele>0.0</ele><time>2026-04-05T14:12:51.972Z</time></trkpt><trkpt lat="44.96608569102016" lon="11.954695466983"><ele>0.0</ele><time>2026-04-05T14:12:52.972Z</time></trkpt><trkpt lat="44.966004845243404" lon="11.954385027400694"><ele>0.0</ele><time>2026-04-05T14:12:53.972Z</time></trkpt><trkpt lat="44.96592829511017" lon="11.954065343406823"><ele>-1.0</ele><time>2026-04-05T14:12:54.971Z</time></trkpt><trkpt lat="44.96585736996548" lon="11.953741633050134"><ele>-2.0</ele><time>2026-04-05T14:12:55.971Z</time></trkpt><trkpt lat="44.965780798242974" lon="11.953431468369716"><ele>-2.0</ele><time>2026-04-05T14:12:56.971Z</time></trkpt><trkpt lat="44.96573117058411" lon="11.953104242958576"><ele>-2.0</ele><time>2026-04-05T14:12:57.971Z</time></trkpt><trkpt lat="44.96569971766849" lon="11.952768794521441"><ele>-1.5</ele><time>2026-04-05T14:12:58.971Z</time></trkpt><trkpt lat="44.96568236840001" lon="11.952425127888109"><ele>-1.0</ele><time>2026-04-05T14:12:59.971Z</time></trkpt><trkpt lat="44.9656656286195" lon="11.952072186993897"><ele>-1.0</ele><time>2026-04-05T14:13:00.971Z</time></trkpt><trkpt lat="44.965651944116594" lon="11.951727380497788"><ele>-1.0</ele><time>2026-04-05T14:13:01.971Z</time></trkpt><trkpt lat="44.96565272851113" lon="11.951379438350132"><ele>0.0</ele><time>2026-04-05T14:13:02.971Z</time></trkpt><trkpt lat="44.965663927369796" lon="11.951040763195294"><ele>1.0</ele><time>2026-04-05T14:13:03.971Z</time></trkpt><trkpt lat="44.96567172695392" lon="11.950707469619529"><ele>2.0</ele><time>2026-04-05T14:13:04.971Z</time></trkpt><trkpt lat="44.965686227910844" lon="11.95038154691063"><ele>3.0</ele><time>2026-04-05T14:13:05.971Z</time></trkpt><trkpt lat="44.96568620914104" lon="11.950060611626753"><ele>3.0</ele><time>2026-04-05T14:13:06.971Z</time></trkpt><trkpt lat="44.96567007996867" lon="11.9497591871415"><ele>3.0</ele><time>2026-04-05T14:13:07.971Z</time></trkpt><trkpt lat="44.96562283418352" lon="11.949474820635709"><ele>3.0</ele><time>2026-04-05T14:13:08.971Z</time></trkpt><trkpt lat="44.96555323299298" lon="11.949210984588435"><ele>2.3333333333333335</ele><time>2026-04-05T14:13:09.971Z</time></trkpt><trkpt lat="44.965479377506995" lon="11.94895736845217"><ele>1.6666666666666665</ele><time>2026-04-05T14:13:10.971Z</time></trkpt><trkpt lat="44.96540942088514" lon="11.94870731674297"><ele>1.0</ele><time>2026-04-05T14:13:11.971Z</time></trkpt><trkpt lat="44.96534650743469" lon="11.94846181087308"><ele>0.3333333333333333</ele><time>2026-04-05T14:13:12.971Z</time></trkpt><trkpt lat="44.96528830897753" lon="11.948220303362316"><ele>-0.3333333333333333</ele><time>2026-04-05T14:13:13.971Z</time></trkpt><trkpt lat="44.96522661703811" lon="11.947985327843785"><ele>-1.0</ele><time>2026-04-05T14:13:14.971Z</time></trkpt><trkpt lat="44.96518566070446" lon="11.947734652078951"><ele>-0.6666666666666666</ele><time>2026-04-05T14:13:15.971Z</time></trkpt><trkpt lat="44.96513416540788" lon="11.947473892684565"><ele>-0.3333333333333333</ele><time>2026-04-05T14:13:16.971Z</time></trkpt><trkpt lat="44.965085673866945" lon="11.947197976510653"><ele>0.0</ele><time>2026-04-05T14:13:17.971Z</time></trkpt><trkpt lat="44.9650401858888" lon="11.946906672521314"><ele>0.0</ele><time>2026-04-05T14:13:18.971Z</time></trkpt><trkpt lat="44.96502150318341" lon="11.946596767732697"><ele>0.0</ele><time>2026-04-05T14:13:19.971Z</time></trkpt><trkpt lat="44.96503083646466" lon="11.946277392758239"><ele>0.0</ele><time>2026-04-05T14:13:20.971Z</time></trkpt><trkpt lat="44.96505780859508" lon="11.94594037789864"><ele>0.0</ele><time>2026-04-05T14:13:21.971Z</time></trkpt><trkpt lat="44.96510420133806" lon="11.945597691298312"><ele>0.0</ele><time>2026-04-05T14:13:22.971Z</time></trkpt><trkpt lat="44.965161969806545" lon="11.945237116625817"><ele>-0.5</ele><time>2026-04-05T14:13:23.971Z</time></trkpt><trkpt lat="44.965222750680994" lon="11.944872614059653"><ele>-1.0</ele><time>2026-04-05T14:13:24.971Z</time></trkpt><trkpt lat="44.965285015357715" lon="11.944502966932435"><ele>-0.5</ele><time>2026-04-05T14:13:25.971Z</time></trkpt><trkpt lat="44.965344643073635" lon="11.944134559546393"><ele>0.0</ele><time>2026-04-05T14:13:26.971Z</time></trkpt><trkpt lat="44.96540018951702" lon="11.943775830759952"><ele>0.0</ele><time>2026-04-05T14:13:27.971Z</time></trkpt><trkpt lat="44.96544781950672" lon="11.943432964703014"><ele>0.0</ele><time>2026-04-05T14:13:28.971Z</time></trkpt><trkpt lat="44.965480199393824" lon="11.943096618283109"><ele>0.5</ele><time>2026-04-05T14:13:29.971Z</time></trkpt><trkpt lat="44.965492778660014" lon="11.942765689954436"><ele>1.0</ele><time>2026-04-05T14:13:30.971Z</time></trkpt><trkpt lat="44.96549556485971" lon="11.94242845492945"><ele>1.0</ele><time>2026-04-05T14:13:31.971Z</time></trkpt><trkpt lat="44.96552338055899" lon="11.94209039964674"><ele>1.0</ele><time>2026-04-05T14:13:32.971Z</time></trkpt><trkpt lat="44.96547314271547" lon="11.941738686441594"><ele>0.5</ele><time>2026-04-05T14:13:33.971Z</time></trkpt><trkpt lat="44.96547201869898" lon="11.941374817357458"><ele>0.0</ele><time>2026-04-05T14:13:34.971Z</time></trkpt><trkpt lat="44.96545876133941" lon="11.941005151637322"><ele>0.0</ele><time>2026-04-05T14:13:35.971Z</time></trkpt><trkpt lat="44.96543867623159" lon="11.940638032489883"><ele>0.0</ele><time>2026-04-05T14:13:36.971Z</time></trkpt><trkpt lat="44.96541202800447" lon="11.940274874197554"><ele>-0.5</ele><time>2026-04-05T14:13:37.971Z</time></trkpt><trkpt lat="44.9653818497153" lon="11.939909296044169"><ele>-1.0</ele><time>2026-04-05T14:13:38.971Z</time></trkpt><trkpt lat="44.96534436244655" lon="11.939551332642337"><ele>-0.5</ele><time>2026-04-05T14:13:39.971Z</time></trkpt><trkpt lat="44.96530005347748" lon="11.939196971602088"><ele>0.0</ele><time>2026-04-05T14:13:40.971Z</time></trkpt><trkpt lat="44.96524182102341" lon="11.938843991266793"><ele>0.0</ele><time>2026-04-05T14:13:41.971Z</time></trkpt><trkpt lat="44.96517208811373" lon="11.938485566830906"><ele>0.0</ele><time>2026-04-05T14:13:42.971Z</time></trkpt><trkpt lat="44.96508981920312" lon="11.938123892111165"><ele>0.0</ele><time>2026-04-05T14:13:43.971Z</time></trkpt><trkpt lat="44.96500266484258" lon="11.937764517443341"><ele>0.0</ele><time>2026-04-05T14:13:44.971Z</time></trkpt><trkpt lat="44.96492725302024" lon="11.937404686295375"><ele>0.0</ele><time>2026-04-05T14:13:45.971Z</time></trkpt><trkpt lat="44.96486003987068" lon="11.93704441834693"><ele>0.0</ele><time>2026-04-05T14:13:46.971Z</time></trkpt><trkpt lat="44.96479193167319" lon="11.936701144602388"><ele>0.0</ele><time>2026-04-05T14:13:47.971Z</time></trkpt><trkpt lat="44.96472788836521" lon="11.936381104672256"><ele>0.0</ele><time>2026-04-05T14:13:48.971Z</time></trkpt><trkpt lat="44.9646668074219" lon="11.93607198791688"><ele>0.0</ele><time>2026-04-05T14:13:49.971Z</time></trkpt><trkpt lat="44.964607019578565" lon="11.935761262954118"><ele>0.0</ele><time>2026-04-05T14:13:50.972Z</time></trkpt><trkpt lat="44.9645486856571" lon="11.935448398201292"><ele>0.0</ele><time>2026-04-05T14:13:51.972Z</time></trkpt><trkpt lat="44.964492606273296" lon="11.935132020083081"><ele>0.0</ele><time>2026-04-05T14:13:52.972Z</time></trkpt><trkpt lat="44.96444722649283" lon="11.93480527194681"><ele>0.0</ele><time>2026-04-05T14:13:53.972Z</time></trkpt><trkpt lat="44.96441624344363" lon="11.934469268272062"><ele>0.0</ele><time>2026-04-05T14:13:54.972Z</time></trkpt><trkpt lat="44.96439934740797" lon="11.93412848569758"><ele>0.0</ele><time>2026-04-05T14:13:55.972Z</time></trkpt><trkpt lat="44.96438849850054" lon="11.933789679225617"><ele>0.0</ele><time>2026-04-05T14:13:56.972Z</time></trkpt><trkpt lat="44.96437239560438" lon="11.933474493042546"><ele>0.0</ele><time>2026-04-05T14:13:57.972Z</time></trkpt><trkpt lat="44.96436656124571" lon="11.933166312168156"><ele>0.0</ele><time>2026-04-05T14:13:58.972Z</time></trkpt><trkpt lat="44.964390248792355" lon="11.932851258311404"><ele>0.0</ele><time>2026-04-05T14:13:59.972Z</time></trkpt><trkpt lat="44.964440543976075" lon="11.932547309717965"><ele>0.0</ele><time>2026-04-05T14:14:00.971Z</time></trkpt><trkpt lat="44.9645236033325" lon="11.932243176661308"><ele>0.0</ele><time>2026-04-05T14:14:01.971Z</time></trkpt><trkpt lat="44.96462761920046" lon="11.93193144819264"><ele>0.5</ele><time>2026-04-05T14:14:02.971Z</time></trkpt><trkpt lat="44.9647469580843" lon="11.931617685794501"><ele>1.0</ele><time>2026-04-05T14:14:03.972Z</time></trkpt><trkpt lat="44.964881237315794" lon="11.931306486338997"><ele>1.0</ele><time>2026-04-05T14:14:04.972Z</time></trkpt><trkpt lat="44.96502428722339" lon="11.930997325005183"><ele>1.0</ele><time>2026-04-05T14:14:05.972Z</time></trkpt><trkpt lat="44.965176588439306" lon="11.930705500026413"><ele>0.0</ele><time>2026-04-05T14:14:06.972Z</time></trkpt><trkpt lat="44.96533078398027" lon="11.930431857845292"><ele>-1.0</ele><time>2026-04-05T14:14:07.972Z</time></trkpt><trkpt lat="44.9654745096978" lon="11.93015609831045"><ele>-0.5</ele><time>2026-04-05T14:14:08.972Z</time></trkpt><trkpt lat="44.96560467597277" lon="11.929871580422493"><ele>0.0</ele><time>2026-04-05T14:14:09.972Z</time></trkpt><trkpt lat="44.965730361598624" lon="11.929575588437284"><ele>0.0</ele><time>2026-04-05T14:14:10.972Z</time></trkpt><trkpt lat="44.96584163427748" lon="11.929267039618985"><ele>0.0</ele><time>2026-04-05T14:14:11.972Z</time></trkpt><trkpt lat="44.96594011842826" lon="11.928952174973407"><ele>0.5</ele><time>2026-04-05T14:14:12.972Z</time></trkpt><trkpt lat="44.96603406895498" lon="11.928628984245645"><ele>1.0</ele><time>2026-04-05T14:14:13.972Z</time></trkpt><trkpt lat="44.96611964376545" lon="11.928301042079408"><ele>1.0</ele><time>2026-04-05T14:14:14.972Z</time></trkpt><trkpt lat="44.96620325544697" lon="11.9279741696078"><ele>1.0</ele><time>2026-04-05T14:14:15.972Z</time></trkpt><trkpt lat="44.96627372059196" lon="11.927646685363527"><ele>0.5</ele><time>2026-04-05T14:14:16.972Z</time></trkpt><trkpt lat="44.96632220210353" lon="11.927312191540155"><ele>0.0</ele><time>2026-04-05T14:14:17.972Z</time></trkpt><trkpt lat="44.96635157160273" lon="11.926972095058954"><ele>0.0</ele><time>2026-04-05T14:14:18.972Z</time></trkpt><trkpt lat="44.96637733765174" lon="11.926634851103362"><ele>0.0</ele><time>2026-04-05T14:14:19.972Z</time></trkpt><trkpt lat="44.966400576424476" lon="11.926287302534316"><ele>0.0</ele><time>2026-04-05T14:14:20.972Z</time></trkpt><trkpt lat="44.966412813240495" lon="11.925943112714675"><ele>0.0</ele><time>2026-04-05T14:14:21.972Z</time></trkpt><trkpt lat="44.96642130653302" lon="11.925593479774475"><ele>0.5</ele><time>2026-04-05T14:14:22.972Z</time></trkpt><trkpt lat="44.96640990812177" lon="11.925242131963158"><ele>1.0</ele><time>2026-04-05T14:14:23.972Z</time></trkpt><trkpt lat="44.9663701789679" lon="11.92489315965507"><ele>0.0</ele><time>2026-04-05T14:14:24.972Z</time></trkpt><trkpt lat="44.96630380890428" lon="11.924540251979476"><ele>-1.0</ele><time>2026-04-05T14:14:25.972Z</time></trkpt><trkpt lat="44.96623396097945" lon="11.924183197410295"><ele>-1.5</ele><time>2026-04-05T14:14:26.972Z</time></trkpt><trkpt lat="44.96614341238348" lon="11.92382076991457"><ele>-2.0</ele><time>2026-04-05T14:14:27.972Z</time></trkpt><trkpt lat="44.966058339489464" lon="11.923456264542686"><ele>-2.0</ele><time>2026-04-05T14:14:28.971Z</time></trkpt><trkpt lat="44.965971543657254" lon="11.923089070915722"><ele>-2.0</ele><time>2026-04-05T14:14:29.971Z</time></trkpt><trkpt lat="44.96588350899395" lon="11.922716419183166"><ele>-1.0</ele><time>2026-04-05T14:14:30.971Z</time></trkpt><trkpt lat="44.965794966876906" lon="11.92234924710578"><ele>0.0</ele><time>2026-04-05T14:14:31.971Z</time></trkpt><trkpt lat="44.96570811442414" lon="11.92197642344996"><ele>-0.5</ele><time>2026-04-05T14:14:32.971Z</time></trkpt><trkpt lat="44.965620516913106" lon="11.921610525089136"><ele>-1.0</ele><time>2026-04-05T14:14:33.971Z</time></trkpt><trkpt lat="44.9655360271396" lon="11.921244763072648"><ele>-0.5</ele><time>2026-04-05T14:14:34.971Z</time></trkpt><trkpt lat="44.965452003165275" lon="11.920882033483025"><ele>0.0</ele><time>2026-04-05T14:14:35.971Z</time></trkpt><trkpt lat="44.96536709444824" lon="11.920522355852576"><ele>0.0</ele><time>2026-04-05T14:14:36.971Z</time></trkpt><trkpt lat="44.96528372970595" lon="11.920164465463014"><ele>0.0</ele><time>2026-04-05T14:14:37.971Z</time></trkpt><trkpt lat="44.96520260097085" lon="11.919790936495284"><ele>0.0</ele><time>2026-04-05T14:14:38.971Z</time></trkpt><trkpt lat="44.96512240873859" lon="11.919429251285248"><ele>0.0</ele><time>2026-04-05T14:14:39.971Z</time></trkpt><trkpt lat="44.965038440151126" lon="11.919058078406005"><ele>0.5</ele><time>2026-04-05T14:14:40.971Z</time></trkpt><trkpt lat="44.964948950592365" lon="11.918703320272344"><ele>1.0</ele><time>2026-04-05T14:14:41.971Z</time></trkpt><trkpt lat="44.96486439407086" lon="11.918333857318455"><ele>1.0</ele><time>2026-04-05T14:14:42.971Z</time></trkpt><trkpt lat="44.96477906597269" lon="11.917961136781097"><ele>1.0</ele><time>2026-04-05T14:14:43.971Z</time></trkpt><trkpt lat="44.964697393634474" lon="11.91758997946205"><ele>0.5</ele><time>2026-04-05T14:14:44.971Z</time></trkpt><trkpt lat="44.96460928917974" lon="11.917224056424041"><ele>0.0</ele><time>2026-04-05T14:14:45.971Z</time></trkpt><trkpt lat="44.96452170096073" lon="11.916862300282665"><ele>-0.5</ele><time>2026-04-05T14:14:46.971Z</time></trkpt><trkpt lat="44.96443376222984" lon="11.916503725016815"><ele>-1.0</ele><time>2026-04-05T14:14:47.971Z</time></trkpt><trkpt lat="44.964347238017055" lon="11.916145914888315"><ele>-1.0</ele><time>2026-04-05T14:14:48.971Z</time></trkpt><trkpt lat="44.96426346731066" lon="11.915795408331405"><ele>-1.0</ele><time>2026-04-05T14:14:49.971Z</time></trkpt><trkpt lat="44.96419583406006" lon="11.915431634926243"><ele>-1.0</ele><time>2026-04-05T14:14:50.971Z</time></trkpt><trkpt lat="44.96411430427996" lon="11.915073114544139"><ele>-1.0</ele><time>2026-04-05T14:14:51.971Z</time></trkpt><trkpt lat="44.96403344349619" lon="11.914716642613588"><ele>-1.0</ele><time>2026-04-05T14:14:52.971Z</time></trkpt><trkpt lat="44.96395290941999" lon="11.91436110407487"><ele>-1.0</ele><time>2026-04-05T14:14:53.971Z</time></trkpt><trkpt lat="44.96387429906607" lon="11.914014058253935"><ele>-1.0</ele><time>2026-04-05T14:14:54.971Z</time></trkpt><trkpt lat="44.96378055670834" lon="11.913689725404126"><ele>-1.0</ele><time>2026-04-05T14:14:55.971Z</time></trkpt><trkpt lat="44.96370951585692" lon="11.913363075238983"><ele>-1.0</ele><time>2026-04-05T14:14:56.971Z</time></trkpt><trkpt lat="44.963645005702844" lon="11.913046824505718"><ele>-1.0</ele><time>2026-04-05T14:14:57.971Z</time></trkpt><trkpt lat="44.9635748625652" lon="11.91274330457079"><ele>-1.0</ele><time>2026-04-05T14:14:58.971Z</time></trkpt><trkpt lat="44.96350462066257" lon="11.912442590066329"><ele>-1.0</ele><time>2026-04-05T14:14:59.971Z</time></trkpt><trkpt lat="44.96343754870589" lon="11.912150779871286"><ele>-1.0</ele><time>2026-04-05T14:15:00.971Z</time></trkpt><trkpt lat="44.96337308828432" lon="11.911859379586495"><ele>-0.3333333333333333</ele><time>2026-04-05T14:15:01.971Z</time></trkpt><trkpt lat="44.96331091914221" lon="11.911570579752302"><ele>0.3333333333333333</ele><time>2026-04-05T14:15:02.971Z</time></trkpt><trkpt lat="44.96324789764795" lon="11.911288497670343"><ele>1.0</ele><time>2026-04-05T14:15:03.971Z</time></trkpt><trkpt lat="44.96318820431024" lon="11.911018814139824"><ele>1.0</ele><time>2026-04-05T14:15:04.971Z</time></trkpt><trkpt lat="44.96312857756556" lon="11.910753867017831"><ele>1.0</ele><time>2026-04-05T14:15:05.971Z</time></trkpt><trkpt lat="44.96306190081246" lon="11.910496563312002"><ele>1.0</ele><time>2026-04-05T14:15:06.971Z</time></trkpt><trkpt lat="44.962992107670075" lon="11.910252966947299"><ele>1.0</ele><time>2026-04-05T14:15:07.971Z</time></trkpt><trkpt lat="44.96291402556873" lon="11.909999099520201"><ele>1.0</ele><time>2026-04-05T14:15:08.971Z</time></trkpt><trkpt lat="44.962817962107614" lon="11.90976280633452"><ele>1.0</ele><time>2026-04-05T14:15:09.971Z</time></trkpt><trkpt lat="44.96272590328668" lon="11.909517052469766"><ele>1.0</ele><time>2026-04-05T14:15:10.971Z</time></trkpt><trkpt lat="44.96262087436796" lon="11.909270799883778"><ele>1.0</ele><time>2026-04-05T14:15:11.971Z</time></trkpt><trkpt lat="44.962517149754824" lon="11.908980415068731"><ele>1.0</ele><time>2026-04-05T14:15:12.971Z</time></trkpt><trkpt lat="44.96239184299578" lon="11.908715622580191"><ele>0.5</ele><time>2026-04-05T14:15:13.971Z</time></trkpt><trkpt lat="44.962229374383504" lon="11.908445041864926"><ele>0.0</ele><time>2026-04-05T14:15:14.968Z</time></trkpt><trkpt lat="44.96207346163671" lon="11.90816997745524"><ele>0.0</ele><time>2026-04-05T14:15:15.965Z</time></trkpt><trkpt lat="44.96191663951219" lon="11.907898498467361"><ele>0.0</ele><time>2026-04-05T14:15:16.962Z</time></trkpt><trkpt lat="44.96175769298765" lon="11.907607133303307"><ele>0.0</ele><time>2026-04-05T14:15:17.96Z</time></trkpt><trkpt lat="44.961596196784505" lon="11.907301432658075"><ele>0.0</ele><time>2026-04-05T14:15:18.957Z</time></trkpt><trkpt lat="44.96143228120096" lon="11.907000363968743"><ele>0.0</ele><time>2026-04-05T14:15:19.955Z</time></trkpt><trkpt lat="44.961269521659545" lon="11.906695274940882"><ele>0.0</ele><time>2026-04-05T14:15:20.953Z</time></trkpt><trkpt lat="44.96111018638582" lon="11.906398649545535"><ele>0.0</ele><time>2026-04-05T14:15:21.951Z</time></trkpt><trkpt lat="44.960953252259195" lon="11.90611292827574"><ele>0.0</ele><time>2026-04-05T14:15:22.949Z</time></trkpt><trkpt lat="44.960598643947314" lon="11.90557778524016"><ele>0.0</ele><time>2026-04-05T14:15:24.946Z</time></trkpt><trkpt lat="44.9604073018548" lon="11.905317857016863"><ele>0.0</ele><time>2026-04-05T14:15:25.944Z</time></trkpt><trkpt lat="44.96021160675305" lon="11.905051615845538"><ele>1.0</ele><time>2026-04-05T14:15:26.943Z</time></trkpt><trkpt lat="44.96001252442324" lon="11.904790693651588"><ele>2.0</ele><time>2026-04-05T14:15:27.941Z</time></trkpt><trkpt lat="44.959811712780194" lon="11.904535890162107"><ele>2.0</ele><time>2026-04-05T14:15:28.94Z</time></trkpt><trkpt lat="44.959612051609525" lon="11.90428135630316"><ele>2.0</ele><time>2026-04-05T14:15:29.939Z</time></trkpt><trkpt lat="44.95941888746362" lon="11.90402552372279"><ele>1.0</ele><time>2026-04-05T14:15:30.938Z</time></trkpt><trkpt lat="44.959228630321945" lon="11.903773459569365"><ele>0.0</ele><time>2026-04-05T14:15:31.936Z</time></trkpt><trkpt lat="44.9590418754125" lon="11.903524580379708"><ele>0.0</ele><time>2026-04-05T14:15:32.935Z</time></trkpt><trkpt lat="44.95886875022686" lon="11.903260312265596"><ele>0.0</ele><time>2026-04-05T14:15:33.935Z</time></trkpt><trkpt lat="44.95869655232417" lon="11.903015186329506"><ele>0.0</ele><time>2026-04-05T14:15:34.934Z</time></trkpt><trkpt lat="44.9585317504926" lon="11.902768695293092"><ele>0.0</ele><time>2026-04-05T14:15:35.933Z</time></trkpt><trkpt lat="44.958378810374484" lon="11.902531338727353"><ele>0.5</ele><time>2026-04-05T14:15:36.932Z</time></trkpt><trkpt lat="44.9582303273324" lon="11.902280413954408"><ele>1.0</ele><time>2026-04-05T14:15:37.931Z</time></trkpt><trkpt lat="44.9580779042023" lon="11.902036083455732"><ele>1.0</ele><time>2026-04-05T14:15:38.931Z</time></trkpt><trkpt lat="44.95790927894007" lon="11.901796233530865"><ele>1.0</ele><time>2026-04-05T14:15:39.93Z</time></trkpt><trkpt lat="44.957732968368575" lon="11.901556782577693"><ele>1.0</ele><time>2026-04-05T14:15:40.929Z</time></trkpt><trkpt lat="44.95754964896723" lon="11.901304860520824"><ele>1.0</ele><time>2026-04-05T14:15:41.929Z</time></trkpt><trkpt lat="44.95736185042454" lon="11.901044393348508"><ele>-0.5</ele><time>2026-04-05T14:15:42.928Z</time></trkpt><trkpt lat="44.95717229679286" lon="11.900781118758632"><ele>-2.0</ele><time>2026-04-05T14:15:43.928Z</time></trkpt><trkpt lat="44.95697850321912" lon="11.900509813774105"><ele>-2.0</ele><time>2026-04-05T14:15:44.927Z</time></trkpt><trkpt lat="44.95678049206249" lon="11.900233640493822"><ele>-2.0</ele><time>2026-04-05T14:15:45.927Z</time></trkpt><trkpt lat="44.95658085432719" lon="11.8999555723656"><ele>-2.5</ele><time>2026-04-05T14:15:46.926Z</time></trkpt><trkpt lat="44.95638004533659" lon="11.899677046846248"><ele>-3.0</ele><time>2026-04-05T14:15:47.926Z</time></trkpt><trkpt lat="44.95617382885256" lon="11.899404638321764"><ele>-3.0</ele><time>2026-04-05T14:15:48.926Z</time></trkpt><trkpt lat="44.95596875591992" lon="11.899132001172644"><ele>-3.0</ele><time>2026-04-05T14:15:49.925Z</time></trkpt><trkpt lat="44.955766287583494" lon="11.898858440347238"><ele>-3.0</ele><time>2026-04-05T14:15:50.925Z</time></trkpt><trkpt lat="44.955575598231675" lon="11.898608639682013"><ele>-3.0</ele><time>2026-04-05T14:15:51.925Z</time></trkpt><trkpt lat="44.95539958138702" lon="11.898379830956749"><ele>-3.0</ele><time>2026-04-05T14:15:52.924Z</time></trkpt><trkpt lat="44.955241266131594" lon="11.898162723949365"><ele>-3.0</ele><time>2026-04-05T14:15:53.924Z</time></trkpt><trkpt lat="44.95509818504686" lon="11.897946168219919"><ele>-3.0</ele><time>2026-04-05T14:15:54.924Z</time></trkpt><trkpt lat="44.95496740111775" lon="11.897697990499784"><ele>-2.5</ele><time>2026-04-05T14:15:55.923Z</time></trkpt><trkpt lat="44.95485152559263" lon="11.897417319126388"><ele>-2.0</ele><time>2026-04-05T14:15:56.924Z</time></trkpt><trkpt lat="44.954739163303806" lon="11.897120849292387"><ele>-2.0</ele><time>2026-04-05T14:15:57.924Z</time></trkpt><trkpt lat="44.95463111434591" lon="11.896818001748988"><ele>-2.0</ele><time>2026-04-05T14:15:58.924Z</time></trkpt><trkpt lat="44.95452577421574" lon="11.89651545359537"><ele>-2.0</ele><time>2026-04-05T14:15:59.924Z</time></trkpt><trkpt lat="44.95443141643478" lon="11.896228991597901"><ele>-2.0</ele><time>2026-04-05T14:16:00.923Z</time></trkpt><trkpt lat="44.954348728280976" lon="11.895968637695143"><ele>-2.0</ele><time>2026-04-05T14:16:01.923Z</time></trkpt><trkpt lat="44.95428483808768" lon="11.89570928535483"><ele>-2.333333333333333</ele><time>2026-04-05T14:16:02.923Z</time></trkpt><trkpt lat="44.95425438786682" lon="11.895436374608034"><ele>-2.6666666666666665</ele><time>2026-04-05T14:16:03.923Z</time></trkpt><trkpt lat="44.95424678908187" lon="11.8951436310634"><ele>-3.0</ele><time>2026-04-05T14:16:04.923Z</time></trkpt><trkpt lat="44.95425649162047" lon="11.89483574732633"><ele>-3.5</ele><time>2026-04-05T14:16:05.923Z</time></trkpt><trkpt lat="44.95427222874584" lon="11.894503123872855"><ele>-4.0</ele><time>2026-04-05T14:16:06.923Z</time></trkpt><trkpt lat="44.954296163115764" lon="11.894156195963902"><ele>-3.0</ele><time>2026-04-05T14:16:07.923Z</time></trkpt><trkpt lat="44.95431765171086" lon="11.893796151390125"><ele>-2.0</ele><time>2026-04-05T14:16:08.922Z</time></trkpt><trkpt lat="44.95434159581049" lon="11.893435874291058"><ele>-2.5</ele><time>2026-04-05T14:16:09.922Z</time></trkpt><trkpt lat="44.95436556438039" lon="11.893065543955169"><ele>-3.0</ele><time>2026-04-05T14:16:10.922Z</time></trkpt><trkpt lat="44.95438537202443" lon="11.892692640710589"><ele>-2.5</ele><time>2026-04-05T14:16:11.922Z</time></trkpt><trkpt lat="44.954408697088034" lon="11.892315948243724"><ele>-2.0</ele><time>2026-04-05T14:16:12.922Z</time></trkpt><trkpt lat="44.95443389464881" lon="11.891935269716184"><ele>-2.0</ele><time>2026-04-05T14:16:13.922Z</time></trkpt><trkpt lat="44.954458466091346" lon="11.891551842332207"><ele>-2.0</ele><time>2026-04-05T14:16:14.922Z</time></trkpt><trkpt lat="44.954476355763724" lon="11.891168083585239"><ele>-2.5</ele><time>2026-04-05T14:16:15.922Z</time></trkpt><trkpt lat="44.954489374625624" lon="11.89078147253144"><ele>-3.0</ele><time>2026-04-05T14:16:16.922Z</time></trkpt><trkpt lat="44.954508825736745" lon="11.890392368324422"><ele>-2.5</ele><time>2026-04-05T14:16:17.922Z</time></trkpt><trkpt lat="44.95453611161226" lon="11.890004033885289"><ele>-2.0</ele><time>2026-04-05T14:16:18.922Z</time></trkpt><trkpt lat="44.95456222569437" lon="11.889632504494385"><ele>-2.0</ele><time>2026-04-05T14:16:19.922Z</time></trkpt><trkpt lat="44.95458388742238" lon="11.88927221443908"><ele>-2.0</ele><time>2026-04-05T14:16:20.921Z</time></trkpt><trkpt lat="44.95460705391964" lon="11.88892897516581"><ele>-1.6666666666666665</ele><time>2026-04-05T14:16:21.921Z</time></trkpt><trkpt lat="44.9546251611215" lon="11.888615306145727"><ele>-1.3333333333333333</ele><time>2026-04-05T14:16:22.921Z</time></trkpt><trkpt lat="44.954643721368654" lon="11.888322022165715"><ele>-1.0</ele><time>2026-04-05T14:16:23.921Z</time></trkpt><trkpt lat="44.954659697227065" lon="11.888053272472279"><ele>-1.0</ele><time>2026-04-05T14:16:24.921Z</time></trkpt><trkpt lat="44.954673061314125" lon="11.88780562370862"><ele>-1.0</ele><time>2026-04-05T14:16:25.921Z</time></trkpt><trkpt lat="44.95467545280247" lon="11.887573686380515"><ele>-1.0</ele><time>2026-04-05T14:16:26.921Z</time></trkpt><trkpt lat="44.95466429345193" lon="11.88735951234461"><ele>-1.0</ele><time>2026-04-05T14:16:27.921Z</time></trkpt><trkpt lat="44.95463624699831" lon="11.887160198967205"><ele>-1.0</ele><time>2026-04-05T14:16:28.921Z</time></trkpt><trkpt lat="44.954593385818356" lon="11.886973495138115"><ele>-1.0</ele><time>2026-04-05T14:16:29.921Z</time></trkpt><trkpt lat="44.95453629003982" lon="11.886813221770975"><ele>-1.0</ele><time>2026-04-05T14:16:30.921Z</time></trkpt><trkpt lat="44.95447255838541" lon="11.88668632805584"><ele>-0.6666666666666666</ele><time>2026-04-05T14:16:31.921Z</time></trkpt><trkpt lat="44.95441000490226" lon="11.886586316917642"><ele>-0.3333333333333333</ele><time>2026-04-05T14:16:32.921Z</time></trkpt><trkpt lat="44.95436214787118" lon="11.886505976602674"><ele>0.0</ele><time>2026-04-05T14:16:33.921Z</time></trkpt><trkpt lat="44.954333212693584" lon="11.886425202702569"><ele>0.3333333333333333</ele><time>2026-04-05T14:16:34.921Z</time></trkpt><trkpt lat="44.95435411439154" lon="11.886247967628215"><ele>0.6666666666666666</ele><time>2026-04-05T14:16:36.921Z</time></trkpt><trkpt lat="44.95441730714561" lon="11.886167353917545"><ele>1.0</ele><time>2026-04-05T14:16:37.92Z</time></trkpt><trkpt lat="44.954513371809426" lon="11.886133978928198"><ele>1.0</ele><time>2026-04-05T14:16:38.92Z</time></trkpt><trkpt lat="44.954642685855525" lon="11.886144657461578"><ele>1.0</ele><time>2026-04-05T14:16:39.92Z</time></trkpt><trkpt lat="44.95479322717433" lon="11.886173902237935"><ele>1.0</ele><time>2026-04-05T14:16:40.92Z</time></trkpt><trkpt lat="44.954963238073184" lon="11.886202851916412"><ele>0.0</ele><time>2026-04-05T14:16:41.92Z</time></trkpt><trkpt lat="44.95514873524012" lon="11.886227232498019"><ele>-1.0</ele><time>2026-04-05T14:16:42.92Z</time></trkpt><trkpt lat="44.955351421588716" lon="11.88626729600357"><ele>-2.0</ele><time>2026-04-05T14:16:43.92Z</time></trkpt><trkpt lat="44.95557084760728" lon="11.88630625864263"><ele>-2.0</ele><time>2026-04-05T14:16:44.92Z</time></trkpt><trkpt lat="44.95580559465266" lon="11.886347923473464"><ele>-2.0</ele><time>2026-04-05T14:16:45.92Z</time></trkpt><trkpt lat="44.956047034206215" lon="11.886388590704662"><ele>-1.5</ele><time>2026-04-05T14:16:46.92Z</time></trkpt><trkpt lat="44.956300131776636" lon="11.886438698434587"><ele>-1.0</ele><time>2026-04-05T14:16:47.92Z</time></trkpt><trkpt lat="44.95656227205021" lon="11.886474708578739"><ele>-1.0</ele><time>2026-04-05T14:16:48.92Z</time></trkpt><trkpt lat="44.95683531792084" lon="11.886519432388772"><ele>-1.0</ele><time>2026-04-05T14:16:49.92Z</time></trkpt><trkpt lat="44.95711328071107" lon="11.886571100801591"><ele>-1.0</ele><time>2026-04-05T14:16:50.92Z</time></trkpt><trkpt lat="44.95739318840888" lon="11.886615302326886"><ele>-1.0</ele><time>2026-04-05T14:16:51.92Z</time></trkpt><trkpt lat="44.95767208198089" lon="11.886659537380373"><ele>-1.0</ele><time>2026-04-05T14:16:52.92Z</time></trkpt><trkpt lat="44.957945711755315" lon="11.88673044245792"><ele>-1.0</ele><time>2026-04-05T14:16:53.92Z</time></trkpt><trkpt lat="44.95821963524896" lon="11.886779597534478"><ele>-1.5</ele><time>2026-04-05T14:16:54.92Z</time></trkpt><trkpt lat="44.95849167870044" lon="11.8868297216859"><ele>-2.0</ele><time>2026-04-05T14:16:55.92Z</time></trkpt><trkpt lat="44.95876511720553" lon="11.886880040340795"><ele>-2.0</ele><time>2026-04-05T14:16:56.92Z</time></trkpt><trkpt lat="44.95903822538196" lon="11.886929106668655"><ele>-2.0</ele><time>2026-04-05T14:16:57.92Z</time></trkpt><trkpt lat="44.959309968704204" lon="11.88697792780656"><ele>-1.5</ele><time>2026-04-05T14:16:58.92Z</time></trkpt><trkpt lat="44.95958397912476" lon="11.887027156229257"><ele>-1.0</ele><time>2026-04-05T14:16:59.92Z</time></trkpt><trkpt lat="44.95985571579905" lon="11.887075596718917"><ele>-1.5</ele><time>2026-04-05T14:17:00.92Z</time></trkpt><trkpt lat="44.960125947591614" lon="11.887123286323646"><ele>-2.0</ele><time>2026-04-05T14:17:01.92Z</time></trkpt><trkpt lat="44.96040006437961" lon="11.887171661493694"><ele>-2.0</ele><time>2026-04-05T14:17:02.92Z</time></trkpt><trkpt lat="44.96067130119391" lon="11.887219530401909"><ele>-2.0</ele><time>2026-04-05T14:17:03.92Z</time></trkpt><trkpt lat="44.960936922629664" lon="11.887267499274243"><ele>-1.0</ele><time>2026-04-05T14:17:04.919Z</time></trkpt><trkpt lat="44.961195126247645" lon="11.887314443911155"><ele>0.0</ele><time>2026-04-05T14:17:05.919Z</time></trkpt><trkpt lat="44.96143520317094" lon="11.887358092903582"><ele>0.0</ele><time>2026-04-05T14:17:06.919Z</time></trkpt><trkpt lat="44.96166120742313" lon="11.887399183284627"><ele>0.0</ele><time>2026-04-05T14:17:07.919Z</time></trkpt><trkpt lat="44.96187143275813" lon="11.887437404877561"><ele>0.0</ele><time>2026-04-05T14:17:08.919Z</time></trkpt><trkpt lat="44.96207835209953" lon="11.88747502539583"><ele>0.0</ele><time>2026-04-05T14:17:09.919Z</time></trkpt><trkpt lat="44.96229164190541" lon="11.887513804161653"><ele>0.0</ele><time>2026-04-05T14:17:10.919Z</time></trkpt><trkpt lat="44.962503696184896" lon="11.887551785878792"><ele>0.0</ele><time>2026-04-05T14:17:11.919Z</time></trkpt><trkpt lat="44.96272091506863" lon="11.887590581286407"><ele>0.0</ele><time>2026-04-05T14:17:12.919Z</time></trkpt><trkpt lat="44.962936272331824" lon="11.88762904420399"><ele>0.0</ele><time>2026-04-05T14:17:13.919Z</time></trkpt><trkpt lat="44.96315491691389" lon="11.887668094250373"><ele>0.0</ele><time>2026-04-05T14:17:14.919Z</time></trkpt><trkpt lat="44.9633634199159" lon="11.887705333007005"><ele>0.0</ele><time>2026-04-05T14:17:15.919Z</time></trkpt><trkpt lat="44.963559705321" lon="11.887740389678541"><ele>0.0</ele><time>2026-04-05T14:17:16.919Z</time></trkpt><trkpt lat="44.96374060931046" lon="11.88777269922417"><ele>0.0</ele><time>2026-04-05T14:17:17.919Z</time></trkpt><trkpt lat="44.963915043060474" lon="11.887803093181963"><ele>0.0</ele><time>2026-04-05T14:17:18.919Z</time></trkpt><trkpt lat="44.96407328783396" lon="11.88783033219411"><ele>0.0</ele><time>2026-04-05T14:17:19.919Z</time></trkpt><trkpt lat="44.96422100836297" lon="11.887855759658818"><ele>0.0</ele><time>2026-04-05T14:17:20.919Z</time></trkpt><trkpt lat="44.964354205725506" lon="11.887871544816331"><ele>0.0</ele><time>2026-04-05T14:17:21.919Z</time></trkpt><trkpt lat="44.96447157692772" lon="11.887891416745605"><ele>0.0</ele><time>2026-04-05T14:17:22.919Z</time></trkpt><trkpt lat="44.96459057104669" lon="11.8879193729905"><ele>0.0</ele><time>2026-04-05T14:17:23.919Z</time></trkpt><trkpt lat="44.96473229160945" lon="11.887852609912066"><ele>0.0</ele><time>2026-04-05T14:17:24.919Z</time></trkpt><trkpt lat="44.96487736346486" lon="11.88780442885681"><ele>0.0</ele><time>2026-04-05T14:17:25.919Z</time></trkpt><trkpt lat="44.96503567141405" lon="11.887731868058133"><ele>-0.3333333333333333</ele><time>2026-04-05T14:17:26.919Z</time></trkpt><trkpt lat="44.965190927222984" lon="11.887626908883849"><ele>-0.6666666666666666</ele><time>2026-04-05T14:17:27.919Z</time></trkpt><trkpt lat="44.9653370103551" lon="11.887487624771577"><ele>-1.0</ele><time>2026-04-05T14:17:28.919Z</time></trkpt><trkpt lat="44.9654723301002" lon="11.887319895611215"><ele>-0.3333333333333333</ele><time>2026-04-05T14:17:29.919Z</time></trkpt><trkpt lat="44.96559839668787" lon="11.887123052066523"><ele>0.3333333333333333</ele><time>2026-04-05T14:17:30.919Z</time></trkpt><trkpt lat="44.965715361309954" lon="11.886891460555681"><ele>1.0</ele><time>2026-04-05T14:17:31.919Z</time></trkpt><trkpt lat="44.96582217371836" lon="11.886656557128687"><ele>1.0</ele><time>2026-04-05T14:17:32.919Z</time></trkpt><trkpt lat="44.96593038923666" lon="11.886409896992342"><ele>1.0</ele><time>2026-04-05T14:17:33.919Z</time></trkpt><trkpt lat="44.96604507251496" lon="11.886149568550655"><ele>1.0</ele><time>2026-04-05T14:17:34.919Z</time></trkpt><trkpt lat="44.96615804436535" lon="11.885873527119713"><ele>1.0</ele><time>2026-04-05T14:17:35.918Z</time></trkpt><trkpt lat="44.96628031930126" lon="11.885619779696603"><ele>1.0</ele><time>2026-04-05T14:17:36.918Z</time></trkpt><trkpt lat="44.96639004949308" lon="11.885378388826648"><ele>1.0</ele><time>2026-04-05T14:17:37.918Z</time></trkpt><trkpt lat="44.966485684547756" lon="11.885166273023222"><ele>1.0</ele><time>2026-04-05T14:17:38.918Z</time></trkpt><trkpt lat="44.96656259715872" lon="11.884987137455884"><ele>1.0</ele><time>2026-04-05T14:17:39.918Z</time></trkpt><trkpt lat="44.96662940099607" lon="11.884840239020406"><ele>1.0</ele><time>2026-04-05T14:17:40.918Z</time></trkpt><trkpt lat="44.966678950511636" lon="11.884709259277557"><ele>1.0</ele><time>2026-04-05T14:17:41.918Z</time></trkpt><trkpt lat="44.96674870890689" lon="11.884635420959636"><ele>0.4</ele><time>2026-04-05T14:17:42.918Z</time></trkpt><trkpt lat="44.96683303487486" lon="11.88463293176606"><ele>-0.19999999999999996</ele><time>2026-04-05T14:17:43.918Z</time></trkpt><trkpt lat="44.96689892979055" lon="11.884623074303088"><ele>-0.8000000000000002</ele><time>2026-04-05T14:17:44.918Z</time></trkpt><trkpt lat="44.96699377397557" lon="11.884622751461519"><ele>-1.4000000000000001</ele><time>2026-04-05T14:17:46.918Z</time></trkpt><trkpt lat="44.967031104967" lon="11.884433353792812"><ele>-2.0</ele><time>2026-04-05T14:17:47.918Z</time></trkpt><trkpt lat="44.96703486476482" lon="11.884298301526954"><ele>-2.0</ele><time>2026-04-05T14:17:48.918Z</time></trkpt><trkpt lat="44.9670689998767" lon="11.884137097367262"><ele>-2.0</ele><time>2026-04-05T14:17:49.918Z</time></trkpt><trkpt lat="44.967117448913946" lon="11.883950866903811"><ele>-2.0</ele><time>2026-04-05T14:17:50.918Z</time></trkpt><trkpt lat="44.967189265534614" lon="11.883756139652586"><ele>-2.0</ele><time>2026-04-05T14:17:51.918Z</time></trkpt><trkpt lat="44.96724967108125" lon="11.883515415271532"><ele>-2.0</ele><time>2026-04-05T14:17:52.918Z</time></trkpt><trkpt lat="44.967331190501916" lon="11.8832611528431"><ele>-2.0</ele><time>2026-04-05T14:17:53.918Z</time></trkpt><trkpt lat="44.96742994091969" lon="11.882995668529306"><ele>-2.0</ele><time>2026-04-05T14:17:54.918Z</time></trkpt><trkpt lat="44.967548115156696" lon="11.882720210533469"><ele>-2.0</ele><time>2026-04-05T14:17:55.918Z</time></trkpt><trkpt lat="44.96767439858497" lon="11.8824534439157"><ele>-2.0</ele><time>2026-04-05T14:17:56.918Z</time></trkpt><trkpt lat="44.9678056644857" lon="11.88218553082181"><ele>-2.0</ele><time>2026-04-05T14:17:57.918Z</time></trkpt><trkpt lat="44.96794022276449" lon="11.8819139091606"><ele>-2.0</ele><time>2026-04-05T14:17:58.918Z</time></trkpt><trkpt lat="44.968083161857535" lon="11.881644226375345"><ele>-1.0</ele><time>2026-04-05T14:17:59.918Z</time></trkpt><trkpt lat="44.96823705000627" lon="11.8813788185876"><ele>0.0</ele><time>2026-04-05T14:18:00.918Z</time></trkpt><trkpt lat="44.96839870560546" lon="11.881116373069739"><ele>0.5</ele><time>2026-04-05T14:18:01.918Z</time></trkpt><trkpt lat="44.96855523656557" lon="11.880845767835915"><ele>1.0</ele><time>2026-04-05T14:18:02.918Z</time></trkpt><trkpt lat="44.96870729535176" lon="11.880569259100541"><ele>1.0</ele><time>2026-04-05T14:18:03.919Z</time></trkpt><trkpt lat="44.968849760510636" lon="11.880286101416374"><ele>1.0</ele><time>2026-04-05T14:18:04.919Z</time></trkpt><trkpt lat="44.96898902603116" lon="11.88000613453385"><ele>1.0</ele><time>2026-04-05T14:18:05.918Z</time></trkpt><trkpt lat="44.96912379756442" lon="11.879737367233085"><ele>1.0</ele><time>2026-04-05T14:18:06.918Z</time></trkpt><trkpt lat="44.96924938316759" lon="11.879498196031092"><ele>1.0</ele><time>2026-04-05T14:18:07.918Z</time></trkpt><trkpt lat="44.96936411703119" lon="11.879266272231915"><ele>1.3333333333333333</ele><time>2026-04-05T14:18:08.918Z</time></trkpt><trkpt lat="44.96947325016405" lon="11.879029685166522"><ele>1.6666666666666665</ele><time>2026-04-05T14:18:09.919Z</time></trkpt><trkpt lat="44.96956545932222" lon="11.878780632772923"><ele>2.0</ele><time>2026-04-05T14:18:10.919Z</time></trkpt><trkpt lat="44.96963096337373" lon="11.878508831187194"><ele>2.6666666666666665</ele><time>2026-04-05T14:18:11.918Z</time></trkpt><trkpt lat="44.96966616382549" lon="11.878204949852082"><ele>3.333333333333333</ele><time>2026-04-05T14:18:12.919Z</time></trkpt><trkpt lat="44.969685644408735" lon="11.877887653136037"><ele>4.0</ele><time>2026-04-05T14:18:13.919Z</time></trkpt><trkpt lat="44.9696886411691" lon="11.877539560000013"><ele>5.0</ele><time>2026-04-05T14:18:14.919Z</time></trkpt><trkpt lat="44.96969327638792" lon="11.877169102645222"><ele>6.0</ele><time>2026-04-05T14:18:15.918Z</time></trkpt><trkpt lat="44.969708394403874" lon="11.876795847867337"><ele>5.0</ele><time>2026-04-05T14:18:16.918Z</time></trkpt><trkpt lat="44.969723850889544" lon="11.876413828864608"><ele>4.0</ele><time>2026-04-05T14:18:17.918Z</time></trkpt><trkpt lat="44.96974083637418" lon="11.87602560667047"><ele>2.5</ele><time>2026-04-05T14:18:18.918Z</time></trkpt><trkpt lat="44.969753700134696" lon="11.875639935284156"><ele>1.0</ele><time>2026-04-05T14:18:19.918Z</time></trkpt><trkpt lat="44.96977614439879" lon="11.875258471725436"><ele>0.5</ele><time>2026-04-05T14:18:20.918Z</time></trkpt><trkpt lat="44.96979578366864" lon="11.874870893430854"><ele>0.0</ele><time>2026-04-05T14:18:21.918Z</time></trkpt><trkpt lat="44.96981928510556" lon="11.874486581959516"><ele>0.0</ele><time>2026-04-05T14:18:22.918Z</time></trkpt><trkpt lat="44.969838215562824" lon="11.8741266599389"><ele>0.0</ele><time>2026-04-05T14:18:23.918Z</time></trkpt><trkpt lat="44.96985304458009" lon="11.873790616174904"><ele>0.0</ele><time>2026-04-05T14:18:24.918Z</time></trkpt><trkpt lat="44.96986724623276" lon="11.873467891548211"><ele>0.0</ele><time>2026-04-05T14:18:25.918Z</time></trkpt><trkpt lat="44.969893152372826" lon="11.873141653310531"><ele>0.5</ele><time>2026-04-05T14:18:26.918Z</time></trkpt><trkpt lat="44.96994551704683" lon="11.87280583105943"><ele>1.0</ele><time>2026-04-05T14:18:27.918Z</time></trkpt><trkpt lat="44.9700138562926" lon="11.872469124594708"><ele>2.5</ele><time>2026-04-05T14:18:28.918Z</time></trkpt><trkpt lat="44.970103258551646" lon="11.872129310005477"><ele>4.0</ele><time>2026-04-05T14:18:29.918Z</time></trkpt><trkpt lat="44.97019047890216" lon="11.871775848061628"><ele>3.0</ele><time>2026-04-05T14:18:30.918Z</time></trkpt><trkpt lat="44.970285793624036" lon="11.871436534361294"><ele>2.0</ele><time>2026-04-05T14:18:31.918Z</time></trkpt><trkpt lat="44.970378905138965" lon="11.8710953689813"><ele>1.5</ele><time>2026-04-05T14:18:32.918Z</time></trkpt><trkpt lat="44.970463932317024" lon="11.870753199797196"><ele>1.0</ele><time>2026-04-05T14:18:33.918Z</time></trkpt><trkpt lat="44.970548760886395" lon="11.870421533732529"><ele>1.0</ele><time>2026-04-05T14:18:34.918Z</time></trkpt><trkpt lat="44.970630652916824" lon="11.870097472737212"><ele>1.0</ele><time>2026-04-05T14:18:35.918Z</time></trkpt><trkpt lat="44.97070884142079" lon="11.869788151265213"><ele>1.0</ele><time>2026-04-05T14:18:36.918Z</time></trkpt><trkpt lat="44.97078333671435" lon="11.869492660044136"><ele>1.0</ele><time>2026-04-05T14:18:37.918Z</time></trkpt><trkpt lat="44.970829624789445" lon="11.869201390245719"><ele>1.0</ele><time>2026-04-05T14:18:38.917Z</time></trkpt><trkpt lat="44.970839523917995" lon="11.868910844838085"><ele>1.3333333333333333</ele><time>2026-04-05T14:18:39.917Z</time></trkpt><trkpt lat="44.97081589724726" lon="11.86863841388579"><ele>1.6666666666666665</ele><time>2026-04-05T14:18:40.917Z</time></trkpt><trkpt lat="44.97075445765642" lon="11.86837502213678"><ele>2.0</ele><time>2026-04-05T14:18:41.917Z</time></trkpt><trkpt lat="44.97066608014079" lon="11.868108909366462"><ele>2.0</ele><time>2026-04-05T14:18:42.917Z</time></trkpt><trkpt lat="44.97056004795681" lon="11.867824363666358"><ele>2.0</ele><time>2026-04-05T14:18:43.917Z</time></trkpt><trkpt lat="44.97046518418244" lon="11.867522419964464"><ele>3.0</ele><time>2026-04-05T14:18:44.917Z</time></trkpt><trkpt lat="44.97040358011706" lon="11.867201622037568"><ele>4.0</ele><time>2026-04-05T14:18:45.917Z</time></trkpt><trkpt lat="44.97036200091124" lon="11.866864788319225"><ele>4.0</ele><time>2026-04-05T14:18:46.917Z</time></trkpt><trkpt lat="44.970341880058996" lon="11.866529102976102"><ele>4.0</ele><time>2026-04-05T14:18:47.917Z</time></trkpt><trkpt lat="44.97031633512704" lon="11.866192039961344"><ele>4.5</ele><time>2026-04-05T14:18:48.917Z</time></trkpt><trkpt lat="44.970268510827694" lon="11.865855902862119"><ele>5.0</ele><time>2026-04-05T14:18:49.917Z</time></trkpt><trkpt lat="44.97019077414655" lon="11.86551578458845"><ele>5.0</ele><time>2026-04-05T14:18:50.917Z</time></trkpt><trkpt lat="44.97008859706707" lon="11.865163327503724"><ele>5.0</ele><time>2026-04-05T14:18:51.917Z</time></trkpt><trkpt lat="44.96997010767045" lon="11.864807568444743"><ele>3.0</ele><time>2026-04-05T14:18:52.917Z</time></trkpt><trkpt lat="44.96985440854549" lon="11.864448075119583"><ele>1.0</ele><time>2026-04-05T14:18:53.917Z</time></trkpt><trkpt lat="44.96974023614608" lon="11.864083156874477"><ele>1.0</ele><time>2026-04-05T14:18:54.917Z</time></trkpt><trkpt lat="44.969622329423764" lon="11.8637206352998"><ele>1.0</ele><time>2026-04-05T14:18:55.917Z</time></trkpt><trkpt lat="44.969509603440294" lon="11.863356003901952"><ele>1.0</ele><time>2026-04-05T14:18:56.917Z</time></trkpt><trkpt lat="44.96939917052193" lon="11.862988617465673"><ele>1.0</ele><time>2026-04-05T14:18:57.917Z</time></trkpt><trkpt lat="44.969287336530705" lon="11.86262756238716"><ele>0.5</ele><time>2026-04-05T14:18:58.917Z</time></trkpt><trkpt lat="44.969174788326995" lon="11.86226888416261"><ele>0.0</ele><time>2026-04-05T14:18:59.917Z</time></trkpt><trkpt lat="44.96906638506602" lon="11.86191563741606"><ele>-0.5</ele><time>2026-04-05T14:19:00.917Z</time></trkpt><trkpt lat="44.968955754636106" lon="11.86157361167252"><ele>-1.0</ele><time>2026-04-05T14:19:01.917Z</time></trkpt><trkpt lat="44.96886627928762" lon="11.861228580064367"><ele>-1.0</ele><time>2026-04-05T14:19:02.917Z</time></trkpt><trkpt lat="44.968751125111176" lon="11.860910149099405"><ele>-1.0</ele><time>2026-04-05T14:19:03.917Z</time></trkpt><trkpt lat="44.968652711493014" lon="11.860584763842061"><ele>-1.0</ele><time>2026-04-05T14:19:04.917Z</time></trkpt><trkpt lat="44.96855760319435" lon="11.860256426339442"><ele>-1.0</ele><time>2026-04-05T14:19:05.917Z</time></trkpt><trkpt lat="44.96846958567934" lon="11.859915497323964"><ele>0.0</ele><time>2026-04-05T14:19:06.917Z</time></trkpt><trkpt lat="44.96839353136392" lon="11.859560833015031"><ele>1.0</ele><time>2026-04-05T14:19:07.917Z</time></trkpt><trkpt lat="44.968328261835836" lon="11.859192394035782"><ele>1.5</ele><time>2026-04-05T14:19:08.917Z</time></trkpt><trkpt lat="44.9682689861651" lon="11.858821532647935"><ele>2.0</ele><time>2026-04-05T14:19:09.917Z</time></trkpt><trkpt lat="44.968212658533226" lon="11.858445708715283"><ele>2.0</ele><time>2026-04-05T14:19:10.916Z</time></trkpt><trkpt lat="44.96815552474657" lon="11.858074578055694"><ele>2.0</ele><time>2026-04-05T14:19:11.916Z</time></trkpt><trkpt lat="44.96809703641858" lon="11.857703622707191"><ele>1.5</ele><time>2026-04-05T14:19:12.916Z</time></trkpt><trkpt lat="44.968032043345275" lon="11.857332308627582"><ele>1.0</ele><time>2026-04-05T14:19:13.916Z</time></trkpt><trkpt lat="44.96795085987943" lon="11.856968707756117"><ele>0.5</ele><time>2026-04-05T14:19:14.916Z</time></trkpt><trkpt lat="44.96787165496176" lon="11.856602149805946"><ele>0.0</ele><time>2026-04-05T14:19:15.916Z</time></trkpt><trkpt lat="44.96778634104323" lon="11.856242718675881"><ele>0.5</ele><time>2026-04-05T14:19:16.916Z</time></trkpt><trkpt lat="44.96771757992982" lon="11.855885049872255"><ele>1.0</ele><time>2026-04-05T14:19:17.916Z</time></trkpt><trkpt lat="44.967640379856405" lon="11.855548692915479"><ele>1.0</ele><time>2026-04-05T14:19:18.916Z</time></trkpt><trkpt lat="44.96756670239513" lon="11.85522727176743"><ele>1.0</ele><time>2026-04-05T14:19:19.916Z</time></trkpt><trkpt lat="44.96748387073354" lon="11.854927838078098"><ele>1.0</ele><time>2026-04-05T14:19:20.916Z</time></trkpt><trkpt lat="44.967407389288596" lon="11.854616189921344"><ele>1.0</ele><time>2026-04-05T14:19:21.916Z</time></trkpt><trkpt lat="44.96734468053195" lon="11.854289586625141"><ele>1.5</ele><time>2026-04-05T14:19:22.916Z</time></trkpt><trkpt lat="44.967295630590506" lon="11.853944918262462"><ele>2.0</ele><time>2026-04-05T14:19:23.916Z</time></trkpt><trkpt lat="44.967266437597566" lon="11.853577793251183"><ele>2.0</ele><time>2026-04-05T14:19:24.916Z</time></trkpt><trkpt lat="44.9672543999863" lon="11.853209532087675"><ele>2.0</ele><time>2026-04-05T14:19:25.916Z</time></trkpt><trkpt lat="44.96726341923979" lon="11.852831291666877"><ele>1.5</ele><time>2026-04-05T14:19:26.916Z</time></trkpt><trkpt lat="44.96728434847875" lon="11.85244590745454"><ele>1.0</ele><time>2026-04-05T14:19:27.916Z</time></trkpt><trkpt lat="44.96731085981781" lon="11.852055118359965"><ele>0.5</ele><time>2026-04-05T14:19:28.916Z</time></trkpt><trkpt lat="44.96733060033483" lon="11.851669390897385"><ele>0.0</ele><time>2026-04-05T14:19:29.916Z</time></trkpt><trkpt lat="44.967349255733495" lon="11.851286959366764"><ele>0.0</ele><time>2026-04-05T14:19:30.916Z</time></trkpt><trkpt lat="44.96736679881406" lon="11.850908181513518"><ele>0.0</ele><time>2026-04-05T14:19:31.916Z</time></trkpt><trkpt lat="44.96737933107842" lon="11.850536072963514"><ele>0.0</ele><time>2026-04-05T14:19:32.916Z</time></trkpt><trkpt lat="44.96739146476506" lon="11.850168514932918"><ele>0.0</ele><time>2026-04-05T14:19:33.916Z</time></trkpt><trkpt lat="44.967395051269804" lon="11.849801297824444"><ele>0.0</ele><time>2026-04-05T14:19:34.916Z</time></trkpt><trkpt lat="44.96739275938845" lon="11.84943684815689"><ele>0.0</ele><time>2026-04-05T14:19:35.916Z</time></trkpt><trkpt lat="44.967392225661975" lon="11.849072150213889"><ele>0.0</ele><time>2026-04-05T14:19:36.916Z</time></trkpt><trkpt lat="44.96740256978393" lon="11.848708893998042"><ele>0.0</ele><time>2026-04-05T14:19:37.916Z</time></trkpt><trkpt lat="44.9674144284148" lon="11.848360865374637"><ele>0.5</ele><time>2026-04-05T14:19:38.916Z</time></trkpt><trkpt lat="44.967427129819356" lon="11.848026504147693"><ele>1.0</ele><time>2026-04-05T14:19:39.916Z</time></trkpt><trkpt lat="44.96744073505105" lon="11.847703890841162"><ele>1.0</ele><time>2026-04-05T14:19:40.916Z</time></trkpt><trkpt lat="44.96745484274398" lon="11.847395322213993"><ele>1.0</ele><time>2026-04-05T14:19:41.916Z</time></trkpt><trkpt lat="44.96747377710969" lon="11.847094215225368"><ele>1.0</ele><time>2026-04-05T14:19:42.915Z</time></trkpt><trkpt lat="44.96748693271564" lon="11.846797161140547"><ele>1.0</ele><time>2026-04-05T14:19:43.915Z</time></trkpt><trkpt lat="44.967474870175415" lon="11.846509603972311"><ele>1.0</ele><time>2026-04-05T14:19:44.915Z</time></trkpt><trkpt lat="44.9674455437635" lon="11.846214486880616"><ele>1.0</ele><time>2026-04-05T14:19:45.915Z</time></trkpt><trkpt lat="44.96739925069506" lon="11.84592012143049"><ele>1.0</ele><time>2026-04-05T14:19:46.915Z</time></trkpt><trkpt lat="44.967335009529116" lon="11.845637528316207"><ele>1.0</ele><time>2026-04-05T14:19:47.915Z</time></trkpt><trkpt lat="44.96725113685748" lon="11.845368992161262"><ele>1.0</ele><time>2026-04-05T14:19:48.915Z</time></trkpt><trkpt lat="44.96714453601107" lon="11.845112979742813"><ele>1.0</ele><time>2026-04-05T14:19:49.915Z</time></trkpt><trkpt lat="44.96702083511779" lon="11.844873362620438"><ele>1.0</ele><time>2026-04-05T14:19:50.915Z</time></trkpt><trkpt lat="44.9668874542214" lon="11.844643772312425"><ele>1.0</ele><time>2026-04-05T14:19:51.915Z</time></trkpt><trkpt lat="44.96674298494811" lon="11.844436382625213"><ele>1.0</ele><time>2026-04-05T14:19:52.915Z</time></trkpt><trkpt lat="44.9665950655287" lon="11.844263314291139"><ele>1.0</ele><time>2026-04-05T14:19:53.915Z</time></trkpt><trkpt lat="44.96645180749123" lon="11.844118954919209"><ele>1.0</ele><time>2026-04-05T14:19:54.915Z</time></trkpt><trkpt lat="44.966313305088576" lon="11.84399388968552"><ele>1.0</ele><time>2026-04-05T14:19:55.915Z</time></trkpt><trkpt lat="44.96617986181911" lon="11.843878890397567"><ele>1.0</ele><time>2026-04-05T14:19:56.915Z</time></trkpt><trkpt lat="44.966050046241925" lon="11.843782337485784"><ele>1.0</ele><time>2026-04-05T14:19:57.915Z</time></trkpt><trkpt lat="44.965918732130724" lon="11.843693785563287"><ele>1.0</ele><time>2026-04-05T14:19:58.915Z</time></trkpt><trkpt lat="44.96578511566443" lon="11.843597919337697"><ele>1.0</ele><time>2026-04-05T14:19:59.915Z</time></trkpt><trkpt lat="44.96565286377085" lon="11.843494425296823"><ele>1.0</ele><time>2026-04-05T14:20:00.915Z</time></trkpt><trkpt lat="44.96552178487222" lon="11.843401509182513"><ele>1.0</ele><time>2026-04-05T14:20:01.915Z</time></trkpt><trkpt lat="44.96539553138775" lon="11.843310310671766"><ele>1.0</ele><time>2026-04-05T14:20:02.915Z</time></trkpt><trkpt lat="44.965269449626604" lon="11.843216733140292"><ele>1.0</ele><time>2026-04-05T14:20:03.915Z</time></trkpt><trkpt lat="44.9651375543455" lon="11.84310872974379"><ele>1.0</ele><time>2026-04-05T14:20:04.915Z</time></trkpt><trkpt lat="44.96499444798529" lon="11.842997220417288"><ele>1.0</ele><time>2026-04-05T14:20:05.915Z</time></trkpt><trkpt lat="44.96485134626584" lon="11.842874139853876"><ele>1.0</ele><time>2026-04-05T14:20:06.915Z</time></trkpt><trkpt lat="44.964703064116854" lon="11.842761283873125"><ele>1.0</ele><time>2026-04-05T14:20:07.915Z</time></trkpt><trkpt lat="44.964555298575156" lon="11.842653055155417"><ele>1.0</ele><time>2026-04-05T14:20:08.916Z</time></trkpt><trkpt lat="44.96441289520015" lon="11.842562760969534"><ele>1.0</ele><time>2026-04-05T14:20:09.916Z</time></trkpt><trkpt lat="44.96428631857578" lon="11.842494122172202"><ele>1.0</ele><time>2026-04-05T14:20:10.916Z</time></trkpt><trkpt lat="44.96415775743052" lon="11.84243637300113"><ele>1.0</ele><time>2026-04-05T14:20:11.916Z</time></trkpt><trkpt lat="44.96402607455719" lon="11.842386547912998"><ele>1.0</ele><time>2026-04-05T14:20:12.917Z</time></trkpt><trkpt lat="44.96390578122536" lon="11.84233316865032"><ele>0.75</ele><time>2026-04-05T14:20:13.917Z</time></trkpt><trkpt lat="44.96379185122224" lon="11.842270763495565"><ele>0.5</ele><time>2026-04-05T14:20:14.916Z</time></trkpt><trkpt lat="44.963697483203845" lon="11.842175839409888"><ele>0.25</ele><time>2026-04-05T14:20:15.916Z</time></trkpt><trkpt lat="44.96363500022974" lon="11.842056053593911"><ele>0.0</ele><time>2026-04-05T14:20:16.916Z</time></trkpt><trkpt lat="44.96359879970434" lon="11.84189695961304"><ele>0.25</ele><time>2026-04-05T14:20:17.916Z</time></trkpt><trkpt lat="44.9635866549087" lon="11.841718179018628"><ele>0.5</ele><time>2026-04-05T14:20:18.916Z</time></trkpt><trkpt lat="44.963609580249624" lon="11.841506698637655"><ele>0.75</ele><time>2026-04-05T14:20:19.916Z</time></trkpt><trkpt lat="44.9636365141024" lon="11.84128275558284"><ele>1.0</ele><time>2026-04-05T14:20:20.916Z</time></trkpt><trkpt lat="44.96366416111805" lon="11.841058383170566"><ele>1.0</ele><time>2026-04-05T14:20:21.916Z</time></trkpt><trkpt lat="44.96368085967689" lon="11.840835112366312"><ele>1.0</ele><time>2026-04-05T14:20:22.916Z</time></trkpt><trkpt lat="44.96369522464976" lon="11.840607158010819"><ele>1.0</ele><time>2026-04-05T14:20:23.916Z</time></trkpt><trkpt lat="44.96371335910588" lon="11.840376936316575"><ele>1.0</ele><time>2026-04-05T14:20:24.916Z</time></trkpt><trkpt lat="44.96373231735267" lon="11.840147910919823"><ele>1.0</ele><time>2026-04-05T14:20:25.916Z</time></trkpt><trkpt lat="44.963744847122406" lon="11.83991998541376"><ele>1.0</ele><time>2026-04-05T14:20:26.916Z</time></trkpt><trkpt lat="44.963751623902006" lon="11.839696938279403"><ele>1.3333333333333333</ele><time>2026-04-05T14:20:27.916Z</time></trkpt><trkpt lat="44.96376918529587" lon="11.839467142811706"><ele>1.6666666666666665</ele><time>2026-04-05T14:20:28.916Z</time></trkpt><trkpt lat="44.963791487726944" lon="11.839245166739143"><ele>2.0</ele><time>2026-04-05T14:20:29.916Z</time></trkpt><trkpt lat="44.96379899864995" lon="11.839021298587927"><ele>2.0</ele><time>2026-04-05T14:20:30.916Z</time></trkpt><trkpt lat="44.963801893490256" lon="11.838794237575064"><ele>2.0</ele><time>2026-04-05T14:20:31.916Z</time></trkpt><trkpt lat="44.963802892530495" lon="11.838581979174815"><ele>2.0</ele><time>2026-04-05T14:20:32.916Z</time></trkpt><trkpt lat="44.9638029469832" lon="11.838364381909617"><ele>2.0</ele><time>2026-04-05T14:20:33.916Z</time></trkpt><trkpt lat="44.96380435368219" lon="11.838147603981177"><ele>2.0</ele><time>2026-04-05T14:20:34.916Z</time></trkpt><trkpt lat="44.96380552471403" lon="11.837945638990176"><ele>2.0</ele><time>2026-04-05T14:20:35.916Z</time></trkpt><trkpt lat="44.96376968726364" lon="11.83774869140374"><ele>2.0</ele><time>2026-04-05T14:20:36.916Z</time></trkpt><trkpt lat="44.96378141252506" lon="11.837544462833126"><ele>1.75</ele><time>2026-04-05T14:20:37.916Z</time></trkpt><trkpt lat="44.96379052788095" lon="11.83734595337544"><ele>1.5</ele><time>2026-04-05T14:20:38.916Z</time></trkpt><trkpt lat="44.963794786534876" lon="11.837144419410997"><ele>1.25</ele><time>2026-04-05T14:20:39.916Z</time></trkpt><trkpt lat="44.963850920240645" lon="11.83695815622294"><ele>1.0</ele><time>2026-04-05T14:20:40.916Z</time></trkpt><trkpt lat="44.96386878225217" lon="11.836752275183132"><ele>1.0</ele><time>2026-04-05T14:20:41.916Z</time></trkpt><trkpt lat="44.96388636795078" lon="11.836560063461281"><ele>1.0</ele><time>2026-04-05T14:20:42.916Z</time></trkpt><trkpt lat="44.96384716112725" lon="11.83635053713071"><ele>1.0</ele><time>2026-04-05T14:20:43.916Z</time></trkpt><trkpt lat="44.96387145785423" lon="11.83615533817742"><ele>1.0</ele><time>2026-04-05T14:20:44.916Z</time></trkpt><trkpt lat="44.96388306728104" lon="11.835954423856245"><ele>1.0</ele><time>2026-04-05T14:20:45.916Z</time></trkpt><trkpt lat="44.96389176926157" lon="11.835751109462029"><ele>1.0</ele><time>2026-04-05T14:20:46.916Z</time></trkpt><trkpt lat="44.96390167204036" lon="11.83554782248848"><ele>1.0</ele><time>2026-04-05T14:20:47.916Z</time></trkpt><trkpt lat="44.96396314898198" lon="11.835350074026913"><ele>1.0</ele><time>2026-04-05T14:20:48.916Z</time></trkpt><trkpt lat="44.96396852655864" lon="11.83514930981051"><ele>1.0</ele><time>2026-04-05T14:20:49.916Z</time></trkpt><trkpt lat="44.963971517623484" lon="11.834944546401418"><ele>1.0</ele><time>2026-04-05T14:20:50.916Z</time></trkpt><trkpt lat="44.96397351291775" lon="11.834732165504406"><ele>1.0</ele><time>2026-04-05T14:20:51.916Z</time></trkpt><trkpt lat="44.9639746790001" lon="11.834519896885041"><ele>1.0</ele><time>2026-04-05T14:20:52.916Z</time></trkpt><trkpt lat="44.963975862543414" lon="11.834304448662058"><ele>1.0</ele><time>2026-04-05T14:20:53.915Z</time></trkpt><trkpt lat="44.96397703297441" lon="11.834083437558476"><ele>1.0</ele><time>2026-04-05T14:20:54.915Z</time></trkpt><trkpt lat="44.96397815366417" lon="11.833873004647778"><ele>1.0</ele><time>2026-04-05T14:20:55.915Z</time></trkpt><trkpt lat="44.96397935538548" lon="11.833647356512442"><ele>1.0</ele><time>2026-04-05T14:20:56.915Z</time></trkpt><trkpt lat="44.96398034499273" lon="11.833418701217493"><ele>1.0</ele><time>2026-04-05T14:20:57.915Z</time></trkpt><trkpt lat="44.96397926836982" lon="11.83320327499693"><ele>1.0</ele><time>2026-04-05T14:20:58.915Z</time></trkpt><trkpt lat="44.96397123197437" lon="11.832988411766697"><ele>1.0</ele><time>2026-04-05T14:20:59.915Z</time></trkpt><trkpt lat="44.96395644756385" lon="11.832779995136034"><ele>1.0</ele><time>2026-04-05T14:21:00.915Z</time></trkpt><trkpt lat="44.9639348629241" lon="11.832563308900438"><ele>1.0</ele><time>2026-04-05T14:21:01.915Z</time></trkpt><trkpt lat="44.963907667434306" lon="11.83233293447442"><ele>1.0</ele><time>2026-04-05T14:21:02.915Z</time></trkpt><trkpt lat="44.96387429767054" lon="11.832087222666349"><ele>1.0</ele><time>2026-04-05T14:21:03.915Z</time></trkpt><trkpt lat="44.963838156134315" lon="11.8318322926107"><ele>1.0</ele><time>2026-04-05T14:21:04.915Z</time></trkpt><trkpt lat="44.963800095340325" lon="11.831563824766375"><ele>1.0</ele><time>2026-04-05T14:21:05.915Z</time></trkpt><trkpt lat="44.9637641518664" lon="11.831300592969182"><ele>1.0</ele><time>2026-04-05T14:21:06.915Z</time></trkpt><trkpt lat="44.963728965930265" lon="11.831042272433153"><ele>1.0</ele><time>2026-04-05T14:21:07.915Z</time></trkpt><trkpt lat="44.96369566527509" lon="11.830797792866148"><ele>0.6666666666666666</ele><time>2026-04-05T14:21:08.915Z</time></trkpt><trkpt lat="44.963664625383934" lon="11.830569910891032"><ele>0.3333333333333333</ele><time>2026-04-05T14:21:09.915Z</time></trkpt><trkpt lat="44.96363572136732" lon="11.830353211091769"><ele>0.0</ele><time>2026-04-05T14:21:10.915Z</time></trkpt><trkpt lat="44.9636093158248" lon="11.83015362406204"><ele>0.0</ele><time>2026-04-05T14:21:11.915Z</time></trkpt><trkpt lat="44.963551823113015" lon="11.829967013751798"><ele>0.0</ele><time>2026-04-05T14:21:12.915Z</time></trkpt><trkpt lat="44.96349309266623" lon="11.829806669375277"><ele>0.0</ele><time>2026-04-05T14:21:13.915Z</time></trkpt><trkpt lat="44.963411102147674" lon="11.829679443115023"><ele>0.0</ele><time>2026-04-05T14:21:14.915Z</time></trkpt><trkpt lat="44.963326310530306" lon="11.829501426270708"><ele>0.5</ele><time>2026-04-05T14:21:15.915Z</time></trkpt><trkpt lat="44.96323921768798" lon="11.829339935243183"><ele>1.0</ele><time>2026-04-05T14:21:16.915Z</time></trkpt><trkpt lat="44.96318855738841" lon="11.82913345757894"><ele>1.5</ele><time>2026-04-05T14:21:17.915Z</time></trkpt><trkpt lat="44.9630957448159" lon="11.828980063306544"><ele>2.0</ele><time>2026-04-05T14:21:18.915Z</time></trkpt><trkpt lat="44.96301326838286" lon="11.828844566303452"><ele>2.0</ele><time>2026-04-05T14:21:19.915Z</time></trkpt><trkpt lat="44.96292918465867" lon="11.828706428756787"><ele>2.0</ele><time>2026-04-05T14:21:20.915Z</time></trkpt><trkpt lat="44.96282684572246" lon="11.828569976249428"><ele>2.0</ele><time>2026-04-05T14:21:21.915Z</time></trkpt><trkpt lat="44.96274248972208" lon="11.82838814761669"><ele>2.0</ele><time>2026-04-05T14:21:22.915Z</time></trkpt><trkpt lat="44.96263256944487" lon="11.828196708481173"><ele>2.333333333333333</ele><time>2026-04-05T14:21:23.915Z</time></trkpt><trkpt lat="44.96250053737744" lon="11.827994540746316"><ele>2.6666666666666665</ele><time>2026-04-05T14:21:24.915Z</time></trkpt><trkpt lat="44.96235550333824" lon="11.827770144501716"><ele>3.0</ele><time>2026-04-05T14:21:25.914Z</time></trkpt><trkpt lat="44.962222078800835" lon="11.82754550084766"><ele>4.333333333333334</ele><time>2026-04-05T14:21:26.914Z</time></trkpt><trkpt lat="44.96208130991258" lon="11.827314726551426"><ele>5.666666666666667</ele><time>2026-04-05T14:21:27.914Z</time></trkpt><trkpt lat="44.96193493554696" lon="11.827071386415415"><ele>7.0</ele><time>2026-04-05T14:21:28.914Z</time></trkpt><trkpt lat="44.961781483618566" lon="11.826817416780449"><ele>4.0</ele><time>2026-04-05T14:21:29.914Z</time></trkpt><trkpt lat="44.96162429126469" lon="11.826557694480927"><ele>1.0</ele><time>2026-04-05T14:21:30.914Z</time></trkpt><trkpt lat="44.96147542982776" lon="11.826272176330267"><ele>1.0</ele><time>2026-04-05T14:21:31.914Z</time></trkpt><trkpt lat="44.96131388442831" lon="11.82600051571834"><ele>1.0</ele><time>2026-04-05T14:21:32.914Z</time></trkpt><trkpt lat="44.961152994286856" lon="11.825729957021313"><ele>0.5</ele><time>2026-04-05T14:21:33.914Z</time></trkpt><trkpt lat="44.96097839492165" lon="11.82547153433307"><ele>0.0</ele><time>2026-04-05T14:21:34.914Z</time></trkpt><trkpt lat="44.9608182509214" lon="11.825200220540445"><ele>0.0</ele><time>2026-04-05T14:21:35.914Z</time></trkpt><trkpt lat="44.96066113120658" lon="11.824936947718488"><ele>0.0</ele><time>2026-04-05T14:21:36.914Z</time></trkpt><trkpt lat="44.96051304010206" lon="11.824679210414777"><ele>0.0</ele><time>2026-04-05T14:21:37.914Z</time></trkpt><trkpt lat="44.96037292475494" lon="11.824443068147112"><ele>0.0</ele><time>2026-04-05T14:21:38.914Z</time></trkpt><trkpt lat="44.96023936208239" lon="11.824223199101324"><ele>0.0</ele><time>2026-04-05T14:21:39.914Z</time></trkpt><trkpt lat="44.960130854291116" lon="11.823989063478038"><ele>0.0</ele><time>2026-04-05T14:21:40.914Z</time></trkpt><trkpt lat="44.96001341682837" lon="11.82379151643966"><ele>0.0</ele><time>2026-04-05T14:21:41.914Z</time></trkpt><trkpt lat="44.95989875034306" lon="11.823603775706198"><ele>0.0</ele><time>2026-04-05T14:21:42.914Z</time></trkpt><trkpt lat="44.959787801961006" lon="11.823433339736711"><ele>0.0</ele><time>2026-04-05T14:21:43.914Z</time></trkpt><trkpt lat="44.95968495368179" lon="11.823274499667406"><ele>0.0</ele><time>2026-04-05T14:21:44.914Z</time></trkpt><trkpt lat="44.95958342772116" lon="11.82311440753685"><ele>0.0</ele><time>2026-04-05T14:21:45.914Z</time></trkpt><trkpt lat="44.95949685726998" lon="11.822936668156451"><ele>0.0</ele><time>2026-04-05T14:21:46.914Z</time></trkpt><trkpt lat="44.95939279380031" lon="11.82279606787063"><ele>0.0</ele><time>2026-04-05T14:21:47.914Z</time></trkpt><trkpt lat="44.95931708218881" lon="11.822643754119845"><ele>0.0</ele><time>2026-04-05T14:21:48.914Z</time></trkpt><trkpt lat="44.95924978648519" lon="11.822502048047443"><ele>0.0</ele><time>2026-04-05T14:21:49.914Z</time></trkpt><trkpt lat="44.95921272725003" lon="11.822354733192372"><ele>0.25</ele><time>2026-04-05T14:21:50.914Z</time></trkpt><trkpt lat="44.95921106169978" lon="11.822198913165355"><ele>0.5</ele><time>2026-04-05T14:21:51.914Z</time></trkpt><trkpt lat="44.95925201422109" lon="11.822040102374702"><ele>0.75</ele><time>2026-04-05T14:21:52.914Z</time></trkpt><trkpt lat="44.95933511878678" lon="11.821905136411646"><ele>1.0</ele><time>2026-04-05T14:21:53.914Z</time></trkpt><trkpt lat="44.959467285946694" lon="11.821802883909253"><ele>1.0</ele><time>2026-04-05T14:21:54.914Z</time></trkpt><trkpt lat="44.95963089434932" lon="11.821702657843124"><ele>1.0</ele><time>2026-04-05T14:21:55.914Z</time></trkpt><trkpt lat="44.959812510737834" lon="11.821576438187105"><ele>1.0</ele><time>2026-04-05T14:21:56.914Z</time></trkpt><trkpt lat="44.96001153317171" lon="11.82143770821059"><ele>0.5</ele><time>2026-04-05T14:21:57.913Z</time></trkpt><trkpt lat="44.96021143019495" lon="11.821295713486276"><ele>0.0</ele><time>2026-04-05T14:21:58.913Z</time></trkpt><trkpt lat="44.96042384827547" lon="11.821150565939018"><ele>0.0</ele><time>2026-04-05T14:21:59.913Z</time></trkpt><trkpt lat="44.960647178517355" lon="11.820994798728758"><ele>0.0</ele><time>2026-04-05T14:22:00.913Z</time></trkpt><trkpt lat="44.96088232896737" lon="11.820831502610314"><ele>0.0</ele><time>2026-04-05T14:22:01.913Z</time></trkpt><trkpt lat="44.96112726515321" lon="11.820661832408115"><ele>0.0</ele><time>2026-04-05T14:22:02.913Z</time></trkpt><trkpt lat="44.96137141674398" lon="11.82049213813848"><ele>0.0</ele><time>2026-04-05T14:22:03.913Z</time></trkpt><trkpt lat="44.96161644445952" lon="11.820314745665463"><ele>0.0</ele><time>2026-04-05T14:22:04.913Z</time></trkpt><trkpt lat="44.96186589622949" lon="11.820133912334594"><ele>0.0</ele><time>2026-04-05T14:22:05.913Z</time></trkpt><trkpt lat="44.9621170699283" lon="11.819957655308022"><ele>0.0</ele><time>2026-04-05T14:22:06.913Z</time></trkpt><trkpt lat="44.9623605867848" lon="11.819772728867541"><ele>0.0</ele><time>2026-04-05T14:22:07.913Z</time></trkpt><trkpt lat="44.96260777942047" lon="11.819595220922777"><ele>0.0</ele><time>2026-04-05T14:22:08.913Z</time></trkpt><trkpt lat="44.96284824528245" lon="11.819421777675565"><ele>0.0</ele><time>2026-04-05T14:22:09.913Z</time></trkpt><trkpt lat="44.963088692314656" lon="11.819242805839925"><ele>0.0</ele><time>2026-04-05T14:22:10.913Z</time></trkpt><trkpt lat="44.96333276409467" lon="11.819050430951773"><ele>0.0</ele><time>2026-04-05T14:22:11.913Z</time></trkpt><trkpt lat="44.96358345326885" lon="11.818862024994987"><ele>0.0</ele><time>2026-04-05T14:22:12.913Z</time></trkpt><trkpt lat="44.9638399405244" lon="11.818685621907912"><ele>0.0</ele><time>2026-04-05T14:22:13.913Z</time></trkpt><trkpt lat="44.96409786715915" lon="11.818521570240428"><ele>0.0</ele><time>2026-04-05T14:22:14.914Z</time></trkpt><trkpt lat="44.96435102460953" lon="11.818350678144256"><ele>0.0</ele><time>2026-04-05T14:22:15.914Z</time></trkpt><trkpt lat="44.96460403192227" lon="11.818172651890011"><ele>0.0</ele><time>2026-04-05T14:22:16.914Z</time></trkpt><trkpt lat="44.96485681529634" lon="11.817999663271245"><ele>0.0</ele><time>2026-04-05T14:22:17.914Z</time></trkpt><trkpt lat="44.96510739575759" lon="11.81782486192582"><ele>0.0</ele><time>2026-04-05T14:22:18.914Z</time></trkpt><trkpt lat="44.96535480963673" lon="11.817649623143271"><ele>0.5</ele><time>2026-04-05T14:22:19.914Z</time></trkpt><trkpt lat="44.96559605325465" lon="11.817478900447874"><ele>1.0</ele><time>2026-04-05T14:22:20.914Z</time></trkpt><trkpt lat="44.96582696971604" lon="11.817321329921905"><ele>0.5</ele><time>2026-04-05T14:22:21.914Z</time></trkpt><trkpt lat="44.96603371779465" lon="11.81717473479819"><ele>0.0</ele><time>2026-04-05T14:22:22.914Z</time></trkpt><trkpt lat="44.96623135102262" lon="11.817028794714476"><ele>0.0</ele><time>2026-04-05T14:22:23.913Z</time></trkpt><trkpt lat="44.966415973711456" lon="11.816887097891573"><ele>0.0</ele><time>2026-04-05T14:22:24.913Z</time></trkpt><trkpt lat="44.96659149142242" lon="11.816724111324033"><ele>0.0</ele><time>2026-04-05T14:22:25.913Z</time></trkpt><trkpt lat="44.96675653616122" lon="11.816510324564346"><ele>0.0</ele><time>2026-04-05T14:22:26.914Z</time></trkpt><trkpt lat="44.96691839186725" lon="11.816262933296553"><ele>0.0</ele><time>2026-04-05T14:22:27.913Z</time></trkpt><trkpt lat="44.96707673584084" lon="11.815983785987292"><ele>0.0</ele><time>2026-04-05T14:22:28.913Z</time></trkpt><trkpt lat="44.96723290243667" lon="11.815676478690573"><ele>0.0</ele><time>2026-04-05T14:22:29.913Z</time></trkpt><trkpt lat="44.96738895636975" lon="11.815364175414976"><ele>0.5</ele><time>2026-04-05T14:22:30.913Z</time></trkpt><trkpt lat="44.967551860334055" lon="11.815051026219564"><ele>1.0</ele><time>2026-04-05T14:22:31.913Z</time></trkpt><trkpt lat="44.9677149312355" lon="11.81473532785305"><ele>1.0</ele><time>2026-04-05T14:22:32.913Z</time></trkpt><trkpt lat="44.96788256550806" lon="11.814423688020428"><ele>1.0</ele><time>2026-04-05T14:22:33.913Z</time></trkpt><trkpt lat="44.96804556572126" lon="11.81410951285117"><ele>1.5</ele><time>2026-04-05T14:22:34.913Z</time></trkpt><trkpt lat="44.96820879081727" lon="11.81379458820332"><ele>2.0</ele><time>2026-04-05T14:22:35.913Z</time></trkpt><trkpt lat="44.96836763318029" lon="11.813486110994567"><ele>2.0</ele><time>2026-04-05T14:22:36.913Z</time></trkpt><trkpt lat="44.968521600067525" lon="11.813179805577748"><ele>2.0</ele><time>2026-04-05T14:22:37.913Z</time></trkpt><trkpt lat="44.96867805160422" lon="11.81288146621616"><ele>1.5</ele><time>2026-04-05T14:22:38.913Z</time></trkpt><trkpt lat="44.96883056097646" lon="11.812587631076127"><ele>1.0</ele><time>2026-04-05T14:22:39.913Z</time></trkpt><trkpt lat="44.96897953424072" lon="11.812303069370426"><ele>1.0</ele><time>2026-04-05T14:22:40.913Z</time></trkpt><trkpt lat="44.9691244494314" lon="11.812024858259992"><ele>1.0</ele><time>2026-04-05T14:22:41.913Z</time></trkpt><trkpt lat="44.96926367729911" lon="11.81176563951112"><ele>1.6666666666666665</ele><time>2026-04-05T14:22:42.913Z</time></trkpt><trkpt lat="44.969395314685364" lon="11.81151874953814"><ele>2.3333333333333335</ele><time>2026-04-05T14:22:43.913Z</time></trkpt><trkpt lat="44.969523595009115" lon="11.811273867326532"><ele>3.0</ele><time>2026-04-05T14:22:44.913Z</time></trkpt><trkpt lat="44.96965216060886" lon="11.811050542632538"><ele>2.6666666666666665</ele><time>2026-04-05T14:22:45.913Z</time></trkpt><trkpt lat="44.96977991363095" lon="11.810845494283528"><ele>2.333333333333333</ele><time>2026-04-05T14:22:46.913Z</time></trkpt><trkpt lat="44.96991791126044" lon="11.810650684177395"><ele>2.0</ele><time>2026-04-05T14:22:47.913Z</time></trkpt><trkpt lat="44.970078841815265" lon="11.810468151747305"><ele>2.0</ele><time>2026-04-05T14:22:48.913Z</time></trkpt><trkpt lat="44.970252202866476" lon="11.8103135590655"><ele>2.0</ele><time>2026-04-05T14:22:49.913Z</time></trkpt><trkpt lat="44.9704441331327" lon="11.810184149154681"><ele>2.0</ele><time>2026-04-05T14:22:50.913Z</time></trkpt><trkpt lat="44.97064226974018" lon="11.81006610516406"><ele>2.333333333333333</ele><time>2026-04-05T14:22:51.913Z</time></trkpt><trkpt lat="44.970850996331514" lon="11.809973371301755"><ele>2.6666666666666665</ele><time>2026-04-05T14:22:52.912Z</time></trkpt><trkpt lat="44.9710518010073" lon="11.809888531911714"><ele>3.0</ele><time>2026-04-05T14:22:53.912Z</time></trkpt><trkpt lat="44.971249272521845" lon="11.809813238664045"><ele>3.333333333333333</ele><time>2026-04-05T14:22:54.912Z</time></trkpt><trkpt lat="44.97144458016539" lon="11.809749811739792"><ele>3.6666666666666665</ele><time>2026-04-05T14:22:55.912Z</time></trkpt><trkpt lat="44.97163074345371" lon="11.809693115761599"><ele>4.0</ele><time>2026-04-05T14:22:56.912Z</time></trkpt><trkpt lat="44.971812874179506" lon="11.809633209009997"><ele>3.0</ele><time>2026-04-05T14:22:57.912Z</time></trkpt><trkpt lat="44.9719946566222" lon="11.809569103528657"><ele>2.0</ele><time>2026-04-05T14:22:58.912Z</time></trkpt><trkpt lat="44.9721759556655" lon="11.80949723368118"><ele>1.0</ele><time>2026-04-05T14:22:59.912Z</time></trkpt><trkpt lat="44.972345966528046" lon="11.809413298716926"><ele>1.3333333333333333</ele><time>2026-04-05T14:23:00.912Z</time></trkpt><trkpt lat="44.972503330073906" lon="11.809317426087967"><ele>1.6666666666666665</ele><time>2026-04-05T14:23:01.912Z</time></trkpt><trkpt lat="44.97264622034307" lon="11.809209415787516"><ele>2.0</ele><time>2026-04-05T14:23:02.912Z</time></trkpt><trkpt lat="44.97276568769407" lon="11.809074328373638"><ele>2.0</ele><time>2026-04-05T14:23:03.912Z</time></trkpt><trkpt lat="44.97285664675083" lon="11.808914926742453"><ele>2.0</ele><time>2026-04-05T14:23:04.912Z</time></trkpt><trkpt lat="44.972921380965666" lon="11.80872185521968"><ele>2.0</ele><time>2026-04-05T14:23:05.912Z</time></trkpt><trkpt lat="44.97295851583617" lon="11.80850669634537"><ele>2.333333333333333</ele><time>2026-04-05T14:23:06.912Z</time></trkpt><trkpt lat="44.972969877665044" lon="11.808272454745472"><ele>2.6666666666666665</ele><time>2026-04-05T14:23:07.912Z</time></trkpt><trkpt lat="44.972979537570865" lon="11.808029137065379"><ele>3.0</ele><time>2026-04-05T14:23:08.912Z</time></trkpt><trkpt lat="44.97298874720875" lon="11.80777262966403"><ele>3.333333333333333</ele><time>2026-04-05T14:23:09.912Z</time></trkpt><trkpt lat="44.97299047024423" lon="11.807505416216099"><ele>3.6666666666666665</ele><time>2026-04-05T14:23:10.912Z</time></trkpt><trkpt lat="44.97298338767868" lon="11.807239246043752"><ele>4.0</ele><time>2026-04-05T14:23:11.912Z</time></trkpt><trkpt lat="44.97297050897366" lon="11.806973115896174"><ele>4.0</ele><time>2026-04-05T14:23:12.912Z</time></trkpt><trkpt lat="44.972951033213754" lon="11.806713952326245"><ele>4.0</ele><time>2026-04-05T14:23:13.912Z</time></trkpt><trkpt lat="44.97293624036365" lon="11.806456029420902"><ele>4.0</ele><time>2026-04-05T14:23:14.912Z</time></trkpt><trkpt lat="44.97292017396613" lon="11.80620525261254"><ele>4.0</ele><time>2026-04-05T14:23:15.912Z</time></trkpt><trkpt lat="44.972902653709376" lon="11.805968795956858"><ele>4.0</ele><time>2026-04-05T14:23:16.912Z</time></trkpt><trkpt lat="44.97287973483726" lon="11.805759241429223"><ele>4.0</ele><time>2026-04-05T14:23:17.912Z</time></trkpt><trkpt lat="44.97285400461028" lon="11.805560286669614"><ele>4.0</ele><time>2026-04-05T14:23:18.912Z</time></trkpt><trkpt lat="44.97281819654521" lon="11.805367517653092"><ele>4.0</ele><time>2026-04-05T14:23:19.912Z</time></trkpt><trkpt lat="44.97274952035967" lon="11.805176627879973"><ele>4.0</ele><time>2026-04-05T14:23:20.912Z</time></trkpt><trkpt lat="44.97266293136017" lon="11.80500775900792"><ele>4.0</ele><time>2026-04-05T14:23:21.912Z</time></trkpt><trkpt lat="44.97255986688405" lon="11.80484664706316"><ele>4.0</ele><time>2026-04-05T14:23:22.912Z</time></trkpt><trkpt lat="44.97242308420656" lon="11.804716778992304"><ele>4.0</ele><time>2026-04-05T14:23:23.912Z</time></trkpt><trkpt lat="44.972280083452375" lon="11.804595930110121"><ele>4.0</ele><time>2026-04-05T14:23:24.911Z</time></trkpt><trkpt lat="44.972128541773046" lon="11.804496203239172"><ele>4.0</ele><time>2026-04-05T14:23:25.911Z</time></trkpt><trkpt lat="44.97197544481278" lon="11.804376032950415"><ele>4.0</ele><time>2026-04-05T14:23:26.911Z</time></trkpt><trkpt lat="44.97183061285222" lon="11.804249835156831"><ele>4.0</ele><time>2026-04-05T14:23:27.911Z</time></trkpt><trkpt lat="44.97169114758627" lon="11.804113755109315"><ele>3.0</ele><time>2026-04-05T14:23:28.911Z</time></trkpt><trkpt lat="44.97156063037955" lon="11.803959398123267"><ele>2.0</ele><time>2026-04-05T14:23:29.911Z</time></trkpt><trkpt lat="44.97143576069874" lon="11.803810881435417"><ele>1.0</ele><time>2026-04-05T14:23:30.911Z</time></trkpt><trkpt lat="44.97131114690997" lon="11.803646706389626"><ele>1.0</ele><time>2026-04-05T14:23:31.911Z</time></trkpt><trkpt lat="44.9711910185022" lon="11.803486463389492"><ele>1.0</ele><time>2026-04-05T14:23:32.911Z</time></trkpt><trkpt lat="44.9710719414418" lon="11.803313627607752"><ele>1.0</ele><time>2026-04-05T14:23:33.911Z</time></trkpt><trkpt lat="44.97095437453986" lon="11.803137916708275"><ele>1.3333333333333333</ele><time>2026-04-05T14:23:34.911Z</time></trkpt><trkpt lat="44.97084017063015" lon="11.802953560302"><ele>1.6666666666666665</ele><time>2026-04-05T14:23:35.911Z</time></trkpt><trkpt lat="44.97072945663563" lon="11.802759797120657"><ele>2.0</ele><time>2026-04-05T14:23:36.911Z</time></trkpt><trkpt lat="44.970610409427195" lon="11.802559262229073"><ele>2.0</ele><time>2026-04-05T14:23:37.911Z</time></trkpt><trkpt lat="44.97050689505973" lon="11.802357076147759"><ele>2.0</ele><time>2026-04-05T14:23:38.911Z</time></trkpt><trkpt lat="44.97038760788336" lon="11.802166967707988"><ele>2.0</ele><time>2026-04-05T14:23:39.911Z</time></trkpt><trkpt lat="44.970271279773925" lon="11.801985412273904"><ele>2.0</ele><time>2026-04-05T14:23:40.911Z</time></trkpt><trkpt lat="44.97015466108332" lon="11.801809970124085"><ele>2.0</ele><time>2026-04-05T14:23:41.911Z</time></trkpt><trkpt lat="44.970036302247394" lon="11.801629611463845"><ele>2.0</ele><time>2026-04-05T14:23:42.911Z</time></trkpt><trkpt lat="44.9699205648792" lon="11.801453169554863"><ele>2.0</ele><time>2026-04-05T14:23:43.911Z</time></trkpt><trkpt lat="44.96980577803916" lon="11.801278984538815"><ele>2.0</ele><time>2026-04-05T14:23:44.911Z</time></trkpt><trkpt lat="44.96969803759136" lon="11.801095353689794"><ele>2.0</ele><time>2026-04-05T14:23:45.911Z</time></trkpt><trkpt lat="44.969588306045644" lon="11.800914759100204"><ele>2.0</ele><time>2026-04-05T14:23:46.911Z</time></trkpt><trkpt lat="44.96948307121718" lon="11.800731066598368"><ele>2.0</ele><time>2026-04-05T14:23:47.911Z</time></trkpt><trkpt lat="44.96937876678227" lon="11.800539209130202"><ele>2.0</ele><time>2026-04-05T14:23:48.911Z</time></trkpt><trkpt lat="44.96927590300615" lon="11.800342925516102"><ele>2.0</ele><time>2026-04-05T14:23:49.911Z</time></trkpt><trkpt lat="44.96916796500073" lon="11.800153936733375"><ele>2.0</ele><time>2026-04-05T14:23:50.911Z</time></trkpt><trkpt lat="44.96907534457028" lon="11.799966772957644"><ele>2.0</ele><time>2026-04-05T14:23:51.911Z</time></trkpt><trkpt lat="44.968987035195696" lon="11.79976748527356"><ele>2.0</ele><time>2026-04-05T14:23:52.911Z</time></trkpt><trkpt lat="44.96890251371637" lon="11.799575333428432"><ele>2.0</ele><time>2026-04-05T14:23:53.911Z</time></trkpt><trkpt lat="44.968829967164275" lon="11.799363900086258"><ele>2.0</ele><time>2026-04-05T14:23:54.911Z</time></trkpt><trkpt lat="44.968747877203924" lon="11.799155690537585"><ele>2.0</ele><time>2026-04-05T14:23:55.911Z</time></trkpt><trkpt lat="44.96866544151251" lon="11.7989455973464"><ele>2.0</ele><time>2026-04-05T14:23:56.91Z</time></trkpt><trkpt lat="44.968581961479515" lon="11.798725921372213"><ele>2.0</ele><time>2026-04-05T14:23:57.91Z</time></trkpt><trkpt lat="44.96849731531375" lon="11.7985156835143"><ele>2.333333333333333</ele><time>2026-04-05T14:23:58.91Z</time></trkpt><trkpt lat="44.96841507297082" lon="11.798305363478928"><ele>2.6666666666666665</ele><time>2026-04-05T14:23:59.91Z</time></trkpt><trkpt lat="44.96832686421958" lon="11.798095469864808"><ele>3.0</ele><time>2026-04-05T14:24:00.91Z</time></trkpt><trkpt lat="44.96823887158952" lon="11.797880016495597"><ele>3.333333333333333</ele><time>2026-04-05T14:24:01.91Z</time></trkpt><trkpt lat="44.96814975626701" lon="11.797660543098903"><ele>3.6666666666666665</ele><time>2026-04-05T14:24:02.91Z</time></trkpt><trkpt lat="44.968059285338136" lon="11.797443338383635"><ele>4.0</ele><time>2026-04-05T14:24:03.91Z</time></trkpt><trkpt lat="44.96796640368254" lon="11.797219377676806"><ele>4.0</ele><time>2026-04-05T14:24:04.91Z</time></trkpt><trkpt lat="44.967874047499315" lon="11.796989230502412"><ele>4.0</ele><time>2026-04-05T14:24:05.91Z</time></trkpt><trkpt lat="44.96778298332787" lon="11.796761157324369"><ele>4.0</ele><time>2026-04-05T14:24:06.91Z</time></trkpt><trkpt lat="44.96769789374496" lon="11.796540934901003"><ele>4.0</ele><time>2026-04-05T14:24:07.91Z</time></trkpt><trkpt lat="44.96760726858674" lon="11.796318116380052"><ele>4.0</ele><time>2026-04-05T14:24:08.91Z</time></trkpt><trkpt lat="44.967525066768665" lon="11.796084770870806"><ele>4.0</ele><time>2026-04-05T14:24:09.91Z</time></trkpt><trkpt lat="44.967413553816016" lon="11.79585302808567"><ele>3.6666666666666665</ele><time>2026-04-05T14:24:10.91Z</time></trkpt><trkpt lat="44.96728570653283" lon="11.795621534338185"><ele>3.333333333333333</ele><time>2026-04-05T14:24:11.91Z</time></trkpt><trkpt lat="44.967133427978546" lon="11.795381493651911"><ele>3.0</ele><time>2026-04-05T14:24:12.91Z</time></trkpt><trkpt lat="44.96695410752223" lon="11.795140061161002"><ele>3.0</ele><time>2026-04-05T14:24:13.91Z</time></trkpt><trkpt lat="44.96675577857425" lon="11.794899875758428"><ele>3.0</ele><time>2026-04-05T14:24:14.91Z</time></trkpt><trkpt lat="44.96653483965137" lon="11.794642375898853"><ele>2.5</ele><time>2026-04-05T14:24:15.91Z</time></trkpt><trkpt lat="44.966310479260656" lon="11.794380888372833"><ele>2.0</ele><time>2026-04-05T14:24:16.91Z</time></trkpt><trkpt lat="44.96608785791071" lon="11.794121427705118"><ele>2.0</ele><time>2026-04-05T14:24:17.91Z</time></trkpt><trkpt lat="44.965862038200854" lon="11.793858239378615"><ele>2.0</ele><time>2026-04-05T14:24:18.91Z</time></trkpt><trkpt lat="44.965637558400935" lon="11.793596612697492"><ele>2.5</ele><time>2026-04-05T14:24:19.91Z</time></trkpt><trkpt lat="44.96541251156801" lon="11.793333780834374"><ele>3.0</ele><time>2026-04-05T14:24:20.911Z</time></trkpt><trkpt lat="44.9651861246541" lon="11.793069333451307"><ele>3.0</ele><time>2026-04-05T14:24:21.912Z</time></trkpt><trkpt lat="44.96494543926851" lon="11.792816838030982"><ele>3.0</ele><time>2026-04-05T14:24:22.912Z</time></trkpt><trkpt lat="44.964722711126754" lon="11.792552236664031"><ele>3.0</ele><time>2026-04-05T14:24:23.911Z</time></trkpt><trkpt lat="44.964499071133346" lon="11.792291819543166"><ele>3.0</ele><time>2026-04-05T14:24:24.911Z</time></trkpt><trkpt lat="44.964274760111685" lon="11.792030105698954"><ele>3.0</ele><time>2026-04-05T14:24:25.911Z</time></trkpt><trkpt lat="44.96405327141006" lon="11.791774779990261"><ele>3.0</ele><time>2026-04-05T14:24:26.911Z</time></trkpt><trkpt lat="44.96383756603078" lon="11.791524654294063"><ele>3.0</ele><time>2026-04-05T14:24:27.912Z</time></trkpt><trkpt lat="44.96362554751568" lon="11.791277651261636"><ele>3.0</ele><time>2026-04-05T14:24:28.912Z</time></trkpt><trkpt lat="44.96342143463511" lon="11.791032232431359"><ele>2.5</ele><time>2026-04-05T14:24:29.911Z</time></trkpt><trkpt lat="44.96322555539358" lon="11.790810150799697"><ele>2.0</ele><time>2026-04-05T14:24:30.912Z</time></trkpt><trkpt lat="44.96303107327305" lon="11.790581437391918"><ele>2.0</ele><time>2026-04-05T14:24:31.912Z</time></trkpt><trkpt lat="44.962847760454494" lon="11.790339290553186"><ele>2.0</ele><time>2026-04-05T14:24:32.912Z</time></trkpt><trkpt lat="44.96265822280566" lon="11.790116634266372"><ele>1.5</ele><time>2026-04-05T14:24:33.911Z</time></trkpt><trkpt lat="44.96246405310341" lon="11.78988853652888"><ele>1.0</ele><time>2026-04-05T14:24:34.911Z</time></trkpt><trkpt lat="44.96227420502888" lon="11.789662841867832"><ele>1.0</ele><time>2026-04-05T14:24:35.911Z</time></trkpt><trkpt lat="44.96207105498571" lon="11.789442949397403"><ele>1.0</ele><time>2026-04-05T14:24:36.911Z</time></trkpt><trkpt lat="44.96188353091445" lon="11.789191888889146"><ele>1.5</ele><time>2026-04-05T14:24:37.911Z</time></trkpt><trkpt lat="44.96171012330997" lon="11.788920707989018"><ele>2.0</ele><time>2026-04-05T14:24:38.911Z</time></trkpt><trkpt lat="44.96153854927229" lon="11.788626316739903"><ele>3.5</ele><time>2026-04-05T14:24:39.911Z</time></trkpt><trkpt lat="44.96137877498317" lon="11.788315529899968"><ele>5.0</ele><time>2026-04-05T14:24:40.911Z</time></trkpt><trkpt lat="44.961218235784514" lon="11.787999429752924"><ele>5.0</ele><time>2026-04-05T14:24:41.911Z</time></trkpt><trkpt lat="44.96106303924101" lon="11.787682475177153"><ele>5.0</ele><time>2026-04-05T14:24:42.911Z</time></trkpt><trkpt lat="44.96091170016087" lon="11.787359949256988"><ele>4.0</ele><time>2026-04-05T14:24:43.911Z</time></trkpt><trkpt lat="44.96076198829697" lon="11.787057339324429"><ele>3.0</ele><time>2026-04-05T14:24:44.911Z</time></trkpt><trkpt lat="44.960614102667805" lon="11.78675854762299"><ele>3.0</ele><time>2026-04-05T14:24:45.911Z</time></trkpt><trkpt lat="44.96046466273202" lon="11.786460155459945"><ele>3.0</ele><time>2026-04-05T14:24:46.911Z</time></trkpt><trkpt lat="44.9603163401902" lon="11.786156132867218"><ele>3.0</ele><time>2026-04-05T14:24:47.911Z</time></trkpt><trkpt lat="44.96017017587418" lon="11.785846680146028"><ele>3.0</ele><time>2026-04-05T14:24:48.911Z</time></trkpt><trkpt lat="44.960030846187244" lon="11.785524564266076"><ele>3.0</ele><time>2026-04-05T14:24:49.911Z</time></trkpt><trkpt lat="44.95990068856846" lon="11.785187955233347"><ele>3.0</ele><time>2026-04-05T14:24:50.911Z</time></trkpt><trkpt lat="44.959783123993816" lon="11.784840179740629"><ele>4.0</ele><time>2026-04-05T14:24:51.91Z</time></trkpt><trkpt lat="44.959684395890534" lon="11.784476244050007"><ele>5.0</ele><time>2026-04-05T14:24:52.91Z</time></trkpt><trkpt lat="44.959600929781566" lon="11.784116604685533"><ele>6.0</ele><time>2026-04-05T14:24:53.91Z</time></trkpt><trkpt lat="44.95952852812601" lon="11.783771730112326"><ele>7.0</ele><time>2026-04-05T14:24:54.91Z</time></trkpt><trkpt lat="44.959455434770376" lon="11.783444939237963"><ele>7.0</ele><time>2026-04-05T14:24:55.91Z</time></trkpt><trkpt lat="44.9593812772056" lon="11.783131767281201"><ele>7.0</ele><time>2026-04-05T14:24:56.91Z</time></trkpt><trkpt lat="44.9593135310495" lon="11.7828310347293"><ele>6.666666666666667</ele><time>2026-04-05T14:24:57.91Z</time></trkpt><trkpt lat="44.959249442265474" lon="11.782540495708632"><ele>6.333333333333334</ele><time>2026-04-05T14:24:58.91Z</time></trkpt><trkpt lat="44.95917789220984" lon="11.78224493527547"><ele>6.0</ele><time>2026-04-05T14:24:59.91Z</time></trkpt><trkpt lat="44.95909774151945" lon="11.781951307009937"><ele>4.5</ele><time>2026-04-05T14:25:00.91Z</time></trkpt><trkpt lat="44.95900734827991" lon="11.781657614814808"><ele>3.0</ele><time>2026-04-05T14:25:01.91Z</time></trkpt><trkpt lat="44.95890011401739" lon="11.781356358613843"><ele>3.0</ele><time>2026-04-05T14:25:02.91Z</time></trkpt><trkpt lat="44.95880251370588" lon="11.781039808362026"><ele>3.0</ele><time>2026-04-05T14:25:03.91Z</time></trkpt><trkpt lat="44.95869534177498" lon="11.780721825546166"><ele>3.5</ele><time>2026-04-05T14:25:04.91Z</time></trkpt><trkpt lat="44.95858455663747" lon="11.780406167066863"><ele>4.0</ele><time>2026-04-05T14:25:05.91Z</time></trkpt><trkpt lat="44.958409319156694" lon="11.780138051463847"><ele>2.5</ele><time>2026-04-05T14:25:06.91Z</time></trkpt><trkpt lat="44.9582693652594" lon="11.779854270254283"><ele>1.0</ele><time>2026-04-05T14:25:07.91Z</time></trkpt><trkpt lat="44.95812974579874" lon="11.77958572603213"><ele>1.0</ele><time>2026-04-05T14:25:08.91Z</time></trkpt><trkpt lat="44.95799599568423" lon="11.779329217562049"><ele>1.0</ele><time>2026-04-05T14:25:09.91Z</time></trkpt><trkpt lat="44.95786584589272" lon="11.779084068826867"><ele>1.0</ele><time>2026-04-05T14:25:10.91Z</time></trkpt><trkpt lat="44.95773930894946" lon="11.778851960420146"><ele>1.0</ele><time>2026-04-05T14:25:11.91Z</time></trkpt><trkpt lat="44.957614838848635" lon="11.778628850669211"><ele>1.0</ele><time>2026-04-05T14:25:12.91Z</time></trkpt><trkpt lat="44.95749370390297" lon="11.77841646942928"><ele>1.0</ele><time>2026-04-05T14:25:13.91Z</time></trkpt><trkpt lat="44.95736954089406" lon="11.778193877211832"><ele>1.0</ele><time>2026-04-05T14:25:14.91Z</time></trkpt><trkpt lat="44.957238695326545" lon="11.7779569848923"><ele>1.0</ele><time>2026-04-05T14:25:15.91Z</time></trkpt><trkpt lat="44.95709190978235" lon="11.777707577735812"><ele>1.0</ele><time>2026-04-05T14:25:16.91Z</time></trkpt><trkpt lat="44.956942907770575" lon="11.777426909308135"><ele>1.0</ele><time>2026-04-05T14:25:17.91Z</time></trkpt><trkpt lat="44.95678197538601" lon="11.777139694913862"><ele>1.0</ele><time>2026-04-05T14:25:18.91Z</time></trkpt><trkpt lat="44.9566189524026" lon="11.77685284111009"><ele>1.0</ele><time>2026-04-05T14:25:19.91Z</time></trkpt><trkpt lat="44.95645544220708" lon="11.776553318983238"><ele>1.0</ele><time>2026-04-05T14:25:20.91Z</time></trkpt><trkpt lat="44.9562872249511" lon="11.776253635772772"><ele>1.5</ele><time>2026-04-05T14:25:21.91Z</time></trkpt><trkpt lat="44.956120983798684" lon="11.775950336055992"><ele>2.0</ele><time>2026-04-05T14:25:22.91Z</time></trkpt><trkpt lat="44.95596048319222" lon="11.775652368763785"><ele>2.0</ele><time>2026-04-05T14:25:23.909Z</time></trkpt><trkpt lat="44.955799142168175" lon="11.775344582548215"><ele>2.0</ele><time>2026-04-05T14:25:24.909Z</time></trkpt><trkpt lat="44.95564241922732" lon="11.775042821673606"><ele>2.0</ele><time>2026-04-05T14:25:25.909Z</time></trkpt><trkpt lat="44.955492038065906" lon="11.774741815377947"><ele>2.0</ele><time>2026-04-05T14:25:26.909Z</time></trkpt><trkpt lat="44.95534732750755" lon="11.774449605083587"><ele>2.5</ele><time>2026-04-05T14:25:27.909Z</time></trkpt><trkpt lat="44.95520695382608" lon="11.774163707884137"><ele>3.0</ele><time>2026-04-05T14:25:28.909Z</time></trkpt><trkpt lat="44.955066668976734" lon="11.77388698268484"><ele>3.0</ele><time>2026-04-05T14:25:29.909Z</time></trkpt><trkpt lat="44.95493519402436" lon="11.773623106878006"><ele>3.0</ele><time>2026-04-05T14:25:30.909Z</time></trkpt><trkpt lat="44.954809312172614" lon="11.773356326370324"><ele>3.0</ele><time>2026-04-05T14:25:31.909Z</time></trkpt><trkpt lat="44.954670943431765" lon="11.773100785345251"><ele>3.0</ele><time>2026-04-05T14:25:32.909Z</time></trkpt><trkpt lat="44.95453975418594" lon="11.772831313171842"><ele>3.0</ele><time>2026-04-05T14:25:33.909Z</time></trkpt><trkpt lat="44.95440896240407" lon="11.77255858784741"><ele>3.0</ele><time>2026-04-05T14:25:34.909Z</time></trkpt><trkpt lat="44.95427938111671" lon="11.772287876784953"><ele>2.6666666666666665</ele><time>2026-04-05T14:25:35.909Z</time></trkpt><trkpt lat="44.95414965835649" lon="11.77203247032993"><ele>2.333333333333333</ele><time>2026-04-05T14:25:36.909Z</time></trkpt><trkpt lat="44.95402254862378" lon="11.771785831156091"><ele>2.0</ele><time>2026-04-05T14:25:37.909Z</time></trkpt><trkpt lat="44.953906475158746" lon="11.771557184364832"><ele>2.0</ele><time>2026-04-05T14:25:38.909Z</time></trkpt><trkpt lat="44.95379462044683" lon="11.771324223412693"><ele>2.0</ele><time>2026-04-05T14:25:39.909Z</time></trkpt><trkpt lat="44.95368518729079" lon="11.771104974757598"><ele>2.0</ele><time>2026-04-05T14:25:40.909Z</time></trkpt><trkpt lat="44.953582176393006" lon="11.770870158280482"><ele>1.6666666666666665</ele><time>2026-04-05T14:25:41.909Z</time></trkpt><trkpt lat="44.953488949462425" lon="11.770617179074312"><ele>1.3333333333333333</ele><time>2026-04-05T14:25:42.909Z</time></trkpt><trkpt lat="44.95340594025017" lon="11.770342403826016"><ele>1.0</ele><time>2026-04-05T14:25:43.909Z</time></trkpt><trkpt lat="44.953334275766075" lon="11.770050304921705"><ele>1.3333333333333333</ele><time>2026-04-05T14:25:44.909Z</time></trkpt><trkpt lat="44.95326855891252" lon="11.769752719825492"><ele>1.6666666666666665</ele><time>2026-04-05T14:25:45.909Z</time></trkpt><trkpt lat="44.95319640103094" lon="11.76945366461686"><ele>2.0</ele><time>2026-04-05T14:25:46.909Z</time></trkpt><trkpt lat="44.95312267355777" lon="11.769158442429063"><ele>2.0</ele><time>2026-04-05T14:25:47.909Z</time></trkpt><trkpt lat="44.95305075129103" lon="11.768862160859861"><ele>2.0</ele><time>2026-04-05T14:25:48.909Z</time></trkpt><trkpt lat="44.95297884793893" lon="11.768563534547484"><ele>2.0</ele><time>2026-04-05T14:25:49.909Z</time></trkpt><trkpt lat="44.952910517429174" lon="11.7682779930812"><ele>2.0</ele><time>2026-04-05T14:25:50.909Z</time></trkpt><trkpt lat="44.952848380459585" lon="11.768011083252995"><ele>2.0</ele><time>2026-04-05T14:25:51.909Z</time></trkpt><trkpt lat="44.95278386658629" lon="11.767757150402458"><ele>2.0</ele><time>2026-04-05T14:25:52.909Z</time></trkpt><trkpt lat="44.952712934851554" lon="11.767508469493613"><ele>2.0</ele><time>2026-04-05T14:25:53.909Z</time></trkpt><trkpt lat="44.95262487902446" lon="11.767265891152913"><ele>2.0</ele><time>2026-04-05T14:25:54.909Z</time></trkpt><trkpt lat="44.95252809043737" lon="11.767043049125844"><ele>2.0</ele><time>2026-04-05T14:25:55.908Z</time></trkpt><trkpt lat="44.952408844837784" lon="11.766832053710393"><ele>2.333333333333333</ele><time>2026-04-05T14:25:56.908Z</time></trkpt><trkpt lat="44.952274565539156" lon="11.766630669767347"><ele>2.6666666666666665</ele><time>2026-04-05T14:25:57.908Z</time></trkpt><trkpt lat="44.95212734167644" lon="11.766454724769583"><ele>3.0</ele><time>2026-04-05T14:25:58.908Z</time></trkpt><trkpt lat="44.95197318236929" lon="11.766295838734285"><ele>3.0</ele><time>2026-04-05T14:25:59.908Z</time></trkpt><trkpt lat="44.951821133978555" lon="11.766149262822601"><ele>3.0</ele><time>2026-04-05T14:26:00.908Z</time></trkpt><trkpt lat="44.951677480551105" lon="11.766007620649203"><ele>3.0</ele><time>2026-04-05T14:26:01.908Z</time></trkpt><trkpt lat="44.9515416609878" lon="11.765867244369675"><ele>3.0</ele><time>2026-04-05T14:26:02.908Z</time></trkpt><trkpt lat="44.9514118358731" lon="11.76572224204556"><ele>3.0</ele><time>2026-04-05T14:26:03.908Z</time></trkpt><trkpt lat="44.95128358451546" lon="11.765578986481117"><ele>3.0</ele><time>2026-04-05T14:26:04.908Z</time></trkpt><trkpt lat="44.95116400413965" lon="11.765426668200087"><ele>3.0</ele><time>2026-04-05T14:26:05.908Z</time></trkpt><trkpt lat="44.951053688624874" lon="11.765274244257402"><ele>3.0</ele><time>2026-04-05T14:26:06.908Z</time></trkpt><trkpt lat="44.95095487539105" lon="11.765131704963263"><ele>3.0</ele><time>2026-04-05T14:26:07.908Z</time></trkpt><trkpt lat="44.95086645480771" lon="11.76499562882456"><ele>3.0</ele><time>2026-04-05T14:26:08.908Z</time></trkpt><trkpt lat="44.9507871288786" lon="11.764860295957002"><ele>3.0</ele><time>2026-04-05T14:26:09.908Z</time></trkpt><trkpt lat="44.950714618331865" lon="11.764723180773052"><ele>3.0</ele><time>2026-04-05T14:26:10.908Z</time></trkpt><trkpt lat="44.95065169768745" lon="11.76459098603608"><ele>3.0</ele><time>2026-04-05T14:26:11.908Z</time></trkpt><trkpt lat="44.95059456513963" lon="11.764469784357921"><ele>3.0</ele><time>2026-04-05T14:26:12.908Z</time></trkpt><trkpt lat="44.950554420658655" lon="11.764356218332392"><ele>3.0</ele><time>2026-04-05T14:26:13.908Z</time></trkpt><trkpt lat="44.950508507380974" lon="11.764259405955436"><ele>2.8333333333333335</ele><time>2026-04-05T14:26:14.908Z</time></trkpt><trkpt lat="44.95046966414565" lon="11.764173132135078"><ele>2.6666666666666665</ele><time>2026-04-05T14:26:15.908Z</time></trkpt><trkpt lat="44.950427374547736" lon="11.764079327979138"><ele>2.5</ele><time>2026-04-05T14:26:16.908Z</time></trkpt><trkpt lat="44.95037185485869" lon="11.763996362412398"><ele>2.333333333333333</ele><time>2026-04-05T14:26:17.908Z</time></trkpt><trkpt lat="44.95033950300899" lon="11.763890691684926"><ele>2.1666666666666665</ele><time>2026-04-05T14:26:18.908Z</time></trkpt><trkpt lat="44.95030117303229" lon="11.763789966895581"><ele>2.0</ele><time>2026-04-05T14:26:19.908Z</time></trkpt><trkpt lat="44.95026433055955" lon="11.763690777651423"><ele>1.9999999999999998</ele><time>2026-04-05T14:26:20.908Z</time></trkpt><trkpt lat="44.950232205743255" lon="11.763600729168125"><ele>2.0</ele><time>2026-04-05T14:26:21.908Z</time></trkpt><trkpt lat="44.95020159383887" lon="11.763512535697037"><ele>2.0</ele><time>2026-04-05T14:26:22.908Z</time></trkpt><trkpt lat="44.950153783620884" lon="11.763348078779725"><ele>2.0</ele><time>2026-04-05T14:26:24.908Z</time></trkpt><trkpt lat="44.95014910528271" lon="11.76324513999605"><ele>1.9999999999999998</ele><time>2026-04-05T14:26:25.908Z</time></trkpt><trkpt lat="44.950130011820036" lon="11.763145420582948"><ele>2.0</ele><time>2026-04-05T14:26:26.909Z</time></trkpt><trkpt lat="44.950116718934204" lon="11.763039251323216"><ele>1.9999999999999998</ele><time>2026-04-05T14:26:27.909Z</time></trkpt><trkpt lat="44.950095529108545" lon="11.76294615567804"><ele>2.0</ele><time>2026-04-05T14:26:28.909Z</time></trkpt><trkpt lat="44.950077999673624" lon="11.762820522630674"><ele>2.0</ele><time>2026-04-05T14:26:29.909Z</time></trkpt><trkpt lat="44.95006043035113" lon="11.76269335863807"><ele>2.0</ele><time>2026-04-05T14:26:30.909Z</time></trkpt><trkpt lat="44.95004307632866" lon="11.762573857984181"><ele>1.9999999999999998</ele><time>2026-04-05T14:26:31.909Z</time></trkpt><trkpt lat="44.95003392413282" lon="11.762454300803975"><ele>2.0</ele><time>2026-04-05T14:26:32.909Z</time></trkpt><trkpt lat="44.95001878826466" lon="11.762334043926781"><ele>2.1666666666666665</ele><time>2026-04-05T14:26:33.909Z</time></trkpt><trkpt lat="44.950009057804934" lon="11.76221424090976"><ele>2.333333333333333</ele><time>2026-04-05T14:26:34.909Z</time></trkpt><trkpt lat="44.949997496146125" lon="11.76208486608377"><ele>2.5</ele><time>2026-04-05T14:26:35.909Z</time></trkpt><trkpt lat="44.9499894911463" lon="11.76196942601065"><ele>2.6666666666666665</ele><time>2026-04-05T14:26:36.909Z</time></trkpt><trkpt lat="44.949984532292284" lon="11.761859658517844"><ele>2.8333333333333335</ele><time>2026-04-05T14:26:37.909Z</time></trkpt><trkpt lat="44.949979190591" lon="11.761760310333244"><ele>3.0</ele><time>2026-04-05T14:26:38.909Z</time></trkpt><trkpt lat="44.949977905063584" lon="11.761660296560265"><ele>3.1666666666666665</ele><time>2026-04-05T14:26:39.908Z</time></trkpt><trkpt lat="44.94997684352362" lon="11.761505176921512"><ele>3.333333333333333</ele><time>2026-04-05T14:26:41.908Z</time></trkpt><trkpt lat="44.949979367384174" lon="11.761414782677845"><ele>3.5</ele><time>2026-04-05T14:26:48.908Z</time></trkpt><trkpt lat="44.94997373061041" lon="11.761307296299584"><ele>3.6666666666666665</ele><time>2026-04-05T14:26:50.908Z</time></trkpt><trkpt lat="44.95001301687749" lon="11.761189178788056"><ele>3.833333333333333</ele><time>2026-04-05T14:26:51.908Z</time></trkpt><trkpt lat="44.9499655833649" lon="11.76106977003528"><ele>4.0</ele><time>2026-04-05T14:26:52.908Z</time></trkpt><trkpt lat="44.94992366356946" lon="11.760982043946417"><ele>4.0</ele><time>2026-04-05T14:26:53.908Z</time></trkpt><trkpt lat="44.94986731675276" lon="11.760880653601134"><ele>4.0</ele><time>2026-04-05T14:26:54.908Z</time></trkpt><trkpt lat="44.94980741069924" lon="11.7607888150973"><ele>4.0</ele><time>2026-04-05T14:26:55.908Z</time></trkpt><trkpt lat="44.94973838762843" lon="11.760702609891512"><ele>4.0</ele><time>2026-04-05T14:26:56.908Z</time></trkpt><trkpt lat="44.949652782093224" lon="11.760627193110183"><ele>4.0</ele><time>2026-04-05T14:26:57.908Z</time></trkpt><trkpt lat="44.94957223121138" lon="11.760578630431919"><ele>3.9999999999999996</ele><time>2026-04-05T14:26:58.908Z</time></trkpt><trkpt lat="44.94949362708525" lon="11.760553441045289"><ele>4.0</ele><time>2026-04-05T14:26:59.908Z</time></trkpt><trkpt lat="44.949408940458504" lon="11.760540862096367"><ele>4.0</ele><time>2026-04-05T14:27:00.908Z</time></trkpt><trkpt lat="44.949325245955464" lon="11.760545809142418"><ele>4.0</ele><time>2026-04-05T14:27:01.908Z</time></trkpt><trkpt lat="44.949250280084435" lon="11.760555590280505"><ele>3.9999999999999996</ele><time>2026-04-05T14:27:02.908Z</time></trkpt><trkpt lat="44.94913690734577" lon="11.76059448585811"><ele>4.0</ele><time>2026-04-05T14:27:04.908Z</time></trkpt><trkpt lat="44.94900860595062" lon="11.760594137904684"><ele>4.0</ele><time>2026-04-05T14:27:06.908Z</time></trkpt><trkpt lat="44.948934437049566" lon="11.76060777624842"><ele>3.9999999999999996</ele><time>2026-04-05T14:27:07.908Z</time></trkpt><trkpt lat="44.94885485282802" lon="11.760619201115954"><ele>4.0</ele><time>2026-04-05T14:27:08.908Z</time></trkpt><trkpt lat="44.948779827891535" lon="11.760629198075423"><ele>4.0</ele><time>2026-04-05T14:27:09.907Z</time></trkpt><trkpt lat="44.94870706294348" lon="11.760628610101923"><ele>3.9999999999999996</ele><time>2026-04-05T14:27:10.907Z</time></trkpt><trkpt lat="44.94864121295717" lon="11.760618851947575"><ele>4.0</ele><time>2026-04-05T14:27:11.907Z</time></trkpt><trkpt lat="44.94857178484447" lon="11.760611478156807"><ele>4.0</ele><time>2026-04-05T14:27:12.907Z</time></trkpt><trkpt lat="44.94849657745434" lon="11.760605602074087"><ele>3.9999999999999996</ele><time>2026-04-05T14:27:13.907Z</time></trkpt><trkpt lat="44.94841366709752" lon="11.760593736386447"><ele>4.0</ele><time>2026-04-05T14:27:14.907Z</time></trkpt><trkpt lat="44.948332130149396" lon="11.760580127993258"><ele>4.0</ele><time>2026-04-05T14:27:15.907Z</time></trkpt><trkpt lat="44.948249032763876" lon="11.760568688475384"><ele>4.0</ele><time>2026-04-05T14:27:16.907Z</time></trkpt><trkpt lat="44.94817702995577" lon="11.760530079915187"><ele>3.9999999999999996</ele><time>2026-04-05T14:27:17.907Z</time></trkpt><trkpt lat="44.948105002261144" lon="11.76053807187358"><ele>4.0</ele><time>2026-04-05T14:27:18.907Z</time></trkpt><trkpt lat="44.948031217961486" lon="11.760552098071654"><ele>3.9999999999999996</ele><time>2026-04-05T14:27:19.907Z</time></trkpt><trkpt lat="44.94795299979278" lon="11.760576949536572"><ele>4.0</ele><time>2026-04-05T14:27:20.907Z</time></trkpt><trkpt lat="44.94787470225052" lon="11.760609604489881"><ele>4.0</ele><time>2026-04-05T14:27:21.907Z</time></trkpt><trkpt lat="44.947794108857295" lon="11.760651227889344"><ele>4.0</ele><time>2026-04-05T14:27:22.907Z</time></trkpt><trkpt lat="44.94771344699485" lon="11.760693392279654"><ele>3.9999999999999996</ele><time>2026-04-05T14:27:23.907Z</time></trkpt><trkpt lat="44.94762511297539" lon="11.76072949574938"><ele>4.0</ele><time>2026-04-05T14:27:24.907Z</time></trkpt><trkpt lat="44.94754336836864" lon="11.760752741941193"><ele>3.9999999999999996</ele><time>2026-04-05T14:27:25.907Z</time></trkpt><trkpt lat="44.94746833248381" lon="11.760771829766348"><ele>4.0</ele><time>2026-04-05T14:27:26.907Z</time></trkpt><trkpt lat="44.947398441610574" lon="11.76078426696627"><ele>4.0</ele><time>2026-04-05T14:27:27.907Z</time></trkpt><trkpt lat="44.94728145452674" lon="11.76077403643463"><ele>4.0</ele><time>2026-04-05T14:27:29.907Z</time></trkpt><trkpt lat="44.947209480489036" lon="11.760747270593818"><ele>3.9999999999999996</ele><time>2026-04-05T14:27:31.907Z</time></trkpt><trkpt lat="44.947166597260164" lon="11.760610932115013"><ele>4.0</ele><time>2026-04-05T14:27:33.907Z</time></trkpt><trkpt lat="44.94716692794558" lon="11.760477679280497"><ele>4.0</ele><time>2026-04-05T14:27:34.907Z</time></trkpt><trkpt lat="44.94716085559949" lon="11.760339547557447"><ele>4.0</ele><time>2026-04-05T14:27:35.907Z</time></trkpt><trkpt lat="44.94714689376061" lon="11.760170496652176"><ele>4.0</ele><time>2026-04-05T14:27:36.907Z</time></trkpt><trkpt lat="44.947132842657396" lon="11.759990143223769"><ele>4.0</ele><time>2026-04-05T14:27:37.907Z</time></trkpt><trkpt lat="44.947100276467545" lon="11.759800251293726"><ele>4.0</ele><time>2026-04-05T14:27:38.907Z</time></trkpt><trkpt lat="44.94705697964485" lon="11.759602977639386"><ele>4.0</ele><time>2026-04-05T14:27:39.907Z</time></trkpt><trkpt lat="44.94700391346496" lon="11.759391378404247"><ele>4.0</ele><time>2026-04-05T14:27:40.907Z</time></trkpt><trkpt lat="44.94694005709107" lon="11.759179200600345"><ele>4.0</ele><time>2026-04-05T14:27:41.906Z</time></trkpt><trkpt lat="44.94686078718408" lon="11.758957826670956"><ele>4.0</ele><time>2026-04-05T14:27:42.906Z</time></trkpt><trkpt lat="44.946774113228976" lon="11.758735045068265"><ele>4.0</ele><time>2026-04-05T14:27:43.906Z</time></trkpt><trkpt lat="44.9466867609861" lon="11.758509701050839"><ele>4.0</ele><time>2026-04-05T14:27:44.906Z</time></trkpt><trkpt lat="44.94659631943683" lon="11.75828618639901"><ele>4.0</ele><time>2026-04-05T14:27:45.906Z</time></trkpt><trkpt lat="44.94650376160366" lon="11.75807144198432"><ele>4.0</ele><time>2026-04-05T14:27:46.906Z</time></trkpt><trkpt lat="44.94641112030719" lon="11.757863616602258"><ele>4.0</ele><time>2026-04-05T14:27:47.906Z</time></trkpt><trkpt lat="44.94631700325961" lon="11.75766189110645"><ele>4.0</ele><time>2026-04-05T14:27:48.906Z</time></trkpt><trkpt lat="44.94623502613279" lon="11.757457562179706"><ele>4.0</ele><time>2026-04-05T14:27:49.906Z</time></trkpt><trkpt lat="44.946148784551454" lon="11.757269108334318"><ele>4.0</ele><time>2026-04-05T14:27:50.906Z</time></trkpt><trkpt lat="44.94606855764154" lon="11.757087617673017"><ele>4.0</ele><time>2026-04-05T14:27:51.906Z</time></trkpt><trkpt lat="44.945998988222954" lon="11.756928184415738"><ele>4.0</ele><time>2026-04-05T14:27:52.906Z</time></trkpt><trkpt lat="44.94593747286299" lon="11.756784702139234"><ele>4.0</ele><time>2026-04-05T14:27:53.906Z</time></trkpt><trkpt lat="44.94588611368044" lon="11.756658320389594"><ele>4.0</ele><time>2026-04-05T14:27:54.906Z</time></trkpt><trkpt lat="44.94583249757173" lon="11.756563344911216"><ele>4.0</ele><time>2026-04-05T14:27:55.906Z</time></trkpt><trkpt lat="44.94583356565782" lon="11.75644629585606"><ele>4.0</ele><time>2026-04-05T14:27:56.906Z</time></trkpt><trkpt lat="44.94578370283116" lon="11.756334975081993"><ele>4.0</ele><time>2026-04-05T14:27:58.906Z</time></trkpt><trkpt lat="44.94571523141767" lon="11.756266674018583"><ele>4.0</ele><time>2026-04-05T14:28:04.906Z</time></trkpt><trkpt lat="44.945555653186844" lon="11.756356450844828"><ele>4.0</ele><time>2026-04-05T14:28:05.906Z</time></trkpt><trkpt lat="44.94546864620563" lon="11.756441605847225"><ele>4.0</ele><time>2026-04-05T14:28:06.906Z</time></trkpt><trkpt lat="44.94537514124903" lon="11.756536767710207"><ele>4.0</ele><time>2026-04-05T14:28:07.906Z</time></trkpt><trkpt lat="44.945262517157104" lon="11.75667340797407"><ele>4.0</ele><time>2026-04-05T14:28:08.906Z</time></trkpt><trkpt lat="44.945146940163404" lon="11.756838519344354"><ele>3.333333333333333</ele><time>2026-04-05T14:28:09.906Z</time></trkpt><trkpt lat="44.94502825686793" lon="11.757013799577376"><ele>2.6666666666666665</ele><time>2026-04-05T14:28:10.906Z</time></trkpt><trkpt lat="44.94491377028714" lon="11.75721904912769"><ele>2.0</ele><time>2026-04-05T14:28:11.906Z</time></trkpt><trkpt lat="44.94478274255991" lon="11.757406170221849"><ele>2.0</ele><time>2026-04-05T14:28:12.906Z</time></trkpt><trkpt lat="44.944649777669596" lon="11.757601221601298"><ele>2.0</ele><time>2026-04-05T14:28:13.905Z</time></trkpt><trkpt lat="44.94451850162919" lon="11.757797431181494"><ele>2.0</ele><time>2026-04-05T14:28:14.905Z</time></trkpt><trkpt lat="44.94437694693596" lon="11.757978570739235"><ele>2.0</ele><time>2026-04-05T14:28:15.905Z</time></trkpt><trkpt lat="44.94424257215807" lon="11.758179453731042"><ele>2.0</ele><time>2026-04-05T14:28:16.905Z</time></trkpt><trkpt lat="44.94410809973288" lon="11.75839227772586"><ele>2.0</ele><time>2026-04-05T14:28:17.905Z</time></trkpt><trkpt lat="44.943986395719044" lon="11.758625986285901"><ele>2.0</ele><time>2026-04-05T14:28:18.905Z</time></trkpt><trkpt lat="44.943868245414635" lon="11.758870398663618"><ele>2.0</ele><time>2026-04-05T14:28:19.905Z</time></trkpt><trkpt lat="44.94374896545282" lon="11.759125814764936"><ele>2.0</ele><time>2026-04-05T14:28:20.905Z</time></trkpt><trkpt lat="44.94363453069293" lon="11.75937085575401"><ele>2.6666666666666665</ele><time>2026-04-05T14:28:21.905Z</time></trkpt><trkpt lat="44.943535462868496" lon="11.75962897905703"><ele>3.333333333333333</ele><time>2026-04-05T14:28:22.905Z</time></trkpt><trkpt lat="44.9434224604798" lon="11.759833076436939"><ele>4.0</ele><time>2026-04-05T14:28:23.905Z</time></trkpt><trkpt lat="44.94333730903459" lon="11.760035334638118"><ele>4.333333333333333</ele><time>2026-04-05T14:28:24.905Z</time></trkpt><trkpt lat="44.94327232384701" lon="11.760232999911986"><ele>4.666666666666667</ele><time>2026-04-05T14:28:25.905Z</time></trkpt><trkpt lat="44.94324375935816" lon="11.76043920874186"><ele>5.0</ele><time>2026-04-05T14:28:26.905Z</time></trkpt><trkpt lat="44.9431800184136" lon="11.760656078618478"><ele>5.0</ele><time>2026-04-05T14:28:27.905Z</time></trkpt><trkpt lat="44.943125690149" lon="11.760903944628938"><ele>5.0</ele><time>2026-04-05T14:28:28.905Z</time></trkpt><trkpt lat="44.94306680381906" lon="11.761168389505904"><ele>5.0</ele><time>2026-04-05T14:28:29.905Z</time></trkpt><trkpt lat="44.94299912634535" lon="11.761447811515511"><ele>4.333333333333334</ele><time>2026-04-05T14:28:30.905Z</time></trkpt><trkpt lat="44.94292325220553" lon="11.761728530445762"><ele>3.666666666666667</ele><time>2026-04-05T14:28:31.905Z</time></trkpt><trkpt lat="44.94283706508687" lon="11.762012221085245"><ele>3.0</ele><time>2026-04-05T14:28:32.907Z</time></trkpt><trkpt lat="44.94274088911056" lon="11.762296125856603"><ele>3.0</ele><time>2026-04-05T14:28:33.907Z</time></trkpt><trkpt lat="44.94263947440341" lon="11.762580912782472"><ele>3.0</ele><time>2026-04-05T14:28:34.907Z</time></trkpt><trkpt lat="44.94253397710257" lon="11.762864812047933"><ele>2.5</ele><time>2026-04-05T14:28:35.907Z</time></trkpt><trkpt lat="44.942414470788556" lon="11.76314283550236"><ele>2.0</ele><time>2026-04-05T14:28:36.907Z</time></trkpt><trkpt lat="44.94226265862186" lon="11.76339673461571"><ele>2.0</ele><time>2026-04-05T14:28:37.907Z</time></trkpt><trkpt lat="44.94209950626092" lon="11.76361893215504"><ele>2.0</ele><time>2026-04-05T14:28:38.906Z</time></trkpt><trkpt lat="44.94192698654065" lon="11.76384199304305"><ele>2.0</ele><time>2026-04-05T14:28:39.907Z</time></trkpt><trkpt lat="44.941753891606474" lon="11.764045862412699"><ele>2.0</ele><time>2026-04-05T14:28:40.907Z</time></trkpt><trkpt lat="44.9415637350791" lon="11.764208425096614"><ele>2.0</ele><time>2026-04-05T14:28:41.907Z</time></trkpt><trkpt lat="44.941356276209135" lon="11.764350471207425"><ele>2.5</ele><time>2026-04-05T14:28:42.906Z</time></trkpt><trkpt lat="44.94113082119884" lon="11.764438058727775"><ele>3.0</ele><time>2026-04-05T14:28:43.906Z</time></trkpt><trkpt lat="44.940899877911974" lon="11.764495094119262"><ele>3.0</ele><time>2026-04-05T14:28:44.906Z</time></trkpt><trkpt lat="44.94066001809738" lon="11.76451705184735"><ele>3.0</ele><time>2026-04-05T14:28:45.906Z</time></trkpt><trkpt lat="44.94041505693328" lon="11.76450206530599"><ele>3.0</ele><time>2026-04-05T14:28:46.906Z</time></trkpt><trkpt lat="44.94016438203394" lon="11.764469666965944"><ele>3.0</ele><time>2026-04-05T14:28:47.906Z</time></trkpt><trkpt lat="44.93991048508096" lon="11.764440826705998"><ele>2.0</ele><time>2026-04-05T14:28:48.906Z</time></trkpt><trkpt lat="44.93965269566751" lon="11.764417076018676"><ele>1.0</ele><time>2026-04-05T14:28:49.906Z</time></trkpt><trkpt lat="44.93938747505043" lon="11.764392642957183"><ele>1.0</ele><time>2026-04-05T14:28:50.906Z</time></trkpt><trkpt lat="44.939120514363346" lon="11.764369001698814"><ele>1.0</ele><time>2026-04-05T14:28:51.906Z</time></trkpt><trkpt lat="44.93884332915467" lon="11.764352309750514"><ele>2.0</ele><time>2026-04-05T14:28:52.906Z</time></trkpt><trkpt lat="44.93855889670685" lon="11.764338226428613"><ele>3.0</ele><time>2026-04-05T14:28:53.906Z</time></trkpt><trkpt lat="44.938269313606405" lon="11.764329529839392"><ele>3.0</ele><time>2026-04-05T14:28:54.906Z</time></trkpt><trkpt lat="44.937977499347504" lon="11.764325532253784"><ele>3.0</ele><time>2026-04-05T14:28:55.906Z</time></trkpt><trkpt lat="44.9376842566173" lon="11.764324462970116"><ele>3.0</ele><time>2026-04-05T14:28:56.906Z</time></trkpt><trkpt lat="44.937389789864554" lon="11.76432849692834"><ele>3.0</ele><time>2026-04-05T14:28:57.906Z</time></trkpt><trkpt lat="44.93709576061206" lon="11.764333907960173"><ele>3.0</ele><time>2026-04-05T14:28:58.906Z</time></trkpt><trkpt lat="44.936803285355424" lon="11.764337931441995"><ele>3.0</ele><time>2026-04-05T14:28:59.906Z</time></trkpt><trkpt lat="44.93651546871343" lon="11.764343259521555"><ele>3.0</ele><time>2026-04-05T14:29:00.906Z</time></trkpt><trkpt lat="44.93623529302599" lon="11.76434504174663"><ele>3.0</ele><time>2026-04-05T14:29:01.905Z</time></trkpt><trkpt lat="44.935964033806904" lon="11.764347456691263"><ele>2.5</ele><time>2026-04-05T14:29:02.905Z</time></trkpt><trkpt lat="44.935701719754675" lon="11.764350643374545"><ele>2.0</ele><time>2026-04-05T14:29:03.905Z</time></trkpt><trkpt lat="44.9354479759172" lon="11.764355428704013"><ele>2.0</ele><time>2026-04-05T14:29:04.905Z</time></trkpt><trkpt lat="44.93520359054026" lon="11.764359452206614"><ele>2.0</ele><time>2026-04-05T14:29:05.905Z</time></trkpt><trkpt lat="44.93496755118242" lon="11.764364755396654"><ele>2.0</ele><time>2026-04-05T14:29:06.905Z</time></trkpt><trkpt lat="44.93473627623705" lon="11.764369121443677"><ele>2.0</ele><time>2026-04-05T14:29:07.904Z</time></trkpt><trkpt lat="44.934505482137574" lon="11.76437010556011"><ele>2.0</ele><time>2026-04-05T14:29:08.904Z</time></trkpt><trkpt lat="44.934265282530035" lon="11.764370629405347"><ele>2.0</ele><time>2026-04-05T14:29:09.904Z</time></trkpt><trkpt lat="44.93402102667729" lon="11.764354658922677"><ele>2.0</ele><time>2026-04-05T14:29:10.904Z</time></trkpt><trkpt lat="44.93377117543443" lon="11.764383384338986"><ele>2.0</ele><time>2026-04-05T14:29:11.904Z</time></trkpt><trkpt lat="44.93352024025333" lon="11.764373615846791"><ele>2.0</ele><time>2026-04-05T14:29:12.904Z</time></trkpt><trkpt lat="44.93327305751126" lon="11.764397590796074"><ele>2.0</ele><time>2026-04-05T14:29:13.904Z</time></trkpt><trkpt lat="44.933025547017415" lon="11.764403707783014"><ele>2.0</ele><time>2026-04-05T14:29:14.904Z</time></trkpt><trkpt lat="44.93278089094299" lon="11.764474875218284"><ele>2.0</ele><time>2026-04-05T14:29:15.904Z</time></trkpt><trkpt lat="44.93253223807885" lon="11.76452514102476"><ele>2.0</ele><time>2026-04-05T14:29:16.904Z</time></trkpt><trkpt lat="44.93228457441419" lon="11.764590493748717"><ele>2.0</ele><time>2026-04-05T14:29:17.904Z</time></trkpt><trkpt lat="44.93203701921844" lon="11.76466771982936"><ele>2.0</ele><time>2026-04-05T14:29:18.904Z</time></trkpt><trkpt lat="44.93179172652889" lon="11.764761627936267"><ele>2.0</ele><time>2026-04-05T14:29:19.904Z</time></trkpt><trkpt lat="44.93155055098475" lon="11.764869585921126"><ele>1.5</ele><time>2026-04-05T14:29:20.904Z</time></trkpt><trkpt lat="44.93130847590579" lon="11.764987820484698"><ele>1.0</ele><time>2026-04-05T14:29:21.904Z</time></trkpt><trkpt lat="44.93106694431625" lon="11.76511172547477"><ele>1.5</ele><time>2026-04-05T14:29:22.904Z</time></trkpt><trkpt lat="44.93082715449109" lon="11.76524692697441"><ele>2.0</ele><time>2026-04-05T14:29:23.904Z</time></trkpt><trkpt lat="44.930590953006075" lon="11.765392152520143"><ele>2.0</ele><time>2026-04-05T14:29:24.904Z</time></trkpt><trkpt lat="44.93035853869542" lon="11.765548344754038"><ele>2.0</ele><time>2026-04-05T14:29:25.904Z</time></trkpt><trkpt lat="44.93012958891727" lon="11.765721070534104"><ele>2.5</ele><time>2026-04-05T14:29:26.904Z</time></trkpt><trkpt lat="44.92990314607908" lon="11.765901100178624"><ele>3.0</ele><time>2026-04-05T14:29:27.904Z</time></trkpt><trkpt lat="44.92967951943852" lon="11.766088239881677"><ele>3.0</ele><time>2026-04-05T14:29:28.904Z</time></trkpt><trkpt lat="44.929462412898424" lon="11.76629102585596"><ele>3.0</ele><time>2026-04-05T14:29:29.904Z</time></trkpt><trkpt lat="44.9292525612427" lon="11.766487520988683"><ele>3.0</ele><time>2026-04-05T14:29:30.904Z</time></trkpt><trkpt lat="44.92905229807063" lon="11.766676148015357"><ele>3.0</ele><time>2026-04-05T14:29:31.904Z</time></trkpt><trkpt lat="44.92886285707948" lon="11.766855727972418"><ele>3.0</ele><time>2026-04-05T14:29:32.904Z</time></trkpt><trkpt lat="44.928676203122436" lon="11.767031670285798"><ele>3.0</ele><time>2026-04-05T14:29:33.903Z</time></trkpt><trkpt lat="44.92849115693492" lon="11.76721008665621"><ele>3.0</ele><time>2026-04-05T14:29:34.903Z</time></trkpt><trkpt lat="44.9283074914941" lon="11.767388723960902"><ele>2.5</ele><time>2026-04-05T14:29:35.903Z</time></trkpt><trkpt lat="44.92812097698411" lon="11.767570749191798"><ele>2.0</ele><time>2026-04-05T14:29:36.903Z</time></trkpt><trkpt lat="44.927930531015456" lon="11.767755408299431"><ele>2.0</ele><time>2026-04-05T14:29:37.903Z</time></trkpt><trkpt lat="44.92773245558848" lon="11.7679441446458"><ele>2.0</ele><time>2026-04-05T14:29:38.903Z</time></trkpt><trkpt lat="44.92753439036897" lon="11.768135295697748"><ele>1.5</ele><time>2026-04-05T14:29:39.903Z</time></trkpt><trkpt lat="44.92733477184046" lon="11.768328879135055"><ele>1.0</ele><time>2026-04-05T14:29:40.903Z</time></trkpt><trkpt lat="44.927130052901404" lon="11.76852303120872"><ele>1.5</ele><time>2026-04-05T14:29:41.903Z</time></trkpt><trkpt lat="44.926938746048144" lon="11.768707553657897"><ele>2.0</ele><time>2026-04-05T14:29:42.903Z</time></trkpt><trkpt lat="44.92675922609382" lon="11.768884615684689"><ele>2.0</ele><time>2026-04-05T14:29:43.903Z</time></trkpt><trkpt lat="44.926581596264626" lon="11.769047341991373"><ele>2.0</ele><time>2026-04-05T14:29:44.903Z</time></trkpt><trkpt lat="44.9264145681426" lon="11.769205726049073"><ele>2.0</ele><time>2026-04-05T14:29:45.903Z</time></trkpt><trkpt lat="44.92625317005226" lon="11.769353323907708"><ele>1.6666666666666665</ele><time>2026-04-05T14:29:46.903Z</time></trkpt><trkpt lat="44.92607404961644" lon="11.76948072299816"><ele>1.3333333333333333</ele><time>2026-04-05T14:29:47.903Z</time></trkpt><trkpt lat="44.92587044337122" lon="11.769593632757209"><ele>1.0</ele><time>2026-04-05T14:29:48.903Z</time></trkpt><trkpt lat="44.9256436532025" lon="11.769692847650362"><ele>2.0</ele><time>2026-04-05T14:29:49.903Z</time></trkpt><trkpt lat="44.9253999688206" lon="11.769802976502714"><ele>3.0</ele><time>2026-04-05T14:29:50.903Z</time></trkpt><trkpt lat="44.925144960469105" lon="11.76992019269222"><ele>2.5</ele><time>2026-04-05T14:29:51.903Z</time></trkpt><trkpt lat="44.924882262638526" lon="11.770043043730233"><ele>2.0</ele><time>2026-04-05T14:29:52.903Z</time></trkpt><trkpt lat="44.924603225994645" lon="11.770176145896876"><ele>2.0</ele><time>2026-04-05T14:29:53.903Z</time></trkpt><trkpt lat="44.92431113356875" lon="11.770312263496704"><ele>2.0</ele><time>2026-04-05T14:29:54.903Z</time></trkpt><trkpt lat="44.92400629513498" lon="11.770459577888428"><ele>2.0</ele><time>2026-04-05T14:29:55.903Z</time></trkpt><trkpt lat="44.92369529595078" lon="11.770604676808288"><ele>2.0</ele><time>2026-04-05T14:29:56.903Z</time></trkpt><trkpt lat="44.923378937084316" lon="11.77075288584039"><ele>2.0</ele><time>2026-04-05T14:29:57.903Z</time></trkpt><trkpt lat="44.92306190104431" lon="11.770904918358042"><ele>2.0</ele><time>2026-04-05T14:29:58.903Z</time></trkpt><trkpt lat="44.92274855010648" lon="11.771054096189141"><ele>1.5</ele><time>2026-04-05T14:29:59.903Z</time></trkpt><trkpt lat="44.92244300873181" lon="11.771197016876618"><ele>1.0</ele><time>2026-04-05T14:30:00.903Z</time></trkpt><trkpt lat="44.92216015525342" lon="11.771326585862925"><ele>1.0</ele><time>2026-04-05T14:30:01.903Z</time></trkpt><trkpt lat="44.921894168775076" lon="11.77145236241316"><ele>1.0</ele><time>2026-04-05T14:30:02.903Z</time></trkpt><trkpt lat="44.921644833520666" lon="11.771571068034678"><ele>1.0</ele><time>2026-04-05T14:30:03.903Z</time></trkpt><trkpt lat="44.921408829992174" lon="11.771679596885889"><ele>1.0</ele><time>2026-04-05T14:30:04.903Z</time></trkpt><trkpt lat="44.92119035034597" lon="11.771780161522571"><ele>1.0</ele><time>2026-04-05T14:30:05.902Z</time></trkpt><trkpt lat="44.92097995049141" lon="11.77187594992461"><ele>1.0</ele><time>2026-04-05T14:30:06.902Z</time></trkpt><trkpt lat="44.9207913602142" lon="11.771960431512598"><ele>1.0</ele><time>2026-04-05T14:30:07.902Z</time></trkpt><trkpt lat="44.92060685774995" lon="11.772040402982922"><ele>1.0</ele><time>2026-04-05T14:30:08.902Z</time></trkpt><trkpt lat="44.92042620831509" lon="11.772127498731809"><ele>1.0</ele><time>2026-04-05T14:30:09.902Z</time></trkpt><trkpt lat="44.92025078868843" lon="11.772214441534704"><ele>1.0</ele><time>2026-04-05T14:30:10.902Z</time></trkpt><trkpt lat="44.92007980611646" lon="11.772332168925331"><ele>1.0</ele><time>2026-04-05T14:30:11.902Z</time></trkpt><trkpt lat="44.91991255279319" lon="11.772506888489062"><ele>1.0</ele><time>2026-04-05T14:30:12.902Z</time></trkpt><trkpt lat="44.9197395877783" lon="11.772743202782719"><ele>1.0</ele><time>2026-04-05T14:30:13.902Z</time></trkpt><trkpt lat="44.91953055095858" lon="11.773017135499552"><ele>2.0</ele><time>2026-04-05T14:30:14.902Z</time></trkpt><trkpt lat="44.91932189013907" lon="11.773310148467788"><ele>3.0</ele><time>2026-04-05T14:30:15.902Z</time></trkpt><trkpt lat="44.91911173627796" lon="11.77360454048263"><ele>3.0</ele><time>2026-04-05T14:30:16.902Z</time></trkpt><trkpt lat="44.918887404581795" lon="11.77389363833469"><ele>3.0</ele><time>2026-04-05T14:30:17.902Z</time></trkpt><trkpt lat="44.918665672680184" lon="11.774190158827448"><ele>2.0</ele><time>2026-04-05T14:30:18.902Z</time></trkpt><trkpt lat="44.91843990112754" lon="11.774491214107597"><ele>1.0</ele><time>2026-04-05T14:30:19.902Z</time></trkpt><trkpt lat="44.918214669719625" lon="11.774802110169192"><ele>1.0</ele><time>2026-04-05T14:30:20.902Z</time></trkpt><trkpt lat="44.917982013964945" lon="11.775115480011051"><ele>1.0</ele><time>2026-04-05T14:30:21.902Z</time></trkpt><trkpt lat="44.91773989854666" lon="11.775430622931015"><ele>1.5</ele><time>2026-04-05T14:30:22.902Z</time></trkpt><trkpt lat="44.917482693931376" lon="11.775728964011714"><ele>2.0</ele><time>2026-04-05T14:30:23.902Z</time></trkpt><trkpt lat="44.91724209839834" lon="11.776051788694657"><ele>2.5</ele><time>2026-04-05T14:30:24.902Z</time></trkpt><trkpt lat="44.917002396424174" lon="11.77637089227845"><ele>3.0</ele><time>2026-04-05T14:30:25.902Z</time></trkpt><trkpt lat="44.91675439563728" lon="11.776701043613665"><ele>2.5</ele><time>2026-04-05T14:30:26.902Z</time></trkpt><trkpt lat="44.91651632999911" lon="11.777017968809176"><ele>2.0</ele><time>2026-04-05T14:30:27.902Z</time></trkpt><trkpt lat="44.91627239487007" lon="11.777342614699238"><ele>2.0</ele><time>2026-04-05T14:30:28.902Z</time></trkpt><trkpt lat="44.91602438243916" lon="11.777670855473803"><ele>2.0</ele><time>2026-04-05T14:30:29.902Z</time></trkpt><trkpt lat="44.91577996079639" lon="11.777994343920282"><ele>1.5</ele><time>2026-04-05T14:30:30.902Z</time></trkpt><trkpt lat="44.915531408038575" lon="11.778324484565232"><ele>1.0</ele><time>2026-04-05T14:30:31.902Z</time></trkpt><trkpt lat="44.91528999237626" lon="11.778647314206143"><ele>1.5</ele><time>2026-04-05T14:30:32.902Z</time></trkpt><trkpt lat="44.91503989630599" lon="11.778981751695936"><ele>2.0</ele><time>2026-04-05T14:30:33.902Z</time></trkpt><trkpt lat="44.914796697711466" lon="11.779327240334874"><ele>1.5</ele><time>2026-04-05T14:30:34.902Z</time></trkpt><trkpt lat="44.91454241758349" lon="11.779661800382241"><ele>1.0</ele><time>2026-04-05T14:30:35.902Z</time></trkpt><trkpt lat="44.91428782482565" lon="11.779997769582943"><ele>0.5</ele><time>2026-04-05T14:30:36.902Z</time></trkpt><trkpt lat="44.91403625508348" lon="11.780342088987727"><ele>0.0</ele><time>2026-04-05T14:30:37.901Z</time></trkpt><trkpt lat="44.91378046186812" lon="11.780685520427133"><ele>0.5</ele><time>2026-04-05T14:30:38.903Z</time></trkpt><trkpt lat="44.91353477449024" lon="11.781020806805637"><ele>1.0</ele><time>2026-04-05T14:30:39.903Z</time></trkpt><trkpt lat="44.913290066400265" lon="11.781332707484943"><ele>1.0</ele><time>2026-04-05T14:30:40.903Z</time></trkpt><trkpt lat="44.91307196135401" lon="11.78162252593621"><ele>1.0</ele><time>2026-04-05T14:30:41.903Z</time></trkpt><trkpt lat="44.91286099100227" lon="11.781891141305401"><ele>1.0</ele><time>2026-04-05T14:30:42.903Z</time></trkpt><trkpt lat="44.91267659505159" lon="11.782132360427727"><ele>1.0</ele><time>2026-04-05T14:30:43.903Z</time></trkpt><trkpt lat="44.91250679212355" lon="11.78236738620601"><ele>1.5</ele><time>2026-04-05T14:30:44.904Z</time></trkpt><trkpt lat="44.91234288212276" lon="11.782591306817768"><ele>2.0</ele><time>2026-04-05T14:30:45.903Z</time></trkpt><trkpt lat="44.912173445502006" lon="11.78281817013781"><ele>2.0</ele><time>2026-04-05T14:30:46.903Z</time></trkpt><trkpt lat="44.912004807567044" lon="11.783043966431878"><ele>2.0</ele><time>2026-04-05T14:30:47.903Z</time></trkpt><trkpt lat="44.91183424462422" lon="11.783265321472815"><ele>1.6666666666666665</ele><time>2026-04-05T14:30:48.903Z</time></trkpt><trkpt lat="44.91168348843214" lon="11.783478534149918"><ele>1.3333333333333333</ele><time>2026-04-05T14:30:49.903Z</time></trkpt><trkpt lat="44.91152750562902" lon="11.783679449705714"><ele>1.0</ele><time>2026-04-05T14:30:50.903Z</time></trkpt><trkpt lat="44.911387560192686" lon="11.783885763218183"><ele>0.6666666666666666</ele><time>2026-04-05T14:30:51.903Z</time></trkpt><trkpt lat="44.91122951642372" lon="11.78410141628191"><ele>0.3333333333333333</ele><time>2026-04-05T14:30:52.903Z</time></trkpt><trkpt lat="44.9111009222241" lon="11.784358616108516"><ele>0.0</ele><time>2026-04-05T14:30:53.903Z</time></trkpt><trkpt lat="44.9109753068366" lon="11.784601299633064"><ele>0.0</ele><time>2026-04-05T14:30:54.903Z</time></trkpt><trkpt lat="44.91089534227988" lon="11.784857741439835"><ele>0.0</ele><time>2026-04-05T14:30:55.903Z</time></trkpt><trkpt lat="44.910836293425206" lon="11.78511057217318"><ele>0.0</ele><time>2026-04-05T14:30:56.901Z</time></trkpt><trkpt lat="44.91077157763231" lon="11.785368238550044"><ele>0.0</ele><time>2026-04-05T14:30:57.9Z</time></trkpt><trkpt lat="44.910704378367036" lon="11.785646429430864"><ele>0.0</ele><time>2026-04-05T14:30:58.898Z</time></trkpt><trkpt lat="44.91065344837993" lon="11.785939842903074"><ele>0.0</ele><time>2026-04-05T14:30:59.896Z</time></trkpt><trkpt lat="44.910638230916234" lon="11.786264416214419"><ele>1.0</ele><time>2026-04-05T14:31:00.895Z</time></trkpt><trkpt lat="44.91062502610549" lon="11.786615335526532"><ele>2.0</ele><time>2026-04-05T14:31:01.893Z</time></trkpt><trkpt lat="44.91065871191562" lon="11.786964088469688"><ele>2.0</ele><time>2026-04-05T14:31:02.892Z</time></trkpt><trkpt lat="44.91070398350874" lon="11.787326673324403"><ele>2.0</ele><time>2026-04-05T14:31:03.891Z</time></trkpt><trkpt lat="44.91075291249809" lon="11.787695664660456"><ele>2.5</ele><time>2026-04-05T14:31:04.89Z</time></trkpt><trkpt lat="44.91080170557091" lon="11.788071725691388"><ele>3.0</ele><time>2026-04-05T14:31:05.889Z</time></trkpt><trkpt lat="44.91082025983007" lon="11.78844786152445"><ele>2.5</ele><time>2026-04-05T14:31:06.888Z</time></trkpt><trkpt lat="44.91087424824592" lon="11.78883382354534"><ele>2.0</ele><time>2026-04-05T14:31:07.887Z</time></trkpt><trkpt lat="44.91092851324167" lon="11.789207736365134"><ele>2.0</ele><time>2026-04-05T14:31:08.886Z</time></trkpt><trkpt lat="44.91097416667879" lon="11.78958309341485"><ele>2.0</ele><time>2026-04-05T14:31:09.885Z</time></trkpt><trkpt lat="44.91101694797193" lon="11.789941705443338"><ele>1.5</ele><time>2026-04-05T14:31:10.884Z</time></trkpt><trkpt lat="44.91105890188339" lon="11.790289976597263"><ele>1.0</ele><time>2026-04-05T14:31:11.883Z</time></trkpt><trkpt lat="44.91109161899159" lon="11.790625461932539"><ele>1.0</ele><time>2026-04-05T14:31:12.883Z</time></trkpt><trkpt lat="44.911101613875196" lon="11.790955941310752"><ele>1.0</ele><time>2026-04-05T14:31:13.882Z</time></trkpt><trkpt lat="44.911102870106724" lon="11.791295903859254"><ele>1.0</ele><time>2026-04-05T14:31:14.881Z</time></trkpt><trkpt lat="44.91108340350401" lon="11.791632090659304"><ele>1.0</ele><time>2026-04-05T14:31:15.881Z</time></trkpt><trkpt lat="44.91102915187219" lon="11.791967208776345"><ele>1.0</ele><time>2026-04-05T14:31:16.88Z</time></trkpt><trkpt lat="44.91097294568814" lon="11.79230997434919"><ele>1.0</ele><time>2026-04-05T14:31:17.88Z</time></trkpt><trkpt lat="44.91085935300111" lon="11.792629204142573"><ele>1.0</ele><time>2026-04-05T14:31:18.879Z</time></trkpt><trkpt lat="44.910744218647686" lon="11.792960771050199"><ele>1.0</ele><time>2026-04-05T14:31:19.879Z</time></trkpt><trkpt lat="44.910624375351354" lon="11.793297796380719"><ele>1.5</ele><time>2026-04-05T14:31:20.878Z</time></trkpt><trkpt lat="44.9105045401655" lon="11.793640907619876"><ele>2.0</ele><time>2026-04-05T14:31:21.878Z</time></trkpt><trkpt lat="44.9104017482485" lon="11.793988678443139"><ele>2.0</ele><time>2026-04-05T14:31:22.877Z</time></trkpt><trkpt lat="44.91027168595636" lon="11.794310046988072"><ele>2.0</ele><time>2026-04-05T14:31:23.877Z</time></trkpt><trkpt lat="44.9101566288829" lon="11.794635654317869"><ele>1.5</ele><time>2026-04-05T14:31:24.877Z</time></trkpt><trkpt lat="44.91004706622584" lon="11.794933992850817"><ele>1.0</ele><time>2026-04-05T14:31:25.876Z</time></trkpt><trkpt lat="44.90992878120774" lon="11.795221666034507"><ele>0.5</ele><time>2026-04-05T14:31:26.876Z</time></trkpt><trkpt lat="44.909792742217945" lon="11.79548641082253"><ele>0.0</ele><time>2026-04-05T14:31:27.876Z</time></trkpt><trkpt lat="44.90964258212588" lon="11.795736181723774"><ele>0.0</ele><time>2026-04-05T14:31:28.875Z</time></trkpt><trkpt lat="44.90947826797809" lon="11.795960711591121"><ele>0.0</ele><time>2026-04-05T14:31:29.875Z</time></trkpt><trkpt lat="44.909308092291504" lon="11.796161351908104"><ele>0.5</ele><time>2026-04-05T14:31:30.875Z</time></trkpt><trkpt lat="44.9091183612303" lon="11.796344659315771"><ele>1.0</ele><time>2026-04-05T14:31:31.875Z</time></trkpt><trkpt lat="44.9089158921015" lon="11.796505457568331"><ele>1.0</ele><time>2026-04-05T14:31:32.875Z</time></trkpt><trkpt lat="44.90870469337147" lon="11.796647995712156"><ele>1.0</ele><time>2026-04-05T14:31:33.874Z</time></trkpt><trkpt lat="44.90848147401815" lon="11.796751725971037"><ele>0.5</ele><time>2026-04-05T14:31:34.874Z</time></trkpt><trkpt lat="44.90824065284786" lon="11.796835592126353"><ele>0.0</ele><time>2026-04-05T14:31:35.874Z</time></trkpt><trkpt lat="44.90799154840781" lon="11.796903782919877"><ele>0.0</ele><time>2026-04-05T14:31:36.874Z</time></trkpt><trkpt lat="44.9077356418576" lon="11.796968391418751"><ele>0.0</ele><time>2026-04-05T14:31:37.874Z</time></trkpt><trkpt lat="44.90748259336965" lon="11.797031304058066"><ele>0.0</ele><time>2026-04-05T14:31:38.873Z</time></trkpt><trkpt lat="44.90724819858326" lon="11.797092734230636"><ele>0.0</ele><time>2026-04-05T14:31:39.873Z</time></trkpt><trkpt lat="44.90703132460913" lon="11.797157901896647"><ele>0.0</ele><time>2026-04-05T14:31:40.873Z</time></trkpt><trkpt lat="44.90682554534523" lon="11.797248643380433"><ele>0.0</ele><time>2026-04-05T14:31:41.873Z</time></trkpt><trkpt lat="44.90662970217826" lon="11.797390088974701"><ele>0.0</ele><time>2026-04-05T14:31:42.873Z</time></trkpt><trkpt lat="44.90644617436537" lon="11.79755787305599"><ele>0.6666666666666666</ele><time>2026-04-05T14:31:43.873Z</time></trkpt><trkpt lat="44.90628481886319" lon="11.797765076374073"><ele>1.3333333333333333</ele><time>2026-04-05T14:31:44.873Z</time></trkpt><trkpt lat="44.906150839601885" lon="11.797998845035716"><ele>2.0</ele><time>2026-04-05T14:31:45.872Z</time></trkpt><trkpt lat="44.90604011503763" lon="11.798249452532904"><ele>2.333333333333333</ele><time>2026-04-05T14:31:46.872Z</time></trkpt><trkpt lat="44.905963094460795" lon="11.79851288482456"><ele>2.6666666666666665</ele><time>2026-04-05T14:31:47.872Z</time></trkpt><trkpt lat="44.905870003451106" lon="11.798769252415687"><ele>3.0</ele><time>2026-04-05T14:31:48.872Z</time></trkpt><trkpt lat="44.905793274014314" lon="11.799034773521406"><ele>3.0</ele><time>2026-04-05T14:31:49.872Z</time></trkpt><trkpt lat="44.90571221596264" lon="11.799320502198778"><ele>3.0</ele><time>2026-04-05T14:31:50.872Z</time></trkpt><trkpt lat="44.905762259289155" lon="11.799706256915448"><ele>3.0</ele><time>2026-04-05T14:31:51.872Z</time></trkpt><trkpt lat="44.90573697706346" lon="11.800057856010724"><ele>3.0</ele><time>2026-04-05T14:31:52.872Z</time></trkpt><trkpt lat="44.90574857752786" lon="11.800412729029532"><ele>2.5</ele><time>2026-04-05T14:31:53.872Z</time></trkpt><trkpt lat="44.90574889101655" lon="11.80077671551061"><ele>2.0</ele><time>2026-04-05T14:31:54.872Z</time></trkpt><trkpt lat="44.90574661466279" lon="11.80114089966765"><ele>1.5</ele><time>2026-04-05T14:31:55.872Z</time></trkpt><trkpt lat="44.90574548174682" lon="11.80150026017329"><ele>1.0</ele><time>2026-04-05T14:31:56.871Z</time></trkpt><trkpt lat="44.90573883957846" lon="11.801863686271505"><ele>1.0</ele><time>2026-04-05T14:31:57.871Z</time></trkpt><trkpt lat="44.905727784700275" lon="11.802228018488721"><ele>1.0</ele><time>2026-04-05T14:31:58.871Z</time></trkpt><trkpt lat="44.90571968969937" lon="11.802590982843148"><ele>1.0</ele><time>2026-04-05T14:31:59.871Z</time></trkpt><trkpt lat="44.90570703588418" lon="11.802944219804134"><ele>1.0</ele><time>2026-04-05T14:32:00.871Z</time></trkpt><trkpt lat="44.905689727123544" lon="11.803291388570367"><ele>1.0</ele><time>2026-04-05T14:32:01.871Z</time></trkpt><trkpt lat="44.90565431566122" lon="11.803644456147804"><ele>1.0</ele><time>2026-04-05T14:32:02.871Z</time></trkpt><trkpt lat="44.90562627965768" lon="11.803989652319073"><ele>1.0</ele><time>2026-04-05T14:32:03.871Z</time></trkpt><trkpt lat="44.90558379036446" lon="11.804336882304662"><ele>1.0</ele><time>2026-04-05T14:32:04.871Z</time></trkpt><trkpt lat="44.905537661467115" lon="11.804675757291852"><ele>1.0</ele><time>2026-04-05T14:32:05.871Z</time></trkpt><trkpt lat="44.905487682110284" lon="11.805013338655268"><ele>1.0</ele><time>2026-04-05T14:32:06.871Z</time></trkpt><trkpt lat="44.905423664427246" lon="11.80534923554292"><ele>1.0</ele><time>2026-04-05T14:32:07.871Z</time></trkpt><trkpt lat="44.90534546452382" lon="11.80568138267844"><ele>1.0</ele><time>2026-04-05T14:32:08.871Z</time></trkpt><trkpt lat="44.905272555708265" lon="11.806013583028152"><ele>1.0</ele><time>2026-04-05T14:32:09.871Z</time></trkpt><trkpt lat="44.905186877485065" lon="11.806345500832983"><ele>1.0</ele><time>2026-04-05T14:32:10.871Z</time></trkpt><trkpt lat="44.90510134069056" lon="11.806681359363214"><ele>2.0</ele><time>2026-04-05T14:32:11.871Z</time></trkpt><trkpt lat="44.90500520882423" lon="11.807009655188223"><ele>3.0</ele><time>2026-04-05T14:32:12.87Z</time></trkpt><trkpt lat="44.90490407678706" lon="11.807342265610863"><ele>3.0</ele><time>2026-04-05T14:32:13.87Z</time></trkpt><trkpt lat="44.9048036908002" lon="11.80767220849296"><ele>3.0</ele><time>2026-04-05T14:32:14.87Z</time></trkpt><trkpt lat="44.90470414216462" lon="11.808001546683967"><ele>3.0</ele><time>2026-04-05T14:32:15.87Z</time></trkpt><trkpt lat="44.904607351520895" lon="11.808318230706336"><ele>3.0</ele><time>2026-04-05T14:32:16.87Z</time></trkpt><trkpt lat="44.9045151488513" lon="11.80863043055943"><ele>3.666666666666667</ele><time>2026-04-05T14:32:17.87Z</time></trkpt><trkpt lat="44.90442382699363" lon="11.80891891603788"><ele>4.333333333333334</ele><time>2026-04-05T14:32:18.87Z</time></trkpt><trkpt lat="44.90433956357491" lon="11.80919234093948"><ele>5.0</ele><time>2026-04-05T14:32:19.87Z</time></trkpt><trkpt lat="44.90425161920746" lon="11.809436357411807"><ele>3.666666666666667</ele><time>2026-04-05T14:32:20.87Z</time></trkpt><trkpt lat="44.90416414467543" lon="11.80965325113697"><ele>2.3333333333333335</ele><time>2026-04-05T14:32:21.87Z</time></trkpt><trkpt lat="44.90407324409668" lon="11.809840734872973"><ele>1.0</ele><time>2026-04-05T14:32:22.87Z</time></trkpt><trkpt lat="44.90398863712252" lon="11.810001225701198"><ele>1.0</ele><time>2026-04-05T14:32:23.87Z</time></trkpt><trkpt lat="44.90390565008932" lon="11.81012681233141"><ele>1.0</ele><time>2026-04-05T14:32:24.87Z</time></trkpt><trkpt lat="44.903837367781506" lon="11.810223536034844"><ele>1.0</ele><time>2026-04-05T14:32:25.87Z</time></trkpt><trkpt lat="44.90377761350911" lon="11.810294015877457"><ele>1.0</ele><time>2026-04-05T14:32:26.87Z</time></trkpt><trkpt lat="44.90372367087743" lon="11.81036164355114"><ele>1.0</ele><time>2026-04-05T14:32:27.87Z</time></trkpt><trkpt lat="44.90364697941525" lon="11.81043500432309"><ele>1.0</ele><time>2026-04-05T14:32:28.87Z</time></trkpt><trkpt lat="44.90358003436757" lon="11.810549012725858"><ele>1.0</ele><time>2026-04-05T14:32:29.87Z</time></trkpt><trkpt lat="44.90354286140729" lon="11.810702053488974"><ele>1.0</ele><time>2026-04-05T14:32:30.87Z</time></trkpt><trkpt lat="44.90354906065404" lon="11.810877263743336"><ele>1.0</ele><time>2026-04-05T14:32:31.87Z</time></trkpt><trkpt lat="44.903578365679735" lon="11.811046245863908"><ele>1.25</ele><time>2026-04-05T14:32:32.87Z</time></trkpt><trkpt lat="44.903589658765945" lon="11.811245391162467"><ele>1.5</ele><time>2026-04-05T14:32:33.869Z</time></trkpt><trkpt lat="44.90358171491844" lon="11.811455518902655"><ele>1.75</ele><time>2026-04-05T14:32:34.869Z</time></trkpt><trkpt lat="44.90355388015907" lon="11.811674830663229"><ele>2.0</ele><time>2026-04-05T14:32:35.869Z</time></trkpt><trkpt lat="44.9035260172164" lon="11.811912258881119"><ele>2.0</ele><time>2026-04-05T14:32:36.869Z</time></trkpt><trkpt lat="44.90348861543753" lon="11.812165158196306"><ele>2.0</ele><time>2026-04-05T14:32:37.869Z</time></trkpt><trkpt lat="44.90342572347399" lon="11.812420246779824"><ele>2.0</ele><time>2026-04-05T14:32:38.869Z</time></trkpt><trkpt lat="44.90335032285578" lon="11.812667967496205"><ele>2.0</ele><time>2026-04-05T14:32:39.869Z</time></trkpt><trkpt lat="44.90326391883519" lon="11.81291638715549"><ele>2.0</ele><time>2026-04-05T14:32:40.869Z</time></trkpt><trkpt lat="44.90318018158358" lon="11.813171125825802"><ele>2.0</ele><time>2026-04-05T14:32:41.869Z</time></trkpt><trkpt lat="44.903099431423705" lon="11.813426468954583"><ele>2.0</ele><time>2026-04-05T14:32:42.869Z</time></trkpt><trkpt lat="44.903023354676456" lon="11.813671624865075"><ele>2.0</ele><time>2026-04-05T14:32:43.869Z</time></trkpt><trkpt lat="44.90294964913643" lon="11.813908075321523"><ele>2.0</ele><time>2026-04-05T14:32:44.87Z</time></trkpt><trkpt lat="44.902872727546104" lon="11.81413730408288"><ele>2.0</ele><time>2026-04-05T14:32:45.87Z</time></trkpt><trkpt lat="44.9027900829559" lon="11.814367888989434"><ele>2.0</ele><time>2026-04-05T14:32:46.87Z</time></trkpt><trkpt lat="44.90271012537222" lon="11.814595732717411"><ele>2.0</ele><time>2026-04-05T14:32:47.87Z</time></trkpt><trkpt lat="44.902636245368186" lon="11.814823003686785"><ele>1.6666666666666665</ele><time>2026-04-05T14:32:48.87Z</time></trkpt><trkpt lat="44.902553210443486" lon="11.815054074467474"><ele>1.3333333333333333</ele><time>2026-04-05T14:32:49.87Z</time></trkpt><trkpt lat="44.90247429742993" lon="11.815282168546235"><ele>1.0</ele><time>2026-04-05T14:32:50.87Z</time></trkpt><trkpt lat="44.90240617577181" lon="11.815524527104724"><ele>1.0</ele><time>2026-04-05T14:32:51.87Z</time></trkpt><trkpt lat="44.9023221348606" lon="11.815768326762885"><ele>1.0</ele><time>2026-04-05T14:32:52.87Z</time></trkpt><trkpt lat="44.9022240722746" lon="11.816020044653275"><ele>1.0</ele><time>2026-04-05T14:32:53.87Z</time></trkpt><trkpt lat="44.90211706472927" lon="11.81627353320855"><ele>1.0</ele><time>2026-04-05T14:32:54.869Z</time></trkpt><trkpt lat="44.901971254820445" lon="11.816491190183973"><ele>1.0</ele><time>2026-04-05T14:32:55.869Z</time></trkpt><trkpt lat="44.90186365775328" lon="11.816735817719053"><ele>1.0</ele><time>2026-04-05T14:32:56.869Z</time></trkpt><trkpt lat="44.901754939920956" lon="11.816972490067878"><ele>1.0</ele><time>2026-04-05T14:32:57.87Z</time></trkpt><trkpt lat="44.90164459912621" lon="11.817207203975117"><ele>1.0</ele><time>2026-04-05T14:32:58.869Z</time></trkpt><trkpt lat="44.901530040997706" lon="11.81744290533225"><ele>1.0</ele><time>2026-04-05T14:32:59.869Z</time></trkpt><trkpt lat="44.90140850544359" lon="11.817677338890839"><ele>1.0</ele><time>2026-04-05T14:33:00.869Z</time></trkpt><trkpt lat="44.90128184150754" lon="11.817917847048204"><ele>1.0</ele><time>2026-04-05T14:33:01.869Z</time></trkpt><trkpt lat="44.90115191579608" lon="11.818159762291605"><ele>1.0</ele><time>2026-04-05T14:33:02.869Z</time></trkpt><trkpt lat="44.90101543217426" lon="11.818397367300411"><ele>1.3333333333333333</ele><time>2026-04-05T14:33:03.869Z</time></trkpt><trkpt lat="44.90087449655516" lon="11.818635479444824"><ele>1.6666666666666665</ele><time>2026-04-05T14:33:04.869Z</time></trkpt><trkpt lat="44.90073316079933" lon="11.818871623919266"><ele>2.0</ele><time>2026-04-05T14:33:05.869Z</time></trkpt><trkpt lat="44.90058578687079" lon="11.819104535964879"><ele>1.6666666666666665</ele><time>2026-04-05T14:33:06.869Z</time></trkpt><trkpt lat="44.90043636765292" lon="11.819330125039205"><ele>1.3333333333333333</ele><time>2026-04-05T14:33:07.869Z</time></trkpt><trkpt lat="44.90028913748372" lon="11.819547802170247"><ele>1.0</ele><time>2026-04-05T14:33:08.869Z</time></trkpt><trkpt lat="44.900138843068184" lon="11.819765812044233"><ele>1.0</ele><time>2026-04-05T14:33:09.869Z</time></trkpt><trkpt lat="44.89999471653286" lon="11.819961796430562"><ele>1.0</ele><time>2026-04-05T14:33:10.869Z</time></trkpt><trkpt lat="44.899853304156785" lon="11.820145005098357"><ele>1.0</ele><time>2026-04-05T14:33:11.869Z</time></trkpt><trkpt lat="44.89970679165689" lon="11.820285625063539"><ele>1.0</ele><time>2026-04-05T14:33:12.869Z</time></trkpt><trkpt lat="44.89954914123933" lon="11.82041785592742"><ele>1.0</ele><time>2026-04-05T14:33:13.869Z</time></trkpt><trkpt lat="44.89936433066975" lon="11.82049381076672"><ele>1.0</ele><time>2026-04-05T14:33:14.869Z</time></trkpt><trkpt lat="44.89917936683343" lon="11.820566272703562"><ele>1.0</ele><time>2026-04-05T14:33:15.869Z</time></trkpt><trkpt lat="44.89899742742958" lon="11.820659689146177"><ele>1.0</ele><time>2026-04-05T14:33:16.869Z</time></trkpt><trkpt lat="44.89884062136038" lon="11.82077542531124"><ele>1.0</ele><time>2026-04-05T14:33:17.869Z</time></trkpt><trkpt lat="44.89869258104756" lon="11.820909885914372"><ele>0.6666666666666666</ele><time>2026-04-05T14:33:18.869Z</time></trkpt><trkpt lat="44.89855533664812" lon="11.82108117940405"><ele>0.3333333333333333</ele><time>2026-04-05T14:33:19.869Z</time></trkpt><trkpt lat="44.89842434203376" lon="11.821260300161331"><ele>0.0</ele><time>2026-04-05T14:33:20.869Z</time></trkpt><trkpt lat="44.898309602501506" lon="11.82143249037099"><ele>0.75</ele><time>2026-04-05T14:33:21.869Z</time></trkpt><trkpt lat="44.89819743776099" lon="11.821575847635069"><ele>1.5</ele><time>2026-04-05T14:33:22.869Z</time></trkpt><trkpt lat="44.898103718775545" lon="11.821699914184054"><ele>2.25</ele><time>2026-04-05T14:33:23.869Z</time></trkpt><trkpt lat="44.89800196834272" lon="11.821798011745663"><ele>3.0</ele><time>2026-04-05T14:33:24.868Z</time></trkpt><trkpt lat="44.897890387596235" lon="11.821870638727253"><ele>3.5</ele><time>2026-04-05T14:33:25.868Z</time></trkpt><trkpt lat="44.89775546058564" lon="11.821907676190898"><ele>4.0</ele><time>2026-04-05T14:33:26.868Z</time></trkpt><trkpt lat="44.8976348020056" lon="11.821984999496442"><ele>4.5</ele><time>2026-04-05T14:33:27.868Z</time></trkpt><trkpt lat="44.89749298084793" lon="11.822016907771927"><ele>5.0</ele><time>2026-04-05T14:33:28.868Z</time></trkpt><trkpt lat="44.897361266782966" lon="11.822069825134404"><ele>5.0</ele><time>2026-04-05T14:33:29.868Z</time></trkpt><trkpt lat="44.8972255412526" lon="11.82212485094387"><ele>5.0</ele><time>2026-04-05T14:33:30.868Z</time></trkpt><trkpt lat="44.89708996628505" lon="11.822179030245213"><ele>5.0</ele><time>2026-04-05T14:33:31.868Z</time></trkpt><trkpt lat="44.89695747236042" lon="11.82222473255723"><ele>5.0</ele><time>2026-04-05T14:33:32.868Z</time></trkpt><trkpt lat="44.896823094477725" lon="11.822273783289265"><ele>4.75</ele><time>2026-04-05T14:33:33.868Z</time></trkpt><trkpt lat="44.8967054938273" lon="11.822326423486873"><ele>4.5</ele><time>2026-04-05T14:33:34.868Z</time></trkpt><trkpt lat="44.896591278939646" lon="11.822362614905131"><ele>4.25</ele><time>2026-04-05T14:33:35.868Z</time></trkpt><trkpt lat="44.89648306081985" lon="11.82239837126772"><ele>4.0</ele><time>2026-04-05T14:33:36.868Z</time></trkpt><trkpt lat="44.89638312599198" lon="11.822427335878455"><ele>3.9999999999999996</ele><time>2026-04-05T14:33:37.868Z</time></trkpt><trkpt lat="44.89627752735501" lon="11.822462515719753"><ele>4.0</ele><time>2026-04-05T14:33:38.868Z</time></trkpt><trkpt lat="44.896212141969215" lon="11.822482439015568"><ele>4.0</ele><time>2026-04-05T14:33:39.868Z</time></trkpt><trkpt lat="44.89614262527391" lon="11.822500070805207"><ele>4.0</ele><time>2026-04-05T14:33:40.868Z</time></trkpt><trkpt lat="44.89607189061402" lon="11.82252639486581"><ele>3.9999999999999996</ele><time>2026-04-05T14:33:41.868Z</time></trkpt><trkpt lat="44.896006419179145" lon="11.822554956399136"><ele>4.0</ele><time>2026-04-05T14:34:03.867Z</time></trkpt><trkpt lat="44.89594054521745" lon="11.82257745666858"><ele>4.0</ele><time>2026-04-05T14:34:07.867Z</time></trkpt><trkpt lat="44.89587644087911" lon="11.822599352492537"><ele>4.0</ele><time>2026-04-05T14:34:09.867Z</time></trkpt><trkpt lat="44.8958956139623" lon="11.82291086150172"><ele>4.0</ele><time>2026-04-05T14:34:11.867Z</time></trkpt><trkpt lat="44.89591372069835" lon="11.823021323194439"><ele>4.0</ele><time>2026-04-05T14:34:12.867Z</time></trkpt><trkpt lat="44.895920262484196" lon="11.823156470523063"><ele>3.75</ele><time>2026-04-05T14:34:13.867Z</time></trkpt><trkpt lat="44.8959449264554" lon="11.823307692057625"><ele>3.5</ele><time>2026-04-05T14:34:14.867Z</time></trkpt><trkpt lat="44.89597165692046" lon="11.823471473857426"><ele>3.25</ele><time>2026-04-05T14:34:15.867Z</time></trkpt><trkpt lat="44.89599970257451" lon="11.823643314261092"><ele>3.0</ele><time>2026-04-05T14:34:16.866Z</time></trkpt><trkpt lat="44.89603002242448" lon="11.82382731213421"><ele>3.25</ele><time>2026-04-05T14:34:17.866Z</time></trkpt><trkpt lat="44.89605920566844" lon="11.8240049374059"><ele>3.5</ele><time>2026-04-05T14:34:18.866Z</time></trkpt><trkpt lat="44.89608750910703" lon="11.824177642377855"><ele>3.75</ele><time>2026-04-05T14:34:19.866Z</time></trkpt><trkpt lat="44.89611529547242" lon="11.824347533332675"><ele>4.0</ele><time>2026-04-05T14:34:20.866Z</time></trkpt><trkpt lat="44.89614207063207" lon="11.824511241585103"><ele>4.0</ele><time>2026-04-05T14:34:21.866Z</time></trkpt><trkpt lat="44.89616700270856" lon="11.824663680877418"><ele>4.0</ele><time>2026-04-05T14:34:22.866Z</time></trkpt><trkpt lat="44.896191101470464" lon="11.824811025252467"><ele>4.0</ele><time>2026-04-05T14:34:23.866Z</time></trkpt><trkpt lat="44.89621198507102" lon="11.82494268898504"><ele>4.0</ele><time>2026-04-05T14:34:24.866Z</time></trkpt><trkpt lat="44.896231325850025" lon="11.825059767598708"><ele>4.0</ele><time>2026-04-05T14:34:25.866Z</time></trkpt><trkpt lat="44.89624771002193" lon="11.825158948508536"><ele>3.9999999999999996</ele><time>2026-04-05T14:34:26.866Z</time></trkpt><trkpt lat="44.89626276063139" lon="11.825250056763474"><ele>4.0</ele><time>2026-04-05T14:34:27.866Z</time></trkpt><trkpt lat="44.896284845560544" lon="11.825383747299018"><ele>4.0</ele><time>2026-04-05T14:34:29.866Z</time></trkpt><trkpt lat="44.89630596777047" lon="11.825513984366077"><ele>4.0</ele><time>2026-04-05T14:34:51.866Z</time></trkpt><trkpt lat="44.896330458884535" lon="11.825663713334619"><ele>3.9999999999999996</ele><time>2026-04-05T14:34:53.866Z</time></trkpt><trkpt lat="44.896346309580444" lon="11.825755272321407"><ele>4.0</ele><time>2026-04-05T14:34:54.867Z</time></trkpt><trkpt lat="44.896363384790696" lon="11.82584890671641"><ele>4.0</ele><time>2026-04-05T14:34:55.867Z</time></trkpt><trkpt lat="44.896383807064815" lon="11.82596089526244"><ele>4.0</ele><time>2026-04-05T14:34:56.867Z</time></trkpt><trkpt lat="44.896405488767066" lon="11.826085143938865"><ele>4.0</ele><time>2026-04-05T14:34:57.866Z</time></trkpt><trkpt lat="44.89642969860312" lon="11.826228659820218"><ele>4.0</ele><time>2026-04-05T14:34:58.866Z</time></trkpt><trkpt lat="44.89645582944382" lon="11.826384023384607"><ele>4.0</ele><time>2026-04-05T14:34:59.866Z</time></trkpt><trkpt lat="44.89648450067809" lon="11.826554491128428"><ele>4.0</ele><time>2026-04-05T14:35:00.866Z</time></trkpt><trkpt lat="44.896513119394506" lon="11.826726316001553"><ele>4.0</ele><time>2026-04-05T14:35:01.866Z</time></trkpt><trkpt lat="44.89655672897377" lon="11.826893124252726"><ele>4.0</ele><time>2026-04-05T14:35:02.866Z</time></trkpt><trkpt lat="44.896582502717706" lon="11.827055712720403"><ele>4.0</ele><time>2026-04-05T14:35:03.866Z</time></trkpt><trkpt lat="44.89659534682981" lon="11.82721028249792"><ele>4.0</ele><time>2026-04-05T14:35:04.866Z</time></trkpt><trkpt lat="44.89661829470275" lon="11.827353646559045"><ele>4.0</ele><time>2026-04-05T14:35:05.866Z</time></trkpt><trkpt lat="44.896644184041584" lon="11.82748954749849"><ele>4.0</ele><time>2026-04-05T14:35:06.866Z</time></trkpt><trkpt lat="44.8966701268039" lon="11.82763064926729"><ele>4.0</ele><time>2026-04-05T14:35:07.866Z</time></trkpt><trkpt lat="44.89670350915443" lon="11.827768581221841"><ele>4.0</ele><time>2026-04-05T14:35:08.866Z</time></trkpt><trkpt lat="44.896708107341354" lon="11.827900972630086"><ele>4.166666666666666</ele><time>2026-04-05T14:35:09.866Z</time></trkpt><trkpt lat="44.896727025877205" lon="11.828014970634396"><ele>4.333333333333333</ele><time>2026-04-05T14:35:10.866Z</time></trkpt><trkpt lat="44.89674378511833" lon="11.828116665755203"><ele>4.5</ele><time>2026-04-05T14:35:11.866Z</time></trkpt><trkpt lat="44.8967586794038" lon="11.828207044323692"><ele>4.666666666666667</ele><time>2026-04-05T14:35:12.866Z</time></trkpt><trkpt lat="44.896785076319944" lon="11.82836722087916"><ele>4.833333333333334</ele><time>2026-04-05T14:35:14.866Z</time></trkpt><trkpt lat="44.89680211435886" lon="11.828470607760321"><ele>5.0</ele><time>2026-04-05T14:35:16.866Z</time></trkpt><trkpt lat="44.89681765764567" lon="11.828564924489385"><ele>4.6</ele><time>2026-04-05T14:35:20.866Z</time></trkpt><trkpt lat="44.89684091056693" lon="11.828705933592357"><ele>4.2</ele><time>2026-04-05T14:35:24.866Z</time></trkpt><trkpt lat="44.896855310377006" lon="11.828796121880568"><ele>3.8</ele><time>2026-04-05T14:35:25.866Z</time></trkpt><trkpt lat="44.89687500914758" lon="11.828915412258427"><ele>3.4</ele><time>2026-04-05T14:35:26.866Z</time></trkpt><trkpt lat="44.896897118891765" lon="11.82905062605183"><ele>3.0</ele><time>2026-04-05T14:35:27.866Z</time></trkpt><trkpt lat="44.89692335100187" lon="11.829213753652349"><ele>3.25</ele><time>2026-04-05T14:35:28.865Z</time></trkpt><trkpt lat="44.896952066846616" lon="11.829392326943172"><ele>3.5</ele><time>2026-04-05T14:35:29.865Z</time></trkpt><trkpt lat="44.89698111107948" lon="11.829575486934662"><ele>3.75</ele><time>2026-04-05T14:35:30.865Z</time></trkpt><trkpt lat="44.89701239437437" lon="11.82977166113154"><ele>4.0</ele><time>2026-04-05T14:35:31.865Z</time></trkpt><trkpt lat="44.89704424481596" lon="11.829971391855977"><ele>4.0</ele><time>2026-04-05T14:35:32.865Z</time></trkpt><trkpt lat="44.897077858370444" lon="11.8301821788812"><ele>4.0</ele><time>2026-04-05T14:35:33.865Z</time></trkpt><trkpt lat="44.89711101138371" lon="11.830390078189467"><ele>4.0</ele><time>2026-04-05T14:35:34.865Z</time></trkpt><trkpt lat="44.89714395637986" lon="11.830597402432122"><ele>4.0</ele><time>2026-04-05T14:35:35.865Z</time></trkpt><trkpt lat="44.89717697661555" lon="11.83080230021873"><ele>4.0</ele><time>2026-04-05T14:35:36.865Z</time></trkpt><trkpt lat="44.89721044397952" lon="11.831009972539778"><ele>4.0</ele><time>2026-04-05T14:35:37.865Z</time></trkpt><trkpt lat="44.897241782734724" lon="11.831204436377007"><ele>4.0</ele><time>2026-04-05T14:35:38.865Z</time></trkpt><trkpt lat="44.89727001271758" lon="11.831379609616418"><ele>3.8000000000000003</ele><time>2026-04-05T14:35:39.865Z</time></trkpt><trkpt lat="44.897295961680705" lon="11.831540628621887"><ele>3.6000000000000005</ele><time>2026-04-05T14:35:40.865Z</time></trkpt><trkpt lat="44.89731739853033" lon="11.831673648964161"><ele>3.4</ele><time>2026-04-05T14:35:41.865Z</time></trkpt><trkpt lat="44.89735130345245" lon="11.831784121159542"><ele>3.2</ele><time>2026-04-05T14:35:42.865Z</time></trkpt><trkpt lat="44.89735267512518" lon="11.831881355718819"><ele>3.0</ele><time>2026-04-05T14:35:43.865Z</time></trkpt><trkpt lat="44.89731944416642" lon="11.83199912623375"><ele>3.0</ele><time>2026-04-05T14:35:45.865Z</time></trkpt><trkpt lat="44.89722671030334" lon="11.832028359537736"><ele>3.0</ele><time>2026-04-05T14:35:47.865Z</time></trkpt><trkpt lat="44.897151587205805" lon="11.832048984387418"><ele>3.0</ele><time>2026-04-05T14:35:48.865Z</time></trkpt><trkpt lat="44.89707969135503" lon="11.832074877726377"><ele>3.0</ele><time>2026-04-05T14:35:49.865Z</time></trkpt><trkpt lat="44.897007306213425" lon="11.832097029236017"><ele>3.0</ele><time>2026-04-05T14:35:50.865Z</time></trkpt><trkpt lat="44.89692248587534" lon="11.832126570842734"><ele>3.0</ele><time>2026-04-05T14:35:51.865Z</time></trkpt><trkpt lat="44.896846613025176" lon="11.832167132203805"><ele>3.0</ele><time>2026-04-05T14:35:52.865Z</time></trkpt><trkpt lat="44.89677934968099" lon="11.832181823332622"><ele>3.0</ele><time>2026-04-05T14:35:53.865Z</time></trkpt><trkpt lat="44.89667147052429" lon="11.832254350405227"><ele>3.0</ele><time>2026-04-05T14:35:55.864Z</time></trkpt><trkpt lat="44.89660328509025" lon="11.832305516251376"><ele>3.0</ele><time>2026-04-05T14:35:57.864Z</time></trkpt><trkpt lat="44.89653838154966" lon="11.832299331996545"><ele>3.0</ele><time>2026-04-05T14:36:00.864Z</time></trkpt><trkpt lat="44.8964912216163" lon="11.83223547668459"><ele>3.0</ele><time>2026-04-05T14:36:07.864Z</time></trkpt><trkpt lat="44.89646777733328" lon="11.832143730872778"><ele>3.2</ele><time>2026-04-05T14:36:29.863Z</time></trkpt><trkpt lat="44.89653735160745" lon="11.83225231069692"><ele>3.4</ele><time>2026-04-05T14:38:23.86Z</time></trkpt><trkpt lat="44.896622497972785" lon="11.832301036323184"><ele>3.6000000000000005</ele><time>2026-04-05T14:38:29.86Z</time></trkpt><trkpt lat="44.896682087905404" lon="11.832405920025675"><ele>3.8000000000000003</ele><time>2026-04-05T14:38:31.86Z</time></trkpt><trkpt lat="44.89670029660849" lon="11.832492238688882"><ele>4.0</ele><time>2026-04-05T14:38:32.86Z</time></trkpt><trkpt lat="44.89674526541806" lon="11.832649934003639"><ele>3.833333333333333</ele><time>2026-04-05T14:38:34.859Z</time></trkpt><trkpt lat="44.89680261548103" lon="11.83277503489813"><ele>3.6666666666666665</ele><time>2026-04-05T14:38:36.859Z</time></trkpt><trkpt lat="44.89682553326723" lon="11.832876542650602"><ele>3.5</ele><time>2026-04-05T14:38:38.859Z</time></trkpt><trkpt lat="44.896907540398594" lon="11.832923569251344"><ele>3.333333333333333</ele><time>2026-04-05T14:38:45.859Z</time></trkpt><trkpt lat="44.896968104244365" lon="11.832876181866428"><ele>3.1666666666666665</ele><time>2026-04-05T14:38:46.859Z</time></trkpt><trkpt lat="44.89704605948906" lon="11.832815938857893"><ele>3.0</ele><time>2026-04-05T14:38:47.859Z</time></trkpt><trkpt lat="44.89711823134597" lon="11.832756123064375"><ele>3.0</ele><time>2026-04-05T14:38:48.859Z</time></trkpt><trkpt lat="44.897189934618524" lon="11.832707839336722"><ele>3.0</ele><time>2026-04-05T14:38:49.859Z</time></trkpt><trkpt lat="44.89725801592159" lon="11.832663356591464"><ele>3.0</ele><time>2026-04-05T14:38:50.859Z</time></trkpt><trkpt lat="44.89732459996592" lon="11.832620649308849"><ele>3.0</ele><time>2026-04-05T14:38:51.859Z</time></trkpt><trkpt lat="44.897401086227696" lon="11.83256785859252"><ele>3.0</ele><time>2026-04-05T14:38:53.859Z</time></trkpt><trkpt lat="44.897472014575015" lon="11.832578564177334"><ele>3.0</ele><time>2026-04-05T14:39:00.858Z</time></trkpt><trkpt lat="44.89749651596059" lon="11.832762939084274"><ele>3.0</ele><time>2026-04-05T14:39:02.86Z</time></trkpt><trkpt lat="44.89751168794126" lon="11.832906367389583"><ele>3.0</ele><time>2026-04-05T14:39:03.86Z</time></trkpt><trkpt lat="44.897537284071426" lon="11.833050253897147"><ele>3.0</ele><time>2026-04-05T14:39:04.86Z</time></trkpt><trkpt lat="44.89756417672046" lon="11.833202369875119"><ele>3.0</ele><time>2026-04-05T14:39:05.86Z</time></trkpt><trkpt lat="44.89759697528905" lon="11.833385883740553"><ele>3.25</ele><time>2026-04-05T14:39:06.86Z</time></trkpt><trkpt lat="44.8976243299445" lon="11.833574661560647"><ele>3.5</ele><time>2026-04-05T14:39:07.86Z</time></trkpt><trkpt lat="44.89765055088502" lon="11.833763119611556"><ele>3.75</ele><time>2026-04-05T14:39:08.86Z</time></trkpt><trkpt lat="44.897684852041806" lon="11.833956468463086"><ele>4.0</ele><time>2026-04-05T14:39:09.86Z</time></trkpt><trkpt lat="44.89772223331414" lon="11.834156901590086"><ele>3.75</ele><time>2026-04-05T14:39:10.86Z</time></trkpt><trkpt lat="44.89775660527133" lon="11.834355627015958"><ele>3.5</ele><time>2026-04-05T14:39:11.86Z</time></trkpt><trkpt lat="44.897792066933384" lon="11.834529274829066"><ele>3.25</ele><time>2026-04-05T14:39:12.86Z</time></trkpt><trkpt lat="44.89782180232185" lon="11.834684501669141"><ele>3.0</ele><time>2026-04-05T14:39:13.86Z</time></trkpt><trkpt lat="44.89784621427068" lon="11.834821430123172"><ele>3.0</ele><time>2026-04-05T14:39:14.859Z</time></trkpt><trkpt lat="44.897863570298114" lon="11.834933303831422"><ele>3.0</ele><time>2026-04-05T14:39:15.86Z</time></trkpt><trkpt lat="44.89787025120845" lon="11.835025746336223"><ele>3.0</ele><time>2026-04-05T14:39:16.86Z</time></trkpt><trkpt lat="44.89785950070521" lon="11.835152982435558"><ele>3.0</ele><time>2026-04-05T14:39:18.86Z</time></trkpt><trkpt lat="44.89780328758084" lon="11.835223924264046"><ele>3.0</ele><time>2026-04-05T14:39:20.86Z</time></trkpt><trkpt lat="44.89769845308183" lon="11.835254093200366"><ele>3.0</ele><time>2026-04-05T14:39:22.859Z</time></trkpt><trkpt lat="44.897607845877594" lon="11.83523447047648"><ele>3.0</ele><time>2026-04-05T14:39:23.859Z</time></trkpt><trkpt lat="44.897505843007885" lon="11.835214612052194"><ele>3.0</ele><time>2026-04-05T14:39:24.859Z</time></trkpt><trkpt lat="44.89738665624661" lon="11.835200093746334"><ele>3.0</ele><time>2026-04-05T14:39:25.859Z</time></trkpt><trkpt lat="44.89725966387329" lon="11.835170862323823"><ele>3.0</ele><time>2026-04-05T14:39:26.859Z</time></trkpt><trkpt lat="44.89712627997677" lon="11.835143071806783"><ele>2.75</ele><time>2026-04-05T14:39:27.859Z</time></trkpt><trkpt lat="44.89699622259543" lon="11.835129785615669"><ele>2.5</ele><time>2026-04-05T14:39:28.859Z</time></trkpt><trkpt lat="44.896858374687355" lon="11.835120291075098"><ele>2.25</ele><time>2026-04-05T14:39:29.859Z</time></trkpt><trkpt lat="44.89672477955897" lon="11.835127531904325"><ele>2.0</ele><time>2026-04-05T14:39:30.859Z</time></trkpt><trkpt lat="44.89659706932583" lon="11.835167818505573"><ele>2.0</ele><time>2026-04-05T14:39:31.859Z</time></trkpt><trkpt lat="44.89646220554335" lon="11.83519946618138"><ele>2.0</ele><time>2026-04-05T14:39:32.859Z</time></trkpt><trkpt lat="44.89634414976634" lon="11.835240330166165"><ele>2.0</ele><time>2026-04-05T14:39:33.859Z</time></trkpt><trkpt lat="44.896219959786826" lon="11.83528007604322"><ele>2.0</ele><time>2026-04-05T14:39:34.859Z</time></trkpt><trkpt lat="44.89609949590123" lon="11.835323329384677"><ele>2.0</ele><time>2026-04-05T14:39:35.859Z</time></trkpt><trkpt lat="44.89597645715559" lon="11.835359665957213"><ele>2.0</ele><time>2026-04-05T14:39:36.859Z</time></trkpt><trkpt lat="44.89584785147918" lon="11.835398538300733"><ele>2.0</ele><time>2026-04-05T14:39:37.859Z</time></trkpt><trkpt lat="44.89572088765572" lon="11.835447257391136"><ele>2.0</ele><time>2026-04-05T14:39:38.859Z</time></trkpt><trkpt lat="44.8955854215235" lon="11.835490287189296"><ele>2.5</ele><time>2026-04-05T14:39:39.859Z</time></trkpt><trkpt lat="44.89545395840521" lon="11.835527348346671"><ele>3.0</ele><time>2026-04-05T14:39:40.859Z</time></trkpt><trkpt lat="44.89532535085243" lon="11.835558634997954"><ele>3.5</ele><time>2026-04-05T14:39:41.859Z</time></trkpt><trkpt lat="44.895219390821474" lon="11.835595283031905"><ele>4.0</ele><time>2026-04-05T14:39:42.859Z</time></trkpt><trkpt lat="44.895121815433086" lon="11.835605032578258"><ele>4.0</ele><time>2026-04-05T14:39:43.859Z</time></trkpt><trkpt lat="44.8950266581096" lon="11.835580330734881"><ele>4.0</ele><time>2026-04-05T14:39:44.859Z</time></trkpt><trkpt lat="44.89494679268987" lon="11.835508405242459"><ele>4.0</ele><time>2026-04-05T14:39:45.859Z</time></trkpt><trkpt lat="44.89488616854314" lon="11.835369608338922"><ele>4.0</ele><time>2026-04-05T14:39:46.859Z</time></trkpt><trkpt lat="44.8948342316097" lon="11.835209354091557"><ele>4.0</ele><time>2026-04-05T14:39:47.859Z</time></trkpt><trkpt lat="44.89478399838102" lon="11.835030178016423"><ele>4.0</ele><time>2026-04-05T14:39:48.858Z</time></trkpt><trkpt lat="44.89472485547414" lon="11.83485630202548"><ele>4.0</ele><time>2026-04-05T14:39:49.858Z</time></trkpt><trkpt lat="44.89465909393503" lon="11.834680441947146"><ele>4.0</ele><time>2026-04-05T14:39:50.858Z</time></trkpt><trkpt lat="44.89460075662146" lon="11.834500570888656"><ele>4.0</ele><time>2026-04-05T14:39:51.858Z</time></trkpt><trkpt lat="44.894538447274556" lon="11.83433374916469"><ele>4.0</ele><time>2026-04-05T14:39:52.858Z</time></trkpt><trkpt lat="44.89448216305776" lon="11.834165521199255"><ele>4.0</ele><time>2026-04-05T14:39:53.858Z</time></trkpt><trkpt lat="44.89442242756151" lon="11.833998733652972"><ele>4.0</ele><time>2026-04-05T14:39:54.858Z</time></trkpt><trkpt lat="44.89436465612807" lon="11.833835329762769"><ele>4.0</ele><time>2026-04-05T14:39:55.858Z</time></trkpt><trkpt lat="44.894311095661315" lon="11.833688142622423"><ele>3.9999999999999996</ele><time>2026-04-05T14:39:56.858Z</time></trkpt><trkpt lat="44.89426609314587" lon="11.833555573691564"><ele>4.0</ele><time>2026-04-05T14:39:57.858Z</time></trkpt><trkpt lat="44.894229512615915" lon="11.83343249246637"><ele>4.0</ele><time>2026-04-05T14:39:58.858Z</time></trkpt><trkpt lat="44.89418716275001" lon="11.83331414897949"><ele>4.0</ele><time>2026-04-05T14:39:59.858Z</time></trkpt><trkpt lat="44.89415355505534" lon="11.83322812494256"><ele>3.9999999999999996</ele><time>2026-04-05T14:40:00.858Z</time></trkpt><trkpt lat="44.894097700924654" lon="11.833162122923724"><ele>4.0</ele><time>2026-04-05T14:40:02.858Z</time></trkpt><trkpt lat="44.89401051784009" lon="11.833223144504585"><ele>4.0</ele><time>2026-04-05T14:40:04.858Z</time></trkpt><trkpt lat="44.89392996613538" lon="11.833299786186405"><ele>4.0</ele><time>2026-04-05T14:40:05.858Z</time></trkpt><trkpt lat="44.89383135444623" lon="11.833388710221177"><ele>4.0</ele><time>2026-04-05T14:40:06.858Z</time></trkpt><trkpt lat="44.893728046829516" lon="11.833474512667898"><ele>4.0</ele><time>2026-04-05T14:40:07.858Z</time></trkpt><trkpt lat="44.89361865558019" lon="11.833555080793156"><ele>4.0</ele><time>2026-04-05T14:40:08.858Z</time></trkpt><trkpt lat="44.89353914385592" lon="11.83363475832528"><ele>4.0</ele><time>2026-04-05T14:40:09.858Z</time></trkpt><trkpt lat="44.89342977800116" lon="11.833701643245988"><ele>4.0</ele><time>2026-04-05T14:40:10.858Z</time></trkpt><trkpt lat="44.893326255974415" lon="11.833775303142561"><ele>4.0</ele><time>2026-04-05T14:40:11.858Z</time></trkpt><trkpt lat="44.893234505695254" lon="11.833845036614978"><ele>4.0</ele><time>2026-04-05T14:40:12.858Z</time></trkpt><trkpt lat="44.893157215080926" lon="11.833907296892523"><ele>3.9999999999999996</ele><time>2026-04-05T14:40:13.858Z</time></trkpt><trkpt lat="44.89307223379359" lon="11.833974464057556"><ele>4.0</ele><time>2026-04-05T14:40:14.857Z</time></trkpt><trkpt lat="44.892994414610634" lon="11.834027191232671"><ele>4.0</ele><time>2026-04-05T14:40:15.857Z</time></trkpt><trkpt lat="44.89292543409957" lon="11.834078801458837"><ele>4.0</ele><time>2026-04-05T14:40:16.857Z</time></trkpt><trkpt lat="44.89286134392819" lon="11.834130931699502"><ele>3.9999999999999996</ele><time>2026-04-05T14:40:17.857Z</time></trkpt><trkpt lat="44.89276641823677" lon="11.83418632833006"><ele>4.0</ele><time>2026-04-05T14:40:18.857Z</time></trkpt><trkpt lat="44.89265951897149" lon="11.834230935397253"><ele>3.8000000000000003</ele><time>2026-04-05T14:40:19.857Z</time></trkpt><trkpt lat="44.89255866873374" lon="11.834258392321551"><ele>3.6000000000000005</ele><time>2026-04-05T14:40:20.857Z</time></trkpt><trkpt lat="44.89246023797414" lon="11.834278018388344"><ele>3.4</ele><time>2026-04-05T14:40:21.857Z</time></trkpt><trkpt lat="44.89236789928808" lon="11.834299874467442"><ele>3.2</ele><time>2026-04-05T14:40:22.857Z</time></trkpt><trkpt lat="44.89228123862382" lon="11.834322245723998"><ele>3.0</ele><time>2026-04-05T14:40:23.857Z</time></trkpt><trkpt lat="44.89219880738162" lon="11.834352357931369"><ele>3.0</ele><time>2026-04-05T14:40:24.857Z</time></trkpt><trkpt lat="44.89210677203551" lon="11.834373813713688"><ele>3.0</ele><time>2026-04-05T14:40:25.857Z</time></trkpt><trkpt lat="44.89202094613731" lon="11.834393704575929"><ele>3.0</ele><time>2026-04-05T14:40:26.857Z</time></trkpt><trkpt lat="44.89194187650459" lon="11.8344114263754"><ele>3.0</ele><time>2026-04-05T14:40:27.857Z</time></trkpt><trkpt lat="44.89187610582644" lon="11.834429337263835"><ele>3.0</ele><time>2026-04-05T14:40:28.857Z</time></trkpt><trkpt lat="44.89176513405738" lon="11.834458017517637"><ele>3.0</ele><time>2026-04-05T14:40:30.857Z</time></trkpt><trkpt lat="44.89166927445772" lon="11.834484562329845"><ele>3.1666666666666665</ele><time>2026-04-05T14:40:32.857Z</time></trkpt><trkpt lat="44.89159419718013" lon="11.834502116886403"><ele>3.333333333333333</ele><time>2026-04-05T14:40:35.857Z</time></trkpt><trkpt lat="44.891524496914485" lon="11.834530989190744"><ele>3.5</ele><time>2026-04-05T14:40:41.856Z</time></trkpt><trkpt lat="44.8914398129715" lon="11.834575808727926"><ele>3.6666666666666665</ele><time>2026-04-05T14:40:43.856Z</time></trkpt><trkpt lat="44.891367201081216" lon="11.834607507670947"><ele>3.833333333333333</ele><time>2026-04-05T14:40:44.856Z</time></trkpt><trkpt lat="44.8912869877508" lon="11.834625185702908"><ele>4.0</ele><time>2026-04-05T14:40:45.856Z</time></trkpt><trkpt lat="44.89120087610899" lon="11.834625180319701"><ele>4.0</ele><time>2026-04-05T14:40:46.856Z</time></trkpt><trkpt lat="44.89110497063644" lon="11.8346140624566"><ele>4.0</ele><time>2026-04-05T14:40:47.856Z</time></trkpt><trkpt lat="44.89100439032457" lon="11.834589384110362"><ele>4.0</ele><time>2026-04-05T14:40:48.856Z</time></trkpt><trkpt lat="44.89090453778464" lon="11.834561684321852"><ele>4.0</ele><time>2026-04-05T14:40:49.856Z</time></trkpt><trkpt lat="44.89081333269847" lon="11.834518433766485"><ele>4.0</ele><time>2026-04-05T14:40:50.856Z</time></trkpt><trkpt lat="44.89074115649939" lon="11.834471417448118"><ele>3.8000000000000003</ele><time>2026-04-05T14:40:51.856Z</time></trkpt><trkpt lat="44.89068193827213" lon="11.83441282523172"><ele>3.6000000000000005</ele><time>2026-04-05T14:40:52.856Z</time></trkpt><trkpt lat="44.89056491585822" lon="11.83435907169781"><ele>3.4</ele><time>2026-04-05T14:40:54.856Z</time></trkpt><trkpt lat="44.89046628682543" lon="11.834383313954053"><ele>3.2</ele><time>2026-04-05T14:40:55.856Z</time></trkpt><trkpt lat="44.89036143405037" lon="11.834438363208095"><ele>3.0</ele><time>2026-04-05T14:40:56.856Z</time></trkpt><trkpt lat="44.890257701880195" lon="11.834487745162255"><ele>3.0</ele><time>2026-04-05T14:40:57.856Z</time></trkpt><trkpt lat="44.89015773013814" lon="11.83454507654036"><ele>3.0</ele><time>2026-04-05T14:40:58.856Z</time></trkpt><trkpt lat="44.89005832117587" lon="11.834586129246665"><ele>3.0</ele><time>2026-04-05T14:40:59.856Z</time></trkpt><trkpt lat="44.889955688890645" lon="11.834645086517456"><ele>3.0</ele><time>2026-04-05T14:41:00.856Z</time></trkpt><trkpt lat="44.8898566590437" lon="11.834696273479551"><ele>3.0</ele><time>2026-04-05T14:41:01.856Z</time></trkpt><trkpt lat="44.889762047640204" lon="11.834746412528308"><ele>2.6</ele><time>2026-04-05T14:41:02.856Z</time></trkpt><trkpt lat="44.88966246083954" lon="11.834792755380898"><ele>2.1999999999999997</ele><time>2026-04-05T14:41:03.856Z</time></trkpt><trkpt lat="44.8895790220193" lon="11.834845254298836"><ele>1.8</ele><time>2026-04-05T14:41:04.856Z</time></trkpt><trkpt lat="44.889497655114575" lon="11.834883264329466"><ele>1.4</ele><time>2026-04-05T14:41:05.856Z</time></trkpt><trkpt lat="44.88943346270867" lon="11.834908406300112"><ele>1.0</ele><time>2026-04-05T14:41:06.856Z</time></trkpt><trkpt lat="44.88934863555752" lon="11.834992021594838"><ele>0.9999999999999999</ele><time>2026-04-05T14:41:08.857Z</time></trkpt><trkpt lat="44.889344200355374" lon="11.83510378814621"><ele>1.0</ele><time>2026-04-05T14:41:10.857Z</time></trkpt><trkpt lat="44.88938986193388" lon="11.835186946654776"><ele>1.0</ele><time>2026-04-05T14:41:12.857Z</time></trkpt><trkpt lat="44.88942390026464" lon="11.83527526676592"><ele>1.0</ele><time>2026-04-05T14:41:15.857Z</time></trkpt><trkpt lat="44.889489816138784" lon="11.835256991286906"><ele>0.9999999999999999</ele><time>2026-04-05T14:50:05.864Z</time></trkpt><trkpt lat="44.88957105995888" lon="11.835335230267196"><ele>1.0</ele><time>2026-04-05T14:50:20.863Z</time></trkpt><trkpt lat="44.88961872837452" lon="11.835413278392513"><ele>0.9999999999999999</ele><time>2026-04-05T14:50:21.863Z</time></trkpt><trkpt lat="44.889671288277164" lon="11.835503831427362"><ele>1.0</ele><time>2026-04-05T14:50:22.863Z</time></trkpt><trkpt lat="44.88972143197252" lon="11.835585871902786"><ele>1.0</ele><time>2026-04-05T14:50:23.863Z</time></trkpt><trkpt lat="44.88977634200619" lon="11.8356674544687"><ele>1.0</ele><time>2026-04-05T14:50:24.863Z</time></trkpt><trkpt lat="44.88984100295549" lon="11.835756921891749"><ele>0.9999999999999999</ele><time>2026-04-05T14:50:25.863Z</time></trkpt><trkpt lat="44.88991250355694" lon="11.83584520801141"><ele>1.0</ele><time>2026-04-05T14:50:26.863Z</time></trkpt><trkpt lat="44.88998103254377" lon="11.835964373380572"><ele>1.0</ele><time>2026-04-05T14:50:27.863Z</time></trkpt><trkpt lat="44.89007071777924" lon="11.836045717964948"><ele>1.0</ele><time>2026-04-05T14:50:28.863Z</time></trkpt><trkpt lat="44.89016586267494" lon="11.83611733812554"><ele>1.0</ele><time>2026-04-05T14:50:29.863Z</time></trkpt><trkpt lat="44.89028180428806" lon="11.836155820678536"><ele>1.0</ele><time>2026-04-05T14:50:30.863Z</time></trkpt><trkpt lat="44.89038196533254" lon="11.836212772696708"><ele>1.0</ele><time>2026-04-05T14:50:31.863Z</time></trkpt><trkpt lat="44.89047525621168" lon="11.836256969221445"><ele>1.4</ele><time>2026-04-05T14:50:32.863Z</time></trkpt><trkpt lat="44.890586510941816" lon="11.83629836704858"><ele>1.8</ele><time>2026-04-05T14:50:33.863Z</time></trkpt><trkpt lat="44.89069248243761" lon="11.836322858082365"><ele>2.1999999999999997</ele><time>2026-04-05T14:50:34.863Z</time></trkpt><trkpt lat="44.89078930722282" lon="11.836336978749241"><ele>2.6</ele><time>2026-04-05T14:50:35.863Z</time></trkpt><trkpt lat="44.890863931415495" lon="11.836348826710958"><ele>3.0</ele><time>2026-04-05T14:50:36.863Z</time></trkpt><trkpt lat="44.89095662775194" lon="11.836356803683824"><ele>3.0</ele><time>2026-04-05T14:50:38.863Z</time></trkpt><trkpt lat="44.891032244432424" lon="11.83634983431719"><ele>3.0</ele><time>2026-04-05T14:50:44.862Z</time></trkpt><trkpt lat="44.89100965958609" lon="11.836142687648723"><ele>3.0</ele><time>2026-04-05T14:50:46.862Z</time></trkpt><trkpt lat="44.8909973725213" lon="11.836017922493765"><ele>3.0</ele><time>2026-04-05T14:50:47.862Z</time></trkpt><trkpt lat="44.89098558873533" lon="11.835898267379156"><ele>3.0</ele><time>2026-04-05T14:50:48.862Z</time></trkpt><trkpt lat="44.89097167698266" lon="11.835751540039995"><ele>3.0</ele><time>2026-04-05T14:50:49.862Z</time></trkpt><trkpt lat="44.890957237869706" lon="11.835598668213773"><ele>3.0</ele><time>2026-04-05T14:50:50.862Z</time></trkpt><trkpt lat="44.89094207521566" lon="11.835438135121482"><ele>3.0</ele><time>2026-04-05T14:50:51.862Z</time></trkpt><trkpt lat="44.890926831584515" lon="11.835273844690276"><ele>3.0</ele><time>2026-04-05T14:50:52.862Z</time></trkpt><trkpt lat="44.89091269504775" lon="11.835120067777002"><ele>3.0</ele><time>2026-04-05T14:50:53.862Z</time></trkpt><trkpt lat="44.89090098898625" lon="11.834992729109375"><ele>3.0</ele><time>2026-04-05T14:50:54.862Z</time></trkpt><trkpt lat="44.89089117962131" lon="11.834880364402085"><ele>3.0</ele><time>2026-04-05T14:50:55.862Z</time></trkpt><trkpt lat="44.89088346411068" lon="11.834785158411185"><ele>3.0</ele><time>2026-04-05T14:50:56.862Z</time></trkpt><trkpt lat="44.89087216792473" lon="11.834642802868416"><ele>3.0</ele><time>2026-04-05T14:50:58.862Z</time></trkpt><trkpt lat="44.891081355446275" lon="11.834588412857396"><ele>3.1666666666666665</ele><time>2026-04-05T14:51:01.862Z</time></trkpt><trkpt lat="44.89116800700821" lon="11.834604626943971"><ele>3.333333333333333</ele><time>2026-04-05T14:51:02.862Z</time></trkpt><trkpt lat="44.89125232568273" lon="11.834605692075392"><ele>3.5</ele><time>2026-04-05T14:51:03.862Z</time></trkpt><trkpt lat="44.89131940792905" lon="11.834607925598137"><ele>3.6666666666666665</ele><time>2026-04-05T14:51:04.862Z</time></trkpt><trkpt lat="44.891419172647446" lon="11.834602602513337"><ele>3.833333333333333</ele><time>2026-04-05T14:51:06.862Z</time></trkpt><trkpt lat="44.89148198277753" lon="11.83458633469693"><ele>4.0</ele><time>2026-04-05T14:51:08.862Z</time></trkpt><trkpt lat="44.89156492746204" lon="11.834558108509317"><ele>4.0</ele><time>2026-04-05T14:51:10.862Z</time></trkpt><trkpt lat="44.89162371097005" lon="11.834507624011259"><ele>4.0</ele><time>2026-04-05T14:51:11.862Z</time></trkpt><trkpt lat="44.891715132079895" lon="11.834489811671192"><ele>4.0</ele><time>2026-04-05T14:51:12.862Z</time></trkpt><trkpt lat="44.89180534531031" lon="11.834455547660289"><ele>4.0</ele><time>2026-04-05T14:51:13.861Z</time></trkpt><trkpt lat="44.8919221280469" lon="11.834420017393779"><ele>4.0</ele><time>2026-04-05T14:51:14.861Z</time></trkpt><trkpt lat="44.89205016731377" lon="11.834384225217349"><ele>3.75</ele><time>2026-04-05T14:51:15.861Z</time></trkpt><trkpt lat="44.89217791542423" lon="11.834343804781469"><ele>3.5</ele><time>2026-04-05T14:51:16.861Z</time></trkpt><trkpt lat="44.892309164996234" lon="11.834304460542105"><ele>3.25</ele><time>2026-04-05T14:51:17.861Z</time></trkpt><trkpt lat="44.892440852362476" lon="11.834260714298244"><ele>3.0</ele><time>2026-04-05T14:51:18.861Z</time></trkpt><trkpt lat="44.89257310987235" lon="11.834211650244034"><ele>3.25</ele><time>2026-04-05T14:51:19.861Z</time></trkpt><trkpt lat="44.892703362212096" lon="11.834159879454925"><ele>3.5</ele><time>2026-04-05T14:51:20.861Z</time></trkpt><trkpt lat="44.892834500386044" lon="11.834095682191096"><ele>3.75</ele><time>2026-04-05T14:51:21.861Z</time></trkpt><trkpt lat="44.89295795046363" lon="11.834022777278314"><ele>4.0</ele><time>2026-04-05T14:51:22.861Z</time></trkpt><trkpt lat="44.89307213661066" lon="11.833943743117683"><ele>4.0</ele><time>2026-04-05T14:51:23.861Z</time></trkpt><trkpt lat="44.89317985143214" lon="11.833860545995865"><ele>4.0</ele><time>2026-04-05T14:51:24.861Z</time></trkpt><trkpt lat="44.89328282664621" lon="11.833788019655476"><ele>4.0</ele><time>2026-04-05T14:51:25.861Z</time></trkpt><trkpt lat="44.89337978396122" lon="11.833712965617575"><ele>4.0</ele><time>2026-04-05T14:51:26.861Z</time></trkpt><trkpt lat="44.89347149898704" lon="11.833641658665892"><ele>3.9999999999999996</ele><time>2026-04-05T14:51:27.861Z</time></trkpt><trkpt lat="44.893560795035214" lon="11.833577023787198"><ele>4.0</ele><time>2026-04-05T14:51:28.861Z</time></trkpt><trkpt lat="44.89364333525936" lon="11.8335150695361"><ele>4.0</ele><time>2026-04-05T14:51:29.861Z</time></trkpt><trkpt lat="44.893722390832494" lon="11.833460154521159"><ele>4.0</ele><time>2026-04-05T14:51:30.861Z</time></trkpt><trkpt lat="44.89379170274587" lon="11.833401241701496"><ele>3.9999999999999996</ele><time>2026-04-05T14:51:31.861Z</time></trkpt><trkpt lat="44.893859307828244" lon="11.833345584430102"><ele>4.0</ele><time>2026-04-05T14:51:32.861Z</time></trkpt><trkpt lat="44.893918005890214" lon="11.833302505411403"><ele>3.8000000000000003</ele><time>2026-04-05T14:51:33.861Z</time></trkpt><trkpt lat="44.894010502572414" lon="11.833236884485679"><ele>3.6000000000000005</ele><time>2026-04-05T14:51:35.861Z</time></trkpt><trkpt lat="44.89406270222423" lon="11.833180311800685"><ele>3.4</ele><time>2026-04-05T14:51:37.861Z</time></trkpt><trkpt lat="44.894137514995904" lon="11.83314942463872"><ele>3.2</ele><time>2026-04-05T14:51:43.862Z</time></trkpt><trkpt lat="44.894196564562264" lon="11.833355188887595"><ele>3.0</ele><time>2026-04-05T14:51:46.861Z</time></trkpt><trkpt lat="44.89423575059273" lon="11.833469791233599"><ele>3.25</ele><time>2026-04-05T14:51:47.861Z</time></trkpt><trkpt lat="44.89427837467573" lon="11.833594448204856"><ele>3.5</ele><time>2026-04-05T14:51:48.862Z</time></trkpt><trkpt lat="44.894328591077254" lon="11.833741309617192"><ele>3.75</ele><time>2026-04-05T14:51:49.862Z</time></trkpt><trkpt lat="44.89439528511529" lon="11.833900057239017"><ele>4.0</ele><time>2026-04-05T14:51:50.862Z</time></trkpt><trkpt lat="44.89443345291815" lon="11.83406355916151"><ele>4.0</ele><time>2026-04-05T14:51:51.862Z</time></trkpt><trkpt lat="44.8944891086202" lon="11.83422068404722"><ele>4.0</ele><time>2026-04-05T14:51:52.862Z</time></trkpt><trkpt lat="44.89454943667964" lon="11.834372069576105"><ele>4.0</ele><time>2026-04-05T14:51:53.862Z</time></trkpt><trkpt lat="44.894589937187305" lon="11.834517635427225"><ele>4.0</ele><time>2026-04-05T14:51:54.861Z</time></trkpt><trkpt lat="44.8946342731998" lon="11.834641678376936"><ele>4.0</ele><time>2026-04-05T14:51:55.861Z</time></trkpt><trkpt lat="44.894679254291034" lon="11.834766256403878"><ele>4.0</ele><time>2026-04-05T14:51:56.861Z</time></trkpt><trkpt lat="44.89472316020794" lon="11.834908757910348"><ele>4.0</ele><time>2026-04-05T14:51:57.861Z</time></trkpt><trkpt lat="44.89476942466624" lon="11.83505717076855"><ele>4.0</ele><time>2026-04-05T14:51:58.861Z</time></trkpt><trkpt lat="44.89482049604681" lon="11.835204077136371"><ele>4.0</ele><time>2026-04-05T14:51:59.861Z</time></trkpt><trkpt lat="44.89487309513332" lon="11.835342638541462"><ele>3.9999999999999996</ele><time>2026-04-05T14:52:00.861Z</time></trkpt><trkpt lat="44.894932902227445" lon="11.83546133918133"><ele>4.0</ele><time>2026-04-05T14:52:01.861Z</time></trkpt><trkpt lat="44.89499457705432" lon="11.83556322583265"><ele>4.0</ele><time>2026-04-05T14:52:02.861Z</time></trkpt><trkpt lat="44.89506484472999" lon="11.835622506192637"><ele>4.0</ele><time>2026-04-05T14:52:03.861Z</time></trkpt><trkpt lat="44.895134713668675" lon="11.835643542801504"><ele>3.9999999999999996</ele><time>2026-04-05T14:52:04.861Z</time></trkpt><trkpt lat="44.89521319284394" lon="11.83563392678131"><ele>4.0</ele><time>2026-04-05T14:52:05.861Z</time></trkpt><trkpt lat="44.895322807896285" lon="11.835599778564834"><ele>4.0</ele><time>2026-04-05T14:52:06.861Z</time></trkpt><trkpt lat="44.895443474592064" lon="11.835560482182972"><ele>4.0</ele><time>2026-04-05T14:52:07.861Z</time></trkpt><trkpt lat="44.89556941875984" lon="11.835519415956734"><ele>4.0</ele><time>2026-04-05T14:52:08.861Z</time></trkpt><trkpt lat="44.89569647380971" lon="11.835473110012853"><ele>4.0</ele><time>2026-04-05T14:52:09.861Z</time></trkpt><trkpt lat="44.895821914898576" lon="11.835437276937627"><ele>3.6</ele><time>2026-04-05T14:52:10.861Z</time></trkpt><trkpt lat="44.89592960965988" lon="11.835406545773019"><ele>3.2</ele><time>2026-04-05T14:52:11.861Z</time></trkpt><trkpt lat="44.89603359904275" lon="11.835377824573118"><ele>2.8000000000000003</ele><time>2026-04-05T14:52:12.861Z</time></trkpt><trkpt lat="44.896140451713734" lon="11.835342983608468"><ele>2.4000000000000004</ele><time>2026-04-05T14:52:13.861Z</time></trkpt><trkpt lat="44.89624667097415" lon="11.835306533014048"><ele>2.0</ele><time>2026-04-05T14:52:14.861Z</time></trkpt><trkpt lat="44.89635192402871" lon="11.83527533107748"><ele>2.0</ele><time>2026-04-05T14:52:15.861Z</time></trkpt><trkpt lat="44.89645474573942" lon="11.835246902124492"><ele>2.0</ele><time>2026-04-05T14:52:16.861Z</time></trkpt><trkpt lat="44.896571107854314" lon="11.835203089938254"><ele>2.0</ele><time>2026-04-05T14:52:17.861Z</time></trkpt><trkpt lat="44.89669100659941" lon="11.83517291457781"><ele>2.0</ele><time>2026-04-05T14:52:18.861Z</time></trkpt><trkpt lat="44.89680983871321" lon="11.835163650919545"><ele>2.25</ele><time>2026-04-05T14:52:19.861Z</time></trkpt><trkpt lat="44.8969299038905" lon="11.835155806056553"><ele>2.5</ele><time>2026-04-05T14:52:20.861Z</time></trkpt><trkpt lat="44.89705777421613" lon="11.835161917003472"><ele>2.75</ele><time>2026-04-05T14:52:21.861Z</time></trkpt><trkpt lat="44.89719232596135" lon="11.835187808896682"><ele>3.0</ele><time>2026-04-05T14:52:22.861Z</time></trkpt><trkpt lat="44.89732175197072" lon="11.83521004229269"><ele>3.0</ele><time>2026-04-05T14:52:23.86Z</time></trkpt><trkpt lat="44.89745663513858" lon="11.835227938109327"><ele>3.0</ele><time>2026-04-05T14:52:24.86Z</time></trkpt><trkpt lat="44.897576050092866" lon="11.835250537074927"><ele>3.0</ele><time>2026-04-05T14:52:25.86Z</time></trkpt><trkpt lat="44.897674484794734" lon="11.835298926865127"><ele>3.0</ele><time>2026-04-05T14:52:26.86Z</time></trkpt><trkpt lat="44.89776356618174" lon="11.835308801280004"><ele>3.0</ele><time>2026-04-05T14:52:27.86Z</time></trkpt><trkpt lat="44.89784066227435" lon="11.835321724543709"><ele>3.0</ele><time>2026-04-05T14:52:28.86Z</time></trkpt><trkpt lat="44.897938055088645" lon="11.83533077103875"><ele>3.0</ele><time>2026-04-05T14:52:30.86Z</time></trkpt><trkpt lat="44.897950161562015" lon="11.835068053565651"><ele>3.0</ele><time>2026-04-05T14:52:33.86Z</time></trkpt><trkpt lat="44.89793009336861" lon="11.834949602774756"><ele>3.0</ele><time>2026-04-05T14:52:34.86Z</time></trkpt><trkpt lat="44.89790675932649" lon="11.834803035669195"><ele>3.0</ele><time>2026-04-05T14:52:35.86Z</time></trkpt><trkpt lat="44.897876265720136" lon="11.834650300463247"><ele>3.0</ele><time>2026-04-05T14:52:36.86Z</time></trkpt><trkpt lat="44.897844967216976" lon="11.83448984059042"><ele>3.0</ele><time>2026-04-05T14:52:37.86Z</time></trkpt><trkpt lat="44.89781290473549" lon="11.834309965531782"><ele>3.0</ele><time>2026-04-05T14:52:38.86Z</time></trkpt><trkpt lat="44.89777753545132" lon="11.834117763730092"><ele>3.25</ele><time>2026-04-05T14:52:39.86Z</time></trkpt><trkpt lat="44.89774585898238" lon="11.833921812533958"><ele>3.5</ele><time>2026-04-05T14:52:40.86Z</time></trkpt><trkpt lat="44.89771468268546" lon="11.833720895960688"><ele>3.75</ele><time>2026-04-05T14:52:41.86Z</time></trkpt><trkpt lat="44.89768071040544" lon="11.833525161033391"><ele>4.0</ele><time>2026-04-05T14:52:42.86Z</time></trkpt><trkpt lat="44.89764867201687" lon="11.833335740538137"><ele>4.0</ele><time>2026-04-05T14:52:43.86Z</time></trkpt><trkpt lat="44.89761658753127" lon="11.833155357435784"><ele>4.0</ele><time>2026-04-05T14:52:44.86Z</time></trkpt><trkpt lat="44.89757935338939" lon="11.832984535872232"><ele>4.0</ele><time>2026-04-05T14:52:45.86Z</time></trkpt><trkpt lat="44.89755258198795" lon="11.832823062449132"><ele>4.0</ele><time>2026-04-05T14:52:46.86Z</time></trkpt><trkpt lat="44.89752842401419" lon="11.832676671232255"><ele>3.8000000000000003</ele><time>2026-04-05T14:52:47.86Z</time></trkpt><trkpt lat="44.89750361899294" lon="11.832539428988749"><ele>3.6000000000000005</ele><time>2026-04-05T14:52:48.86Z</time></trkpt><trkpt lat="44.897482805213606" lon="11.83240906385287"><ele>3.4</ele><time>2026-04-05T14:52:49.86Z</time></trkpt><trkpt lat="44.897454667604805" lon="11.832284584311983"><ele>3.2</ele><time>2026-04-05T14:52:50.86Z</time></trkpt><trkpt lat="44.89743188309711" lon="11.832174593813612"><ele>3.0</ele><time>2026-04-05T14:52:51.86Z</time></trkpt><trkpt lat="44.897409059460266" lon="11.832031328747634"><ele>3.0</ele><time>2026-04-05T14:52:53.859Z</time></trkpt><trkpt lat="44.89726048602597" lon="11.831995612802555"><ele>3.0</ele><time>2026-04-05T14:52:56.859Z</time></trkpt><trkpt lat="44.8971581845834" lon="11.832032586654512"><ele>3.0</ele><time>2026-04-05T14:52:58.859Z</time></trkpt><trkpt lat="44.89709108824987" lon="11.832058279253886"><ele>3.0</ele><time>2026-04-05T14:52:59.859Z</time></trkpt><trkpt lat="44.89701733785316" lon="11.8320801562883"><ele>3.0</ele><time>2026-04-05T14:53:00.859Z</time></trkpt><trkpt lat="44.89693849522521" lon="11.832101388370031"><ele>3.0</ele><time>2026-04-05T14:53:01.859Z</time></trkpt><trkpt lat="44.896868804260386" lon="11.832128486314199"><ele>3.0</ele><time>2026-04-05T14:53:02.859Z</time></trkpt><trkpt lat="44.896797872886886" lon="11.832164758640507"><ele>3.0</ele><time>2026-04-05T14:53:03.859Z</time></trkpt><trkpt lat="44.8966891050201" lon="11.832227772825627"><ele>3.0</ele><time>2026-04-05T14:53:05.859Z</time></trkpt><trkpt lat="44.89660701507045" lon="11.83228678546269"><ele>3.0</ele><time>2026-04-05T14:53:07.859Z</time></trkpt><trkpt lat="44.896536377372165" lon="11.832288560984905"><ele>3.0</ele><time>2026-04-05T14:53:10.859Z</time></trkpt><trkpt lat="44.89647812160349" lon="11.83218116178701"><ele>4.0</ele><time>2026-04-05T14:53:15.859Z</time></trkpt><trkpt lat="44.896543046527654" lon="11.832180424497288"><ele>4.0</ele><time>2026-04-05T14:53:51.859Z</time></trkpt></trkseg></trk></gpx>